<?xml version="1.0" encoding="UTF-8" standalone="no" ?>
<gpx xmlns="http://www.topografix.com/GPX/1/1" xmlns:xsi="http://www.w3.org/2001/XMLSchema-instance" xsi:schemaLocation="http://www.topografix.com/GPX/1/1 http://www.topografix.com/GPX/1/1/gpx.xsd" version="1.1" creator="VisuGPX - https://www.visugpx.com">
  <metadata>
    <name>20201230 VTT GRABELS COMBAILLAUX StGely Lironde</name>
  </metadata>
  <wpt lat="43.63084" lon="3.81661">
    <ele>41</ele>
    <name><![CDATA[Pause à 30/12 à 10:24]]></name>
    <desc><![CDATA[Pause de 1min 8s]]></desc>
  </wpt>
  <wpt lat="43.63736" lon="3.80597">
    <ele>72</ele>
    <name><![CDATA[Pause à 30/12 à 10:42]]></name>
    <desc><![CDATA[Pause de 1min 23s]]></desc>
  </wpt>
  <wpt lat="43.68137" lon="3.76491">
    <ele>153</ele>
    <name><![CDATA[Pause à 30/12 à 11:31]]></name>
    <desc><![CDATA[Pause de 1min 11s]]></desc>
  </wpt>
  <wpt lat="43.6841" lon="3.76615">
    <ele>165</ele>
    <name><![CDATA[Pause à 30/12 à 11:35]]></name>
    <desc><![CDATA[Pause de 1min 14s]]></desc>
  </wpt>
  <wpt lat="43.6846" lon="3.76546">
    <ele>180</ele>
    <name><![CDATA[Pause à 30/12 à 11:38]]></name>
    <desc><![CDATA[Pause de 1min 20s]]></desc>
  </wpt>
  <wpt lat="43.6874" lon="3.76779">
    <ele>169</ele>
    <name><![CDATA[Pause à 30/12 à 11:45]]></name>
    <desc><![CDATA[Pause de 1min 16s]]></desc>
  </wpt>
  <wpt lat="43.69425" lon="3.77007">
    <ele>168</ele>
    <name><![CDATA[Pause à 30/12 à 11:54]]></name>
    <desc><![CDATA[Pause de 1min 18s]]></desc>
  </wpt>
  <wpt lat="43.70134" lon="3.78757">
    <ele>180</ele>
    <name><![CDATA[Pause à 30/12 à 12:15]]></name>
    <desc><![CDATA[Pause de 2min 43s]]></desc>
  </wpt>
  <wpt lat="43.69127" lon="3.791">
    <ele>177</ele>
    <name><![CDATA[Pause à 30/12 à 12:26]]></name>
    <desc><![CDATA[Pause de 1min 12s]]></desc>
  </wpt>
  <wpt lat="43.68871" lon="3.80201">
    <ele>116</ele>
    <name><![CDATA[Pause à 30/12 à 12:33]]></name>
    <desc><![CDATA[Pause de 1min 14s]]></desc>
  </wpt>
  <wpt lat="43.68764" lon="3.80813">
    <ele>104</ele>
    <name><![CDATA[Pause à 30/12 à 12:36]]></name>
    <desc><![CDATA[Pause de 2min 34s]]></desc>
  </wpt>
  <wpt lat="43.6342" lon="3.85999">
    <ele>54</ele>
    <name><![CDATA[Pause à 30/12 à 13:29]]></name>
  </wpt>
  <trk>
    <name><![CDATA[20201230 VTT GRABELS COMBAILLAUX StGely Lironde]]></name>
    <trkseg>
      <trkpt lat="43.63281" lon="3.86031">
        <ele>55</ele>
        <time>2020-12-30T09:04:52Z</time>
      </trkpt>
      <trkpt lat="43.63276" lon="3.8603">
        <ele>54</ele>
        <time>2020-12-30T09:04:53Z</time>
      </trkpt>
      <trkpt lat="43.63268" lon="3.8603">
        <ele>53</ele>
        <time>2020-12-30T09:04:55Z</time>
      </trkpt>
      <trkpt lat="43.63263" lon="3.86031">
        <ele>51</ele>
        <time>2020-12-30T09:04:56Z</time>
      </trkpt>
      <trkpt lat="43.63258" lon="3.86032">
        <ele>48</ele>
        <time>2020-12-30T09:04:57Z</time>
      </trkpt>
      <trkpt lat="43.6325" lon="3.86031">
        <ele>48</ele>
        <time>2020-12-30T09:04:59Z</time>
      </trkpt>
      <trkpt lat="43.63244" lon="3.86031">
        <ele>48</ele>
        <time>2020-12-30T09:05:00Z</time>
      </trkpt>
      <trkpt lat="43.63239" lon="3.86032">
        <ele>47</ele>
        <time>2020-12-30T09:05:01Z</time>
      </trkpt>
      <trkpt lat="43.63234" lon="3.86032">
        <ele>47</ele>
        <time>2020-12-30T09:05:02Z</time>
      </trkpt>
      <trkpt lat="43.63229" lon="3.86032">
        <ele>47</ele>
        <time>2020-12-30T09:05:03Z</time>
      </trkpt>
      <trkpt lat="43.63223" lon="3.86033">
        <ele>46</ele>
        <time>2020-12-30T09:05:04Z</time>
      </trkpt>
      <trkpt lat="43.63218" lon="3.86033">
        <ele>46</ele>
        <time>2020-12-30T09:05:05Z</time>
      </trkpt>
      <trkpt lat="43.63213" lon="3.86033">
        <ele>46</ele>
        <time>2020-12-30T09:05:06Z</time>
      </trkpt>
      <trkpt lat="43.63208" lon="3.86032">
        <ele>46</ele>
        <time>2020-12-30T09:05:07Z</time>
      </trkpt>
      <trkpt lat="43.63203" lon="3.86032">
        <ele>45</ele>
        <time>2020-12-30T09:05:08Z</time>
      </trkpt>
      <trkpt lat="43.63197" lon="3.86033">
        <ele>45</ele>
        <time>2020-12-30T09:05:09Z</time>
      </trkpt>
      <trkpt lat="43.63192" lon="3.86034">
        <ele>45</ele>
        <time>2020-12-30T09:05:10Z</time>
      </trkpt>
      <trkpt lat="43.63186" lon="3.86036">
        <ele>44</ele>
        <time>2020-12-30T09:05:11Z</time>
      </trkpt>
      <trkpt lat="43.63181" lon="3.86038">
        <ele>44</ele>
        <time>2020-12-30T09:05:12Z</time>
      </trkpt>
      <trkpt lat="43.63174" lon="3.8604">
        <ele>44</ele>
        <time>2020-12-30T09:05:13Z</time>
      </trkpt>
      <trkpt lat="43.63169" lon="3.86038">
        <ele>43</ele>
        <time>2020-12-30T09:05:14Z</time>
      </trkpt>
      <trkpt lat="43.63164" lon="3.86034">
        <ele>43</ele>
        <time>2020-12-30T09:05:15Z</time>
      </trkpt>
      <trkpt lat="43.63159" lon="3.86029">
        <ele>43</ele>
        <time>2020-12-30T09:05:16Z</time>
      </trkpt>
      <trkpt lat="43.6316" lon="3.8602">
        <ele>43</ele>
        <time>2020-12-30T09:05:17Z</time>
      </trkpt>
      <trkpt lat="43.63163" lon="3.86014">
        <ele>43</ele>
        <time>2020-12-30T09:05:18Z</time>
      </trkpt>
      <trkpt lat="43.63165" lon="3.86007">
        <ele>44</ele>
        <time>2020-12-30T09:05:19Z</time>
      </trkpt>
      <trkpt lat="43.63166" lon="3.86001">
        <ele>44</ele>
        <time>2020-12-30T09:05:20Z</time>
      </trkpt>
      <trkpt lat="43.63168" lon="3.85994">
        <ele>44</ele>
        <time>2020-12-30T09:05:21Z</time>
      </trkpt>
      <trkpt lat="43.63169" lon="3.85988">
        <ele>44</ele>
        <time>2020-12-30T09:05:22Z</time>
      </trkpt>
      <trkpt lat="43.63171" lon="3.85981">
        <ele>44</ele>
        <time>2020-12-30T09:05:23Z</time>
      </trkpt>
      <trkpt lat="43.63172" lon="3.85975">
        <ele>45</ele>
        <time>2020-12-30T09:05:24Z</time>
      </trkpt>
      <trkpt lat="43.63173" lon="3.85968">
        <ele>45</ele>
        <time>2020-12-30T09:05:25Z</time>
      </trkpt>
      <trkpt lat="43.63175" lon="3.85961">
        <ele>45</ele>
        <time>2020-12-30T09:05:26Z</time>
      </trkpt>
      <trkpt lat="43.63177" lon="3.85949">
        <ele>45</ele>
        <time>2020-12-30T09:05:28Z</time>
      </trkpt>
      <trkpt lat="43.63178" lon="3.85943">
        <ele>45</ele>
        <time>2020-12-30T09:05:29Z</time>
      </trkpt>
      <trkpt lat="43.63179" lon="3.85935">
        <ele>44</ele>
        <time>2020-12-30T09:05:30Z</time>
      </trkpt>
      <trkpt lat="43.6318" lon="3.85929">
        <ele>44</ele>
        <time>2020-12-30T09:05:31Z</time>
      </trkpt>
      <trkpt lat="43.6318" lon="3.85922">
        <ele>44</ele>
        <time>2020-12-30T09:05:32Z</time>
      </trkpt>
      <trkpt lat="43.63181" lon="3.85915">
        <ele>44</ele>
        <time>2020-12-30T09:05:33Z</time>
      </trkpt>
      <trkpt lat="43.6318" lon="3.85908">
        <ele>44</ele>
        <time>2020-12-30T09:05:34Z</time>
      </trkpt>
      <trkpt lat="43.6318" lon="3.85901">
        <ele>44</ele>
        <time>2020-12-30T09:05:35Z</time>
      </trkpt>
      <trkpt lat="43.63181" lon="3.85894">
        <ele>44</ele>
        <time>2020-12-30T09:05:36Z</time>
      </trkpt>
      <trkpt lat="43.63181" lon="3.85888">
        <ele>44</ele>
        <time>2020-12-30T09:05:37Z</time>
      </trkpt>
      <trkpt lat="43.63181" lon="3.85881">
        <ele>44</ele>
        <time>2020-12-30T09:05:38Z</time>
      </trkpt>
      <trkpt lat="43.63182" lon="3.85868">
        <ele>44</ele>
        <time>2020-12-30T09:05:40Z</time>
      </trkpt>
      <trkpt lat="43.63182" lon="3.85855">
        <ele>44</ele>
        <time>2020-12-30T09:05:42Z</time>
      </trkpt>
      <trkpt lat="43.63183" lon="3.85848">
        <ele>44</ele>
        <time>2020-12-30T09:05:43Z</time>
      </trkpt>
      <trkpt lat="43.63183" lon="3.85841">
        <ele>44</ele>
        <time>2020-12-30T09:05:44Z</time>
      </trkpt>
      <trkpt lat="43.63183" lon="3.85834">
        <ele>44</ele>
        <time>2020-12-30T09:05:45Z</time>
      </trkpt>
      <trkpt lat="43.63184" lon="3.85828">
        <ele>43</ele>
        <time>2020-12-30T09:05:46Z</time>
      </trkpt>
      <trkpt lat="43.63184" lon="3.85821">
        <ele>43</ele>
        <time>2020-12-30T09:05:47Z</time>
      </trkpt>
      <trkpt lat="43.63184" lon="3.85814">
        <ele>44</ele>
        <time>2020-12-30T09:05:48Z</time>
      </trkpt>
      <trkpt lat="43.63184" lon="3.85801">
        <ele>44</ele>
        <time>2020-12-30T09:05:50Z</time>
      </trkpt>
      <trkpt lat="43.63185" lon="3.85794">
        <ele>44</ele>
        <time>2020-12-30T09:05:51Z</time>
      </trkpt>
      <trkpt lat="43.63186" lon="3.85787">
        <ele>45</ele>
        <time>2020-12-30T09:05:52Z</time>
      </trkpt>
      <trkpt lat="43.63189" lon="3.85781">
        <ele>45</ele>
        <time>2020-12-30T09:05:53Z</time>
      </trkpt>
      <trkpt lat="43.63191" lon="3.85775">
        <ele>45</ele>
        <time>2020-12-30T09:05:54Z</time>
      </trkpt>
      <trkpt lat="43.63192" lon="3.85768">
        <ele>45</ele>
        <time>2020-12-30T09:05:55Z</time>
      </trkpt>
      <trkpt lat="43.63194" lon="3.85761">
        <ele>46</ele>
        <time>2020-12-30T09:05:56Z</time>
      </trkpt>
      <trkpt lat="43.63196" lon="3.85754">
        <ele>46</ele>
        <time>2020-12-30T09:05:57Z</time>
      </trkpt>
      <trkpt lat="43.63199" lon="3.85748">
        <ele>46</ele>
        <time>2020-12-30T09:05:58Z</time>
      </trkpt>
      <trkpt lat="43.63201" lon="3.85742">
        <ele>46</ele>
        <time>2020-12-30T09:05:59Z</time>
      </trkpt>
      <trkpt lat="43.63202" lon="3.85735">
        <ele>46</ele>
        <time>2020-12-30T09:06:00Z</time>
      </trkpt>
      <trkpt lat="43.63203" lon="3.85728">
        <ele>45</ele>
        <time>2020-12-30T09:06:01Z</time>
      </trkpt>
      <trkpt lat="43.63205" lon="3.85721">
        <ele>45</ele>
        <time>2020-12-30T09:06:02Z</time>
      </trkpt>
      <trkpt lat="43.63206" lon="3.85714">
        <ele>44</ele>
        <time>2020-12-30T09:06:03Z</time>
      </trkpt>
      <trkpt lat="43.63208" lon="3.85707">
        <ele>44</ele>
        <time>2020-12-30T09:06:04Z</time>
      </trkpt>
      <trkpt lat="43.63209" lon="3.85701">
        <ele>43</ele>
        <time>2020-12-30T09:06:05Z</time>
      </trkpt>
      <trkpt lat="43.63211" lon="3.85694">
        <ele>43</ele>
        <time>2020-12-30T09:06:06Z</time>
      </trkpt>
      <trkpt lat="43.63212" lon="3.85688">
        <ele>43</ele>
        <time>2020-12-30T09:06:07Z</time>
      </trkpt>
      <trkpt lat="43.63213" lon="3.85681">
        <ele>43</ele>
        <time>2020-12-30T09:06:08Z</time>
      </trkpt>
      <trkpt lat="43.63215" lon="3.85673">
        <ele>43</ele>
        <time>2020-12-30T09:06:09Z</time>
      </trkpt>
      <trkpt lat="43.63215" lon="3.85666">
        <ele>42</ele>
        <time>2020-12-30T09:06:10Z</time>
      </trkpt>
      <trkpt lat="43.63216" lon="3.85659">
        <ele>42</ele>
        <time>2020-12-30T09:06:11Z</time>
      </trkpt>
      <trkpt lat="43.63216" lon="3.85652">
        <ele>42</ele>
        <time>2020-12-30T09:06:12Z</time>
      </trkpt>
      <trkpt lat="43.63218" lon="3.85645">
        <ele>42</ele>
        <time>2020-12-30T09:06:13Z</time>
      </trkpt>
      <trkpt lat="43.63218" lon="3.85631">
        <ele>42</ele>
        <time>2020-12-30T09:06:15Z</time>
      </trkpt>
      <trkpt lat="43.63218" lon="3.85623">
        <ele>42</ele>
        <time>2020-12-30T09:06:16Z</time>
      </trkpt>
      <trkpt lat="43.63218" lon="3.85616">
        <ele>42</ele>
        <time>2020-12-30T09:06:17Z</time>
      </trkpt>
      <trkpt lat="43.63218" lon="3.85609">
        <ele>41</ele>
        <time>2020-12-30T09:06:18Z</time>
      </trkpt>
      <trkpt lat="43.63218" lon="3.85602">
        <ele>41</ele>
        <time>2020-12-30T09:06:19Z</time>
      </trkpt>
      <trkpt lat="43.63218" lon="3.85595">
        <ele>42</ele>
        <time>2020-12-30T09:06:20Z</time>
      </trkpt>
      <trkpt lat="43.63218" lon="3.85589">
        <ele>42</ele>
        <time>2020-12-30T09:06:21Z</time>
      </trkpt>
      <trkpt lat="43.63218" lon="3.85581">
        <ele>42</ele>
        <time>2020-12-30T09:06:22Z</time>
      </trkpt>
      <trkpt lat="43.63219" lon="3.85575">
        <ele>42</ele>
        <time>2020-12-30T09:06:23Z</time>
      </trkpt>
      <trkpt lat="43.6322" lon="3.85561">
        <ele>42</ele>
        <time>2020-12-30T09:06:25Z</time>
      </trkpt>
      <trkpt lat="43.63221" lon="3.85555">
        <ele>42</ele>
        <time>2020-12-30T09:06:26Z</time>
      </trkpt>
      <trkpt lat="43.63221" lon="3.85548">
        <ele>41</ele>
        <time>2020-12-30T09:06:27Z</time>
      </trkpt>
      <trkpt lat="43.63221" lon="3.85541">
        <ele>41</ele>
        <time>2020-12-30T09:06:28Z</time>
      </trkpt>
      <trkpt lat="43.63222" lon="3.85534">
        <ele>41</ele>
        <time>2020-12-30T09:06:29Z</time>
      </trkpt>
      <trkpt lat="43.63222" lon="3.85526">
        <ele>40</ele>
        <time>2020-12-30T09:06:30Z</time>
      </trkpt>
      <trkpt lat="43.63222" lon="3.85519">
        <ele>39</ele>
        <time>2020-12-30T09:06:31Z</time>
      </trkpt>
      <trkpt lat="43.63223" lon="3.85507">
        <ele>39</ele>
        <time>2020-12-30T09:06:33Z</time>
      </trkpt>
      <trkpt lat="43.63223" lon="3.85499">
        <ele>38</ele>
        <time>2020-12-30T09:06:34Z</time>
      </trkpt>
      <trkpt lat="43.63224" lon="3.85491">
        <ele>38</ele>
        <time>2020-12-30T09:06:35Z</time>
      </trkpt>
      <trkpt lat="43.63225" lon="3.85485">
        <ele>38</ele>
        <time>2020-12-30T09:06:36Z</time>
      </trkpt>
      <trkpt lat="43.63225" lon="3.85477">
        <ele>38</ele>
        <time>2020-12-30T09:06:37Z</time>
      </trkpt>
      <trkpt lat="43.63225" lon="3.8547">
        <ele>38</ele>
        <time>2020-12-30T09:06:38Z</time>
      </trkpt>
      <trkpt lat="43.63226" lon="3.85463">
        <ele>38</ele>
        <time>2020-12-30T09:06:39Z</time>
      </trkpt>
      <trkpt lat="43.63226" lon="3.85456">
        <ele>38</ele>
        <time>2020-12-30T09:06:40Z</time>
      </trkpt>
      <trkpt lat="43.63224" lon="3.85449">
        <ele>38</ele>
        <time>2020-12-30T09:06:41Z</time>
      </trkpt>
      <trkpt lat="43.63222" lon="3.85441">
        <ele>38</ele>
        <time>2020-12-30T09:06:42Z</time>
      </trkpt>
      <trkpt lat="43.6322" lon="3.85434">
        <ele>38</ele>
        <time>2020-12-30T09:06:43Z</time>
      </trkpt>
      <trkpt lat="43.63218" lon="3.85426">
        <ele>38</ele>
        <time>2020-12-30T09:06:44Z</time>
      </trkpt>
      <trkpt lat="43.63216" lon="3.85419">
        <ele>38</ele>
        <time>2020-12-30T09:06:45Z</time>
      </trkpt>
      <trkpt lat="43.63213" lon="3.85412">
        <ele>38</ele>
        <time>2020-12-30T09:06:46Z</time>
      </trkpt>
      <trkpt lat="43.63211" lon="3.85406">
        <ele>38</ele>
        <time>2020-12-30T09:06:47Z</time>
      </trkpt>
      <trkpt lat="43.63208" lon="3.854">
        <ele>38</ele>
        <time>2020-12-30T09:06:48Z</time>
      </trkpt>
      <trkpt lat="43.63205" lon="3.85394">
        <ele>37</ele>
        <time>2020-12-30T09:06:49Z</time>
      </trkpt>
      <trkpt lat="43.632" lon="3.85389">
        <ele>37</ele>
        <time>2020-12-30T09:06:50Z</time>
      </trkpt>
      <trkpt lat="43.63195" lon="3.85385">
        <ele>37</ele>
        <time>2020-12-30T09:06:51Z</time>
      </trkpt>
      <trkpt lat="43.63191" lon="3.85382">
        <ele>38</ele>
        <time>2020-12-30T09:06:52Z</time>
      </trkpt>
      <trkpt lat="43.63186" lon="3.85379">
        <ele>38</ele>
        <time>2020-12-30T09:06:53Z</time>
      </trkpt>
      <trkpt lat="43.63179" lon="3.85371">
        <ele>39</ele>
        <time>2020-12-30T09:06:55Z</time>
      </trkpt>
      <trkpt lat="43.6317" lon="3.85368">
        <ele>41</ele>
        <time>2020-12-30T09:06:57Z</time>
      </trkpt>
      <trkpt lat="43.63166" lon="3.85365">
        <ele>41</ele>
        <time>2020-12-30T09:06:58Z</time>
      </trkpt>
      <trkpt lat="43.63162" lon="3.85361">
        <ele>42</ele>
        <time>2020-12-30T09:06:59Z</time>
      </trkpt>
      <trkpt lat="43.63155" lon="3.85354">
        <ele>43</ele>
        <time>2020-12-30T09:07:01Z</time>
      </trkpt>
      <trkpt lat="43.6315" lon="3.85347">
        <ele>43</ele>
        <time>2020-12-30T09:07:03Z</time>
      </trkpt>
      <trkpt lat="43.63145" lon="3.8534">
        <ele>43</ele>
        <time>2020-12-30T09:07:05Z</time>
      </trkpt>
      <trkpt lat="43.63142" lon="3.85331">
        <ele>43</ele>
        <time>2020-12-30T09:07:07Z</time>
      </trkpt>
      <trkpt lat="43.63139" lon="3.85322">
        <ele>43</ele>
        <time>2020-12-30T09:07:09Z</time>
      </trkpt>
      <trkpt lat="43.63137" lon="3.8531">
        <ele>43</ele>
        <time>2020-12-30T09:07:11Z</time>
      </trkpt>
      <trkpt lat="43.63139" lon="3.85298">
        <ele>43</ele>
        <time>2020-12-30T09:07:13Z</time>
      </trkpt>
      <trkpt lat="43.63141" lon="3.85293">
        <ele>43</ele>
        <time>2020-12-30T09:07:14Z</time>
      </trkpt>
      <trkpt lat="43.63144" lon="3.85288">
        <ele>43</ele>
        <time>2020-12-30T09:07:15Z</time>
      </trkpt>
      <trkpt lat="43.63147" lon="3.85283">
        <ele>43</ele>
        <time>2020-12-30T09:07:16Z</time>
      </trkpt>
      <trkpt lat="43.6315" lon="3.85278">
        <ele>43</ele>
        <time>2020-12-30T09:07:17Z</time>
      </trkpt>
      <trkpt lat="43.63154" lon="3.85273">
        <ele>43</ele>
        <time>2020-12-30T09:07:18Z</time>
      </trkpt>
      <trkpt lat="43.63157" lon="3.85267">
        <ele>43</ele>
        <time>2020-12-30T09:07:19Z</time>
      </trkpt>
      <trkpt lat="43.63161" lon="3.85263">
        <ele>43</ele>
        <time>2020-12-30T09:07:20Z</time>
      </trkpt>
      <trkpt lat="43.63165" lon="3.85257">
        <ele>43</ele>
        <time>2020-12-30T09:07:21Z</time>
      </trkpt>
      <trkpt lat="43.63168" lon="3.85252">
        <ele>43</ele>
        <time>2020-12-30T09:07:22Z</time>
      </trkpt>
      <trkpt lat="43.63171" lon="3.85247">
        <ele>43</ele>
        <time>2020-12-30T09:07:23Z</time>
      </trkpt>
      <trkpt lat="43.63174" lon="3.85242">
        <ele>42</ele>
        <time>2020-12-30T09:07:24Z</time>
      </trkpt>
      <trkpt lat="43.63178" lon="3.85237">
        <ele>42</ele>
        <time>2020-12-30T09:07:25Z</time>
      </trkpt>
      <trkpt lat="43.63181" lon="3.85233">
        <ele>42</ele>
        <time>2020-12-30T09:07:26Z</time>
      </trkpt>
      <trkpt lat="43.63186" lon="3.85228">
        <ele>42</ele>
        <time>2020-12-30T09:07:27Z</time>
      </trkpt>
      <trkpt lat="43.6319" lon="3.85223">
        <ele>42</ele>
        <time>2020-12-30T09:07:28Z</time>
      </trkpt>
      <trkpt lat="43.63193" lon="3.85217">
        <ele>42</ele>
        <time>2020-12-30T09:07:29Z</time>
      </trkpt>
      <trkpt lat="43.63196" lon="3.85212">
        <ele>42</ele>
        <time>2020-12-30T09:07:30Z</time>
      </trkpt>
      <trkpt lat="43.632" lon="3.85208">
        <ele>42</ele>
        <time>2020-12-30T09:07:31Z</time>
      </trkpt>
      <trkpt lat="43.63203" lon="3.85203">
        <ele>42</ele>
        <time>2020-12-30T09:07:32Z</time>
      </trkpt>
      <trkpt lat="43.63207" lon="3.85197">
        <ele>41</ele>
        <time>2020-12-30T09:07:33Z</time>
      </trkpt>
      <trkpt lat="43.63211" lon="3.85191">
        <ele>41</ele>
        <time>2020-12-30T09:07:34Z</time>
      </trkpt>
      <trkpt lat="43.63215" lon="3.85185">
        <ele>41</ele>
        <time>2020-12-30T09:07:35Z</time>
      </trkpt>
      <trkpt lat="43.63218" lon="3.85178">
        <ele>40</ele>
        <time>2020-12-30T09:07:36Z</time>
      </trkpt>
      <trkpt lat="43.63221" lon="3.85173">
        <ele>40</ele>
        <time>2020-12-30T09:07:37Z</time>
      </trkpt>
      <trkpt lat="43.63224" lon="3.85169">
        <ele>39</ele>
        <time>2020-12-30T09:07:38Z</time>
      </trkpt>
      <trkpt lat="43.63228" lon="3.85164">
        <ele>38</ele>
        <time>2020-12-30T09:07:39Z</time>
      </trkpt>
      <trkpt lat="43.63232" lon="3.85158">
        <ele>38</ele>
        <time>2020-12-30T09:07:40Z</time>
      </trkpt>
      <trkpt lat="43.63235" lon="3.85153">
        <ele>38</ele>
        <time>2020-12-30T09:07:41Z</time>
      </trkpt>
      <trkpt lat="43.63242" lon="3.85144">
        <ele>38</ele>
        <time>2020-12-30T09:07:43Z</time>
      </trkpt>
      <trkpt lat="43.63246" lon="3.85139">
        <ele>38</ele>
        <time>2020-12-30T09:07:44Z</time>
      </trkpt>
      <trkpt lat="43.6325" lon="3.85133">
        <ele>38</ele>
        <time>2020-12-30T09:07:45Z</time>
      </trkpt>
      <trkpt lat="43.63254" lon="3.85129">
        <ele>39</ele>
        <time>2020-12-30T09:07:46Z</time>
      </trkpt>
      <trkpt lat="43.63257" lon="3.85123">
        <ele>39</ele>
        <time>2020-12-30T09:07:47Z</time>
      </trkpt>
      <trkpt lat="43.63261" lon="3.85118">
        <ele>40</ele>
        <time>2020-12-30T09:07:48Z</time>
      </trkpt>
      <trkpt lat="43.63265" lon="3.85112">
        <ele>40</ele>
        <time>2020-12-30T09:07:49Z</time>
      </trkpt>
      <trkpt lat="43.63269" lon="3.85106">
        <ele>40</ele>
        <time>2020-12-30T09:07:50Z</time>
      </trkpt>
      <trkpt lat="43.63273" lon="3.85101">
        <ele>41</ele>
        <time>2020-12-30T09:07:51Z</time>
      </trkpt>
      <trkpt lat="43.63276" lon="3.85096">
        <ele>41</ele>
        <time>2020-12-30T09:07:52Z</time>
      </trkpt>
      <trkpt lat="43.63282" lon="3.85087">
        <ele>42</ele>
        <time>2020-12-30T09:07:54Z</time>
      </trkpt>
      <trkpt lat="43.63286" lon="3.85081">
        <ele>42</ele>
        <time>2020-12-30T09:07:55Z</time>
      </trkpt>
      <trkpt lat="43.63289" lon="3.85076">
        <ele>43</ele>
        <time>2020-12-30T09:07:56Z</time>
      </trkpt>
      <trkpt lat="43.63293" lon="3.85071">
        <ele>43</ele>
        <time>2020-12-30T09:07:57Z</time>
      </trkpt>
      <trkpt lat="43.63298" lon="3.85061">
        <ele>43</ele>
        <time>2020-12-30T09:07:59Z</time>
      </trkpt>
      <trkpt lat="43.63304" lon="3.85052">
        <ele>43</ele>
        <time>2020-12-30T09:08:01Z</time>
      </trkpt>
      <trkpt lat="43.63308" lon="3.85047">
        <ele>43</ele>
        <time>2020-12-30T09:08:02Z</time>
      </trkpt>
      <trkpt lat="43.63311" lon="3.85044">
        <ele>42</ele>
        <time>2020-12-30T09:08:03Z</time>
      </trkpt>
      <trkpt lat="43.63317" lon="3.85034">
        <ele>42</ele>
        <time>2020-12-30T09:08:05Z</time>
      </trkpt>
      <trkpt lat="43.63321" lon="3.85029">
        <ele>41</ele>
        <time>2020-12-30T09:08:06Z</time>
      </trkpt>
      <trkpt lat="43.63324" lon="3.85023">
        <ele>41</ele>
        <time>2020-12-30T09:08:07Z</time>
      </trkpt>
      <trkpt lat="43.6333" lon="3.85013">
        <ele>40</ele>
        <time>2020-12-30T09:08:09Z</time>
      </trkpt>
      <trkpt lat="43.63337" lon="3.85005">
        <ele>40</ele>
        <time>2020-12-30T09:08:11Z</time>
      </trkpt>
      <trkpt lat="43.6334" lon="3.85">
        <ele>40</ele>
        <time>2020-12-30T09:08:12Z</time>
      </trkpt>
      <trkpt lat="43.63343" lon="3.84995">
        <ele>40</ele>
        <time>2020-12-30T09:08:13Z</time>
      </trkpt>
      <trkpt lat="43.63346" lon="3.84989">
        <ele>40</ele>
        <time>2020-12-30T09:08:14Z</time>
      </trkpt>
      <trkpt lat="43.6335" lon="3.84984">
        <ele>41</ele>
        <time>2020-12-30T09:08:15Z</time>
      </trkpt>
      <trkpt lat="43.63353" lon="3.84979">
        <ele>41</ele>
        <time>2020-12-30T09:08:16Z</time>
      </trkpt>
      <trkpt lat="43.63356" lon="3.84974">
        <ele>41</ele>
        <time>2020-12-30T09:08:17Z</time>
      </trkpt>
      <trkpt lat="43.63359" lon="3.84968">
        <ele>41</ele>
        <time>2020-12-30T09:08:18Z</time>
      </trkpt>
      <trkpt lat="43.63362" lon="3.84963">
        <ele>41</ele>
        <time>2020-12-30T09:08:19Z</time>
      </trkpt>
      <trkpt lat="43.63365" lon="3.84958">
        <ele>41</ele>
        <time>2020-12-30T09:08:20Z</time>
      </trkpt>
      <trkpt lat="43.63368" lon="3.84953">
        <ele>41</ele>
        <time>2020-12-30T09:08:21Z</time>
      </trkpt>
      <trkpt lat="43.63373" lon="3.84944">
        <ele>41</ele>
        <time>2020-12-30T09:08:23Z</time>
      </trkpt>
      <trkpt lat="43.63377" lon="3.84938">
        <ele>42</ele>
        <time>2020-12-30T09:08:24Z</time>
      </trkpt>
      <trkpt lat="43.6338" lon="3.84933">
        <ele>42</ele>
        <time>2020-12-30T09:08:25Z</time>
      </trkpt>
      <trkpt lat="43.63385" lon="3.84923">
        <ele>43</ele>
        <time>2020-12-30T09:08:27Z</time>
      </trkpt>
      <trkpt lat="43.63392" lon="3.84915">
        <ele>43</ele>
        <time>2020-12-30T09:08:29Z</time>
      </trkpt>
      <trkpt lat="43.63395" lon="3.84911">
        <ele>43</ele>
        <time>2020-12-30T09:08:30Z</time>
      </trkpt>
      <trkpt lat="43.63402" lon="3.84902">
        <ele>43</ele>
        <time>2020-12-30T09:08:32Z</time>
      </trkpt>
      <trkpt lat="43.63405" lon="3.84898">
        <ele>43</ele>
        <time>2020-12-30T09:08:33Z</time>
      </trkpt>
      <trkpt lat="43.63412" lon="3.84889">
        <ele>43</ele>
        <time>2020-12-30T09:08:35Z</time>
      </trkpt>
      <trkpt lat="43.63419" lon="3.84882">
        <ele>43</ele>
        <time>2020-12-30T09:08:37Z</time>
      </trkpt>
      <trkpt lat="43.63423" lon="3.84877">
        <ele>42</ele>
        <time>2020-12-30T09:08:38Z</time>
      </trkpt>
      <trkpt lat="43.63427" lon="3.84873">
        <ele>41</ele>
        <time>2020-12-30T09:08:39Z</time>
      </trkpt>
      <trkpt lat="43.63434" lon="3.84867">
        <ele>41</ele>
        <time>2020-12-30T09:08:41Z</time>
      </trkpt>
      <trkpt lat="43.63441" lon="3.84861">
        <ele>40</ele>
        <time>2020-12-30T09:08:43Z</time>
      </trkpt>
      <trkpt lat="43.63445" lon="3.84858">
        <ele>39</ele>
        <time>2020-12-30T09:08:44Z</time>
      </trkpt>
      <trkpt lat="43.63449" lon="3.84854">
        <ele>39</ele>
        <time>2020-12-30T09:08:45Z</time>
      </trkpt>
      <trkpt lat="43.63453" lon="3.8485">
        <ele>39</ele>
        <time>2020-12-30T09:08:46Z</time>
      </trkpt>
      <trkpt lat="43.63457" lon="3.84846">
        <ele>39</ele>
        <time>2020-12-30T09:08:47Z</time>
      </trkpt>
      <trkpt lat="43.63462" lon="3.84843">
        <ele>39</ele>
        <time>2020-12-30T09:08:48Z</time>
      </trkpt>
      <trkpt lat="43.6347" lon="3.84836">
        <ele>39</ele>
        <time>2020-12-30T09:08:50Z</time>
      </trkpt>
      <trkpt lat="43.63474" lon="3.84832">
        <ele>39</ele>
        <time>2020-12-30T09:08:51Z</time>
      </trkpt>
      <trkpt lat="43.63478" lon="3.84828">
        <ele>39</ele>
        <time>2020-12-30T09:08:52Z</time>
      </trkpt>
      <trkpt lat="43.63482" lon="3.84824">
        <ele>39</ele>
        <time>2020-12-30T09:08:53Z</time>
      </trkpt>
      <trkpt lat="43.63486" lon="3.8482">
        <ele>38</ele>
        <time>2020-12-30T09:08:54Z</time>
      </trkpt>
      <trkpt lat="43.6349" lon="3.84815">
        <ele>38</ele>
        <time>2020-12-30T09:08:55Z</time>
      </trkpt>
      <trkpt lat="43.63495" lon="3.84811">
        <ele>38</ele>
        <time>2020-12-30T09:08:56Z</time>
      </trkpt>
      <trkpt lat="43.63499" lon="3.84808">
        <ele>38</ele>
        <time>2020-12-30T09:08:57Z</time>
      </trkpt>
      <trkpt lat="43.63504" lon="3.84805">
        <ele>38</ele>
        <time>2020-12-30T09:08:58Z</time>
      </trkpt>
      <trkpt lat="43.63508" lon="3.84801">
        <ele>39</ele>
        <time>2020-12-30T09:08:59Z</time>
      </trkpt>
      <trkpt lat="43.63516" lon="3.84796">
        <ele>40</ele>
        <time>2020-12-30T09:09:01Z</time>
      </trkpt>
      <trkpt lat="43.63521" lon="3.84793">
        <ele>40</ele>
        <time>2020-12-30T09:09:02Z</time>
      </trkpt>
      <trkpt lat="43.63527" lon="3.8479">
        <ele>41</ele>
        <time>2020-12-30T09:09:03Z</time>
      </trkpt>
      <trkpt lat="43.63535" lon="3.84783">
        <ele>41</ele>
        <time>2020-12-30T09:09:05Z</time>
      </trkpt>
      <trkpt lat="43.63539" lon="3.84779">
        <ele>41</ele>
        <time>2020-12-30T09:09:06Z</time>
      </trkpt>
      <trkpt lat="43.63543" lon="3.84774">
        <ele>41</ele>
        <time>2020-12-30T09:09:07Z</time>
      </trkpt>
      <trkpt lat="43.63547" lon="3.8477">
        <ele>41</ele>
        <time>2020-12-30T09:09:08Z</time>
      </trkpt>
      <trkpt lat="43.63555" lon="3.84764">
        <ele>41</ele>
        <time>2020-12-30T09:09:10Z</time>
      </trkpt>
      <trkpt lat="43.63559" lon="3.8476">
        <ele>41</ele>
        <time>2020-12-30T09:09:11Z</time>
      </trkpt>
      <trkpt lat="43.63564" lon="3.84756">
        <ele>40</ele>
        <time>2020-12-30T09:09:12Z</time>
      </trkpt>
      <trkpt lat="43.63569" lon="3.84753">
        <ele>40</ele>
        <time>2020-12-30T09:09:13Z</time>
      </trkpt>
      <trkpt lat="43.63573" lon="3.84748">
        <ele>40</ele>
        <time>2020-12-30T09:09:14Z</time>
      </trkpt>
      <trkpt lat="43.63575" lon="3.84743">
        <ele>40</ele>
        <time>2020-12-30T09:09:15Z</time>
      </trkpt>
      <trkpt lat="43.63578" lon="3.84736">
        <ele>40</ele>
        <time>2020-12-30T09:09:16Z</time>
      </trkpt>
      <trkpt lat="43.6358" lon="3.84729">
        <ele>40</ele>
        <time>2020-12-30T09:09:17Z</time>
      </trkpt>
      <trkpt lat="43.6358" lon="3.84722">
        <ele>40</ele>
        <time>2020-12-30T09:09:18Z</time>
      </trkpt>
      <trkpt lat="43.6358" lon="3.84715">
        <ele>40</ele>
        <time>2020-12-30T09:09:19Z</time>
      </trkpt>
      <trkpt lat="43.6358" lon="3.84708">
        <ele>41</ele>
        <time>2020-12-30T09:09:20Z</time>
      </trkpt>
      <trkpt lat="43.6358" lon="3.84701">
        <ele>41</ele>
        <time>2020-12-30T09:09:21Z</time>
      </trkpt>
      <trkpt lat="43.63579" lon="3.84694">
        <ele>41</ele>
        <time>2020-12-30T09:09:22Z</time>
      </trkpt>
      <trkpt lat="43.63578" lon="3.84688">
        <ele>42</ele>
        <time>2020-12-30T09:09:23Z</time>
      </trkpt>
      <trkpt lat="43.63575" lon="3.84682">
        <ele>42</ele>
        <time>2020-12-30T09:09:24Z</time>
      </trkpt>
      <trkpt lat="43.63573" lon="3.84674">
        <ele>43</ele>
        <time>2020-12-30T09:09:25Z</time>
      </trkpt>
      <trkpt lat="43.6357" lon="3.84667">
        <ele>43</ele>
        <time>2020-12-30T09:09:26Z</time>
      </trkpt>
      <trkpt lat="43.63568" lon="3.8466">
        <ele>43</ele>
        <time>2020-12-30T09:09:27Z</time>
      </trkpt>
      <trkpt lat="43.63567" lon="3.84654">
        <ele>42</ele>
        <time>2020-12-30T09:09:28Z</time>
      </trkpt>
      <trkpt lat="43.63564" lon="3.84648">
        <ele>42</ele>
        <time>2020-12-30T09:09:29Z</time>
      </trkpt>
      <trkpt lat="43.63562" lon="3.84641">
        <ele>42</ele>
        <time>2020-12-30T09:09:30Z</time>
      </trkpt>
      <trkpt lat="43.63561" lon="3.84635">
        <ele>43</ele>
        <time>2020-12-30T09:09:31Z</time>
      </trkpt>
      <trkpt lat="43.63559" lon="3.84628">
        <ele>43</ele>
        <time>2020-12-30T09:09:32Z</time>
      </trkpt>
      <trkpt lat="43.63557" lon="3.84621">
        <ele>42</ele>
        <time>2020-12-30T09:09:33Z</time>
      </trkpt>
      <trkpt lat="43.63555" lon="3.84614">
        <ele>42</ele>
        <time>2020-12-30T09:09:34Z</time>
      </trkpt>
      <trkpt lat="43.63553" lon="3.84606">
        <ele>42</ele>
        <time>2020-12-30T09:09:35Z</time>
      </trkpt>
      <trkpt lat="43.63551" lon="3.846">
        <ele>42</ele>
        <time>2020-12-30T09:09:36Z</time>
      </trkpt>
      <trkpt lat="43.63549" lon="3.84594">
        <ele>42</ele>
        <time>2020-12-30T09:09:37Z</time>
      </trkpt>
      <trkpt lat="43.63547" lon="3.84587">
        <ele>42</ele>
        <time>2020-12-30T09:09:38Z</time>
      </trkpt>
      <trkpt lat="43.63544" lon="3.84581">
        <ele>42</ele>
        <time>2020-12-30T09:09:39Z</time>
      </trkpt>
      <trkpt lat="43.63543" lon="3.84575">
        <ele>43</ele>
        <time>2020-12-30T09:09:40Z</time>
      </trkpt>
      <trkpt lat="43.63541" lon="3.84568">
        <ele>43</ele>
        <time>2020-12-30T09:09:41Z</time>
      </trkpt>
      <trkpt lat="43.63537" lon="3.84557">
        <ele>43</ele>
        <time>2020-12-30T09:09:43Z</time>
      </trkpt>
      <trkpt lat="43.63535" lon="3.84551">
        <ele>42</ele>
        <time>2020-12-30T09:09:44Z</time>
      </trkpt>
      <trkpt lat="43.63533" lon="3.84544">
        <ele>42</ele>
        <time>2020-12-30T09:09:45Z</time>
      </trkpt>
      <trkpt lat="43.63531" lon="3.84538">
        <ele>41</ele>
        <time>2020-12-30T09:09:46Z</time>
      </trkpt>
      <trkpt lat="43.63528" lon="3.84532">
        <ele>41</ele>
        <time>2020-12-30T09:09:47Z</time>
      </trkpt>
      <trkpt lat="43.63526" lon="3.84526">
        <ele>40</ele>
        <time>2020-12-30T09:09:48Z</time>
      </trkpt>
      <trkpt lat="43.63524" lon="3.84519">
        <ele>39</ele>
        <time>2020-12-30T09:09:49Z</time>
      </trkpt>
      <trkpt lat="43.63522" lon="3.84513">
        <ele>39</ele>
        <time>2020-12-30T09:09:50Z</time>
      </trkpt>
      <trkpt lat="43.6352" lon="3.84506">
        <ele>39</ele>
        <time>2020-12-30T09:09:51Z</time>
      </trkpt>
      <trkpt lat="43.63516" lon="3.84496">
        <ele>39</ele>
        <time>2020-12-30T09:09:53Z</time>
      </trkpt>
      <trkpt lat="43.63514" lon="3.8449">
        <ele>39</ele>
        <time>2020-12-30T09:09:54Z</time>
      </trkpt>
      <trkpt lat="43.63511" lon="3.84481">
        <ele>39</ele>
        <time>2020-12-30T09:09:56Z</time>
      </trkpt>
      <trkpt lat="43.63508" lon="3.84471">
        <ele>39</ele>
        <time>2020-12-30T09:09:58Z</time>
      </trkpt>
      <trkpt lat="43.63504" lon="3.8446">
        <ele>38</ele>
        <time>2020-12-30T09:10:00Z</time>
      </trkpt>
      <trkpt lat="43.635" lon="3.84448">
        <ele>37</ele>
        <time>2020-12-30T09:10:02Z</time>
      </trkpt>
      <trkpt lat="43.63499" lon="3.84442">
        <ele>37</ele>
        <time>2020-12-30T09:10:03Z</time>
      </trkpt>
      <trkpt lat="43.63496" lon="3.84431">
        <ele>37</ele>
        <time>2020-12-30T09:10:05Z</time>
      </trkpt>
      <trkpt lat="43.63493" lon="3.84421">
        <ele>37</ele>
        <time>2020-12-30T09:10:07Z</time>
      </trkpt>
      <trkpt lat="43.63487" lon="3.84411">
        <ele>37</ele>
        <time>2020-12-30T09:10:09Z</time>
      </trkpt>
      <trkpt lat="43.63481" lon="3.84403">
        <ele>38</ele>
        <time>2020-12-30T09:10:11Z</time>
      </trkpt>
      <trkpt lat="43.63475" lon="3.84395">
        <ele>38</ele>
        <time>2020-12-30T09:10:13Z</time>
      </trkpt>
      <trkpt lat="43.63467" lon="3.84389">
        <ele>39</ele>
        <time>2020-12-30T09:10:15Z</time>
      </trkpt>
      <trkpt lat="43.63463" lon="3.84386">
        <ele>39</ele>
        <time>2020-12-30T09:10:16Z</time>
      </trkpt>
      <trkpt lat="43.63455" lon="3.84382">
        <ele>40</ele>
        <time>2020-12-30T09:10:18Z</time>
      </trkpt>
      <trkpt lat="43.63446" lon="3.84377">
        <ele>40</ele>
        <time>2020-12-30T09:10:20Z</time>
      </trkpt>
      <trkpt lat="43.6344" lon="3.84375">
        <ele>40</ele>
        <time>2020-12-30T09:10:21Z</time>
      </trkpt>
      <trkpt lat="43.63436" lon="3.84372">
        <ele>41</ele>
        <time>2020-12-30T09:10:22Z</time>
      </trkpt>
      <trkpt lat="43.63426" lon="3.84369">
        <ele>41</ele>
        <time>2020-12-30T09:10:24Z</time>
      </trkpt>
      <trkpt lat="43.63418" lon="3.84364">
        <ele>42</ele>
        <time>2020-12-30T09:10:26Z</time>
      </trkpt>
      <trkpt lat="43.63413" lon="3.84363">
        <ele>42</ele>
        <time>2020-12-30T09:10:27Z</time>
      </trkpt>
      <trkpt lat="43.63409" lon="3.84362">
        <ele>43</ele>
        <time>2020-12-30T09:10:28Z</time>
      </trkpt>
      <trkpt lat="43.63404" lon="3.84359">
        <ele>43</ele>
        <time>2020-12-30T09:10:29Z</time>
      </trkpt>
      <trkpt lat="43.63395" lon="3.84356">
        <ele>44</ele>
        <time>2020-12-30T09:10:31Z</time>
      </trkpt>
      <trkpt lat="43.63389" lon="3.84355">
        <ele>44</ele>
        <time>2020-12-30T09:10:32Z</time>
      </trkpt>
      <trkpt lat="43.63384" lon="3.84354">
        <ele>45</ele>
        <time>2020-12-30T09:10:33Z</time>
      </trkpt>
      <trkpt lat="43.63379" lon="3.84354">
        <ele>45</ele>
        <time>2020-12-30T09:10:34Z</time>
      </trkpt>
      <trkpt lat="43.63374" lon="3.84354">
        <ele>46</ele>
        <time>2020-12-30T09:10:35Z</time>
      </trkpt>
      <trkpt lat="43.63364" lon="3.84352">
        <ele>46</ele>
        <time>2020-12-30T09:10:37Z</time>
      </trkpt>
      <trkpt lat="43.63359" lon="3.84351">
        <ele>47</ele>
        <time>2020-12-30T09:10:38Z</time>
      </trkpt>
      <trkpt lat="43.63354" lon="3.84348">
        <ele>47</ele>
        <time>2020-12-30T09:10:39Z</time>
      </trkpt>
      <trkpt lat="43.63349" lon="3.84347">
        <ele>47</ele>
        <time>2020-12-30T09:10:40Z</time>
      </trkpt>
      <trkpt lat="43.63343" lon="3.84345">
        <ele>47</ele>
        <time>2020-12-30T09:10:41Z</time>
      </trkpt>
      <trkpt lat="43.63338" lon="3.84343">
        <ele>47</ele>
        <time>2020-12-30T09:10:42Z</time>
      </trkpt>
      <trkpt lat="43.63333" lon="3.84343">
        <ele>46</ele>
        <time>2020-12-30T09:10:43Z</time>
      </trkpt>
      <trkpt lat="43.63327" lon="3.84342">
        <ele>46</ele>
        <time>2020-12-30T09:10:44Z</time>
      </trkpt>
      <trkpt lat="43.63322" lon="3.8434">
        <ele>45</ele>
        <time>2020-12-30T09:10:45Z</time>
      </trkpt>
      <trkpt lat="43.63317" lon="3.84338">
        <ele>45</ele>
        <time>2020-12-30T09:10:46Z</time>
      </trkpt>
      <trkpt lat="43.63312" lon="3.84336">
        <ele>45</ele>
        <time>2020-12-30T09:10:47Z</time>
      </trkpt>
      <trkpt lat="43.63307" lon="3.84333">
        <ele>45</ele>
        <time>2020-12-30T09:10:48Z</time>
      </trkpt>
      <trkpt lat="43.63302" lon="3.84332">
        <ele>45</ele>
        <time>2020-12-30T09:10:49Z</time>
      </trkpt>
      <trkpt lat="43.63297" lon="3.8433">
        <ele>45</ele>
        <time>2020-12-30T09:10:50Z</time>
      </trkpt>
      <trkpt lat="43.63291" lon="3.84329">
        <ele>46</ele>
        <time>2020-12-30T09:10:51Z</time>
      </trkpt>
      <trkpt lat="43.63285" lon="3.84327">
        <ele>46</ele>
        <time>2020-12-30T09:10:52Z</time>
      </trkpt>
      <trkpt lat="43.6328" lon="3.84326">
        <ele>46</ele>
        <time>2020-12-30T09:10:53Z</time>
      </trkpt>
      <trkpt lat="43.63274" lon="3.84324">
        <ele>46</ele>
        <time>2020-12-30T09:10:54Z</time>
      </trkpt>
      <trkpt lat="43.63269" lon="3.84322">
        <ele>46</ele>
        <time>2020-12-30T09:10:55Z</time>
      </trkpt>
      <trkpt lat="43.63264" lon="3.8432">
        <ele>47</ele>
        <time>2020-12-30T09:10:56Z</time>
      </trkpt>
      <trkpt lat="43.63258" lon="3.84318">
        <ele>47</ele>
        <time>2020-12-30T09:10:57Z</time>
      </trkpt>
      <trkpt lat="43.63253" lon="3.84316">
        <ele>47</ele>
        <time>2020-12-30T09:10:58Z</time>
      </trkpt>
      <trkpt lat="43.63247" lon="3.84314">
        <ele>48</ele>
        <time>2020-12-30T09:10:59Z</time>
      </trkpt>
      <trkpt lat="43.63241" lon="3.84313">
        <ele>48</ele>
        <time>2020-12-30T09:11:00Z</time>
      </trkpt>
      <trkpt lat="43.63236" lon="3.84311">
        <ele>49</ele>
        <time>2020-12-30T09:11:01Z</time>
      </trkpt>
      <trkpt lat="43.6323" lon="3.8431">
        <ele>49</ele>
        <time>2020-12-30T09:11:02Z</time>
      </trkpt>
      <trkpt lat="43.63224" lon="3.84308">
        <ele>49</ele>
        <time>2020-12-30T09:11:03Z</time>
      </trkpt>
      <trkpt lat="43.6322" lon="3.84307">
        <ele>49</ele>
        <time>2020-12-30T09:11:04Z</time>
      </trkpt>
      <trkpt lat="43.63214" lon="3.84308">
        <ele>49</ele>
        <time>2020-12-30T09:11:05Z</time>
      </trkpt>
      <trkpt lat="43.63208" lon="3.84308">
        <ele>49</ele>
        <time>2020-12-30T09:11:06Z</time>
      </trkpt>
      <trkpt lat="43.63202" lon="3.8431">
        <ele>49</ele>
        <time>2020-12-30T09:11:07Z</time>
      </trkpt>
      <trkpt lat="43.63196" lon="3.84312">
        <ele>49</ele>
        <time>2020-12-30T09:11:08Z</time>
      </trkpt>
      <trkpt lat="43.63191" lon="3.84314">
        <ele>49</ele>
        <time>2020-12-30T09:11:09Z</time>
      </trkpt>
      <trkpt lat="43.63186" lon="3.84316">
        <ele>49</ele>
        <time>2020-12-30T09:11:10Z</time>
      </trkpt>
      <trkpt lat="43.6318" lon="3.84318">
        <ele>49</ele>
        <time>2020-12-30T09:11:11Z</time>
      </trkpt>
      <trkpt lat="43.63175" lon="3.84318">
        <ele>49</ele>
        <time>2020-12-30T09:11:12Z</time>
      </trkpt>
      <trkpt lat="43.6317" lon="3.8432">
        <ele>49</ele>
        <time>2020-12-30T09:11:13Z</time>
      </trkpt>
      <trkpt lat="43.63164" lon="3.84319">
        <ele>49</ele>
        <time>2020-12-30T09:11:14Z</time>
      </trkpt>
      <trkpt lat="43.63154" lon="3.8432">
        <ele>50</ele>
        <time>2020-12-30T09:11:16Z</time>
      </trkpt>
      <trkpt lat="43.63149" lon="3.84322">
        <ele>51</ele>
        <time>2020-12-30T09:11:17Z</time>
      </trkpt>
      <trkpt lat="43.63139" lon="3.84322">
        <ele>51</ele>
        <time>2020-12-30T09:11:19Z</time>
      </trkpt>
      <trkpt lat="43.63134" lon="3.84324">
        <ele>51</ele>
        <time>2020-12-30T09:11:20Z</time>
      </trkpt>
      <trkpt lat="43.63128" lon="3.84324">
        <ele>50</ele>
        <time>2020-12-30T09:11:21Z</time>
      </trkpt>
      <trkpt lat="43.63123" lon="3.84323">
        <ele>50</ele>
        <time>2020-12-30T09:11:22Z</time>
      </trkpt>
      <trkpt lat="43.63116" lon="3.84323">
        <ele>49</ele>
        <time>2020-12-30T09:11:23Z</time>
      </trkpt>
      <trkpt lat="43.63112" lon="3.84323">
        <ele>49</ele>
        <time>2020-12-30T09:11:24Z</time>
      </trkpt>
      <trkpt lat="43.63105" lon="3.84323">
        <ele>49</ele>
        <time>2020-12-30T09:11:25Z</time>
      </trkpt>
      <trkpt lat="43.63099" lon="3.84323">
        <ele>50</ele>
        <time>2020-12-30T09:11:26Z</time>
      </trkpt>
      <trkpt lat="43.63094" lon="3.84323">
        <ele>49</ele>
        <time>2020-12-30T09:11:27Z</time>
      </trkpt>
      <trkpt lat="43.6309" lon="3.84323">
        <ele>49</ele>
        <time>2020-12-30T09:11:28Z</time>
      </trkpt>
      <trkpt lat="43.63084" lon="3.84322">
        <ele>49</ele>
        <time>2020-12-30T09:11:29Z</time>
      </trkpt>
      <trkpt lat="43.6308" lon="3.8432">
        <ele>49</ele>
        <time>2020-12-30T09:11:30Z</time>
      </trkpt>
      <trkpt lat="43.63076" lon="3.84317">
        <ele>49</ele>
        <time>2020-12-30T09:11:31Z</time>
      </trkpt>
      <trkpt lat="43.63071" lon="3.84313">
        <ele>49</ele>
        <time>2020-12-30T09:11:32Z</time>
      </trkpt>
      <trkpt lat="43.63068" lon="3.84309">
        <ele>49</ele>
        <time>2020-12-30T09:11:33Z</time>
      </trkpt>
      <trkpt lat="43.63063" lon="3.84307">
        <ele>49</ele>
        <time>2020-12-30T09:11:35Z</time>
      </trkpt>
      <trkpt lat="43.63059" lon="3.84301">
        <ele>49</ele>
        <time>2020-12-30T09:11:38Z</time>
      </trkpt>
      <trkpt lat="43.63056" lon="3.84293">
        <ele>49</ele>
        <time>2020-12-30T09:11:40Z</time>
      </trkpt>
      <trkpt lat="43.63054" lon="3.84284">
        <ele>50</ele>
        <time>2020-12-30T09:11:42Z</time>
      </trkpt>
      <trkpt lat="43.63051" lon="3.84278">
        <ele>50</ele>
        <time>2020-12-30T09:11:43Z</time>
      </trkpt>
      <trkpt lat="43.63046" lon="3.84269">
        <ele>50</ele>
        <time>2020-12-30T09:11:45Z</time>
      </trkpt>
      <trkpt lat="43.6304" lon="3.8426">
        <ele>49</ele>
        <time>2020-12-30T09:11:47Z</time>
      </trkpt>
      <trkpt lat="43.63038" lon="3.84254">
        <ele>48</ele>
        <time>2020-12-30T09:11:48Z</time>
      </trkpt>
      <trkpt lat="43.63036" lon="3.84249">
        <ele>47</ele>
        <time>2020-12-30T09:11:49Z</time>
      </trkpt>
      <trkpt lat="43.63034" lon="3.84238">
        <ele>47</ele>
        <time>2020-12-30T09:11:51Z</time>
      </trkpt>
      <trkpt lat="43.63034" lon="3.84228">
        <ele>47</ele>
        <time>2020-12-30T09:11:53Z</time>
      </trkpt>
      <trkpt lat="43.63035" lon="3.84218">
        <ele>47</ele>
        <time>2020-12-30T09:11:55Z</time>
      </trkpt>
      <trkpt lat="43.63035" lon="3.84208">
        <ele>47</ele>
        <time>2020-12-30T09:11:57Z</time>
      </trkpt>
      <trkpt lat="43.63036" lon="3.84198">
        <ele>47</ele>
        <time>2020-12-30T09:11:59Z</time>
      </trkpt>
      <trkpt lat="43.63038" lon="3.84187">
        <ele>47</ele>
        <time>2020-12-30T09:12:01Z</time>
      </trkpt>
      <trkpt lat="43.63036" lon="3.84176">
        <ele>47</ele>
        <time>2020-12-30T09:12:03Z</time>
      </trkpt>
      <trkpt lat="43.6303" lon="3.84174">
        <ele>47</ele>
        <time>2020-12-30T09:12:04Z</time>
      </trkpt>
      <trkpt lat="43.63025" lon="3.8417">
        <ele>48</ele>
        <time>2020-12-30T09:12:05Z</time>
      </trkpt>
      <trkpt lat="43.6302" lon="3.84168">
        <ele>49</ele>
        <time>2020-12-30T09:12:06Z</time>
      </trkpt>
      <trkpt lat="43.63016" lon="3.84167">
        <ele>50</ele>
        <time>2020-12-30T09:12:07Z</time>
      </trkpt>
      <trkpt lat="43.6301" lon="3.84165">
        <ele>51</ele>
        <time>2020-12-30T09:12:08Z</time>
      </trkpt>
      <trkpt lat="43.63007" lon="3.8416">
        <ele>52</ele>
        <time>2020-12-30T09:12:09Z</time>
      </trkpt>
      <trkpt lat="43.63004" lon="3.84155">
        <ele>53</ele>
        <time>2020-12-30T09:12:10Z</time>
      </trkpt>
      <trkpt lat="43.63005" lon="3.84143">
        <ele>53</ele>
        <time>2020-12-30T09:12:12Z</time>
      </trkpt>
      <trkpt lat="43.63011" lon="3.84135">
        <ele>53</ele>
        <time>2020-12-30T09:12:14Z</time>
      </trkpt>
      <trkpt lat="43.63013" lon="3.84124">
        <ele>53</ele>
        <time>2020-12-30T09:12:16Z</time>
      </trkpt>
      <trkpt lat="43.63013" lon="3.84113">
        <ele>53</ele>
        <time>2020-12-30T09:12:18Z</time>
      </trkpt>
      <trkpt lat="43.6301" lon="3.84101">
        <ele>54</ele>
        <time>2020-12-30T09:12:20Z</time>
      </trkpt>
      <trkpt lat="43.63007" lon="3.84089">
        <ele>54</ele>
        <time>2020-12-30T09:12:22Z</time>
      </trkpt>
      <trkpt lat="43.63005" lon="3.84079">
        <ele>54</ele>
        <time>2020-12-30T09:12:24Z</time>
      </trkpt>
      <trkpt lat="43.63003" lon="3.84067">
        <ele>55</ele>
        <time>2020-12-30T09:12:26Z</time>
      </trkpt>
      <trkpt lat="43.63001" lon="3.84059">
        <ele>55</ele>
        <time>2020-12-30T09:12:28Z</time>
      </trkpt>
      <trkpt lat="43.62998" lon="3.84048">
        <ele>55</ele>
        <time>2020-12-30T09:12:31Z</time>
      </trkpt>
      <trkpt lat="43.62995" lon="3.84038">
        <ele>55</ele>
        <time>2020-12-30T09:12:32Z</time>
      </trkpt>
      <trkpt lat="43.62993" lon="3.84028">
        <ele>55</ele>
        <time>2020-12-30T09:12:34Z</time>
      </trkpt>
      <trkpt lat="43.6299" lon="3.84018">
        <ele>55</ele>
        <time>2020-12-30T09:12:36Z</time>
      </trkpt>
      <trkpt lat="43.62988" lon="3.84009">
        <ele>55</ele>
        <time>2020-12-30T09:12:38Z</time>
      </trkpt>
      <trkpt lat="43.62986" lon="3.84002">
        <ele>55</ele>
        <time>2020-12-30T09:12:40Z</time>
      </trkpt>
      <trkpt lat="43.62983" lon="3.83991">
        <ele>55</ele>
        <time>2020-12-30T09:12:43Z</time>
      </trkpt>
      <trkpt lat="43.62981" lon="3.83982">
        <ele>55</ele>
        <time>2020-12-30T09:12:44Z</time>
      </trkpt>
      <trkpt lat="43.62978" lon="3.83977">
        <ele>56</ele>
        <time>2020-12-30T09:12:46Z</time>
      </trkpt>
      <trkpt lat="43.62972" lon="3.83977">
        <ele>56</ele>
        <time>2020-12-30T09:12:51Z</time>
      </trkpt>
      <trkpt lat="43.62965" lon="3.8398">
        <ele>56</ele>
        <time>2020-12-30T09:12:53Z</time>
      </trkpt>
      <trkpt lat="43.62957" lon="3.83981">
        <ele>57</ele>
        <time>2020-12-30T09:12:55Z</time>
      </trkpt>
      <trkpt lat="43.62952" lon="3.83984">
        <ele>57</ele>
        <time>2020-12-30T09:12:56Z</time>
      </trkpt>
      <trkpt lat="43.62944" lon="3.83986">
        <ele>57</ele>
        <time>2020-12-30T09:12:58Z</time>
      </trkpt>
      <trkpt lat="43.62936" lon="3.83989">
        <ele>57</ele>
        <time>2020-12-30T09:13:00Z</time>
      </trkpt>
      <trkpt lat="43.62928" lon="3.83992">
        <ele>57</ele>
        <time>2020-12-30T09:13:02Z</time>
      </trkpt>
      <trkpt lat="43.6292" lon="3.83996">
        <ele>57</ele>
        <time>2020-12-30T09:13:04Z</time>
      </trkpt>
      <trkpt lat="43.62915" lon="3.83997">
        <ele>57</ele>
        <time>2020-12-30T09:13:05Z</time>
      </trkpt>
      <trkpt lat="43.6291" lon="3.83998">
        <ele>58</ele>
        <time>2020-12-30T09:13:06Z</time>
      </trkpt>
      <trkpt lat="43.62905" lon="3.83998">
        <ele>57</ele>
        <time>2020-12-30T09:13:08Z</time>
      </trkpt>
      <trkpt lat="43.62897" lon="3.84001">
        <ele>57</ele>
        <time>2020-12-30T09:13:10Z</time>
      </trkpt>
      <trkpt lat="43.62891" lon="3.84003">
        <ele>57</ele>
        <time>2020-12-30T09:13:11Z</time>
      </trkpt>
      <trkpt lat="43.62885" lon="3.84003">
        <ele>57</ele>
        <time>2020-12-30T09:13:12Z</time>
      </trkpt>
      <trkpt lat="43.62881" lon="3.84005">
        <ele>56</ele>
        <time>2020-12-30T09:13:13Z</time>
      </trkpt>
      <trkpt lat="43.62876" lon="3.84006">
        <ele>56</ele>
        <time>2020-12-30T09:13:14Z</time>
      </trkpt>
      <trkpt lat="43.62872" lon="3.84008">
        <ele>56</ele>
        <time>2020-12-30T09:13:15Z</time>
      </trkpt>
      <trkpt lat="43.62863" lon="3.84012">
        <ele>56</ele>
        <time>2020-12-30T09:13:17Z</time>
      </trkpt>
      <trkpt lat="43.62859" lon="3.84014">
        <ele>57</ele>
        <time>2020-12-30T09:13:18Z</time>
      </trkpt>
      <trkpt lat="43.62853" lon="3.84015">
        <ele>57</ele>
        <time>2020-12-30T09:13:19Z</time>
      </trkpt>
      <trkpt lat="43.62848" lon="3.84015">
        <ele>57</ele>
        <time>2020-12-30T09:13:20Z</time>
      </trkpt>
      <trkpt lat="43.6284" lon="3.84015">
        <ele>57</ele>
        <time>2020-12-30T09:13:22Z</time>
      </trkpt>
      <trkpt lat="43.62835" lon="3.84013">
        <ele>57</ele>
        <time>2020-12-30T09:13:23Z</time>
      </trkpt>
      <trkpt lat="43.6283" lon="3.84012">
        <ele>57</ele>
        <time>2020-12-30T09:13:24Z</time>
      </trkpt>
      <trkpt lat="43.62825" lon="3.8401">
        <ele>57</ele>
        <time>2020-12-30T09:13:25Z</time>
      </trkpt>
      <trkpt lat="43.6282" lon="3.8401">
        <ele>57</ele>
        <time>2020-12-30T09:13:26Z</time>
      </trkpt>
      <trkpt lat="43.62812" lon="3.8401">
        <ele>57</ele>
        <time>2020-12-30T09:13:28Z</time>
      </trkpt>
      <trkpt lat="43.62807" lon="3.84011">
        <ele>57</ele>
        <time>2020-12-30T09:13:29Z</time>
      </trkpt>
      <trkpt lat="43.62802" lon="3.84012">
        <ele>57</ele>
        <time>2020-12-30T09:13:30Z</time>
      </trkpt>
      <trkpt lat="43.62796" lon="3.84012">
        <ele>58</ele>
        <time>2020-12-30T09:13:32Z</time>
      </trkpt>
      <trkpt lat="43.6279" lon="3.84005">
        <ele>58</ele>
        <time>2020-12-30T09:13:34Z</time>
      </trkpt>
      <trkpt lat="43.62787" lon="3.84">
        <ele>58</ele>
        <time>2020-12-30T09:13:35Z</time>
      </trkpt>
      <trkpt lat="43.62783" lon="3.83996">
        <ele>58</ele>
        <time>2020-12-30T09:13:36Z</time>
      </trkpt>
      <trkpt lat="43.62778" lon="3.83992">
        <ele>58</ele>
        <time>2020-12-30T09:13:37Z</time>
      </trkpt>
      <trkpt lat="43.62774" lon="3.83986">
        <ele>57</ele>
        <time>2020-12-30T09:13:38Z</time>
      </trkpt>
      <trkpt lat="43.62769" lon="3.83978">
        <ele>57</ele>
        <time>2020-12-30T09:13:39Z</time>
      </trkpt>
      <trkpt lat="43.62765" lon="3.83972">
        <ele>56</ele>
        <time>2020-12-30T09:13:40Z</time>
      </trkpt>
      <trkpt lat="43.6276" lon="3.83962">
        <ele>56</ele>
        <time>2020-12-30T09:13:42Z</time>
      </trkpt>
      <trkpt lat="43.62756" lon="3.83957">
        <ele>56</ele>
        <time>2020-12-30T09:13:43Z</time>
      </trkpt>
      <trkpt lat="43.62753" lon="3.83952">
        <ele>56</ele>
        <time>2020-12-30T09:13:44Z</time>
      </trkpt>
      <trkpt lat="43.62748" lon="3.83949">
        <ele>57</ele>
        <time>2020-12-30T09:13:45Z</time>
      </trkpt>
      <trkpt lat="43.62745" lon="3.83945">
        <ele>58</ele>
        <time>2020-12-30T09:13:46Z</time>
      </trkpt>
      <trkpt lat="43.62741" lon="3.83942">
        <ele>58</ele>
        <time>2020-12-30T09:13:47Z</time>
      </trkpt>
      <trkpt lat="43.62734" lon="3.83933">
        <ele>58</ele>
        <time>2020-12-30T09:13:49Z</time>
      </trkpt>
      <trkpt lat="43.62727" lon="3.83926">
        <ele>58</ele>
        <time>2020-12-30T09:13:51Z</time>
      </trkpt>
      <trkpt lat="43.62724" lon="3.8392">
        <ele>57</ele>
        <time>2020-12-30T09:13:52Z</time>
      </trkpt>
      <trkpt lat="43.62722" lon="3.83914">
        <ele>57</ele>
        <time>2020-12-30T09:13:53Z</time>
      </trkpt>
      <trkpt lat="43.62719" lon="3.83909">
        <ele>57</ele>
        <time>2020-12-30T09:13:54Z</time>
      </trkpt>
      <trkpt lat="43.62716" lon="3.83904">
        <ele>57</ele>
        <time>2020-12-30T09:13:55Z</time>
      </trkpt>
      <trkpt lat="43.62711" lon="3.83894">
        <ele>57</ele>
        <time>2020-12-30T09:13:57Z</time>
      </trkpt>
      <trkpt lat="43.62708" lon="3.83889">
        <ele>57</ele>
        <time>2020-12-30T09:13:58Z</time>
      </trkpt>
      <trkpt lat="43.62704" lon="3.8388">
        <ele>58</ele>
        <time>2020-12-30T09:14:00Z</time>
      </trkpt>
      <trkpt lat="43.627" lon="3.83869">
        <ele>58</ele>
        <time>2020-12-30T09:14:02Z</time>
      </trkpt>
      <trkpt lat="43.62697" lon="3.83863">
        <ele>58</ele>
        <time>2020-12-30T09:14:04Z</time>
      </trkpt>
      <trkpt lat="43.62693" lon="3.83856">
        <ele>58</ele>
        <time>2020-12-30T09:14:06Z</time>
      </trkpt>
      <trkpt lat="43.6269" lon="3.83846">
        <ele>58</ele>
        <time>2020-12-30T09:14:08Z</time>
      </trkpt>
      <trkpt lat="43.6269" lon="3.83837">
        <ele>58</ele>
        <time>2020-12-30T09:14:09Z</time>
      </trkpt>
      <trkpt lat="43.62687" lon="3.83828">
        <ele>58</ele>
        <time>2020-12-30T09:14:11Z</time>
      </trkpt>
      <trkpt lat="43.62682" lon="3.83821">
        <ele>59</ele>
        <time>2020-12-30T09:14:12Z</time>
      </trkpt>
      <trkpt lat="43.62679" lon="3.83817">
        <ele>60</ele>
        <time>2020-12-30T09:14:14Z</time>
      </trkpt>
      <trkpt lat="43.62674" lon="3.83809">
        <ele>61</ele>
        <time>2020-12-30T09:14:16Z</time>
      </trkpt>
      <trkpt lat="43.62672" lon="3.83802">
        <ele>63</ele>
        <time>2020-12-30T09:14:18Z</time>
      </trkpt>
      <trkpt lat="43.62669" lon="3.83798">
        <ele>64</ele>
        <time>2020-12-30T09:14:20Z</time>
      </trkpt>
      <trkpt lat="43.62664" lon="3.83795">
        <ele>64</ele>
        <time>2020-12-30T09:14:22Z</time>
      </trkpt>
      <trkpt lat="43.62661" lon="3.83787">
        <ele>64</ele>
        <time>2020-12-30T09:14:25Z</time>
      </trkpt>
      <trkpt lat="43.62657" lon="3.83781">
        <ele>64</ele>
        <time>2020-12-30T09:14:27Z</time>
      </trkpt>
      <trkpt lat="43.62651" lon="3.83774">
        <ele>63</ele>
        <time>2020-12-30T09:14:29Z</time>
      </trkpt>
      <trkpt lat="43.62646" lon="3.83767">
        <ele>64</ele>
        <time>2020-12-30T09:14:31Z</time>
      </trkpt>
      <trkpt lat="43.6264" lon="3.8376">
        <ele>64</ele>
        <time>2020-12-30T09:14:34Z</time>
      </trkpt>
      <trkpt lat="43.62634" lon="3.8375">
        <ele>65</ele>
        <time>2020-12-30T09:14:36Z</time>
      </trkpt>
      <trkpt lat="43.62629" lon="3.83743">
        <ele>66</ele>
        <time>2020-12-30T09:14:38Z</time>
      </trkpt>
      <trkpt lat="43.62624" lon="3.83736">
        <ele>67</ele>
        <time>2020-12-30T09:14:40Z</time>
      </trkpt>
      <trkpt lat="43.62619" lon="3.83729">
        <ele>67</ele>
        <time>2020-12-30T09:14:42Z</time>
      </trkpt>
      <trkpt lat="43.62614" lon="3.83722">
        <ele>68</ele>
        <time>2020-12-30T09:14:44Z</time>
      </trkpt>
      <trkpt lat="43.62609" lon="3.83715">
        <ele>68</ele>
        <time>2020-12-30T09:14:46Z</time>
      </trkpt>
      <trkpt lat="43.62604" lon="3.83709">
        <ele>68</ele>
        <time>2020-12-30T09:14:48Z</time>
      </trkpt>
      <trkpt lat="43.62599" lon="3.83704">
        <ele>68</ele>
        <time>2020-12-30T09:14:50Z</time>
      </trkpt>
      <trkpt lat="43.62593" lon="3.83698">
        <ele>68</ele>
        <time>2020-12-30T09:14:52Z</time>
      </trkpt>
      <trkpt lat="43.62589" lon="3.83692">
        <ele>68</ele>
        <time>2020-12-30T09:14:54Z</time>
      </trkpt>
      <trkpt lat="43.62585" lon="3.83685">
        <ele>68</ele>
        <time>2020-12-30T09:14:56Z</time>
      </trkpt>
      <trkpt lat="43.62582" lon="3.83677">
        <ele>67</ele>
        <time>2020-12-30T09:14:58Z</time>
      </trkpt>
      <trkpt lat="43.62581" lon="3.83667">
        <ele>67</ele>
        <time>2020-12-30T09:15:00Z</time>
      </trkpt>
      <trkpt lat="43.62581" lon="3.83658">
        <ele>68</ele>
        <time>2020-12-30T09:15:02Z</time>
      </trkpt>
      <trkpt lat="43.62582" lon="3.8365">
        <ele>68</ele>
        <time>2020-12-30T09:15:04Z</time>
      </trkpt>
      <trkpt lat="43.62582" lon="3.83641">
        <ele>68</ele>
        <time>2020-12-30T09:15:06Z</time>
      </trkpt>
      <trkpt lat="43.62582" lon="3.83633">
        <ele>70</ele>
        <time>2020-12-30T09:15:08Z</time>
      </trkpt>
      <trkpt lat="43.62582" lon="3.83624">
        <ele>70</ele>
        <time>2020-12-30T09:15:10Z</time>
      </trkpt>
      <trkpt lat="43.62581" lon="3.83616">
        <ele>70</ele>
        <time>2020-12-30T09:15:12Z</time>
      </trkpt>
      <trkpt lat="43.62579" lon="3.83606">
        <ele>70</ele>
        <time>2020-12-30T09:15:14Z</time>
      </trkpt>
      <trkpt lat="43.62576" lon="3.83597">
        <ele>71</ele>
        <time>2020-12-30T09:15:16Z</time>
      </trkpt>
      <trkpt lat="43.62571" lon="3.83588">
        <ele>71</ele>
        <time>2020-12-30T09:15:18Z</time>
      </trkpt>
      <trkpt lat="43.62564" lon="3.8358">
        <ele>71</ele>
        <time>2020-12-30T09:15:20Z</time>
      </trkpt>
      <trkpt lat="43.62557" lon="3.83573">
        <ele>71</ele>
        <time>2020-12-30T09:15:22Z</time>
      </trkpt>
      <trkpt lat="43.6255" lon="3.83566">
        <ele>71</ele>
        <time>2020-12-30T09:15:24Z</time>
      </trkpt>
      <trkpt lat="43.62542" lon="3.83561">
        <ele>70</ele>
        <time>2020-12-30T09:15:26Z</time>
      </trkpt>
      <trkpt lat="43.62538" lon="3.83558">
        <ele>70</ele>
        <time>2020-12-30T09:15:27Z</time>
      </trkpt>
      <trkpt lat="43.62534" lon="3.83551">
        <ele>70</ele>
        <time>2020-12-30T09:15:29Z</time>
      </trkpt>
      <trkpt lat="43.62533" lon="3.83543">
        <ele>70</ele>
        <time>2020-12-30T09:15:31Z</time>
      </trkpt>
      <trkpt lat="43.62533" lon="3.83536">
        <ele>70</ele>
        <time>2020-12-30T09:15:34Z</time>
      </trkpt>
      <trkpt lat="43.62528" lon="3.83519">
        <ele>70</ele>
        <time>2020-12-30T09:15:36Z</time>
      </trkpt>
      <trkpt lat="43.62524" lon="3.8351">
        <ele>71</ele>
        <time>2020-12-30T09:15:38Z</time>
      </trkpt>
      <trkpt lat="43.6252" lon="3.83501">
        <ele>71</ele>
        <time>2020-12-30T09:15:40Z</time>
      </trkpt>
      <trkpt lat="43.62516" lon="3.8349">
        <ele>71</ele>
        <time>2020-12-30T09:15:42Z</time>
      </trkpt>
      <trkpt lat="43.62513" lon="3.83483">
        <ele>72</ele>
        <time>2020-12-30T09:15:45Z</time>
      </trkpt>
      <trkpt lat="43.62511" lon="3.83476">
        <ele>72</ele>
        <time>2020-12-30T09:15:47Z</time>
      </trkpt>
      <trkpt lat="43.62507" lon="3.83464">
        <ele>73</ele>
        <time>2020-12-30T09:15:48Z</time>
      </trkpt>
      <trkpt lat="43.62507" lon="3.83453">
        <ele>73</ele>
        <time>2020-12-30T09:15:50Z</time>
      </trkpt>
      <trkpt lat="43.62511" lon="3.83442">
        <ele>73</ele>
        <time>2020-12-30T09:15:52Z</time>
      </trkpt>
      <trkpt lat="43.62514" lon="3.83432">
        <ele>73</ele>
        <time>2020-12-30T09:15:54Z</time>
      </trkpt>
      <trkpt lat="43.62516" lon="3.83426">
        <ele>73</ele>
        <time>2020-12-30T09:15:55Z</time>
      </trkpt>
      <trkpt lat="43.62518" lon="3.83413">
        <ele>73</ele>
        <time>2020-12-30T09:15:57Z</time>
      </trkpt>
      <trkpt lat="43.6252" lon="3.83406">
        <ele>72</ele>
        <time>2020-12-30T09:15:58Z</time>
      </trkpt>
      <trkpt lat="43.62523" lon="3.83394">
        <ele>72</ele>
        <time>2020-12-30T09:16:00Z</time>
      </trkpt>
      <trkpt lat="43.62525" lon="3.83388">
        <ele>72</ele>
        <time>2020-12-30T09:16:01Z</time>
      </trkpt>
      <trkpt lat="43.62528" lon="3.83383">
        <ele>71</ele>
        <time>2020-12-30T09:16:02Z</time>
      </trkpt>
      <trkpt lat="43.6253" lon="3.83377">
        <ele>71</ele>
        <time>2020-12-30T09:16:03Z</time>
      </trkpt>
      <trkpt lat="43.62532" lon="3.83371">
        <ele>72</ele>
        <time>2020-12-30T09:16:04Z</time>
      </trkpt>
      <trkpt lat="43.62534" lon="3.83365">
        <ele>71</ele>
        <time>2020-12-30T09:16:05Z</time>
      </trkpt>
      <trkpt lat="43.62537" lon="3.83359">
        <ele>71</ele>
        <time>2020-12-30T09:16:06Z</time>
      </trkpt>
      <trkpt lat="43.62539" lon="3.83353">
        <ele>71</ele>
        <time>2020-12-30T09:16:07Z</time>
      </trkpt>
      <trkpt lat="43.62542" lon="3.83343">
        <ele>71</ele>
        <time>2020-12-30T09:16:09Z</time>
      </trkpt>
      <trkpt lat="43.62545" lon="3.83333">
        <ele>71</ele>
        <time>2020-12-30T09:16:11Z</time>
      </trkpt>
      <trkpt lat="43.62549" lon="3.83322">
        <ele>72</ele>
        <time>2020-12-30T09:16:13Z</time>
      </trkpt>
      <trkpt lat="43.62552" lon="3.83312">
        <ele>72</ele>
        <time>2020-12-30T09:16:15Z</time>
      </trkpt>
      <trkpt lat="43.62554" lon="3.83301">
        <ele>72</ele>
        <time>2020-12-30T09:16:17Z</time>
      </trkpt>
      <trkpt lat="43.62555" lon="3.83289">
        <ele>72</ele>
        <time>2020-12-30T09:16:19Z</time>
      </trkpt>
      <trkpt lat="43.62556" lon="3.83283">
        <ele>72</ele>
        <time>2020-12-30T09:16:20Z</time>
      </trkpt>
      <trkpt lat="43.6256" lon="3.83273">
        <ele>72</ele>
        <time>2020-12-30T09:16:22Z</time>
      </trkpt>
      <trkpt lat="43.62567" lon="3.83267">
        <ele>72</ele>
        <time>2020-12-30T09:16:24Z</time>
      </trkpt>
      <trkpt lat="43.62574" lon="3.83266">
        <ele>71</ele>
        <time>2020-12-30T09:16:26Z</time>
      </trkpt>
      <trkpt lat="43.62582" lon="3.8326">
        <ele>72</ele>
        <time>2020-12-30T09:16:28Z</time>
      </trkpt>
      <trkpt lat="43.62586" lon="3.8325">
        <ele>72</ele>
        <time>2020-12-30T09:16:30Z</time>
      </trkpt>
      <trkpt lat="43.6259" lon="3.83241">
        <ele>72</ele>
        <time>2020-12-30T09:16:32Z</time>
      </trkpt>
      <trkpt lat="43.62594" lon="3.83232">
        <ele>72</ele>
        <time>2020-12-30T09:16:34Z</time>
      </trkpt>
      <trkpt lat="43.62601" lon="3.83227">
        <ele>72</ele>
        <time>2020-12-30T09:16:36Z</time>
      </trkpt>
      <trkpt lat="43.62608" lon="3.83223">
        <ele>72</ele>
        <time>2020-12-30T09:16:38Z</time>
      </trkpt>
      <trkpt lat="43.62615" lon="3.83219">
        <ele>71</ele>
        <time>2020-12-30T09:16:40Z</time>
      </trkpt>
      <trkpt lat="43.62622" lon="3.83215">
        <ele>71</ele>
        <time>2020-12-30T09:16:42Z</time>
      </trkpt>
      <trkpt lat="43.62629" lon="3.83212">
        <ele>71</ele>
        <time>2020-12-30T09:16:44Z</time>
      </trkpt>
      <trkpt lat="43.62636" lon="3.83208">
        <ele>71</ele>
        <time>2020-12-30T09:16:46Z</time>
      </trkpt>
      <trkpt lat="43.62643" lon="3.83204">
        <ele>71</ele>
        <time>2020-12-30T09:16:48Z</time>
      </trkpt>
      <trkpt lat="43.6265" lon="3.832">
        <ele>71</ele>
        <time>2020-12-30T09:16:50Z</time>
      </trkpt>
      <trkpt lat="43.62656" lon="3.83195">
        <ele>71</ele>
        <time>2020-12-30T09:16:52Z</time>
      </trkpt>
      <trkpt lat="43.62663" lon="3.8319">
        <ele>71</ele>
        <time>2020-12-30T09:16:54Z</time>
      </trkpt>
      <trkpt lat="43.62669" lon="3.83185">
        <ele>71</ele>
        <time>2020-12-30T09:16:56Z</time>
      </trkpt>
      <trkpt lat="43.62674" lon="3.8318">
        <ele>72</ele>
        <time>2020-12-30T09:16:58Z</time>
      </trkpt>
      <trkpt lat="43.62679" lon="3.83174">
        <ele>72</ele>
        <time>2020-12-30T09:17:00Z</time>
      </trkpt>
      <trkpt lat="43.62682" lon="3.83165">
        <ele>73</ele>
        <time>2020-12-30T09:17:02Z</time>
      </trkpt>
      <trkpt lat="43.62687" lon="3.83157">
        <ele>74</ele>
        <time>2020-12-30T09:17:04Z</time>
      </trkpt>
      <trkpt lat="43.62693" lon="3.83152">
        <ele>74</ele>
        <time>2020-12-30T09:17:06Z</time>
      </trkpt>
      <trkpt lat="43.62699" lon="3.83147">
        <ele>75</ele>
        <time>2020-12-30T09:17:08Z</time>
      </trkpt>
      <trkpt lat="43.62705" lon="3.83143">
        <ele>76</ele>
        <time>2020-12-30T09:17:10Z</time>
      </trkpt>
      <trkpt lat="43.62711" lon="3.83141">
        <ele>76</ele>
        <time>2020-12-30T09:17:12Z</time>
      </trkpt>
      <trkpt lat="43.62717" lon="3.83138">
        <ele>77</ele>
        <time>2020-12-30T09:17:14Z</time>
      </trkpt>
      <trkpt lat="43.62722" lon="3.83135">
        <ele>78</ele>
        <time>2020-12-30T09:17:16Z</time>
      </trkpt>
      <trkpt lat="43.62727" lon="3.83132">
        <ele>78</ele>
        <time>2020-12-30T09:17:18Z</time>
      </trkpt>
      <trkpt lat="43.62728" lon="3.83123">
        <ele>78</ele>
        <time>2020-12-30T09:17:20Z</time>
      </trkpt>
      <trkpt lat="43.6273" lon="3.83116">
        <ele>78</ele>
        <time>2020-12-30T09:17:22Z</time>
      </trkpt>
      <trkpt lat="43.62737" lon="3.83112">
        <ele>77</ele>
        <time>2020-12-30T09:17:24Z</time>
      </trkpt>
      <trkpt lat="43.62743" lon="3.8311">
        <ele>77</ele>
        <time>2020-12-30T09:17:26Z</time>
      </trkpt>
      <trkpt lat="43.62747" lon="3.83107">
        <ele>78</ele>
        <time>2020-12-30T09:17:28Z</time>
      </trkpt>
      <trkpt lat="43.62752" lon="3.83105">
        <ele>78</ele>
        <time>2020-12-30T09:17:31Z</time>
      </trkpt>
      <trkpt lat="43.62759" lon="3.83103">
        <ele>78</ele>
        <time>2020-12-30T09:17:33Z</time>
      </trkpt>
      <trkpt lat="43.62769" lon="3.831">
        <ele>79</ele>
        <time>2020-12-30T09:17:34Z</time>
      </trkpt>
      <trkpt lat="43.62774" lon="3.83098">
        <ele>80</ele>
        <time>2020-12-30T09:17:36Z</time>
      </trkpt>
      <trkpt lat="43.62782" lon="3.83098">
        <ele>81</ele>
        <time>2020-12-30T09:17:38Z</time>
      </trkpt>
      <trkpt lat="43.6279" lon="3.83098">
        <ele>81</ele>
        <time>2020-12-30T09:17:40Z</time>
      </trkpt>
      <trkpt lat="43.62795" lon="3.83097">
        <ele>82</ele>
        <time>2020-12-30T09:17:41Z</time>
      </trkpt>
      <trkpt lat="43.62803" lon="3.83093">
        <ele>82</ele>
        <time>2020-12-30T09:17:43Z</time>
      </trkpt>
      <trkpt lat="43.62808" lon="3.83091">
        <ele>82</ele>
        <time>2020-12-30T09:17:44Z</time>
      </trkpt>
      <trkpt lat="43.62812" lon="3.83089">
        <ele>82</ele>
        <time>2020-12-30T09:17:45Z</time>
      </trkpt>
      <trkpt lat="43.6282" lon="3.83088">
        <ele>82</ele>
        <time>2020-12-30T09:17:47Z</time>
      </trkpt>
      <trkpt lat="43.62829" lon="3.83087">
        <ele>82</ele>
        <time>2020-12-30T09:17:49Z</time>
      </trkpt>
      <trkpt lat="43.62837" lon="3.83087">
        <ele>82</ele>
        <time>2020-12-30T09:17:51Z</time>
      </trkpt>
      <trkpt lat="43.62843" lon="3.83079">
        <ele>82</ele>
        <time>2020-12-30T09:17:53Z</time>
      </trkpt>
      <trkpt lat="43.62845" lon="3.83072">
        <ele>82</ele>
        <time>2020-12-30T09:17:55Z</time>
      </trkpt>
      <trkpt lat="43.62842" lon="3.83059">
        <ele>82</ele>
        <time>2020-12-30T09:17:58Z</time>
      </trkpt>
      <trkpt lat="43.6284" lon="3.83047">
        <ele>82</ele>
        <time>2020-12-30T09:18:00Z</time>
      </trkpt>
      <trkpt lat="43.62837" lon="3.83031">
        <ele>81</ele>
        <time>2020-12-30T09:18:01Z</time>
      </trkpt>
      <trkpt lat="43.62836" lon="3.83021">
        <ele>80</ele>
        <time>2020-12-30T09:18:02Z</time>
      </trkpt>
      <trkpt lat="43.62837" lon="3.83003">
        <ele>79</ele>
        <time>2020-12-30T09:18:03Z</time>
      </trkpt>
      <trkpt lat="43.62838" lon="3.82994">
        <ele>77</ele>
        <time>2020-12-30T09:18:04Z</time>
      </trkpt>
      <trkpt lat="43.62838" lon="3.82986">
        <ele>76</ele>
        <time>2020-12-30T09:18:05Z</time>
      </trkpt>
      <trkpt lat="43.62837" lon="3.82978">
        <ele>75</ele>
        <time>2020-12-30T09:18:06Z</time>
      </trkpt>
      <trkpt lat="43.62835" lon="3.8297">
        <ele>74</ele>
        <time>2020-12-30T09:18:07Z</time>
      </trkpt>
      <trkpt lat="43.62833" lon="3.82962">
        <ele>73</ele>
        <time>2020-12-30T09:18:08Z</time>
      </trkpt>
      <trkpt lat="43.62834" lon="3.82955">
        <ele>73</ele>
        <time>2020-12-30T09:18:09Z</time>
      </trkpt>
      <trkpt lat="43.62835" lon="3.82949">
        <ele>73</ele>
        <time>2020-12-30T09:18:10Z</time>
      </trkpt>
      <trkpt lat="43.62837" lon="3.82938">
        <ele>72</ele>
        <time>2020-12-30T09:18:11Z</time>
      </trkpt>
      <trkpt lat="43.62837" lon="3.82929">
        <ele>72</ele>
        <time>2020-12-30T09:18:12Z</time>
      </trkpt>
      <trkpt lat="43.62837" lon="3.8292">
        <ele>71</ele>
        <time>2020-12-30T09:18:13Z</time>
      </trkpt>
      <trkpt lat="43.62838" lon="3.82912">
        <ele>70</ele>
        <time>2020-12-30T09:18:14Z</time>
      </trkpt>
      <trkpt lat="43.6284" lon="3.82904">
        <ele>70</ele>
        <time>2020-12-30T09:18:15Z</time>
      </trkpt>
      <trkpt lat="43.62843" lon="3.82897">
        <ele>69</ele>
        <time>2020-12-30T09:18:16Z</time>
      </trkpt>
      <trkpt lat="43.62845" lon="3.82889">
        <ele>69</ele>
        <time>2020-12-30T09:18:17Z</time>
      </trkpt>
      <trkpt lat="43.62846" lon="3.82881">
        <ele>68</ele>
        <time>2020-12-30T09:18:18Z</time>
      </trkpt>
      <trkpt lat="43.62846" lon="3.82872">
        <ele>68</ele>
        <time>2020-12-30T09:18:19Z</time>
      </trkpt>
      <trkpt lat="43.62847" lon="3.82864">
        <ele>68</ele>
        <time>2020-12-30T09:18:20Z</time>
      </trkpt>
      <trkpt lat="43.62848" lon="3.82855">
        <ele>68</ele>
        <time>2020-12-30T09:18:21Z</time>
      </trkpt>
      <trkpt lat="43.6285" lon="3.82847">
        <ele>68</ele>
        <time>2020-12-30T09:18:22Z</time>
      </trkpt>
      <trkpt lat="43.62853" lon="3.82839">
        <ele>67</ele>
        <time>2020-12-30T09:18:23Z</time>
      </trkpt>
      <trkpt lat="43.62856" lon="3.82832">
        <ele>67</ele>
        <time>2020-12-30T09:18:24Z</time>
      </trkpt>
      <trkpt lat="43.62859" lon="3.82827">
        <ele>66</ele>
        <time>2020-12-30T09:18:25Z</time>
      </trkpt>
      <trkpt lat="43.62863" lon="3.82824">
        <ele>66</ele>
        <time>2020-12-30T09:18:26Z</time>
      </trkpt>
      <trkpt lat="43.62868" lon="3.8282">
        <ele>66</ele>
        <time>2020-12-30T09:18:28Z</time>
      </trkpt>
      <trkpt lat="43.62874" lon="3.82818">
        <ele>65</ele>
        <time>2020-12-30T09:18:30Z</time>
      </trkpt>
      <trkpt lat="43.62882" lon="3.82812">
        <ele>65</ele>
        <time>2020-12-30T09:18:32Z</time>
      </trkpt>
      <trkpt lat="43.62887" lon="3.8281">
        <ele>64</ele>
        <time>2020-12-30T09:18:33Z</time>
      </trkpt>
      <trkpt lat="43.62896" lon="3.8281">
        <ele>64</ele>
        <time>2020-12-30T09:18:35Z</time>
      </trkpt>
      <trkpt lat="43.62903" lon="3.82804">
        <ele>63</ele>
        <time>2020-12-30T09:18:37Z</time>
      </trkpt>
      <trkpt lat="43.62904" lon="3.82795">
        <ele>63</ele>
        <time>2020-12-30T09:18:39Z</time>
      </trkpt>
      <trkpt lat="43.62903" lon="3.82784">
        <ele>62</ele>
        <time>2020-12-30T09:18:41Z</time>
      </trkpt>
      <trkpt lat="43.62903" lon="3.82775">
        <ele>61</ele>
        <time>2020-12-30T09:18:43Z</time>
      </trkpt>
      <trkpt lat="43.62904" lon="3.82766">
        <ele>61</ele>
        <time>2020-12-30T09:18:45Z</time>
      </trkpt>
      <trkpt lat="43.62905" lon="3.82759">
        <ele>60</ele>
        <time>2020-12-30T09:18:46Z</time>
      </trkpt>
      <trkpt lat="43.62911" lon="3.8275">
        <ele>60</ele>
        <time>2020-12-30T09:18:48Z</time>
      </trkpt>
      <trkpt lat="43.62914" lon="3.82745">
        <ele>59</ele>
        <time>2020-12-30T09:18:49Z</time>
      </trkpt>
      <trkpt lat="43.62918" lon="3.8274">
        <ele>59</ele>
        <time>2020-12-30T09:18:50Z</time>
      </trkpt>
      <trkpt lat="43.62923" lon="3.82736">
        <ele>58</ele>
        <time>2020-12-30T09:18:51Z</time>
      </trkpt>
      <trkpt lat="43.62927" lon="3.82731">
        <ele>58</ele>
        <time>2020-12-30T09:18:52Z</time>
      </trkpt>
      <trkpt lat="43.6293" lon="3.82726">
        <ele>58</ele>
        <time>2020-12-30T09:18:53Z</time>
      </trkpt>
      <trkpt lat="43.62934" lon="3.82722">
        <ele>58</ele>
        <time>2020-12-30T09:18:54Z</time>
      </trkpt>
      <trkpt lat="43.62938" lon="3.82717">
        <ele>58</ele>
        <time>2020-12-30T09:18:55Z</time>
      </trkpt>
      <trkpt lat="43.62942" lon="3.82712">
        <ele>57</ele>
        <time>2020-12-30T09:18:56Z</time>
      </trkpt>
      <trkpt lat="43.62947" lon="3.82707">
        <ele>57</ele>
        <time>2020-12-30T09:18:57Z</time>
      </trkpt>
      <trkpt lat="43.6295" lon="3.82702">
        <ele>56</ele>
        <time>2020-12-30T09:18:58Z</time>
      </trkpt>
      <trkpt lat="43.62954" lon="3.82697">
        <ele>56</ele>
        <time>2020-12-30T09:18:59Z</time>
      </trkpt>
      <trkpt lat="43.62958" lon="3.82693">
        <ele>56</ele>
        <time>2020-12-30T09:19:00Z</time>
      </trkpt>
      <trkpt lat="43.62962" lon="3.82688">
        <ele>56</ele>
        <time>2020-12-30T09:19:01Z</time>
      </trkpt>
      <trkpt lat="43.62966" lon="3.82683">
        <ele>56</ele>
        <time>2020-12-30T09:19:02Z</time>
      </trkpt>
      <trkpt lat="43.6297" lon="3.82679">
        <ele>56</ele>
        <time>2020-12-30T09:19:03Z</time>
      </trkpt>
      <trkpt lat="43.62978" lon="3.8267">
        <ele>56</ele>
        <time>2020-12-30T09:19:05Z</time>
      </trkpt>
      <trkpt lat="43.62981" lon="3.82665">
        <ele>56</ele>
        <time>2020-12-30T09:19:06Z</time>
      </trkpt>
      <trkpt lat="43.62985" lon="3.8266">
        <ele>56</ele>
        <time>2020-12-30T09:19:07Z</time>
      </trkpt>
      <trkpt lat="43.62989" lon="3.82656">
        <ele>56</ele>
        <time>2020-12-30T09:19:08Z</time>
      </trkpt>
      <trkpt lat="43.62993" lon="3.82652">
        <ele>55</ele>
        <time>2020-12-30T09:19:09Z</time>
      </trkpt>
      <trkpt lat="43.62996" lon="3.82647">
        <ele>55</ele>
        <time>2020-12-30T09:19:10Z</time>
      </trkpt>
      <trkpt lat="43.63001" lon="3.82641">
        <ele>55</ele>
        <time>2020-12-30T09:19:12Z</time>
      </trkpt>
      <trkpt lat="43.63006" lon="3.82635">
        <ele>54</ele>
        <time>2020-12-30T09:19:14Z</time>
      </trkpt>
      <trkpt lat="43.63011" lon="3.82633">
        <ele>54</ele>
        <time>2020-12-30T09:19:15Z</time>
      </trkpt>
      <trkpt lat="43.63017" lon="3.82632">
        <ele>54</ele>
        <time>2020-12-30T09:19:16Z</time>
      </trkpt>
      <trkpt lat="43.63026" lon="3.82634">
        <ele>54</ele>
        <time>2020-12-30T09:19:18Z</time>
      </trkpt>
      <trkpt lat="43.6303" lon="3.82634">
        <ele>54</ele>
        <time>2020-12-30T09:19:19Z</time>
      </trkpt>
      <trkpt lat="43.63039" lon="3.82629">
        <ele>54</ele>
        <time>2020-12-30T09:19:21Z</time>
      </trkpt>
      <trkpt lat="43.63041" lon="3.82623">
        <ele>54</ele>
        <time>2020-12-30T09:19:22Z</time>
      </trkpt>
      <trkpt lat="43.63041" lon="3.82615">
        <ele>54</ele>
        <time>2020-12-30T09:19:23Z</time>
      </trkpt>
      <trkpt lat="43.63042" lon="3.82608">
        <ele>54</ele>
        <time>2020-12-30T09:19:24Z</time>
      </trkpt>
      <trkpt lat="43.63041" lon="3.826">
        <ele>54</ele>
        <time>2020-12-30T09:19:25Z</time>
      </trkpt>
      <trkpt lat="43.63041" lon="3.82591">
        <ele>54</ele>
        <time>2020-12-30T09:19:26Z</time>
      </trkpt>
      <trkpt lat="43.63042" lon="3.82583">
        <ele>54</ele>
        <time>2020-12-30T09:19:27Z</time>
      </trkpt>
      <trkpt lat="43.63042" lon="3.82573">
        <ele>53</ele>
        <time>2020-12-30T09:19:28Z</time>
      </trkpt>
      <trkpt lat="43.63043" lon="3.82564">
        <ele>53</ele>
        <time>2020-12-30T09:19:29Z</time>
      </trkpt>
      <trkpt lat="43.63043" lon="3.82554">
        <ele>52</ele>
        <time>2020-12-30T09:19:30Z</time>
      </trkpt>
      <trkpt lat="43.63043" lon="3.82545">
        <ele>52</ele>
        <time>2020-12-30T09:19:31Z</time>
      </trkpt>
      <trkpt lat="43.63043" lon="3.82538">
        <ele>52</ele>
        <time>2020-12-30T09:19:32Z</time>
      </trkpt>
      <trkpt lat="43.63043" lon="3.82528">
        <ele>52</ele>
        <time>2020-12-30T09:19:33Z</time>
      </trkpt>
      <trkpt lat="43.63044" lon="3.8252">
        <ele>52</ele>
        <time>2020-12-30T09:19:34Z</time>
      </trkpt>
      <trkpt lat="43.63044" lon="3.82511">
        <ele>51</ele>
        <time>2020-12-30T09:19:35Z</time>
      </trkpt>
      <trkpt lat="43.63044" lon="3.82503">
        <ele>51</ele>
        <time>2020-12-30T09:19:36Z</time>
      </trkpt>
      <trkpt lat="43.63045" lon="3.82495">
        <ele>51</ele>
        <time>2020-12-30T09:19:37Z</time>
      </trkpt>
      <trkpt lat="43.63047" lon="3.82485">
        <ele>51</ele>
        <time>2020-12-30T09:19:38Z</time>
      </trkpt>
      <trkpt lat="43.63048" lon="3.82477">
        <ele>51</ele>
        <time>2020-12-30T09:19:39Z</time>
      </trkpt>
      <trkpt lat="43.63047" lon="3.82469">
        <ele>51</ele>
        <time>2020-12-30T09:19:40Z</time>
      </trkpt>
      <trkpt lat="43.63047" lon="3.82462">
        <ele>52</ele>
        <time>2020-12-30T09:19:41Z</time>
      </trkpt>
      <trkpt lat="43.63047" lon="3.82449">
        <ele>52</ele>
        <time>2020-12-30T09:19:43Z</time>
      </trkpt>
      <trkpt lat="43.63047" lon="3.82441">
        <ele>52</ele>
        <time>2020-12-30T09:19:44Z</time>
      </trkpt>
      <trkpt lat="43.63047" lon="3.82433">
        <ele>51</ele>
        <time>2020-12-30T09:19:45Z</time>
      </trkpt>
      <trkpt lat="43.63047" lon="3.82426">
        <ele>51</ele>
        <time>2020-12-30T09:19:46Z</time>
      </trkpt>
      <trkpt lat="43.63049" lon="3.82419">
        <ele>51</ele>
        <time>2020-12-30T09:19:47Z</time>
      </trkpt>
      <trkpt lat="43.6305" lon="3.82412">
        <ele>51</ele>
        <time>2020-12-30T09:19:48Z</time>
      </trkpt>
      <trkpt lat="43.63051" lon="3.82404">
        <ele>51</ele>
        <time>2020-12-30T09:19:49Z</time>
      </trkpt>
      <trkpt lat="43.63052" lon="3.82396">
        <ele>51</ele>
        <time>2020-12-30T09:19:50Z</time>
      </trkpt>
      <trkpt lat="43.63052" lon="3.82388">
        <ele>52</ele>
        <time>2020-12-30T09:19:51Z</time>
      </trkpt>
      <trkpt lat="43.63052" lon="3.82381">
        <ele>52</ele>
        <time>2020-12-30T09:19:52Z</time>
      </trkpt>
      <trkpt lat="43.63053" lon="3.82373">
        <ele>52</ele>
        <time>2020-12-30T09:19:53Z</time>
      </trkpt>
      <trkpt lat="43.63052" lon="3.82365">
        <ele>51</ele>
        <time>2020-12-30T09:19:54Z</time>
      </trkpt>
      <trkpt lat="43.63052" lon="3.82358">
        <ele>51</ele>
        <time>2020-12-30T09:19:55Z</time>
      </trkpt>
      <trkpt lat="43.63052" lon="3.82351">
        <ele>51</ele>
        <time>2020-12-30T09:19:56Z</time>
      </trkpt>
      <trkpt lat="43.63051" lon="3.82343">
        <ele>51</ele>
        <time>2020-12-30T09:19:57Z</time>
      </trkpt>
      <trkpt lat="43.63052" lon="3.82336">
        <ele>51</ele>
        <time>2020-12-30T09:19:58Z</time>
      </trkpt>
      <trkpt lat="43.63051" lon="3.82329">
        <ele>51</ele>
        <time>2020-12-30T09:19:59Z</time>
      </trkpt>
      <trkpt lat="43.6305" lon="3.82322">
        <ele>51</ele>
        <time>2020-12-30T09:20:00Z</time>
      </trkpt>
      <trkpt lat="43.63049" lon="3.82315">
        <ele>51</ele>
        <time>2020-12-30T09:20:01Z</time>
      </trkpt>
      <trkpt lat="43.63048" lon="3.82308">
        <ele>51</ele>
        <time>2020-12-30T09:20:02Z</time>
      </trkpt>
      <trkpt lat="43.6305" lon="3.82301">
        <ele>51</ele>
        <time>2020-12-30T09:20:03Z</time>
      </trkpt>
      <trkpt lat="43.63053" lon="3.82295">
        <ele>52</ele>
        <time>2020-12-30T09:20:04Z</time>
      </trkpt>
      <trkpt lat="43.63055" lon="3.82289">
        <ele>52</ele>
        <time>2020-12-30T09:20:05Z</time>
      </trkpt>
      <trkpt lat="43.63056" lon="3.82282">
        <ele>53</ele>
        <time>2020-12-30T09:20:06Z</time>
      </trkpt>
      <trkpt lat="43.63056" lon="3.82275">
        <ele>53</ele>
        <time>2020-12-30T09:20:07Z</time>
      </trkpt>
      <trkpt lat="43.63057" lon="3.82269">
        <ele>54</ele>
        <time>2020-12-30T09:20:08Z</time>
      </trkpt>
      <trkpt lat="43.63056" lon="3.82262">
        <ele>54</ele>
        <time>2020-12-30T09:20:09Z</time>
      </trkpt>
      <trkpt lat="43.63057" lon="3.82256">
        <ele>55</ele>
        <time>2020-12-30T09:20:10Z</time>
      </trkpt>
      <trkpt lat="43.63057" lon="3.82245">
        <ele>55</ele>
        <time>2020-12-30T09:20:12Z</time>
      </trkpt>
      <trkpt lat="43.63057" lon="3.82234">
        <ele>56</ele>
        <time>2020-12-30T09:20:14Z</time>
      </trkpt>
      <trkpt lat="43.63057" lon="3.82224">
        <ele>56</ele>
        <time>2020-12-30T09:20:16Z</time>
      </trkpt>
      <trkpt lat="43.63054" lon="3.82218">
        <ele>57</ele>
        <time>2020-12-30T09:20:23Z</time>
      </trkpt>
      <trkpt lat="43.63052" lon="3.8221">
        <ele>57</ele>
        <time>2020-12-30T09:20:26Z</time>
      </trkpt>
      <trkpt lat="43.63052" lon="3.82204">
        <ele>57</ele>
        <time>2020-12-30T09:20:27Z</time>
      </trkpt>
      <trkpt lat="43.63052" lon="3.82194">
        <ele>58</ele>
        <time>2020-12-30T09:20:29Z</time>
      </trkpt>
      <trkpt lat="43.63052" lon="3.82182">
        <ele>58</ele>
        <time>2020-12-30T09:20:31Z</time>
      </trkpt>
      <trkpt lat="43.63053" lon="3.82175">
        <ele>58</ele>
        <time>2020-12-30T09:20:32Z</time>
      </trkpt>
      <trkpt lat="43.63053" lon="3.82167">
        <ele>58</ele>
        <time>2020-12-30T09:20:33Z</time>
      </trkpt>
      <trkpt lat="43.63054" lon="3.82159">
        <ele>57</ele>
        <time>2020-12-30T09:20:34Z</time>
      </trkpt>
      <trkpt lat="43.63054" lon="3.82146">
        <ele>57</ele>
        <time>2020-12-30T09:20:36Z</time>
      </trkpt>
      <trkpt lat="43.63054" lon="3.82138">
        <ele>57</ele>
        <time>2020-12-30T09:20:37Z</time>
      </trkpt>
      <trkpt lat="43.63054" lon="3.82128">
        <ele>57</ele>
        <time>2020-12-30T09:20:39Z</time>
      </trkpt>
      <trkpt lat="43.63055" lon="3.82117">
        <ele>57</ele>
        <time>2020-12-30T09:20:41Z</time>
      </trkpt>
      <trkpt lat="43.63055" lon="3.8211">
        <ele>57</ele>
        <time>2020-12-30T09:20:42Z</time>
      </trkpt>
      <trkpt lat="43.63055" lon="3.82103">
        <ele>57</ele>
        <time>2020-12-30T09:20:43Z</time>
      </trkpt>
      <trkpt lat="43.63055" lon="3.82097">
        <ele>57</ele>
        <time>2020-12-30T09:20:44Z</time>
      </trkpt>
      <trkpt lat="43.63056" lon="3.82087">
        <ele>57</ele>
        <time>2020-12-30T09:20:46Z</time>
      </trkpt>
      <trkpt lat="43.63056" lon="3.8208">
        <ele>57</ele>
        <time>2020-12-30T09:20:47Z</time>
      </trkpt>
      <trkpt lat="43.63057" lon="3.82073">
        <ele>57</ele>
        <time>2020-12-30T09:20:48Z</time>
      </trkpt>
      <trkpt lat="43.63057" lon="3.82065">
        <ele>57</ele>
        <time>2020-12-30T09:20:49Z</time>
      </trkpt>
      <trkpt lat="43.63056" lon="3.82058">
        <ele>57</ele>
        <time>2020-12-30T09:20:50Z</time>
      </trkpt>
      <trkpt lat="43.63056" lon="3.8205">
        <ele>57</ele>
        <time>2020-12-30T09:20:51Z</time>
      </trkpt>
      <trkpt lat="43.63056" lon="3.82038">
        <ele>57</ele>
        <time>2020-12-30T09:20:53Z</time>
      </trkpt>
      <trkpt lat="43.63057" lon="3.82031">
        <ele>57</ele>
        <time>2020-12-30T09:20:54Z</time>
      </trkpt>
      <trkpt lat="43.63058" lon="3.82024">
        <ele>57</ele>
        <time>2020-12-30T09:20:55Z</time>
      </trkpt>
      <trkpt lat="43.63062" lon="3.82018">
        <ele>57</ele>
        <time>2020-12-30T09:20:57Z</time>
      </trkpt>
      <trkpt lat="43.63071" lon="3.82018">
        <ele>58</ele>
        <time>2020-12-30T09:20:59Z</time>
      </trkpt>
      <trkpt lat="43.63076" lon="3.82013">
        <ele>58</ele>
        <time>2020-12-30T09:21:01Z</time>
      </trkpt>
      <trkpt lat="43.63078" lon="3.82005">
        <ele>57</ele>
        <time>2020-12-30T09:21:03Z</time>
      </trkpt>
      <trkpt lat="43.63077" lon="3.81996">
        <ele>57</ele>
        <time>2020-12-30T09:21:05Z</time>
      </trkpt>
      <trkpt lat="43.63073" lon="3.81977">
        <ele>56</ele>
        <time>2020-12-30T09:21:06Z</time>
      </trkpt>
      <trkpt lat="43.63074" lon="3.8197">
        <ele>55</ele>
        <time>2020-12-30T09:21:07Z</time>
      </trkpt>
      <trkpt lat="43.63073" lon="3.81963">
        <ele>54</ele>
        <time>2020-12-30T09:21:08Z</time>
      </trkpt>
      <trkpt lat="43.63072" lon="3.81957">
        <ele>53</ele>
        <time>2020-12-30T09:21:09Z</time>
      </trkpt>
      <trkpt lat="43.63071" lon="3.8195">
        <ele>52</ele>
        <time>2020-12-30T09:21:10Z</time>
      </trkpt>
      <trkpt lat="43.63071" lon="3.81942">
        <ele>52</ele>
        <time>2020-12-30T09:21:11Z</time>
      </trkpt>
      <trkpt lat="43.63072" lon="3.81935">
        <ele>52</ele>
        <time>2020-12-30T09:21:12Z</time>
      </trkpt>
      <trkpt lat="43.63071" lon="3.81928">
        <ele>52</ele>
        <time>2020-12-30T09:21:13Z</time>
      </trkpt>
      <trkpt lat="43.63069" lon="3.81921">
        <ele>52</ele>
        <time>2020-12-30T09:21:14Z</time>
      </trkpt>
      <trkpt lat="43.63068" lon="3.81911">
        <ele>52</ele>
        <time>2020-12-30T09:21:16Z</time>
      </trkpt>
      <trkpt lat="43.63067" lon="3.81905">
        <ele>52</ele>
        <time>2020-12-30T09:21:17Z</time>
      </trkpt>
      <trkpt lat="43.63064" lon="3.81894">
        <ele>52</ele>
        <time>2020-12-30T09:21:19Z</time>
      </trkpt>
      <trkpt lat="43.6306" lon="3.81883">
        <ele>52</ele>
        <time>2020-12-30T09:21:21Z</time>
      </trkpt>
      <trkpt lat="43.63057" lon="3.81877">
        <ele>52</ele>
        <time>2020-12-30T09:21:22Z</time>
      </trkpt>
      <trkpt lat="43.63053" lon="3.81873">
        <ele>52</ele>
        <time>2020-12-30T09:21:23Z</time>
      </trkpt>
      <trkpt lat="43.63047" lon="3.81864">
        <ele>52</ele>
        <time>2020-12-30T09:21:25Z</time>
      </trkpt>
      <trkpt lat="43.63044" lon="3.81859">
        <ele>52</ele>
        <time>2020-12-30T09:21:26Z</time>
      </trkpt>
      <trkpt lat="43.63039" lon="3.81854">
        <ele>52</ele>
        <time>2020-12-30T09:21:27Z</time>
      </trkpt>
      <trkpt lat="43.63036" lon="3.81849">
        <ele>53</ele>
        <time>2020-12-30T09:21:28Z</time>
      </trkpt>
      <trkpt lat="43.63031" lon="3.81845">
        <ele>53</ele>
        <time>2020-12-30T09:21:29Z</time>
      </trkpt>
      <trkpt lat="43.63026" lon="3.81842">
        <ele>54</ele>
        <time>2020-12-30T09:21:30Z</time>
      </trkpt>
      <trkpt lat="43.63022" lon="3.81839">
        <ele>54</ele>
        <time>2020-12-30T09:21:31Z</time>
      </trkpt>
      <trkpt lat="43.63017" lon="3.81835">
        <ele>54</ele>
        <time>2020-12-30T09:21:32Z</time>
      </trkpt>
      <trkpt lat="43.63014" lon="3.8183">
        <ele>54</ele>
        <time>2020-12-30T09:21:33Z</time>
      </trkpt>
      <trkpt lat="43.6301" lon="3.81827">
        <ele>54</ele>
        <time>2020-12-30T09:21:34Z</time>
      </trkpt>
      <trkpt lat="43.63005" lon="3.81822">
        <ele>54</ele>
        <time>2020-12-30T09:21:35Z</time>
      </trkpt>
      <trkpt lat="43.63001" lon="3.81819">
        <ele>55</ele>
        <time>2020-12-30T09:21:36Z</time>
      </trkpt>
      <trkpt lat="43.62995" lon="3.81814">
        <ele>55</ele>
        <time>2020-12-30T09:21:38Z</time>
      </trkpt>
      <trkpt lat="43.62992" lon="3.81808">
        <ele>55</ele>
        <time>2020-12-30T09:21:42Z</time>
      </trkpt>
      <trkpt lat="43.62986" lon="3.81801">
        <ele>55</ele>
        <time>2020-12-30T09:21:45Z</time>
      </trkpt>
      <trkpt lat="43.62979" lon="3.81796">
        <ele>55</ele>
        <time>2020-12-30T09:21:47Z</time>
      </trkpt>
      <trkpt lat="43.62976" lon="3.81792">
        <ele>55</ele>
        <time>2020-12-30T09:21:48Z</time>
      </trkpt>
      <trkpt lat="43.62969" lon="3.81785">
        <ele>55</ele>
        <time>2020-12-30T09:21:50Z</time>
      </trkpt>
      <trkpt lat="43.62965" lon="3.81781">
        <ele>54</ele>
        <time>2020-12-30T09:21:51Z</time>
      </trkpt>
      <trkpt lat="43.62962" lon="3.81776">
        <ele>54</ele>
        <time>2020-12-30T09:21:52Z</time>
      </trkpt>
      <trkpt lat="43.62958" lon="3.81771">
        <ele>54</ele>
        <time>2020-12-30T09:21:53Z</time>
      </trkpt>
      <trkpt lat="43.62954" lon="3.81766">
        <ele>53</ele>
        <time>2020-12-30T09:21:54Z</time>
      </trkpt>
      <trkpt lat="43.62949" lon="3.81762">
        <ele>53</ele>
        <time>2020-12-30T09:21:55Z</time>
      </trkpt>
      <trkpt lat="43.62945" lon="3.8176">
        <ele>53</ele>
        <time>2020-12-30T09:21:56Z</time>
      </trkpt>
      <trkpt lat="43.62941" lon="3.81756">
        <ele>53</ele>
        <time>2020-12-30T09:21:57Z</time>
      </trkpt>
      <trkpt lat="43.62936" lon="3.81752">
        <ele>53</ele>
        <time>2020-12-30T09:21:58Z</time>
      </trkpt>
      <trkpt lat="43.62931" lon="3.81749">
        <ele>53</ele>
        <time>2020-12-30T09:21:59Z</time>
      </trkpt>
      <trkpt lat="43.62926" lon="3.81745">
        <ele>52</ele>
        <time>2020-12-30T09:22:00Z</time>
      </trkpt>
      <trkpt lat="43.62921" lon="3.81743">
        <ele>52</ele>
        <time>2020-12-30T09:22:01Z</time>
      </trkpt>
      <trkpt lat="43.62916" lon="3.81743">
        <ele>52</ele>
        <time>2020-12-30T09:22:02Z</time>
      </trkpt>
      <trkpt lat="43.62911" lon="3.81738">
        <ele>52</ele>
        <time>2020-12-30T09:22:04Z</time>
      </trkpt>
      <trkpt lat="43.6291" lon="3.81728">
        <ele>51</ele>
        <time>2020-12-30T09:22:06Z</time>
      </trkpt>
      <trkpt lat="43.6291" lon="3.81721">
        <ele>51</ele>
        <time>2020-12-30T09:22:07Z</time>
      </trkpt>
      <trkpt lat="43.62909" lon="3.81714">
        <ele>50</ele>
        <time>2020-12-30T09:22:08Z</time>
      </trkpt>
      <trkpt lat="43.62909" lon="3.81707">
        <ele>50</ele>
        <time>2020-12-30T09:22:09Z</time>
      </trkpt>
      <trkpt lat="43.62909" lon="3.81697">
        <ele>50</ele>
        <time>2020-12-30T09:22:10Z</time>
      </trkpt>
      <trkpt lat="43.6291" lon="3.81689">
        <ele>50</ele>
        <time>2020-12-30T09:22:11Z</time>
      </trkpt>
      <trkpt lat="43.62909" lon="3.81683">
        <ele>49</ele>
        <time>2020-12-30T09:22:12Z</time>
      </trkpt>
      <trkpt lat="43.62911" lon="3.81673">
        <ele>49</ele>
        <time>2020-12-30T09:22:14Z</time>
      </trkpt>
      <trkpt lat="43.62909" lon="3.81666">
        <ele>49</ele>
        <time>2020-12-30T09:22:15Z</time>
      </trkpt>
      <trkpt lat="43.62908" lon="3.81658">
        <ele>48</ele>
        <time>2020-12-30T09:22:16Z</time>
      </trkpt>
      <trkpt lat="43.62911" lon="3.8165">
        <ele>48</ele>
        <time>2020-12-30T09:22:17Z</time>
      </trkpt>
      <trkpt lat="43.62912" lon="3.81641">
        <ele>48</ele>
        <time>2020-12-30T09:22:18Z</time>
      </trkpt>
      <trkpt lat="43.62914" lon="3.81632">
        <ele>47</ele>
        <time>2020-12-30T09:22:19Z</time>
      </trkpt>
      <trkpt lat="43.62916" lon="3.81626">
        <ele>47</ele>
        <time>2020-12-30T09:22:20Z</time>
      </trkpt>
      <trkpt lat="43.62919" lon="3.8162">
        <ele>47</ele>
        <time>2020-12-30T09:22:21Z</time>
      </trkpt>
      <trkpt lat="43.62925" lon="3.81629">
        <ele>46</ele>
        <time>2020-12-30T09:22:23Z</time>
      </trkpt>
      <trkpt lat="43.6293" lon="3.81628">
        <ele>45</ele>
        <time>2020-12-30T09:22:25Z</time>
      </trkpt>
      <trkpt lat="43.62939" lon="3.8163">
        <ele>44</ele>
        <time>2020-12-30T09:22:27Z</time>
      </trkpt>
      <trkpt lat="43.62944" lon="3.81633">
        <ele>43</ele>
        <time>2020-12-30T09:22:28Z</time>
      </trkpt>
      <trkpt lat="43.62948" lon="3.81637">
        <ele>42</ele>
        <time>2020-12-30T09:22:29Z</time>
      </trkpt>
      <trkpt lat="43.62954" lon="3.81639">
        <ele>42</ele>
        <time>2020-12-30T09:22:30Z</time>
      </trkpt>
      <trkpt lat="43.62959" lon="3.81641">
        <ele>42</ele>
        <time>2020-12-30T09:22:31Z</time>
      </trkpt>
      <trkpt lat="43.62964" lon="3.81645">
        <ele>42</ele>
        <time>2020-12-30T09:22:32Z</time>
      </trkpt>
      <trkpt lat="43.62968" lon="3.81649">
        <ele>42</ele>
        <time>2020-12-30T09:22:33Z</time>
      </trkpt>
      <trkpt lat="43.62973" lon="3.81649">
        <ele>42</ele>
        <time>2020-12-30T09:22:34Z</time>
      </trkpt>
      <trkpt lat="43.62979" lon="3.8165">
        <ele>42</ele>
        <time>2020-12-30T09:22:35Z</time>
      </trkpt>
      <trkpt lat="43.62988" lon="3.81651">
        <ele>41</ele>
        <time>2020-12-30T09:22:37Z</time>
      </trkpt>
      <trkpt lat="43.62997" lon="3.81649">
        <ele>41</ele>
        <time>2020-12-30T09:22:39Z</time>
      </trkpt>
      <trkpt lat="43.63001" lon="3.81648">
        <ele>40</ele>
        <time>2020-12-30T09:22:40Z</time>
      </trkpt>
      <trkpt lat="43.63007" lon="3.81644">
        <ele>39</ele>
        <time>2020-12-30T09:22:41Z</time>
      </trkpt>
      <trkpt lat="43.63012" lon="3.81645">
        <ele>38</ele>
        <time>2020-12-30T09:22:42Z</time>
      </trkpt>
      <trkpt lat="43.63018" lon="3.81642">
        <ele>38</ele>
        <time>2020-12-30T09:22:44Z</time>
      </trkpt>
      <trkpt lat="43.63022" lon="3.81639">
        <ele>38</ele>
        <time>2020-12-30T09:22:45Z</time>
      </trkpt>
      <trkpt lat="43.63026" lon="3.81636">
        <ele>38</ele>
        <time>2020-12-30T09:22:46Z</time>
      </trkpt>
      <trkpt lat="43.63031" lon="3.81637">
        <ele>38</ele>
        <time>2020-12-30T09:22:47Z</time>
      </trkpt>
      <trkpt lat="43.63036" lon="3.81638">
        <ele>38</ele>
        <time>2020-12-30T09:22:48Z</time>
      </trkpt>
      <trkpt lat="43.63044" lon="3.81638">
        <ele>38</ele>
        <time>2020-12-30T09:22:50Z</time>
      </trkpt>
      <trkpt lat="43.6305" lon="3.8164">
        <ele>38</ele>
        <time>2020-12-30T09:22:53Z</time>
      </trkpt>
      <trkpt lat="43.63062" lon="3.81642">
        <ele>39</ele>
        <time>2020-12-30T09:22:55Z</time>
      </trkpt>
      <trkpt lat="43.63071" lon="3.81645">
        <ele>39</ele>
        <time>2020-12-30T09:22:57Z</time>
      </trkpt>
      <trkpt lat="43.63075" lon="3.81647">
        <ele>40</ele>
        <time>2020-12-30T09:22:58Z</time>
      </trkpt>
      <trkpt lat="43.63081" lon="3.81654">
        <ele>40</ele>
        <time>2020-12-30T09:23:00Z</time>
      </trkpt>
      <trkpt lat="43.63084" lon="3.81661">
        <ele>41</ele>
        <time>2020-12-30T09:23:02Z</time>
      </trkpt>
      <trkpt lat="43.63089" lon="3.81661">
        <ele>41</ele>
        <time>2020-12-30T09:23:06Z</time>
      </trkpt>
      <trkpt lat="43.63091" lon="3.81655">
        <ele>41</ele>
        <time>2020-12-30T09:23:09Z</time>
      </trkpt>
      <trkpt lat="43.63093" lon="3.81649">
        <ele>41</ele>
        <time>2020-12-30T09:23:12Z</time>
      </trkpt>
      <trkpt lat="43.63096" lon="3.81644">
        <ele>41</ele>
        <time>2020-12-30T09:23:15Z</time>
      </trkpt>
      <trkpt lat="43.63101" lon="3.81646">
        <ele>42</ele>
        <time>2020-12-30T09:23:18Z</time>
      </trkpt>
      <trkpt lat="43.631" lon="3.81652">
        <ele>42</ele>
        <time>2020-12-30T09:23:23Z</time>
      </trkpt>
      <trkpt lat="43.63095" lon="3.81653">
        <ele>42</ele>
        <time>2020-12-30T09:23:27Z</time>
      </trkpt>
      <trkpt lat="43.6309" lon="3.81657">
        <ele>43</ele>
        <time>2020-12-30T09:23:34Z</time>
      </trkpt>
      <trkpt lat="43.6309" lon="3.81664">
        <ele>43</ele>
        <time>2020-12-30T09:23:38Z</time>
      </trkpt>
      <trkpt lat="43.63092" lon="3.8167">
        <ele>43</ele>
        <time>2020-12-30T09:23:41Z</time>
      </trkpt>
      <trkpt lat="43.63087" lon="3.81672">
        <ele>43</ele>
        <time>2020-12-30T09:23:51Z</time>
      </trkpt>
      <trkpt lat="43.63085" lon="3.81665">
        <ele>43</ele>
        <time>2020-12-30T09:23:59Z</time>
      </trkpt>
      <trkpt lat="43.6311" lon="3.8165">
        <ele>42</ele>
        <time>2020-12-30T09:24:10Z</time>
      </trkpt>
      <trkpt lat="43.63119" lon="3.81648">
        <ele>42</ele>
        <time>2020-12-30T09:24:12Z</time>
      </trkpt>
      <trkpt lat="43.63123" lon="3.81646">
        <ele>41</ele>
        <time>2020-12-30T09:24:13Z</time>
      </trkpt>
      <trkpt lat="43.63129" lon="3.81644">
        <ele>41</ele>
        <time>2020-12-30T09:24:14Z</time>
      </trkpt>
      <trkpt lat="43.63135" lon="3.81642">
        <ele>40</ele>
        <time>2020-12-30T09:24:15Z</time>
      </trkpt>
      <trkpt lat="43.63141" lon="3.8164">
        <ele>40</ele>
        <time>2020-12-30T09:24:16Z</time>
      </trkpt>
      <trkpt lat="43.63147" lon="3.81638">
        <ele>39</ele>
        <time>2020-12-30T09:24:17Z</time>
      </trkpt>
      <trkpt lat="43.63152" lon="3.81637">
        <ele>39</ele>
        <time>2020-12-30T09:24:18Z</time>
      </trkpt>
      <trkpt lat="43.63157" lon="3.81634">
        <ele>39</ele>
        <time>2020-12-30T09:24:19Z</time>
      </trkpt>
      <trkpt lat="43.63163" lon="3.81631">
        <ele>38</ele>
        <time>2020-12-30T09:24:20Z</time>
      </trkpt>
      <trkpt lat="43.63168" lon="3.81628">
        <ele>38</ele>
        <time>2020-12-30T09:24:21Z</time>
      </trkpt>
      <trkpt lat="43.63172" lon="3.81624">
        <ele>38</ele>
        <time>2020-12-30T09:24:22Z</time>
      </trkpt>
      <trkpt lat="43.63177" lon="3.8162">
        <ele>38</ele>
        <time>2020-12-30T09:24:23Z</time>
      </trkpt>
      <trkpt lat="43.63182" lon="3.81616">
        <ele>38</ele>
        <time>2020-12-30T09:24:24Z</time>
      </trkpt>
      <trkpt lat="43.63189" lon="3.81609">
        <ele>39</ele>
        <time>2020-12-30T09:24:26Z</time>
      </trkpt>
      <trkpt lat="43.63196" lon="3.81603">
        <ele>39</ele>
        <time>2020-12-30T09:24:28Z</time>
      </trkpt>
      <trkpt lat="43.63202" lon="3.81597">
        <ele>39</ele>
        <time>2020-12-30T09:24:30Z</time>
      </trkpt>
      <trkpt lat="43.6321" lon="3.81591">
        <ele>39</ele>
        <time>2020-12-30T09:24:32Z</time>
      </trkpt>
      <trkpt lat="43.63215" lon="3.81584">
        <ele>39</ele>
        <time>2020-12-30T09:24:34Z</time>
      </trkpt>
      <trkpt lat="43.63219" lon="3.81577">
        <ele>38</ele>
        <time>2020-12-30T09:24:36Z</time>
      </trkpt>
      <trkpt lat="43.63224" lon="3.8157">
        <ele>37</ele>
        <time>2020-12-30T09:24:38Z</time>
      </trkpt>
      <trkpt lat="43.63231" lon="3.81563">
        <ele>37</ele>
        <time>2020-12-30T09:24:40Z</time>
      </trkpt>
      <trkpt lat="43.63236" lon="3.81556">
        <ele>37</ele>
        <time>2020-12-30T09:24:42Z</time>
      </trkpt>
      <trkpt lat="43.63241" lon="3.81551">
        <ele>37</ele>
        <time>2020-12-30T09:24:44Z</time>
      </trkpt>
      <trkpt lat="43.63245" lon="3.81547">
        <ele>36</ele>
        <time>2020-12-30T09:24:45Z</time>
      </trkpt>
      <trkpt lat="43.63252" lon="3.8154">
        <ele>36</ele>
        <time>2020-12-30T09:24:46Z</time>
      </trkpt>
      <trkpt lat="43.63258" lon="3.81531">
        <ele>36</ele>
        <time>2020-12-30T09:24:48Z</time>
      </trkpt>
      <trkpt lat="43.63263" lon="3.81521">
        <ele>36</ele>
        <time>2020-12-30T09:24:50Z</time>
      </trkpt>
      <trkpt lat="43.63269" lon="3.81514">
        <ele>36</ele>
        <time>2020-12-30T09:24:52Z</time>
      </trkpt>
      <trkpt lat="43.63273" lon="3.8151">
        <ele>36</ele>
        <time>2020-12-30T09:24:54Z</time>
      </trkpt>
      <trkpt lat="43.63277" lon="3.81504">
        <ele>36</ele>
        <time>2020-12-30T09:24:56Z</time>
      </trkpt>
      <trkpt lat="43.63283" lon="3.81502">
        <ele>37</ele>
        <time>2020-12-30T09:24:59Z</time>
      </trkpt>
      <trkpt lat="43.6329" lon="3.81501">
        <ele>37</ele>
        <time>2020-12-30T09:25:01Z</time>
      </trkpt>
      <trkpt lat="43.63296" lon="3.81501">
        <ele>38</ele>
        <time>2020-12-30T09:25:03Z</time>
      </trkpt>
      <trkpt lat="43.63301" lon="3.815">
        <ele>38</ele>
        <time>2020-12-30T09:25:05Z</time>
      </trkpt>
      <trkpt lat="43.63306" lon="3.81499">
        <ele>39</ele>
        <time>2020-12-30T09:25:07Z</time>
      </trkpt>
      <trkpt lat="43.63311" lon="3.81506">
        <ele>39</ele>
        <time>2020-12-30T09:25:10Z</time>
      </trkpt>
      <trkpt lat="43.63313" lon="3.81514">
        <ele>41</ele>
        <time>2020-12-30T09:25:14Z</time>
      </trkpt>
      <trkpt lat="43.63316" lon="3.8152">
        <ele>42</ele>
        <time>2020-12-30T09:25:17Z</time>
      </trkpt>
      <trkpt lat="43.63319" lon="3.81524">
        <ele>43</ele>
        <time>2020-12-30T09:25:19Z</time>
      </trkpt>
      <trkpt lat="43.63326" lon="3.81525">
        <ele>44</ele>
        <time>2020-12-30T09:25:22Z</time>
      </trkpt>
      <trkpt lat="43.63332" lon="3.81525">
        <ele>45</ele>
        <time>2020-12-30T09:25:24Z</time>
      </trkpt>
      <trkpt lat="43.63338" lon="3.81523">
        <ele>45</ele>
        <time>2020-12-30T09:25:26Z</time>
      </trkpt>
      <trkpt lat="43.63344" lon="3.81519">
        <ele>46</ele>
        <time>2020-12-30T09:25:28Z</time>
      </trkpt>
      <trkpt lat="43.63348" lon="3.81515">
        <ele>46</ele>
        <time>2020-12-30T09:25:29Z</time>
      </trkpt>
      <trkpt lat="43.63353" lon="3.81513">
        <ele>46</ele>
        <time>2020-12-30T09:25:30Z</time>
      </trkpt>
      <trkpt lat="43.6336" lon="3.81506">
        <ele>46</ele>
        <time>2020-12-30T09:25:32Z</time>
      </trkpt>
      <trkpt lat="43.63366" lon="3.81502">
        <ele>45</ele>
        <time>2020-12-30T09:25:34Z</time>
      </trkpt>
      <trkpt lat="43.63372" lon="3.81501">
        <ele>45</ele>
        <time>2020-12-30T09:25:36Z</time>
      </trkpt>
      <trkpt lat="43.63378" lon="3.81502">
        <ele>45</ele>
        <time>2020-12-30T09:25:39Z</time>
      </trkpt>
      <trkpt lat="43.63384" lon="3.81504">
        <ele>45</ele>
        <time>2020-12-30T09:25:42Z</time>
      </trkpt>
      <trkpt lat="43.63393" lon="3.81505">
        <ele>45</ele>
        <time>2020-12-30T09:25:44Z</time>
      </trkpt>
      <trkpt lat="43.63399" lon="3.81504">
        <ele>46</ele>
        <time>2020-12-30T09:25:45Z</time>
      </trkpt>
      <trkpt lat="43.63405" lon="3.81501">
        <ele>46</ele>
        <time>2020-12-30T09:25:47Z</time>
      </trkpt>
      <trkpt lat="43.63411" lon="3.81501">
        <ele>47</ele>
        <time>2020-12-30T09:25:49Z</time>
      </trkpt>
      <trkpt lat="43.63417" lon="3.815">
        <ele>47</ele>
        <time>2020-12-30T09:25:51Z</time>
      </trkpt>
      <trkpt lat="43.63422" lon="3.81503">
        <ele>47</ele>
        <time>2020-12-30T09:25:53Z</time>
      </trkpt>
      <trkpt lat="43.63427" lon="3.81504">
        <ele>48</ele>
        <time>2020-12-30T09:25:55Z</time>
      </trkpt>
      <trkpt lat="43.63434" lon="3.81505">
        <ele>48</ele>
        <time>2020-12-30T09:25:58Z</time>
      </trkpt>
      <trkpt lat="43.63444" lon="3.81506">
        <ele>49</ele>
        <time>2020-12-30T09:26:00Z</time>
      </trkpt>
      <trkpt lat="43.63451" lon="3.81506">
        <ele>49</ele>
        <time>2020-12-30T09:26:02Z</time>
      </trkpt>
      <trkpt lat="43.63458" lon="3.81507">
        <ele>49</ele>
        <time>2020-12-30T09:26:04Z</time>
      </trkpt>
      <trkpt lat="43.63465" lon="3.81506">
        <ele>50</ele>
        <time>2020-12-30T09:26:06Z</time>
      </trkpt>
      <trkpt lat="43.63472" lon="3.81506">
        <ele>50</ele>
        <time>2020-12-30T09:26:08Z</time>
      </trkpt>
      <trkpt lat="43.63476" lon="3.81506">
        <ele>51</ele>
        <time>2020-12-30T09:26:10Z</time>
      </trkpt>
      <trkpt lat="43.63483" lon="3.81505">
        <ele>51</ele>
        <time>2020-12-30T09:26:12Z</time>
      </trkpt>
      <trkpt lat="43.63488" lon="3.81505">
        <ele>52</ele>
        <time>2020-12-30T09:26:13Z</time>
      </trkpt>
      <trkpt lat="43.63493" lon="3.81504">
        <ele>54</ele>
        <time>2020-12-30T09:26:15Z</time>
      </trkpt>
      <trkpt lat="43.63498" lon="3.81504">
        <ele>55</ele>
        <time>2020-12-30T09:26:17Z</time>
      </trkpt>
      <trkpt lat="43.63504" lon="3.81503">
        <ele>56</ele>
        <time>2020-12-30T09:26:19Z</time>
      </trkpt>
      <trkpt lat="43.63509" lon="3.81502">
        <ele>57</ele>
        <time>2020-12-30T09:26:21Z</time>
      </trkpt>
      <trkpt lat="43.63514" lon="3.81503">
        <ele>57</ele>
        <time>2020-12-30T09:26:25Z</time>
      </trkpt>
      <trkpt lat="43.63519" lon="3.81503">
        <ele>57</ele>
        <time>2020-12-30T09:26:27Z</time>
      </trkpt>
      <trkpt lat="43.63525" lon="3.81504">
        <ele>58</ele>
        <time>2020-12-30T09:26:29Z</time>
      </trkpt>
      <trkpt lat="43.63531" lon="3.81505">
        <ele>58</ele>
        <time>2020-12-30T09:26:31Z</time>
      </trkpt>
      <trkpt lat="43.63538" lon="3.81507">
        <ele>58</ele>
        <time>2020-12-30T09:26:34Z</time>
      </trkpt>
      <trkpt lat="43.63544" lon="3.81508">
        <ele>59</ele>
        <time>2020-12-30T09:26:36Z</time>
      </trkpt>
      <trkpt lat="43.63549" lon="3.8151">
        <ele>59</ele>
        <time>2020-12-30T09:26:38Z</time>
      </trkpt>
      <trkpt lat="43.63553" lon="3.81512">
        <ele>60</ele>
        <time>2020-12-30T09:26:40Z</time>
      </trkpt>
      <trkpt lat="43.63557" lon="3.81515">
        <ele>60</ele>
        <time>2020-12-30T09:26:42Z</time>
      </trkpt>
      <trkpt lat="43.63563" lon="3.81519">
        <ele>61</ele>
        <time>2020-12-30T09:26:45Z</time>
      </trkpt>
      <trkpt lat="43.63569" lon="3.8152">
        <ele>61</ele>
        <time>2020-12-30T09:26:47Z</time>
      </trkpt>
      <trkpt lat="43.63574" lon="3.81521">
        <ele>61</ele>
        <time>2020-12-30T09:26:49Z</time>
      </trkpt>
      <trkpt lat="43.63579" lon="3.81525">
        <ele>62</ele>
        <time>2020-12-30T09:26:51Z</time>
      </trkpt>
      <trkpt lat="43.63583" lon="3.8153">
        <ele>62</ele>
        <time>2020-12-30T09:26:53Z</time>
      </trkpt>
      <trkpt lat="43.63587" lon="3.81536">
        <ele>62</ele>
        <time>2020-12-30T09:26:55Z</time>
      </trkpt>
      <trkpt lat="43.63591" lon="3.81542">
        <ele>63</ele>
        <time>2020-12-30T09:26:57Z</time>
      </trkpt>
      <trkpt lat="43.63594" lon="3.81548">
        <ele>62</ele>
        <time>2020-12-30T09:26:59Z</time>
      </trkpt>
      <trkpt lat="43.63599" lon="3.81552">
        <ele>62</ele>
        <time>2020-12-30T09:27:01Z</time>
      </trkpt>
      <trkpt lat="43.63603" lon="3.81556">
        <ele>62</ele>
        <time>2020-12-30T09:27:03Z</time>
      </trkpt>
      <trkpt lat="43.63607" lon="3.81558">
        <ele>62</ele>
        <time>2020-12-30T09:27:05Z</time>
      </trkpt>
      <trkpt lat="43.63612" lon="3.81561">
        <ele>62</ele>
        <time>2020-12-30T09:27:07Z</time>
      </trkpt>
      <trkpt lat="43.63618" lon="3.81564">
        <ele>62</ele>
        <time>2020-12-30T09:27:10Z</time>
      </trkpt>
      <trkpt lat="43.63622" lon="3.81566">
        <ele>63</ele>
        <time>2020-12-30T09:27:12Z</time>
      </trkpt>
      <trkpt lat="43.63628" lon="3.81569">
        <ele>63</ele>
        <time>2020-12-30T09:27:15Z</time>
      </trkpt>
      <trkpt lat="43.63633" lon="3.8157">
        <ele>63</ele>
        <time>2020-12-30T09:27:17Z</time>
      </trkpt>
      <trkpt lat="43.63639" lon="3.81574">
        <ele>64</ele>
        <time>2020-12-30T09:27:20Z</time>
      </trkpt>
      <trkpt lat="43.63644" lon="3.8158">
        <ele>65</ele>
        <time>2020-12-30T09:27:23Z</time>
      </trkpt>
      <trkpt lat="43.63647" lon="3.81584">
        <ele>65</ele>
        <time>2020-12-30T09:27:25Z</time>
      </trkpt>
      <trkpt lat="43.63651" lon="3.81589">
        <ele>66</ele>
        <time>2020-12-30T09:27:27Z</time>
      </trkpt>
      <trkpt lat="43.63655" lon="3.81593">
        <ele>67</ele>
        <time>2020-12-30T09:27:29Z</time>
      </trkpt>
      <trkpt lat="43.63659" lon="3.816">
        <ele>67</ele>
        <time>2020-12-30T09:27:32Z</time>
      </trkpt>
      <trkpt lat="43.63661" lon="3.81606">
        <ele>68</ele>
        <time>2020-12-30T09:27:34Z</time>
      </trkpt>
      <trkpt lat="43.63665" lon="3.81614">
        <ele>68</ele>
        <time>2020-12-30T09:27:37Z</time>
      </trkpt>
      <trkpt lat="43.63668" lon="3.8162">
        <ele>69</ele>
        <time>2020-12-30T09:27:40Z</time>
      </trkpt>
      <trkpt lat="43.63672" lon="3.81625">
        <ele>69</ele>
        <time>2020-12-30T09:27:43Z</time>
      </trkpt>
      <trkpt lat="43.63676" lon="3.81628">
        <ele>70</ele>
        <time>2020-12-30T09:27:47Z</time>
      </trkpt>
      <trkpt lat="43.63678" lon="3.81634">
        <ele>71</ele>
        <time>2020-12-30T09:27:51Z</time>
      </trkpt>
      <trkpt lat="43.63683" lon="3.81636">
        <ele>73</ele>
        <time>2020-12-30T09:27:55Z</time>
      </trkpt>
      <trkpt lat="43.63686" lon="3.8164">
        <ele>74</ele>
        <time>2020-12-30T09:27:58Z</time>
      </trkpt>
      <trkpt lat="43.6369" lon="3.81647">
        <ele>76</ele>
        <time>2020-12-30T09:28:03Z</time>
      </trkpt>
      <trkpt lat="43.63694" lon="3.81651">
        <ele>77</ele>
        <time>2020-12-30T09:28:07Z</time>
      </trkpt>
      <trkpt lat="43.63699" lon="3.81653">
        <ele>77</ele>
        <time>2020-12-30T09:28:16Z</time>
      </trkpt>
      <trkpt lat="43.637" lon="3.8166">
        <ele>78</ele>
        <time>2020-12-30T09:28:23Z</time>
      </trkpt>
      <trkpt lat="43.63704" lon="3.81664">
        <ele>80</ele>
        <time>2020-12-30T09:28:38Z</time>
      </trkpt>
      <trkpt lat="43.63708" lon="3.81669">
        <ele>81</ele>
        <time>2020-12-30T09:28:41Z</time>
      </trkpt>
      <trkpt lat="43.63714" lon="3.81671">
        <ele>82</ele>
        <time>2020-12-30T09:28:44Z</time>
      </trkpt>
      <trkpt lat="43.6372" lon="3.81673">
        <ele>83</ele>
        <time>2020-12-30T09:28:46Z</time>
      </trkpt>
      <trkpt lat="43.63726" lon="3.81676">
        <ele>84</ele>
        <time>2020-12-30T09:28:48Z</time>
      </trkpt>
      <trkpt lat="43.63731" lon="3.81677">
        <ele>84</ele>
        <time>2020-12-30T09:28:50Z</time>
      </trkpt>
      <trkpt lat="43.63738" lon="3.81678">
        <ele>84</ele>
        <time>2020-12-30T09:28:52Z</time>
      </trkpt>
      <trkpt lat="43.63744" lon="3.81679">
        <ele>84</ele>
        <time>2020-12-30T09:28:54Z</time>
      </trkpt>
      <trkpt lat="43.63751" lon="3.81682">
        <ele>84</ele>
        <time>2020-12-30T09:28:56Z</time>
      </trkpt>
      <trkpt lat="43.63758" lon="3.81684">
        <ele>84</ele>
        <time>2020-12-30T09:28:58Z</time>
      </trkpt>
      <trkpt lat="43.63766" lon="3.81685">
        <ele>85</ele>
        <time>2020-12-30T09:29:00Z</time>
      </trkpt>
      <trkpt lat="43.63773" lon="3.81687">
        <ele>85</ele>
        <time>2020-12-30T09:29:02Z</time>
      </trkpt>
      <trkpt lat="43.63781" lon="3.81688">
        <ele>85</ele>
        <time>2020-12-30T09:29:04Z</time>
      </trkpt>
      <trkpt lat="43.63788" lon="3.81691">
        <ele>85</ele>
        <time>2020-12-30T09:29:06Z</time>
      </trkpt>
      <trkpt lat="43.63795" lon="3.81693">
        <ele>86</ele>
        <time>2020-12-30T09:29:08Z</time>
      </trkpt>
      <trkpt lat="43.63803" lon="3.81697">
        <ele>86</ele>
        <time>2020-12-30T09:29:10Z</time>
      </trkpt>
      <trkpt lat="43.6381" lon="3.817">
        <ele>86</ele>
        <time>2020-12-30T09:29:12Z</time>
      </trkpt>
      <trkpt lat="43.63817" lon="3.81704">
        <ele>86</ele>
        <time>2020-12-30T09:29:14Z</time>
      </trkpt>
      <trkpt lat="43.63823" lon="3.81709">
        <ele>86</ele>
        <time>2020-12-30T09:29:16Z</time>
      </trkpt>
      <trkpt lat="43.63831" lon="3.81713">
        <ele>87</ele>
        <time>2020-12-30T09:29:18Z</time>
      </trkpt>
      <trkpt lat="43.63839" lon="3.81718">
        <ele>88</ele>
        <time>2020-12-30T09:29:20Z</time>
      </trkpt>
      <trkpt lat="43.63844" lon="3.81722">
        <ele>88</ele>
        <time>2020-12-30T09:29:22Z</time>
      </trkpt>
      <trkpt lat="43.63851" lon="3.81726">
        <ele>88</ele>
        <time>2020-12-30T09:29:25Z</time>
      </trkpt>
      <trkpt lat="43.63859" lon="3.81733">
        <ele>89</ele>
        <time>2020-12-30T09:29:26Z</time>
      </trkpt>
      <trkpt lat="43.63865" lon="3.81738">
        <ele>89</ele>
        <time>2020-12-30T09:29:28Z</time>
      </trkpt>
      <trkpt lat="43.63873" lon="3.8174">
        <ele>89</ele>
        <time>2020-12-30T09:29:30Z</time>
      </trkpt>
      <trkpt lat="43.63879" lon="3.8174">
        <ele>89</ele>
        <time>2020-12-30T09:29:32Z</time>
      </trkpt>
      <trkpt lat="43.63886" lon="3.81741">
        <ele>89</ele>
        <time>2020-12-30T09:29:34Z</time>
      </trkpt>
      <trkpt lat="43.63894" lon="3.81737">
        <ele>88</ele>
        <time>2020-12-30T09:29:36Z</time>
      </trkpt>
      <trkpt lat="43.63897" lon="3.81725">
        <ele>88</ele>
        <time>2020-12-30T09:29:38Z</time>
      </trkpt>
      <trkpt lat="43.63896" lon="3.81712">
        <ele>88</ele>
        <time>2020-12-30T09:29:40Z</time>
      </trkpt>
      <trkpt lat="43.63894" lon="3.81701">
        <ele>87</ele>
        <time>2020-12-30T09:29:42Z</time>
      </trkpt>
      <trkpt lat="43.63891" lon="3.8169">
        <ele>86</ele>
        <time>2020-12-30T09:29:44Z</time>
      </trkpt>
      <trkpt lat="43.63891" lon="3.81679">
        <ele>85</ele>
        <time>2020-12-30T09:29:46Z</time>
      </trkpt>
      <trkpt lat="43.63896" lon="3.81669">
        <ele>85</ele>
        <time>2020-12-30T09:29:48Z</time>
      </trkpt>
      <trkpt lat="43.63899" lon="3.81664">
        <ele>84</ele>
        <time>2020-12-30T09:29:49Z</time>
      </trkpt>
      <trkpt lat="43.63907" lon="3.81657">
        <ele>84</ele>
        <time>2020-12-30T09:29:51Z</time>
      </trkpt>
      <trkpt lat="43.6391" lon="3.81654">
        <ele>84</ele>
        <time>2020-12-30T09:29:52Z</time>
      </trkpt>
      <trkpt lat="43.63915" lon="3.81651">
        <ele>84</ele>
        <time>2020-12-30T09:29:53Z</time>
      </trkpt>
      <trkpt lat="43.63919" lon="3.81649">
        <ele>83</ele>
        <time>2020-12-30T09:29:54Z</time>
      </trkpt>
      <trkpt lat="43.63923" lon="3.81646">
        <ele>83</ele>
        <time>2020-12-30T09:29:55Z</time>
      </trkpt>
      <trkpt lat="43.63928" lon="3.81644">
        <ele>83</ele>
        <time>2020-12-30T09:29:56Z</time>
      </trkpt>
      <trkpt lat="43.63937" lon="3.81639">
        <ele>83</ele>
        <time>2020-12-30T09:29:58Z</time>
      </trkpt>
      <trkpt lat="43.63941" lon="3.81636">
        <ele>82</ele>
        <time>2020-12-30T09:29:59Z</time>
      </trkpt>
      <trkpt lat="43.63948" lon="3.8163">
        <ele>82</ele>
        <time>2020-12-30T09:30:01Z</time>
      </trkpt>
      <trkpt lat="43.63952" lon="3.81626">
        <ele>82</ele>
        <time>2020-12-30T09:30:02Z</time>
      </trkpt>
      <trkpt lat="43.63959" lon="3.8162">
        <ele>82</ele>
        <time>2020-12-30T09:30:04Z</time>
      </trkpt>
      <trkpt lat="43.63966" lon="3.81613">
        <ele>82</ele>
        <time>2020-12-30T09:30:06Z</time>
      </trkpt>
      <trkpt lat="43.63973" lon="3.81606">
        <ele>82</ele>
        <time>2020-12-30T09:30:08Z</time>
      </trkpt>
      <trkpt lat="43.6398" lon="3.816">
        <ele>82</ele>
        <time>2020-12-30T09:30:10Z</time>
      </trkpt>
      <trkpt lat="43.63986" lon="3.81593">
        <ele>82</ele>
        <time>2020-12-30T09:30:12Z</time>
      </trkpt>
      <trkpt lat="43.6399" lon="3.81583">
        <ele>82</ele>
        <time>2020-12-30T09:30:14Z</time>
      </trkpt>
      <trkpt lat="43.63992" lon="3.81573">
        <ele>81</ele>
        <time>2020-12-30T09:30:16Z</time>
      </trkpt>
      <trkpt lat="43.6399" lon="3.81563">
        <ele>81</ele>
        <time>2020-12-30T09:30:18Z</time>
      </trkpt>
      <trkpt lat="43.63985" lon="3.81559">
        <ele>81</ele>
        <time>2020-12-30T09:30:21Z</time>
      </trkpt>
      <trkpt lat="43.63981" lon="3.81557">
        <ele>81</ele>
        <time>2020-12-30T09:30:22Z</time>
      </trkpt>
      <trkpt lat="43.63971" lon="3.81559">
        <ele>81</ele>
        <time>2020-12-30T09:30:23Z</time>
      </trkpt>
      <trkpt lat="43.63966" lon="3.81559">
        <ele>82</ele>
        <time>2020-12-30T09:30:24Z</time>
      </trkpt>
      <trkpt lat="43.6396" lon="3.81559">
        <ele>82</ele>
        <time>2020-12-30T09:30:25Z</time>
      </trkpt>
      <trkpt lat="43.63952" lon="3.81563">
        <ele>83</ele>
        <time>2020-12-30T09:30:26Z</time>
      </trkpt>
      <trkpt lat="43.63943" lon="3.81563">
        <ele>84</ele>
        <time>2020-12-30T09:30:28Z</time>
      </trkpt>
      <trkpt lat="43.63938" lon="3.81563">
        <ele>84</ele>
        <time>2020-12-30T09:30:29Z</time>
      </trkpt>
      <trkpt lat="43.63931" lon="3.81564">
        <ele>85</ele>
        <time>2020-12-30T09:30:31Z</time>
      </trkpt>
      <trkpt lat="43.63923" lon="3.81565">
        <ele>85</ele>
        <time>2020-12-30T09:30:33Z</time>
      </trkpt>
      <trkpt lat="43.63918" lon="3.8157">
        <ele>85</ele>
        <time>2020-12-30T09:30:34Z</time>
      </trkpt>
      <trkpt lat="43.63913" lon="3.81573">
        <ele>86</ele>
        <time>2020-12-30T09:30:36Z</time>
      </trkpt>
      <trkpt lat="43.63904" lon="3.81578">
        <ele>86</ele>
        <time>2020-12-30T09:30:38Z</time>
      </trkpt>
      <trkpt lat="43.63898" lon="3.81582">
        <ele>86</ele>
        <time>2020-12-30T09:30:40Z</time>
      </trkpt>
      <trkpt lat="43.63889" lon="3.81586">
        <ele>86</ele>
        <time>2020-12-30T09:30:42Z</time>
      </trkpt>
      <trkpt lat="43.63885" lon="3.81589">
        <ele>87</ele>
        <time>2020-12-30T09:30:43Z</time>
      </trkpt>
      <trkpt lat="43.6388" lon="3.81592">
        <ele>87</ele>
        <time>2020-12-30T09:30:44Z</time>
      </trkpt>
      <trkpt lat="43.63876" lon="3.81597">
        <ele>87</ele>
        <time>2020-12-30T09:30:45Z</time>
      </trkpt>
      <trkpt lat="43.63871" lon="3.816">
        <ele>87</ele>
        <time>2020-12-30T09:30:46Z</time>
      </trkpt>
      <trkpt lat="43.63867" lon="3.81603">
        <ele>87</ele>
        <time>2020-12-30T09:30:47Z</time>
      </trkpt>
      <trkpt lat="43.63862" lon="3.81607">
        <ele>87</ele>
        <time>2020-12-30T09:30:48Z</time>
      </trkpt>
      <trkpt lat="43.63857" lon="3.81609">
        <ele>88</ele>
        <time>2020-12-30T09:30:49Z</time>
      </trkpt>
      <trkpt lat="43.63849" lon="3.81615">
        <ele>88</ele>
        <time>2020-12-30T09:30:51Z</time>
      </trkpt>
      <trkpt lat="43.63844" lon="3.81617">
        <ele>88</ele>
        <time>2020-12-30T09:30:52Z</time>
      </trkpt>
      <trkpt lat="43.63839" lon="3.81618">
        <ele>87</ele>
        <time>2020-12-30T09:30:53Z</time>
      </trkpt>
      <trkpt lat="43.63833" lon="3.81618">
        <ele>87</ele>
        <time>2020-12-30T09:30:54Z</time>
      </trkpt>
      <trkpt lat="43.63828" lon="3.81617">
        <ele>87</ele>
        <time>2020-12-30T09:30:55Z</time>
      </trkpt>
      <trkpt lat="43.63823" lon="3.81616">
        <ele>86</ele>
        <time>2020-12-30T09:30:56Z</time>
      </trkpt>
      <trkpt lat="43.63818" lon="3.81614">
        <ele>86</ele>
        <time>2020-12-30T09:30:57Z</time>
      </trkpt>
      <trkpt lat="43.63813" lon="3.81612">
        <ele>85</ele>
        <time>2020-12-30T09:30:58Z</time>
      </trkpt>
      <trkpt lat="43.63809" lon="3.81609">
        <ele>85</ele>
        <time>2020-12-30T09:30:59Z</time>
      </trkpt>
      <trkpt lat="43.63804" lon="3.81607">
        <ele>85</ele>
        <time>2020-12-30T09:31:00Z</time>
      </trkpt>
      <trkpt lat="43.638" lon="3.81604">
        <ele>85</ele>
        <time>2020-12-30T09:31:01Z</time>
      </trkpt>
      <trkpt lat="43.63796" lon="3.81602">
        <ele>85</ele>
        <time>2020-12-30T09:31:02Z</time>
      </trkpt>
      <trkpt lat="43.63788" lon="3.81595">
        <ele>85</ele>
        <time>2020-12-30T09:31:04Z</time>
      </trkpt>
      <trkpt lat="43.63783" lon="3.81592">
        <ele>84</ele>
        <time>2020-12-30T09:31:05Z</time>
      </trkpt>
      <trkpt lat="43.63779" lon="3.81589">
        <ele>84</ele>
        <time>2020-12-30T09:31:06Z</time>
      </trkpt>
      <trkpt lat="43.63774" lon="3.81586">
        <ele>85</ele>
        <time>2020-12-30T09:31:07Z</time>
      </trkpt>
      <trkpt lat="43.6377" lon="3.81582">
        <ele>85</ele>
        <time>2020-12-30T09:31:08Z</time>
      </trkpt>
      <trkpt lat="43.63762" lon="3.81578">
        <ele>85</ele>
        <time>2020-12-30T09:31:10Z</time>
      </trkpt>
      <trkpt lat="43.63757" lon="3.81575">
        <ele>85</ele>
        <time>2020-12-30T09:31:11Z</time>
      </trkpt>
      <trkpt lat="43.6375" lon="3.81573">
        <ele>84</ele>
        <time>2020-12-30T09:31:13Z</time>
      </trkpt>
      <trkpt lat="43.63742" lon="3.81571">
        <ele>84</ele>
        <time>2020-12-30T09:31:15Z</time>
      </trkpt>
      <trkpt lat="43.63736" lon="3.81567">
        <ele>84</ele>
        <time>2020-12-30T09:31:17Z</time>
      </trkpt>
      <trkpt lat="43.63731" lon="3.81568">
        <ele>84</ele>
        <time>2020-12-30T09:31:18Z</time>
      </trkpt>
      <trkpt lat="43.63726" lon="3.81567">
        <ele>84</ele>
        <time>2020-12-30T09:31:20Z</time>
      </trkpt>
      <trkpt lat="43.6372" lon="3.81566">
        <ele>84</ele>
        <time>2020-12-30T09:31:22Z</time>
      </trkpt>
      <trkpt lat="43.63714" lon="3.81563">
        <ele>84</ele>
        <time>2020-12-30T09:31:24Z</time>
      </trkpt>
      <trkpt lat="43.63706" lon="3.81563">
        <ele>84</ele>
        <time>2020-12-30T09:31:26Z</time>
      </trkpt>
      <trkpt lat="43.63698" lon="3.81563">
        <ele>84</ele>
        <time>2020-12-30T09:31:29Z</time>
      </trkpt>
      <trkpt lat="43.63693" lon="3.81562">
        <ele>84</ele>
        <time>2020-12-30T09:31:31Z</time>
      </trkpt>
      <trkpt lat="43.63687" lon="3.81558">
        <ele>84</ele>
        <time>2020-12-30T09:31:34Z</time>
      </trkpt>
      <trkpt lat="43.63672" lon="3.81557">
        <ele>84</ele>
        <time>2020-12-30T09:31:35Z</time>
      </trkpt>
      <trkpt lat="43.63665" lon="3.81554">
        <ele>83</ele>
        <time>2020-12-30T09:31:37Z</time>
      </trkpt>
      <trkpt lat="43.63661" lon="3.81551">
        <ele>82</ele>
        <time>2020-12-30T09:31:40Z</time>
      </trkpt>
      <trkpt lat="43.63654" lon="3.81546">
        <ele>82</ele>
        <time>2020-12-30T09:31:42Z</time>
      </trkpt>
      <trkpt lat="43.6365" lon="3.81544">
        <ele>81</ele>
        <time>2020-12-30T09:31:45Z</time>
      </trkpt>
      <trkpt lat="43.63644" lon="3.81545">
        <ele>80</ele>
        <time>2020-12-30T09:31:48Z</time>
      </trkpt>
      <trkpt lat="43.63638" lon="3.81543">
        <ele>80</ele>
        <time>2020-12-30T09:31:51Z</time>
      </trkpt>
      <trkpt lat="43.63632" lon="3.81541">
        <ele>80</ele>
        <time>2020-12-30T09:31:54Z</time>
      </trkpt>
      <trkpt lat="43.63628" lon="3.81537">
        <ele>79</ele>
        <time>2020-12-30T09:31:56Z</time>
      </trkpt>
      <trkpt lat="43.63625" lon="3.81532">
        <ele>79</ele>
        <time>2020-12-30T09:31:58Z</time>
      </trkpt>
      <trkpt lat="43.6362" lon="3.81528">
        <ele>79</ele>
        <time>2020-12-30T09:32:00Z</time>
      </trkpt>
      <trkpt lat="43.63616" lon="3.81522">
        <ele>79</ele>
        <time>2020-12-30T09:32:02Z</time>
      </trkpt>
      <trkpt lat="43.63612" lon="3.81517">
        <ele>79</ele>
        <time>2020-12-30T09:32:04Z</time>
      </trkpt>
      <trkpt lat="43.63608" lon="3.81511">
        <ele>78</ele>
        <time>2020-12-30T09:32:06Z</time>
      </trkpt>
      <trkpt lat="43.63604" lon="3.81506">
        <ele>78</ele>
        <time>2020-12-30T09:32:08Z</time>
      </trkpt>
      <trkpt lat="43.636" lon="3.815">
        <ele>78</ele>
        <time>2020-12-30T09:32:10Z</time>
      </trkpt>
      <trkpt lat="43.63597" lon="3.81493">
        <ele>77</ele>
        <time>2020-12-30T09:32:12Z</time>
      </trkpt>
      <trkpt lat="43.63593" lon="3.81487">
        <ele>77</ele>
        <time>2020-12-30T09:32:14Z</time>
      </trkpt>
      <trkpt lat="43.63589" lon="3.81482">
        <ele>77</ele>
        <time>2020-12-30T09:32:16Z</time>
      </trkpt>
      <trkpt lat="43.63584" lon="3.81478">
        <ele>77</ele>
        <time>2020-12-30T09:32:18Z</time>
      </trkpt>
      <trkpt lat="43.63578" lon="3.81474">
        <ele>78</ele>
        <time>2020-12-30T09:32:20Z</time>
      </trkpt>
      <trkpt lat="43.63572" lon="3.81473">
        <ele>78</ele>
        <time>2020-12-30T09:32:22Z</time>
      </trkpt>
      <trkpt lat="43.63568" lon="3.81471">
        <ele>78</ele>
        <time>2020-12-30T09:32:25Z</time>
      </trkpt>
      <trkpt lat="43.63562" lon="3.81468">
        <ele>78</ele>
        <time>2020-12-30T09:32:27Z</time>
      </trkpt>
      <trkpt lat="43.63556" lon="3.81466">
        <ele>77</ele>
        <time>2020-12-30T09:32:29Z</time>
      </trkpt>
      <trkpt lat="43.6355" lon="3.81464">
        <ele>77</ele>
        <time>2020-12-30T09:32:31Z</time>
      </trkpt>
      <trkpt lat="43.63545" lon="3.81461">
        <ele>77</ele>
        <time>2020-12-30T09:32:34Z</time>
      </trkpt>
      <trkpt lat="43.63538" lon="3.81459">
        <ele>77</ele>
        <time>2020-12-30T09:32:38Z</time>
      </trkpt>
      <trkpt lat="43.63533" lon="3.81458">
        <ele>78</ele>
        <time>2020-12-30T09:32:40Z</time>
      </trkpt>
      <trkpt lat="43.63527" lon="3.81456">
        <ele>78</ele>
        <time>2020-12-30T09:32:42Z</time>
      </trkpt>
      <trkpt lat="43.63521" lon="3.81455">
        <ele>78</ele>
        <time>2020-12-30T09:32:44Z</time>
      </trkpt>
      <trkpt lat="43.63515" lon="3.81452">
        <ele>78</ele>
        <time>2020-12-30T09:32:46Z</time>
      </trkpt>
      <trkpt lat="43.63508" lon="3.81449">
        <ele>78</ele>
        <time>2020-12-30T09:32:48Z</time>
      </trkpt>
      <trkpt lat="43.63502" lon="3.81448">
        <ele>78</ele>
        <time>2020-12-30T09:32:50Z</time>
      </trkpt>
      <trkpt lat="43.63495" lon="3.81448">
        <ele>77</ele>
        <time>2020-12-30T09:32:53Z</time>
      </trkpt>
      <trkpt lat="43.63487" lon="3.81446">
        <ele>76</ele>
        <time>2020-12-30T09:32:54Z</time>
      </trkpt>
      <trkpt lat="43.63481" lon="3.81444">
        <ele>76</ele>
        <time>2020-12-30T09:32:56Z</time>
      </trkpt>
      <trkpt lat="43.63476" lon="3.8144">
        <ele>76</ele>
        <time>2020-12-30T09:32:58Z</time>
      </trkpt>
      <trkpt lat="43.63472" lon="3.81435">
        <ele>76</ele>
        <time>2020-12-30T09:33:00Z</time>
      </trkpt>
      <trkpt lat="43.63468" lon="3.8143">
        <ele>76</ele>
        <time>2020-12-30T09:33:02Z</time>
      </trkpt>
      <trkpt lat="43.63464" lon="3.81424">
        <ele>76</ele>
        <time>2020-12-30T09:33:05Z</time>
      </trkpt>
      <trkpt lat="43.63461" lon="3.81419">
        <ele>76</ele>
        <time>2020-12-30T09:33:08Z</time>
      </trkpt>
      <trkpt lat="43.63459" lon="3.81412">
        <ele>75</ele>
        <time>2020-12-30T09:33:11Z</time>
      </trkpt>
      <trkpt lat="43.63457" lon="3.81405">
        <ele>75</ele>
        <time>2020-12-30T09:33:15Z</time>
      </trkpt>
      <trkpt lat="43.63458" lon="3.81399">
        <ele>75</ele>
        <time>2020-12-30T09:33:20Z</time>
      </trkpt>
      <trkpt lat="43.63454" lon="3.81393">
        <ele>75</ele>
        <time>2020-12-30T09:33:25Z</time>
      </trkpt>
      <trkpt lat="43.63452" lon="3.81387">
        <ele>75</ele>
        <time>2020-12-30T09:33:28Z</time>
      </trkpt>
      <trkpt lat="43.63449" lon="3.81382">
        <ele>75</ele>
        <time>2020-12-30T09:33:31Z</time>
      </trkpt>
      <trkpt lat="43.63443" lon="3.81386">
        <ele>74</ele>
        <time>2020-12-30T09:33:34Z</time>
      </trkpt>
      <trkpt lat="43.63442" lon="3.81393">
        <ele>74</ele>
        <time>2020-12-30T09:33:38Z</time>
      </trkpt>
      <trkpt lat="43.63438" lon="3.814">
        <ele>74</ele>
        <time>2020-12-30T09:33:41Z</time>
      </trkpt>
      <trkpt lat="43.63434" lon="3.81404">
        <ele>73</ele>
        <time>2020-12-30T09:33:43Z</time>
      </trkpt>
      <trkpt lat="43.63428" lon="3.81407">
        <ele>72</ele>
        <time>2020-12-30T09:33:46Z</time>
      </trkpt>
      <trkpt lat="43.63423" lon="3.81405">
        <ele>71</ele>
        <time>2020-12-30T09:33:49Z</time>
      </trkpt>
      <trkpt lat="43.63417" lon="3.81402">
        <ele>69</ele>
        <time>2020-12-30T09:33:52Z</time>
      </trkpt>
      <trkpt lat="43.63412" lon="3.81398">
        <ele>68</ele>
        <time>2020-12-30T09:33:55Z</time>
      </trkpt>
      <trkpt lat="43.63406" lon="3.81395">
        <ele>66</ele>
        <time>2020-12-30T09:33:58Z</time>
      </trkpt>
      <trkpt lat="43.634" lon="3.81396">
        <ele>64</ele>
        <time>2020-12-30T09:34:01Z</time>
      </trkpt>
      <trkpt lat="43.63395" lon="3.81396">
        <ele>63</ele>
        <time>2020-12-30T09:34:03Z</time>
      </trkpt>
      <trkpt lat="43.6339" lon="3.81395">
        <ele>61</ele>
        <time>2020-12-30T09:34:05Z</time>
      </trkpt>
      <trkpt lat="43.63384" lon="3.81397">
        <ele>59</ele>
        <time>2020-12-30T09:34:08Z</time>
      </trkpt>
      <trkpt lat="43.63379" lon="3.81397">
        <ele>58</ele>
        <time>2020-12-30T09:34:10Z</time>
      </trkpt>
      <trkpt lat="43.63375" lon="3.81402">
        <ele>57</ele>
        <time>2020-12-30T09:34:13Z</time>
      </trkpt>
      <trkpt lat="43.63371" lon="3.81406">
        <ele>56</ele>
        <time>2020-12-30T09:34:16Z</time>
      </trkpt>
      <trkpt lat="43.63366" lon="3.8141">
        <ele>55</ele>
        <time>2020-12-30T09:34:18Z</time>
      </trkpt>
      <trkpt lat="43.63363" lon="3.81413">
        <ele>54</ele>
        <time>2020-12-30T09:34:20Z</time>
      </trkpt>
      <trkpt lat="43.63358" lon="3.81413">
        <ele>53</ele>
        <time>2020-12-30T09:34:23Z</time>
      </trkpt>
      <trkpt lat="43.63353" lon="3.81414">
        <ele>52</ele>
        <time>2020-12-30T09:34:25Z</time>
      </trkpt>
      <trkpt lat="43.6335" lon="3.81409">
        <ele>51</ele>
        <time>2020-12-30T09:34:28Z</time>
      </trkpt>
      <trkpt lat="43.63352" lon="3.81402">
        <ele>50</ele>
        <time>2020-12-30T09:34:31Z</time>
      </trkpt>
      <trkpt lat="43.63358" lon="3.81396">
        <ele>49</ele>
        <time>2020-12-30T09:34:33Z</time>
      </trkpt>
      <trkpt lat="43.63366" lon="3.8139">
        <ele>48</ele>
        <time>2020-12-30T09:34:35Z</time>
      </trkpt>
      <trkpt lat="43.63372" lon="3.81386">
        <ele>48</ele>
        <time>2020-12-30T09:34:37Z</time>
      </trkpt>
      <trkpt lat="43.63378" lon="3.81382">
        <ele>47</ele>
        <time>2020-12-30T09:34:39Z</time>
      </trkpt>
      <trkpt lat="43.63384" lon="3.81378">
        <ele>47</ele>
        <time>2020-12-30T09:34:41Z</time>
      </trkpt>
      <trkpt lat="43.6339" lon="3.81373">
        <ele>47</ele>
        <time>2020-12-30T09:34:43Z</time>
      </trkpt>
      <trkpt lat="43.63395" lon="3.81369">
        <ele>46</ele>
        <time>2020-12-30T09:34:45Z</time>
      </trkpt>
      <trkpt lat="43.63403" lon="3.81363">
        <ele>46</ele>
        <time>2020-12-30T09:34:47Z</time>
      </trkpt>
      <trkpt lat="43.63409" lon="3.81359">
        <ele>46</ele>
        <time>2020-12-30T09:34:49Z</time>
      </trkpt>
      <trkpt lat="43.63415" lon="3.81355">
        <ele>46</ele>
        <time>2020-12-30T09:34:51Z</time>
      </trkpt>
      <trkpt lat="43.63421" lon="3.8135">
        <ele>46</ele>
        <time>2020-12-30T09:34:53Z</time>
      </trkpt>
      <trkpt lat="43.63427" lon="3.81344">
        <ele>46</ele>
        <time>2020-12-30T09:34:55Z</time>
      </trkpt>
      <trkpt lat="43.63433" lon="3.81338">
        <ele>46</ele>
        <time>2020-12-30T09:34:57Z</time>
      </trkpt>
      <trkpt lat="43.63438" lon="3.81332">
        <ele>46</ele>
        <time>2020-12-30T09:34:59Z</time>
      </trkpt>
      <trkpt lat="43.63443" lon="3.81325">
        <ele>46</ele>
        <time>2020-12-30T09:35:01Z</time>
      </trkpt>
      <trkpt lat="43.63447" lon="3.81318">
        <ele>46</ele>
        <time>2020-12-30T09:35:03Z</time>
      </trkpt>
      <trkpt lat="43.63451" lon="3.8131">
        <ele>46</ele>
        <time>2020-12-30T09:35:05Z</time>
      </trkpt>
      <trkpt lat="43.63454" lon="3.81302">
        <ele>46</ele>
        <time>2020-12-30T09:35:07Z</time>
      </trkpt>
      <trkpt lat="43.63457" lon="3.81293">
        <ele>47</ele>
        <time>2020-12-30T09:35:09Z</time>
      </trkpt>
      <trkpt lat="43.63459" lon="3.81284">
        <ele>47</ele>
        <time>2020-12-30T09:35:11Z</time>
      </trkpt>
      <trkpt lat="43.63461" lon="3.81275">
        <ele>47</ele>
        <time>2020-12-30T09:35:13Z</time>
      </trkpt>
      <trkpt lat="43.63462" lon="3.81265">
        <ele>48</ele>
        <time>2020-12-30T09:35:15Z</time>
      </trkpt>
      <trkpt lat="43.63463" lon="3.81254">
        <ele>48</ele>
        <time>2020-12-30T09:35:17Z</time>
      </trkpt>
      <trkpt lat="43.63464" lon="3.81243">
        <ele>48</ele>
        <time>2020-12-30T09:35:19Z</time>
      </trkpt>
      <trkpt lat="43.63464" lon="3.81234">
        <ele>49</ele>
        <time>2020-12-30T09:35:21Z</time>
      </trkpt>
      <trkpt lat="43.63465" lon="3.81223">
        <ele>49</ele>
        <time>2020-12-30T09:35:24Z</time>
      </trkpt>
      <trkpt lat="43.63465" lon="3.81207">
        <ele>49</ele>
        <time>2020-12-30T09:35:25Z</time>
      </trkpt>
      <trkpt lat="43.63464" lon="3.81196">
        <ele>49</ele>
        <time>2020-12-30T09:35:27Z</time>
      </trkpt>
      <trkpt lat="43.63464" lon="3.81185">
        <ele>50</ele>
        <time>2020-12-30T09:35:29Z</time>
      </trkpt>
      <trkpt lat="43.63464" lon="3.81174">
        <ele>50</ele>
        <time>2020-12-30T09:35:31Z</time>
      </trkpt>
      <trkpt lat="43.63464" lon="3.81165">
        <ele>50</ele>
        <time>2020-12-30T09:35:33Z</time>
      </trkpt>
      <trkpt lat="43.63463" lon="3.81154">
        <ele>50</ele>
        <time>2020-12-30T09:35:35Z</time>
      </trkpt>
      <trkpt lat="43.63463" lon="3.81144">
        <ele>49</ele>
        <time>2020-12-30T09:35:37Z</time>
      </trkpt>
      <trkpt lat="43.63463" lon="3.81134">
        <ele>49</ele>
        <time>2020-12-30T09:35:39Z</time>
      </trkpt>
      <trkpt lat="43.63462" lon="3.81124">
        <ele>48</ele>
        <time>2020-12-30T09:35:41Z</time>
      </trkpt>
      <trkpt lat="43.63461" lon="3.81115">
        <ele>48</ele>
        <time>2020-12-30T09:35:43Z</time>
      </trkpt>
      <trkpt lat="43.63459" lon="3.81106">
        <ele>47</ele>
        <time>2020-12-30T09:35:45Z</time>
      </trkpt>
      <trkpt lat="43.63458" lon="3.81096">
        <ele>47</ele>
        <time>2020-12-30T09:35:47Z</time>
      </trkpt>
      <trkpt lat="43.63458" lon="3.81087">
        <ele>46</ele>
        <time>2020-12-30T09:35:49Z</time>
      </trkpt>
      <trkpt lat="43.63456" lon="3.81078">
        <ele>45</ele>
        <time>2020-12-30T09:35:51Z</time>
      </trkpt>
      <trkpt lat="43.63454" lon="3.81069">
        <ele>44</ele>
        <time>2020-12-30T09:35:53Z</time>
      </trkpt>
      <trkpt lat="43.63453" lon="3.8106">
        <ele>43</ele>
        <time>2020-12-30T09:35:55Z</time>
      </trkpt>
      <trkpt lat="43.63451" lon="3.81051">
        <ele>43</ele>
        <time>2020-12-30T09:35:57Z</time>
      </trkpt>
      <trkpt lat="43.6345" lon="3.81041">
        <ele>43</ele>
        <time>2020-12-30T09:35:59Z</time>
      </trkpt>
      <trkpt lat="43.63448" lon="3.81031">
        <ele>43</ele>
        <time>2020-12-30T09:36:01Z</time>
      </trkpt>
      <trkpt lat="43.63446" lon="3.81021">
        <ele>43</ele>
        <time>2020-12-30T09:36:03Z</time>
      </trkpt>
      <trkpt lat="43.63446" lon="3.81013">
        <ele>43</ele>
        <time>2020-12-30T09:36:05Z</time>
      </trkpt>
      <trkpt lat="43.63448" lon="3.81006">
        <ele>44</ele>
        <time>2020-12-30T09:36:07Z</time>
      </trkpt>
      <trkpt lat="43.6345" lon="3.81">
        <ele>44</ele>
        <time>2020-12-30T09:36:09Z</time>
      </trkpt>
      <trkpt lat="43.63451" lon="3.80993">
        <ele>44</ele>
        <time>2020-12-30T09:36:11Z</time>
      </trkpt>
      <trkpt lat="43.63451" lon="3.80986">
        <ele>45</ele>
        <time>2020-12-30T09:36:13Z</time>
      </trkpt>
      <trkpt lat="43.63451" lon="3.80979">
        <ele>45</ele>
        <time>2020-12-30T09:36:16Z</time>
      </trkpt>
      <trkpt lat="43.63451" lon="3.80971">
        <ele>45</ele>
        <time>2020-12-30T09:36:18Z</time>
      </trkpt>
      <trkpt lat="43.6345" lon="3.80963">
        <ele>45</ele>
        <time>2020-12-30T09:36:20Z</time>
      </trkpt>
      <trkpt lat="43.6345" lon="3.80954">
        <ele>45</ele>
        <time>2020-12-30T09:36:22Z</time>
      </trkpt>
      <trkpt lat="43.6345" lon="3.80945">
        <ele>44</ele>
        <time>2020-12-30T09:36:24Z</time>
      </trkpt>
      <trkpt lat="43.6345" lon="3.80936">
        <ele>44</ele>
        <time>2020-12-30T09:36:26Z</time>
      </trkpt>
      <trkpt lat="43.63449" lon="3.80927">
        <ele>44</ele>
        <time>2020-12-30T09:36:28Z</time>
      </trkpt>
      <trkpt lat="43.63448" lon="3.80918">
        <ele>44</ele>
        <time>2020-12-30T09:36:30Z</time>
      </trkpt>
      <trkpt lat="43.63449" lon="3.8091">
        <ele>44</ele>
        <time>2020-12-30T09:36:32Z</time>
      </trkpt>
      <trkpt lat="43.6345" lon="3.80902">
        <ele>44</ele>
        <time>2020-12-30T09:36:35Z</time>
      </trkpt>
      <trkpt lat="43.6345" lon="3.80894">
        <ele>44</ele>
        <time>2020-12-30T09:36:38Z</time>
      </trkpt>
      <trkpt lat="43.63451" lon="3.80886">
        <ele>44</ele>
        <time>2020-12-30T09:36:40Z</time>
      </trkpt>
      <trkpt lat="43.63452" lon="3.80876">
        <ele>44</ele>
        <time>2020-12-30T09:36:42Z</time>
      </trkpt>
      <trkpt lat="43.63453" lon="3.80866">
        <ele>44</ele>
        <time>2020-12-30T09:36:44Z</time>
      </trkpt>
      <trkpt lat="43.63454" lon="3.8086">
        <ele>44</ele>
        <time>2020-12-30T09:36:45Z</time>
      </trkpt>
      <trkpt lat="43.63456" lon="3.80838">
        <ele>45</ele>
        <time>2020-12-30T09:36:46Z</time>
      </trkpt>
      <trkpt lat="43.63456" lon="3.80827">
        <ele>46</ele>
        <time>2020-12-30T09:36:48Z</time>
      </trkpt>
      <trkpt lat="43.63456" lon="3.80816">
        <ele>46</ele>
        <time>2020-12-30T09:36:50Z</time>
      </trkpt>
      <trkpt lat="43.63458" lon="3.80805">
        <ele>46</ele>
        <time>2020-12-30T09:36:52Z</time>
      </trkpt>
      <trkpt lat="43.63461" lon="3.80795">
        <ele>47</ele>
        <time>2020-12-30T09:36:54Z</time>
      </trkpt>
      <trkpt lat="43.63466" lon="3.80786">
        <ele>46</ele>
        <time>2020-12-30T09:36:56Z</time>
      </trkpt>
      <trkpt lat="43.63471" lon="3.80781">
        <ele>46</ele>
        <time>2020-12-30T09:36:58Z</time>
      </trkpt>
      <trkpt lat="43.63479" lon="3.80779">
        <ele>46</ele>
        <time>2020-12-30T09:37:00Z</time>
      </trkpt>
      <trkpt lat="43.63487" lon="3.80778">
        <ele>47</ele>
        <time>2020-12-30T09:37:02Z</time>
      </trkpt>
      <trkpt lat="43.63495" lon="3.80778">
        <ele>47</ele>
        <time>2020-12-30T09:37:04Z</time>
      </trkpt>
      <trkpt lat="43.635" lon="3.80777">
        <ele>47</ele>
        <time>2020-12-30T09:37:05Z</time>
      </trkpt>
      <trkpt lat="43.63508" lon="3.80776">
        <ele>47</ele>
        <time>2020-12-30T09:37:07Z</time>
      </trkpt>
      <trkpt lat="43.63513" lon="3.80777">
        <ele>48</ele>
        <time>2020-12-30T09:37:08Z</time>
      </trkpt>
      <trkpt lat="43.63517" lon="3.8078">
        <ele>48</ele>
        <time>2020-12-30T09:37:09Z</time>
      </trkpt>
      <trkpt lat="43.63521" lon="3.80783">
        <ele>48</ele>
        <time>2020-12-30T09:37:10Z</time>
      </trkpt>
      <trkpt lat="43.63529" lon="3.80789">
        <ele>48</ele>
        <time>2020-12-30T09:37:12Z</time>
      </trkpt>
      <trkpt lat="43.63533" lon="3.80792">
        <ele>49</ele>
        <time>2020-12-30T09:37:13Z</time>
      </trkpt>
      <trkpt lat="43.63536" lon="3.80797">
        <ele>49</ele>
        <time>2020-12-30T09:37:14Z</time>
      </trkpt>
      <trkpt lat="43.63539" lon="3.80802">
        <ele>49</ele>
        <time>2020-12-30T09:37:15Z</time>
      </trkpt>
      <trkpt lat="43.63542" lon="3.80806">
        <ele>49</ele>
        <time>2020-12-30T09:37:16Z</time>
      </trkpt>
      <trkpt lat="43.63549" lon="3.80813">
        <ele>49</ele>
        <time>2020-12-30T09:37:18Z</time>
      </trkpt>
      <trkpt lat="43.63556" lon="3.8082">
        <ele>49</ele>
        <time>2020-12-30T09:37:20Z</time>
      </trkpt>
      <trkpt lat="43.63562" lon="3.80826">
        <ele>49</ele>
        <time>2020-12-30T09:37:22Z</time>
      </trkpt>
      <trkpt lat="43.63566" lon="3.80831">
        <ele>50</ele>
        <time>2020-12-30T09:37:24Z</time>
      </trkpt>
      <trkpt lat="43.6357" lon="3.80836">
        <ele>50</ele>
        <time>2020-12-30T09:37:26Z</time>
      </trkpt>
      <trkpt lat="43.63577" lon="3.80845">
        <ele>50</ele>
        <time>2020-12-30T09:37:28Z</time>
      </trkpt>
      <trkpt lat="43.63581" lon="3.8085">
        <ele>50</ele>
        <time>2020-12-30T09:37:29Z</time>
      </trkpt>
      <trkpt lat="43.63585" lon="3.80854">
        <ele>50</ele>
        <time>2020-12-30T09:37:30Z</time>
      </trkpt>
      <trkpt lat="43.6359" lon="3.80857">
        <ele>50</ele>
        <time>2020-12-30T09:37:31Z</time>
      </trkpt>
      <trkpt lat="43.63594" lon="3.80859">
        <ele>50</ele>
        <time>2020-12-30T09:37:32Z</time>
      </trkpt>
      <trkpt lat="43.63599" lon="3.80861">
        <ele>50</ele>
        <time>2020-12-30T09:37:33Z</time>
      </trkpt>
      <trkpt lat="43.63604" lon="3.80862">
        <ele>50</ele>
        <time>2020-12-30T09:37:34Z</time>
      </trkpt>
      <trkpt lat="43.63608" lon="3.80864">
        <ele>50</ele>
        <time>2020-12-30T09:37:35Z</time>
      </trkpt>
      <trkpt lat="43.63616" lon="3.80868">
        <ele>50</ele>
        <time>2020-12-30T09:37:37Z</time>
      </trkpt>
      <trkpt lat="43.63624" lon="3.80871">
        <ele>50</ele>
        <time>2020-12-30T09:37:39Z</time>
      </trkpt>
      <trkpt lat="43.63633" lon="3.80873">
        <ele>50</ele>
        <time>2020-12-30T09:37:41Z</time>
      </trkpt>
      <trkpt lat="43.63638" lon="3.80875">
        <ele>50</ele>
        <time>2020-12-30T09:37:42Z</time>
      </trkpt>
      <trkpt lat="43.63647" lon="3.80874">
        <ele>50</ele>
        <time>2020-12-30T09:37:44Z</time>
      </trkpt>
      <trkpt lat="43.63656" lon="3.8087">
        <ele>50</ele>
        <time>2020-12-30T09:37:46Z</time>
      </trkpt>
      <trkpt lat="43.63662" lon="3.80868">
        <ele>50</ele>
        <time>2020-12-30T09:37:47Z</time>
      </trkpt>
      <trkpt lat="43.63666" lon="3.80865">
        <ele>50</ele>
        <time>2020-12-30T09:37:48Z</time>
      </trkpt>
      <trkpt lat="43.63672" lon="3.80863">
        <ele>50</ele>
        <time>2020-12-30T09:37:49Z</time>
      </trkpt>
      <trkpt lat="43.63676" lon="3.80861">
        <ele>50</ele>
        <time>2020-12-30T09:37:50Z</time>
      </trkpt>
      <trkpt lat="43.63681" lon="3.8086">
        <ele>50</ele>
        <time>2020-12-30T09:37:51Z</time>
      </trkpt>
      <trkpt lat="43.63688" lon="3.8086">
        <ele>50</ele>
        <time>2020-12-30T09:37:52Z</time>
      </trkpt>
      <trkpt lat="43.63694" lon="3.80859">
        <ele>50</ele>
        <time>2020-12-30T09:37:53Z</time>
      </trkpt>
      <trkpt lat="43.63699" lon="3.80859">
        <ele>50</ele>
        <time>2020-12-30T09:37:54Z</time>
      </trkpt>
      <trkpt lat="43.63705" lon="3.80859">
        <ele>49</ele>
        <time>2020-12-30T09:37:55Z</time>
      </trkpt>
      <trkpt lat="43.6371" lon="3.80859">
        <ele>49</ele>
        <time>2020-12-30T09:37:56Z</time>
      </trkpt>
      <trkpt lat="43.63716" lon="3.8086">
        <ele>48</ele>
        <time>2020-12-30T09:37:57Z</time>
      </trkpt>
      <trkpt lat="43.63722" lon="3.8086">
        <ele>48</ele>
        <time>2020-12-30T09:37:58Z</time>
      </trkpt>
      <trkpt lat="43.63727" lon="3.80861">
        <ele>48</ele>
        <time>2020-12-30T09:37:59Z</time>
      </trkpt>
      <trkpt lat="43.63731" lon="3.80861">
        <ele>48</ele>
        <time>2020-12-30T09:38:00Z</time>
      </trkpt>
      <trkpt lat="43.63736" lon="3.8086">
        <ele>49</ele>
        <time>2020-12-30T09:38:01Z</time>
      </trkpt>
      <trkpt lat="43.63746" lon="3.80858">
        <ele>49</ele>
        <time>2020-12-30T09:38:03Z</time>
      </trkpt>
      <trkpt lat="43.63751" lon="3.80857">
        <ele>49</ele>
        <time>2020-12-30T09:38:04Z</time>
      </trkpt>
      <trkpt lat="43.63756" lon="3.80856">
        <ele>49</ele>
        <time>2020-12-30T09:38:05Z</time>
      </trkpt>
      <trkpt lat="43.63761" lon="3.80855">
        <ele>49</ele>
        <time>2020-12-30T09:38:06Z</time>
      </trkpt>
      <trkpt lat="43.63765" lon="3.80853">
        <ele>49</ele>
        <time>2020-12-30T09:38:07Z</time>
      </trkpt>
      <trkpt lat="43.6377" lon="3.80851">
        <ele>48</ele>
        <time>2020-12-30T09:38:08Z</time>
      </trkpt>
      <trkpt lat="43.63775" lon="3.80849">
        <ele>48</ele>
        <time>2020-12-30T09:38:09Z</time>
      </trkpt>
      <trkpt lat="43.6378" lon="3.80847">
        <ele>48</ele>
        <time>2020-12-30T09:38:10Z</time>
      </trkpt>
      <trkpt lat="43.63786" lon="3.80846">
        <ele>47</ele>
        <time>2020-12-30T09:38:11Z</time>
      </trkpt>
      <trkpt lat="43.63791" lon="3.80845">
        <ele>47</ele>
        <time>2020-12-30T09:38:12Z</time>
      </trkpt>
      <trkpt lat="43.63796" lon="3.80843">
        <ele>47</ele>
        <time>2020-12-30T09:38:13Z</time>
      </trkpt>
      <trkpt lat="43.63801" lon="3.80841">
        <ele>47</ele>
        <time>2020-12-30T09:38:14Z</time>
      </trkpt>
      <trkpt lat="43.63806" lon="3.80838">
        <ele>47</ele>
        <time>2020-12-30T09:38:15Z</time>
      </trkpt>
      <trkpt lat="43.6381" lon="3.80837">
        <ele>46</ele>
        <time>2020-12-30T09:38:16Z</time>
      </trkpt>
      <trkpt lat="43.63815" lon="3.80835">
        <ele>46</ele>
        <time>2020-12-30T09:38:17Z</time>
      </trkpt>
      <trkpt lat="43.63823" lon="3.80829">
        <ele>46</ele>
        <time>2020-12-30T09:38:19Z</time>
      </trkpt>
      <trkpt lat="43.6383" lon="3.80823">
        <ele>46</ele>
        <time>2020-12-30T09:38:21Z</time>
      </trkpt>
      <trkpt lat="43.63833" lon="3.80818">
        <ele>46</ele>
        <time>2020-12-30T09:38:23Z</time>
      </trkpt>
      <trkpt lat="43.63833" lon="3.80811">
        <ele>46</ele>
        <time>2020-12-30T09:38:26Z</time>
      </trkpt>
      <trkpt lat="43.63833" lon="3.80804">
        <ele>46</ele>
        <time>2020-12-30T09:38:30Z</time>
      </trkpt>
      <trkpt lat="43.63838" lon="3.80802">
        <ele>46</ele>
        <time>2020-12-30T09:38:35Z</time>
      </trkpt>
      <trkpt lat="43.63841" lon="3.80796">
        <ele>46</ele>
        <time>2020-12-30T09:38:47Z</time>
      </trkpt>
      <trkpt lat="43.63845" lon="3.80793">
        <ele>47</ele>
        <time>2020-12-30T09:38:51Z</time>
      </trkpt>
      <trkpt lat="43.6385" lon="3.80789">
        <ele>47</ele>
        <time>2020-12-30T09:38:55Z</time>
      </trkpt>
      <trkpt lat="43.63851" lon="3.80782">
        <ele>47</ele>
        <time>2020-12-30T09:38:59Z</time>
      </trkpt>
      <trkpt lat="43.63854" lon="3.80775">
        <ele>47</ele>
        <time>2020-12-30T09:39:03Z</time>
      </trkpt>
      <trkpt lat="43.63849" lon="3.80773">
        <ele>47</ele>
        <time>2020-12-30T09:39:22Z</time>
      </trkpt>
      <trkpt lat="43.63844" lon="3.80774">
        <ele>47</ele>
        <time>2020-12-30T09:39:26Z</time>
      </trkpt>
      <trkpt lat="43.63839" lon="3.80774">
        <ele>47</ele>
        <time>2020-12-30T09:39:29Z</time>
      </trkpt>
      <trkpt lat="43.63834" lon="3.80772">
        <ele>48</ele>
        <time>2020-12-30T09:39:33Z</time>
      </trkpt>
      <trkpt lat="43.63828" lon="3.80771">
        <ele>49</ele>
        <time>2020-12-30T09:39:36Z</time>
      </trkpt>
      <trkpt lat="43.63823" lon="3.80769">
        <ele>49</ele>
        <time>2020-12-30T09:39:39Z</time>
      </trkpt>
      <trkpt lat="43.63819" lon="3.80765">
        <ele>50</ele>
        <time>2020-12-30T09:39:42Z</time>
      </trkpt>
      <trkpt lat="43.63814" lon="3.80762">
        <ele>50</ele>
        <time>2020-12-30T09:39:45Z</time>
      </trkpt>
      <trkpt lat="43.63809" lon="3.80759">
        <ele>51</ele>
        <time>2020-12-30T09:39:48Z</time>
      </trkpt>
      <trkpt lat="43.63805" lon="3.80756">
        <ele>51</ele>
        <time>2020-12-30T09:39:51Z</time>
      </trkpt>
      <trkpt lat="43.63801" lon="3.80752">
        <ele>51</ele>
        <time>2020-12-30T09:39:54Z</time>
      </trkpt>
      <trkpt lat="43.63797" lon="3.80748">
        <ele>51</ele>
        <time>2020-12-30T09:39:57Z</time>
      </trkpt>
      <trkpt lat="43.63794" lon="3.80744">
        <ele>52</ele>
        <time>2020-12-30T09:40:00Z</time>
      </trkpt>
      <trkpt lat="43.63791" lon="3.80738">
        <ele>52</ele>
        <time>2020-12-30T09:40:03Z</time>
      </trkpt>
      <trkpt lat="43.6379" lon="3.8073">
        <ele>53</ele>
        <time>2020-12-30T09:40:06Z</time>
      </trkpt>
      <trkpt lat="43.63789" lon="3.80723">
        <ele>53</ele>
        <time>2020-12-30T09:40:09Z</time>
      </trkpt>
      <trkpt lat="43.63788" lon="3.80716">
        <ele>54</ele>
        <time>2020-12-30T09:40:13Z</time>
      </trkpt>
      <trkpt lat="43.63786" lon="3.80709">
        <ele>55</ele>
        <time>2020-12-30T09:40:17Z</time>
      </trkpt>
      <trkpt lat="43.63785" lon="3.80701">
        <ele>56</ele>
        <time>2020-12-30T09:40:22Z</time>
      </trkpt>
      <trkpt lat="43.63782" lon="3.80695">
        <ele>58</ele>
        <time>2020-12-30T09:40:25Z</time>
      </trkpt>
      <trkpt lat="43.6378" lon="3.80688">
        <ele>59</ele>
        <time>2020-12-30T09:40:29Z</time>
      </trkpt>
      <trkpt lat="43.63778" lon="3.80682">
        <ele>60</ele>
        <time>2020-12-30T09:40:32Z</time>
      </trkpt>
      <trkpt lat="43.63774" lon="3.80676">
        <ele>61</ele>
        <time>2020-12-30T09:40:36Z</time>
      </trkpt>
      <trkpt lat="43.6377" lon="3.8067">
        <ele>62</ele>
        <time>2020-12-30T09:40:41Z</time>
      </trkpt>
      <trkpt lat="43.63768" lon="3.80664">
        <ele>63</ele>
        <time>2020-12-30T09:40:44Z</time>
      </trkpt>
      <trkpt lat="43.63766" lon="3.80657">
        <ele>64</ele>
        <time>2020-12-30T09:40:48Z</time>
      </trkpt>
      <trkpt lat="43.63762" lon="3.80651">
        <ele>65</ele>
        <time>2020-12-30T09:40:52Z</time>
      </trkpt>
      <trkpt lat="43.63759" lon="3.80644">
        <ele>66</ele>
        <time>2020-12-30T09:40:56Z</time>
      </trkpt>
      <trkpt lat="43.63756" lon="3.80639">
        <ele>66</ele>
        <time>2020-12-30T09:41:00Z</time>
      </trkpt>
      <trkpt lat="43.63752" lon="3.80633">
        <ele>67</ele>
        <time>2020-12-30T09:41:04Z</time>
      </trkpt>
      <trkpt lat="43.63749" lon="3.80628">
        <ele>68</ele>
        <time>2020-12-30T09:41:08Z</time>
      </trkpt>
      <trkpt lat="43.63746" lon="3.80622">
        <ele>69</ele>
        <time>2020-12-30T09:41:12Z</time>
      </trkpt>
      <trkpt lat="43.63744" lon="3.80615">
        <ele>70</ele>
        <time>2020-12-30T09:41:17Z</time>
      </trkpt>
      <trkpt lat="43.63742" lon="3.8061">
        <ele>71</ele>
        <time>2020-12-30T09:41:20Z</time>
      </trkpt>
      <trkpt lat="43.63739" lon="3.80603">
        <ele>72</ele>
        <time>2020-12-30T09:41:24Z</time>
      </trkpt>
      <trkpt lat="43.63736" lon="3.80597">
        <ele>72</ele>
        <time>2020-12-30T09:41:28Z</time>
      </trkpt>
      <trkpt lat="43.63733" lon="3.8059">
        <ele>73</ele>
        <time>2020-12-30T09:41:32Z</time>
      </trkpt>
      <trkpt lat="43.63731" lon="3.80584">
        <ele>74</ele>
        <time>2020-12-30T09:41:36Z</time>
      </trkpt>
      <trkpt lat="43.63728" lon="3.80578">
        <ele>75</ele>
        <time>2020-12-30T09:41:40Z</time>
      </trkpt>
      <trkpt lat="43.63728" lon="3.80577">
        <ele>76</ele>
        <time>2020-12-30T09:41:56Z</time>
      </trkpt>
      <trkpt lat="43.63729" lon="3.80577">
        <ele>77</ele>
        <time>2020-12-30T09:41:57Z</time>
      </trkpt>
      <trkpt lat="43.63729" lon="3.80578">
        <ele>78</ele>
        <time>2020-12-30T09:42:26Z</time>
      </trkpt>
      <trkpt lat="43.63724" lon="3.80565">
        <ele>80</ele>
        <time>2020-12-30T09:42:51Z</time>
      </trkpt>
      <trkpt lat="43.63722" lon="3.80559">
        <ele>81</ele>
        <time>2020-12-30T09:42:54Z</time>
      </trkpt>
      <trkpt lat="43.63719" lon="3.80552">
        <ele>82</ele>
        <time>2020-12-30T09:42:57Z</time>
      </trkpt>
      <trkpt lat="43.63716" lon="3.80546">
        <ele>83</ele>
        <time>2020-12-30T09:43:00Z</time>
      </trkpt>
      <trkpt lat="43.63713" lon="3.8054">
        <ele>84</ele>
        <time>2020-12-30T09:43:03Z</time>
      </trkpt>
      <trkpt lat="43.6371" lon="3.80534">
        <ele>85</ele>
        <time>2020-12-30T09:43:06Z</time>
      </trkpt>
      <trkpt lat="43.63707" lon="3.80529">
        <ele>86</ele>
        <time>2020-12-30T09:43:10Z</time>
      </trkpt>
      <trkpt lat="43.63704" lon="3.80523">
        <ele>87</ele>
        <time>2020-12-30T09:43:13Z</time>
      </trkpt>
      <trkpt lat="43.63702" lon="3.80516">
        <ele>88</ele>
        <time>2020-12-30T09:43:17Z</time>
      </trkpt>
      <trkpt lat="43.63699" lon="3.80509">
        <ele>89</ele>
        <time>2020-12-30T09:43:22Z</time>
      </trkpt>
      <trkpt lat="43.63696" lon="3.80503">
        <ele>90</ele>
        <time>2020-12-30T09:43:26Z</time>
      </trkpt>
      <trkpt lat="43.63696" lon="3.80497">
        <ele>91</ele>
        <time>2020-12-30T09:43:30Z</time>
      </trkpt>
      <trkpt lat="43.63693" lon="3.80491">
        <ele>93</ele>
        <time>2020-12-30T09:43:36Z</time>
      </trkpt>
      <trkpt lat="43.63691" lon="3.80485">
        <ele>94</ele>
        <time>2020-12-30T09:43:40Z</time>
      </trkpt>
      <trkpt lat="43.63688" lon="3.80479">
        <ele>95</ele>
        <time>2020-12-30T09:43:44Z</time>
      </trkpt>
      <trkpt lat="43.63685" lon="3.80474">
        <ele>96</ele>
        <time>2020-12-30T09:43:48Z</time>
      </trkpt>
      <trkpt lat="43.63683" lon="3.80468">
        <ele>97</ele>
        <time>2020-12-30T09:43:53Z</time>
      </trkpt>
      <trkpt lat="43.6368" lon="3.80462">
        <ele>98</ele>
        <time>2020-12-30T09:43:58Z</time>
      </trkpt>
      <trkpt lat="43.63677" lon="3.80456">
        <ele>99</ele>
        <time>2020-12-30T09:44:03Z</time>
      </trkpt>
      <trkpt lat="43.63674" lon="3.80449">
        <ele>100</ele>
        <time>2020-12-30T09:44:08Z</time>
      </trkpt>
      <trkpt lat="43.63671" lon="3.80444">
        <ele>101</ele>
        <time>2020-12-30T09:44:13Z</time>
      </trkpt>
      <trkpt lat="43.63668" lon="3.80438">
        <ele>103</ele>
        <time>2020-12-30T09:44:18Z</time>
      </trkpt>
      <trkpt lat="43.63664" lon="3.80434">
        <ele>104</ele>
        <time>2020-12-30T09:44:23Z</time>
      </trkpt>
      <trkpt lat="43.63662" lon="3.80427">
        <ele>105</ele>
        <time>2020-12-30T09:44:28Z</time>
      </trkpt>
      <trkpt lat="43.63659" lon="3.80422">
        <ele>106</ele>
        <time>2020-12-30T09:44:32Z</time>
      </trkpt>
      <trkpt lat="43.63655" lon="3.80417">
        <ele>107</ele>
        <time>2020-12-30T09:44:36Z</time>
      </trkpt>
      <trkpt lat="43.63652" lon="3.80412">
        <ele>109</ele>
        <time>2020-12-30T09:44:40Z</time>
      </trkpt>
      <trkpt lat="43.63648" lon="3.80407">
        <ele>109</ele>
        <time>2020-12-30T09:44:44Z</time>
      </trkpt>
      <trkpt lat="43.63645" lon="3.80402">
        <ele>106</ele>
        <time>2020-12-30T09:44:48Z</time>
      </trkpt>
      <trkpt lat="43.63641" lon="3.80396">
        <ele>107</ele>
        <time>2020-12-30T09:44:53Z</time>
      </trkpt>
      <trkpt lat="43.63637" lon="3.80392">
        <ele>107</ele>
        <time>2020-12-30T09:44:56Z</time>
      </trkpt>
      <trkpt lat="43.63633" lon="3.80386">
        <ele>107</ele>
        <time>2020-12-30T09:45:01Z</time>
      </trkpt>
      <trkpt lat="43.6363" lon="3.80381">
        <ele>108</ele>
        <time>2020-12-30T09:45:05Z</time>
      </trkpt>
      <trkpt lat="43.63627" lon="3.80376">
        <ele>112</ele>
        <time>2020-12-30T09:45:09Z</time>
      </trkpt>
      <trkpt lat="43.63623" lon="3.80371">
        <ele>113</ele>
        <time>2020-12-30T09:45:13Z</time>
      </trkpt>
      <trkpt lat="43.63619" lon="3.80366">
        <ele>114</ele>
        <time>2020-12-30T09:45:17Z</time>
      </trkpt>
      <trkpt lat="43.63616" lon="3.80361">
        <ele>115</ele>
        <time>2020-12-30T09:45:21Z</time>
      </trkpt>
      <trkpt lat="43.63612" lon="3.80356">
        <ele>115</ele>
        <time>2020-12-30T09:45:25Z</time>
      </trkpt>
      <trkpt lat="43.63608" lon="3.80351">
        <ele>116</ele>
        <time>2020-12-30T09:45:29Z</time>
      </trkpt>
      <trkpt lat="43.63604" lon="3.80345">
        <ele>116</ele>
        <time>2020-12-30T09:45:33Z</time>
      </trkpt>
      <trkpt lat="43.636" lon="3.80342">
        <ele>117</ele>
        <time>2020-12-30T09:45:36Z</time>
      </trkpt>
      <trkpt lat="43.63597" lon="3.80335">
        <ele>117</ele>
        <time>2020-12-30T09:45:41Z</time>
      </trkpt>
      <trkpt lat="43.63595" lon="3.80328">
        <ele>118</ele>
        <time>2020-12-30T09:45:45Z</time>
      </trkpt>
      <trkpt lat="43.63597" lon="3.80319">
        <ele>118</ele>
        <time>2020-12-30T09:45:48Z</time>
      </trkpt>
      <trkpt lat="43.63598" lon="3.80312">
        <ele>118</ele>
        <time>2020-12-30T09:45:51Z</time>
      </trkpt>
      <trkpt lat="43.63598" lon="3.80305">
        <ele>118</ele>
        <time>2020-12-30T09:45:54Z</time>
      </trkpt>
      <trkpt lat="43.63599" lon="3.80295">
        <ele>117</ele>
        <time>2020-12-30T09:45:57Z</time>
      </trkpt>
      <trkpt lat="43.63599" lon="3.80289">
        <ele>117</ele>
        <time>2020-12-30T09:45:59Z</time>
      </trkpt>
      <trkpt lat="43.636" lon="3.80283">
        <ele>117</ele>
        <time>2020-12-30T09:46:01Z</time>
      </trkpt>
      <trkpt lat="43.63601" lon="3.80275">
        <ele>117</ele>
        <time>2020-12-30T09:46:04Z</time>
      </trkpt>
      <trkpt lat="43.63602" lon="3.80266">
        <ele>117</ele>
        <time>2020-12-30T09:46:06Z</time>
      </trkpt>
      <trkpt lat="43.63602" lon="3.80259">
        <ele>117</ele>
        <time>2020-12-30T09:46:08Z</time>
      </trkpt>
      <trkpt lat="43.63603" lon="3.80251">
        <ele>117</ele>
        <time>2020-12-30T09:46:10Z</time>
      </trkpt>
      <trkpt lat="43.63603" lon="3.80243">
        <ele>117</ele>
        <time>2020-12-30T09:46:13Z</time>
      </trkpt>
      <trkpt lat="43.63601" lon="3.80234">
        <ele>117</ele>
        <time>2020-12-30T09:46:15Z</time>
      </trkpt>
      <trkpt lat="43.63601" lon="3.80222">
        <ele>117</ele>
        <time>2020-12-30T09:46:17Z</time>
      </trkpt>
      <trkpt lat="43.63598" lon="3.80214">
        <ele>116</ele>
        <time>2020-12-30T09:46:19Z</time>
      </trkpt>
      <trkpt lat="43.63593" lon="3.80208">
        <ele>116</ele>
        <time>2020-12-30T09:46:21Z</time>
      </trkpt>
      <trkpt lat="43.63589" lon="3.80201">
        <ele>116</ele>
        <time>2020-12-30T09:46:23Z</time>
      </trkpt>
      <trkpt lat="43.63585" lon="3.80195">
        <ele>116</ele>
        <time>2020-12-30T09:46:25Z</time>
      </trkpt>
      <trkpt lat="43.63579" lon="3.80187">
        <ele>116</ele>
        <time>2020-12-30T09:46:28Z</time>
      </trkpt>
      <trkpt lat="43.63576" lon="3.80181">
        <ele>116</ele>
        <time>2020-12-30T09:46:29Z</time>
      </trkpt>
      <trkpt lat="43.63572" lon="3.80174">
        <ele>117</ele>
        <time>2020-12-30T09:46:31Z</time>
      </trkpt>
      <trkpt lat="43.63569" lon="3.80167">
        <ele>117</ele>
        <time>2020-12-30T09:46:33Z</time>
      </trkpt>
      <trkpt lat="43.63566" lon="3.8016">
        <ele>117</ele>
        <time>2020-12-30T09:46:35Z</time>
      </trkpt>
      <trkpt lat="43.63564" lon="3.80152">
        <ele>117</ele>
        <time>2020-12-30T09:46:38Z</time>
      </trkpt>
      <trkpt lat="43.63561" lon="3.80146">
        <ele>117</ele>
        <time>2020-12-30T09:46:40Z</time>
      </trkpt>
      <trkpt lat="43.63558" lon="3.80137">
        <ele>117</ele>
        <time>2020-12-30T09:46:42Z</time>
      </trkpt>
      <trkpt lat="43.63556" lon="3.80129">
        <ele>116</ele>
        <time>2020-12-30T09:46:43Z</time>
      </trkpt>
      <trkpt lat="43.63553" lon="3.80117">
        <ele>116</ele>
        <time>2020-12-30T09:46:44Z</time>
      </trkpt>
      <trkpt lat="43.63549" lon="3.80111">
        <ele>115</ele>
        <time>2020-12-30T09:46:45Z</time>
      </trkpt>
      <trkpt lat="43.63548" lon="3.80101">
        <ele>114</ele>
        <time>2020-12-30T09:46:47Z</time>
      </trkpt>
      <trkpt lat="43.63549" lon="3.80091">
        <ele>113</ele>
        <time>2020-12-30T09:46:49Z</time>
      </trkpt>
      <trkpt lat="43.63554" lon="3.80083">
        <ele>113</ele>
        <time>2020-12-30T09:46:51Z</time>
      </trkpt>
      <trkpt lat="43.63561" lon="3.80078">
        <ele>112</ele>
        <time>2020-12-30T09:46:53Z</time>
      </trkpt>
      <trkpt lat="43.63564" lon="3.80072">
        <ele>112</ele>
        <time>2020-12-30T09:46:56Z</time>
      </trkpt>
      <trkpt lat="43.63567" lon="3.80064">
        <ele>111</ele>
        <time>2020-12-30T09:46:57Z</time>
      </trkpt>
      <trkpt lat="43.6357" lon="3.80057">
        <ele>111</ele>
        <time>2020-12-30T09:46:58Z</time>
      </trkpt>
      <trkpt lat="43.63574" lon="3.80048">
        <ele>111</ele>
        <time>2020-12-30T09:47:00Z</time>
      </trkpt>
      <trkpt lat="43.63578" lon="3.8004">
        <ele>111</ele>
        <time>2020-12-30T09:47:02Z</time>
      </trkpt>
      <trkpt lat="43.63581" lon="3.80032">
        <ele>111</ele>
        <time>2020-12-30T09:47:04Z</time>
      </trkpt>
      <trkpt lat="43.63584" lon="3.80025">
        <ele>110</ele>
        <time>2020-12-30T09:47:06Z</time>
      </trkpt>
      <trkpt lat="43.63586" lon="3.80018">
        <ele>110</ele>
        <time>2020-12-30T09:47:09Z</time>
      </trkpt>
      <trkpt lat="43.6359" lon="3.80007">
        <ele>110</ele>
        <time>2020-12-30T09:47:11Z</time>
      </trkpt>
      <trkpt lat="43.63593" lon="3.80001">
        <ele>110</ele>
        <time>2020-12-30T09:47:13Z</time>
      </trkpt>
      <trkpt lat="43.63596" lon="3.79994">
        <ele>110</ele>
        <time>2020-12-30T09:47:15Z</time>
      </trkpt>
      <trkpt lat="43.63598" lon="3.79988">
        <ele>110</ele>
        <time>2020-12-30T09:47:17Z</time>
      </trkpt>
      <trkpt lat="43.63601" lon="3.79982">
        <ele>111</ele>
        <time>2020-12-30T09:47:20Z</time>
      </trkpt>
      <trkpt lat="43.63605" lon="3.79978">
        <ele>111</ele>
        <time>2020-12-30T09:47:22Z</time>
      </trkpt>
      <trkpt lat="43.6361" lon="3.79971">
        <ele>111</ele>
        <time>2020-12-30T09:47:25Z</time>
      </trkpt>
      <trkpt lat="43.63613" lon="3.79964">
        <ele>112</ele>
        <time>2020-12-30T09:47:27Z</time>
      </trkpt>
      <trkpt lat="43.63616" lon="3.79958">
        <ele>113</ele>
        <time>2020-12-30T09:47:29Z</time>
      </trkpt>
      <trkpt lat="43.63619" lon="3.79952">
        <ele>113</ele>
        <time>2020-12-30T09:47:31Z</time>
      </trkpt>
      <trkpt lat="43.63622" lon="3.79947">
        <ele>114</ele>
        <time>2020-12-30T09:47:33Z</time>
      </trkpt>
      <trkpt lat="43.63627" lon="3.79944">
        <ele>115</ele>
        <time>2020-12-30T09:47:35Z</time>
      </trkpt>
      <trkpt lat="43.6363" lon="3.79941">
        <ele>115</ele>
        <time>2020-12-30T09:47:37Z</time>
      </trkpt>
      <trkpt lat="43.63634" lon="3.79936">
        <ele>115</ele>
        <time>2020-12-30T09:47:39Z</time>
      </trkpt>
      <trkpt lat="43.63636" lon="3.79931">
        <ele>116</ele>
        <time>2020-12-30T09:47:41Z</time>
      </trkpt>
      <trkpt lat="43.6364" lon="3.79923">
        <ele>116</ele>
        <time>2020-12-30T09:47:44Z</time>
      </trkpt>
      <trkpt lat="43.63644" lon="3.79917">
        <ele>116</ele>
        <time>2020-12-30T09:47:47Z</time>
      </trkpt>
      <trkpt lat="43.63649" lon="3.7991">
        <ele>116</ele>
        <time>2020-12-30T09:47:50Z</time>
      </trkpt>
      <trkpt lat="43.63652" lon="3.79903">
        <ele>116</ele>
        <time>2020-12-30T09:47:53Z</time>
      </trkpt>
      <trkpt lat="43.63657" lon="3.79896">
        <ele>117</ele>
        <time>2020-12-30T09:47:56Z</time>
      </trkpt>
      <trkpt lat="43.6366" lon="3.79889">
        <ele>117</ele>
        <time>2020-12-30T09:47:59Z</time>
      </trkpt>
      <trkpt lat="43.63664" lon="3.79883">
        <ele>117</ele>
        <time>2020-12-30T09:48:02Z</time>
      </trkpt>
      <trkpt lat="43.63669" lon="3.79878">
        <ele>117</ele>
        <time>2020-12-30T09:48:05Z</time>
      </trkpt>
      <trkpt lat="43.63674" lon="3.79873">
        <ele>118</ele>
        <time>2020-12-30T09:48:08Z</time>
      </trkpt>
      <trkpt lat="43.63677" lon="3.79867">
        <ele>118</ele>
        <time>2020-12-30T09:48:11Z</time>
      </trkpt>
      <trkpt lat="43.63679" lon="3.79859">
        <ele>118</ele>
        <time>2020-12-30T09:48:14Z</time>
      </trkpt>
      <trkpt lat="43.63683" lon="3.79851">
        <ele>118</ele>
        <time>2020-12-30T09:48:17Z</time>
      </trkpt>
      <trkpt lat="43.63686" lon="3.79846">
        <ele>118</ele>
        <time>2020-12-30T09:48:19Z</time>
      </trkpt>
      <trkpt lat="43.63689" lon="3.7984">
        <ele>118</ele>
        <time>2020-12-30T09:48:22Z</time>
      </trkpt>
      <trkpt lat="43.63693" lon="3.79836">
        <ele>118</ele>
        <time>2020-12-30T09:48:24Z</time>
      </trkpt>
      <trkpt lat="43.63697" lon="3.79831">
        <ele>118</ele>
        <time>2020-12-30T09:48:26Z</time>
      </trkpt>
      <trkpt lat="43.63701" lon="3.79827">
        <ele>118</ele>
        <time>2020-12-30T09:48:28Z</time>
      </trkpt>
      <trkpt lat="43.63704" lon="3.79822">
        <ele>118</ele>
        <time>2020-12-30T09:48:30Z</time>
      </trkpt>
      <trkpt lat="43.63708" lon="3.79816">
        <ele>119</ele>
        <time>2020-12-30T09:48:33Z</time>
      </trkpt>
      <trkpt lat="43.6371" lon="3.79808">
        <ele>119</ele>
        <time>2020-12-30T09:48:36Z</time>
      </trkpt>
      <trkpt lat="43.63713" lon="3.79801">
        <ele>119</ele>
        <time>2020-12-30T09:48:39Z</time>
      </trkpt>
      <trkpt lat="43.63715" lon="3.79795">
        <ele>119</ele>
        <time>2020-12-30T09:48:42Z</time>
      </trkpt>
      <trkpt lat="43.63718" lon="3.79787">
        <ele>119</ele>
        <time>2020-12-30T09:48:45Z</time>
      </trkpt>
      <trkpt lat="43.6372" lon="3.79782">
        <ele>119</ele>
        <time>2020-12-30T09:48:47Z</time>
      </trkpt>
      <trkpt lat="43.63724" lon="3.79777">
        <ele>119</ele>
        <time>2020-12-30T09:48:49Z</time>
      </trkpt>
      <trkpt lat="43.63728" lon="3.79773">
        <ele>119</ele>
        <time>2020-12-30T09:48:51Z</time>
      </trkpt>
      <trkpt lat="43.63731" lon="3.79768">
        <ele>119</ele>
        <time>2020-12-30T09:48:53Z</time>
      </trkpt>
      <trkpt lat="43.63736" lon="3.79762">
        <ele>120</ele>
        <time>2020-12-30T09:48:56Z</time>
      </trkpt>
      <trkpt lat="43.6374" lon="3.79756">
        <ele>120</ele>
        <time>2020-12-30T09:48:59Z</time>
      </trkpt>
      <trkpt lat="43.63745" lon="3.7975">
        <ele>120</ele>
        <time>2020-12-30T09:49:02Z</time>
      </trkpt>
      <trkpt lat="43.6375" lon="3.79745">
        <ele>120</ele>
        <time>2020-12-30T09:49:05Z</time>
      </trkpt>
      <trkpt lat="43.63755" lon="3.79739">
        <ele>121</ele>
        <time>2020-12-30T09:49:08Z</time>
      </trkpt>
      <trkpt lat="43.63761" lon="3.79736">
        <ele>121</ele>
        <time>2020-12-30T09:49:11Z</time>
      </trkpt>
      <trkpt lat="43.63765" lon="3.79732">
        <ele>121</ele>
        <time>2020-12-30T09:49:13Z</time>
      </trkpt>
      <trkpt lat="43.6377" lon="3.79726">
        <ele>122</ele>
        <time>2020-12-30T09:49:15Z</time>
      </trkpt>
      <trkpt lat="43.63776" lon="3.79725">
        <ele>122</ele>
        <time>2020-12-30T09:49:18Z</time>
      </trkpt>
      <trkpt lat="43.63781" lon="3.79723">
        <ele>123</ele>
        <time>2020-12-30T09:49:20Z</time>
      </trkpt>
      <trkpt lat="43.63786" lon="3.79721">
        <ele>123</ele>
        <time>2020-12-30T09:49:22Z</time>
      </trkpt>
      <trkpt lat="43.63791" lon="3.79718">
        <ele>123</ele>
        <time>2020-12-30T09:49:24Z</time>
      </trkpt>
      <trkpt lat="43.63796" lon="3.79716">
        <ele>123</ele>
        <time>2020-12-30T09:49:26Z</time>
      </trkpt>
      <trkpt lat="43.63804" lon="3.79708">
        <ele>122</ele>
        <time>2020-12-30T09:49:28Z</time>
      </trkpt>
      <trkpt lat="43.63807" lon="3.79702">
        <ele>122</ele>
        <time>2020-12-30T09:49:30Z</time>
      </trkpt>
      <trkpt lat="43.63811" lon="3.79698">
        <ele>122</ele>
        <time>2020-12-30T09:49:32Z</time>
      </trkpt>
      <trkpt lat="43.63817" lon="3.79694">
        <ele>122</ele>
        <time>2020-12-30T09:49:34Z</time>
      </trkpt>
      <trkpt lat="43.63821" lon="3.7969">
        <ele>121</ele>
        <time>2020-12-30T09:49:36Z</time>
      </trkpt>
      <trkpt lat="43.63825" lon="3.79685">
        <ele>121</ele>
        <time>2020-12-30T09:49:38Z</time>
      </trkpt>
      <trkpt lat="43.63831" lon="3.79681">
        <ele>121</ele>
        <time>2020-12-30T09:49:40Z</time>
      </trkpt>
      <trkpt lat="43.63837" lon="3.79675">
        <ele>121</ele>
        <time>2020-12-30T09:49:42Z</time>
      </trkpt>
      <trkpt lat="43.63844" lon="3.7967">
        <ele>120</ele>
        <time>2020-12-30T09:49:44Z</time>
      </trkpt>
      <trkpt lat="43.63849" lon="3.79666">
        <ele>120</ele>
        <time>2020-12-30T09:49:46Z</time>
      </trkpt>
      <trkpt lat="43.63856" lon="3.79669">
        <ele>120</ele>
        <time>2020-12-30T09:49:49Z</time>
      </trkpt>
      <trkpt lat="43.63862" lon="3.79668">
        <ele>120</ele>
        <time>2020-12-30T09:49:52Z</time>
      </trkpt>
      <trkpt lat="43.63866" lon="3.79663">
        <ele>120</ele>
        <time>2020-12-30T09:49:55Z</time>
      </trkpt>
      <trkpt lat="43.63872" lon="3.79659">
        <ele>120</ele>
        <time>2020-12-30T09:49:58Z</time>
      </trkpt>
      <trkpt lat="43.63877" lon="3.79658">
        <ele>120</ele>
        <time>2020-12-30T09:50:00Z</time>
      </trkpt>
      <trkpt lat="43.63883" lon="3.79658">
        <ele>120</ele>
        <time>2020-12-30T09:50:03Z</time>
      </trkpt>
      <trkpt lat="43.63886" lon="3.79665">
        <ele>120</ele>
        <time>2020-12-30T09:50:05Z</time>
      </trkpt>
      <trkpt lat="43.63889" lon="3.79672">
        <ele>119</ele>
        <time>2020-12-30T09:50:07Z</time>
      </trkpt>
      <trkpt lat="43.63893" lon="3.79678">
        <ele>119</ele>
        <time>2020-12-30T09:50:09Z</time>
      </trkpt>
      <trkpt lat="43.63898" lon="3.79682">
        <ele>118</ele>
        <time>2020-12-30T09:50:11Z</time>
      </trkpt>
      <trkpt lat="43.63902" lon="3.79685">
        <ele>117</ele>
        <time>2020-12-30T09:50:13Z</time>
      </trkpt>
      <trkpt lat="43.63908" lon="3.79686">
        <ele>117</ele>
        <time>2020-12-30T09:50:17Z</time>
      </trkpt>
      <trkpt lat="43.63914" lon="3.79689">
        <ele>116</ele>
        <time>2020-12-30T09:50:19Z</time>
      </trkpt>
      <trkpt lat="43.6392" lon="3.7969">
        <ele>116</ele>
        <time>2020-12-30T09:50:21Z</time>
      </trkpt>
      <trkpt lat="43.63925" lon="3.79693">
        <ele>116</ele>
        <time>2020-12-30T09:50:22Z</time>
      </trkpt>
      <trkpt lat="43.6393" lon="3.79699">
        <ele>116</ele>
        <time>2020-12-30T09:50:24Z</time>
      </trkpt>
      <trkpt lat="43.63935" lon="3.79705">
        <ele>115</ele>
        <time>2020-12-30T09:50:26Z</time>
      </trkpt>
      <trkpt lat="43.63939" lon="3.79711">
        <ele>115</ele>
        <time>2020-12-30T09:50:28Z</time>
      </trkpt>
      <trkpt lat="43.63945" lon="3.79715">
        <ele>115</ele>
        <time>2020-12-30T09:50:31Z</time>
      </trkpt>
      <trkpt lat="43.63949" lon="3.7972">
        <ele>115</ele>
        <time>2020-12-30T09:50:33Z</time>
      </trkpt>
      <trkpt lat="43.63953" lon="3.79724">
        <ele>115</ele>
        <time>2020-12-30T09:50:35Z</time>
      </trkpt>
      <trkpt lat="43.63959" lon="3.7973">
        <ele>114</ele>
        <time>2020-12-30T09:50:37Z</time>
      </trkpt>
      <trkpt lat="43.63963" lon="3.79733">
        <ele>114</ele>
        <time>2020-12-30T09:50:39Z</time>
      </trkpt>
      <trkpt lat="43.63967" lon="3.79738">
        <ele>114</ele>
        <time>2020-12-30T09:50:42Z</time>
      </trkpt>
      <trkpt lat="43.63971" lon="3.79742">
        <ele>114</ele>
        <time>2020-12-30T09:50:44Z</time>
      </trkpt>
      <trkpt lat="43.63975" lon="3.79745">
        <ele>114</ele>
        <time>2020-12-30T09:50:46Z</time>
      </trkpt>
      <trkpt lat="43.63981" lon="3.79749">
        <ele>114</ele>
        <time>2020-12-30T09:50:49Z</time>
      </trkpt>
      <trkpt lat="43.63986" lon="3.79753">
        <ele>114</ele>
        <time>2020-12-30T09:50:52Z</time>
      </trkpt>
      <trkpt lat="43.63991" lon="3.79755">
        <ele>114</ele>
        <time>2020-12-30T09:50:54Z</time>
      </trkpt>
      <trkpt lat="43.63996" lon="3.79757">
        <ele>113</ele>
        <time>2020-12-30T09:50:56Z</time>
      </trkpt>
      <trkpt lat="43.64001" lon="3.7976">
        <ele>112</ele>
        <time>2020-12-30T09:50:58Z</time>
      </trkpt>
      <trkpt lat="43.64004" lon="3.79765">
        <ele>112</ele>
        <time>2020-12-30T09:51:00Z</time>
      </trkpt>
      <trkpt lat="43.64007" lon="3.79771">
        <ele>111</ele>
        <time>2020-12-30T09:51:02Z</time>
      </trkpt>
      <trkpt lat="43.6401" lon="3.79777">
        <ele>111</ele>
        <time>2020-12-30T09:51:04Z</time>
      </trkpt>
      <trkpt lat="43.64011" lon="3.79785">
        <ele>110</ele>
        <time>2020-12-30T09:51:06Z</time>
      </trkpt>
      <trkpt lat="43.64011" lon="3.79793">
        <ele>109</ele>
        <time>2020-12-30T09:51:09Z</time>
      </trkpt>
      <trkpt lat="43.64011" lon="3.79799">
        <ele>108</ele>
        <time>2020-12-30T09:51:12Z</time>
      </trkpt>
      <trkpt lat="43.64011" lon="3.79806">
        <ele>107</ele>
        <time>2020-12-30T09:51:15Z</time>
      </trkpt>
      <trkpt lat="43.64014" lon="3.79813">
        <ele>106</ele>
        <time>2020-12-30T09:51:18Z</time>
      </trkpt>
      <trkpt lat="43.64019" lon="3.79815">
        <ele>105</ele>
        <time>2020-12-30T09:51:21Z</time>
      </trkpt>
      <trkpt lat="43.64024" lon="3.79812">
        <ele>104</ele>
        <time>2020-12-30T09:51:23Z</time>
      </trkpt>
      <trkpt lat="43.64029" lon="3.79806">
        <ele>103</ele>
        <time>2020-12-30T09:51:26Z</time>
      </trkpt>
      <trkpt lat="43.64034" lon="3.79803">
        <ele>103</ele>
        <time>2020-12-30T09:51:29Z</time>
      </trkpt>
      <trkpt lat="43.6404" lon="3.79804">
        <ele>102</ele>
        <time>2020-12-30T09:51:33Z</time>
      </trkpt>
      <trkpt lat="43.64046" lon="3.79804">
        <ele>102</ele>
        <time>2020-12-30T09:51:36Z</time>
      </trkpt>
      <trkpt lat="43.64051" lon="3.79804">
        <ele>101</ele>
        <time>2020-12-30T09:51:39Z</time>
      </trkpt>
      <trkpt lat="43.64055" lon="3.79808">
        <ele>100</ele>
        <time>2020-12-30T09:51:43Z</time>
      </trkpt>
      <trkpt lat="43.64059" lon="3.7981">
        <ele>98</ele>
        <time>2020-12-30T09:51:46Z</time>
      </trkpt>
      <trkpt lat="43.64063" lon="3.79814">
        <ele>96</ele>
        <time>2020-12-30T09:51:49Z</time>
      </trkpt>
      <trkpt lat="43.64068" lon="3.79819">
        <ele>95</ele>
        <time>2020-12-30T09:51:52Z</time>
      </trkpt>
      <trkpt lat="43.64074" lon="3.79821">
        <ele>93</ele>
        <time>2020-12-30T09:51:56Z</time>
      </trkpt>
      <trkpt lat="43.64079" lon="3.79816">
        <ele>91</ele>
        <time>2020-12-30T09:51:59Z</time>
      </trkpt>
      <trkpt lat="43.64084" lon="3.79811">
        <ele>89</ele>
        <time>2020-12-30T09:52:02Z</time>
      </trkpt>
      <trkpt lat="43.64088" lon="3.79807">
        <ele>88</ele>
        <time>2020-12-30T09:52:04Z</time>
      </trkpt>
      <trkpt lat="43.64093" lon="3.79803">
        <ele>88</ele>
        <time>2020-12-30T09:52:07Z</time>
      </trkpt>
      <trkpt lat="43.64099" lon="3.798">
        <ele>87</ele>
        <time>2020-12-30T09:52:10Z</time>
      </trkpt>
      <trkpt lat="43.64103" lon="3.79796">
        <ele>86</ele>
        <time>2020-12-30T09:52:13Z</time>
      </trkpt>
      <trkpt lat="43.64108" lon="3.79794">
        <ele>86</ele>
        <time>2020-12-30T09:52:17Z</time>
      </trkpt>
      <trkpt lat="43.64113" lon="3.79794">
        <ele>85</ele>
        <time>2020-12-30T09:52:27Z</time>
      </trkpt>
      <trkpt lat="43.64119" lon="3.79792">
        <ele>84</ele>
        <time>2020-12-30T09:52:38Z</time>
      </trkpt>
      <trkpt lat="43.64124" lon="3.7979">
        <ele>83</ele>
        <time>2020-12-30T09:52:41Z</time>
      </trkpt>
      <trkpt lat="43.64129" lon="3.7979">
        <ele>82</ele>
        <time>2020-12-30T09:52:44Z</time>
      </trkpt>
      <trkpt lat="43.64134" lon="3.79794">
        <ele>81</ele>
        <time>2020-12-30T09:52:47Z</time>
      </trkpt>
      <trkpt lat="43.64139" lon="3.79795">
        <ele>79</ele>
        <time>2020-12-30T09:52:50Z</time>
      </trkpt>
      <trkpt lat="43.64144" lon="3.79788">
        <ele>77</ele>
        <time>2020-12-30T09:52:53Z</time>
      </trkpt>
      <trkpt lat="43.64145" lon="3.79781">
        <ele>76</ele>
        <time>2020-12-30T09:52:56Z</time>
      </trkpt>
      <trkpt lat="43.6415" lon="3.79777">
        <ele>74</ele>
        <time>2020-12-30T09:53:00Z</time>
      </trkpt>
      <trkpt lat="43.64156" lon="3.79776">
        <ele>72</ele>
        <time>2020-12-30T09:53:03Z</time>
      </trkpt>
      <trkpt lat="43.6416" lon="3.79771">
        <ele>70</ele>
        <time>2020-12-30T09:53:16Z</time>
      </trkpt>
      <trkpt lat="43.64164" lon="3.79765">
        <ele>69</ele>
        <time>2020-12-30T09:53:19Z</time>
      </trkpt>
      <trkpt lat="43.64167" lon="3.7976">
        <ele>68</ele>
        <time>2020-12-30T09:53:22Z</time>
      </trkpt>
      <trkpt lat="43.64171" lon="3.79757">
        <ele>67</ele>
        <time>2020-12-30T09:53:25Z</time>
      </trkpt>
      <trkpt lat="43.64176" lon="3.79758">
        <ele>66</ele>
        <time>2020-12-30T09:53:29Z</time>
      </trkpt>
      <trkpt lat="43.64182" lon="3.79759">
        <ele>65</ele>
        <time>2020-12-30T09:53:32Z</time>
      </trkpt>
      <trkpt lat="43.64187" lon="3.7976">
        <ele>64</ele>
        <time>2020-12-30T09:53:34Z</time>
      </trkpt>
      <trkpt lat="43.64193" lon="3.79757">
        <ele>64</ele>
        <time>2020-12-30T09:53:37Z</time>
      </trkpt>
      <trkpt lat="43.64198" lon="3.79754">
        <ele>64</ele>
        <time>2020-12-30T09:53:40Z</time>
      </trkpt>
      <trkpt lat="43.642" lon="3.79748">
        <ele>64</ele>
        <time>2020-12-30T09:53:43Z</time>
      </trkpt>
      <trkpt lat="43.64198" lon="3.79742">
        <ele>64</ele>
        <time>2020-12-30T09:53:46Z</time>
      </trkpt>
      <trkpt lat="43.64201" lon="3.79735">
        <ele>64</ele>
        <time>2020-12-30T09:53:49Z</time>
      </trkpt>
      <trkpt lat="43.64204" lon="3.79728">
        <ele>64</ele>
        <time>2020-12-30T09:53:52Z</time>
      </trkpt>
      <trkpt lat="43.64206" lon="3.79722">
        <ele>64</ele>
        <time>2020-12-30T09:53:55Z</time>
      </trkpt>
      <trkpt lat="43.64206" lon="3.79714">
        <ele>64</ele>
        <time>2020-12-30T09:53:58Z</time>
      </trkpt>
      <trkpt lat="43.64209" lon="3.79707">
        <ele>64</ele>
        <time>2020-12-30T09:54:01Z</time>
      </trkpt>
      <trkpt lat="43.64212" lon="3.79702">
        <ele>65</ele>
        <time>2020-12-30T09:54:04Z</time>
      </trkpt>
      <trkpt lat="43.64215" lon="3.79697">
        <ele>66</ele>
        <time>2020-12-30T09:54:07Z</time>
      </trkpt>
      <trkpt lat="43.64214" lon="3.79689">
        <ele>67</ele>
        <time>2020-12-30T09:54:10Z</time>
      </trkpt>
      <trkpt lat="43.64212" lon="3.79682">
        <ele>68</ele>
        <time>2020-12-30T09:54:13Z</time>
      </trkpt>
      <trkpt lat="43.64212" lon="3.79675">
        <ele>69</ele>
        <time>2020-12-30T09:54:17Z</time>
      </trkpt>
      <trkpt lat="43.64216" lon="3.79668">
        <ele>70</ele>
        <time>2020-12-30T09:54:23Z</time>
      </trkpt>
      <trkpt lat="43.64218" lon="3.79662">
        <ele>70</ele>
        <time>2020-12-30T09:54:26Z</time>
      </trkpt>
      <trkpt lat="43.64217" lon="3.79656">
        <ele>71</ele>
        <time>2020-12-30T09:54:29Z</time>
      </trkpt>
      <trkpt lat="43.64218" lon="3.79649">
        <ele>72</ele>
        <time>2020-12-30T09:54:32Z</time>
      </trkpt>
      <trkpt lat="43.64222" lon="3.79645">
        <ele>72</ele>
        <time>2020-12-30T09:54:40Z</time>
      </trkpt>
      <trkpt lat="43.64225" lon="3.79639">
        <ele>72</ele>
        <time>2020-12-30T09:54:46Z</time>
      </trkpt>
      <trkpt lat="43.6423" lon="3.79639">
        <ele>71</ele>
        <time>2020-12-30T09:54:51Z</time>
      </trkpt>
      <trkpt lat="43.64233" lon="3.79634">
        <ele>71</ele>
        <time>2020-12-30T09:54:57Z</time>
      </trkpt>
      <trkpt lat="43.64237" lon="3.79629">
        <ele>71</ele>
        <time>2020-12-30T09:55:05Z</time>
      </trkpt>
      <trkpt lat="43.64242" lon="3.79627">
        <ele>70</ele>
        <time>2020-12-30T09:55:17Z</time>
      </trkpt>
      <trkpt lat="43.64245" lon="3.7962">
        <ele>70</ele>
        <time>2020-12-30T09:55:22Z</time>
      </trkpt>
      <trkpt lat="43.64247" lon="3.79612">
        <ele>69</ele>
        <time>2020-12-30T09:55:25Z</time>
      </trkpt>
      <trkpt lat="43.64248" lon="3.79606">
        <ele>68</ele>
        <time>2020-12-30T09:55:28Z</time>
      </trkpt>
      <trkpt lat="43.6425" lon="3.796">
        <ele>67</ele>
        <time>2020-12-30T09:55:32Z</time>
      </trkpt>
      <trkpt lat="43.64255" lon="3.79599">
        <ele>66</ele>
        <time>2020-12-30T09:55:39Z</time>
      </trkpt>
      <trkpt lat="43.6426" lon="3.79597">
        <ele>65</ele>
        <time>2020-12-30T09:55:44Z</time>
      </trkpt>
      <trkpt lat="43.64264" lon="3.796">
        <ele>65</ele>
        <time>2020-12-30T09:55:54Z</time>
      </trkpt>
      <trkpt lat="43.6427" lon="3.79601">
        <ele>65</ele>
        <time>2020-12-30T09:55:58Z</time>
      </trkpt>
      <trkpt lat="43.64275" lon="3.79598">
        <ele>65</ele>
        <time>2020-12-30T09:56:01Z</time>
      </trkpt>
      <trkpt lat="43.64278" lon="3.79591">
        <ele>65</ele>
        <time>2020-12-30T09:56:04Z</time>
      </trkpt>
      <trkpt lat="43.64282" lon="3.79588">
        <ele>65</ele>
        <time>2020-12-30T09:56:07Z</time>
      </trkpt>
      <trkpt lat="43.64285" lon="3.79583">
        <ele>65</ele>
        <time>2020-12-30T09:56:12Z</time>
      </trkpt>
      <trkpt lat="43.64289" lon="3.79579">
        <ele>65</ele>
        <time>2020-12-30T09:56:18Z</time>
      </trkpt>
      <trkpt lat="43.6429" lon="3.79573">
        <ele>65</ele>
        <time>2020-12-30T09:56:25Z</time>
      </trkpt>
      <trkpt lat="43.64292" lon="3.79566">
        <ele>65</ele>
        <time>2020-12-30T09:56:32Z</time>
      </trkpt>
      <trkpt lat="43.6429" lon="3.7956">
        <ele>65</ele>
        <time>2020-12-30T09:56:39Z</time>
      </trkpt>
      <trkpt lat="43.64293" lon="3.79554">
        <ele>66</ele>
        <time>2020-12-30T09:56:44Z</time>
      </trkpt>
      <trkpt lat="43.64297" lon="3.79549">
        <ele>66</ele>
        <time>2020-12-30T09:56:49Z</time>
      </trkpt>
      <trkpt lat="43.64301" lon="3.79547">
        <ele>67</ele>
        <time>2020-12-30T09:56:53Z</time>
      </trkpt>
      <trkpt lat="43.64305" lon="3.79543">
        <ele>68</ele>
        <time>2020-12-30T09:57:00Z</time>
      </trkpt>
      <trkpt lat="43.64305" lon="3.79536">
        <ele>69</ele>
        <time>2020-12-30T09:57:04Z</time>
      </trkpt>
      <trkpt lat="43.64301" lon="3.79532">
        <ele>69</ele>
        <time>2020-12-30T09:57:09Z</time>
      </trkpt>
      <trkpt lat="43.64304" lon="3.79527">
        <ele>70</ele>
        <time>2020-12-30T09:57:15Z</time>
      </trkpt>
      <trkpt lat="43.64309" lon="3.79526">
        <ele>71</ele>
        <time>2020-12-30T09:57:21Z</time>
      </trkpt>
      <trkpt lat="43.64314" lon="3.79524">
        <ele>72</ele>
        <time>2020-12-30T09:57:27Z</time>
      </trkpt>
      <trkpt lat="43.64318" lon="3.79519">
        <ele>73</ele>
        <time>2020-12-30T09:57:30Z</time>
      </trkpt>
      <trkpt lat="43.64324" lon="3.79517">
        <ele>73</ele>
        <time>2020-12-30T09:57:37Z</time>
      </trkpt>
      <trkpt lat="43.64328" lon="3.79517">
        <ele>73</ele>
        <time>2020-12-30T09:57:40Z</time>
      </trkpt>
      <trkpt lat="43.64335" lon="3.79519">
        <ele>73</ele>
        <time>2020-12-30T09:57:44Z</time>
      </trkpt>
      <trkpt lat="43.64338" lon="3.79524">
        <ele>72</ele>
        <time>2020-12-30T09:57:47Z</time>
      </trkpt>
      <trkpt lat="43.64343" lon="3.79523">
        <ele>72</ele>
        <time>2020-12-30T09:57:50Z</time>
      </trkpt>
      <trkpt lat="43.64348" lon="3.79525">
        <ele>71</ele>
        <time>2020-12-30T09:57:52Z</time>
      </trkpt>
      <trkpt lat="43.64353" lon="3.79529">
        <ele>71</ele>
        <time>2020-12-30T09:57:55Z</time>
      </trkpt>
      <trkpt lat="43.64355" lon="3.79537">
        <ele>71</ele>
        <time>2020-12-30T09:57:58Z</time>
      </trkpt>
      <trkpt lat="43.64361" lon="3.79539">
        <ele>70</ele>
        <time>2020-12-30T09:58:01Z</time>
      </trkpt>
      <trkpt lat="43.64366" lon="3.7954">
        <ele>70</ele>
        <time>2020-12-30T09:58:03Z</time>
      </trkpt>
      <trkpt lat="43.64372" lon="3.79541">
        <ele>69</ele>
        <time>2020-12-30T09:58:05Z</time>
      </trkpt>
      <trkpt lat="43.64378" lon="3.79542">
        <ele>68</ele>
        <time>2020-12-30T09:58:07Z</time>
      </trkpt>
      <trkpt lat="43.64383" lon="3.7954">
        <ele>67</ele>
        <time>2020-12-30T09:58:09Z</time>
      </trkpt>
      <trkpt lat="43.64387" lon="3.79537">
        <ele>66</ele>
        <time>2020-12-30T09:58:11Z</time>
      </trkpt>
      <trkpt lat="43.64395" lon="3.7953">
        <ele>66</ele>
        <time>2020-12-30T09:58:12Z</time>
      </trkpt>
      <trkpt lat="43.64399" lon="3.79525">
        <ele>65</ele>
        <time>2020-12-30T09:58:14Z</time>
      </trkpt>
      <trkpt lat="43.64404" lon="3.79519">
        <ele>65</ele>
        <time>2020-12-30T09:58:16Z</time>
      </trkpt>
      <trkpt lat="43.64409" lon="3.79516">
        <ele>65</ele>
        <time>2020-12-30T09:58:18Z</time>
      </trkpt>
      <trkpt lat="43.64413" lon="3.79512">
        <ele>65</ele>
        <time>2020-12-30T09:58:20Z</time>
      </trkpt>
      <trkpt lat="43.64417" lon="3.79508">
        <ele>65</ele>
        <time>2020-12-30T09:58:22Z</time>
      </trkpt>
      <trkpt lat="43.64423" lon="3.79503">
        <ele>65</ele>
        <time>2020-12-30T09:58:26Z</time>
      </trkpt>
      <trkpt lat="43.64428" lon="3.79498">
        <ele>65</ele>
        <time>2020-12-30T09:58:28Z</time>
      </trkpt>
      <trkpt lat="43.64432" lon="3.79494">
        <ele>66</ele>
        <time>2020-12-30T09:58:30Z</time>
      </trkpt>
      <trkpt lat="43.64437" lon="3.79489">
        <ele>66</ele>
        <time>2020-12-30T09:58:32Z</time>
      </trkpt>
      <trkpt lat="43.64441" lon="3.79484">
        <ele>66</ele>
        <time>2020-12-30T09:58:34Z</time>
      </trkpt>
      <trkpt lat="43.64445" lon="3.7948">
        <ele>66</ele>
        <time>2020-12-30T09:58:36Z</time>
      </trkpt>
      <trkpt lat="43.64449" lon="3.79474">
        <ele>66</ele>
        <time>2020-12-30T09:58:38Z</time>
      </trkpt>
      <trkpt lat="43.64452" lon="3.79469">
        <ele>65</ele>
        <time>2020-12-30T09:58:40Z</time>
      </trkpt>
      <trkpt lat="43.64456" lon="3.79464">
        <ele>65</ele>
        <time>2020-12-30T09:58:42Z</time>
      </trkpt>
      <trkpt lat="43.64461" lon="3.79459">
        <ele>65</ele>
        <time>2020-12-30T09:58:44Z</time>
      </trkpt>
      <trkpt lat="43.64466" lon="3.79456">
        <ele>65</ele>
        <time>2020-12-30T09:58:46Z</time>
      </trkpt>
      <trkpt lat="43.6447" lon="3.79452">
        <ele>65</ele>
        <time>2020-12-30T09:58:49Z</time>
      </trkpt>
      <trkpt lat="43.64474" lon="3.79447">
        <ele>66</ele>
        <time>2020-12-30T09:58:53Z</time>
      </trkpt>
      <trkpt lat="43.6448" lon="3.79447">
        <ele>65</ele>
        <time>2020-12-30T09:58:56Z</time>
      </trkpt>
      <trkpt lat="43.64492" lon="3.79444">
        <ele>65</ele>
        <time>2020-12-30T09:58:58Z</time>
      </trkpt>
      <trkpt lat="43.645" lon="3.79445">
        <ele>65</ele>
        <time>2020-12-30T09:59:00Z</time>
      </trkpt>
      <trkpt lat="43.64508" lon="3.79442">
        <ele>65</ele>
        <time>2020-12-30T09:59:02Z</time>
      </trkpt>
      <trkpt lat="43.64515" lon="3.79443">
        <ele>65</ele>
        <time>2020-12-30T09:59:04Z</time>
      </trkpt>
      <trkpt lat="43.64522" lon="3.79443">
        <ele>66</ele>
        <time>2020-12-30T09:59:06Z</time>
      </trkpt>
      <trkpt lat="43.64529" lon="3.79442">
        <ele>66</ele>
        <time>2020-12-30T09:59:08Z</time>
      </trkpt>
      <trkpt lat="43.64534" lon="3.7944">
        <ele>66</ele>
        <time>2020-12-30T09:59:10Z</time>
      </trkpt>
      <trkpt lat="43.6454" lon="3.79442">
        <ele>66</ele>
        <time>2020-12-30T09:59:12Z</time>
      </trkpt>
      <trkpt lat="43.64548" lon="3.79445">
        <ele>65</ele>
        <time>2020-12-30T09:59:14Z</time>
      </trkpt>
      <trkpt lat="43.64553" lon="3.79444">
        <ele>64</ele>
        <time>2020-12-30T09:59:15Z</time>
      </trkpt>
      <trkpt lat="43.64559" lon="3.79443">
        <ele>63</ele>
        <time>2020-12-30T09:59:16Z</time>
      </trkpt>
      <trkpt lat="43.64564" lon="3.79442">
        <ele>62</ele>
        <time>2020-12-30T09:59:17Z</time>
      </trkpt>
      <trkpt lat="43.64568" lon="3.7944">
        <ele>62</ele>
        <time>2020-12-30T09:59:18Z</time>
      </trkpt>
      <trkpt lat="43.64573" lon="3.79442">
        <ele>61</ele>
        <time>2020-12-30T09:59:19Z</time>
      </trkpt>
      <trkpt lat="43.64578" lon="3.79444">
        <ele>60</ele>
        <time>2020-12-30T09:59:20Z</time>
      </trkpt>
      <trkpt lat="43.64584" lon="3.79447">
        <ele>59</ele>
        <time>2020-12-30T09:59:22Z</time>
      </trkpt>
      <trkpt lat="43.64589" lon="3.7945">
        <ele>57</ele>
        <time>2020-12-30T09:59:24Z</time>
      </trkpt>
      <trkpt lat="43.64596" lon="3.79446">
        <ele>56</ele>
        <time>2020-12-30T09:59:26Z</time>
      </trkpt>
      <trkpt lat="43.64599" lon="3.79441">
        <ele>55</ele>
        <time>2020-12-30T09:59:28Z</time>
      </trkpt>
      <trkpt lat="43.64603" lon="3.79435">
        <ele>53</ele>
        <time>2020-12-30T09:59:31Z</time>
      </trkpt>
      <trkpt lat="43.64612" lon="3.79422">
        <ele>52</ele>
        <time>2020-12-30T09:59:33Z</time>
      </trkpt>
      <trkpt lat="43.64619" lon="3.79417">
        <ele>52</ele>
        <time>2020-12-30T09:59:35Z</time>
      </trkpt>
      <trkpt lat="43.64626" lon="3.79411">
        <ele>52</ele>
        <time>2020-12-30T09:59:37Z</time>
      </trkpt>
      <trkpt lat="43.64631" lon="3.79406">
        <ele>52</ele>
        <time>2020-12-30T09:59:39Z</time>
      </trkpt>
      <trkpt lat="43.64634" lon="3.794">
        <ele>51</ele>
        <time>2020-12-30T09:59:41Z</time>
      </trkpt>
      <trkpt lat="43.64637" lon="3.79393">
        <ele>52</ele>
        <time>2020-12-30T09:59:44Z</time>
      </trkpt>
      <trkpt lat="43.64641" lon="3.79384">
        <ele>53</ele>
        <time>2020-12-30T09:59:45Z</time>
      </trkpt>
      <trkpt lat="43.64645" lon="3.79379">
        <ele>53</ele>
        <time>2020-12-30T09:59:47Z</time>
      </trkpt>
      <trkpt lat="43.64649" lon="3.79372">
        <ele>54</ele>
        <time>2020-12-30T09:59:49Z</time>
      </trkpt>
      <trkpt lat="43.64653" lon="3.79366">
        <ele>55</ele>
        <time>2020-12-30T09:59:51Z</time>
      </trkpt>
      <trkpt lat="43.64653" lon="3.79358">
        <ele>56</ele>
        <time>2020-12-30T09:59:53Z</time>
      </trkpt>
      <trkpt lat="43.64654" lon="3.79351">
        <ele>56</ele>
        <time>2020-12-30T09:59:55Z</time>
      </trkpt>
      <trkpt lat="43.64655" lon="3.79343">
        <ele>56</ele>
        <time>2020-12-30T09:59:57Z</time>
      </trkpt>
      <trkpt lat="43.64656" lon="3.79334">
        <ele>56</ele>
        <time>2020-12-30T09:59:59Z</time>
      </trkpt>
      <trkpt lat="43.64658" lon="3.79327">
        <ele>56</ele>
        <time>2020-12-30T10:00:01Z</time>
      </trkpt>
      <trkpt lat="43.6466" lon="3.7932">
        <ele>56</ele>
        <time>2020-12-30T10:00:03Z</time>
      </trkpt>
      <trkpt lat="43.64663" lon="3.79313">
        <ele>56</ele>
        <time>2020-12-30T10:00:05Z</time>
      </trkpt>
      <trkpt lat="43.64665" lon="3.79305">
        <ele>56</ele>
        <time>2020-12-30T10:00:07Z</time>
      </trkpt>
      <trkpt lat="43.64669" lon="3.79297">
        <ele>57</ele>
        <time>2020-12-30T10:00:11Z</time>
      </trkpt>
      <trkpt lat="43.64672" lon="3.79291">
        <ele>57</ele>
        <time>2020-12-30T10:00:13Z</time>
      </trkpt>
      <trkpt lat="43.64677" lon="3.79286">
        <ele>57</ele>
        <time>2020-12-30T10:00:16Z</time>
      </trkpt>
      <trkpt lat="43.64684" lon="3.79287">
        <ele>57</ele>
        <time>2020-12-30T10:00:19Z</time>
      </trkpt>
      <trkpt lat="43.64689" lon="3.79285">
        <ele>57</ele>
        <time>2020-12-30T10:00:21Z</time>
      </trkpt>
      <trkpt lat="43.64694" lon="3.79282">
        <ele>57</ele>
        <time>2020-12-30T10:00:23Z</time>
      </trkpt>
      <trkpt lat="43.647" lon="3.79282">
        <ele>57</ele>
        <time>2020-12-30T10:00:25Z</time>
      </trkpt>
      <trkpt lat="43.64704" lon="3.79288">
        <ele>56</ele>
        <time>2020-12-30T10:00:28Z</time>
      </trkpt>
      <trkpt lat="43.64709" lon="3.79288">
        <ele>56</ele>
        <time>2020-12-30T10:00:30Z</time>
      </trkpt>
      <trkpt lat="43.64715" lon="3.79283">
        <ele>56</ele>
        <time>2020-12-30T10:00:33Z</time>
      </trkpt>
      <trkpt lat="43.64721" lon="3.79279">
        <ele>56</ele>
        <time>2020-12-30T10:00:35Z</time>
      </trkpt>
      <trkpt lat="43.64727" lon="3.79273">
        <ele>56</ele>
        <time>2020-12-30T10:00:37Z</time>
      </trkpt>
      <trkpt lat="43.64732" lon="3.79267">
        <ele>57</ele>
        <time>2020-12-30T10:00:39Z</time>
      </trkpt>
      <trkpt lat="43.64738" lon="3.79261">
        <ele>57</ele>
        <time>2020-12-30T10:00:41Z</time>
      </trkpt>
      <trkpt lat="43.64743" lon="3.79255">
        <ele>57</ele>
        <time>2020-12-30T10:00:43Z</time>
      </trkpt>
      <trkpt lat="43.64748" lon="3.7925">
        <ele>58</ele>
        <time>2020-12-30T10:00:45Z</time>
      </trkpt>
      <trkpt lat="43.64752" lon="3.79244">
        <ele>58</ele>
        <time>2020-12-30T10:00:47Z</time>
      </trkpt>
      <trkpt lat="43.64753" lon="3.79233">
        <ele>58</ele>
        <time>2020-12-30T10:00:49Z</time>
      </trkpt>
      <trkpt lat="43.64752" lon="3.79225">
        <ele>57</ele>
        <time>2020-12-30T10:00:51Z</time>
      </trkpt>
      <trkpt lat="43.64756" lon="3.79219">
        <ele>57</ele>
        <time>2020-12-30T10:00:53Z</time>
      </trkpt>
      <trkpt lat="43.64759" lon="3.79213">
        <ele>57</ele>
        <time>2020-12-30T10:00:55Z</time>
      </trkpt>
      <trkpt lat="43.64763" lon="3.79207">
        <ele>57</ele>
        <time>2020-12-30T10:00:57Z</time>
      </trkpt>
      <trkpt lat="43.64768" lon="3.79201">
        <ele>57</ele>
        <time>2020-12-30T10:00:59Z</time>
      </trkpt>
      <trkpt lat="43.64771" lon="3.79196">
        <ele>56</ele>
        <time>2020-12-30T10:01:01Z</time>
      </trkpt>
      <trkpt lat="43.64774" lon="3.7919">
        <ele>56</ele>
        <time>2020-12-30T10:01:03Z</time>
      </trkpt>
      <trkpt lat="43.64777" lon="3.79184">
        <ele>56</ele>
        <time>2020-12-30T10:01:05Z</time>
      </trkpt>
      <trkpt lat="43.64781" lon="3.79179">
        <ele>56</ele>
        <time>2020-12-30T10:01:07Z</time>
      </trkpt>
      <trkpt lat="43.64786" lon="3.79175">
        <ele>57</ele>
        <time>2020-12-30T10:01:09Z</time>
      </trkpt>
      <trkpt lat="43.64791" lon="3.7917">
        <ele>57</ele>
        <time>2020-12-30T10:01:11Z</time>
      </trkpt>
      <trkpt lat="43.64797" lon="3.79164">
        <ele>58</ele>
        <time>2020-12-30T10:01:13Z</time>
      </trkpt>
      <trkpt lat="43.64801" lon="3.79156">
        <ele>58</ele>
        <time>2020-12-30T10:01:15Z</time>
      </trkpt>
      <trkpt lat="43.64805" lon="3.79147">
        <ele>58</ele>
        <time>2020-12-30T10:01:17Z</time>
      </trkpt>
      <trkpt lat="43.64808" lon="3.79141">
        <ele>58</ele>
        <time>2020-12-30T10:01:19Z</time>
      </trkpt>
      <trkpt lat="43.64812" lon="3.79135">
        <ele>58</ele>
        <time>2020-12-30T10:01:22Z</time>
      </trkpt>
      <trkpt lat="43.64816" lon="3.7913">
        <ele>58</ele>
        <time>2020-12-30T10:01:24Z</time>
      </trkpt>
      <trkpt lat="43.64822" lon="3.79123">
        <ele>58</ele>
        <time>2020-12-30T10:01:27Z</time>
      </trkpt>
      <trkpt lat="43.64827" lon="3.79117">
        <ele>59</ele>
        <time>2020-12-30T10:01:29Z</time>
      </trkpt>
      <trkpt lat="43.64833" lon="3.79108">
        <ele>59</ele>
        <time>2020-12-30T10:01:31Z</time>
      </trkpt>
      <trkpt lat="43.64836" lon="3.79102">
        <ele>59</ele>
        <time>2020-12-30T10:01:33Z</time>
      </trkpt>
      <trkpt lat="43.64841" lon="3.79094">
        <ele>60</ele>
        <time>2020-12-30T10:01:35Z</time>
      </trkpt>
      <trkpt lat="43.64845" lon="3.79087">
        <ele>60</ele>
        <time>2020-12-30T10:01:37Z</time>
      </trkpt>
      <trkpt lat="43.64849" lon="3.79081">
        <ele>60</ele>
        <time>2020-12-30T10:01:39Z</time>
      </trkpt>
      <trkpt lat="43.64854" lon="3.79077">
        <ele>61</ele>
        <time>2020-12-30T10:01:42Z</time>
      </trkpt>
      <trkpt lat="43.6486" lon="3.79073">
        <ele>62</ele>
        <time>2020-12-30T10:01:43Z</time>
      </trkpt>
      <trkpt lat="43.64867" lon="3.79072">
        <ele>62</ele>
        <time>2020-12-30T10:01:44Z</time>
      </trkpt>
      <trkpt lat="43.64871" lon="3.79068">
        <ele>62</ele>
        <time>2020-12-30T10:01:45Z</time>
      </trkpt>
      <trkpt lat="43.64875" lon="3.79064">
        <ele>62</ele>
        <time>2020-12-30T10:01:46Z</time>
      </trkpt>
      <trkpt lat="43.64879" lon="3.79061">
        <ele>62</ele>
        <time>2020-12-30T10:01:47Z</time>
      </trkpt>
      <trkpt lat="43.64885" lon="3.79052">
        <ele>61</ele>
        <time>2020-12-30T10:01:49Z</time>
      </trkpt>
      <trkpt lat="43.6489" lon="3.7905">
        <ele>61</ele>
        <time>2020-12-30T10:01:50Z</time>
      </trkpt>
      <trkpt lat="43.64894" lon="3.79046">
        <ele>61</ele>
        <time>2020-12-30T10:01:51Z</time>
      </trkpt>
      <trkpt lat="43.64898" lon="3.79044">
        <ele>61</ele>
        <time>2020-12-30T10:01:52Z</time>
      </trkpt>
      <trkpt lat="43.64905" lon="3.79038">
        <ele>60</ele>
        <time>2020-12-30T10:01:54Z</time>
      </trkpt>
      <trkpt lat="43.64909" lon="3.79036">
        <ele>60</ele>
        <time>2020-12-30T10:01:55Z</time>
      </trkpt>
      <trkpt lat="43.64914" lon="3.79033">
        <ele>60</ele>
        <time>2020-12-30T10:01:56Z</time>
      </trkpt>
      <trkpt lat="43.64923" lon="3.79029">
        <ele>60</ele>
        <time>2020-12-30T10:01:58Z</time>
      </trkpt>
      <trkpt lat="43.6493" lon="3.79023">
        <ele>60</ele>
        <time>2020-12-30T10:02:00Z</time>
      </trkpt>
      <trkpt lat="43.64938" lon="3.79016">
        <ele>60</ele>
        <time>2020-12-30T10:02:02Z</time>
      </trkpt>
      <trkpt lat="43.64943" lon="3.79011">
        <ele>60</ele>
        <time>2020-12-30T10:02:04Z</time>
      </trkpt>
      <trkpt lat="43.64949" lon="3.79006">
        <ele>60</ele>
        <time>2020-12-30T10:02:07Z</time>
      </trkpt>
      <trkpt lat="43.64958" lon="3.79002">
        <ele>60</ele>
        <time>2020-12-30T10:02:08Z</time>
      </trkpt>
      <trkpt lat="43.64963" lon="3.78997">
        <ele>60</ele>
        <time>2020-12-30T10:02:10Z</time>
      </trkpt>
      <trkpt lat="43.64971" lon="3.78997">
        <ele>60</ele>
        <time>2020-12-30T10:02:12Z</time>
      </trkpt>
      <trkpt lat="43.64979" lon="3.78997">
        <ele>59</ele>
        <time>2020-12-30T10:02:14Z</time>
      </trkpt>
      <trkpt lat="43.64986" lon="3.78993">
        <ele>59</ele>
        <time>2020-12-30T10:02:16Z</time>
      </trkpt>
      <trkpt lat="43.64994" lon="3.7899">
        <ele>58</ele>
        <time>2020-12-30T10:02:18Z</time>
      </trkpt>
      <trkpt lat="43.65" lon="3.78983">
        <ele>59</ele>
        <time>2020-12-30T10:02:20Z</time>
      </trkpt>
      <trkpt lat="43.65007" lon="3.78978">
        <ele>59</ele>
        <time>2020-12-30T10:02:22Z</time>
      </trkpt>
      <trkpt lat="43.65014" lon="3.78976">
        <ele>59</ele>
        <time>2020-12-30T10:02:24Z</time>
      </trkpt>
      <trkpt lat="43.65022" lon="3.78974">
        <ele>60</ele>
        <time>2020-12-30T10:02:26Z</time>
      </trkpt>
      <trkpt lat="43.65029" lon="3.78969">
        <ele>60</ele>
        <time>2020-12-30T10:02:28Z</time>
      </trkpt>
      <trkpt lat="43.65035" lon="3.78962">
        <ele>60</ele>
        <time>2020-12-30T10:02:30Z</time>
      </trkpt>
      <trkpt lat="43.65041" lon="3.78956">
        <ele>60</ele>
        <time>2020-12-30T10:02:32Z</time>
      </trkpt>
      <trkpt lat="43.65048" lon="3.7895">
        <ele>60</ele>
        <time>2020-12-30T10:02:34Z</time>
      </trkpt>
      <trkpt lat="43.65054" lon="3.78946">
        <ele>60</ele>
        <time>2020-12-30T10:02:36Z</time>
      </trkpt>
      <trkpt lat="43.6506" lon="3.78949">
        <ele>60</ele>
        <time>2020-12-30T10:02:39Z</time>
      </trkpt>
      <trkpt lat="43.65064" lon="3.78953">
        <ele>59</ele>
        <time>2020-12-30T10:02:41Z</time>
      </trkpt>
      <trkpt lat="43.65071" lon="3.78952">
        <ele>59</ele>
        <time>2020-12-30T10:02:45Z</time>
      </trkpt>
      <trkpt lat="43.65076" lon="3.78948">
        <ele>59</ele>
        <time>2020-12-30T10:02:47Z</time>
      </trkpt>
      <trkpt lat="43.65081" lon="3.78944">
        <ele>60</ele>
        <time>2020-12-30T10:02:49Z</time>
      </trkpt>
      <trkpt lat="43.65086" lon="3.78939">
        <ele>60</ele>
        <time>2020-12-30T10:02:51Z</time>
      </trkpt>
      <trkpt lat="43.65091" lon="3.78936">
        <ele>60</ele>
        <time>2020-12-30T10:02:53Z</time>
      </trkpt>
      <trkpt lat="43.65097" lon="3.78933">
        <ele>61</ele>
        <time>2020-12-30T10:02:55Z</time>
      </trkpt>
      <trkpt lat="43.65101" lon="3.78929">
        <ele>61</ele>
        <time>2020-12-30T10:02:57Z</time>
      </trkpt>
      <trkpt lat="43.65106" lon="3.78925">
        <ele>61</ele>
        <time>2020-12-30T10:02:59Z</time>
      </trkpt>
      <trkpt lat="43.65111" lon="3.78919">
        <ele>61</ele>
        <time>2020-12-30T10:03:01Z</time>
      </trkpt>
      <trkpt lat="43.65116" lon="3.78915">
        <ele>61</ele>
        <time>2020-12-30T10:03:03Z</time>
      </trkpt>
      <trkpt lat="43.65123" lon="3.78908">
        <ele>61</ele>
        <time>2020-12-30T10:03:05Z</time>
      </trkpt>
      <trkpt lat="43.65128" lon="3.78905">
        <ele>60</ele>
        <time>2020-12-30T10:03:07Z</time>
      </trkpt>
      <trkpt lat="43.65133" lon="3.78899">
        <ele>60</ele>
        <time>2020-12-30T10:03:09Z</time>
      </trkpt>
      <trkpt lat="43.65139" lon="3.78894">
        <ele>60</ele>
        <time>2020-12-30T10:03:11Z</time>
      </trkpt>
      <trkpt lat="43.65142" lon="3.78889">
        <ele>60</ele>
        <time>2020-12-30T10:03:14Z</time>
      </trkpt>
      <trkpt lat="43.65148" lon="3.78883">
        <ele>60</ele>
        <time>2020-12-30T10:03:17Z</time>
      </trkpt>
      <trkpt lat="43.65155" lon="3.78879">
        <ele>60</ele>
        <time>2020-12-30T10:03:19Z</time>
      </trkpt>
      <trkpt lat="43.65159" lon="3.78874">
        <ele>60</ele>
        <time>2020-12-30T10:03:20Z</time>
      </trkpt>
      <trkpt lat="43.65163" lon="3.78873">
        <ele>60</ele>
        <time>2020-12-30T10:03:21Z</time>
      </trkpt>
      <trkpt lat="43.65162" lon="3.78867">
        <ele>60</ele>
        <time>2020-12-30T10:03:28Z</time>
      </trkpt>
      <trkpt lat="43.65165" lon="3.78872">
        <ele>60</ele>
        <time>2020-12-30T10:03:40Z</time>
      </trkpt>
      <trkpt lat="43.6516" lon="3.78875">
        <ele>61</ele>
        <time>2020-12-30T10:03:47Z</time>
      </trkpt>
      <trkpt lat="43.65155" lon="3.78879">
        <ele>60</ele>
        <time>2020-12-30T10:03:51Z</time>
      </trkpt>
      <trkpt lat="43.6515" lon="3.7888">
        <ele>60</ele>
        <time>2020-12-30T10:03:54Z</time>
      </trkpt>
      <trkpt lat="43.65145" lon="3.78883">
        <ele>59</ele>
        <time>2020-12-30T10:03:57Z</time>
      </trkpt>
      <trkpt lat="43.6514" lon="3.78888">
        <ele>59</ele>
        <time>2020-12-30T10:04:00Z</time>
      </trkpt>
      <trkpt lat="43.65135" lon="3.78893">
        <ele>58</ele>
        <time>2020-12-30T10:04:03Z</time>
      </trkpt>
      <trkpt lat="43.6513" lon="3.78897">
        <ele>58</ele>
        <time>2020-12-30T10:04:06Z</time>
      </trkpt>
      <trkpt lat="43.65126" lon="3.789">
        <ele>58</ele>
        <time>2020-12-30T10:04:08Z</time>
      </trkpt>
      <trkpt lat="43.65122" lon="3.78904">
        <ele>58</ele>
        <time>2020-12-30T10:04:10Z</time>
      </trkpt>
      <trkpt lat="43.65117" lon="3.78909">
        <ele>58</ele>
        <time>2020-12-30T10:04:13Z</time>
      </trkpt>
      <trkpt lat="43.65112" lon="3.78914">
        <ele>58</ele>
        <time>2020-12-30T10:04:16Z</time>
      </trkpt>
      <trkpt lat="43.65108" lon="3.78918">
        <ele>58</ele>
        <time>2020-12-30T10:04:18Z</time>
      </trkpt>
      <trkpt lat="43.65104" lon="3.78922">
        <ele>58</ele>
        <time>2020-12-30T10:04:20Z</time>
      </trkpt>
      <trkpt lat="43.65101" lon="3.78927">
        <ele>58</ele>
        <time>2020-12-30T10:04:22Z</time>
      </trkpt>
      <trkpt lat="43.65097" lon="3.78931">
        <ele>59</ele>
        <time>2020-12-30T10:04:25Z</time>
      </trkpt>
      <trkpt lat="43.65091" lon="3.78931">
        <ele>58</ele>
        <time>2020-12-30T10:04:29Z</time>
      </trkpt>
      <trkpt lat="43.65086" lon="3.78933">
        <ele>58</ele>
        <time>2020-12-30T10:04:33Z</time>
      </trkpt>
      <trkpt lat="43.65088" lon="3.78926">
        <ele>58</ele>
        <time>2020-12-30T10:04:37Z</time>
      </trkpt>
      <trkpt lat="43.65091" lon="3.78919">
        <ele>58</ele>
        <time>2020-12-30T10:04:39Z</time>
      </trkpt>
      <trkpt lat="43.65093" lon="3.78913">
        <ele>59</ele>
        <time>2020-12-30T10:04:41Z</time>
      </trkpt>
      <trkpt lat="43.65095" lon="3.78907">
        <ele>59</ele>
        <time>2020-12-30T10:04:43Z</time>
      </trkpt>
      <trkpt lat="43.65099" lon="3.78903">
        <ele>59</ele>
        <time>2020-12-30T10:04:45Z</time>
      </trkpt>
      <trkpt lat="43.65103" lon="3.78899">
        <ele>60</ele>
        <time>2020-12-30T10:04:48Z</time>
      </trkpt>
      <trkpt lat="43.65107" lon="3.78894">
        <ele>60</ele>
        <time>2020-12-30T10:04:52Z</time>
      </trkpt>
      <trkpt lat="43.65102" lon="3.78892">
        <ele>60</ele>
        <time>2020-12-30T10:04:57Z</time>
      </trkpt>
      <trkpt lat="43.651" lon="3.789">
        <ele>60</ele>
        <time>2020-12-30T10:05:00Z</time>
      </trkpt>
      <trkpt lat="43.65096" lon="3.78902">
        <ele>60</ele>
        <time>2020-12-30T10:05:03Z</time>
      </trkpt>
      <trkpt lat="43.65101" lon="3.789">
        <ele>60</ele>
        <time>2020-12-30T10:05:11Z</time>
      </trkpt>
      <trkpt lat="43.65105" lon="3.78896">
        <ele>61</ele>
        <time>2020-12-30T10:05:13Z</time>
      </trkpt>
      <trkpt lat="43.65109" lon="3.78891">
        <ele>61</ele>
        <time>2020-12-30T10:05:15Z</time>
      </trkpt>
      <trkpt lat="43.65113" lon="3.78886">
        <ele>61</ele>
        <time>2020-12-30T10:05:18Z</time>
      </trkpt>
      <trkpt lat="43.6512" lon="3.78881">
        <ele>61</ele>
        <time>2020-12-30T10:05:21Z</time>
      </trkpt>
      <trkpt lat="43.65125" lon="3.78877">
        <ele>62</ele>
        <time>2020-12-30T10:05:23Z</time>
      </trkpt>
      <trkpt lat="43.6513" lon="3.78872">
        <ele>61</ele>
        <time>2020-12-30T10:05:25Z</time>
      </trkpt>
      <trkpt lat="43.65136" lon="3.78868">
        <ele>61</ele>
        <time>2020-12-30T10:05:27Z</time>
      </trkpt>
      <trkpt lat="43.65144" lon="3.78864">
        <ele>61</ele>
        <time>2020-12-30T10:05:29Z</time>
      </trkpt>
      <trkpt lat="43.65148" lon="3.78859">
        <ele>61</ele>
        <time>2020-12-30T10:05:31Z</time>
      </trkpt>
      <trkpt lat="43.65151" lon="3.78851">
        <ele>61</ele>
        <time>2020-12-30T10:05:34Z</time>
      </trkpt>
      <trkpt lat="43.6515" lon="3.78843">
        <ele>61</ele>
        <time>2020-12-30T10:05:37Z</time>
      </trkpt>
      <trkpt lat="43.6515" lon="3.78834">
        <ele>61</ele>
        <time>2020-12-30T10:05:41Z</time>
      </trkpt>
      <trkpt lat="43.6515" lon="3.78826">
        <ele>62</ele>
        <time>2020-12-30T10:05:44Z</time>
      </trkpt>
      <trkpt lat="43.6515" lon="3.78818">
        <ele>62</ele>
        <time>2020-12-30T10:05:47Z</time>
      </trkpt>
      <trkpt lat="43.65153" lon="3.78813">
        <ele>62</ele>
        <time>2020-12-30T10:05:49Z</time>
      </trkpt>
      <trkpt lat="43.65158" lon="3.78809">
        <ele>62</ele>
        <time>2020-12-30T10:05:51Z</time>
      </trkpt>
      <trkpt lat="43.65164" lon="3.78805">
        <ele>62</ele>
        <time>2020-12-30T10:05:53Z</time>
      </trkpt>
      <trkpt lat="43.65171" lon="3.788">
        <ele>62</ele>
        <time>2020-12-30T10:05:55Z</time>
      </trkpt>
      <trkpt lat="43.65177" lon="3.78796">
        <ele>62</ele>
        <time>2020-12-30T10:05:57Z</time>
      </trkpt>
      <trkpt lat="43.65184" lon="3.78792">
        <ele>63</ele>
        <time>2020-12-30T10:05:59Z</time>
      </trkpt>
      <trkpt lat="43.6519" lon="3.78788">
        <ele>63</ele>
        <time>2020-12-30T10:06:01Z</time>
      </trkpt>
      <trkpt lat="43.65196" lon="3.78784">
        <ele>64</ele>
        <time>2020-12-30T10:06:03Z</time>
      </trkpt>
      <trkpt lat="43.65202" lon="3.78781">
        <ele>64</ele>
        <time>2020-12-30T10:06:05Z</time>
      </trkpt>
      <trkpt lat="43.65207" lon="3.78776">
        <ele>64</ele>
        <time>2020-12-30T10:06:07Z</time>
      </trkpt>
      <trkpt lat="43.6521" lon="3.78771">
        <ele>64</ele>
        <time>2020-12-30T10:06:09Z</time>
      </trkpt>
      <trkpt lat="43.65214" lon="3.78763">
        <ele>64</ele>
        <time>2020-12-30T10:06:12Z</time>
      </trkpt>
      <trkpt lat="43.65216" lon="3.78758">
        <ele>64</ele>
        <time>2020-12-30T10:06:14Z</time>
      </trkpt>
      <trkpt lat="43.65219" lon="3.7875">
        <ele>64</ele>
        <time>2020-12-30T10:06:17Z</time>
      </trkpt>
      <trkpt lat="43.65223" lon="3.78743">
        <ele>64</ele>
        <time>2020-12-30T10:06:20Z</time>
      </trkpt>
      <trkpt lat="43.65228" lon="3.78739">
        <ele>64</ele>
        <time>2020-12-30T10:06:22Z</time>
      </trkpt>
      <trkpt lat="43.65234" lon="3.78736">
        <ele>64</ele>
        <time>2020-12-30T10:06:25Z</time>
      </trkpt>
      <trkpt lat="43.65239" lon="3.78734">
        <ele>64</ele>
        <time>2020-12-30T10:06:27Z</time>
      </trkpt>
      <trkpt lat="43.65244" lon="3.78731">
        <ele>64</ele>
        <time>2020-12-30T10:06:29Z</time>
      </trkpt>
      <trkpt lat="43.65249" lon="3.78729">
        <ele>64</ele>
        <time>2020-12-30T10:06:31Z</time>
      </trkpt>
      <trkpt lat="43.65255" lon="3.78727">
        <ele>64</ele>
        <time>2020-12-30T10:06:33Z</time>
      </trkpt>
      <trkpt lat="43.65261" lon="3.78725">
        <ele>64</ele>
        <time>2020-12-30T10:06:35Z</time>
      </trkpt>
      <trkpt lat="43.65267" lon="3.78723">
        <ele>64</ele>
        <time>2020-12-30T10:06:37Z</time>
      </trkpt>
      <trkpt lat="43.65273" lon="3.7872">
        <ele>65</ele>
        <time>2020-12-30T10:06:39Z</time>
      </trkpt>
      <trkpt lat="43.65279" lon="3.78717">
        <ele>65</ele>
        <time>2020-12-30T10:06:41Z</time>
      </trkpt>
      <trkpt lat="43.65286" lon="3.78715">
        <ele>65</ele>
        <time>2020-12-30T10:06:43Z</time>
      </trkpt>
      <trkpt lat="43.65292" lon="3.78712">
        <ele>65</ele>
        <time>2020-12-30T10:06:45Z</time>
      </trkpt>
      <trkpt lat="43.65298" lon="3.78708">
        <ele>64</ele>
        <time>2020-12-30T10:06:47Z</time>
      </trkpt>
      <trkpt lat="43.65304" lon="3.78705">
        <ele>64</ele>
        <time>2020-12-30T10:06:49Z</time>
      </trkpt>
      <trkpt lat="43.6531" lon="3.78701">
        <ele>64</ele>
        <time>2020-12-30T10:06:51Z</time>
      </trkpt>
      <trkpt lat="43.65316" lon="3.78696">
        <ele>64</ele>
        <time>2020-12-30T10:06:53Z</time>
      </trkpt>
      <trkpt lat="43.65323" lon="3.7869">
        <ele>63</ele>
        <time>2020-12-30T10:06:55Z</time>
      </trkpt>
      <trkpt lat="43.6533" lon="3.78684">
        <ele>63</ele>
        <time>2020-12-30T10:06:57Z</time>
      </trkpt>
      <trkpt lat="43.65337" lon="3.78677">
        <ele>63</ele>
        <time>2020-12-30T10:06:59Z</time>
      </trkpt>
      <trkpt lat="43.65341" lon="3.78674">
        <ele>63</ele>
        <time>2020-12-30T10:07:00Z</time>
      </trkpt>
      <trkpt lat="43.65346" lon="3.7867">
        <ele>64</ele>
        <time>2020-12-30T10:07:01Z</time>
      </trkpt>
      <trkpt lat="43.6535" lon="3.78667">
        <ele>64</ele>
        <time>2020-12-30T10:07:02Z</time>
      </trkpt>
      <trkpt lat="43.65355" lon="3.78663">
        <ele>64</ele>
        <time>2020-12-30T10:07:03Z</time>
      </trkpt>
      <trkpt lat="43.6536" lon="3.7866">
        <ele>64</ele>
        <time>2020-12-30T10:07:04Z</time>
      </trkpt>
      <trkpt lat="43.65365" lon="3.78656">
        <ele>64</ele>
        <time>2020-12-30T10:07:05Z</time>
      </trkpt>
      <trkpt lat="43.6537" lon="3.78653">
        <ele>64</ele>
        <time>2020-12-30T10:07:06Z</time>
      </trkpt>
      <trkpt lat="43.65376" lon="3.7865">
        <ele>63</ele>
        <time>2020-12-30T10:07:07Z</time>
      </trkpt>
      <trkpt lat="43.65382" lon="3.78646">
        <ele>63</ele>
        <time>2020-12-30T10:07:08Z</time>
      </trkpt>
      <trkpt lat="43.65387" lon="3.78641">
        <ele>62</ele>
        <time>2020-12-30T10:07:09Z</time>
      </trkpt>
      <trkpt lat="43.65394" lon="3.78638">
        <ele>62</ele>
        <time>2020-12-30T10:07:10Z</time>
      </trkpt>
      <trkpt lat="43.65401" lon="3.78636">
        <ele>62</ele>
        <time>2020-12-30T10:07:11Z</time>
      </trkpt>
      <trkpt lat="43.65408" lon="3.78633">
        <ele>62</ele>
        <time>2020-12-30T10:07:12Z</time>
      </trkpt>
      <trkpt lat="43.65414" lon="3.78631">
        <ele>62</ele>
        <time>2020-12-30T10:07:13Z</time>
      </trkpt>
      <trkpt lat="43.65421" lon="3.7863">
        <ele>62</ele>
        <time>2020-12-30T10:07:14Z</time>
      </trkpt>
      <trkpt lat="43.65429" lon="3.78631">
        <ele>62</ele>
        <time>2020-12-30T10:07:15Z</time>
      </trkpt>
      <trkpt lat="43.65434" lon="3.78631">
        <ele>61</ele>
        <time>2020-12-30T10:07:16Z</time>
      </trkpt>
      <trkpt lat="43.65439" lon="3.78631">
        <ele>61</ele>
        <time>2020-12-30T10:07:17Z</time>
      </trkpt>
      <trkpt lat="43.65446" lon="3.7863">
        <ele>60</ele>
        <time>2020-12-30T10:07:18Z</time>
      </trkpt>
      <trkpt lat="43.65451" lon="3.78627">
        <ele>60</ele>
        <time>2020-12-30T10:07:19Z</time>
      </trkpt>
      <trkpt lat="43.65456" lon="3.78623">
        <ele>60</ele>
        <time>2020-12-30T10:07:20Z</time>
      </trkpt>
      <trkpt lat="43.65461" lon="3.78619">
        <ele>60</ele>
        <time>2020-12-30T10:07:21Z</time>
      </trkpt>
      <trkpt lat="43.65464" lon="3.78615">
        <ele>61</ele>
        <time>2020-12-30T10:07:22Z</time>
      </trkpt>
      <trkpt lat="43.65467" lon="3.7861">
        <ele>60</ele>
        <time>2020-12-30T10:07:23Z</time>
      </trkpt>
      <trkpt lat="43.65474" lon="3.78604">
        <ele>60</ele>
        <time>2020-12-30T10:07:25Z</time>
      </trkpt>
      <trkpt lat="43.6548" lon="3.78599">
        <ele>60</ele>
        <time>2020-12-30T10:07:27Z</time>
      </trkpt>
      <trkpt lat="43.65487" lon="3.78594">
        <ele>60</ele>
        <time>2020-12-30T10:07:29Z</time>
      </trkpt>
      <trkpt lat="43.65493" lon="3.78588">
        <ele>60</ele>
        <time>2020-12-30T10:07:31Z</time>
      </trkpt>
      <trkpt lat="43.655" lon="3.78584">
        <ele>60</ele>
        <time>2020-12-30T10:07:33Z</time>
      </trkpt>
      <trkpt lat="43.65505" lon="3.78581">
        <ele>61</ele>
        <time>2020-12-30T10:07:35Z</time>
      </trkpt>
      <trkpt lat="43.65512" lon="3.78582">
        <ele>61</ele>
        <time>2020-12-30T10:07:37Z</time>
      </trkpt>
      <trkpt lat="43.65518" lon="3.78584">
        <ele>62</ele>
        <time>2020-12-30T10:07:39Z</time>
      </trkpt>
      <trkpt lat="43.65525" lon="3.78583">
        <ele>63</ele>
        <time>2020-12-30T10:07:41Z</time>
      </trkpt>
      <trkpt lat="43.65531" lon="3.7858">
        <ele>64</ele>
        <time>2020-12-30T10:07:43Z</time>
      </trkpt>
      <trkpt lat="43.65537" lon="3.78578">
        <ele>65</ele>
        <time>2020-12-30T10:07:45Z</time>
      </trkpt>
      <trkpt lat="43.65543" lon="3.78575">
        <ele>66</ele>
        <time>2020-12-30T10:07:47Z</time>
      </trkpt>
      <trkpt lat="43.6555" lon="3.78572">
        <ele>67</ele>
        <time>2020-12-30T10:07:49Z</time>
      </trkpt>
      <trkpt lat="43.65556" lon="3.78568">
        <ele>67</ele>
        <time>2020-12-30T10:07:51Z</time>
      </trkpt>
      <trkpt lat="43.65561" lon="3.78564">
        <ele>68</ele>
        <time>2020-12-30T10:07:53Z</time>
      </trkpt>
      <trkpt lat="43.65566" lon="3.78559">
        <ele>68</ele>
        <time>2020-12-30T10:07:55Z</time>
      </trkpt>
      <trkpt lat="43.65571" lon="3.78555">
        <ele>68</ele>
        <time>2020-12-30T10:07:57Z</time>
      </trkpt>
      <trkpt lat="43.65576" lon="3.78551">
        <ele>68</ele>
        <time>2020-12-30T10:07:59Z</time>
      </trkpt>
      <trkpt lat="43.65582" lon="3.78549">
        <ele>68</ele>
        <time>2020-12-30T10:08:01Z</time>
      </trkpt>
      <trkpt lat="43.65587" lon="3.78547">
        <ele>69</ele>
        <time>2020-12-30T10:08:03Z</time>
      </trkpt>
      <trkpt lat="43.65593" lon="3.78544">
        <ele>69</ele>
        <time>2020-12-30T10:08:05Z</time>
      </trkpt>
      <trkpt lat="43.65598" lon="3.78539">
        <ele>69</ele>
        <time>2020-12-30T10:08:07Z</time>
      </trkpt>
      <trkpt lat="43.65603" lon="3.78533">
        <ele>69</ele>
        <time>2020-12-30T10:08:09Z</time>
      </trkpt>
      <trkpt lat="43.65606" lon="3.78527">
        <ele>69</ele>
        <time>2020-12-30T10:08:11Z</time>
      </trkpt>
      <trkpt lat="43.6561" lon="3.78521">
        <ele>70</ele>
        <time>2020-12-30T10:08:13Z</time>
      </trkpt>
      <trkpt lat="43.65614" lon="3.78515">
        <ele>70</ele>
        <time>2020-12-30T10:08:15Z</time>
      </trkpt>
      <trkpt lat="43.65617" lon="3.7851">
        <ele>70</ele>
        <time>2020-12-30T10:08:17Z</time>
      </trkpt>
      <trkpt lat="43.6562" lon="3.78505">
        <ele>70</ele>
        <time>2020-12-30T10:08:19Z</time>
      </trkpt>
      <trkpt lat="43.65623" lon="3.78499">
        <ele>70</ele>
        <time>2020-12-30T10:08:21Z</time>
      </trkpt>
      <trkpt lat="43.65626" lon="3.78494">
        <ele>70</ele>
        <time>2020-12-30T10:08:23Z</time>
      </trkpt>
      <trkpt lat="43.65629" lon="3.78489">
        <ele>69</ele>
        <time>2020-12-30T10:08:25Z</time>
      </trkpt>
      <trkpt lat="43.65633" lon="3.78485">
        <ele>69</ele>
        <time>2020-12-30T10:08:27Z</time>
      </trkpt>
      <trkpt lat="43.65636" lon="3.78481">
        <ele>69</ele>
        <time>2020-12-30T10:08:29Z</time>
      </trkpt>
      <trkpt lat="43.65642" lon="3.78477">
        <ele>70</ele>
        <time>2020-12-30T10:08:32Z</time>
      </trkpt>
      <trkpt lat="43.65647" lon="3.78473">
        <ele>71</ele>
        <time>2020-12-30T10:08:36Z</time>
      </trkpt>
      <trkpt lat="43.65651" lon="3.78467">
        <ele>72</ele>
        <time>2020-12-30T10:08:40Z</time>
      </trkpt>
      <trkpt lat="43.65653" lon="3.7846">
        <ele>73</ele>
        <time>2020-12-30T10:08:44Z</time>
      </trkpt>
      <trkpt lat="43.65652" lon="3.78454">
        <ele>75</ele>
        <time>2020-12-30T10:08:47Z</time>
      </trkpt>
      <trkpt lat="43.6565" lon="3.78447">
        <ele>76</ele>
        <time>2020-12-30T10:08:50Z</time>
      </trkpt>
      <trkpt lat="43.65649" lon="3.78441">
        <ele>77</ele>
        <time>2020-12-30T10:08:54Z</time>
      </trkpt>
      <trkpt lat="43.65648" lon="3.78434">
        <ele>78</ele>
        <time>2020-12-30T10:08:58Z</time>
      </trkpt>
      <trkpt lat="43.65645" lon="3.78427">
        <ele>79</ele>
        <time>2020-12-30T10:09:03Z</time>
      </trkpt>
      <trkpt lat="43.65645" lon="3.78419">
        <ele>80</ele>
        <time>2020-12-30T10:09:07Z</time>
      </trkpt>
      <trkpt lat="43.65645" lon="3.78413">
        <ele>80</ele>
        <time>2020-12-30T10:09:10Z</time>
      </trkpt>
      <trkpt lat="43.65643" lon="3.78403">
        <ele>81</ele>
        <time>2020-12-30T10:09:13Z</time>
      </trkpt>
      <trkpt lat="43.6564" lon="3.78395">
        <ele>81</ele>
        <time>2020-12-30T10:09:16Z</time>
      </trkpt>
      <trkpt lat="43.65638" lon="3.78388">
        <ele>81</ele>
        <time>2020-12-30T10:09:18Z</time>
      </trkpt>
      <trkpt lat="43.65634" lon="3.7838">
        <ele>82</ele>
        <time>2020-12-30T10:09:20Z</time>
      </trkpt>
      <trkpt lat="43.65633" lon="3.78369">
        <ele>82</ele>
        <time>2020-12-30T10:09:22Z</time>
      </trkpt>
      <trkpt lat="43.65634" lon="3.78359">
        <ele>82</ele>
        <time>2020-12-30T10:09:24Z</time>
      </trkpt>
      <trkpt lat="43.65635" lon="3.78351">
        <ele>81</ele>
        <time>2020-12-30T10:09:26Z</time>
      </trkpt>
      <trkpt lat="43.65635" lon="3.78343">
        <ele>81</ele>
        <time>2020-12-30T10:09:28Z</time>
      </trkpt>
      <trkpt lat="43.65636" lon="3.78336">
        <ele>81</ele>
        <time>2020-12-30T10:09:30Z</time>
      </trkpt>
      <trkpt lat="43.6564" lon="3.7833">
        <ele>81</ele>
        <time>2020-12-30T10:09:32Z</time>
      </trkpt>
      <trkpt lat="43.65643" lon="3.78323">
        <ele>81</ele>
        <time>2020-12-30T10:09:34Z</time>
      </trkpt>
      <trkpt lat="43.65647" lon="3.78316">
        <ele>81</ele>
        <time>2020-12-30T10:09:36Z</time>
      </trkpt>
      <trkpt lat="43.65653" lon="3.78311">
        <ele>82</ele>
        <time>2020-12-30T10:09:38Z</time>
      </trkpt>
      <trkpt lat="43.65659" lon="3.783">
        <ele>82</ele>
        <time>2020-12-30T10:09:40Z</time>
      </trkpt>
      <trkpt lat="43.65656" lon="3.78291">
        <ele>81</ele>
        <time>2020-12-30T10:09:42Z</time>
      </trkpt>
      <trkpt lat="43.65657" lon="3.78282">
        <ele>80</ele>
        <time>2020-12-30T10:09:44Z</time>
      </trkpt>
      <trkpt lat="43.65659" lon="3.78274">
        <ele>80</ele>
        <time>2020-12-30T10:09:46Z</time>
      </trkpt>
      <trkpt lat="43.65664" lon="3.78267">
        <ele>80</ele>
        <time>2020-12-30T10:09:48Z</time>
      </trkpt>
      <trkpt lat="43.65669" lon="3.78259">
        <ele>80</ele>
        <time>2020-12-30T10:09:50Z</time>
      </trkpt>
      <trkpt lat="43.65672" lon="3.7825">
        <ele>80</ele>
        <time>2020-12-30T10:09:52Z</time>
      </trkpt>
      <trkpt lat="43.65677" lon="3.78242">
        <ele>80</ele>
        <time>2020-12-30T10:09:54Z</time>
      </trkpt>
      <trkpt lat="43.65682" lon="3.78233">
        <ele>80</ele>
        <time>2020-12-30T10:09:56Z</time>
      </trkpt>
      <trkpt lat="43.65686" lon="3.78225">
        <ele>80</ele>
        <time>2020-12-30T10:09:58Z</time>
      </trkpt>
      <trkpt lat="43.65691" lon="3.78216">
        <ele>80</ele>
        <time>2020-12-30T10:10:00Z</time>
      </trkpt>
      <trkpt lat="43.65696" lon="3.78208">
        <ele>80</ele>
        <time>2020-12-30T10:10:02Z</time>
      </trkpt>
      <trkpt lat="43.65702" lon="3.78201">
        <ele>80</ele>
        <time>2020-12-30T10:10:04Z</time>
      </trkpt>
      <trkpt lat="43.65709" lon="3.78194">
        <ele>80</ele>
        <time>2020-12-30T10:10:06Z</time>
      </trkpt>
      <trkpt lat="43.65717" lon="3.78187">
        <ele>81</ele>
        <time>2020-12-30T10:10:08Z</time>
      </trkpt>
      <trkpt lat="43.6572" lon="3.78185">
        <ele>81</ele>
        <time>2020-12-30T10:10:09Z</time>
      </trkpt>
      <trkpt lat="43.65725" lon="3.78182">
        <ele>82</ele>
        <time>2020-12-30T10:10:10Z</time>
      </trkpt>
      <trkpt lat="43.65729" lon="3.78179">
        <ele>82</ele>
        <time>2020-12-30T10:10:11Z</time>
      </trkpt>
      <trkpt lat="43.65733" lon="3.78177">
        <ele>82</ele>
        <time>2020-12-30T10:10:12Z</time>
      </trkpt>
      <trkpt lat="43.65741" lon="3.78171">
        <ele>82</ele>
        <time>2020-12-30T10:10:14Z</time>
      </trkpt>
      <trkpt lat="43.65749" lon="3.78166">
        <ele>83</ele>
        <time>2020-12-30T10:10:16Z</time>
      </trkpt>
      <trkpt lat="43.65756" lon="3.7816">
        <ele>83</ele>
        <time>2020-12-30T10:10:18Z</time>
      </trkpt>
      <trkpt lat="43.65761" lon="3.78154">
        <ele>82</ele>
        <time>2020-12-30T10:10:20Z</time>
      </trkpt>
      <trkpt lat="43.65761" lon="3.78147">
        <ele>82</ele>
        <time>2020-12-30T10:10:23Z</time>
      </trkpt>
      <trkpt lat="43.65761" lon="3.7814">
        <ele>82</ele>
        <time>2020-12-30T10:10:26Z</time>
      </trkpt>
      <trkpt lat="43.65763" lon="3.78133">
        <ele>82</ele>
        <time>2020-12-30T10:10:29Z</time>
      </trkpt>
      <trkpt lat="43.65767" lon="3.78127">
        <ele>82</ele>
        <time>2020-12-30T10:10:31Z</time>
      </trkpt>
      <trkpt lat="43.6577" lon="3.78121">
        <ele>83</ele>
        <time>2020-12-30T10:10:33Z</time>
      </trkpt>
      <trkpt lat="43.65776" lon="3.78115">
        <ele>83</ele>
        <time>2020-12-30T10:10:35Z</time>
      </trkpt>
      <trkpt lat="43.6578" lon="3.78111">
        <ele>84</ele>
        <time>2020-12-30T10:10:37Z</time>
      </trkpt>
      <trkpt lat="43.65783" lon="3.78105">
        <ele>85</ele>
        <time>2020-12-30T10:10:40Z</time>
      </trkpt>
      <trkpt lat="43.65786" lon="3.781">
        <ele>85</ele>
        <time>2020-12-30T10:10:42Z</time>
      </trkpt>
      <trkpt lat="43.65789" lon="3.78093">
        <ele>85</ele>
        <time>2020-12-30T10:10:44Z</time>
      </trkpt>
      <trkpt lat="43.65793" lon="3.78087">
        <ele>85</ele>
        <time>2020-12-30T10:10:46Z</time>
      </trkpt>
      <trkpt lat="43.65797" lon="3.78081">
        <ele>86</ele>
        <time>2020-12-30T10:10:48Z</time>
      </trkpt>
      <trkpt lat="43.65802" lon="3.78075">
        <ele>86</ele>
        <time>2020-12-30T10:10:50Z</time>
      </trkpt>
      <trkpt lat="43.6581" lon="3.78065">
        <ele>86</ele>
        <time>2020-12-30T10:10:51Z</time>
      </trkpt>
      <trkpt lat="43.65815" lon="3.78057">
        <ele>86</ele>
        <time>2020-12-30T10:10:53Z</time>
      </trkpt>
      <trkpt lat="43.65818" lon="3.7805">
        <ele>86</ele>
        <time>2020-12-30T10:10:55Z</time>
      </trkpt>
      <trkpt lat="43.65823" lon="3.78043">
        <ele>86</ele>
        <time>2020-12-30T10:10:57Z</time>
      </trkpt>
      <trkpt lat="43.65825" lon="3.78037">
        <ele>85</ele>
        <time>2020-12-30T10:10:59Z</time>
      </trkpt>
      <trkpt lat="43.65825" lon="3.7803">
        <ele>85</ele>
        <time>2020-12-30T10:11:02Z</time>
      </trkpt>
      <trkpt lat="43.65826" lon="3.7802">
        <ele>85</ele>
        <time>2020-12-30T10:11:05Z</time>
      </trkpt>
      <trkpt lat="43.65829" lon="3.78014">
        <ele>86</ele>
        <time>2020-12-30T10:11:07Z</time>
      </trkpt>
      <trkpt lat="43.65833" lon="3.78008">
        <ele>86</ele>
        <time>2020-12-30T10:11:09Z</time>
      </trkpt>
      <trkpt lat="43.65837" lon="3.78002">
        <ele>87</ele>
        <time>2020-12-30T10:11:11Z</time>
      </trkpt>
      <trkpt lat="43.65842" lon="3.77992">
        <ele>87</ele>
        <time>2020-12-30T10:11:13Z</time>
      </trkpt>
      <trkpt lat="43.65844" lon="3.77983">
        <ele>87</ele>
        <time>2020-12-30T10:11:15Z</time>
      </trkpt>
      <trkpt lat="43.65849" lon="3.77976">
        <ele>87</ele>
        <time>2020-12-30T10:11:17Z</time>
      </trkpt>
      <trkpt lat="43.65856" lon="3.7797">
        <ele>87</ele>
        <time>2020-12-30T10:11:19Z</time>
      </trkpt>
      <trkpt lat="43.65862" lon="3.77963">
        <ele>87</ele>
        <time>2020-12-30T10:11:21Z</time>
      </trkpt>
      <trkpt lat="43.65868" lon="3.77956">
        <ele>87</ele>
        <time>2020-12-30T10:11:23Z</time>
      </trkpt>
      <trkpt lat="43.65874" lon="3.77951">
        <ele>87</ele>
        <time>2020-12-30T10:11:25Z</time>
      </trkpt>
      <trkpt lat="43.6588" lon="3.77943">
        <ele>87</ele>
        <time>2020-12-30T10:11:27Z</time>
      </trkpt>
      <trkpt lat="43.65885" lon="3.77935">
        <ele>86</ele>
        <time>2020-12-30T10:11:29Z</time>
      </trkpt>
      <trkpt lat="43.65891" lon="3.77926">
        <ele>86</ele>
        <time>2020-12-30T10:11:31Z</time>
      </trkpt>
      <trkpt lat="43.65896" lon="3.77918">
        <ele>86</ele>
        <time>2020-12-30T10:11:33Z</time>
      </trkpt>
      <trkpt lat="43.65901" lon="3.7791">
        <ele>86</ele>
        <time>2020-12-30T10:11:35Z</time>
      </trkpt>
      <trkpt lat="43.65906" lon="3.77903">
        <ele>86</ele>
        <time>2020-12-30T10:11:37Z</time>
      </trkpt>
      <trkpt lat="43.65912" lon="3.77898">
        <ele>87</ele>
        <time>2020-12-30T10:11:39Z</time>
      </trkpt>
      <trkpt lat="43.65917" lon="3.77892">
        <ele>86</ele>
        <time>2020-12-30T10:11:41Z</time>
      </trkpt>
      <trkpt lat="43.65921" lon="3.77885">
        <ele>87</ele>
        <time>2020-12-30T10:11:43Z</time>
      </trkpt>
      <trkpt lat="43.65926" lon="3.77878">
        <ele>87</ele>
        <time>2020-12-30T10:11:45Z</time>
      </trkpt>
      <trkpt lat="43.65933" lon="3.77872">
        <ele>88</ele>
        <time>2020-12-30T10:11:47Z</time>
      </trkpt>
      <trkpt lat="43.65939" lon="3.77866">
        <ele>88</ele>
        <time>2020-12-30T10:11:49Z</time>
      </trkpt>
      <trkpt lat="43.65943" lon="3.77858">
        <ele>89</ele>
        <time>2020-12-30T10:11:51Z</time>
      </trkpt>
      <trkpt lat="43.65949" lon="3.77852">
        <ele>89</ele>
        <time>2020-12-30T10:11:53Z</time>
      </trkpt>
      <trkpt lat="43.65954" lon="3.77845">
        <ele>89</ele>
        <time>2020-12-30T10:11:55Z</time>
      </trkpt>
      <trkpt lat="43.6596" lon="3.77836">
        <ele>89</ele>
        <time>2020-12-30T10:11:57Z</time>
      </trkpt>
      <trkpt lat="43.65963" lon="3.77831">
        <ele>88</ele>
        <time>2020-12-30T10:11:59Z</time>
      </trkpt>
      <trkpt lat="43.6597" lon="3.77815">
        <ele>88</ele>
        <time>2020-12-30T10:12:02Z</time>
      </trkpt>
      <trkpt lat="43.65975" lon="3.77807">
        <ele>88</ele>
        <time>2020-12-30T10:12:04Z</time>
      </trkpt>
      <trkpt lat="43.65982" lon="3.77801">
        <ele>87</ele>
        <time>2020-12-30T10:12:06Z</time>
      </trkpt>
      <trkpt lat="43.65986" lon="3.77793">
        <ele>86</ele>
        <time>2020-12-30T10:12:08Z</time>
      </trkpt>
      <trkpt lat="43.6599" lon="3.77785">
        <ele>86</ele>
        <time>2020-12-30T10:12:10Z</time>
      </trkpt>
      <trkpt lat="43.65994" lon="3.77776">
        <ele>85</ele>
        <time>2020-12-30T10:12:12Z</time>
      </trkpt>
      <trkpt lat="43.65995" lon="3.7777">
        <ele>84</ele>
        <time>2020-12-30T10:12:15Z</time>
      </trkpt>
      <trkpt lat="43.66002" lon="3.77756">
        <ele>85</ele>
        <time>2020-12-30T10:12:17Z</time>
      </trkpt>
      <trkpt lat="43.66005" lon="3.77747">
        <ele>86</ele>
        <time>2020-12-30T10:12:19Z</time>
      </trkpt>
      <trkpt lat="43.66007" lon="3.7774">
        <ele>87</ele>
        <time>2020-12-30T10:12:21Z</time>
      </trkpt>
      <trkpt lat="43.6601" lon="3.77733">
        <ele>87</ele>
        <time>2020-12-30T10:12:23Z</time>
      </trkpt>
      <trkpt lat="43.66012" lon="3.77726">
        <ele>88</ele>
        <time>2020-12-30T10:12:26Z</time>
      </trkpt>
      <trkpt lat="43.66015" lon="3.7772">
        <ele>88</ele>
        <time>2020-12-30T10:12:28Z</time>
      </trkpt>
      <trkpt lat="43.66023" lon="3.77706">
        <ele>88</ele>
        <time>2020-12-30T10:12:31Z</time>
      </trkpt>
      <trkpt lat="43.66025" lon="3.777">
        <ele>88</ele>
        <time>2020-12-30T10:12:32Z</time>
      </trkpt>
      <trkpt lat="43.66028" lon="3.77692">
        <ele>88</ele>
        <time>2020-12-30T10:12:34Z</time>
      </trkpt>
      <trkpt lat="43.66031" lon="3.77685">
        <ele>89</ele>
        <time>2020-12-30T10:12:36Z</time>
      </trkpt>
      <trkpt lat="43.66034" lon="3.77677">
        <ele>89</ele>
        <time>2020-12-30T10:12:38Z</time>
      </trkpt>
      <trkpt lat="43.66037" lon="3.7767">
        <ele>89</ele>
        <time>2020-12-30T10:12:40Z</time>
      </trkpt>
      <trkpt lat="43.6604" lon="3.77663">
        <ele>90</ele>
        <time>2020-12-30T10:12:42Z</time>
      </trkpt>
      <trkpt lat="43.66043" lon="3.77657">
        <ele>90</ele>
        <time>2020-12-30T10:12:44Z</time>
      </trkpt>
      <trkpt lat="43.66045" lon="3.7765">
        <ele>91</ele>
        <time>2020-12-30T10:12:46Z</time>
      </trkpt>
      <trkpt lat="43.66048" lon="3.77643">
        <ele>91</ele>
        <time>2020-12-30T10:12:48Z</time>
      </trkpt>
      <trkpt lat="43.66052" lon="3.77635">
        <ele>92</ele>
        <time>2020-12-30T10:12:50Z</time>
      </trkpt>
      <trkpt lat="43.66054" lon="3.77629">
        <ele>92</ele>
        <time>2020-12-30T10:12:52Z</time>
      </trkpt>
      <trkpt lat="43.66057" lon="3.77622">
        <ele>93</ele>
        <time>2020-12-30T10:12:55Z</time>
      </trkpt>
      <trkpt lat="43.66061" lon="3.77613">
        <ele>93</ele>
        <time>2020-12-30T10:12:56Z</time>
      </trkpt>
      <trkpt lat="43.66065" lon="3.77606">
        <ele>94</ele>
        <time>2020-12-30T10:12:58Z</time>
      </trkpt>
      <trkpt lat="43.66067" lon="3.77599">
        <ele>95</ele>
        <time>2020-12-30T10:13:00Z</time>
      </trkpt>
      <trkpt lat="43.66068" lon="3.77593">
        <ele>95</ele>
        <time>2020-12-30T10:13:02Z</time>
      </trkpt>
      <trkpt lat="43.66071" lon="3.77587">
        <ele>96</ele>
        <time>2020-12-30T10:13:04Z</time>
      </trkpt>
      <trkpt lat="43.66074" lon="3.77581">
        <ele>96</ele>
        <time>2020-12-30T10:13:08Z</time>
      </trkpt>
      <trkpt lat="43.66077" lon="3.77575">
        <ele>97</ele>
        <time>2020-12-30T10:13:10Z</time>
      </trkpt>
      <trkpt lat="43.66081" lon="3.77569">
        <ele>96</ele>
        <time>2020-12-30T10:13:13Z</time>
      </trkpt>
      <trkpt lat="43.66084" lon="3.77564">
        <ele>96</ele>
        <time>2020-12-30T10:13:15Z</time>
      </trkpt>
      <trkpt lat="43.66087" lon="3.77556">
        <ele>96</ele>
        <time>2020-12-30T10:13:18Z</time>
      </trkpt>
      <trkpt lat="43.66089" lon="3.77548">
        <ele>96</ele>
        <time>2020-12-30T10:13:21Z</time>
      </trkpt>
      <trkpt lat="43.66091" lon="3.77541">
        <ele>97</ele>
        <time>2020-12-30T10:13:24Z</time>
      </trkpt>
      <trkpt lat="43.66093" lon="3.77533">
        <ele>97</ele>
        <time>2020-12-30T10:13:27Z</time>
      </trkpt>
      <trkpt lat="43.66095" lon="3.77527">
        <ele>97</ele>
        <time>2020-12-30T10:13:31Z</time>
      </trkpt>
      <trkpt lat="43.661" lon="3.77521">
        <ele>98</ele>
        <time>2020-12-30T10:13:34Z</time>
      </trkpt>
      <trkpt lat="43.66106" lon="3.77517">
        <ele>99</ele>
        <time>2020-12-30T10:13:37Z</time>
      </trkpt>
      <trkpt lat="43.6611" lon="3.77513">
        <ele>100</ele>
        <time>2020-12-30T10:13:40Z</time>
      </trkpt>
      <trkpt lat="43.66114" lon="3.77509">
        <ele>101</ele>
        <time>2020-12-30T10:13:43Z</time>
      </trkpt>
      <trkpt lat="43.66119" lon="3.77505">
        <ele>102</ele>
        <time>2020-12-30T10:13:47Z</time>
      </trkpt>
      <trkpt lat="43.66124" lon="3.77498">
        <ele>102</ele>
        <time>2020-12-30T10:13:50Z</time>
      </trkpt>
      <trkpt lat="43.66127" lon="3.77492">
        <ele>103</ele>
        <time>2020-12-30T10:13:52Z</time>
      </trkpt>
      <trkpt lat="43.66131" lon="3.77485">
        <ele>103</ele>
        <time>2020-12-30T10:13:54Z</time>
      </trkpt>
      <trkpt lat="43.66132" lon="3.77478">
        <ele>103</ele>
        <time>2020-12-30T10:13:56Z</time>
      </trkpt>
      <trkpt lat="43.66135" lon="3.77472">
        <ele>103</ele>
        <time>2020-12-30T10:13:58Z</time>
      </trkpt>
      <trkpt lat="43.66137" lon="3.77466">
        <ele>102</ele>
        <time>2020-12-30T10:14:00Z</time>
      </trkpt>
      <trkpt lat="43.66139" lon="3.77459">
        <ele>102</ele>
        <time>2020-12-30T10:14:02Z</time>
      </trkpt>
      <trkpt lat="43.66142" lon="3.77452">
        <ele>101</ele>
        <time>2020-12-30T10:14:05Z</time>
      </trkpt>
      <trkpt lat="43.66145" lon="3.77447">
        <ele>101</ele>
        <time>2020-12-30T10:14:07Z</time>
      </trkpt>
      <trkpt lat="43.66148" lon="3.77441">
        <ele>100</ele>
        <time>2020-12-30T10:14:08Z</time>
      </trkpt>
      <trkpt lat="43.66151" lon="3.77436">
        <ele>100</ele>
        <time>2020-12-30T10:14:09Z</time>
      </trkpt>
      <trkpt lat="43.66155" lon="3.77429">
        <ele>99</ele>
        <time>2020-12-30T10:14:10Z</time>
      </trkpt>
      <trkpt lat="43.66159" lon="3.77425">
        <ele>99</ele>
        <time>2020-12-30T10:14:11Z</time>
      </trkpt>
      <trkpt lat="43.66166" lon="3.7742">
        <ele>99</ele>
        <time>2020-12-30T10:14:13Z</time>
      </trkpt>
      <trkpt lat="43.66172" lon="3.77413">
        <ele>98</ele>
        <time>2020-12-30T10:14:15Z</time>
      </trkpt>
      <trkpt lat="43.66177" lon="3.77405">
        <ele>98</ele>
        <time>2020-12-30T10:14:17Z</time>
      </trkpt>
      <trkpt lat="43.66181" lon="3.774">
        <ele>97</ele>
        <time>2020-12-30T10:14:18Z</time>
      </trkpt>
      <trkpt lat="43.66184" lon="3.77394">
        <ele>97</ele>
        <time>2020-12-30T10:14:20Z</time>
      </trkpt>
      <trkpt lat="43.66187" lon="3.77385">
        <ele>96</ele>
        <time>2020-12-30T10:14:22Z</time>
      </trkpt>
      <trkpt lat="43.6619" lon="3.77373">
        <ele>96</ele>
        <time>2020-12-30T10:14:24Z</time>
      </trkpt>
      <trkpt lat="43.66191" lon="3.77367">
        <ele>95</ele>
        <time>2020-12-30T10:14:25Z</time>
      </trkpt>
      <trkpt lat="43.66192" lon="3.77355">
        <ele>95</ele>
        <time>2020-12-30T10:14:27Z</time>
      </trkpt>
      <trkpt lat="43.66193" lon="3.77346">
        <ele>95</ele>
        <time>2020-12-30T10:14:29Z</time>
      </trkpt>
      <trkpt lat="43.66196" lon="3.77334">
        <ele>94</ele>
        <time>2020-12-30T10:14:31Z</time>
      </trkpt>
      <trkpt lat="43.66199" lon="3.77325">
        <ele>94</ele>
        <time>2020-12-30T10:14:33Z</time>
      </trkpt>
      <trkpt lat="43.66202" lon="3.77314">
        <ele>93</ele>
        <time>2020-12-30T10:14:35Z</time>
      </trkpt>
      <trkpt lat="43.66204" lon="3.77303">
        <ele>92</ele>
        <time>2020-12-30T10:14:37Z</time>
      </trkpt>
      <trkpt lat="43.66206" lon="3.77293">
        <ele>92</ele>
        <time>2020-12-30T10:14:39Z</time>
      </trkpt>
      <trkpt lat="43.66207" lon="3.77285">
        <ele>91</ele>
        <time>2020-12-30T10:14:41Z</time>
      </trkpt>
      <trkpt lat="43.66208" lon="3.77272">
        <ele>91</ele>
        <time>2020-12-30T10:14:43Z</time>
      </trkpt>
      <trkpt lat="43.66209" lon="3.77265">
        <ele>90</ele>
        <time>2020-12-30T10:14:44Z</time>
      </trkpt>
      <trkpt lat="43.66211" lon="3.77254">
        <ele>90</ele>
        <time>2020-12-30T10:14:46Z</time>
      </trkpt>
      <trkpt lat="43.66213" lon="3.77243">
        <ele>90</ele>
        <time>2020-12-30T10:14:48Z</time>
      </trkpt>
      <trkpt lat="43.66214" lon="3.77234">
        <ele>90</ele>
        <time>2020-12-30T10:14:50Z</time>
      </trkpt>
      <trkpt lat="43.66216" lon="3.77224">
        <ele>89</ele>
        <time>2020-12-30T10:14:51Z</time>
      </trkpt>
      <trkpt lat="43.66217" lon="3.77217">
        <ele>89</ele>
        <time>2020-12-30T10:14:52Z</time>
      </trkpt>
      <trkpt lat="43.66219" lon="3.77207">
        <ele>89</ele>
        <time>2020-12-30T10:14:54Z</time>
      </trkpt>
      <trkpt lat="43.66221" lon="3.77197">
        <ele>89</ele>
        <time>2020-12-30T10:14:56Z</time>
      </trkpt>
      <trkpt lat="43.66222" lon="3.77186">
        <ele>88</ele>
        <time>2020-12-30T10:14:58Z</time>
      </trkpt>
      <trkpt lat="43.66224" lon="3.77177">
        <ele>88</ele>
        <time>2020-12-30T10:15:00Z</time>
      </trkpt>
      <trkpt lat="43.66225" lon="3.77167">
        <ele>88</ele>
        <time>2020-12-30T10:15:03Z</time>
      </trkpt>
      <trkpt lat="43.66227" lon="3.77158">
        <ele>87</ele>
        <time>2020-12-30T10:15:04Z</time>
      </trkpt>
      <trkpt lat="43.66228" lon="3.77146">
        <ele>87</ele>
        <time>2020-12-30T10:15:06Z</time>
      </trkpt>
      <trkpt lat="43.66228" lon="3.77135">
        <ele>86</ele>
        <time>2020-12-30T10:15:08Z</time>
      </trkpt>
      <trkpt lat="43.66227" lon="3.77128">
        <ele>85</ele>
        <time>2020-12-30T10:15:10Z</time>
      </trkpt>
      <trkpt lat="43.66227" lon="3.7712">
        <ele>85</ele>
        <time>2020-12-30T10:15:12Z</time>
      </trkpt>
      <trkpt lat="43.66229" lon="3.77102">
        <ele>85</ele>
        <time>2020-12-30T10:15:13Z</time>
      </trkpt>
      <trkpt lat="43.66229" lon="3.77091">
        <ele>84</ele>
        <time>2020-12-30T10:15:15Z</time>
      </trkpt>
      <trkpt lat="43.66229" lon="3.77081">
        <ele>84</ele>
        <time>2020-12-30T10:15:17Z</time>
      </trkpt>
      <trkpt lat="43.66231" lon="3.77072">
        <ele>84</ele>
        <time>2020-12-30T10:15:19Z</time>
      </trkpt>
      <trkpt lat="43.66233" lon="3.77064">
        <ele>84</ele>
        <time>2020-12-30T10:15:21Z</time>
      </trkpt>
      <trkpt lat="43.66235" lon="3.77057">
        <ele>84</ele>
        <time>2020-12-30T10:15:23Z</time>
      </trkpt>
      <trkpt lat="43.66238" lon="3.77045">
        <ele>83</ele>
        <time>2020-12-30T10:15:25Z</time>
      </trkpt>
      <trkpt lat="43.66241" lon="3.77037">
        <ele>83</ele>
        <time>2020-12-30T10:15:27Z</time>
      </trkpt>
      <trkpt lat="43.66243" lon="3.77029">
        <ele>83</ele>
        <time>2020-12-30T10:15:29Z</time>
      </trkpt>
      <trkpt lat="43.66248" lon="3.77024">
        <ele>83</ele>
        <time>2020-12-30T10:15:31Z</time>
      </trkpt>
      <trkpt lat="43.66252" lon="3.77018">
        <ele>82</ele>
        <time>2020-12-30T10:15:33Z</time>
      </trkpt>
      <trkpt lat="43.66256" lon="3.77011">
        <ele>82</ele>
        <time>2020-12-30T10:15:35Z</time>
      </trkpt>
      <trkpt lat="43.66259" lon="3.77001">
        <ele>81</ele>
        <time>2020-12-30T10:15:37Z</time>
      </trkpt>
      <trkpt lat="43.66261" lon="3.76994">
        <ele>81</ele>
        <time>2020-12-30T10:15:38Z</time>
      </trkpt>
      <trkpt lat="43.66263" lon="3.76983">
        <ele>81</ele>
        <time>2020-12-30T10:15:40Z</time>
      </trkpt>
      <trkpt lat="43.66267" lon="3.76971">
        <ele>81</ele>
        <time>2020-12-30T10:15:42Z</time>
      </trkpt>
      <trkpt lat="43.66268" lon="3.76965">
        <ele>81</ele>
        <time>2020-12-30T10:15:43Z</time>
      </trkpt>
      <trkpt lat="43.66269" lon="3.76959">
        <ele>81</ele>
        <time>2020-12-30T10:15:44Z</time>
      </trkpt>
      <trkpt lat="43.66272" lon="3.76947">
        <ele>81</ele>
        <time>2020-12-30T10:15:46Z</time>
      </trkpt>
      <trkpt lat="43.66274" lon="3.76941">
        <ele>81</ele>
        <time>2020-12-30T10:15:47Z</time>
      </trkpt>
      <trkpt lat="43.66275" lon="3.76934">
        <ele>81</ele>
        <time>2020-12-30T10:15:48Z</time>
      </trkpt>
      <trkpt lat="43.66278" lon="3.76928">
        <ele>81</ele>
        <time>2020-12-30T10:15:49Z</time>
      </trkpt>
      <trkpt lat="43.6628" lon="3.76922">
        <ele>80</ele>
        <time>2020-12-30T10:15:50Z</time>
      </trkpt>
      <trkpt lat="43.66282" lon="3.76915">
        <ele>80</ele>
        <time>2020-12-30T10:15:51Z</time>
      </trkpt>
      <trkpt lat="43.66284" lon="3.76909">
        <ele>80</ele>
        <time>2020-12-30T10:15:52Z</time>
      </trkpt>
      <trkpt lat="43.66286" lon="3.76902">
        <ele>80</ele>
        <time>2020-12-30T10:15:53Z</time>
      </trkpt>
      <trkpt lat="43.66287" lon="3.76896">
        <ele>79</ele>
        <time>2020-12-30T10:15:54Z</time>
      </trkpt>
      <trkpt lat="43.66289" lon="3.7689">
        <ele>79</ele>
        <time>2020-12-30T10:15:55Z</time>
      </trkpt>
      <trkpt lat="43.66291" lon="3.76884">
        <ele>79</ele>
        <time>2020-12-30T10:15:56Z</time>
      </trkpt>
      <trkpt lat="43.66292" lon="3.76877">
        <ele>79</ele>
        <time>2020-12-30T10:15:57Z</time>
      </trkpt>
      <trkpt lat="43.66294" lon="3.76871">
        <ele>79</ele>
        <time>2020-12-30T10:15:58Z</time>
      </trkpt>
      <trkpt lat="43.66296" lon="3.7686">
        <ele>79</ele>
        <time>2020-12-30T10:16:00Z</time>
      </trkpt>
      <trkpt lat="43.66298" lon="3.76849">
        <ele>79</ele>
        <time>2020-12-30T10:16:02Z</time>
      </trkpt>
      <trkpt lat="43.663" lon="3.76839">
        <ele>79</ele>
        <time>2020-12-30T10:16:04Z</time>
      </trkpt>
      <trkpt lat="43.66303" lon="3.76831">
        <ele>79</ele>
        <time>2020-12-30T10:16:06Z</time>
      </trkpt>
      <trkpt lat="43.6631" lon="3.7683">
        <ele>79</ele>
        <time>2020-12-30T10:16:08Z</time>
      </trkpt>
      <trkpt lat="43.66317" lon="3.76836">
        <ele>79</ele>
        <time>2020-12-30T10:16:10Z</time>
      </trkpt>
      <trkpt lat="43.66324" lon="3.76842">
        <ele>79</ele>
        <time>2020-12-30T10:16:13Z</time>
      </trkpt>
      <trkpt lat="43.66328" lon="3.76846">
        <ele>79</ele>
        <time>2020-12-30T10:16:14Z</time>
      </trkpt>
      <trkpt lat="43.66331" lon="3.76852">
        <ele>79</ele>
        <time>2020-12-30T10:16:15Z</time>
      </trkpt>
      <trkpt lat="43.66335" lon="3.76856">
        <ele>79</ele>
        <time>2020-12-30T10:16:16Z</time>
      </trkpt>
      <trkpt lat="43.6634" lon="3.76861">
        <ele>79</ele>
        <time>2020-12-30T10:16:17Z</time>
      </trkpt>
      <trkpt lat="43.66344" lon="3.76864">
        <ele>79</ele>
        <time>2020-12-30T10:16:18Z</time>
      </trkpt>
      <trkpt lat="43.66348" lon="3.76868">
        <ele>79</ele>
        <time>2020-12-30T10:16:19Z</time>
      </trkpt>
      <trkpt lat="43.66353" lon="3.76872">
        <ele>79</ele>
        <time>2020-12-30T10:16:20Z</time>
      </trkpt>
      <trkpt lat="43.66356" lon="3.76876">
        <ele>79</ele>
        <time>2020-12-30T10:16:21Z</time>
      </trkpt>
      <trkpt lat="43.66361" lon="3.7688">
        <ele>79</ele>
        <time>2020-12-30T10:16:22Z</time>
      </trkpt>
      <trkpt lat="43.66367" lon="3.76885">
        <ele>79</ele>
        <time>2020-12-30T10:16:23Z</time>
      </trkpt>
      <trkpt lat="43.66372" lon="3.7689">
        <ele>79</ele>
        <time>2020-12-30T10:16:24Z</time>
      </trkpt>
      <trkpt lat="43.66376" lon="3.76893">
        <ele>79</ele>
        <time>2020-12-30T10:16:25Z</time>
      </trkpt>
      <trkpt lat="43.66381" lon="3.76898">
        <ele>78</ele>
        <time>2020-12-30T10:16:26Z</time>
      </trkpt>
      <trkpt lat="43.66386" lon="3.76901">
        <ele>78</ele>
        <time>2020-12-30T10:16:27Z</time>
      </trkpt>
      <trkpt lat="43.6639" lon="3.76905">
        <ele>78</ele>
        <time>2020-12-30T10:16:28Z</time>
      </trkpt>
      <trkpt lat="43.66394" lon="3.76909">
        <ele>78</ele>
        <time>2020-12-30T10:16:29Z</time>
      </trkpt>
      <trkpt lat="43.66399" lon="3.76913">
        <ele>78</ele>
        <time>2020-12-30T10:16:30Z</time>
      </trkpt>
      <trkpt lat="43.66404" lon="3.76917">
        <ele>78</ele>
        <time>2020-12-30T10:16:31Z</time>
      </trkpt>
      <trkpt lat="43.66408" lon="3.7692">
        <ele>78</ele>
        <time>2020-12-30T10:16:32Z</time>
      </trkpt>
      <trkpt lat="43.66412" lon="3.76924">
        <ele>78</ele>
        <time>2020-12-30T10:16:33Z</time>
      </trkpt>
      <trkpt lat="43.66417" lon="3.76927">
        <ele>78</ele>
        <time>2020-12-30T10:16:34Z</time>
      </trkpt>
      <trkpt lat="43.66423" lon="3.76932">
        <ele>77</ele>
        <time>2020-12-30T10:16:35Z</time>
      </trkpt>
      <trkpt lat="43.66427" lon="3.76937">
        <ele>77</ele>
        <time>2020-12-30T10:16:36Z</time>
      </trkpt>
      <trkpt lat="43.66431" lon="3.76943">
        <ele>76</ele>
        <time>2020-12-30T10:16:37Z</time>
      </trkpt>
      <trkpt lat="43.66434" lon="3.76952">
        <ele>76</ele>
        <time>2020-12-30T10:16:38Z</time>
      </trkpt>
      <trkpt lat="43.66438" lon="3.76958">
        <ele>75</ele>
        <time>2020-12-30T10:16:39Z</time>
      </trkpt>
      <trkpt lat="43.66442" lon="3.76966">
        <ele>75</ele>
        <time>2020-12-30T10:16:40Z</time>
      </trkpt>
      <trkpt lat="43.66445" lon="3.76975">
        <ele>75</ele>
        <time>2020-12-30T10:16:41Z</time>
      </trkpt>
      <trkpt lat="43.66448" lon="3.76983">
        <ele>75</ele>
        <time>2020-12-30T10:16:42Z</time>
      </trkpt>
      <trkpt lat="43.66451" lon="3.7699">
        <ele>75</ele>
        <time>2020-12-30T10:16:43Z</time>
      </trkpt>
      <trkpt lat="43.66455" lon="3.76997">
        <ele>75</ele>
        <time>2020-12-30T10:16:44Z</time>
      </trkpt>
      <trkpt lat="43.66457" lon="3.77004">
        <ele>75</ele>
        <time>2020-12-30T10:16:45Z</time>
      </trkpt>
      <trkpt lat="43.66462" lon="3.77011">
        <ele>75</ele>
        <time>2020-12-30T10:16:46Z</time>
      </trkpt>
      <trkpt lat="43.66466" lon="3.77017">
        <ele>75</ele>
        <time>2020-12-30T10:16:47Z</time>
      </trkpt>
      <trkpt lat="43.6647" lon="3.77023">
        <ele>75</ele>
        <time>2020-12-30T10:16:48Z</time>
      </trkpt>
      <trkpt lat="43.66472" lon="3.7703">
        <ele>75</ele>
        <time>2020-12-30T10:16:49Z</time>
      </trkpt>
      <trkpt lat="43.66473" lon="3.77038">
        <ele>75</ele>
        <time>2020-12-30T10:16:50Z</time>
      </trkpt>
      <trkpt lat="43.66473" lon="3.77046">
        <ele>75</ele>
        <time>2020-12-30T10:16:51Z</time>
      </trkpt>
      <trkpt lat="43.66473" lon="3.77054">
        <ele>75</ele>
        <time>2020-12-30T10:16:52Z</time>
      </trkpt>
      <trkpt lat="43.66475" lon="3.77063">
        <ele>75</ele>
        <time>2020-12-30T10:16:53Z</time>
      </trkpt>
      <trkpt lat="43.66476" lon="3.77071">
        <ele>75</ele>
        <time>2020-12-30T10:16:54Z</time>
      </trkpt>
      <trkpt lat="43.66478" lon="3.77079">
        <ele>75</ele>
        <time>2020-12-30T10:16:55Z</time>
      </trkpt>
      <trkpt lat="43.66479" lon="3.77087">
        <ele>75</ele>
        <time>2020-12-30T10:16:56Z</time>
      </trkpt>
      <trkpt lat="43.66481" lon="3.77094">
        <ele>74</ele>
        <time>2020-12-30T10:16:57Z</time>
      </trkpt>
      <trkpt lat="43.66483" lon="3.77103">
        <ele>75</ele>
        <time>2020-12-30T10:16:58Z</time>
      </trkpt>
      <trkpt lat="43.66485" lon="3.77111">
        <ele>75</ele>
        <time>2020-12-30T10:16:59Z</time>
      </trkpt>
      <trkpt lat="43.66486" lon="3.77119">
        <ele>75</ele>
        <time>2020-12-30T10:17:00Z</time>
      </trkpt>
      <trkpt lat="43.66489" lon="3.77129">
        <ele>75</ele>
        <time>2020-12-30T10:17:01Z</time>
      </trkpt>
      <trkpt lat="43.66493" lon="3.77137">
        <ele>74</ele>
        <time>2020-12-30T10:17:02Z</time>
      </trkpt>
      <trkpt lat="43.66496" lon="3.77145">
        <ele>74</ele>
        <time>2020-12-30T10:17:03Z</time>
      </trkpt>
      <trkpt lat="43.66499" lon="3.77154">
        <ele>74</ele>
        <time>2020-12-30T10:17:04Z</time>
      </trkpt>
      <trkpt lat="43.66502" lon="3.77163">
        <ele>73</ele>
        <time>2020-12-30T10:17:05Z</time>
      </trkpt>
      <trkpt lat="43.66504" lon="3.77172">
        <ele>73</ele>
        <time>2020-12-30T10:17:06Z</time>
      </trkpt>
      <trkpt lat="43.66507" lon="3.77181">
        <ele>73</ele>
        <time>2020-12-30T10:17:07Z</time>
      </trkpt>
      <trkpt lat="43.6651" lon="3.77189">
        <ele>73</ele>
        <time>2020-12-30T10:17:08Z</time>
      </trkpt>
      <trkpt lat="43.66514" lon="3.77194">
        <ele>73</ele>
        <time>2020-12-30T10:17:09Z</time>
      </trkpt>
      <trkpt lat="43.66519" lon="3.77198">
        <ele>72</ele>
        <time>2020-12-30T10:17:10Z</time>
      </trkpt>
      <trkpt lat="43.66525" lon="3.77198">
        <ele>72</ele>
        <time>2020-12-30T10:17:11Z</time>
      </trkpt>
      <trkpt lat="43.66531" lon="3.77195">
        <ele>71</ele>
        <time>2020-12-30T10:17:12Z</time>
      </trkpt>
      <trkpt lat="43.66536" lon="3.77191">
        <ele>71</ele>
        <time>2020-12-30T10:17:13Z</time>
      </trkpt>
      <trkpt lat="43.66542" lon="3.77186">
        <ele>71</ele>
        <time>2020-12-30T10:17:14Z</time>
      </trkpt>
      <trkpt lat="43.66547" lon="3.77183">
        <ele>71</ele>
        <time>2020-12-30T10:17:15Z</time>
      </trkpt>
      <trkpt lat="43.66553" lon="3.77179">
        <ele>70</ele>
        <time>2020-12-30T10:17:16Z</time>
      </trkpt>
      <trkpt lat="43.66558" lon="3.77175">
        <ele>70</ele>
        <time>2020-12-30T10:17:17Z</time>
      </trkpt>
      <trkpt lat="43.66563" lon="3.77172">
        <ele>70</ele>
        <time>2020-12-30T10:17:18Z</time>
      </trkpt>
      <trkpt lat="43.66569" lon="3.77169">
        <ele>70</ele>
        <time>2020-12-30T10:17:19Z</time>
      </trkpt>
      <trkpt lat="43.66575" lon="3.77167">
        <ele>70</ele>
        <time>2020-12-30T10:17:20Z</time>
      </trkpt>
      <trkpt lat="43.66581" lon="3.77167">
        <ele>70</ele>
        <time>2020-12-30T10:17:21Z</time>
      </trkpt>
      <trkpt lat="43.66587" lon="3.7717">
        <ele>70</ele>
        <time>2020-12-30T10:17:22Z</time>
      </trkpt>
      <trkpt lat="43.66592" lon="3.77176">
        <ele>70</ele>
        <time>2020-12-30T10:17:23Z</time>
      </trkpt>
      <trkpt lat="43.66595" lon="3.77184">
        <ele>70</ele>
        <time>2020-12-30T10:17:24Z</time>
      </trkpt>
      <trkpt lat="43.66597" lon="3.77192">
        <ele>70</ele>
        <time>2020-12-30T10:17:25Z</time>
      </trkpt>
      <trkpt lat="43.66599" lon="3.772">
        <ele>70</ele>
        <time>2020-12-30T10:17:26Z</time>
      </trkpt>
      <trkpt lat="43.66602" lon="3.77209">
        <ele>70</ele>
        <time>2020-12-30T10:17:27Z</time>
      </trkpt>
      <trkpt lat="43.66604" lon="3.77217">
        <ele>70</ele>
        <time>2020-12-30T10:17:28Z</time>
      </trkpt>
      <trkpt lat="43.66607" lon="3.77225">
        <ele>70</ele>
        <time>2020-12-30T10:17:29Z</time>
      </trkpt>
      <trkpt lat="43.66611" lon="3.77232">
        <ele>70</ele>
        <time>2020-12-30T10:17:30Z</time>
      </trkpt>
      <trkpt lat="43.66615" lon="3.77239">
        <ele>70</ele>
        <time>2020-12-30T10:17:31Z</time>
      </trkpt>
      <trkpt lat="43.66621" lon="3.77245">
        <ele>70</ele>
        <time>2020-12-30T10:17:32Z</time>
      </trkpt>
      <trkpt lat="43.66625" lon="3.77252">
        <ele>70</ele>
        <time>2020-12-30T10:17:33Z</time>
      </trkpt>
      <trkpt lat="43.66631" lon="3.77257">
        <ele>69</ele>
        <time>2020-12-30T10:17:34Z</time>
      </trkpt>
      <trkpt lat="43.66634" lon="3.77262">
        <ele>69</ele>
        <time>2020-12-30T10:17:35Z</time>
      </trkpt>
      <trkpt lat="43.66639" lon="3.77268">
        <ele>69</ele>
        <time>2020-12-30T10:17:36Z</time>
      </trkpt>
      <trkpt lat="43.66644" lon="3.77273">
        <ele>69</ele>
        <time>2020-12-30T10:17:37Z</time>
      </trkpt>
      <trkpt lat="43.66648" lon="3.77278">
        <ele>69</ele>
        <time>2020-12-30T10:17:38Z</time>
      </trkpt>
      <trkpt lat="43.66653" lon="3.77283">
        <ele>69</ele>
        <time>2020-12-30T10:17:39Z</time>
      </trkpt>
      <trkpt lat="43.66657" lon="3.77288">
        <ele>69</ele>
        <time>2020-12-30T10:17:40Z</time>
      </trkpt>
      <trkpt lat="43.66662" lon="3.77293">
        <ele>69</ele>
        <time>2020-12-30T10:17:41Z</time>
      </trkpt>
      <trkpt lat="43.66667" lon="3.773">
        <ele>69</ele>
        <time>2020-12-30T10:17:42Z</time>
      </trkpt>
      <trkpt lat="43.66673" lon="3.77306">
        <ele>68</ele>
        <time>2020-12-30T10:17:43Z</time>
      </trkpt>
      <trkpt lat="43.66678" lon="3.77312">
        <ele>68</ele>
        <time>2020-12-30T10:17:44Z</time>
      </trkpt>
      <trkpt lat="43.66683" lon="3.77319">
        <ele>68</ele>
        <time>2020-12-30T10:17:45Z</time>
      </trkpt>
      <trkpt lat="43.66685" lon="3.77326">
        <ele>68</ele>
        <time>2020-12-30T10:17:46Z</time>
      </trkpt>
      <trkpt lat="43.66688" lon="3.77334">
        <ele>68</ele>
        <time>2020-12-30T10:17:47Z</time>
      </trkpt>
      <trkpt lat="43.66689" lon="3.77342">
        <ele>68</ele>
        <time>2020-12-30T10:17:48Z</time>
      </trkpt>
      <trkpt lat="43.66688" lon="3.77349">
        <ele>68</ele>
        <time>2020-12-30T10:17:49Z</time>
      </trkpt>
      <trkpt lat="43.66687" lon="3.77356">
        <ele>68</ele>
        <time>2020-12-30T10:17:50Z</time>
      </trkpt>
      <trkpt lat="43.66684" lon="3.77366">
        <ele>69</ele>
        <time>2020-12-30T10:17:52Z</time>
      </trkpt>
      <trkpt lat="43.66681" lon="3.77375">
        <ele>70</ele>
        <time>2020-12-30T10:17:54Z</time>
      </trkpt>
      <trkpt lat="43.66678" lon="3.77383">
        <ele>71</ele>
        <time>2020-12-30T10:17:56Z</time>
      </trkpt>
      <trkpt lat="43.66676" lon="3.77391">
        <ele>72</ele>
        <time>2020-12-30T10:17:58Z</time>
      </trkpt>
      <trkpt lat="43.66674" lon="3.77397">
        <ele>73</ele>
        <time>2020-12-30T10:18:00Z</time>
      </trkpt>
      <trkpt lat="43.66674" lon="3.77403">
        <ele>73</ele>
        <time>2020-12-30T10:18:02Z</time>
      </trkpt>
      <trkpt lat="43.66675" lon="3.77409">
        <ele>74</ele>
        <time>2020-12-30T10:18:04Z</time>
      </trkpt>
      <trkpt lat="43.66678" lon="3.77415">
        <ele>74</ele>
        <time>2020-12-30T10:18:06Z</time>
      </trkpt>
      <trkpt lat="43.66681" lon="3.77421">
        <ele>74</ele>
        <time>2020-12-30T10:18:08Z</time>
      </trkpt>
      <trkpt lat="43.66686" lon="3.77423">
        <ele>75</ele>
        <time>2020-12-30T10:18:10Z</time>
      </trkpt>
      <trkpt lat="43.66691" lon="3.77423">
        <ele>76</ele>
        <time>2020-12-30T10:18:12Z</time>
      </trkpt>
      <trkpt lat="43.66697" lon="3.7742">
        <ele>77</ele>
        <time>2020-12-30T10:18:14Z</time>
      </trkpt>
      <trkpt lat="43.66703" lon="3.77418">
        <ele>77</ele>
        <time>2020-12-30T10:18:16Z</time>
      </trkpt>
      <trkpt lat="43.66708" lon="3.77416">
        <ele>78</ele>
        <time>2020-12-30T10:18:18Z</time>
      </trkpt>
      <trkpt lat="43.66713" lon="3.77415">
        <ele>77</ele>
        <time>2020-12-30T10:18:20Z</time>
      </trkpt>
      <trkpt lat="43.66718" lon="3.77412">
        <ele>77</ele>
        <time>2020-12-30T10:18:22Z</time>
      </trkpt>
      <trkpt lat="43.66723" lon="3.77409">
        <ele>77</ele>
        <time>2020-12-30T10:18:24Z</time>
      </trkpt>
      <trkpt lat="43.66728" lon="3.77405">
        <ele>77</ele>
        <time>2020-12-30T10:18:26Z</time>
      </trkpt>
      <trkpt lat="43.66732" lon="3.77402">
        <ele>77</ele>
        <time>2020-12-30T10:18:28Z</time>
      </trkpt>
      <trkpt lat="43.66737" lon="3.77399">
        <ele>78</ele>
        <time>2020-12-30T10:18:30Z</time>
      </trkpt>
      <trkpt lat="43.66741" lon="3.77395">
        <ele>78</ele>
        <time>2020-12-30T10:18:32Z</time>
      </trkpt>
      <trkpt lat="43.66745" lon="3.77391">
        <ele>78</ele>
        <time>2020-12-30T10:18:34Z</time>
      </trkpt>
      <trkpt lat="43.6675" lon="3.77387">
        <ele>79</ele>
        <time>2020-12-30T10:18:36Z</time>
      </trkpt>
      <trkpt lat="43.66755" lon="3.77385">
        <ele>79</ele>
        <time>2020-12-30T10:18:38Z</time>
      </trkpt>
      <trkpt lat="43.66759" lon="3.77382">
        <ele>79</ele>
        <time>2020-12-30T10:18:40Z</time>
      </trkpt>
      <trkpt lat="43.66765" lon="3.77377">
        <ele>80</ele>
        <time>2020-12-30T10:18:43Z</time>
      </trkpt>
      <trkpt lat="43.66771" lon="3.77373">
        <ele>80</ele>
        <time>2020-12-30T10:18:46Z</time>
      </trkpt>
      <trkpt lat="43.66775" lon="3.7737">
        <ele>80</ele>
        <time>2020-12-30T10:18:48Z</time>
      </trkpt>
      <trkpt lat="43.66779" lon="3.77368">
        <ele>80</ele>
        <time>2020-12-30T10:18:50Z</time>
      </trkpt>
      <trkpt lat="43.66784" lon="3.77367">
        <ele>81</ele>
        <time>2020-12-30T10:18:52Z</time>
      </trkpt>
      <trkpt lat="43.6679" lon="3.77367">
        <ele>81</ele>
        <time>2020-12-30T10:18:54Z</time>
      </trkpt>
      <trkpt lat="43.66795" lon="3.77367">
        <ele>81</ele>
        <time>2020-12-30T10:18:56Z</time>
      </trkpt>
      <trkpt lat="43.66801" lon="3.77369">
        <ele>81</ele>
        <time>2020-12-30T10:18:58Z</time>
      </trkpt>
      <trkpt lat="43.66806" lon="3.77371">
        <ele>81</ele>
        <time>2020-12-30T10:19:00Z</time>
      </trkpt>
      <trkpt lat="43.66812" lon="3.77374">
        <ele>81</ele>
        <time>2020-12-30T10:19:02Z</time>
      </trkpt>
      <trkpt lat="43.66818" lon="3.77377">
        <ele>81</ele>
        <time>2020-12-30T10:19:04Z</time>
      </trkpt>
      <trkpt lat="43.66823" lon="3.77379">
        <ele>82</ele>
        <time>2020-12-30T10:19:06Z</time>
      </trkpt>
      <trkpt lat="43.66829" lon="3.77381">
        <ele>82</ele>
        <time>2020-12-30T10:19:08Z</time>
      </trkpt>
      <trkpt lat="43.66835" lon="3.77383">
        <ele>83</ele>
        <time>2020-12-30T10:19:10Z</time>
      </trkpt>
      <trkpt lat="43.66841" lon="3.77386">
        <ele>83</ele>
        <time>2020-12-30T10:19:12Z</time>
      </trkpt>
      <trkpt lat="43.66847" lon="3.77389">
        <ele>83</ele>
        <time>2020-12-30T10:19:14Z</time>
      </trkpt>
      <trkpt lat="43.66852" lon="3.77391">
        <ele>83</ele>
        <time>2020-12-30T10:19:16Z</time>
      </trkpt>
      <trkpt lat="43.66858" lon="3.77393">
        <ele>84</ele>
        <time>2020-12-30T10:19:18Z</time>
      </trkpt>
      <trkpt lat="43.66863" lon="3.77395">
        <ele>84</ele>
        <time>2020-12-30T10:19:20Z</time>
      </trkpt>
      <trkpt lat="43.66869" lon="3.77396">
        <ele>84</ele>
        <time>2020-12-30T10:19:22Z</time>
      </trkpt>
      <trkpt lat="43.66874" lon="3.77394">
        <ele>84</ele>
        <time>2020-12-30T10:19:24Z</time>
      </trkpt>
      <trkpt lat="43.66879" lon="3.77391">
        <ele>85</ele>
        <time>2020-12-30T10:19:26Z</time>
      </trkpt>
      <trkpt lat="43.66884" lon="3.77386">
        <ele>85</ele>
        <time>2020-12-30T10:19:28Z</time>
      </trkpt>
      <trkpt lat="43.66888" lon="3.77381">
        <ele>85</ele>
        <time>2020-12-30T10:19:30Z</time>
      </trkpt>
      <trkpt lat="43.66891" lon="3.77375">
        <ele>86</ele>
        <time>2020-12-30T10:19:32Z</time>
      </trkpt>
      <trkpt lat="43.66894" lon="3.77369">
        <ele>86</ele>
        <time>2020-12-30T10:19:34Z</time>
      </trkpt>
      <trkpt lat="43.66897" lon="3.77363">
        <ele>86</ele>
        <time>2020-12-30T10:19:36Z</time>
      </trkpt>
      <trkpt lat="43.669" lon="3.77356">
        <ele>86</ele>
        <time>2020-12-30T10:19:38Z</time>
      </trkpt>
      <trkpt lat="43.66902" lon="3.7735">
        <ele>86</ele>
        <time>2020-12-30T10:19:40Z</time>
      </trkpt>
      <trkpt lat="43.66905" lon="3.77343">
        <ele>86</ele>
        <time>2020-12-30T10:19:42Z</time>
      </trkpt>
      <trkpt lat="43.66908" lon="3.77338">
        <ele>86</ele>
        <time>2020-12-30T10:19:44Z</time>
      </trkpt>
      <trkpt lat="43.66911" lon="3.77332">
        <ele>87</ele>
        <time>2020-12-30T10:19:46Z</time>
      </trkpt>
      <trkpt lat="43.66914" lon="3.77327">
        <ele>87</ele>
        <time>2020-12-30T10:19:48Z</time>
      </trkpt>
      <trkpt lat="43.66918" lon="3.77322">
        <ele>87</ele>
        <time>2020-12-30T10:19:50Z</time>
      </trkpt>
      <trkpt lat="43.66922" lon="3.77318">
        <ele>87</ele>
        <time>2020-12-30T10:19:52Z</time>
      </trkpt>
      <trkpt lat="43.66925" lon="3.77314">
        <ele>88</ele>
        <time>2020-12-30T10:19:54Z</time>
      </trkpt>
      <trkpt lat="43.66929" lon="3.77309">
        <ele>88</ele>
        <time>2020-12-30T10:19:56Z</time>
      </trkpt>
      <trkpt lat="43.66933" lon="3.77304">
        <ele>89</ele>
        <time>2020-12-30T10:19:58Z</time>
      </trkpt>
      <trkpt lat="43.66937" lon="3.77299">
        <ele>89</ele>
        <time>2020-12-30T10:20:00Z</time>
      </trkpt>
      <trkpt lat="43.6694" lon="3.77295">
        <ele>90</ele>
        <time>2020-12-30T10:20:02Z</time>
      </trkpt>
      <trkpt lat="43.66944" lon="3.77291">
        <ele>90</ele>
        <time>2020-12-30T10:20:04Z</time>
      </trkpt>
      <trkpt lat="43.66948" lon="3.77286">
        <ele>90</ele>
        <time>2020-12-30T10:20:06Z</time>
      </trkpt>
      <trkpt lat="43.66951" lon="3.7728">
        <ele>90</ele>
        <time>2020-12-30T10:20:08Z</time>
      </trkpt>
      <trkpt lat="43.66954" lon="3.77274">
        <ele>90</ele>
        <time>2020-12-30T10:20:10Z</time>
      </trkpt>
      <trkpt lat="43.66958" lon="3.77268">
        <ele>91</ele>
        <time>2020-12-30T10:20:12Z</time>
      </trkpt>
      <trkpt lat="43.66961" lon="3.77262">
        <ele>91</ele>
        <time>2020-12-30T10:20:14Z</time>
      </trkpt>
      <trkpt lat="43.66964" lon="3.77257">
        <ele>91</ele>
        <time>2020-12-30T10:20:16Z</time>
      </trkpt>
      <trkpt lat="43.66966" lon="3.77252">
        <ele>92</ele>
        <time>2020-12-30T10:20:18Z</time>
      </trkpt>
      <trkpt lat="43.6697" lon="3.77247">
        <ele>92</ele>
        <time>2020-12-30T10:20:20Z</time>
      </trkpt>
      <trkpt lat="43.66973" lon="3.77242">
        <ele>93</ele>
        <time>2020-12-30T10:20:22Z</time>
      </trkpt>
      <trkpt lat="43.66977" lon="3.77237">
        <ele>93</ele>
        <time>2020-12-30T10:20:25Z</time>
      </trkpt>
      <trkpt lat="43.66982" lon="3.77234">
        <ele>94</ele>
        <time>2020-12-30T10:20:27Z</time>
      </trkpt>
      <trkpt lat="43.66987" lon="3.77231">
        <ele>94</ele>
        <time>2020-12-30T10:20:29Z</time>
      </trkpt>
      <trkpt lat="43.66993" lon="3.77228">
        <ele>95</ele>
        <time>2020-12-30T10:20:31Z</time>
      </trkpt>
      <trkpt lat="43.66999" lon="3.77224">
        <ele>96</ele>
        <time>2020-12-30T10:20:33Z</time>
      </trkpt>
      <trkpt lat="43.67004" lon="3.77221">
        <ele>97</ele>
        <time>2020-12-30T10:20:35Z</time>
      </trkpt>
      <trkpt lat="43.6701" lon="3.77218">
        <ele>97</ele>
        <time>2020-12-30T10:20:37Z</time>
      </trkpt>
      <trkpt lat="43.67016" lon="3.77214">
        <ele>98</ele>
        <time>2020-12-30T10:20:39Z</time>
      </trkpt>
      <trkpt lat="43.67022" lon="3.77211">
        <ele>99</ele>
        <time>2020-12-30T10:20:41Z</time>
      </trkpt>
      <trkpt lat="43.67027" lon="3.77208">
        <ele>99</ele>
        <time>2020-12-30T10:20:43Z</time>
      </trkpt>
      <trkpt lat="43.67032" lon="3.77205">
        <ele>100</ele>
        <time>2020-12-30T10:20:45Z</time>
      </trkpt>
      <trkpt lat="43.67037" lon="3.77201">
        <ele>100</ele>
        <time>2020-12-30T10:20:47Z</time>
      </trkpt>
      <trkpt lat="43.67043" lon="3.77198">
        <ele>101</ele>
        <time>2020-12-30T10:20:49Z</time>
      </trkpt>
      <trkpt lat="43.67049" lon="3.77194">
        <ele>101</ele>
        <time>2020-12-30T10:20:51Z</time>
      </trkpt>
      <trkpt lat="43.67055" lon="3.77191">
        <ele>101</ele>
        <time>2020-12-30T10:20:53Z</time>
      </trkpt>
      <trkpt lat="43.6706" lon="3.77187">
        <ele>101</ele>
        <time>2020-12-30T10:20:55Z</time>
      </trkpt>
      <trkpt lat="43.67065" lon="3.77183">
        <ele>102</ele>
        <time>2020-12-30T10:20:57Z</time>
      </trkpt>
      <trkpt lat="43.67071" lon="3.77179">
        <ele>102</ele>
        <time>2020-12-30T10:20:59Z</time>
      </trkpt>
      <trkpt lat="43.67076" lon="3.77174">
        <ele>102</ele>
        <time>2020-12-30T10:21:01Z</time>
      </trkpt>
      <trkpt lat="43.67081" lon="3.7717">
        <ele>102</ele>
        <time>2020-12-30T10:21:03Z</time>
      </trkpt>
      <trkpt lat="43.67086" lon="3.77167">
        <ele>102</ele>
        <time>2020-12-30T10:21:05Z</time>
      </trkpt>
      <trkpt lat="43.67091" lon="3.77164">
        <ele>102</ele>
        <time>2020-12-30T10:21:07Z</time>
      </trkpt>
      <trkpt lat="43.67097" lon="3.77161">
        <ele>102</ele>
        <time>2020-12-30T10:21:09Z</time>
      </trkpt>
      <trkpt lat="43.67102" lon="3.77159">
        <ele>102</ele>
        <time>2020-12-30T10:21:11Z</time>
      </trkpt>
      <trkpt lat="43.67107" lon="3.77156">
        <ele>102</ele>
        <time>2020-12-30T10:21:13Z</time>
      </trkpt>
      <trkpt lat="43.67111" lon="3.77153">
        <ele>103</ele>
        <time>2020-12-30T10:21:15Z</time>
      </trkpt>
      <trkpt lat="43.67116" lon="3.77151">
        <ele>103</ele>
        <time>2020-12-30T10:21:17Z</time>
      </trkpt>
      <trkpt lat="43.6712" lon="3.77149">
        <ele>103</ele>
        <time>2020-12-30T10:21:19Z</time>
      </trkpt>
      <trkpt lat="43.67125" lon="3.77147">
        <ele>104</ele>
        <time>2020-12-30T10:21:21Z</time>
      </trkpt>
      <trkpt lat="43.67129" lon="3.77145">
        <ele>103</ele>
        <time>2020-12-30T10:21:23Z</time>
      </trkpt>
      <trkpt lat="43.67134" lon="3.77143">
        <ele>103</ele>
        <time>2020-12-30T10:21:25Z</time>
      </trkpt>
      <trkpt lat="43.6714" lon="3.7714">
        <ele>103</ele>
        <time>2020-12-30T10:21:27Z</time>
      </trkpt>
      <trkpt lat="43.67147" lon="3.77137">
        <ele>103</ele>
        <time>2020-12-30T10:21:29Z</time>
      </trkpt>
      <trkpt lat="43.67154" lon="3.77133">
        <ele>103</ele>
        <time>2020-12-30T10:21:31Z</time>
      </trkpt>
      <trkpt lat="43.67161" lon="3.77129">
        <ele>104</ele>
        <time>2020-12-30T10:21:33Z</time>
      </trkpt>
      <trkpt lat="43.67168" lon="3.77125">
        <ele>104</ele>
        <time>2020-12-30T10:21:35Z</time>
      </trkpt>
      <trkpt lat="43.67176" lon="3.77122">
        <ele>104</ele>
        <time>2020-12-30T10:21:37Z</time>
      </trkpt>
      <trkpt lat="43.67184" lon="3.7712">
        <ele>103</ele>
        <time>2020-12-30T10:21:39Z</time>
      </trkpt>
      <trkpt lat="43.67191" lon="3.77117">
        <ele>102</ele>
        <time>2020-12-30T10:21:41Z</time>
      </trkpt>
      <trkpt lat="43.67198" lon="3.77115">
        <ele>101</ele>
        <time>2020-12-30T10:21:43Z</time>
      </trkpt>
      <trkpt lat="43.67204" lon="3.77114">
        <ele>101</ele>
        <time>2020-12-30T10:21:45Z</time>
      </trkpt>
      <trkpt lat="43.67211" lon="3.77114">
        <ele>101</ele>
        <time>2020-12-30T10:21:47Z</time>
      </trkpt>
      <trkpt lat="43.67217" lon="3.77111">
        <ele>104</ele>
        <time>2020-12-30T10:21:49Z</time>
      </trkpt>
      <trkpt lat="43.67222" lon="3.77109">
        <ele>105</ele>
        <time>2020-12-30T10:21:51Z</time>
      </trkpt>
      <trkpt lat="43.67226" lon="3.77106">
        <ele>106</ele>
        <time>2020-12-30T10:21:53Z</time>
      </trkpt>
      <trkpt lat="43.6723" lon="3.77102">
        <ele>106</ele>
        <time>2020-12-30T10:21:55Z</time>
      </trkpt>
      <trkpt lat="43.67233" lon="3.77097">
        <ele>107</ele>
        <time>2020-12-30T10:21:57Z</time>
      </trkpt>
      <trkpt lat="43.67237" lon="3.77093">
        <ele>108</ele>
        <time>2020-12-30T10:21:59Z</time>
      </trkpt>
      <trkpt lat="43.67241" lon="3.77089">
        <ele>108</ele>
        <time>2020-12-30T10:22:01Z</time>
      </trkpt>
      <trkpt lat="43.67246" lon="3.77085">
        <ele>109</ele>
        <time>2020-12-30T10:22:03Z</time>
      </trkpt>
      <trkpt lat="43.6725" lon="3.77082">
        <ele>110</ele>
        <time>2020-12-30T10:22:05Z</time>
      </trkpt>
      <trkpt lat="43.67254" lon="3.77078">
        <ele>110</ele>
        <time>2020-12-30T10:22:07Z</time>
      </trkpt>
      <trkpt lat="43.67257" lon="3.77073">
        <ele>111</ele>
        <time>2020-12-30T10:22:09Z</time>
      </trkpt>
      <trkpt lat="43.6726" lon="3.77068">
        <ele>111</ele>
        <time>2020-12-30T10:22:11Z</time>
      </trkpt>
      <trkpt lat="43.67264" lon="3.77064">
        <ele>111</ele>
        <time>2020-12-30T10:22:13Z</time>
      </trkpt>
      <trkpt lat="43.67268" lon="3.77057">
        <ele>112</ele>
        <time>2020-12-30T10:22:16Z</time>
      </trkpt>
      <trkpt lat="43.67272" lon="3.7705">
        <ele>112</ele>
        <time>2020-12-30T10:22:19Z</time>
      </trkpt>
      <trkpt lat="43.67274" lon="3.77041">
        <ele>113</ele>
        <time>2020-12-30T10:22:22Z</time>
      </trkpt>
      <trkpt lat="43.67275" lon="3.77033">
        <ele>113</ele>
        <time>2020-12-30T10:22:25Z</time>
      </trkpt>
      <trkpt lat="43.67279" lon="3.77031">
        <ele>114</ele>
        <time>2020-12-30T10:22:27Z</time>
      </trkpt>
      <trkpt lat="43.67284" lon="3.77029">
        <ele>115</ele>
        <time>2020-12-30T10:22:29Z</time>
      </trkpt>
      <trkpt lat="43.67288" lon="3.77026">
        <ele>115</ele>
        <time>2020-12-30T10:22:31Z</time>
      </trkpt>
      <trkpt lat="43.67292" lon="3.77022">
        <ele>115</ele>
        <time>2020-12-30T10:22:33Z</time>
      </trkpt>
      <trkpt lat="43.67296" lon="3.77017">
        <ele>116</ele>
        <time>2020-12-30T10:22:35Z</time>
      </trkpt>
      <trkpt lat="43.673" lon="3.7701">
        <ele>116</ele>
        <time>2020-12-30T10:22:38Z</time>
      </trkpt>
      <trkpt lat="43.67305" lon="3.77006">
        <ele>117</ele>
        <time>2020-12-30T10:22:41Z</time>
      </trkpt>
      <trkpt lat="43.67309" lon="3.77">
        <ele>117</ele>
        <time>2020-12-30T10:22:44Z</time>
      </trkpt>
      <trkpt lat="43.67313" lon="3.76995">
        <ele>118</ele>
        <time>2020-12-30T10:22:47Z</time>
      </trkpt>
      <trkpt lat="43.67316" lon="3.76989">
        <ele>118</ele>
        <time>2020-12-30T10:22:50Z</time>
      </trkpt>
      <trkpt lat="43.6732" lon="3.76983">
        <ele>119</ele>
        <time>2020-12-30T10:22:53Z</time>
      </trkpt>
      <trkpt lat="43.67322" lon="3.76976">
        <ele>120</ele>
        <time>2020-12-30T10:22:56Z</time>
      </trkpt>
      <trkpt lat="43.67326" lon="3.7697">
        <ele>120</ele>
        <time>2020-12-30T10:22:59Z</time>
      </trkpt>
      <trkpt lat="43.67329" lon="3.76965">
        <ele>121</ele>
        <time>2020-12-30T10:23:02Z</time>
      </trkpt>
      <trkpt lat="43.67334" lon="3.7696">
        <ele>121</ele>
        <time>2020-12-30T10:23:05Z</time>
      </trkpt>
      <trkpt lat="43.67339" lon="3.76954">
        <ele>122</ele>
        <time>2020-12-30T10:23:08Z</time>
      </trkpt>
      <trkpt lat="43.67341" lon="3.76947">
        <ele>122</ele>
        <time>2020-12-30T10:23:11Z</time>
      </trkpt>
      <trkpt lat="43.67341" lon="3.76939">
        <ele>122</ele>
        <time>2020-12-30T10:23:14Z</time>
      </trkpt>
      <trkpt lat="43.67345" lon="3.76933">
        <ele>123</ele>
        <time>2020-12-30T10:23:17Z</time>
      </trkpt>
      <trkpt lat="43.6735" lon="3.76928">
        <ele>123</ele>
        <time>2020-12-30T10:23:20Z</time>
      </trkpt>
      <trkpt lat="43.67353" lon="3.76921">
        <ele>124</ele>
        <time>2020-12-30T10:23:23Z</time>
      </trkpt>
      <trkpt lat="43.67356" lon="3.76915">
        <ele>125</ele>
        <time>2020-12-30T10:23:26Z</time>
      </trkpt>
      <trkpt lat="43.6736" lon="3.7691">
        <ele>126</ele>
        <time>2020-12-30T10:23:29Z</time>
      </trkpt>
      <trkpt lat="43.67364" lon="3.76903">
        <ele>127</ele>
        <time>2020-12-30T10:23:32Z</time>
      </trkpt>
      <trkpt lat="43.67367" lon="3.76896">
        <ele>128</ele>
        <time>2020-12-30T10:23:35Z</time>
      </trkpt>
      <trkpt lat="43.6737" lon="3.76889">
        <ele>128</ele>
        <time>2020-12-30T10:23:38Z</time>
      </trkpt>
      <trkpt lat="43.67374" lon="3.76882">
        <ele>129</ele>
        <time>2020-12-30T10:23:41Z</time>
      </trkpt>
      <trkpt lat="43.67378" lon="3.76877">
        <ele>130</ele>
        <time>2020-12-30T10:23:44Z</time>
      </trkpt>
      <trkpt lat="43.67381" lon="3.76872">
        <ele>131</ele>
        <time>2020-12-30T10:23:47Z</time>
      </trkpt>
      <trkpt lat="43.67384" lon="3.76867">
        <ele>133</ele>
        <time>2020-12-30T10:23:50Z</time>
      </trkpt>
      <trkpt lat="43.67388" lon="3.76863">
        <ele>134</ele>
        <time>2020-12-30T10:23:53Z</time>
      </trkpt>
      <trkpt lat="43.67391" lon="3.76858">
        <ele>135</ele>
        <time>2020-12-30T10:23:56Z</time>
      </trkpt>
      <trkpt lat="43.67394" lon="3.76853">
        <ele>136</ele>
        <time>2020-12-30T10:23:59Z</time>
      </trkpt>
      <trkpt lat="43.67398" lon="3.76848">
        <ele>137</ele>
        <time>2020-12-30T10:24:02Z</time>
      </trkpt>
      <trkpt lat="43.67402" lon="3.76843">
        <ele>137</ele>
        <time>2020-12-30T10:24:06Z</time>
      </trkpt>
      <trkpt lat="43.67407" lon="3.76838">
        <ele>138</ele>
        <time>2020-12-30T10:24:09Z</time>
      </trkpt>
      <trkpt lat="43.67411" lon="3.76834">
        <ele>138</ele>
        <time>2020-12-30T10:24:12Z</time>
      </trkpt>
      <trkpt lat="43.67415" lon="3.76831">
        <ele>139</ele>
        <time>2020-12-30T10:24:15Z</time>
      </trkpt>
      <trkpt lat="43.67419" lon="3.76829">
        <ele>139</ele>
        <time>2020-12-30T10:24:18Z</time>
      </trkpt>
      <trkpt lat="43.67424" lon="3.76825">
        <ele>140</ele>
        <time>2020-12-30T10:24:21Z</time>
      </trkpt>
      <trkpt lat="43.67427" lon="3.76819">
        <ele>140</ele>
        <time>2020-12-30T10:24:24Z</time>
      </trkpt>
      <trkpt lat="43.67432" lon="3.76818">
        <ele>140</ele>
        <time>2020-12-30T10:24:28Z</time>
      </trkpt>
      <trkpt lat="43.67438" lon="3.76818">
        <ele>140</ele>
        <time>2020-12-30T10:24:32Z</time>
      </trkpt>
      <trkpt lat="43.67443" lon="3.76817">
        <ele>141</ele>
        <time>2020-12-30T10:24:35Z</time>
      </trkpt>
      <trkpt lat="43.67448" lon="3.76814">
        <ele>141</ele>
        <time>2020-12-30T10:24:38Z</time>
      </trkpt>
      <trkpt lat="43.67454" lon="3.76811">
        <ele>142</ele>
        <time>2020-12-30T10:24:41Z</time>
      </trkpt>
      <trkpt lat="43.67458" lon="3.76809">
        <ele>143</ele>
        <time>2020-12-30T10:24:43Z</time>
      </trkpt>
      <trkpt lat="43.67464" lon="3.76805">
        <ele>144</ele>
        <time>2020-12-30T10:24:45Z</time>
      </trkpt>
      <trkpt lat="43.67471" lon="3.76798">
        <ele>144</ele>
        <time>2020-12-30T10:24:47Z</time>
      </trkpt>
      <trkpt lat="43.67475" lon="3.76794">
        <ele>144</ele>
        <time>2020-12-30T10:24:48Z</time>
      </trkpt>
      <trkpt lat="43.67479" lon="3.76789">
        <ele>144</ele>
        <time>2020-12-30T10:24:49Z</time>
      </trkpt>
      <trkpt lat="43.67485" lon="3.76781">
        <ele>143</ele>
        <time>2020-12-30T10:24:51Z</time>
      </trkpt>
      <trkpt lat="43.67489" lon="3.76776">
        <ele>143</ele>
        <time>2020-12-30T10:24:52Z</time>
      </trkpt>
      <trkpt lat="43.67494" lon="3.76774">
        <ele>142</ele>
        <time>2020-12-30T10:24:53Z</time>
      </trkpt>
      <trkpt lat="43.67499" lon="3.76771">
        <ele>142</ele>
        <time>2020-12-30T10:24:54Z</time>
      </trkpt>
      <trkpt lat="43.67503" lon="3.76768">
        <ele>142</ele>
        <time>2020-12-30T10:24:55Z</time>
      </trkpt>
      <trkpt lat="43.6751" lon="3.76761">
        <ele>142</ele>
        <time>2020-12-30T10:24:57Z</time>
      </trkpt>
      <trkpt lat="43.67514" lon="3.76755">
        <ele>142</ele>
        <time>2020-12-30T10:24:59Z</time>
      </trkpt>
      <trkpt lat="43.6752" lon="3.76752">
        <ele>142</ele>
        <time>2020-12-30T10:25:01Z</time>
      </trkpt>
      <trkpt lat="43.67524" lon="3.76748">
        <ele>142</ele>
        <time>2020-12-30T10:25:03Z</time>
      </trkpt>
      <trkpt lat="43.67528" lon="3.76744">
        <ele>142</ele>
        <time>2020-12-30T10:25:05Z</time>
      </trkpt>
      <trkpt lat="43.67533" lon="3.7674">
        <ele>142</ele>
        <time>2020-12-30T10:25:07Z</time>
      </trkpt>
      <trkpt lat="43.67538" lon="3.76735">
        <ele>142</ele>
        <time>2020-12-30T10:25:09Z</time>
      </trkpt>
      <trkpt lat="43.67543" lon="3.7673">
        <ele>143</ele>
        <time>2020-12-30T10:25:11Z</time>
      </trkpt>
      <trkpt lat="43.67548" lon="3.76725">
        <ele>143</ele>
        <time>2020-12-30T10:25:13Z</time>
      </trkpt>
      <trkpt lat="43.67552" lon="3.7672">
        <ele>143</ele>
        <time>2020-12-30T10:25:15Z</time>
      </trkpt>
      <trkpt lat="43.67556" lon="3.76716">
        <ele>143</ele>
        <time>2020-12-30T10:25:17Z</time>
      </trkpt>
      <trkpt lat="43.67561" lon="3.76712">
        <ele>144</ele>
        <time>2020-12-30T10:25:19Z</time>
      </trkpt>
      <trkpt lat="43.67566" lon="3.76706">
        <ele>144</ele>
        <time>2020-12-30T10:25:22Z</time>
      </trkpt>
      <trkpt lat="43.67569" lon="3.76701">
        <ele>144</ele>
        <time>2020-12-30T10:25:24Z</time>
      </trkpt>
      <trkpt lat="43.67574" lon="3.76694">
        <ele>145</ele>
        <time>2020-12-30T10:25:27Z</time>
      </trkpt>
      <trkpt lat="43.67579" lon="3.7669">
        <ele>146</ele>
        <time>2020-12-30T10:25:29Z</time>
      </trkpt>
      <trkpt lat="43.67583" lon="3.76686">
        <ele>146</ele>
        <time>2020-12-30T10:25:31Z</time>
      </trkpt>
      <trkpt lat="43.67587" lon="3.7668">
        <ele>147</ele>
        <time>2020-12-30T10:25:33Z</time>
      </trkpt>
      <trkpt lat="43.67591" lon="3.76675">
        <ele>148</ele>
        <time>2020-12-30T10:25:35Z</time>
      </trkpt>
      <trkpt lat="43.67595" lon="3.76671">
        <ele>148</ele>
        <time>2020-12-30T10:25:37Z</time>
      </trkpt>
      <trkpt lat="43.676" lon="3.76667">
        <ele>148</ele>
        <time>2020-12-30T10:25:39Z</time>
      </trkpt>
      <trkpt lat="43.67605" lon="3.76662">
        <ele>149</ele>
        <time>2020-12-30T10:25:41Z</time>
      </trkpt>
      <trkpt lat="43.67609" lon="3.76659">
        <ele>149</ele>
        <time>2020-12-30T10:25:43Z</time>
      </trkpt>
      <trkpt lat="43.67614" lon="3.76655">
        <ele>150</ele>
        <time>2020-12-30T10:25:45Z</time>
      </trkpt>
      <trkpt lat="43.67619" lon="3.76652">
        <ele>150</ele>
        <time>2020-12-30T10:25:47Z</time>
      </trkpt>
      <trkpt lat="43.67624" lon="3.76647">
        <ele>150</ele>
        <time>2020-12-30T10:25:49Z</time>
      </trkpt>
      <trkpt lat="43.67627" lon="3.76642">
        <ele>151</ele>
        <time>2020-12-30T10:25:51Z</time>
      </trkpt>
      <trkpt lat="43.67632" lon="3.76638">
        <ele>151</ele>
        <time>2020-12-30T10:25:53Z</time>
      </trkpt>
      <trkpt lat="43.67636" lon="3.76635">
        <ele>151</ele>
        <time>2020-12-30T10:25:55Z</time>
      </trkpt>
      <trkpt lat="43.6764" lon="3.76632">
        <ele>151</ele>
        <time>2020-12-30T10:25:57Z</time>
      </trkpt>
      <trkpt lat="43.67645" lon="3.76628">
        <ele>152</ele>
        <time>2020-12-30T10:25:59Z</time>
      </trkpt>
      <trkpt lat="43.67649" lon="3.76624">
        <ele>152</ele>
        <time>2020-12-30T10:26:01Z</time>
      </trkpt>
      <trkpt lat="43.67654" lon="3.76621">
        <ele>152</ele>
        <time>2020-12-30T10:26:03Z</time>
      </trkpt>
      <trkpt lat="43.6766" lon="3.76619">
        <ele>153</ele>
        <time>2020-12-30T10:26:05Z</time>
      </trkpt>
      <trkpt lat="43.67666" lon="3.76615">
        <ele>153</ele>
        <time>2020-12-30T10:26:07Z</time>
      </trkpt>
      <trkpt lat="43.67673" lon="3.76611">
        <ele>153</ele>
        <time>2020-12-30T10:26:09Z</time>
      </trkpt>
      <trkpt lat="43.6768" lon="3.76606">
        <ele>153</ele>
        <time>2020-12-30T10:26:11Z</time>
      </trkpt>
      <trkpt lat="43.67687" lon="3.76601">
        <ele>152</ele>
        <time>2020-12-30T10:26:13Z</time>
      </trkpt>
      <trkpt lat="43.67694" lon="3.76597">
        <ele>152</ele>
        <time>2020-12-30T10:26:15Z</time>
      </trkpt>
      <trkpt lat="43.67701" lon="3.76593">
        <ele>152</ele>
        <time>2020-12-30T10:26:17Z</time>
      </trkpt>
      <trkpt lat="43.67708" lon="3.76589">
        <ele>152</ele>
        <time>2020-12-30T10:26:19Z</time>
      </trkpt>
      <trkpt lat="43.67716" lon="3.76585">
        <ele>151</ele>
        <time>2020-12-30T10:26:21Z</time>
      </trkpt>
      <trkpt lat="43.67723" lon="3.76579">
        <ele>151</ele>
        <time>2020-12-30T10:26:23Z</time>
      </trkpt>
      <trkpt lat="43.67731" lon="3.76574">
        <ele>151</ele>
        <time>2020-12-30T10:26:25Z</time>
      </trkpt>
      <trkpt lat="43.67734" lon="3.7657">
        <ele>151</ele>
        <time>2020-12-30T10:26:26Z</time>
      </trkpt>
      <trkpt lat="43.67739" lon="3.76568">
        <ele>152</ele>
        <time>2020-12-30T10:26:27Z</time>
      </trkpt>
      <trkpt lat="43.67743" lon="3.76564">
        <ele>152</ele>
        <time>2020-12-30T10:26:28Z</time>
      </trkpt>
      <trkpt lat="43.67749" lon="3.76559">
        <ele>152</ele>
        <time>2020-12-30T10:26:30Z</time>
      </trkpt>
      <trkpt lat="43.67755" lon="3.76554">
        <ele>152</ele>
        <time>2020-12-30T10:26:32Z</time>
      </trkpt>
      <trkpt lat="43.67759" lon="3.76547">
        <ele>152</ele>
        <time>2020-12-30T10:26:34Z</time>
      </trkpt>
      <trkpt lat="43.67761" lon="3.76541">
        <ele>151</ele>
        <time>2020-12-30T10:26:35Z</time>
      </trkpt>
      <trkpt lat="43.67764" lon="3.76533">
        <ele>151</ele>
        <time>2020-12-30T10:26:36Z</time>
      </trkpt>
      <trkpt lat="43.67768" lon="3.76526">
        <ele>151</ele>
        <time>2020-12-30T10:26:37Z</time>
      </trkpt>
      <trkpt lat="43.67772" lon="3.7652">
        <ele>151</ele>
        <time>2020-12-30T10:26:38Z</time>
      </trkpt>
      <trkpt lat="43.67777" lon="3.76513">
        <ele>151</ele>
        <time>2020-12-30T10:26:39Z</time>
      </trkpt>
      <trkpt lat="43.67781" lon="3.76506">
        <ele>150</ele>
        <time>2020-12-30T10:26:40Z</time>
      </trkpt>
      <trkpt lat="43.67786" lon="3.76498">
        <ele>150</ele>
        <time>2020-12-30T10:26:41Z</time>
      </trkpt>
      <trkpt lat="43.67791" lon="3.7649">
        <ele>150</ele>
        <time>2020-12-30T10:26:42Z</time>
      </trkpt>
      <trkpt lat="43.67795" lon="3.76482">
        <ele>149</ele>
        <time>2020-12-30T10:26:43Z</time>
      </trkpt>
      <trkpt lat="43.67801" lon="3.76477">
        <ele>149</ele>
        <time>2020-12-30T10:26:44Z</time>
      </trkpt>
      <trkpt lat="43.67807" lon="3.76472">
        <ele>149</ele>
        <time>2020-12-30T10:26:45Z</time>
      </trkpt>
      <trkpt lat="43.67812" lon="3.76467">
        <ele>148</ele>
        <time>2020-12-30T10:26:46Z</time>
      </trkpt>
      <trkpt lat="43.67816" lon="3.76465">
        <ele>148</ele>
        <time>2020-12-30T10:26:47Z</time>
      </trkpt>
      <trkpt lat="43.67827" lon="3.76465">
        <ele>148</ele>
        <time>2020-12-30T10:26:49Z</time>
      </trkpt>
      <trkpt lat="43.67836" lon="3.76467">
        <ele>148</ele>
        <time>2020-12-30T10:26:51Z</time>
      </trkpt>
      <trkpt lat="43.67841" lon="3.76467">
        <ele>149</ele>
        <time>2020-12-30T10:26:52Z</time>
      </trkpt>
      <trkpt lat="43.67846" lon="3.76469">
        <ele>149</ele>
        <time>2020-12-30T10:26:53Z</time>
      </trkpt>
      <trkpt lat="43.67854" lon="3.76472">
        <ele>150</ele>
        <time>2020-12-30T10:26:55Z</time>
      </trkpt>
      <trkpt lat="43.67861" lon="3.76474">
        <ele>150</ele>
        <time>2020-12-30T10:26:57Z</time>
      </trkpt>
      <trkpt lat="43.67867" lon="3.76475">
        <ele>151</ele>
        <time>2020-12-30T10:26:59Z</time>
      </trkpt>
      <trkpt lat="43.67872" lon="3.76476">
        <ele>151</ele>
        <time>2020-12-30T10:27:02Z</time>
      </trkpt>
      <trkpt lat="43.67878" lon="3.76477">
        <ele>151</ele>
        <time>2020-12-30T10:27:05Z</time>
      </trkpt>
      <trkpt lat="43.67883" lon="3.76475">
        <ele>150</ele>
        <time>2020-12-30T10:27:07Z</time>
      </trkpt>
      <trkpt lat="43.67889" lon="3.76473">
        <ele>150</ele>
        <time>2020-12-30T10:27:09Z</time>
      </trkpt>
      <trkpt lat="43.67896" lon="3.7647">
        <ele>150</ele>
        <time>2020-12-30T10:27:11Z</time>
      </trkpt>
      <trkpt lat="43.67901" lon="3.76468">
        <ele>150</ele>
        <time>2020-12-30T10:27:13Z</time>
      </trkpt>
      <trkpt lat="43.67907" lon="3.76467">
        <ele>150</ele>
        <time>2020-12-30T10:27:15Z</time>
      </trkpt>
      <trkpt lat="43.67912" lon="3.76467">
        <ele>149</ele>
        <time>2020-12-30T10:27:17Z</time>
      </trkpt>
      <trkpt lat="43.67917" lon="3.76466">
        <ele>149</ele>
        <time>2020-12-30T10:27:19Z</time>
      </trkpt>
      <trkpt lat="43.67922" lon="3.76466">
        <ele>150</ele>
        <time>2020-12-30T10:27:21Z</time>
      </trkpt>
      <trkpt lat="43.67927" lon="3.76468">
        <ele>150</ele>
        <time>2020-12-30T10:27:23Z</time>
      </trkpt>
      <trkpt lat="43.67933" lon="3.76469">
        <ele>150</ele>
        <time>2020-12-30T10:27:26Z</time>
      </trkpt>
      <trkpt lat="43.67938" lon="3.76471">
        <ele>150</ele>
        <time>2020-12-30T10:27:30Z</time>
      </trkpt>
      <trkpt lat="43.67944" lon="3.76474">
        <ele>150</ele>
        <time>2020-12-30T10:27:33Z</time>
      </trkpt>
      <trkpt lat="43.6795" lon="3.76474">
        <ele>150</ele>
        <time>2020-12-30T10:27:35Z</time>
      </trkpt>
      <trkpt lat="43.67955" lon="3.76474">
        <ele>150</ele>
        <time>2020-12-30T10:27:37Z</time>
      </trkpt>
      <trkpt lat="43.6796" lon="3.76473">
        <ele>150</ele>
        <time>2020-12-30T10:27:39Z</time>
      </trkpt>
      <trkpt lat="43.67967" lon="3.76473">
        <ele>150</ele>
        <time>2020-12-30T10:27:42Z</time>
      </trkpt>
      <trkpt lat="43.67972" lon="3.7647">
        <ele>150</ele>
        <time>2020-12-30T10:27:45Z</time>
      </trkpt>
      <trkpt lat="43.67975" lon="3.76465">
        <ele>150</ele>
        <time>2020-12-30T10:27:48Z</time>
      </trkpt>
      <trkpt lat="43.67977" lon="3.76459">
        <ele>151</ele>
        <time>2020-12-30T10:27:51Z</time>
      </trkpt>
      <trkpt lat="43.67981" lon="3.76454">
        <ele>152</ele>
        <time>2020-12-30T10:27:54Z</time>
      </trkpt>
      <trkpt lat="43.67984" lon="3.7645">
        <ele>153</ele>
        <time>2020-12-30T10:27:58Z</time>
      </trkpt>
      <trkpt lat="43.67987" lon="3.76445">
        <ele>154</ele>
        <time>2020-12-30T10:28:01Z</time>
      </trkpt>
      <trkpt lat="43.67992" lon="3.76442">
        <ele>155</ele>
        <time>2020-12-30T10:28:04Z</time>
      </trkpt>
      <trkpt lat="43.67997" lon="3.76443">
        <ele>156</ele>
        <time>2020-12-30T10:28:07Z</time>
      </trkpt>
      <trkpt lat="43.68002" lon="3.76447">
        <ele>157</ele>
        <time>2020-12-30T10:28:10Z</time>
      </trkpt>
      <trkpt lat="43.68006" lon="3.76451">
        <ele>157</ele>
        <time>2020-12-30T10:28:12Z</time>
      </trkpt>
      <trkpt lat="43.6801" lon="3.76456">
        <ele>157</ele>
        <time>2020-12-30T10:28:14Z</time>
      </trkpt>
      <trkpt lat="43.68015" lon="3.76462">
        <ele>158</ele>
        <time>2020-12-30T10:28:16Z</time>
      </trkpt>
      <trkpt lat="43.68019" lon="3.76466">
        <ele>158</ele>
        <time>2020-12-30T10:28:18Z</time>
      </trkpt>
      <trkpt lat="43.68023" lon="3.76471">
        <ele>158</ele>
        <time>2020-12-30T10:28:20Z</time>
      </trkpt>
      <trkpt lat="43.68028" lon="3.76475">
        <ele>158</ele>
        <time>2020-12-30T10:28:22Z</time>
      </trkpt>
      <trkpt lat="43.68032" lon="3.76478">
        <ele>158</ele>
        <time>2020-12-30T10:28:24Z</time>
      </trkpt>
      <trkpt lat="43.68036" lon="3.76481">
        <ele>158</ele>
        <time>2020-12-30T10:28:26Z</time>
      </trkpt>
      <trkpt lat="43.68043" lon="3.76481">
        <ele>159</ele>
        <time>2020-12-30T10:28:29Z</time>
      </trkpt>
      <trkpt lat="43.68049" lon="3.76481">
        <ele>159</ele>
        <time>2020-12-30T10:28:32Z</time>
      </trkpt>
      <trkpt lat="43.68054" lon="3.76481">
        <ele>159</ele>
        <time>2020-12-30T10:28:36Z</time>
      </trkpt>
      <trkpt lat="43.68058" lon="3.76485">
        <ele>158</ele>
        <time>2020-12-30T10:28:45Z</time>
      </trkpt>
      <trkpt lat="43.68063" lon="3.76486">
        <ele>158</ele>
        <time>2020-12-30T10:28:57Z</time>
      </trkpt>
      <trkpt lat="43.68068" lon="3.76484">
        <ele>158</ele>
        <time>2020-12-30T10:29:02Z</time>
      </trkpt>
      <trkpt lat="43.68074" lon="3.76485">
        <ele>158</ele>
        <time>2020-12-30T10:29:07Z</time>
      </trkpt>
      <trkpt lat="43.68079" lon="3.76485">
        <ele>158</ele>
        <time>2020-12-30T10:29:10Z</time>
      </trkpt>
      <trkpt lat="43.68083" lon="3.76486">
        <ele>158</ele>
        <time>2020-12-30T10:29:22Z</time>
      </trkpt>
      <trkpt lat="43.68089" lon="3.76487">
        <ele>158</ele>
        <time>2020-12-30T10:29:26Z</time>
      </trkpt>
      <trkpt lat="43.68095" lon="3.76487">
        <ele>158</ele>
        <time>2020-12-30T10:29:30Z</time>
      </trkpt>
      <trkpt lat="43.681" lon="3.76486">
        <ele>154</ele>
        <time>2020-12-30T10:29:32Z</time>
      </trkpt>
      <trkpt lat="43.68106" lon="3.76485">
        <ele>153</ele>
        <time>2020-12-30T10:29:35Z</time>
      </trkpt>
      <trkpt lat="43.6811" lon="3.76485">
        <ele>152</ele>
        <time>2020-12-30T10:29:37Z</time>
      </trkpt>
      <trkpt lat="43.68116" lon="3.76486">
        <ele>150</ele>
        <time>2020-12-30T10:29:41Z</time>
      </trkpt>
      <trkpt lat="43.68121" lon="3.76487">
        <ele>149</ele>
        <time>2020-12-30T10:29:43Z</time>
      </trkpt>
      <trkpt lat="43.68126" lon="3.76487">
        <ele>153</ele>
        <time>2020-12-30T10:29:46Z</time>
      </trkpt>
      <trkpt lat="43.68131" lon="3.76489">
        <ele>153</ele>
        <time>2020-12-30T10:29:49Z</time>
      </trkpt>
      <trkpt lat="43.68137" lon="3.76491">
        <ele>153</ele>
        <time>2020-12-30T10:29:52Z</time>
      </trkpt>
      <trkpt lat="43.68137" lon="3.76492">
        <ele>153</ele>
        <time>2020-12-30T10:30:11Z</time>
      </trkpt>
      <trkpt lat="43.68137" lon="3.76492">
        <ele>153</ele>
        <time>2020-12-30T10:30:13Z</time>
      </trkpt>
      <trkpt lat="43.68135" lon="3.76491">
        <ele>153</ele>
        <time>2020-12-30T10:30:41Z</time>
      </trkpt>
      <trkpt lat="43.68135" lon="3.76492">
        <ele>154</ele>
        <time>2020-12-30T10:30:43Z</time>
      </trkpt>
      <trkpt lat="43.68139" lon="3.76494">
        <ele>154</ele>
        <time>2020-12-30T10:31:09Z</time>
      </trkpt>
      <trkpt lat="43.68144" lon="3.76492">
        <ele>155</ele>
        <time>2020-12-30T10:31:12Z</time>
      </trkpt>
      <trkpt lat="43.68163" lon="3.76483">
        <ele>156</ele>
        <time>2020-12-30T10:31:24Z</time>
      </trkpt>
      <trkpt lat="43.68169" lon="3.76486">
        <ele>155</ele>
        <time>2020-12-30T10:31:27Z</time>
      </trkpt>
      <trkpt lat="43.68174" lon="3.76489">
        <ele>155</ele>
        <time>2020-12-30T10:31:29Z</time>
      </trkpt>
      <trkpt lat="43.68177" lon="3.76493">
        <ele>155</ele>
        <time>2020-12-30T10:31:31Z</time>
      </trkpt>
      <trkpt lat="43.68182" lon="3.765">
        <ele>154</ele>
        <time>2020-12-30T10:31:33Z</time>
      </trkpt>
      <trkpt lat="43.68186" lon="3.76506">
        <ele>153</ele>
        <time>2020-12-30T10:31:34Z</time>
      </trkpt>
      <trkpt lat="43.6819" lon="3.76515">
        <ele>153</ele>
        <time>2020-12-30T10:31:35Z</time>
      </trkpt>
      <trkpt lat="43.68192" lon="3.76521">
        <ele>152</ele>
        <time>2020-12-30T10:31:36Z</time>
      </trkpt>
      <trkpt lat="43.68197" lon="3.76527">
        <ele>151</ele>
        <time>2020-12-30T10:31:37Z</time>
      </trkpt>
      <trkpt lat="43.68201" lon="3.7653">
        <ele>150</ele>
        <time>2020-12-30T10:31:38Z</time>
      </trkpt>
      <trkpt lat="43.68206" lon="3.76531">
        <ele>150</ele>
        <time>2020-12-30T10:31:40Z</time>
      </trkpt>
      <trkpt lat="43.6821" lon="3.76529">
        <ele>150</ele>
        <time>2020-12-30T10:31:43Z</time>
      </trkpt>
      <trkpt lat="43.68214" lon="3.76526">
        <ele>151</ele>
        <time>2020-12-30T10:31:46Z</time>
      </trkpt>
      <trkpt lat="43.68217" lon="3.7652">
        <ele>152</ele>
        <time>2020-12-30T10:31:51Z</time>
      </trkpt>
      <trkpt lat="43.68219" lon="3.76515">
        <ele>153</ele>
        <time>2020-12-30T10:31:55Z</time>
      </trkpt>
      <trkpt lat="43.68223" lon="3.76511">
        <ele>153</ele>
        <time>2020-12-30T10:31:59Z</time>
      </trkpt>
      <trkpt lat="43.68228" lon="3.7651">
        <ele>155</ele>
        <time>2020-12-30T10:32:20Z</time>
      </trkpt>
      <trkpt lat="43.68232" lon="3.76507">
        <ele>156</ele>
        <time>2020-12-30T10:32:32Z</time>
      </trkpt>
      <trkpt lat="43.68238" lon="3.76507">
        <ele>157</ele>
        <time>2020-12-30T10:32:42Z</time>
      </trkpt>
      <trkpt lat="43.68243" lon="3.76505">
        <ele>158</ele>
        <time>2020-12-30T10:32:46Z</time>
      </trkpt>
      <trkpt lat="43.68248" lon="3.76504">
        <ele>159</ele>
        <time>2020-12-30T10:32:50Z</time>
      </trkpt>
      <trkpt lat="43.68254" lon="3.76503">
        <ele>160</ele>
        <time>2020-12-30T10:32:54Z</time>
      </trkpt>
      <trkpt lat="43.68259" lon="3.76504">
        <ele>161</ele>
        <time>2020-12-30T10:32:57Z</time>
      </trkpt>
      <trkpt lat="43.68264" lon="3.76504">
        <ele>161</ele>
        <time>2020-12-30T10:33:00Z</time>
      </trkpt>
      <trkpt lat="43.68269" lon="3.76502">
        <ele>162</ele>
        <time>2020-12-30T10:33:03Z</time>
      </trkpt>
      <trkpt lat="43.68274" lon="3.76501">
        <ele>162</ele>
        <time>2020-12-30T10:33:06Z</time>
      </trkpt>
      <trkpt lat="43.6828" lon="3.76502">
        <ele>163</ele>
        <time>2020-12-30T10:33:10Z</time>
      </trkpt>
      <trkpt lat="43.68285" lon="3.76502">
        <ele>164</ele>
        <time>2020-12-30T10:33:13Z</time>
      </trkpt>
      <trkpt lat="43.6829" lon="3.76503">
        <ele>165</ele>
        <time>2020-12-30T10:33:16Z</time>
      </trkpt>
      <trkpt lat="43.68295" lon="3.76502">
        <ele>166</ele>
        <time>2020-12-30T10:33:20Z</time>
      </trkpt>
      <trkpt lat="43.68301" lon="3.765">
        <ele>167</ele>
        <time>2020-12-30T10:33:24Z</time>
      </trkpt>
      <trkpt lat="43.68307" lon="3.76499">
        <ele>167</ele>
        <time>2020-12-30T10:33:28Z</time>
      </trkpt>
      <trkpt lat="43.68312" lon="3.765">
        <ele>168</ele>
        <time>2020-12-30T10:33:31Z</time>
      </trkpt>
      <trkpt lat="43.68317" lon="3.76501">
        <ele>168</ele>
        <time>2020-12-30T10:33:34Z</time>
      </trkpt>
      <trkpt lat="43.68322" lon="3.76502">
        <ele>169</ele>
        <time>2020-12-30T10:33:37Z</time>
      </trkpt>
      <trkpt lat="43.68328" lon="3.76503">
        <ele>170</ele>
        <time>2020-12-30T10:33:40Z</time>
      </trkpt>
      <trkpt lat="43.68333" lon="3.76505">
        <ele>170</ele>
        <time>2020-12-30T10:33:43Z</time>
      </trkpt>
      <trkpt lat="43.68338" lon="3.76508">
        <ele>171</ele>
        <time>2020-12-30T10:33:46Z</time>
      </trkpt>
      <trkpt lat="43.68342" lon="3.7651">
        <ele>171</ele>
        <time>2020-12-30T10:33:48Z</time>
      </trkpt>
      <trkpt lat="43.68346" lon="3.76514">
        <ele>170</ele>
        <time>2020-12-30T10:33:50Z</time>
      </trkpt>
      <trkpt lat="43.68351" lon="3.76517">
        <ele>170</ele>
        <time>2020-12-30T10:33:52Z</time>
      </trkpt>
      <trkpt lat="43.68356" lon="3.7652">
        <ele>170</ele>
        <time>2020-12-30T10:33:54Z</time>
      </trkpt>
      <trkpt lat="43.6836" lon="3.76523">
        <ele>169</ele>
        <time>2020-12-30T10:33:56Z</time>
      </trkpt>
      <trkpt lat="43.68364" lon="3.76527">
        <ele>169</ele>
        <time>2020-12-30T10:33:58Z</time>
      </trkpt>
      <trkpt lat="43.68368" lon="3.76531">
        <ele>169</ele>
        <time>2020-12-30T10:34:00Z</time>
      </trkpt>
      <trkpt lat="43.68372" lon="3.76535">
        <ele>168</ele>
        <time>2020-12-30T10:34:03Z</time>
      </trkpt>
      <trkpt lat="43.68374" lon="3.76542">
        <ele>168</ele>
        <time>2020-12-30T10:34:07Z</time>
      </trkpt>
      <trkpt lat="43.68376" lon="3.7655">
        <ele>168</ele>
        <time>2020-12-30T10:34:10Z</time>
      </trkpt>
      <trkpt lat="43.68378" lon="3.76557">
        <ele>167</ele>
        <time>2020-12-30T10:34:12Z</time>
      </trkpt>
      <trkpt lat="43.68378" lon="3.76565">
        <ele>167</ele>
        <time>2020-12-30T10:34:15Z</time>
      </trkpt>
      <trkpt lat="43.68373" lon="3.7657">
        <ele>166</ele>
        <time>2020-12-30T10:34:25Z</time>
      </trkpt>
      <trkpt lat="43.6837" lon="3.76576">
        <ele>166</ele>
        <time>2020-12-30T10:34:28Z</time>
      </trkpt>
      <trkpt lat="43.68372" lon="3.76584">
        <ele>165</ele>
        <time>2020-12-30T10:34:31Z</time>
      </trkpt>
      <trkpt lat="43.68376" lon="3.76591">
        <ele>164</ele>
        <time>2020-12-30T10:34:34Z</time>
      </trkpt>
      <trkpt lat="43.68382" lon="3.76595">
        <ele>163</ele>
        <time>2020-12-30T10:34:37Z</time>
      </trkpt>
      <trkpt lat="43.68387" lon="3.76598">
        <ele>163</ele>
        <time>2020-12-30T10:34:40Z</time>
      </trkpt>
      <trkpt lat="43.68393" lon="3.76601">
        <ele>163</ele>
        <time>2020-12-30T10:34:43Z</time>
      </trkpt>
      <trkpt lat="43.68397" lon="3.76603">
        <ele>163</ele>
        <time>2020-12-30T10:34:46Z</time>
      </trkpt>
      <trkpt lat="43.68402" lon="3.76606">
        <ele>164</ele>
        <time>2020-12-30T10:34:50Z</time>
      </trkpt>
      <trkpt lat="43.68407" lon="3.76609">
        <ele>165</ele>
        <time>2020-12-30T10:34:53Z</time>
      </trkpt>
      <trkpt lat="43.6841" lon="3.76615">
        <ele>165</ele>
        <time>2020-12-30T10:34:57Z</time>
      </trkpt>
      <trkpt lat="43.6841" lon="3.76615">
        <ele>166</ele>
        <time>2020-12-30T10:35:26Z</time>
      </trkpt>
      <trkpt lat="43.6841" lon="3.76615">
        <ele>167</ele>
        <time>2020-12-30T10:35:28Z</time>
      </trkpt>
      <trkpt lat="43.68412" lon="3.76615">
        <ele>167</ele>
        <time>2020-12-30T10:35:56Z</time>
      </trkpt>
      <trkpt lat="43.68438" lon="3.76613">
        <ele>168</ele>
        <time>2020-12-30T10:36:11Z</time>
      </trkpt>
      <trkpt lat="43.68443" lon="3.76613">
        <ele>169</ele>
        <time>2020-12-30T10:36:14Z</time>
      </trkpt>
      <trkpt lat="43.68448" lon="3.76613">
        <ele>169</ele>
        <time>2020-12-30T10:36:17Z</time>
      </trkpt>
      <trkpt lat="43.68453" lon="3.76611">
        <ele>170</ele>
        <time>2020-12-30T10:36:20Z</time>
      </trkpt>
      <trkpt lat="43.68456" lon="3.76606">
        <ele>171</ele>
        <time>2020-12-30T10:36:35Z</time>
      </trkpt>
      <trkpt lat="43.68457" lon="3.76599">
        <ele>172</ele>
        <time>2020-12-30T10:36:41Z</time>
      </trkpt>
      <trkpt lat="43.6846" lon="3.76593">
        <ele>173</ele>
        <time>2020-12-30T10:36:52Z</time>
      </trkpt>
      <trkpt lat="43.6846" lon="3.76587">
        <ele>174</ele>
        <time>2020-12-30T10:37:01Z</time>
      </trkpt>
      <trkpt lat="43.68459" lon="3.7658">
        <ele>175</ele>
        <time>2020-12-30T10:37:20Z</time>
      </trkpt>
      <trkpt lat="43.68459" lon="3.76574">
        <ele>176</ele>
        <time>2020-12-30T10:37:23Z</time>
      </trkpt>
      <trkpt lat="43.68458" lon="3.76566">
        <ele>178</ele>
        <time>2020-12-30T10:37:27Z</time>
      </trkpt>
      <trkpt lat="43.68458" lon="3.76559">
        <ele>179</ele>
        <time>2020-12-30T10:37:33Z</time>
      </trkpt>
      <trkpt lat="43.6846" lon="3.76553">
        <ele>180</ele>
        <time>2020-12-30T10:37:38Z</time>
      </trkpt>
      <trkpt lat="43.6846" lon="3.76546">
        <ele>180</ele>
        <time>2020-12-30T10:37:44Z</time>
      </trkpt>
      <trkpt lat="43.68462" lon="3.76546">
        <ele>181</ele>
        <time>2020-12-30T10:38:11Z</time>
      </trkpt>
      <trkpt lat="43.68462" lon="3.76546">
        <ele>182</ele>
        <time>2020-12-30T10:38:13Z</time>
      </trkpt>
      <trkpt lat="43.68462" lon="3.76546">
        <ele>183</ele>
        <time>2020-12-30T10:38:41Z</time>
      </trkpt>
      <trkpt lat="43.68462" lon="3.76546">
        <ele>183</ele>
        <time>2020-12-30T10:38:43Z</time>
      </trkpt>
      <trkpt lat="43.68484" lon="3.76547">
        <ele>185</ele>
        <time>2020-12-30T10:39:04Z</time>
      </trkpt>
      <trkpt lat="43.68489" lon="3.76546">
        <ele>185</ele>
        <time>2020-12-30T10:39:07Z</time>
      </trkpt>
      <trkpt lat="43.68494" lon="3.76544">
        <ele>186</ele>
        <time>2020-12-30T10:39:11Z</time>
      </trkpt>
      <trkpt lat="43.68499" lon="3.76543">
        <ele>187</ele>
        <time>2020-12-30T10:39:15Z</time>
      </trkpt>
      <trkpt lat="43.68504" lon="3.76544">
        <ele>188</ele>
        <time>2020-12-30T10:39:18Z</time>
      </trkpt>
      <trkpt lat="43.68509" lon="3.76546">
        <ele>189</ele>
        <time>2020-12-30T10:39:21Z</time>
      </trkpt>
      <trkpt lat="43.68515" lon="3.76548">
        <ele>189</ele>
        <time>2020-12-30T10:39:24Z</time>
      </trkpt>
      <trkpt lat="43.6852" lon="3.76549">
        <ele>190</ele>
        <time>2020-12-30T10:39:27Z</time>
      </trkpt>
      <trkpt lat="43.68525" lon="3.7655">
        <ele>190</ele>
        <time>2020-12-30T10:39:30Z</time>
      </trkpt>
      <trkpt lat="43.68531" lon="3.76552">
        <ele>191</ele>
        <time>2020-12-30T10:39:34Z</time>
      </trkpt>
      <trkpt lat="43.68536" lon="3.76554">
        <ele>191</ele>
        <time>2020-12-30T10:39:37Z</time>
      </trkpt>
      <trkpt lat="43.68541" lon="3.76555">
        <ele>192</ele>
        <time>2020-12-30T10:39:40Z</time>
      </trkpt>
      <trkpt lat="43.68546" lon="3.76557">
        <ele>192</ele>
        <time>2020-12-30T10:39:43Z</time>
      </trkpt>
      <trkpt lat="43.6855" lon="3.76558">
        <ele>191</ele>
        <time>2020-12-30T10:39:45Z</time>
      </trkpt>
      <trkpt lat="43.68556" lon="3.76558">
        <ele>191</ele>
        <time>2020-12-30T10:39:48Z</time>
      </trkpt>
      <trkpt lat="43.68561" lon="3.76556">
        <ele>191</ele>
        <time>2020-12-30T10:39:51Z</time>
      </trkpt>
      <trkpt lat="43.68567" lon="3.76554">
        <ele>191</ele>
        <time>2020-12-30T10:39:54Z</time>
      </trkpt>
      <trkpt lat="43.68572" lon="3.7655">
        <ele>191</ele>
        <time>2020-12-30T10:39:57Z</time>
      </trkpt>
      <trkpt lat="43.68578" lon="3.76549">
        <ele>192</ele>
        <time>2020-12-30T10:40:00Z</time>
      </trkpt>
      <trkpt lat="43.68582" lon="3.76549">
        <ele>193</ele>
        <time>2020-12-30T10:40:13Z</time>
      </trkpt>
      <trkpt lat="43.68587" lon="3.76549">
        <ele>193</ele>
        <time>2020-12-30T10:40:16Z</time>
      </trkpt>
      <trkpt lat="43.68592" lon="3.76551">
        <ele>194</ele>
        <time>2020-12-30T10:40:20Z</time>
      </trkpt>
      <trkpt lat="43.68597" lon="3.76551">
        <ele>194</ele>
        <time>2020-12-30T10:40:23Z</time>
      </trkpt>
      <trkpt lat="43.68602" lon="3.7655">
        <ele>194</ele>
        <time>2020-12-30T10:40:38Z</time>
      </trkpt>
      <trkpt lat="43.68607" lon="3.7655">
        <ele>194</ele>
        <time>2020-12-30T10:40:42Z</time>
      </trkpt>
      <trkpt lat="43.68613" lon="3.7655">
        <ele>194</ele>
        <time>2020-12-30T10:40:46Z</time>
      </trkpt>
      <trkpt lat="43.68619" lon="3.7655">
        <ele>194</ele>
        <time>2020-12-30T10:40:50Z</time>
      </trkpt>
      <trkpt lat="43.68625" lon="3.76552">
        <ele>195</ele>
        <time>2020-12-30T10:40:54Z</time>
      </trkpt>
      <trkpt lat="43.6863" lon="3.76552">
        <ele>195</ele>
        <time>2020-12-30T10:40:58Z</time>
      </trkpt>
      <trkpt lat="43.68635" lon="3.76551">
        <ele>195</ele>
        <time>2020-12-30T10:41:01Z</time>
      </trkpt>
      <trkpt lat="43.6864" lon="3.76551">
        <ele>196</ele>
        <time>2020-12-30T10:41:04Z</time>
      </trkpt>
      <trkpt lat="43.68645" lon="3.76551">
        <ele>196</ele>
        <time>2020-12-30T10:41:07Z</time>
      </trkpt>
      <trkpt lat="43.6865" lon="3.76551">
        <ele>198</ele>
        <time>2020-12-30T10:41:11Z</time>
      </trkpt>
      <trkpt lat="43.68656" lon="3.76553">
        <ele>199</ele>
        <time>2020-12-30T10:41:15Z</time>
      </trkpt>
      <trkpt lat="43.68662" lon="3.76554">
        <ele>200</ele>
        <time>2020-12-30T10:41:19Z</time>
      </trkpt>
      <trkpt lat="43.68666" lon="3.76555">
        <ele>201</ele>
        <time>2020-12-30T10:41:22Z</time>
      </trkpt>
      <trkpt lat="43.68672" lon="3.76556">
        <ele>202</ele>
        <time>2020-12-30T10:41:26Z</time>
      </trkpt>
      <trkpt lat="43.68676" lon="3.76557">
        <ele>202</ele>
        <time>2020-12-30T10:41:29Z</time>
      </trkpt>
      <trkpt lat="43.68681" lon="3.76557">
        <ele>202</ele>
        <time>2020-12-30T10:41:32Z</time>
      </trkpt>
      <trkpt lat="43.68686" lon="3.76557">
        <ele>202</ele>
        <time>2020-12-30T10:41:35Z</time>
      </trkpt>
      <trkpt lat="43.68691" lon="3.76557">
        <ele>203</ele>
        <time>2020-12-30T10:41:40Z</time>
      </trkpt>
      <trkpt lat="43.68697" lon="3.76557">
        <ele>203</ele>
        <time>2020-12-30T10:41:44Z</time>
      </trkpt>
      <trkpt lat="43.68702" lon="3.76556">
        <ele>203</ele>
        <time>2020-12-30T10:41:48Z</time>
      </trkpt>
      <trkpt lat="43.68707" lon="3.76557">
        <ele>203</ele>
        <time>2020-12-30T10:41:51Z</time>
      </trkpt>
      <trkpt lat="43.68712" lon="3.76559">
        <ele>204</ele>
        <time>2020-12-30T10:41:55Z</time>
      </trkpt>
      <trkpt lat="43.68716" lon="3.76563">
        <ele>204</ele>
        <time>2020-12-30T10:41:58Z</time>
      </trkpt>
      <trkpt lat="43.6872" lon="3.76567">
        <ele>203</ele>
        <time>2020-12-30T10:42:00Z</time>
      </trkpt>
      <trkpt lat="43.68725" lon="3.7657">
        <ele>203</ele>
        <time>2020-12-30T10:42:03Z</time>
      </trkpt>
      <trkpt lat="43.6873" lon="3.76575">
        <ele>203</ele>
        <time>2020-12-30T10:42:07Z</time>
      </trkpt>
      <trkpt lat="43.68734" lon="3.76579">
        <ele>202</ele>
        <time>2020-12-30T10:42:10Z</time>
      </trkpt>
      <trkpt lat="43.68739" lon="3.76584">
        <ele>202</ele>
        <time>2020-12-30T10:42:13Z</time>
      </trkpt>
      <trkpt lat="43.68745" lon="3.76588">
        <ele>202</ele>
        <time>2020-12-30T10:42:16Z</time>
      </trkpt>
      <trkpt lat="43.6875" lon="3.76591">
        <ele>201</ele>
        <time>2020-12-30T10:42:18Z</time>
      </trkpt>
      <trkpt lat="43.68755" lon="3.76594">
        <ele>200</ele>
        <time>2020-12-30T10:42:21Z</time>
      </trkpt>
      <trkpt lat="43.6876" lon="3.76595">
        <ele>200</ele>
        <time>2020-12-30T10:42:24Z</time>
      </trkpt>
      <trkpt lat="43.68759" lon="3.76595">
        <ele>200</ele>
        <time>2020-12-30T10:42:41Z</time>
      </trkpt>
      <trkpt lat="43.68762" lon="3.76597">
        <ele>200</ele>
        <time>2020-12-30T10:42:43Z</time>
      </trkpt>
      <trkpt lat="43.68767" lon="3.766">
        <ele>200</ele>
        <time>2020-12-30T10:42:46Z</time>
      </trkpt>
      <trkpt lat="43.68772" lon="3.76603">
        <ele>199</ele>
        <time>2020-12-30T10:42:50Z</time>
      </trkpt>
      <trkpt lat="43.68776" lon="3.76604">
        <ele>199</ele>
        <time>2020-12-30T10:42:52Z</time>
      </trkpt>
      <trkpt lat="43.6878" lon="3.76609">
        <ele>197</ele>
        <time>2020-12-30T10:42:55Z</time>
      </trkpt>
      <trkpt lat="43.68783" lon="3.76614">
        <ele>196</ele>
        <time>2020-12-30T10:42:59Z</time>
      </trkpt>
      <trkpt lat="43.68787" lon="3.76618">
        <ele>194</ele>
        <time>2020-12-30T10:43:02Z</time>
      </trkpt>
      <trkpt lat="43.6879" lon="3.76623">
        <ele>193</ele>
        <time>2020-12-30T10:43:06Z</time>
      </trkpt>
      <trkpt lat="43.68795" lon="3.76629">
        <ele>191</ele>
        <time>2020-12-30T10:43:09Z</time>
      </trkpt>
      <trkpt lat="43.688" lon="3.76632">
        <ele>190</ele>
        <time>2020-12-30T10:43:12Z</time>
      </trkpt>
      <trkpt lat="43.68804" lon="3.76639">
        <ele>188</ele>
        <time>2020-12-30T10:43:16Z</time>
      </trkpt>
      <trkpt lat="43.68805" lon="3.76646">
        <ele>186</ele>
        <time>2020-12-30T10:43:20Z</time>
      </trkpt>
      <trkpt lat="43.688" lon="3.7665">
        <ele>185</ele>
        <time>2020-12-30T10:43:23Z</time>
      </trkpt>
      <trkpt lat="43.68797" lon="3.76654">
        <ele>183</ele>
        <time>2020-12-30T10:43:26Z</time>
      </trkpt>
      <trkpt lat="43.68792" lon="3.76658">
        <ele>182</ele>
        <time>2020-12-30T10:43:29Z</time>
      </trkpt>
      <trkpt lat="43.6879" lon="3.76665">
        <ele>182</ele>
        <time>2020-12-30T10:43:32Z</time>
      </trkpt>
      <trkpt lat="43.68787" lon="3.76671">
        <ele>181</ele>
        <time>2020-12-30T10:43:34Z</time>
      </trkpt>
      <trkpt lat="43.68783" lon="3.76675">
        <ele>180</ele>
        <time>2020-12-30T10:43:36Z</time>
      </trkpt>
      <trkpt lat="43.68779" lon="3.76681">
        <ele>180</ele>
        <time>2020-12-30T10:43:38Z</time>
      </trkpt>
      <trkpt lat="43.68776" lon="3.76687">
        <ele>179</ele>
        <time>2020-12-30T10:43:40Z</time>
      </trkpt>
      <trkpt lat="43.68773" lon="3.76692">
        <ele>179</ele>
        <time>2020-12-30T10:43:42Z</time>
      </trkpt>
      <trkpt lat="43.6877" lon="3.76697">
        <ele>178</ele>
        <time>2020-12-30T10:43:44Z</time>
      </trkpt>
      <trkpt lat="43.68766" lon="3.76704">
        <ele>177</ele>
        <time>2020-12-30T10:43:46Z</time>
      </trkpt>
      <trkpt lat="43.68764" lon="3.76711">
        <ele>177</ele>
        <time>2020-12-30T10:43:48Z</time>
      </trkpt>
      <trkpt lat="43.68761" lon="3.76718">
        <ele>176</ele>
        <time>2020-12-30T10:43:50Z</time>
      </trkpt>
      <trkpt lat="43.68759" lon="3.76725">
        <ele>175</ele>
        <time>2020-12-30T10:43:52Z</time>
      </trkpt>
      <trkpt lat="43.68757" lon="3.76733">
        <ele>174</ele>
        <time>2020-12-30T10:43:54Z</time>
      </trkpt>
      <trkpt lat="43.68756" lon="3.76739">
        <ele>173</ele>
        <time>2020-12-30T10:43:56Z</time>
      </trkpt>
      <trkpt lat="43.68753" lon="3.76746">
        <ele>172</ele>
        <time>2020-12-30T10:43:58Z</time>
      </trkpt>
      <trkpt lat="43.68751" lon="3.76753">
        <ele>171</ele>
        <time>2020-12-30T10:44:00Z</time>
      </trkpt>
      <trkpt lat="43.68748" lon="3.76759">
        <ele>171</ele>
        <time>2020-12-30T10:44:02Z</time>
      </trkpt>
      <trkpt lat="43.68745" lon="3.76765">
        <ele>170</ele>
        <time>2020-12-30T10:44:04Z</time>
      </trkpt>
      <trkpt lat="43.68743" lon="3.76772">
        <ele>169</ele>
        <time>2020-12-30T10:44:07Z</time>
      </trkpt>
      <trkpt lat="43.6874" lon="3.76779">
        <ele>169</ele>
        <time>2020-12-30T10:44:10Z</time>
      </trkpt>
      <trkpt lat="43.68737" lon="3.76784">
        <ele>168</ele>
        <time>2020-12-30T10:44:26Z</time>
      </trkpt>
      <trkpt lat="43.68734" lon="3.76788">
        <ele>167</ele>
        <time>2020-12-30T10:44:34Z</time>
      </trkpt>
      <trkpt lat="43.68734" lon="3.76791">
        <ele>166</ele>
        <time>2020-12-30T10:44:56Z</time>
      </trkpt>
      <trkpt lat="43.68733" lon="3.7679">
        <ele>165</ele>
        <time>2020-12-30T10:44:58Z</time>
      </trkpt>
      <trkpt lat="43.68725" lon="3.76807">
        <ele>164</ele>
        <time>2020-12-30T10:45:26Z</time>
      </trkpt>
      <trkpt lat="43.68724" lon="3.76814">
        <ele>163</ele>
        <time>2020-12-30T10:45:29Z</time>
      </trkpt>
      <trkpt lat="43.68722" lon="3.76823">
        <ele>163</ele>
        <time>2020-12-30T10:45:32Z</time>
      </trkpt>
      <trkpt lat="43.68722" lon="3.76833">
        <ele>162</ele>
        <time>2020-12-30T10:45:35Z</time>
      </trkpt>
      <trkpt lat="43.68724" lon="3.7684">
        <ele>161</ele>
        <time>2020-12-30T10:45:37Z</time>
      </trkpt>
      <trkpt lat="43.68726" lon="3.76848">
        <ele>160</ele>
        <time>2020-12-30T10:45:40Z</time>
      </trkpt>
      <trkpt lat="43.68729" lon="3.76856">
        <ele>159</ele>
        <time>2020-12-30T10:45:43Z</time>
      </trkpt>
      <trkpt lat="43.68729" lon="3.76863">
        <ele>158</ele>
        <time>2020-12-30T10:45:45Z</time>
      </trkpt>
      <trkpt lat="43.68732" lon="3.76877">
        <ele>157</ele>
        <time>2020-12-30T10:45:47Z</time>
      </trkpt>
      <trkpt lat="43.68733" lon="3.76883">
        <ele>156</ele>
        <time>2020-12-30T10:45:49Z</time>
      </trkpt>
      <trkpt lat="43.68734" lon="3.76893">
        <ele>155</ele>
        <time>2020-12-30T10:45:51Z</time>
      </trkpt>
      <trkpt lat="43.68736" lon="3.76902">
        <ele>155</ele>
        <time>2020-12-30T10:45:53Z</time>
      </trkpt>
      <trkpt lat="43.68737" lon="3.76909">
        <ele>154</ele>
        <time>2020-12-30T10:45:56Z</time>
      </trkpt>
      <trkpt lat="43.68739" lon="3.76918">
        <ele>154</ele>
        <time>2020-12-30T10:46:00Z</time>
      </trkpt>
      <trkpt lat="43.68739" lon="3.76925">
        <ele>153</ele>
        <time>2020-12-30T10:46:02Z</time>
      </trkpt>
      <trkpt lat="43.68739" lon="3.76933">
        <ele>153</ele>
        <time>2020-12-30T10:46:04Z</time>
      </trkpt>
      <trkpt lat="43.68739" lon="3.76941">
        <ele>152</ele>
        <time>2020-12-30T10:46:06Z</time>
      </trkpt>
      <trkpt lat="43.68739" lon="3.76949">
        <ele>151</ele>
        <time>2020-12-30T10:46:08Z</time>
      </trkpt>
      <trkpt lat="43.68739" lon="3.76957">
        <ele>151</ele>
        <time>2020-12-30T10:46:10Z</time>
      </trkpt>
      <trkpt lat="43.68738" lon="3.76966">
        <ele>151</ele>
        <time>2020-12-30T10:46:12Z</time>
      </trkpt>
      <trkpt lat="43.68738" lon="3.76973">
        <ele>150</ele>
        <time>2020-12-30T10:46:14Z</time>
      </trkpt>
      <trkpt lat="43.68738" lon="3.76981">
        <ele>150</ele>
        <time>2020-12-30T10:46:16Z</time>
      </trkpt>
      <trkpt lat="43.68737" lon="3.76989">
        <ele>149</ele>
        <time>2020-12-30T10:46:18Z</time>
      </trkpt>
      <trkpt lat="43.68739" lon="3.76997">
        <ele>148</ele>
        <time>2020-12-30T10:46:20Z</time>
      </trkpt>
      <trkpt lat="43.6874" lon="3.77005">
        <ele>147</ele>
        <time>2020-12-30T10:46:22Z</time>
      </trkpt>
      <trkpt lat="43.68742" lon="3.77013">
        <ele>146</ele>
        <time>2020-12-30T10:46:25Z</time>
      </trkpt>
      <trkpt lat="43.68747" lon="3.77016">
        <ele>146</ele>
        <time>2020-12-30T10:46:27Z</time>
      </trkpt>
      <trkpt lat="43.68753" lon="3.77015">
        <ele>145</ele>
        <time>2020-12-30T10:46:41Z</time>
      </trkpt>
      <trkpt lat="43.68756" lon="3.7701">
        <ele>145</ele>
        <time>2020-12-30T10:46:43Z</time>
      </trkpt>
      <trkpt lat="43.6876" lon="3.77006">
        <ele>145</ele>
        <time>2020-12-30T10:46:45Z</time>
      </trkpt>
      <trkpt lat="43.68763" lon="3.77002">
        <ele>146</ele>
        <time>2020-12-30T10:46:47Z</time>
      </trkpt>
      <trkpt lat="43.68769" lon="3.76997">
        <ele>146</ele>
        <time>2020-12-30T10:46:50Z</time>
      </trkpt>
      <trkpt lat="43.68774" lon="3.76991">
        <ele>146</ele>
        <time>2020-12-30T10:46:53Z</time>
      </trkpt>
      <trkpt lat="43.68778" lon="3.76988">
        <ele>146</ele>
        <time>2020-12-30T10:46:56Z</time>
      </trkpt>
      <trkpt lat="43.68783" lon="3.76987">
        <ele>146</ele>
        <time>2020-12-30T10:47:00Z</time>
      </trkpt>
      <trkpt lat="43.68787" lon="3.76985">
        <ele>146</ele>
        <time>2020-12-30T10:47:03Z</time>
      </trkpt>
      <trkpt lat="43.68794" lon="3.76987">
        <ele>146</ele>
        <time>2020-12-30T10:47:06Z</time>
      </trkpt>
      <trkpt lat="43.688" lon="3.76987">
        <ele>146</ele>
        <time>2020-12-30T10:47:09Z</time>
      </trkpt>
      <trkpt lat="43.68807" lon="3.76989">
        <ele>146</ele>
        <time>2020-12-30T10:47:12Z</time>
      </trkpt>
      <trkpt lat="43.68811" lon="3.7699">
        <ele>146</ele>
        <time>2020-12-30T10:47:14Z</time>
      </trkpt>
      <trkpt lat="43.68816" lon="3.7699">
        <ele>146</ele>
        <time>2020-12-30T10:47:16Z</time>
      </trkpt>
      <trkpt lat="43.6882" lon="3.76988">
        <ele>147</ele>
        <time>2020-12-30T10:47:18Z</time>
      </trkpt>
      <trkpt lat="43.68825" lon="3.76984">
        <ele>147</ele>
        <time>2020-12-30T10:47:21Z</time>
      </trkpt>
      <trkpt lat="43.68829" lon="3.76979">
        <ele>146</ele>
        <time>2020-12-30T10:47:24Z</time>
      </trkpt>
      <trkpt lat="43.68834" lon="3.76975">
        <ele>146</ele>
        <time>2020-12-30T10:47:26Z</time>
      </trkpt>
      <trkpt lat="43.68837" lon="3.7697">
        <ele>146</ele>
        <time>2020-12-30T10:47:28Z</time>
      </trkpt>
      <trkpt lat="43.68842" lon="3.76964">
        <ele>145</ele>
        <time>2020-12-30T10:47:31Z</time>
      </trkpt>
      <trkpt lat="43.68845" lon="3.76956">
        <ele>144</ele>
        <time>2020-12-30T10:47:34Z</time>
      </trkpt>
      <trkpt lat="43.68848" lon="3.76949">
        <ele>145</ele>
        <time>2020-12-30T10:47:37Z</time>
      </trkpt>
      <trkpt lat="43.68853" lon="3.76944">
        <ele>145</ele>
        <time>2020-12-30T10:47:40Z</time>
      </trkpt>
      <trkpt lat="43.68857" lon="3.76937">
        <ele>145</ele>
        <time>2020-12-30T10:47:43Z</time>
      </trkpt>
      <trkpt lat="43.68861" lon="3.76932">
        <ele>145</ele>
        <time>2020-12-30T10:47:46Z</time>
      </trkpt>
      <trkpt lat="43.68867" lon="3.7693">
        <ele>145</ele>
        <time>2020-12-30T10:47:49Z</time>
      </trkpt>
      <trkpt lat="43.68873" lon="3.76931">
        <ele>145</ele>
        <time>2020-12-30T10:47:52Z</time>
      </trkpt>
      <trkpt lat="43.68879" lon="3.76933">
        <ele>145</ele>
        <time>2020-12-30T10:47:55Z</time>
      </trkpt>
      <trkpt lat="43.68884" lon="3.76933">
        <ele>145</ele>
        <time>2020-12-30T10:47:58Z</time>
      </trkpt>
      <trkpt lat="43.68888" lon="3.7693">
        <ele>146</ele>
        <time>2020-12-30T10:48:01Z</time>
      </trkpt>
      <trkpt lat="43.68893" lon="3.76928">
        <ele>146</ele>
        <time>2020-12-30T10:48:04Z</time>
      </trkpt>
      <trkpt lat="43.68899" lon="3.76926">
        <ele>146</ele>
        <time>2020-12-30T10:48:08Z</time>
      </trkpt>
      <trkpt lat="43.68906" lon="3.76927">
        <ele>147</ele>
        <time>2020-12-30T10:48:11Z</time>
      </trkpt>
      <trkpt lat="43.68911" lon="3.7693">
        <ele>147</ele>
        <time>2020-12-30T10:48:14Z</time>
      </trkpt>
      <trkpt lat="43.68918" lon="3.76934">
        <ele>147</ele>
        <time>2020-12-30T10:48:17Z</time>
      </trkpt>
      <trkpt lat="43.68923" lon="3.76936">
        <ele>147</ele>
        <time>2020-12-30T10:48:19Z</time>
      </trkpt>
      <trkpt lat="43.68929" lon="3.76939">
        <ele>147</ele>
        <time>2020-12-30T10:48:22Z</time>
      </trkpt>
      <trkpt lat="43.68934" lon="3.76941">
        <ele>147</ele>
        <time>2020-12-30T10:48:24Z</time>
      </trkpt>
      <trkpt lat="43.68938" lon="3.76943">
        <ele>147</ele>
        <time>2020-12-30T10:48:26Z</time>
      </trkpt>
      <trkpt lat="43.68943" lon="3.76946">
        <ele>147</ele>
        <time>2020-12-30T10:48:28Z</time>
      </trkpt>
      <trkpt lat="43.68949" lon="3.76949">
        <ele>147</ele>
        <time>2020-12-30T10:48:31Z</time>
      </trkpt>
      <trkpt lat="43.68954" lon="3.76951">
        <ele>147</ele>
        <time>2020-12-30T10:48:33Z</time>
      </trkpt>
      <trkpt lat="43.68959" lon="3.76952">
        <ele>147</ele>
        <time>2020-12-30T10:48:35Z</time>
      </trkpt>
      <trkpt lat="43.68965" lon="3.76954">
        <ele>148</ele>
        <time>2020-12-30T10:48:38Z</time>
      </trkpt>
      <trkpt lat="43.6897" lon="3.76955">
        <ele>148</ele>
        <time>2020-12-30T10:48:40Z</time>
      </trkpt>
      <trkpt lat="43.68974" lon="3.76956">
        <ele>148</ele>
        <time>2020-12-30T10:48:42Z</time>
      </trkpt>
      <trkpt lat="43.68981" lon="3.76957">
        <ele>148</ele>
        <time>2020-12-30T10:48:45Z</time>
      </trkpt>
      <trkpt lat="43.68987" lon="3.7696">
        <ele>148</ele>
        <time>2020-12-30T10:48:48Z</time>
      </trkpt>
      <trkpt lat="43.68993" lon="3.7696">
        <ele>149</ele>
        <time>2020-12-30T10:48:51Z</time>
      </trkpt>
      <trkpt lat="43.69" lon="3.76958">
        <ele>149</ele>
        <time>2020-12-30T10:48:54Z</time>
      </trkpt>
      <trkpt lat="43.69006" lon="3.76956">
        <ele>149</ele>
        <time>2020-12-30T10:48:57Z</time>
      </trkpt>
      <trkpt lat="43.6901" lon="3.76952">
        <ele>149</ele>
        <time>2020-12-30T10:49:00Z</time>
      </trkpt>
      <trkpt lat="43.69016" lon="3.76947">
        <ele>150</ele>
        <time>2020-12-30T10:49:03Z</time>
      </trkpt>
      <trkpt lat="43.69021" lon="3.76945">
        <ele>150</ele>
        <time>2020-12-30T10:49:06Z</time>
      </trkpt>
      <trkpt lat="43.69027" lon="3.76944">
        <ele>149</ele>
        <time>2020-12-30T10:49:10Z</time>
      </trkpt>
      <trkpt lat="43.69033" lon="3.76943">
        <ele>149</ele>
        <time>2020-12-30T10:49:13Z</time>
      </trkpt>
      <trkpt lat="43.69038" lon="3.76943">
        <ele>149</ele>
        <time>2020-12-30T10:49:16Z</time>
      </trkpt>
      <trkpt lat="43.69043" lon="3.76944">
        <ele>150</ele>
        <time>2020-12-30T10:49:19Z</time>
      </trkpt>
      <trkpt lat="43.69048" lon="3.76948">
        <ele>150</ele>
        <time>2020-12-30T10:49:22Z</time>
      </trkpt>
      <trkpt lat="43.69053" lon="3.7695">
        <ele>150</ele>
        <time>2020-12-30T10:49:25Z</time>
      </trkpt>
      <trkpt lat="43.69058" lon="3.76953">
        <ele>150</ele>
        <time>2020-12-30T10:49:28Z</time>
      </trkpt>
      <trkpt lat="43.69062" lon="3.76956">
        <ele>151</ele>
        <time>2020-12-30T10:49:32Z</time>
      </trkpt>
      <trkpt lat="43.69065" lon="3.76964">
        <ele>151</ele>
        <time>2020-12-30T10:49:35Z</time>
      </trkpt>
      <trkpt lat="43.69066" lon="3.7697">
        <ele>151</ele>
        <time>2020-12-30T10:49:37Z</time>
      </trkpt>
      <trkpt lat="43.69066" lon="3.7698">
        <ele>151</ele>
        <time>2020-12-30T10:49:40Z</time>
      </trkpt>
      <trkpt lat="43.69066" lon="3.76986">
        <ele>152</ele>
        <time>2020-12-30T10:49:42Z</time>
      </trkpt>
      <trkpt lat="43.69068" lon="3.76994">
        <ele>152</ele>
        <time>2020-12-30T10:49:45Z</time>
      </trkpt>
      <trkpt lat="43.69069" lon="3.77002">
        <ele>152</ele>
        <time>2020-12-30T10:49:48Z</time>
      </trkpt>
      <trkpt lat="43.69072" lon="3.77009">
        <ele>152</ele>
        <time>2020-12-30T10:49:51Z</time>
      </trkpt>
      <trkpt lat="43.69075" lon="3.77016">
        <ele>152</ele>
        <time>2020-12-30T10:49:54Z</time>
      </trkpt>
      <trkpt lat="43.6908" lon="3.77021">
        <ele>152</ele>
        <time>2020-12-30T10:49:57Z</time>
      </trkpt>
      <trkpt lat="43.69084" lon="3.77028">
        <ele>152</ele>
        <time>2020-12-30T10:50:00Z</time>
      </trkpt>
      <trkpt lat="43.69087" lon="3.77034">
        <ele>152</ele>
        <time>2020-12-30T10:50:02Z</time>
      </trkpt>
      <trkpt lat="43.69091" lon="3.7704">
        <ele>152</ele>
        <time>2020-12-30T10:50:05Z</time>
      </trkpt>
      <trkpt lat="43.69095" lon="3.77042">
        <ele>153</ele>
        <time>2020-12-30T10:50:07Z</time>
      </trkpt>
      <trkpt lat="43.69101" lon="3.77044">
        <ele>153</ele>
        <time>2020-12-30T10:50:10Z</time>
      </trkpt>
      <trkpt lat="43.69106" lon="3.77046">
        <ele>154</ele>
        <time>2020-12-30T10:50:13Z</time>
      </trkpt>
      <trkpt lat="43.69112" lon="3.77047">
        <ele>155</ele>
        <time>2020-12-30T10:50:16Z</time>
      </trkpt>
      <trkpt lat="43.69118" lon="3.77045">
        <ele>155</ele>
        <time>2020-12-30T10:50:19Z</time>
      </trkpt>
      <trkpt lat="43.69123" lon="3.77042">
        <ele>156</ele>
        <time>2020-12-30T10:50:22Z</time>
      </trkpt>
      <trkpt lat="43.69126" lon="3.7704">
        <ele>156</ele>
        <time>2020-12-30T10:50:41Z</time>
      </trkpt>
      <trkpt lat="43.69125" lon="3.77038">
        <ele>157</ele>
        <time>2020-12-30T10:50:43Z</time>
      </trkpt>
      <trkpt lat="43.69129" lon="3.77035">
        <ele>157</ele>
        <time>2020-12-30T10:50:53Z</time>
      </trkpt>
      <trkpt lat="43.69133" lon="3.7703">
        <ele>158</ele>
        <time>2020-12-30T10:50:56Z</time>
      </trkpt>
      <trkpt lat="43.69138" lon="3.77028">
        <ele>159</ele>
        <time>2020-12-30T10:50:58Z</time>
      </trkpt>
      <trkpt lat="43.69143" lon="3.77025">
        <ele>159</ele>
        <time>2020-12-30T10:51:00Z</time>
      </trkpt>
      <trkpt lat="43.69149" lon="3.77022">
        <ele>160</ele>
        <time>2020-12-30T10:51:04Z</time>
      </trkpt>
      <trkpt lat="43.69154" lon="3.7702">
        <ele>160</ele>
        <time>2020-12-30T10:51:07Z</time>
      </trkpt>
      <trkpt lat="43.69158" lon="3.77016">
        <ele>160</ele>
        <time>2020-12-30T10:51:10Z</time>
      </trkpt>
      <trkpt lat="43.69162" lon="3.77012">
        <ele>160</ele>
        <time>2020-12-30T10:51:13Z</time>
      </trkpt>
      <trkpt lat="43.69165" lon="3.77005">
        <ele>160</ele>
        <time>2020-12-30T10:51:16Z</time>
      </trkpt>
      <trkpt lat="43.69171" lon="3.76998">
        <ele>159</ele>
        <time>2020-12-30T10:51:19Z</time>
      </trkpt>
      <trkpt lat="43.69178" lon="3.76992">
        <ele>159</ele>
        <time>2020-12-30T10:51:21Z</time>
      </trkpt>
      <trkpt lat="43.69188" lon="3.76987">
        <ele>158</ele>
        <time>2020-12-30T10:51:22Z</time>
      </trkpt>
      <trkpt lat="43.69194" lon="3.76981">
        <ele>158</ele>
        <time>2020-12-30T10:51:25Z</time>
      </trkpt>
      <trkpt lat="43.692" lon="3.76979">
        <ele>157</ele>
        <time>2020-12-30T10:51:27Z</time>
      </trkpt>
      <trkpt lat="43.69205" lon="3.76977">
        <ele>157</ele>
        <time>2020-12-30T10:51:31Z</time>
      </trkpt>
      <trkpt lat="43.6921" lon="3.76974">
        <ele>158</ele>
        <time>2020-12-30T10:51:34Z</time>
      </trkpt>
      <trkpt lat="43.69214" lon="3.76973">
        <ele>158</ele>
        <time>2020-12-30T10:51:36Z</time>
      </trkpt>
      <trkpt lat="43.69218" lon="3.7697">
        <ele>159</ele>
        <time>2020-12-30T10:51:38Z</time>
      </trkpt>
      <trkpt lat="43.69223" lon="3.76969">
        <ele>159</ele>
        <time>2020-12-30T10:51:40Z</time>
      </trkpt>
      <trkpt lat="43.69228" lon="3.76969">
        <ele>159</ele>
        <time>2020-12-30T10:51:43Z</time>
      </trkpt>
      <trkpt lat="43.69234" lon="3.76969">
        <ele>159</ele>
        <time>2020-12-30T10:51:46Z</time>
      </trkpt>
      <trkpt lat="43.69239" lon="3.7697">
        <ele>159</ele>
        <time>2020-12-30T10:51:49Z</time>
      </trkpt>
      <trkpt lat="43.69245" lon="3.76972">
        <ele>159</ele>
        <time>2020-12-30T10:51:52Z</time>
      </trkpt>
      <trkpt lat="43.69251" lon="3.76974">
        <ele>158</ele>
        <time>2020-12-30T10:51:55Z</time>
      </trkpt>
      <trkpt lat="43.69257" lon="3.76975">
        <ele>158</ele>
        <time>2020-12-30T10:51:58Z</time>
      </trkpt>
      <trkpt lat="43.69262" lon="3.76978">
        <ele>158</ele>
        <time>2020-12-30T10:52:01Z</time>
      </trkpt>
      <trkpt lat="43.69268" lon="3.76981">
        <ele>159</ele>
        <time>2020-12-30T10:52:05Z</time>
      </trkpt>
      <trkpt lat="43.69273" lon="3.76984">
        <ele>159</ele>
        <time>2020-12-30T10:52:08Z</time>
      </trkpt>
      <trkpt lat="43.69278" lon="3.76986">
        <ele>159</ele>
        <time>2020-12-30T10:52:10Z</time>
      </trkpt>
      <trkpt lat="43.69283" lon="3.76989">
        <ele>159</ele>
        <time>2020-12-30T10:52:12Z</time>
      </trkpt>
      <trkpt lat="43.69288" lon="3.76994">
        <ele>159</ele>
        <time>2020-12-30T10:52:15Z</time>
      </trkpt>
      <trkpt lat="43.69293" lon="3.76998">
        <ele>159</ele>
        <time>2020-12-30T10:52:18Z</time>
      </trkpt>
      <trkpt lat="43.69299" lon="3.77">
        <ele>159</ele>
        <time>2020-12-30T10:52:20Z</time>
      </trkpt>
      <trkpt lat="43.69305" lon="3.77001">
        <ele>159</ele>
        <time>2020-12-30T10:52:23Z</time>
      </trkpt>
      <trkpt lat="43.6931" lon="3.77001">
        <ele>159</ele>
        <time>2020-12-30T10:52:26Z</time>
      </trkpt>
      <trkpt lat="43.69315" lon="3.77001">
        <ele>159</ele>
        <time>2020-12-30T10:52:29Z</time>
      </trkpt>
      <trkpt lat="43.69321" lon="3.77001">
        <ele>159</ele>
        <time>2020-12-30T10:52:33Z</time>
      </trkpt>
      <trkpt lat="43.69326" lon="3.76997">
        <ele>160</ele>
        <time>2020-12-30T10:52:36Z</time>
      </trkpt>
      <trkpt lat="43.6933" lon="3.76994">
        <ele>160</ele>
        <time>2020-12-30T10:52:39Z</time>
      </trkpt>
      <trkpt lat="43.69335" lon="3.76992">
        <ele>161</ele>
        <time>2020-12-30T10:52:42Z</time>
      </trkpt>
      <trkpt lat="43.69339" lon="3.76991">
        <ele>161</ele>
        <time>2020-12-30T10:52:45Z</time>
      </trkpt>
      <trkpt lat="43.69345" lon="3.76992">
        <ele>161</ele>
        <time>2020-12-30T10:52:48Z</time>
      </trkpt>
      <trkpt lat="43.6935" lon="3.76989">
        <ele>162</ele>
        <time>2020-12-30T10:52:51Z</time>
      </trkpt>
      <trkpt lat="43.69354" lon="3.76984">
        <ele>163</ele>
        <time>2020-12-30T10:52:59Z</time>
      </trkpt>
      <trkpt lat="43.69358" lon="3.76978">
        <ele>163</ele>
        <time>2020-12-30T10:53:03Z</time>
      </trkpt>
      <trkpt lat="43.69362" lon="3.76973">
        <ele>164</ele>
        <time>2020-12-30T10:53:08Z</time>
      </trkpt>
      <trkpt lat="43.69367" lon="3.76973">
        <ele>164</ele>
        <time>2020-12-30T10:53:12Z</time>
      </trkpt>
      <trkpt lat="43.69373" lon="3.76973">
        <ele>165</ele>
        <time>2020-12-30T10:53:15Z</time>
      </trkpt>
      <trkpt lat="43.69378" lon="3.76974">
        <ele>165</ele>
        <time>2020-12-30T10:53:18Z</time>
      </trkpt>
      <trkpt lat="43.69383" lon="3.76978">
        <ele>165</ele>
        <time>2020-12-30T10:53:22Z</time>
      </trkpt>
      <trkpt lat="43.69387" lon="3.76983">
        <ele>164</ele>
        <time>2020-12-30T10:53:25Z</time>
      </trkpt>
      <trkpt lat="43.69393" lon="3.76988">
        <ele>164</ele>
        <time>2020-12-30T10:53:28Z</time>
      </trkpt>
      <trkpt lat="43.69396" lon="3.76993">
        <ele>164</ele>
        <time>2020-12-30T10:53:30Z</time>
      </trkpt>
      <trkpt lat="43.69399" lon="3.76998">
        <ele>165</ele>
        <time>2020-12-30T10:53:33Z</time>
      </trkpt>
      <trkpt lat="43.69402" lon="3.77004">
        <ele>165</ele>
        <time>2020-12-30T10:53:36Z</time>
      </trkpt>
      <trkpt lat="43.69405" lon="3.77009">
        <ele>166</ele>
        <time>2020-12-30T10:53:39Z</time>
      </trkpt>
      <trkpt lat="43.69411" lon="3.77009">
        <ele>167</ele>
        <time>2020-12-30T10:53:42Z</time>
      </trkpt>
      <trkpt lat="43.69416" lon="3.77008">
        <ele>167</ele>
        <time>2020-12-30T10:53:45Z</time>
      </trkpt>
      <trkpt lat="43.69421" lon="3.77004">
        <ele>168</ele>
        <time>2020-12-30T10:53:48Z</time>
      </trkpt>
      <trkpt lat="43.69425" lon="3.77007">
        <ele>168</ele>
        <time>2020-12-30T10:53:51Z</time>
      </trkpt>
      <trkpt lat="43.69425" lon="3.77009">
        <ele>169</ele>
        <time>2020-12-30T10:54:11Z</time>
      </trkpt>
      <trkpt lat="43.69425" lon="3.77009">
        <ele>170</ele>
        <time>2020-12-30T10:54:13Z</time>
      </trkpt>
      <trkpt lat="43.6942" lon="3.77009">
        <ele>172</ele>
        <time>2020-12-30T10:54:20Z</time>
      </trkpt>
      <trkpt lat="43.6942" lon="3.77009">
        <ele>174</ele>
        <time>2020-12-30T10:54:42Z</time>
      </trkpt>
      <trkpt lat="43.6942" lon="3.77009">
        <ele>175</ele>
        <time>2020-12-30T10:54:43Z</time>
      </trkpt>
      <trkpt lat="43.69424" lon="3.77003">
        <ele>176</ele>
        <time>2020-12-30T10:54:47Z</time>
      </trkpt>
      <trkpt lat="43.69429" lon="3.76997">
        <ele>176</ele>
        <time>2020-12-30T10:54:50Z</time>
      </trkpt>
      <trkpt lat="43.69444" lon="3.76979">
        <ele>172</ele>
        <time>2020-12-30T10:55:09Z</time>
      </trkpt>
      <trkpt lat="43.69446" lon="3.76973">
        <ele>171</ele>
        <time>2020-12-30T10:55:14Z</time>
      </trkpt>
      <trkpt lat="43.69446" lon="3.76966">
        <ele>171</ele>
        <time>2020-12-30T10:55:17Z</time>
      </trkpt>
      <trkpt lat="43.6945" lon="3.76959">
        <ele>170</ele>
        <time>2020-12-30T10:55:20Z</time>
      </trkpt>
      <trkpt lat="43.6945" lon="3.7695">
        <ele>170</ele>
        <time>2020-12-30T10:55:23Z</time>
      </trkpt>
      <trkpt lat="43.6945" lon="3.76942">
        <ele>169</ele>
        <time>2020-12-30T10:55:26Z</time>
      </trkpt>
      <trkpt lat="43.69454" lon="3.76936">
        <ele>169</ele>
        <time>2020-12-30T10:55:30Z</time>
      </trkpt>
      <trkpt lat="43.69459" lon="3.76935">
        <ele>170</ele>
        <time>2020-12-30T10:55:33Z</time>
      </trkpt>
      <trkpt lat="43.69465" lon="3.76937">
        <ele>170</ele>
        <time>2020-12-30T10:55:36Z</time>
      </trkpt>
      <trkpt lat="43.6947" lon="3.76935">
        <ele>170</ele>
        <time>2020-12-30T10:55:39Z</time>
      </trkpt>
      <trkpt lat="43.69475" lon="3.76932">
        <ele>170</ele>
        <time>2020-12-30T10:55:42Z</time>
      </trkpt>
      <trkpt lat="43.69479" lon="3.76929">
        <ele>169</ele>
        <time>2020-12-30T10:55:45Z</time>
      </trkpt>
      <trkpt lat="43.69484" lon="3.76926">
        <ele>169</ele>
        <time>2020-12-30T10:55:48Z</time>
      </trkpt>
      <trkpt lat="43.69488" lon="3.76921">
        <ele>168</ele>
        <time>2020-12-30T10:55:51Z</time>
      </trkpt>
      <trkpt lat="43.69492" lon="3.76918">
        <ele>168</ele>
        <time>2020-12-30T10:55:54Z</time>
      </trkpt>
      <trkpt lat="43.69497" lon="3.76919">
        <ele>168</ele>
        <time>2020-12-30T10:55:56Z</time>
      </trkpt>
      <trkpt lat="43.69502" lon="3.76923">
        <ele>168</ele>
        <time>2020-12-30T10:55:59Z</time>
      </trkpt>
      <trkpt lat="43.69506" lon="3.76928">
        <ele>168</ele>
        <time>2020-12-30T10:56:03Z</time>
      </trkpt>
      <trkpt lat="43.69509" lon="3.76932">
        <ele>169</ele>
        <time>2020-12-30T10:56:06Z</time>
      </trkpt>
      <trkpt lat="43.69512" lon="3.76938">
        <ele>169</ele>
        <time>2020-12-30T10:56:09Z</time>
      </trkpt>
      <trkpt lat="43.69516" lon="3.76943">
        <ele>169</ele>
        <time>2020-12-30T10:56:12Z</time>
      </trkpt>
      <trkpt lat="43.69522" lon="3.76942">
        <ele>170</ele>
        <time>2020-12-30T10:56:16Z</time>
      </trkpt>
      <trkpt lat="43.69527" lon="3.76936">
        <ele>170</ele>
        <time>2020-12-30T10:56:19Z</time>
      </trkpt>
      <trkpt lat="43.6953" lon="3.76928">
        <ele>171</ele>
        <time>2020-12-30T10:56:22Z</time>
      </trkpt>
      <trkpt lat="43.69533" lon="3.76922">
        <ele>171</ele>
        <time>2020-12-30T10:56:24Z</time>
      </trkpt>
      <trkpt lat="43.69535" lon="3.76915">
        <ele>172</ele>
        <time>2020-12-30T10:56:27Z</time>
      </trkpt>
      <trkpt lat="43.69538" lon="3.76908">
        <ele>172</ele>
        <time>2020-12-30T10:56:30Z</time>
      </trkpt>
      <trkpt lat="43.69541" lon="3.76903">
        <ele>172</ele>
        <time>2020-12-30T10:56:32Z</time>
      </trkpt>
      <trkpt lat="43.69544" lon="3.76898">
        <ele>172</ele>
        <time>2020-12-30T10:56:34Z</time>
      </trkpt>
      <trkpt lat="43.69548" lon="3.76892">
        <ele>172</ele>
        <time>2020-12-30T10:56:37Z</time>
      </trkpt>
      <trkpt lat="43.69553" lon="3.76889">
        <ele>172</ele>
        <time>2020-12-30T10:56:40Z</time>
      </trkpt>
      <trkpt lat="43.69558" lon="3.76885">
        <ele>171</ele>
        <time>2020-12-30T10:56:43Z</time>
      </trkpt>
      <trkpt lat="43.69564" lon="3.76883">
        <ele>172</ele>
        <time>2020-12-30T10:56:45Z</time>
      </trkpt>
      <trkpt lat="43.6957" lon="3.76881">
        <ele>172</ele>
        <time>2020-12-30T10:56:48Z</time>
      </trkpt>
      <trkpt lat="43.69576" lon="3.76882">
        <ele>172</ele>
        <time>2020-12-30T10:56:51Z</time>
      </trkpt>
      <trkpt lat="43.69583" lon="3.76883">
        <ele>172</ele>
        <time>2020-12-30T10:56:54Z</time>
      </trkpt>
      <trkpt lat="43.69588" lon="3.76887">
        <ele>173</ele>
        <time>2020-12-30T10:56:57Z</time>
      </trkpt>
      <trkpt lat="43.69592" lon="3.76891">
        <ele>173</ele>
        <time>2020-12-30T10:57:00Z</time>
      </trkpt>
      <trkpt lat="43.69598" lon="3.76896">
        <ele>173</ele>
        <time>2020-12-30T10:57:03Z</time>
      </trkpt>
      <trkpt lat="43.69601" lon="3.769">
        <ele>173</ele>
        <time>2020-12-30T10:57:05Z</time>
      </trkpt>
      <trkpt lat="43.69606" lon="3.76906">
        <ele>174</ele>
        <time>2020-12-30T10:57:08Z</time>
      </trkpt>
      <trkpt lat="43.6961" lon="3.76913">
        <ele>174</ele>
        <time>2020-12-30T10:57:11Z</time>
      </trkpt>
      <trkpt lat="43.69614" lon="3.76917">
        <ele>174</ele>
        <time>2020-12-30T10:57:14Z</time>
      </trkpt>
      <trkpt lat="43.6962" lon="3.7692">
        <ele>175</ele>
        <time>2020-12-30T10:57:17Z</time>
      </trkpt>
      <trkpt lat="43.69624" lon="3.76923">
        <ele>175</ele>
        <time>2020-12-30T10:57:19Z</time>
      </trkpt>
      <trkpt lat="43.69631" lon="3.76925">
        <ele>176</ele>
        <time>2020-12-30T10:57:22Z</time>
      </trkpt>
      <trkpt lat="43.69637" lon="3.76927">
        <ele>176</ele>
        <time>2020-12-30T10:57:24Z</time>
      </trkpt>
      <trkpt lat="43.69642" lon="3.76929">
        <ele>176</ele>
        <time>2020-12-30T10:57:26Z</time>
      </trkpt>
      <trkpt lat="43.69647" lon="3.76932">
        <ele>176</ele>
        <time>2020-12-30T10:57:28Z</time>
      </trkpt>
      <trkpt lat="43.69651" lon="3.76935">
        <ele>177</ele>
        <time>2020-12-30T10:57:30Z</time>
      </trkpt>
      <trkpt lat="43.69657" lon="3.76935">
        <ele>177</ele>
        <time>2020-12-30T10:57:32Z</time>
      </trkpt>
      <trkpt lat="43.69662" lon="3.76935">
        <ele>177</ele>
        <time>2020-12-30T10:57:34Z</time>
      </trkpt>
      <trkpt lat="43.69667" lon="3.76933">
        <ele>177</ele>
        <time>2020-12-30T10:57:36Z</time>
      </trkpt>
      <trkpt lat="43.69672" lon="3.76932">
        <ele>177</ele>
        <time>2020-12-30T10:57:38Z</time>
      </trkpt>
      <trkpt lat="43.69678" lon="3.76931">
        <ele>177</ele>
        <time>2020-12-30T10:57:40Z</time>
      </trkpt>
      <trkpt lat="43.69682" lon="3.76929">
        <ele>178</ele>
        <time>2020-12-30T10:57:43Z</time>
      </trkpt>
      <trkpt lat="43.69688" lon="3.76926">
        <ele>178</ele>
        <time>2020-12-30T10:57:45Z</time>
      </trkpt>
      <trkpt lat="43.69694" lon="3.76923">
        <ele>178</ele>
        <time>2020-12-30T10:57:48Z</time>
      </trkpt>
      <trkpt lat="43.697" lon="3.76919">
        <ele>178</ele>
        <time>2020-12-30T10:57:50Z</time>
      </trkpt>
      <trkpt lat="43.69705" lon="3.76915">
        <ele>178</ele>
        <time>2020-12-30T10:57:52Z</time>
      </trkpt>
      <trkpt lat="43.6971" lon="3.76911">
        <ele>177</ele>
        <time>2020-12-30T10:57:55Z</time>
      </trkpt>
      <trkpt lat="43.69716" lon="3.76906">
        <ele>177</ele>
        <time>2020-12-30T10:57:57Z</time>
      </trkpt>
      <trkpt lat="43.69721" lon="3.76901">
        <ele>177</ele>
        <time>2020-12-30T10:57:59Z</time>
      </trkpt>
      <trkpt lat="43.69729" lon="3.76895">
        <ele>177</ele>
        <time>2020-12-30T10:58:01Z</time>
      </trkpt>
      <trkpt lat="43.69733" lon="3.76892">
        <ele>177</ele>
        <time>2020-12-30T10:58:03Z</time>
      </trkpt>
      <trkpt lat="43.6974" lon="3.76887">
        <ele>177</ele>
        <time>2020-12-30T10:58:06Z</time>
      </trkpt>
      <trkpt lat="43.69745" lon="3.76885">
        <ele>178</ele>
        <time>2020-12-30T10:58:09Z</time>
      </trkpt>
      <trkpt lat="43.69751" lon="3.76881">
        <ele>178</ele>
        <time>2020-12-30T10:58:13Z</time>
      </trkpt>
      <trkpt lat="43.69757" lon="3.76878">
        <ele>178</ele>
        <time>2020-12-30T10:58:16Z</time>
      </trkpt>
      <trkpt lat="43.69763" lon="3.76876">
        <ele>178</ele>
        <time>2020-12-30T10:58:19Z</time>
      </trkpt>
      <trkpt lat="43.69769" lon="3.76874">
        <ele>178</ele>
        <time>2020-12-30T10:58:22Z</time>
      </trkpt>
      <trkpt lat="43.69776" lon="3.76873">
        <ele>179</ele>
        <time>2020-12-30T10:58:25Z</time>
      </trkpt>
      <trkpt lat="43.69782" lon="3.76873">
        <ele>179</ele>
        <time>2020-12-30T10:58:28Z</time>
      </trkpt>
      <trkpt lat="43.69788" lon="3.76874">
        <ele>179</ele>
        <time>2020-12-30T10:58:31Z</time>
      </trkpt>
      <trkpt lat="43.69795" lon="3.76876">
        <ele>179</ele>
        <time>2020-12-30T10:58:34Z</time>
      </trkpt>
      <trkpt lat="43.69799" lon="3.76879">
        <ele>179</ele>
        <time>2020-12-30T10:58:36Z</time>
      </trkpt>
      <trkpt lat="43.69803" lon="3.76883">
        <ele>179</ele>
        <time>2020-12-30T10:58:38Z</time>
      </trkpt>
      <trkpt lat="43.69807" lon="3.76886">
        <ele>179</ele>
        <time>2020-12-30T10:58:40Z</time>
      </trkpt>
      <trkpt lat="43.69812" lon="3.76889">
        <ele>179</ele>
        <time>2020-12-30T10:58:42Z</time>
      </trkpt>
      <trkpt lat="43.69816" lon="3.7689">
        <ele>180</ele>
        <time>2020-12-30T10:58:44Z</time>
      </trkpt>
      <trkpt lat="43.69822" lon="3.7689">
        <ele>180</ele>
        <time>2020-12-30T10:58:47Z</time>
      </trkpt>
      <trkpt lat="43.69828" lon="3.76889">
        <ele>180</ele>
        <time>2020-12-30T10:58:50Z</time>
      </trkpt>
      <trkpt lat="43.69834" lon="3.76887">
        <ele>180</ele>
        <time>2020-12-30T10:58:53Z</time>
      </trkpt>
      <trkpt lat="43.69839" lon="3.76884">
        <ele>180</ele>
        <time>2020-12-30T10:58:55Z</time>
      </trkpt>
      <trkpt lat="43.69844" lon="3.76881">
        <ele>181</ele>
        <time>2020-12-30T10:58:58Z</time>
      </trkpt>
      <trkpt lat="43.69851" lon="3.76878">
        <ele>181</ele>
        <time>2020-12-30T10:59:01Z</time>
      </trkpt>
      <trkpt lat="43.69855" lon="3.76874">
        <ele>181</ele>
        <time>2020-12-30T10:59:03Z</time>
      </trkpt>
      <trkpt lat="43.6986" lon="3.76869">
        <ele>181</ele>
        <time>2020-12-30T10:59:06Z</time>
      </trkpt>
      <trkpt lat="43.69864" lon="3.76866">
        <ele>181</ele>
        <time>2020-12-30T10:59:08Z</time>
      </trkpt>
      <trkpt lat="43.69868" lon="3.76862">
        <ele>182</ele>
        <time>2020-12-30T10:59:10Z</time>
      </trkpt>
      <trkpt lat="43.69873" lon="3.76858">
        <ele>182</ele>
        <time>2020-12-30T10:59:13Z</time>
      </trkpt>
      <trkpt lat="43.69877" lon="3.76855">
        <ele>182</ele>
        <time>2020-12-30T10:59:15Z</time>
      </trkpt>
      <trkpt lat="43.69881" lon="3.76849">
        <ele>182</ele>
        <time>2020-12-30T10:59:18Z</time>
      </trkpt>
      <trkpt lat="43.69885" lon="3.76844">
        <ele>182</ele>
        <time>2020-12-30T10:59:21Z</time>
      </trkpt>
      <trkpt lat="43.69891" lon="3.76843">
        <ele>183</ele>
        <time>2020-12-30T10:59:25Z</time>
      </trkpt>
      <trkpt lat="43.69897" lon="3.76842">
        <ele>183</ele>
        <time>2020-12-30T10:59:29Z</time>
      </trkpt>
      <trkpt lat="43.69901" lon="3.7684">
        <ele>183</ele>
        <time>2020-12-30T10:59:31Z</time>
      </trkpt>
      <trkpt lat="43.69906" lon="3.76839">
        <ele>184</ele>
        <time>2020-12-30T10:59:33Z</time>
      </trkpt>
      <trkpt lat="43.6991" lon="3.76837">
        <ele>184</ele>
        <time>2020-12-30T10:59:35Z</time>
      </trkpt>
      <trkpt lat="43.69916" lon="3.76835">
        <ele>184</ele>
        <time>2020-12-30T10:59:38Z</time>
      </trkpt>
      <trkpt lat="43.69922" lon="3.76834">
        <ele>184</ele>
        <time>2020-12-30T10:59:41Z</time>
      </trkpt>
      <trkpt lat="43.69926" lon="3.76834">
        <ele>184</ele>
        <time>2020-12-30T10:59:43Z</time>
      </trkpt>
      <trkpt lat="43.69931" lon="3.76834">
        <ele>184</ele>
        <time>2020-12-30T10:59:46Z</time>
      </trkpt>
      <trkpt lat="43.69936" lon="3.76833">
        <ele>184</ele>
        <time>2020-12-30T10:59:48Z</time>
      </trkpt>
      <trkpt lat="43.69941" lon="3.76833">
        <ele>184</ele>
        <time>2020-12-30T10:59:50Z</time>
      </trkpt>
      <trkpt lat="43.69947" lon="3.76833">
        <ele>184</ele>
        <time>2020-12-30T10:59:53Z</time>
      </trkpt>
      <trkpt lat="43.69952" lon="3.76833">
        <ele>184</ele>
        <time>2020-12-30T10:59:55Z</time>
      </trkpt>
      <trkpt lat="43.69957" lon="3.76833">
        <ele>184</ele>
        <time>2020-12-30T10:59:57Z</time>
      </trkpt>
      <trkpt lat="43.69964" lon="3.76834">
        <ele>184</ele>
        <time>2020-12-30T11:00:00Z</time>
      </trkpt>
      <trkpt lat="43.69971" lon="3.76833">
        <ele>184</ele>
        <time>2020-12-30T11:00:03Z</time>
      </trkpt>
      <trkpt lat="43.69976" lon="3.76833">
        <ele>184</ele>
        <time>2020-12-30T11:00:05Z</time>
      </trkpt>
      <trkpt lat="43.69983" lon="3.76831">
        <ele>184</ele>
        <time>2020-12-30T11:00:08Z</time>
      </trkpt>
      <trkpt lat="43.69989" lon="3.76831">
        <ele>184</ele>
        <time>2020-12-30T11:00:10Z</time>
      </trkpt>
      <trkpt lat="43.69995" lon="3.76829">
        <ele>184</ele>
        <time>2020-12-30T11:00:12Z</time>
      </trkpt>
      <trkpt lat="43.70001" lon="3.76828">
        <ele>184</ele>
        <time>2020-12-30T11:00:14Z</time>
      </trkpt>
      <trkpt lat="43.70007" lon="3.76826">
        <ele>185</ele>
        <time>2020-12-30T11:00:16Z</time>
      </trkpt>
      <trkpt lat="43.70012" lon="3.76825">
        <ele>185</ele>
        <time>2020-12-30T11:00:18Z</time>
      </trkpt>
      <trkpt lat="43.70018" lon="3.76823">
        <ele>185</ele>
        <time>2020-12-30T11:00:21Z</time>
      </trkpt>
      <trkpt lat="43.70023" lon="3.76821">
        <ele>185</ele>
        <time>2020-12-30T11:00:23Z</time>
      </trkpt>
      <trkpt lat="43.70029" lon="3.76819">
        <ele>186</ele>
        <time>2020-12-30T11:00:25Z</time>
      </trkpt>
      <trkpt lat="43.70034" lon="3.76818">
        <ele>186</ele>
        <time>2020-12-30T11:00:27Z</time>
      </trkpt>
      <trkpt lat="43.7004" lon="3.76816">
        <ele>186</ele>
        <time>2020-12-30T11:00:29Z</time>
      </trkpt>
      <trkpt lat="43.70046" lon="3.76815">
        <ele>186</ele>
        <time>2020-12-30T11:00:31Z</time>
      </trkpt>
      <trkpt lat="43.70051" lon="3.76814">
        <ele>186</ele>
        <time>2020-12-30T11:00:33Z</time>
      </trkpt>
      <trkpt lat="43.70058" lon="3.76811">
        <ele>186</ele>
        <time>2020-12-30T11:00:35Z</time>
      </trkpt>
      <trkpt lat="43.70063" lon="3.7681">
        <ele>187</ele>
        <time>2020-12-30T11:00:37Z</time>
      </trkpt>
      <trkpt lat="43.7007" lon="3.76809">
        <ele>187</ele>
        <time>2020-12-30T11:00:39Z</time>
      </trkpt>
      <trkpt lat="43.70076" lon="3.76808">
        <ele>187</ele>
        <time>2020-12-30T11:00:41Z</time>
      </trkpt>
      <trkpt lat="43.70083" lon="3.76808">
        <ele>187</ele>
        <time>2020-12-30T11:00:44Z</time>
      </trkpt>
      <trkpt lat="43.70091" lon="3.76807">
        <ele>187</ele>
        <time>2020-12-30T11:00:46Z</time>
      </trkpt>
      <trkpt lat="43.70097" lon="3.76808">
        <ele>187</ele>
        <time>2020-12-30T11:00:48Z</time>
      </trkpt>
      <trkpt lat="43.70102" lon="3.76809">
        <ele>187</ele>
        <time>2020-12-30T11:00:50Z</time>
      </trkpt>
      <trkpt lat="43.70108" lon="3.76809">
        <ele>187</ele>
        <time>2020-12-30T11:00:52Z</time>
      </trkpt>
      <trkpt lat="43.70113" lon="3.76811">
        <ele>187</ele>
        <time>2020-12-30T11:00:54Z</time>
      </trkpt>
      <trkpt lat="43.70118" lon="3.76814">
        <ele>188</ele>
        <time>2020-12-30T11:00:57Z</time>
      </trkpt>
      <trkpt lat="43.70123" lon="3.76818">
        <ele>188</ele>
        <time>2020-12-30T11:01:00Z</time>
      </trkpt>
      <trkpt lat="43.70128" lon="3.76823">
        <ele>188</ele>
        <time>2020-12-30T11:01:01Z</time>
      </trkpt>
      <trkpt lat="43.70131" lon="3.76827">
        <ele>188</ele>
        <time>2020-12-30T11:01:02Z</time>
      </trkpt>
      <trkpt lat="43.70133" lon="3.76833">
        <ele>189</ele>
        <time>2020-12-30T11:01:04Z</time>
      </trkpt>
      <trkpt lat="43.70135" lon="3.76839">
        <ele>189</ele>
        <time>2020-12-30T11:01:06Z</time>
      </trkpt>
      <trkpt lat="43.70135" lon="3.76847">
        <ele>189</ele>
        <time>2020-12-30T11:01:08Z</time>
      </trkpt>
      <trkpt lat="43.70134" lon="3.76853">
        <ele>190</ele>
        <time>2020-12-30T11:01:10Z</time>
      </trkpt>
      <trkpt lat="43.70134" lon="3.7686">
        <ele>190</ele>
        <time>2020-12-30T11:01:12Z</time>
      </trkpt>
      <trkpt lat="43.70132" lon="3.76866">
        <ele>191</ele>
        <time>2020-12-30T11:01:16Z</time>
      </trkpt>
      <trkpt lat="43.70131" lon="3.76873">
        <ele>192</ele>
        <time>2020-12-30T11:01:19Z</time>
      </trkpt>
      <trkpt lat="43.70129" lon="3.76881">
        <ele>192</ele>
        <time>2020-12-30T11:01:22Z</time>
      </trkpt>
      <trkpt lat="43.70126" lon="3.76887">
        <ele>193</ele>
        <time>2020-12-30T11:01:25Z</time>
      </trkpt>
      <trkpt lat="43.70123" lon="3.76894">
        <ele>194</ele>
        <time>2020-12-30T11:01:28Z</time>
      </trkpt>
      <trkpt lat="43.7012" lon="3.76902">
        <ele>194</ele>
        <time>2020-12-30T11:01:31Z</time>
      </trkpt>
      <trkpt lat="43.70118" lon="3.76908">
        <ele>195</ele>
        <time>2020-12-30T11:01:33Z</time>
      </trkpt>
      <trkpt lat="43.70116" lon="3.76915">
        <ele>195</ele>
        <time>2020-12-30T11:01:36Z</time>
      </trkpt>
      <trkpt lat="43.70113" lon="3.76922">
        <ele>195</ele>
        <time>2020-12-30T11:01:39Z</time>
      </trkpt>
      <trkpt lat="43.70111" lon="3.7693">
        <ele>196</ele>
        <time>2020-12-30T11:01:42Z</time>
      </trkpt>
      <trkpt lat="43.70109" lon="3.76937">
        <ele>196</ele>
        <time>2020-12-30T11:01:45Z</time>
      </trkpt>
      <trkpt lat="43.70107" lon="3.76944">
        <ele>197</ele>
        <time>2020-12-30T11:01:48Z</time>
      </trkpt>
      <trkpt lat="43.70106" lon="3.76952">
        <ele>197</ele>
        <time>2020-12-30T11:01:51Z</time>
      </trkpt>
      <trkpt lat="43.70105" lon="3.7696">
        <ele>197</ele>
        <time>2020-12-30T11:01:54Z</time>
      </trkpt>
      <trkpt lat="43.70103" lon="3.76967">
        <ele>198</ele>
        <time>2020-12-30T11:01:57Z</time>
      </trkpt>
      <trkpt lat="43.70102" lon="3.76975">
        <ele>198</ele>
        <time>2020-12-30T11:02:01Z</time>
      </trkpt>
      <trkpt lat="43.70101" lon="3.76982">
        <ele>198</ele>
        <time>2020-12-30T11:02:04Z</time>
      </trkpt>
      <trkpt lat="43.701" lon="3.7699">
        <ele>199</ele>
        <time>2020-12-30T11:02:08Z</time>
      </trkpt>
      <trkpt lat="43.701" lon="3.76998">
        <ele>200</ele>
        <time>2020-12-30T11:02:12Z</time>
      </trkpt>
      <trkpt lat="43.70099" lon="3.77005">
        <ele>201</ele>
        <time>2020-12-30T11:02:17Z</time>
      </trkpt>
      <trkpt lat="43.70098" lon="3.77012">
        <ele>201</ele>
        <time>2020-12-30T11:02:21Z</time>
      </trkpt>
      <trkpt lat="43.70097" lon="3.77019">
        <ele>202</ele>
        <time>2020-12-30T11:02:25Z</time>
      </trkpt>
      <trkpt lat="43.70096" lon="3.77027">
        <ele>203</ele>
        <time>2020-12-30T11:02:30Z</time>
      </trkpt>
      <trkpt lat="43.70095" lon="3.77033">
        <ele>204</ele>
        <time>2020-12-30T11:02:34Z</time>
      </trkpt>
      <trkpt lat="43.70094" lon="3.77039">
        <ele>205</ele>
        <time>2020-12-30T11:02:38Z</time>
      </trkpt>
      <trkpt lat="43.70091" lon="3.77044">
        <ele>207</ele>
        <time>2020-12-30T11:02:41Z</time>
      </trkpt>
      <trkpt lat="43.70088" lon="3.7705">
        <ele>208</ele>
        <time>2020-12-30T11:02:44Z</time>
      </trkpt>
      <trkpt lat="43.70086" lon="3.77056">
        <ele>209</ele>
        <time>2020-12-30T11:02:47Z</time>
      </trkpt>
      <trkpt lat="43.70083" lon="3.77063">
        <ele>209</ele>
        <time>2020-12-30T11:02:51Z</time>
      </trkpt>
      <trkpt lat="43.7008" lon="3.77069">
        <ele>210</ele>
        <time>2020-12-30T11:02:55Z</time>
      </trkpt>
      <trkpt lat="43.70077" lon="3.77076">
        <ele>211</ele>
        <time>2020-12-30T11:02:59Z</time>
      </trkpt>
      <trkpt lat="43.70074" lon="3.77082">
        <ele>212</ele>
        <time>2020-12-30T11:03:03Z</time>
      </trkpt>
      <trkpt lat="43.70071" lon="3.77088">
        <ele>213</ele>
        <time>2020-12-30T11:03:06Z</time>
      </trkpt>
      <trkpt lat="43.70069" lon="3.77093">
        <ele>214</ele>
        <time>2020-12-30T11:03:09Z</time>
      </trkpt>
      <trkpt lat="43.70067" lon="3.77099">
        <ele>215</ele>
        <time>2020-12-30T11:03:12Z</time>
      </trkpt>
      <trkpt lat="43.70063" lon="3.77105">
        <ele>216</ele>
        <time>2020-12-30T11:03:16Z</time>
      </trkpt>
      <trkpt lat="43.7006" lon="3.77111">
        <ele>216</ele>
        <time>2020-12-30T11:03:20Z</time>
      </trkpt>
      <trkpt lat="43.70057" lon="3.77118">
        <ele>217</ele>
        <time>2020-12-30T11:03:24Z</time>
      </trkpt>
      <trkpt lat="43.70054" lon="3.77125">
        <ele>217</ele>
        <time>2020-12-30T11:03:28Z</time>
      </trkpt>
      <trkpt lat="43.70051" lon="3.77132">
        <ele>218</ele>
        <time>2020-12-30T11:03:32Z</time>
      </trkpt>
      <trkpt lat="43.70048" lon="3.77138">
        <ele>219</ele>
        <time>2020-12-30T11:03:36Z</time>
      </trkpt>
      <trkpt lat="43.70045" lon="3.77144">
        <ele>220</ele>
        <time>2020-12-30T11:03:40Z</time>
      </trkpt>
      <trkpt lat="43.70042" lon="3.7715">
        <ele>221</ele>
        <time>2020-12-30T11:03:43Z</time>
      </trkpt>
      <trkpt lat="43.70039" lon="3.77156">
        <ele>222</ele>
        <time>2020-12-30T11:03:47Z</time>
      </trkpt>
      <trkpt lat="43.70037" lon="3.77163">
        <ele>222</ele>
        <time>2020-12-30T11:03:51Z</time>
      </trkpt>
      <trkpt lat="43.70035" lon="3.77168">
        <ele>223</ele>
        <time>2020-12-30T11:03:54Z</time>
      </trkpt>
      <trkpt lat="43.70034" lon="3.77176">
        <ele>224</ele>
        <time>2020-12-30T11:03:58Z</time>
      </trkpt>
      <trkpt lat="43.70035" lon="3.77182">
        <ele>224</ele>
        <time>2020-12-30T11:04:01Z</time>
      </trkpt>
      <trkpt lat="43.70035" lon="3.77188">
        <ele>224</ele>
        <time>2020-12-30T11:04:04Z</time>
      </trkpt>
      <trkpt lat="43.70037" lon="3.77196">
        <ele>224</ele>
        <time>2020-12-30T11:04:08Z</time>
      </trkpt>
      <trkpt lat="43.7004" lon="3.77201">
        <ele>225</ele>
        <time>2020-12-30T11:04:11Z</time>
      </trkpt>
      <trkpt lat="43.70043" lon="3.77206">
        <ele>225</ele>
        <time>2020-12-30T11:04:14Z</time>
      </trkpt>
      <trkpt lat="43.70046" lon="3.77211">
        <ele>225</ele>
        <time>2020-12-30T11:04:17Z</time>
      </trkpt>
      <trkpt lat="43.70049" lon="3.77218">
        <ele>225</ele>
        <time>2020-12-30T11:04:21Z</time>
      </trkpt>
      <trkpt lat="43.70052" lon="3.77223">
        <ele>226</ele>
        <time>2020-12-30T11:04:24Z</time>
      </trkpt>
      <trkpt lat="43.70057" lon="3.77227">
        <ele>226</ele>
        <time>2020-12-30T11:04:28Z</time>
      </trkpt>
      <trkpt lat="43.70062" lon="3.77231">
        <ele>227</ele>
        <time>2020-12-30T11:04:32Z</time>
      </trkpt>
      <trkpt lat="43.70066" lon="3.77234">
        <ele>229</ele>
        <time>2020-12-30T11:04:35Z</time>
      </trkpt>
      <trkpt lat="43.7007" lon="3.77237">
        <ele>230</ele>
        <time>2020-12-30T11:04:38Z</time>
      </trkpt>
      <trkpt lat="43.70075" lon="3.77239">
        <ele>231</ele>
        <time>2020-12-30T11:04:41Z</time>
      </trkpt>
      <trkpt lat="43.70079" lon="3.77243">
        <ele>232</ele>
        <time>2020-12-30T11:04:45Z</time>
      </trkpt>
      <trkpt lat="43.70084" lon="3.77245">
        <ele>232</ele>
        <time>2020-12-30T11:04:49Z</time>
      </trkpt>
      <trkpt lat="43.70089" lon="3.77247">
        <ele>233</ele>
        <time>2020-12-30T11:04:54Z</time>
      </trkpt>
      <trkpt lat="43.70094" lon="3.77248">
        <ele>234</ele>
        <time>2020-12-30T11:04:58Z</time>
      </trkpt>
      <trkpt lat="43.70099" lon="3.77252">
        <ele>234</ele>
        <time>2020-12-30T11:05:03Z</time>
      </trkpt>
      <trkpt lat="43.70102" lon="3.77257">
        <ele>235</ele>
        <time>2020-12-30T11:05:07Z</time>
      </trkpt>
      <trkpt lat="43.70106" lon="3.77261">
        <ele>236</ele>
        <time>2020-12-30T11:05:11Z</time>
      </trkpt>
      <trkpt lat="43.7011" lon="3.77264">
        <ele>236</ele>
        <time>2020-12-30T11:05:15Z</time>
      </trkpt>
      <trkpt lat="43.70114" lon="3.77268">
        <ele>236</ele>
        <time>2020-12-30T11:05:19Z</time>
      </trkpt>
      <trkpt lat="43.70118" lon="3.77272">
        <ele>237</ele>
        <time>2020-12-30T11:05:23Z</time>
      </trkpt>
      <trkpt lat="43.70123" lon="3.77276">
        <ele>237</ele>
        <time>2020-12-30T11:05:27Z</time>
      </trkpt>
      <trkpt lat="43.70128" lon="3.77279">
        <ele>238</ele>
        <time>2020-12-30T11:05:31Z</time>
      </trkpt>
      <trkpt lat="43.70131" lon="3.77283">
        <ele>238</ele>
        <time>2020-12-30T11:05:34Z</time>
      </trkpt>
      <trkpt lat="43.70135" lon="3.77288">
        <ele>239</ele>
        <time>2020-12-30T11:05:37Z</time>
      </trkpt>
      <trkpt lat="43.70138" lon="3.77294">
        <ele>239</ele>
        <time>2020-12-30T11:05:41Z</time>
      </trkpt>
      <trkpt lat="43.70141" lon="3.773">
        <ele>240</ele>
        <time>2020-12-30T11:05:44Z</time>
      </trkpt>
      <trkpt lat="43.70142" lon="3.77307">
        <ele>240</ele>
        <time>2020-12-30T11:05:47Z</time>
      </trkpt>
      <trkpt lat="43.70144" lon="3.77315">
        <ele>241</ele>
        <time>2020-12-30T11:05:50Z</time>
      </trkpt>
      <trkpt lat="43.70144" lon="3.77322">
        <ele>242</ele>
        <time>2020-12-30T11:05:53Z</time>
      </trkpt>
      <trkpt lat="43.70145" lon="3.77329">
        <ele>243</ele>
        <time>2020-12-30T11:05:56Z</time>
      </trkpt>
      <trkpt lat="43.70144" lon="3.77338">
        <ele>244</ele>
        <time>2020-12-30T11:05:59Z</time>
      </trkpt>
      <trkpt lat="43.70144" lon="3.77347">
        <ele>245</ele>
        <time>2020-12-30T11:06:02Z</time>
      </trkpt>
      <trkpt lat="43.70143" lon="3.77353">
        <ele>245</ele>
        <time>2020-12-30T11:06:04Z</time>
      </trkpt>
      <trkpt lat="43.70144" lon="3.77362">
        <ele>246</ele>
        <time>2020-12-30T11:06:07Z</time>
      </trkpt>
      <trkpt lat="43.70146" lon="3.77371">
        <ele>247</ele>
        <time>2020-12-30T11:06:10Z</time>
      </trkpt>
      <trkpt lat="43.70147" lon="3.7738">
        <ele>247</ele>
        <time>2020-12-30T11:06:13Z</time>
      </trkpt>
      <trkpt lat="43.70149" lon="3.77389">
        <ele>248</ele>
        <time>2020-12-30T11:06:16Z</time>
      </trkpt>
      <trkpt lat="43.70151" lon="3.77397">
        <ele>248</ele>
        <time>2020-12-30T11:06:19Z</time>
      </trkpt>
      <trkpt lat="43.70152" lon="3.77404">
        <ele>249</ele>
        <time>2020-12-30T11:06:22Z</time>
      </trkpt>
      <trkpt lat="43.70155" lon="3.77412">
        <ele>249</ele>
        <time>2020-12-30T11:06:25Z</time>
      </trkpt>
      <trkpt lat="43.70158" lon="3.7742">
        <ele>250</ele>
        <time>2020-12-30T11:06:28Z</time>
      </trkpt>
      <trkpt lat="43.70159" lon="3.77426">
        <ele>250</ele>
        <time>2020-12-30T11:06:30Z</time>
      </trkpt>
      <trkpt lat="43.7016" lon="3.77432">
        <ele>251</ele>
        <time>2020-12-30T11:06:33Z</time>
      </trkpt>
      <trkpt lat="43.70162" lon="3.77441">
        <ele>252</ele>
        <time>2020-12-30T11:06:36Z</time>
      </trkpt>
      <trkpt lat="43.70164" lon="3.77448">
        <ele>252</ele>
        <time>2020-12-30T11:06:39Z</time>
      </trkpt>
      <trkpt lat="43.70163" lon="3.77457">
        <ele>253</ele>
        <time>2020-12-30T11:06:42Z</time>
      </trkpt>
      <trkpt lat="43.7016" lon="3.77466">
        <ele>254</ele>
        <time>2020-12-30T11:06:45Z</time>
      </trkpt>
      <trkpt lat="43.70157" lon="3.77471">
        <ele>254</ele>
        <time>2020-12-30T11:06:48Z</time>
      </trkpt>
      <trkpt lat="43.70153" lon="3.77477">
        <ele>255</ele>
        <time>2020-12-30T11:06:51Z</time>
      </trkpt>
      <trkpt lat="43.70151" lon="3.77483">
        <ele>255</ele>
        <time>2020-12-30T11:06:53Z</time>
      </trkpt>
      <trkpt lat="43.70148" lon="3.77488">
        <ele>256</ele>
        <time>2020-12-30T11:06:55Z</time>
      </trkpt>
      <trkpt lat="43.70145" lon="3.77493">
        <ele>256</ele>
        <time>2020-12-30T11:06:57Z</time>
      </trkpt>
      <trkpt lat="43.70143" lon="3.77502">
        <ele>256</ele>
        <time>2020-12-30T11:07:00Z</time>
      </trkpt>
      <trkpt lat="43.70142" lon="3.77508">
        <ele>257</ele>
        <time>2020-12-30T11:07:02Z</time>
      </trkpt>
      <trkpt lat="43.70141" lon="3.77515">
        <ele>257</ele>
        <time>2020-12-30T11:07:04Z</time>
      </trkpt>
      <trkpt lat="43.70139" lon="3.77522">
        <ele>257</ele>
        <time>2020-12-30T11:07:07Z</time>
      </trkpt>
      <trkpt lat="43.70139" lon="3.7753">
        <ele>257</ele>
        <time>2020-12-30T11:07:09Z</time>
      </trkpt>
      <trkpt lat="43.70139" lon="3.77537">
        <ele>258</ele>
        <time>2020-12-30T11:07:11Z</time>
      </trkpt>
      <trkpt lat="43.70138" lon="3.77544">
        <ele>258</ele>
        <time>2020-12-30T11:07:13Z</time>
      </trkpt>
      <trkpt lat="43.70138" lon="3.77552">
        <ele>258</ele>
        <time>2020-12-30T11:07:15Z</time>
      </trkpt>
      <trkpt lat="43.70139" lon="3.77559">
        <ele>258</ele>
        <time>2020-12-30T11:07:17Z</time>
      </trkpt>
      <trkpt lat="43.7014" lon="3.77567">
        <ele>258</ele>
        <time>2020-12-30T11:07:19Z</time>
      </trkpt>
      <trkpt lat="43.70141" lon="3.77575">
        <ele>259</ele>
        <time>2020-12-30T11:07:21Z</time>
      </trkpt>
      <trkpt lat="43.70144" lon="3.77584">
        <ele>259</ele>
        <time>2020-12-30T11:07:23Z</time>
      </trkpt>
      <trkpt lat="43.70145" lon="3.77591">
        <ele>259</ele>
        <time>2020-12-30T11:07:25Z</time>
      </trkpt>
      <trkpt lat="43.70147" lon="3.77599">
        <ele>260</ele>
        <time>2020-12-30T11:07:27Z</time>
      </trkpt>
      <trkpt lat="43.70149" lon="3.77607">
        <ele>260</ele>
        <time>2020-12-30T11:07:29Z</time>
      </trkpt>
      <trkpt lat="43.70151" lon="3.77613">
        <ele>261</ele>
        <time>2020-12-30T11:07:32Z</time>
      </trkpt>
      <trkpt lat="43.70154" lon="3.77625">
        <ele>261</ele>
        <time>2020-12-30T11:07:34Z</time>
      </trkpt>
      <trkpt lat="43.70157" lon="3.77632">
        <ele>261</ele>
        <time>2020-12-30T11:07:36Z</time>
      </trkpt>
      <trkpt lat="43.7016" lon="3.7764">
        <ele>262</ele>
        <time>2020-12-30T11:07:38Z</time>
      </trkpt>
      <trkpt lat="43.70163" lon="3.77647">
        <ele>262</ele>
        <time>2020-12-30T11:07:40Z</time>
      </trkpt>
      <trkpt lat="43.70167" lon="3.77655">
        <ele>262</ele>
        <time>2020-12-30T11:07:42Z</time>
      </trkpt>
      <trkpt lat="43.70171" lon="3.77663">
        <ele>263</ele>
        <time>2020-12-30T11:07:44Z</time>
      </trkpt>
      <trkpt lat="43.70175" lon="3.77672">
        <ele>263</ele>
        <time>2020-12-30T11:07:47Z</time>
      </trkpt>
      <trkpt lat="43.70182" lon="3.77682">
        <ele>263</ele>
        <time>2020-12-30T11:07:49Z</time>
      </trkpt>
      <trkpt lat="43.70187" lon="3.77688">
        <ele>263</ele>
        <time>2020-12-30T11:07:51Z</time>
      </trkpt>
      <trkpt lat="43.70192" lon="3.77695">
        <ele>263</ele>
        <time>2020-12-30T11:07:53Z</time>
      </trkpt>
      <trkpt lat="43.70196" lon="3.77703">
        <ele>264</ele>
        <time>2020-12-30T11:07:55Z</time>
      </trkpt>
      <trkpt lat="43.70199" lon="3.77712">
        <ele>264</ele>
        <time>2020-12-30T11:07:57Z</time>
      </trkpt>
      <trkpt lat="43.70198" lon="3.7772">
        <ele>264</ele>
        <time>2020-12-30T11:07:59Z</time>
      </trkpt>
      <trkpt lat="43.70198" lon="3.77728">
        <ele>265</ele>
        <time>2020-12-30T11:08:01Z</time>
      </trkpt>
      <trkpt lat="43.70196" lon="3.77738">
        <ele>265</ele>
        <time>2020-12-30T11:08:03Z</time>
      </trkpt>
      <trkpt lat="43.70195" lon="3.77751">
        <ele>265</ele>
        <time>2020-12-30T11:08:05Z</time>
      </trkpt>
      <trkpt lat="43.70195" lon="3.77761">
        <ele>265</ele>
        <time>2020-12-30T11:08:07Z</time>
      </trkpt>
      <trkpt lat="43.70197" lon="3.7777">
        <ele>266</ele>
        <time>2020-12-30T11:08:09Z</time>
      </trkpt>
      <trkpt lat="43.70199" lon="3.7778">
        <ele>266</ele>
        <time>2020-12-30T11:08:11Z</time>
      </trkpt>
      <trkpt lat="43.70202" lon="3.77787">
        <ele>266</ele>
        <time>2020-12-30T11:08:13Z</time>
      </trkpt>
      <trkpt lat="43.70204" lon="3.77795">
        <ele>266</ele>
        <time>2020-12-30T11:08:16Z</time>
      </trkpt>
      <trkpt lat="43.70204" lon="3.77803">
        <ele>266</ele>
        <time>2020-12-30T11:08:18Z</time>
      </trkpt>
      <trkpt lat="43.70203" lon="3.77818">
        <ele>267</ele>
        <time>2020-12-30T11:08:20Z</time>
      </trkpt>
      <trkpt lat="43.70202" lon="3.77827">
        <ele>267</ele>
        <time>2020-12-30T11:08:22Z</time>
      </trkpt>
      <trkpt lat="43.70198" lon="3.77834">
        <ele>267</ele>
        <time>2020-12-30T11:08:24Z</time>
      </trkpt>
      <trkpt lat="43.70196" lon="3.7784">
        <ele>267</ele>
        <time>2020-12-30T11:08:26Z</time>
      </trkpt>
      <trkpt lat="43.70196" lon="3.77847">
        <ele>267</ele>
        <time>2020-12-30T11:08:28Z</time>
      </trkpt>
      <trkpt lat="43.70192" lon="3.77852">
        <ele>267</ele>
        <time>2020-12-30T11:08:32Z</time>
      </trkpt>
      <trkpt lat="43.7019" lon="3.77852">
        <ele>267</ele>
        <time>2020-12-30T11:08:57Z</time>
      </trkpt>
      <trkpt lat="43.7019" lon="3.77852">
        <ele>267</ele>
        <time>2020-12-30T11:08:58Z</time>
      </trkpt>
      <trkpt lat="43.70186" lon="3.77856">
        <ele>267</ele>
        <time>2020-12-30T11:09:03Z</time>
      </trkpt>
      <trkpt lat="43.70182" lon="3.7786">
        <ele>267</ele>
        <time>2020-12-30T11:09:05Z</time>
      </trkpt>
      <trkpt lat="43.70178" lon="3.77864">
        <ele>268</ele>
        <time>2020-12-30T11:09:07Z</time>
      </trkpt>
      <trkpt lat="43.70174" lon="3.7787">
        <ele>267</ele>
        <time>2020-12-30T11:09:10Z</time>
      </trkpt>
      <trkpt lat="43.70168" lon="3.77876">
        <ele>267</ele>
        <time>2020-12-30T11:09:11Z</time>
      </trkpt>
      <trkpt lat="43.70165" lon="3.77884">
        <ele>267</ele>
        <time>2020-12-30T11:09:13Z</time>
      </trkpt>
      <trkpt lat="43.7016" lon="3.77893">
        <ele>267</ele>
        <time>2020-12-30T11:09:15Z</time>
      </trkpt>
      <trkpt lat="43.70156" lon="3.77901">
        <ele>267</ele>
        <time>2020-12-30T11:09:17Z</time>
      </trkpt>
      <trkpt lat="43.70152" lon="3.77909">
        <ele>266</ele>
        <time>2020-12-30T11:09:19Z</time>
      </trkpt>
      <trkpt lat="43.70148" lon="3.77914">
        <ele>266</ele>
        <time>2020-12-30T11:09:20Z</time>
      </trkpt>
      <trkpt lat="43.70145" lon="3.77918">
        <ele>266</ele>
        <time>2020-12-30T11:09:21Z</time>
      </trkpt>
      <trkpt lat="43.70139" lon="3.77928">
        <ele>265</ele>
        <time>2020-12-30T11:09:23Z</time>
      </trkpt>
      <trkpt lat="43.70137" lon="3.77932">
        <ele>265</ele>
        <time>2020-12-30T11:09:24Z</time>
      </trkpt>
      <trkpt lat="43.70131" lon="3.77941">
        <ele>265</ele>
        <time>2020-12-30T11:09:26Z</time>
      </trkpt>
      <trkpt lat="43.70126" lon="3.77949">
        <ele>264</ele>
        <time>2020-12-30T11:09:28Z</time>
      </trkpt>
      <trkpt lat="43.70119" lon="3.77954">
        <ele>264</ele>
        <time>2020-12-30T11:09:30Z</time>
      </trkpt>
      <trkpt lat="43.70114" lon="3.77958">
        <ele>264</ele>
        <time>2020-12-30T11:09:32Z</time>
      </trkpt>
      <trkpt lat="43.70113" lon="3.77966">
        <ele>263</ele>
        <time>2020-12-30T11:09:55Z</time>
      </trkpt>
      <trkpt lat="43.70113" lon="3.77975">
        <ele>263</ele>
        <time>2020-12-30T11:09:58Z</time>
      </trkpt>
      <trkpt lat="43.7011" lon="3.77982">
        <ele>263</ele>
        <time>2020-12-30T11:10:01Z</time>
      </trkpt>
      <trkpt lat="43.70107" lon="3.77988">
        <ele>262</ele>
        <time>2020-12-30T11:10:04Z</time>
      </trkpt>
      <trkpt lat="43.70104" lon="3.77995">
        <ele>261</ele>
        <time>2020-12-30T11:10:07Z</time>
      </trkpt>
      <trkpt lat="43.701" lon="3.78001">
        <ele>260</ele>
        <time>2020-12-30T11:10:09Z</time>
      </trkpt>
      <trkpt lat="43.70097" lon="3.78008">
        <ele>259</ele>
        <time>2020-12-30T11:10:12Z</time>
      </trkpt>
      <trkpt lat="43.70094" lon="3.78013">
        <ele>259</ele>
        <time>2020-12-30T11:10:14Z</time>
      </trkpt>
      <trkpt lat="43.70091" lon="3.78018">
        <ele>258</ele>
        <time>2020-12-30T11:10:16Z</time>
      </trkpt>
      <trkpt lat="43.70087" lon="3.78022">
        <ele>258</ele>
        <time>2020-12-30T11:10:18Z</time>
      </trkpt>
      <trkpt lat="43.70085" lon="3.78028">
        <ele>258</ele>
        <time>2020-12-30T11:10:20Z</time>
      </trkpt>
      <trkpt lat="43.70082" lon="3.78036">
        <ele>257</ele>
        <time>2020-12-30T11:10:23Z</time>
      </trkpt>
      <trkpt lat="43.70078" lon="3.78041">
        <ele>255</ele>
        <time>2020-12-30T11:10:25Z</time>
      </trkpt>
      <trkpt lat="43.70075" lon="3.78045">
        <ele>254</ele>
        <time>2020-12-30T11:10:27Z</time>
      </trkpt>
      <trkpt lat="43.70071" lon="3.78051">
        <ele>253</ele>
        <time>2020-12-30T11:10:29Z</time>
      </trkpt>
      <trkpt lat="43.70068" lon="3.78056">
        <ele>252</ele>
        <time>2020-12-30T11:10:31Z</time>
      </trkpt>
      <trkpt lat="43.70064" lon="3.78061">
        <ele>251</ele>
        <time>2020-12-30T11:10:33Z</time>
      </trkpt>
      <trkpt lat="43.7006" lon="3.78066">
        <ele>251</ele>
        <time>2020-12-30T11:10:35Z</time>
      </trkpt>
      <trkpt lat="43.70057" lon="3.78071">
        <ele>251</ele>
        <time>2020-12-30T11:10:37Z</time>
      </trkpt>
      <trkpt lat="43.70052" lon="3.78077">
        <ele>250</ele>
        <time>2020-12-30T11:10:39Z</time>
      </trkpt>
      <trkpt lat="43.70047" lon="3.78082">
        <ele>249</ele>
        <time>2020-12-30T11:10:41Z</time>
      </trkpt>
      <trkpt lat="43.70044" lon="3.78087">
        <ele>249</ele>
        <time>2020-12-30T11:10:43Z</time>
      </trkpt>
      <trkpt lat="43.70039" lon="3.78094">
        <ele>248</ele>
        <time>2020-12-30T11:10:46Z</time>
      </trkpt>
      <trkpt lat="43.70035" lon="3.781">
        <ele>247</ele>
        <time>2020-12-30T11:10:48Z</time>
      </trkpt>
      <trkpt lat="43.70033" lon="3.78107">
        <ele>247</ele>
        <time>2020-12-30T11:10:51Z</time>
      </trkpt>
      <trkpt lat="43.70031" lon="3.78115">
        <ele>247</ele>
        <time>2020-12-30T11:10:54Z</time>
      </trkpt>
      <trkpt lat="43.70031" lon="3.78124">
        <ele>247</ele>
        <time>2020-12-30T11:10:56Z</time>
      </trkpt>
      <trkpt lat="43.70029" lon="3.7813">
        <ele>248</ele>
        <time>2020-12-30T11:10:58Z</time>
      </trkpt>
      <trkpt lat="43.70028" lon="3.78138">
        <ele>248</ele>
        <time>2020-12-30T11:11:00Z</time>
      </trkpt>
      <trkpt lat="43.70028" lon="3.78145">
        <ele>248</ele>
        <time>2020-12-30T11:11:02Z</time>
      </trkpt>
      <trkpt lat="43.70028" lon="3.78152">
        <ele>247</ele>
        <time>2020-12-30T11:11:04Z</time>
      </trkpt>
      <trkpt lat="43.70023" lon="3.78157">
        <ele>247</ele>
        <time>2020-12-30T11:11:23Z</time>
      </trkpt>
      <trkpt lat="43.7002" lon="3.78165">
        <ele>247</ele>
        <time>2020-12-30T11:11:26Z</time>
      </trkpt>
      <trkpt lat="43.70017" lon="3.78173">
        <ele>246</ele>
        <time>2020-12-30T11:11:29Z</time>
      </trkpt>
      <trkpt lat="43.70013" lon="3.78181">
        <ele>244</ele>
        <time>2020-12-30T11:11:32Z</time>
      </trkpt>
      <trkpt lat="43.7001" lon="3.78189">
        <ele>243</ele>
        <time>2020-12-30T11:11:34Z</time>
      </trkpt>
      <trkpt lat="43.70007" lon="3.78195">
        <ele>242</ele>
        <time>2020-12-30T11:11:36Z</time>
      </trkpt>
      <trkpt lat="43.70002" lon="3.78201">
        <ele>242</ele>
        <time>2020-12-30T11:11:38Z</time>
      </trkpt>
      <trkpt lat="43.69997" lon="3.78206">
        <ele>241</ele>
        <time>2020-12-30T11:11:40Z</time>
      </trkpt>
      <trkpt lat="43.69991" lon="3.78211">
        <ele>241</ele>
        <time>2020-12-30T11:11:42Z</time>
      </trkpt>
      <trkpt lat="43.69985" lon="3.78216">
        <ele>241</ele>
        <time>2020-12-30T11:11:44Z</time>
      </trkpt>
      <trkpt lat="43.6998" lon="3.7822">
        <ele>240</ele>
        <time>2020-12-30T11:11:46Z</time>
      </trkpt>
      <trkpt lat="43.69973" lon="3.78226">
        <ele>240</ele>
        <time>2020-12-30T11:11:48Z</time>
      </trkpt>
      <trkpt lat="43.6997" lon="3.78231">
        <ele>239</ele>
        <time>2020-12-30T11:11:49Z</time>
      </trkpt>
      <trkpt lat="43.69965" lon="3.78239">
        <ele>238</ele>
        <time>2020-12-30T11:11:51Z</time>
      </trkpt>
      <trkpt lat="43.69959" lon="3.78243">
        <ele>237</ele>
        <time>2020-12-30T11:11:53Z</time>
      </trkpt>
      <trkpt lat="43.69954" lon="3.7825">
        <ele>237</ele>
        <time>2020-12-30T11:11:55Z</time>
      </trkpt>
      <trkpt lat="43.69951" lon="3.78257">
        <ele>236</ele>
        <time>2020-12-30T11:11:57Z</time>
      </trkpt>
      <trkpt lat="43.69948" lon="3.78264">
        <ele>235</ele>
        <time>2020-12-30T11:12:00Z</time>
      </trkpt>
      <trkpt lat="43.69946" lon="3.78271">
        <ele>235</ele>
        <time>2020-12-30T11:12:02Z</time>
      </trkpt>
      <trkpt lat="43.69946" lon="3.78281">
        <ele>235</ele>
        <time>2020-12-30T11:12:04Z</time>
      </trkpt>
      <trkpt lat="43.69945" lon="3.78287">
        <ele>234</ele>
        <time>2020-12-30T11:12:05Z</time>
      </trkpt>
      <trkpt lat="43.69945" lon="3.78295">
        <ele>234</ele>
        <time>2020-12-30T11:12:06Z</time>
      </trkpt>
      <trkpt lat="43.69947" lon="3.78303">
        <ele>233</ele>
        <time>2020-12-30T11:12:08Z</time>
      </trkpt>
      <trkpt lat="43.69951" lon="3.7831">
        <ele>233</ele>
        <time>2020-12-30T11:12:10Z</time>
      </trkpt>
      <trkpt lat="43.69955" lon="3.78315">
        <ele>232</ele>
        <time>2020-12-30T11:12:12Z</time>
      </trkpt>
      <trkpt lat="43.69959" lon="3.7832">
        <ele>232</ele>
        <time>2020-12-30T11:12:14Z</time>
      </trkpt>
      <trkpt lat="43.69962" lon="3.78328">
        <ele>232</ele>
        <time>2020-12-30T11:12:17Z</time>
      </trkpt>
      <trkpt lat="43.69965" lon="3.78335">
        <ele>231</ele>
        <time>2020-12-30T11:12:19Z</time>
      </trkpt>
      <trkpt lat="43.6997" lon="3.78341">
        <ele>231</ele>
        <time>2020-12-30T11:12:22Z</time>
      </trkpt>
      <trkpt lat="43.69974" lon="3.78348">
        <ele>230</ele>
        <time>2020-12-30T11:12:24Z</time>
      </trkpt>
      <trkpt lat="43.69979" lon="3.78355">
        <ele>230</ele>
        <time>2020-12-30T11:12:26Z</time>
      </trkpt>
      <trkpt lat="43.69984" lon="3.7836">
        <ele>229</ele>
        <time>2020-12-30T11:12:28Z</time>
      </trkpt>
      <trkpt lat="43.69988" lon="3.78367">
        <ele>228</ele>
        <time>2020-12-30T11:12:30Z</time>
      </trkpt>
      <trkpt lat="43.69994" lon="3.78376">
        <ele>228</ele>
        <time>2020-12-30T11:12:32Z</time>
      </trkpt>
      <trkpt lat="43.70002" lon="3.78386">
        <ele>227</ele>
        <time>2020-12-30T11:12:34Z</time>
      </trkpt>
      <trkpt lat="43.70004" lon="3.78393">
        <ele>226</ele>
        <time>2020-12-30T11:12:35Z</time>
      </trkpt>
      <trkpt lat="43.70006" lon="3.78403">
        <ele>225</ele>
        <time>2020-12-30T11:12:37Z</time>
      </trkpt>
      <trkpt lat="43.70007" lon="3.78416">
        <ele>224</ele>
        <time>2020-12-30T11:12:39Z</time>
      </trkpt>
      <trkpt lat="43.70005" lon="3.78422">
        <ele>223</ele>
        <time>2020-12-30T11:12:40Z</time>
      </trkpt>
      <trkpt lat="43.70004" lon="3.78429">
        <ele>222</ele>
        <time>2020-12-30T11:12:41Z</time>
      </trkpt>
      <trkpt lat="43.70005" lon="3.7844">
        <ele>222</ele>
        <time>2020-12-30T11:12:43Z</time>
      </trkpt>
      <trkpt lat="43.70007" lon="3.78449">
        <ele>221</ele>
        <time>2020-12-30T11:12:45Z</time>
      </trkpt>
      <trkpt lat="43.70007" lon="3.78456">
        <ele>221</ele>
        <time>2020-12-30T11:12:47Z</time>
      </trkpt>
      <trkpt lat="43.7001" lon="3.78462">
        <ele>221</ele>
        <time>2020-12-30T11:12:49Z</time>
      </trkpt>
      <trkpt lat="43.70013" lon="3.78467">
        <ele>221</ele>
        <time>2020-12-30T11:12:52Z</time>
      </trkpt>
      <trkpt lat="43.7002" lon="3.78471">
        <ele>220</ele>
        <time>2020-12-30T11:12:55Z</time>
      </trkpt>
      <trkpt lat="43.70025" lon="3.78474">
        <ele>219</ele>
        <time>2020-12-30T11:12:57Z</time>
      </trkpt>
      <trkpt lat="43.70032" lon="3.78477">
        <ele>219</ele>
        <time>2020-12-30T11:12:59Z</time>
      </trkpt>
      <trkpt lat="43.70041" lon="3.78481">
        <ele>218</ele>
        <time>2020-12-30T11:13:01Z</time>
      </trkpt>
      <trkpt lat="43.70046" lon="3.78485">
        <ele>216</ele>
        <time>2020-12-30T11:13:04Z</time>
      </trkpt>
      <trkpt lat="43.7005" lon="3.78495">
        <ele>214</ele>
        <time>2020-12-30T11:13:07Z</time>
      </trkpt>
      <trkpt lat="43.70055" lon="3.785">
        <ele>213</ele>
        <time>2020-12-30T11:13:09Z</time>
      </trkpt>
      <trkpt lat="43.7006" lon="3.78503">
        <ele>211</ele>
        <time>2020-12-30T11:13:12Z</time>
      </trkpt>
      <trkpt lat="43.70066" lon="3.78506">
        <ele>209</ele>
        <time>2020-12-30T11:13:15Z</time>
      </trkpt>
      <trkpt lat="43.70072" lon="3.78509">
        <ele>209</ele>
        <time>2020-12-30T11:13:17Z</time>
      </trkpt>
      <trkpt lat="43.70078" lon="3.78513">
        <ele>208</ele>
        <time>2020-12-30T11:13:19Z</time>
      </trkpt>
      <trkpt lat="43.70083" lon="3.78518">
        <ele>207</ele>
        <time>2020-12-30T11:13:21Z</time>
      </trkpt>
      <trkpt lat="43.70088" lon="3.78524">
        <ele>206</ele>
        <time>2020-12-30T11:13:23Z</time>
      </trkpt>
      <trkpt lat="43.70092" lon="3.7853">
        <ele>205</ele>
        <time>2020-12-30T11:13:25Z</time>
      </trkpt>
      <trkpt lat="43.70095" lon="3.78536">
        <ele>204</ele>
        <time>2020-12-30T11:13:27Z</time>
      </trkpt>
      <trkpt lat="43.70097" lon="3.78543">
        <ele>203</ele>
        <time>2020-12-30T11:13:29Z</time>
      </trkpt>
      <trkpt lat="43.70101" lon="3.78552">
        <ele>201</ele>
        <time>2020-12-30T11:13:31Z</time>
      </trkpt>
      <trkpt lat="43.70104" lon="3.78562">
        <ele>200</ele>
        <time>2020-12-30T11:13:33Z</time>
      </trkpt>
      <trkpt lat="43.70107" lon="3.78572">
        <ele>200</ele>
        <time>2020-12-30T11:13:35Z</time>
      </trkpt>
      <trkpt lat="43.7011" lon="3.78582">
        <ele>200</ele>
        <time>2020-12-30T11:13:37Z</time>
      </trkpt>
      <trkpt lat="43.70113" lon="3.78589">
        <ele>200</ele>
        <time>2020-12-30T11:13:39Z</time>
      </trkpt>
      <trkpt lat="43.70115" lon="3.78596">
        <ele>200</ele>
        <time>2020-12-30T11:13:41Z</time>
      </trkpt>
      <trkpt lat="43.70116" lon="3.78604">
        <ele>200</ele>
        <time>2020-12-30T11:13:43Z</time>
      </trkpt>
      <trkpt lat="43.70118" lon="3.78611">
        <ele>200</ele>
        <time>2020-12-30T11:13:45Z</time>
      </trkpt>
      <trkpt lat="43.7012" lon="3.78619">
        <ele>200</ele>
        <time>2020-12-30T11:13:47Z</time>
      </trkpt>
      <trkpt lat="43.70121" lon="3.78626">
        <ele>200</ele>
        <time>2020-12-30T11:13:49Z</time>
      </trkpt>
      <trkpt lat="43.70122" lon="3.78633">
        <ele>200</ele>
        <time>2020-12-30T11:13:51Z</time>
      </trkpt>
      <trkpt lat="43.70122" lon="3.78641">
        <ele>198</ele>
        <time>2020-12-30T11:13:52Z</time>
      </trkpt>
      <trkpt lat="43.70121" lon="3.78652">
        <ele>197</ele>
        <time>2020-12-30T11:13:54Z</time>
      </trkpt>
      <trkpt lat="43.7012" lon="3.78662">
        <ele>196</ele>
        <time>2020-12-30T11:13:56Z</time>
      </trkpt>
      <trkpt lat="43.7012" lon="3.78673">
        <ele>195</ele>
        <time>2020-12-30T11:13:58Z</time>
      </trkpt>
      <trkpt lat="43.7012" lon="3.78681">
        <ele>194</ele>
        <time>2020-12-30T11:14:00Z</time>
      </trkpt>
      <trkpt lat="43.70121" lon="3.78691">
        <ele>194</ele>
        <time>2020-12-30T11:14:03Z</time>
      </trkpt>
      <trkpt lat="43.70122" lon="3.78704">
        <ele>194</ele>
        <time>2020-12-30T11:14:04Z</time>
      </trkpt>
      <trkpt lat="43.70124" lon="3.78712">
        <ele>193</ele>
        <time>2020-12-30T11:14:06Z</time>
      </trkpt>
      <trkpt lat="43.70125" lon="3.7872">
        <ele>193</ele>
        <time>2020-12-30T11:14:08Z</time>
      </trkpt>
      <trkpt lat="43.70128" lon="3.78728">
        <ele>192</ele>
        <time>2020-12-30T11:14:10Z</time>
      </trkpt>
      <trkpt lat="43.70128" lon="3.78735">
        <ele>191</ele>
        <time>2020-12-30T11:14:12Z</time>
      </trkpt>
      <trkpt lat="43.70129" lon="3.78741">
        <ele>191</ele>
        <time>2020-12-30T11:14:15Z</time>
      </trkpt>
      <trkpt lat="43.70132" lon="3.78748">
        <ele>190</ele>
        <time>2020-12-30T11:14:18Z</time>
      </trkpt>
      <trkpt lat="43.70134" lon="3.78755">
        <ele>190</ele>
        <time>2020-12-30T11:14:21Z</time>
      </trkpt>
      <trkpt lat="43.70135" lon="3.78757">
        <ele>185</ele>
        <time>2020-12-30T11:14:42Z</time>
      </trkpt>
      <trkpt lat="43.70134" lon="3.78757">
        <ele>180</ele>
        <time>2020-12-30T11:14:43Z</time>
      </trkpt>
      <trkpt lat="43.70135" lon="3.78755">
        <ele>179</ele>
        <time>2020-12-30T11:15:12Z</time>
      </trkpt>
      <trkpt lat="43.70135" lon="3.78755">
        <ele>179</ele>
        <time>2020-12-30T11:15:13Z</time>
      </trkpt>
      <trkpt lat="43.70135" lon="3.78755">
        <ele>178</ele>
        <time>2020-12-30T11:15:42Z</time>
      </trkpt>
      <trkpt lat="43.70118" lon="3.78787">
        <ele>189</ele>
        <time>2020-12-30T11:17:26Z</time>
      </trkpt>
      <trkpt lat="43.70117" lon="3.78805">
        <ele>188</ele>
        <time>2020-12-30T11:17:27Z</time>
      </trkpt>
      <trkpt lat="43.70116" lon="3.78821">
        <ele>188</ele>
        <time>2020-12-30T11:17:28Z</time>
      </trkpt>
      <trkpt lat="43.70115" lon="3.78828">
        <ele>187</ele>
        <time>2020-12-30T11:17:29Z</time>
      </trkpt>
      <trkpt lat="43.70114" lon="3.78834">
        <ele>187</ele>
        <time>2020-12-30T11:17:30Z</time>
      </trkpt>
      <trkpt lat="43.70113" lon="3.7884">
        <ele>186</ele>
        <time>2020-12-30T11:17:31Z</time>
      </trkpt>
      <trkpt lat="43.70112" lon="3.78846">
        <ele>186</ele>
        <time>2020-12-30T11:17:32Z</time>
      </trkpt>
      <trkpt lat="43.70109" lon="3.78857">
        <ele>186</ele>
        <time>2020-12-30T11:17:34Z</time>
      </trkpt>
      <trkpt lat="43.70105" lon="3.78862">
        <ele>186</ele>
        <time>2020-12-30T11:17:35Z</time>
      </trkpt>
      <trkpt lat="43.70103" lon="3.78868">
        <ele>186</ele>
        <time>2020-12-30T11:17:36Z</time>
      </trkpt>
      <trkpt lat="43.701" lon="3.78875">
        <ele>186</ele>
        <time>2020-12-30T11:17:37Z</time>
      </trkpt>
      <trkpt lat="43.70098" lon="3.78881">
        <ele>185</ele>
        <time>2020-12-30T11:17:38Z</time>
      </trkpt>
      <trkpt lat="43.70093" lon="3.78888">
        <ele>185</ele>
        <time>2020-12-30T11:17:39Z</time>
      </trkpt>
      <trkpt lat="43.70089" lon="3.78896">
        <ele>185</ele>
        <time>2020-12-30T11:17:40Z</time>
      </trkpt>
      <trkpt lat="43.70087" lon="3.78902">
        <ele>185</ele>
        <time>2020-12-30T11:17:41Z</time>
      </trkpt>
      <trkpt lat="43.70083" lon="3.78907">
        <ele>186</ele>
        <time>2020-12-30T11:17:42Z</time>
      </trkpt>
      <trkpt lat="43.70079" lon="3.78913">
        <ele>186</ele>
        <time>2020-12-30T11:17:43Z</time>
      </trkpt>
      <trkpt lat="43.70078" lon="3.7892">
        <ele>185</ele>
        <time>2020-12-30T11:17:44Z</time>
      </trkpt>
      <trkpt lat="43.70075" lon="3.78928">
        <ele>185</ele>
        <time>2020-12-30T11:17:45Z</time>
      </trkpt>
      <trkpt lat="43.7007" lon="3.78938">
        <ele>184</ele>
        <time>2020-12-30T11:17:47Z</time>
      </trkpt>
      <trkpt lat="43.70063" lon="3.78943">
        <ele>184</ele>
        <time>2020-12-30T11:17:49Z</time>
      </trkpt>
      <trkpt lat="43.70058" lon="3.78947">
        <ele>183</ele>
        <time>2020-12-30T11:17:51Z</time>
      </trkpt>
      <trkpt lat="43.70055" lon="3.78951">
        <ele>182</ele>
        <time>2020-12-30T11:17:53Z</time>
      </trkpt>
      <trkpt lat="43.70057" lon="3.78957">
        <ele>182</ele>
        <time>2020-12-30T11:17:56Z</time>
      </trkpt>
      <trkpt lat="43.70059" lon="3.78964">
        <ele>181</ele>
        <time>2020-12-30T11:18:00Z</time>
      </trkpt>
      <trkpt lat="43.70055" lon="3.78955">
        <ele>181</ele>
        <time>2020-12-30T11:18:08Z</time>
      </trkpt>
      <trkpt lat="43.70051" lon="3.78948">
        <ele>180</ele>
        <time>2020-12-30T11:18:10Z</time>
      </trkpt>
      <trkpt lat="43.70041" lon="3.78949">
        <ele>180</ele>
        <time>2020-12-30T11:18:13Z</time>
      </trkpt>
      <trkpt lat="43.70035" lon="3.78953">
        <ele>180</ele>
        <time>2020-12-30T11:18:15Z</time>
      </trkpt>
      <trkpt lat="43.70029" lon="3.78959">
        <ele>180</ele>
        <time>2020-12-30T11:18:17Z</time>
      </trkpt>
      <trkpt lat="43.70023" lon="3.78964">
        <ele>180</ele>
        <time>2020-12-30T11:18:19Z</time>
      </trkpt>
      <trkpt lat="43.70018" lon="3.7897">
        <ele>180</ele>
        <time>2020-12-30T11:18:21Z</time>
      </trkpt>
      <trkpt lat="43.70012" lon="3.78976">
        <ele>180</ele>
        <time>2020-12-30T11:18:23Z</time>
      </trkpt>
      <trkpt lat="43.70006" lon="3.78985">
        <ele>180</ele>
        <time>2020-12-30T11:18:25Z</time>
      </trkpt>
      <trkpt lat="43.70001" lon="3.78994">
        <ele>180</ele>
        <time>2020-12-30T11:18:27Z</time>
      </trkpt>
      <trkpt lat="43.69997" lon="3.78998">
        <ele>179</ele>
        <time>2020-12-30T11:18:28Z</time>
      </trkpt>
      <trkpt lat="43.69992" lon="3.79002">
        <ele>179</ele>
        <time>2020-12-30T11:18:29Z</time>
      </trkpt>
      <trkpt lat="43.69988" lon="3.79005">
        <ele>178</ele>
        <time>2020-12-30T11:18:30Z</time>
      </trkpt>
      <trkpt lat="43.69983" lon="3.79012">
        <ele>178</ele>
        <time>2020-12-30T11:18:32Z</time>
      </trkpt>
      <trkpt lat="43.69978" lon="3.79015">
        <ele>177</ele>
        <time>2020-12-30T11:18:35Z</time>
      </trkpt>
      <trkpt lat="43.69983" lon="3.79014">
        <ele>176</ele>
        <time>2020-12-30T11:18:42Z</time>
      </trkpt>
      <trkpt lat="43.69988" lon="3.79009">
        <ele>176</ele>
        <time>2020-12-30T11:18:45Z</time>
      </trkpt>
      <trkpt lat="43.69991" lon="3.79003">
        <ele>175</ele>
        <time>2020-12-30T11:18:48Z</time>
      </trkpt>
      <trkpt lat="43.69989" lon="3.78995">
        <ele>174</ele>
        <time>2020-12-30T11:18:51Z</time>
      </trkpt>
      <trkpt lat="43.69989" lon="3.78987">
        <ele>174</ele>
        <time>2020-12-30T11:18:54Z</time>
      </trkpt>
      <trkpt lat="43.69984" lon="3.78984">
        <ele>174</ele>
        <time>2020-12-30T11:18:58Z</time>
      </trkpt>
      <trkpt lat="43.69978" lon="3.78986">
        <ele>174</ele>
        <time>2020-12-30T11:19:01Z</time>
      </trkpt>
      <trkpt lat="43.69974" lon="3.78988">
        <ele>174</ele>
        <time>2020-12-30T11:19:04Z</time>
      </trkpt>
      <trkpt lat="43.69968" lon="3.7899">
        <ele>175</ele>
        <time>2020-12-30T11:19:05Z</time>
      </trkpt>
      <trkpt lat="43.69963" lon="3.78992">
        <ele>175</ele>
        <time>2020-12-30T11:19:06Z</time>
      </trkpt>
      <trkpt lat="43.69958" lon="3.78991">
        <ele>176</ele>
        <time>2020-12-30T11:19:08Z</time>
      </trkpt>
      <trkpt lat="43.69951" lon="3.78991">
        <ele>176</ele>
        <time>2020-12-30T11:19:10Z</time>
      </trkpt>
      <trkpt lat="43.69946" lon="3.78992">
        <ele>177</ele>
        <time>2020-12-30T11:19:12Z</time>
      </trkpt>
      <trkpt lat="43.6994" lon="3.78993">
        <ele>178</ele>
        <time>2020-12-30T11:19:14Z</time>
      </trkpt>
      <trkpt lat="43.69935" lon="3.78994">
        <ele>179</ele>
        <time>2020-12-30T11:19:16Z</time>
      </trkpt>
      <trkpt lat="43.6993" lon="3.78996">
        <ele>179</ele>
        <time>2020-12-30T11:19:18Z</time>
      </trkpt>
      <trkpt lat="43.69924" lon="3.78998">
        <ele>179</ele>
        <time>2020-12-30T11:19:20Z</time>
      </trkpt>
      <trkpt lat="43.69918" lon="3.79">
        <ele>179</ele>
        <time>2020-12-30T11:19:22Z</time>
      </trkpt>
      <trkpt lat="43.69913" lon="3.79002">
        <ele>179</ele>
        <time>2020-12-30T11:19:24Z</time>
      </trkpt>
      <trkpt lat="43.69907" lon="3.79003">
        <ele>179</ele>
        <time>2020-12-30T11:19:26Z</time>
      </trkpt>
      <trkpt lat="43.69902" lon="3.79005">
        <ele>179</ele>
        <time>2020-12-30T11:19:29Z</time>
      </trkpt>
      <trkpt lat="43.69897" lon="3.79006">
        <ele>179</ele>
        <time>2020-12-30T11:19:31Z</time>
      </trkpt>
      <trkpt lat="43.69892" lon="3.79007">
        <ele>180</ele>
        <time>2020-12-30T11:19:33Z</time>
      </trkpt>
      <trkpt lat="43.69887" lon="3.79008">
        <ele>180</ele>
        <time>2020-12-30T11:19:35Z</time>
      </trkpt>
      <trkpt lat="43.69881" lon="3.7901">
        <ele>181</ele>
        <time>2020-12-30T11:19:38Z</time>
      </trkpt>
      <trkpt lat="43.69875" lon="3.79009">
        <ele>181</ele>
        <time>2020-12-30T11:19:41Z</time>
      </trkpt>
      <trkpt lat="43.6987" lon="3.79007">
        <ele>182</ele>
        <time>2020-12-30T11:19:44Z</time>
      </trkpt>
      <trkpt lat="43.69867" lon="3.79001">
        <ele>182</ele>
        <time>2020-12-30T11:19:48Z</time>
      </trkpt>
      <trkpt lat="43.69862" lon="3.79001">
        <ele>182</ele>
        <time>2020-12-30T11:19:51Z</time>
      </trkpt>
      <trkpt lat="43.69857" lon="3.79001">
        <ele>182</ele>
        <time>2020-12-30T11:19:53Z</time>
      </trkpt>
      <trkpt lat="43.69852" lon="3.78998">
        <ele>181</ele>
        <time>2020-12-30T11:19:55Z</time>
      </trkpt>
      <trkpt lat="43.69846" lon="3.78995">
        <ele>181</ele>
        <time>2020-12-30T11:19:57Z</time>
      </trkpt>
      <trkpt lat="43.69839" lon="3.78993">
        <ele>181</ele>
        <time>2020-12-30T11:19:59Z</time>
      </trkpt>
      <trkpt lat="43.69831" lon="3.78996">
        <ele>181</ele>
        <time>2020-12-30T11:20:01Z</time>
      </trkpt>
      <trkpt lat="43.69826" lon="3.78998">
        <ele>181</ele>
        <time>2020-12-30T11:20:02Z</time>
      </trkpt>
      <trkpt lat="43.69821" lon="3.79">
        <ele>181</ele>
        <time>2020-12-30T11:20:03Z</time>
      </trkpt>
      <trkpt lat="43.69813" lon="3.79002">
        <ele>181</ele>
        <time>2020-12-30T11:20:05Z</time>
      </trkpt>
      <trkpt lat="43.69808" lon="3.79002">
        <ele>181</ele>
        <time>2020-12-30T11:20:06Z</time>
      </trkpt>
      <trkpt lat="43.69804" lon="3.79003">
        <ele>181</ele>
        <time>2020-12-30T11:20:07Z</time>
      </trkpt>
      <trkpt lat="43.69796" lon="3.79006">
        <ele>181</ele>
        <time>2020-12-30T11:20:09Z</time>
      </trkpt>
      <trkpt lat="43.69791" lon="3.79006">
        <ele>181</ele>
        <time>2020-12-30T11:20:10Z</time>
      </trkpt>
      <trkpt lat="43.69786" lon="3.79007">
        <ele>180</ele>
        <time>2020-12-30T11:20:11Z</time>
      </trkpt>
      <trkpt lat="43.69777" lon="3.79008">
        <ele>180</ele>
        <time>2020-12-30T11:20:13Z</time>
      </trkpt>
      <trkpt lat="43.69768" lon="3.79008">
        <ele>180</ele>
        <time>2020-12-30T11:20:15Z</time>
      </trkpt>
      <trkpt lat="43.69762" lon="3.79008">
        <ele>179</ele>
        <time>2020-12-30T11:20:16Z</time>
      </trkpt>
      <trkpt lat="43.69756" lon="3.7901">
        <ele>178</ele>
        <time>2020-12-30T11:20:17Z</time>
      </trkpt>
      <trkpt lat="43.69751" lon="3.7901">
        <ele>178</ele>
        <time>2020-12-30T11:20:18Z</time>
      </trkpt>
      <trkpt lat="43.69746" lon="3.7901">
        <ele>177</ele>
        <time>2020-12-30T11:20:19Z</time>
      </trkpt>
      <trkpt lat="43.69739" lon="3.79006">
        <ele>177</ele>
        <time>2020-12-30T11:20:21Z</time>
      </trkpt>
      <trkpt lat="43.69731" lon="3.79003">
        <ele>176</ele>
        <time>2020-12-30T11:20:23Z</time>
      </trkpt>
      <trkpt lat="43.69727" lon="3.78999">
        <ele>176</ele>
        <time>2020-12-30T11:20:25Z</time>
      </trkpt>
      <trkpt lat="43.69722" lon="3.78995">
        <ele>176</ele>
        <time>2020-12-30T11:20:27Z</time>
      </trkpt>
      <trkpt lat="43.69717" lon="3.78992">
        <ele>176</ele>
        <time>2020-12-30T11:20:30Z</time>
      </trkpt>
      <trkpt lat="43.69712" lon="3.78987">
        <ele>176</ele>
        <time>2020-12-30T11:20:32Z</time>
      </trkpt>
      <trkpt lat="43.69708" lon="3.78982">
        <ele>176</ele>
        <time>2020-12-30T11:20:35Z</time>
      </trkpt>
      <trkpt lat="43.69703" lon="3.78977">
        <ele>176</ele>
        <time>2020-12-30T11:20:38Z</time>
      </trkpt>
      <trkpt lat="43.69698" lon="3.78973">
        <ele>176</ele>
        <time>2020-12-30T11:20:40Z</time>
      </trkpt>
      <trkpt lat="43.69692" lon="3.78971">
        <ele>176</ele>
        <time>2020-12-30T11:20:43Z</time>
      </trkpt>
      <trkpt lat="43.69689" lon="3.78964">
        <ele>176</ele>
        <time>2020-12-30T11:20:47Z</time>
      </trkpt>
      <trkpt lat="43.69686" lon="3.78958">
        <ele>176</ele>
        <time>2020-12-30T11:20:50Z</time>
      </trkpt>
      <trkpt lat="43.69682" lon="3.78952">
        <ele>176</ele>
        <time>2020-12-30T11:20:53Z</time>
      </trkpt>
      <trkpt lat="43.69678" lon="3.78948">
        <ele>176</ele>
        <time>2020-12-30T11:20:56Z</time>
      </trkpt>
      <trkpt lat="43.69673" lon="3.78944">
        <ele>177</ele>
        <time>2020-12-30T11:21:00Z</time>
      </trkpt>
      <trkpt lat="43.69671" lon="3.78938">
        <ele>177</ele>
        <time>2020-12-30T11:21:04Z</time>
      </trkpt>
      <trkpt lat="43.69667" lon="3.78933">
        <ele>178</ele>
        <time>2020-12-30T11:21:07Z</time>
      </trkpt>
      <trkpt lat="43.69663" lon="3.78928">
        <ele>179</ele>
        <time>2020-12-30T11:21:09Z</time>
      </trkpt>
      <trkpt lat="43.69659" lon="3.78924">
        <ele>180</ele>
        <time>2020-12-30T11:21:11Z</time>
      </trkpt>
      <trkpt lat="43.69654" lon="3.78919">
        <ele>180</ele>
        <time>2020-12-30T11:21:13Z</time>
      </trkpt>
      <trkpt lat="43.69649" lon="3.78914">
        <ele>180</ele>
        <time>2020-12-30T11:21:15Z</time>
      </trkpt>
      <trkpt lat="43.69644" lon="3.7891">
        <ele>180</ele>
        <time>2020-12-30T11:21:17Z</time>
      </trkpt>
      <trkpt lat="43.69639" lon="3.78906">
        <ele>180</ele>
        <time>2020-12-30T11:21:19Z</time>
      </trkpt>
      <trkpt lat="43.69635" lon="3.78903">
        <ele>180</ele>
        <time>2020-12-30T11:21:21Z</time>
      </trkpt>
      <trkpt lat="43.69629" lon="3.78898">
        <ele>180</ele>
        <time>2020-12-30T11:21:24Z</time>
      </trkpt>
      <trkpt lat="43.69625" lon="3.78894">
        <ele>180</ele>
        <time>2020-12-30T11:21:27Z</time>
      </trkpt>
      <trkpt lat="43.69621" lon="3.78891">
        <ele>180</ele>
        <time>2020-12-30T11:21:30Z</time>
      </trkpt>
      <trkpt lat="43.69615" lon="3.78892">
        <ele>180</ele>
        <time>2020-12-30T11:21:57Z</time>
      </trkpt>
      <trkpt lat="43.69614" lon="3.78899">
        <ele>181</ele>
        <time>2020-12-30T11:22:00Z</time>
      </trkpt>
      <trkpt lat="43.69612" lon="3.78905">
        <ele>182</ele>
        <time>2020-12-30T11:22:04Z</time>
      </trkpt>
      <trkpt lat="43.69609" lon="3.7891">
        <ele>182</ele>
        <time>2020-12-30T11:22:08Z</time>
      </trkpt>
      <trkpt lat="43.69608" lon="3.78919">
        <ele>182</ele>
        <time>2020-12-30T11:22:12Z</time>
      </trkpt>
      <trkpt lat="43.69602" lon="3.78921">
        <ele>183</ele>
        <time>2020-12-30T11:22:16Z</time>
      </trkpt>
      <trkpt lat="43.69598" lon="3.78925">
        <ele>183</ele>
        <time>2020-12-30T11:22:19Z</time>
      </trkpt>
      <trkpt lat="43.69591" lon="3.7893">
        <ele>183</ele>
        <time>2020-12-30T11:22:22Z</time>
      </trkpt>
      <trkpt lat="43.69586" lon="3.78934">
        <ele>183</ele>
        <time>2020-12-30T11:22:24Z</time>
      </trkpt>
      <trkpt lat="43.69582" lon="3.78938">
        <ele>183</ele>
        <time>2020-12-30T11:22:26Z</time>
      </trkpt>
      <trkpt lat="43.69576" lon="3.78945">
        <ele>182</ele>
        <time>2020-12-30T11:22:27Z</time>
      </trkpt>
      <trkpt lat="43.6957" lon="3.78947">
        <ele>182</ele>
        <time>2020-12-30T11:22:29Z</time>
      </trkpt>
      <trkpt lat="43.69563" lon="3.78948">
        <ele>182</ele>
        <time>2020-12-30T11:22:42Z</time>
      </trkpt>
      <trkpt lat="43.69558" lon="3.78948">
        <ele>182</ele>
        <time>2020-12-30T11:22:44Z</time>
      </trkpt>
      <trkpt lat="43.69551" lon="3.78949">
        <ele>182</ele>
        <time>2020-12-30T11:22:46Z</time>
      </trkpt>
      <trkpt lat="43.69545" lon="3.78949">
        <ele>182</ele>
        <time>2020-12-30T11:22:49Z</time>
      </trkpt>
      <trkpt lat="43.6954" lon="3.78949">
        <ele>182</ele>
        <time>2020-12-30T11:22:51Z</time>
      </trkpt>
      <trkpt lat="43.6953" lon="3.78945">
        <ele>182</ele>
        <time>2020-12-30T11:22:53Z</time>
      </trkpt>
      <trkpt lat="43.69525" lon="3.78944">
        <ele>182</ele>
        <time>2020-12-30T11:22:55Z</time>
      </trkpt>
      <trkpt lat="43.69521" lon="3.78945">
        <ele>182</ele>
        <time>2020-12-30T11:22:57Z</time>
      </trkpt>
      <trkpt lat="43.69514" lon="3.78943">
        <ele>181</ele>
        <time>2020-12-30T11:23:00Z</time>
      </trkpt>
      <trkpt lat="43.69508" lon="3.78941">
        <ele>181</ele>
        <time>2020-12-30T11:23:03Z</time>
      </trkpt>
      <trkpt lat="43.69504" lon="3.7894">
        <ele>181</ele>
        <time>2020-12-30T11:23:05Z</time>
      </trkpt>
      <trkpt lat="43.69499" lon="3.78939">
        <ele>180</ele>
        <time>2020-12-30T11:23:06Z</time>
      </trkpt>
      <trkpt lat="43.69489" lon="3.7894">
        <ele>180</ele>
        <time>2020-12-30T11:23:07Z</time>
      </trkpt>
      <trkpt lat="43.69484" lon="3.78942">
        <ele>180</ele>
        <time>2020-12-30T11:23:09Z</time>
      </trkpt>
      <trkpt lat="43.69479" lon="3.78948">
        <ele>179</ele>
        <time>2020-12-30T11:23:12Z</time>
      </trkpt>
      <trkpt lat="43.69475" lon="3.78955">
        <ele>179</ele>
        <time>2020-12-30T11:23:14Z</time>
      </trkpt>
      <trkpt lat="43.6947" lon="3.78961">
        <ele>178</ele>
        <time>2020-12-30T11:23:17Z</time>
      </trkpt>
      <trkpt lat="43.69465" lon="3.78966">
        <ele>178</ele>
        <time>2020-12-30T11:23:19Z</time>
      </trkpt>
      <trkpt lat="43.69458" lon="3.78972">
        <ele>178</ele>
        <time>2020-12-30T11:23:21Z</time>
      </trkpt>
      <trkpt lat="43.69448" lon="3.78982">
        <ele>177</ele>
        <time>2020-12-30T11:23:22Z</time>
      </trkpt>
      <trkpt lat="43.69444" lon="3.78987">
        <ele>177</ele>
        <time>2020-12-30T11:23:23Z</time>
      </trkpt>
      <trkpt lat="43.69436" lon="3.78994">
        <ele>177</ele>
        <time>2020-12-30T11:23:25Z</time>
      </trkpt>
      <trkpt lat="43.69429" lon="3.79">
        <ele>177</ele>
        <time>2020-12-30T11:23:27Z</time>
      </trkpt>
      <trkpt lat="43.69421" lon="3.79005">
        <ele>177</ele>
        <time>2020-12-30T11:23:29Z</time>
      </trkpt>
      <trkpt lat="43.69413" lon="3.79005">
        <ele>177</ele>
        <time>2020-12-30T11:23:31Z</time>
      </trkpt>
      <trkpt lat="43.69407" lon="3.79">
        <ele>177</ele>
        <time>2020-12-30T11:23:33Z</time>
      </trkpt>
      <trkpt lat="43.69404" lon="3.78995">
        <ele>176</ele>
        <time>2020-12-30T11:23:35Z</time>
      </trkpt>
      <trkpt lat="43.69399" lon="3.78994">
        <ele>176</ele>
        <time>2020-12-30T11:23:36Z</time>
      </trkpt>
      <trkpt lat="43.69394" lon="3.78997">
        <ele>175</ele>
        <time>2020-12-30T11:23:37Z</time>
      </trkpt>
      <trkpt lat="43.69389" lon="3.79001">
        <ele>175</ele>
        <time>2020-12-30T11:23:38Z</time>
      </trkpt>
      <trkpt lat="43.69384" lon="3.79005">
        <ele>175</ele>
        <time>2020-12-30T11:23:39Z</time>
      </trkpt>
      <trkpt lat="43.69378" lon="3.79008">
        <ele>175</ele>
        <time>2020-12-30T11:23:40Z</time>
      </trkpt>
      <trkpt lat="43.69373" lon="3.7901">
        <ele>175</ele>
        <time>2020-12-30T11:23:41Z</time>
      </trkpt>
      <trkpt lat="43.69367" lon="3.79013">
        <ele>175</ele>
        <time>2020-12-30T11:23:42Z</time>
      </trkpt>
      <trkpt lat="43.69362" lon="3.79016">
        <ele>175</ele>
        <time>2020-12-30T11:23:43Z</time>
      </trkpt>
      <trkpt lat="43.69357" lon="3.79016">
        <ele>175</ele>
        <time>2020-12-30T11:23:44Z</time>
      </trkpt>
      <trkpt lat="43.69352" lon="3.79014">
        <ele>174</ele>
        <time>2020-12-30T11:23:45Z</time>
      </trkpt>
      <trkpt lat="43.69347" lon="3.79009">
        <ele>174</ele>
        <time>2020-12-30T11:23:48Z</time>
      </trkpt>
      <trkpt lat="43.69341" lon="3.79008">
        <ele>173</ele>
        <time>2020-12-30T11:23:50Z</time>
      </trkpt>
      <trkpt lat="43.69337" lon="3.79011">
        <ele>173</ele>
        <time>2020-12-30T11:23:52Z</time>
      </trkpt>
      <trkpt lat="43.69335" lon="3.79018">
        <ele>172</ele>
        <time>2020-12-30T11:23:55Z</time>
      </trkpt>
      <trkpt lat="43.69331" lon="3.79023">
        <ele>172</ele>
        <time>2020-12-30T11:23:58Z</time>
      </trkpt>
      <trkpt lat="43.69326" lon="3.79029">
        <ele>171</ele>
        <time>2020-12-30T11:24:01Z</time>
      </trkpt>
      <trkpt lat="43.69321" lon="3.79032">
        <ele>171</ele>
        <time>2020-12-30T11:24:03Z</time>
      </trkpt>
      <trkpt lat="43.69317" lon="3.79033">
        <ele>171</ele>
        <time>2020-12-30T11:24:05Z</time>
      </trkpt>
      <trkpt lat="43.69311" lon="3.79033">
        <ele>171</ele>
        <time>2020-12-30T11:24:07Z</time>
      </trkpt>
      <trkpt lat="43.69304" lon="3.79031">
        <ele>170</ele>
        <time>2020-12-30T11:24:09Z</time>
      </trkpt>
      <trkpt lat="43.69297" lon="3.79027">
        <ele>170</ele>
        <time>2020-12-30T11:24:11Z</time>
      </trkpt>
      <trkpt lat="43.69292" lon="3.79024">
        <ele>170</ele>
        <time>2020-12-30T11:24:13Z</time>
      </trkpt>
      <trkpt lat="43.69286" lon="3.79022">
        <ele>170</ele>
        <time>2020-12-30T11:24:15Z</time>
      </trkpt>
      <trkpt lat="43.69281" lon="3.7902">
        <ele>171</ele>
        <time>2020-12-30T11:24:17Z</time>
      </trkpt>
      <trkpt lat="43.69275" lon="3.79018">
        <ele>171</ele>
        <time>2020-12-30T11:24:19Z</time>
      </trkpt>
      <trkpt lat="43.69269" lon="3.79018">
        <ele>171</ele>
        <time>2020-12-30T11:24:21Z</time>
      </trkpt>
      <trkpt lat="43.69263" lon="3.79019">
        <ele>171</ele>
        <time>2020-12-30T11:24:24Z</time>
      </trkpt>
      <trkpt lat="43.69258" lon="3.7902">
        <ele>171</ele>
        <time>2020-12-30T11:24:26Z</time>
      </trkpt>
      <trkpt lat="43.69252" lon="3.79023">
        <ele>171</ele>
        <time>2020-12-30T11:24:29Z</time>
      </trkpt>
      <trkpt lat="43.69246" lon="3.79025">
        <ele>172</ele>
        <time>2020-12-30T11:24:32Z</time>
      </trkpt>
      <trkpt lat="43.69241" lon="3.79028">
        <ele>171</ele>
        <time>2020-12-30T11:24:35Z</time>
      </trkpt>
      <trkpt lat="43.69237" lon="3.7903">
        <ele>171</ele>
        <time>2020-12-30T11:24:37Z</time>
      </trkpt>
      <trkpt lat="43.69232" lon="3.79032">
        <ele>171</ele>
        <time>2020-12-30T11:24:39Z</time>
      </trkpt>
      <trkpt lat="43.69228" lon="3.79035">
        <ele>171</ele>
        <time>2020-12-30T11:24:41Z</time>
      </trkpt>
      <trkpt lat="43.69223" lon="3.79038">
        <ele>170</ele>
        <time>2020-12-30T11:24:43Z</time>
      </trkpt>
      <trkpt lat="43.69219" lon="3.79041">
        <ele>170</ele>
        <time>2020-12-30T11:24:45Z</time>
      </trkpt>
      <trkpt lat="43.69215" lon="3.79045">
        <ele>171</ele>
        <time>2020-12-30T11:24:47Z</time>
      </trkpt>
      <trkpt lat="43.6921" lon="3.79048">
        <ele>171</ele>
        <time>2020-12-30T11:24:49Z</time>
      </trkpt>
      <trkpt lat="43.69206" lon="3.79051">
        <ele>171</ele>
        <time>2020-12-30T11:24:51Z</time>
      </trkpt>
      <trkpt lat="43.69199" lon="3.79053">
        <ele>172</ele>
        <time>2020-12-30T11:24:54Z</time>
      </trkpt>
      <trkpt lat="43.69195" lon="3.79056">
        <ele>172</ele>
        <time>2020-12-30T11:24:56Z</time>
      </trkpt>
      <trkpt lat="43.69191" lon="3.79059">
        <ele>172</ele>
        <time>2020-12-30T11:24:58Z</time>
      </trkpt>
      <trkpt lat="43.69186" lon="3.79062">
        <ele>171</ele>
        <time>2020-12-30T11:25:00Z</time>
      </trkpt>
      <trkpt lat="43.69182" lon="3.79064">
        <ele>171</ele>
        <time>2020-12-30T11:25:02Z</time>
      </trkpt>
      <trkpt lat="43.69178" lon="3.79067">
        <ele>171</ele>
        <time>2020-12-30T11:25:04Z</time>
      </trkpt>
      <trkpt lat="43.69173" lon="3.7907">
        <ele>171</ele>
        <time>2020-12-30T11:25:06Z</time>
      </trkpt>
      <trkpt lat="43.69169" lon="3.79071">
        <ele>171</ele>
        <time>2020-12-30T11:25:08Z</time>
      </trkpt>
      <trkpt lat="43.69163" lon="3.79072">
        <ele>172</ele>
        <time>2020-12-30T11:25:10Z</time>
      </trkpt>
      <trkpt lat="43.69158" lon="3.79071">
        <ele>173</ele>
        <time>2020-12-30T11:25:12Z</time>
      </trkpt>
      <trkpt lat="43.69152" lon="3.79068">
        <ele>173</ele>
        <time>2020-12-30T11:25:15Z</time>
      </trkpt>
      <trkpt lat="43.69147" lon="3.79067">
        <ele>174</ele>
        <time>2020-12-30T11:25:18Z</time>
      </trkpt>
      <trkpt lat="43.69142" lon="3.79072">
        <ele>175</ele>
        <time>2020-12-30T11:25:22Z</time>
      </trkpt>
      <trkpt lat="43.69136" lon="3.79073">
        <ele>176</ele>
        <time>2020-12-30T11:25:24Z</time>
      </trkpt>
      <trkpt lat="43.69131" lon="3.79075">
        <ele>177</ele>
        <time>2020-12-30T11:25:26Z</time>
      </trkpt>
      <trkpt lat="43.69128" lon="3.7908">
        <ele>178</ele>
        <time>2020-12-30T11:25:28Z</time>
      </trkpt>
      <trkpt lat="43.69127" lon="3.79086">
        <ele>178</ele>
        <time>2020-12-30T11:25:30Z</time>
      </trkpt>
      <trkpt lat="43.69127" lon="3.79093">
        <ele>179</ele>
        <time>2020-12-30T11:25:32Z</time>
      </trkpt>
      <trkpt lat="43.69126" lon="3.791">
        <ele>178</ele>
        <time>2020-12-30T11:25:34Z</time>
      </trkpt>
      <trkpt lat="43.69126" lon="3.791">
        <ele>178</ele>
        <time>2020-12-30T11:25:57Z</time>
      </trkpt>
      <trkpt lat="43.69127" lon="3.791">
        <ele>177</ele>
        <time>2020-12-30T11:25:59Z</time>
      </trkpt>
      <trkpt lat="43.69127" lon="3.79098">
        <ele>177</ele>
        <time>2020-12-30T11:26:27Z</time>
      </trkpt>
      <trkpt lat="43.69127" lon="3.79098">
        <ele>176</ele>
        <time>2020-12-30T11:26:29Z</time>
      </trkpt>
      <trkpt lat="43.69127" lon="3.79098">
        <ele>176</ele>
        <time>2020-12-30T11:26:57Z</time>
      </trkpt>
      <trkpt lat="43.69123" lon="3.79133">
        <ele>168</ele>
        <time>2020-12-30T11:27:11Z</time>
      </trkpt>
      <trkpt lat="43.69123" lon="3.79142">
        <ele>167</ele>
        <time>2020-12-30T11:27:14Z</time>
      </trkpt>
      <trkpt lat="43.69123" lon="3.79152">
        <ele>166</ele>
        <time>2020-12-30T11:27:16Z</time>
      </trkpt>
      <trkpt lat="43.69123" lon="3.79161">
        <ele>166</ele>
        <time>2020-12-30T11:27:17Z</time>
      </trkpt>
      <trkpt lat="43.69124" lon="3.79169">
        <ele>169</ele>
        <time>2020-12-30T11:27:19Z</time>
      </trkpt>
      <trkpt lat="43.69124" lon="3.79177">
        <ele>170</ele>
        <time>2020-12-30T11:27:21Z</time>
      </trkpt>
      <trkpt lat="43.69125" lon="3.79185">
        <ele>171</ele>
        <time>2020-12-30T11:27:23Z</time>
      </trkpt>
      <trkpt lat="43.69123" lon="3.79194">
        <ele>172</ele>
        <time>2020-12-30T11:27:26Z</time>
      </trkpt>
      <trkpt lat="43.69122" lon="3.79202">
        <ele>173</ele>
        <time>2020-12-30T11:27:28Z</time>
      </trkpt>
      <trkpt lat="43.69121" lon="3.79212">
        <ele>173</ele>
        <time>2020-12-30T11:27:30Z</time>
      </trkpt>
      <trkpt lat="43.69119" lon="3.79232">
        <ele>173</ele>
        <time>2020-12-30T11:27:32Z</time>
      </trkpt>
      <trkpt lat="43.69118" lon="3.79245">
        <ele>173</ele>
        <time>2020-12-30T11:27:33Z</time>
      </trkpt>
      <trkpt lat="43.69118" lon="3.79252">
        <ele>173</ele>
        <time>2020-12-30T11:27:34Z</time>
      </trkpt>
      <trkpt lat="43.69117" lon="3.7926">
        <ele>174</ele>
        <time>2020-12-30T11:27:35Z</time>
      </trkpt>
      <trkpt lat="43.69118" lon="3.79267">
        <ele>174</ele>
        <time>2020-12-30T11:27:36Z</time>
      </trkpt>
      <trkpt lat="43.69118" lon="3.79275">
        <ele>174</ele>
        <time>2020-12-30T11:27:37Z</time>
      </trkpt>
      <trkpt lat="43.69117" lon="3.79282">
        <ele>174</ele>
        <time>2020-12-30T11:27:38Z</time>
      </trkpt>
      <trkpt lat="43.69117" lon="3.7929">
        <ele>175</ele>
        <time>2020-12-30T11:27:39Z</time>
      </trkpt>
      <trkpt lat="43.69117" lon="3.79297">
        <ele>175</ele>
        <time>2020-12-30T11:27:40Z</time>
      </trkpt>
      <trkpt lat="43.69116" lon="3.79305">
        <ele>175</ele>
        <time>2020-12-30T11:27:41Z</time>
      </trkpt>
      <trkpt lat="43.69115" lon="3.79312">
        <ele>175</ele>
        <time>2020-12-30T11:27:42Z</time>
      </trkpt>
      <trkpt lat="43.69115" lon="3.79319">
        <ele>175</ele>
        <time>2020-12-30T11:27:43Z</time>
      </trkpt>
      <trkpt lat="43.69115" lon="3.79327">
        <ele>175</ele>
        <time>2020-12-30T11:27:44Z</time>
      </trkpt>
      <trkpt lat="43.69115" lon="3.79334">
        <ele>175</ele>
        <time>2020-12-30T11:27:45Z</time>
      </trkpt>
      <trkpt lat="43.69116" lon="3.79341">
        <ele>175</ele>
        <time>2020-12-30T11:27:46Z</time>
      </trkpt>
      <trkpt lat="43.69115" lon="3.79352">
        <ele>175</ele>
        <time>2020-12-30T11:27:48Z</time>
      </trkpt>
      <trkpt lat="43.69114" lon="3.79363">
        <ele>175</ele>
        <time>2020-12-30T11:27:50Z</time>
      </trkpt>
      <trkpt lat="43.69114" lon="3.7937">
        <ele>175</ele>
        <time>2020-12-30T11:27:51Z</time>
      </trkpt>
      <trkpt lat="43.69114" lon="3.79376">
        <ele>174</ele>
        <time>2020-12-30T11:27:52Z</time>
      </trkpt>
      <trkpt lat="43.69114" lon="3.79383">
        <ele>174</ele>
        <time>2020-12-30T11:27:53Z</time>
      </trkpt>
      <trkpt lat="43.69113" lon="3.7939">
        <ele>174</ele>
        <time>2020-12-30T11:27:54Z</time>
      </trkpt>
      <trkpt lat="43.69113" lon="3.79398">
        <ele>174</ele>
        <time>2020-12-30T11:27:55Z</time>
      </trkpt>
      <trkpt lat="43.69113" lon="3.79405">
        <ele>173</ele>
        <time>2020-12-30T11:27:56Z</time>
      </trkpt>
      <trkpt lat="43.69112" lon="3.79413">
        <ele>173</ele>
        <time>2020-12-30T11:27:57Z</time>
      </trkpt>
      <trkpt lat="43.69112" lon="3.79421">
        <ele>173</ele>
        <time>2020-12-30T11:27:58Z</time>
      </trkpt>
      <trkpt lat="43.69112" lon="3.7943">
        <ele>173</ele>
        <time>2020-12-30T11:27:59Z</time>
      </trkpt>
      <trkpt lat="43.69113" lon="3.79438">
        <ele>173</ele>
        <time>2020-12-30T11:28:00Z</time>
      </trkpt>
      <trkpt lat="43.69112" lon="3.79448">
        <ele>172</ele>
        <time>2020-12-30T11:28:01Z</time>
      </trkpt>
      <trkpt lat="43.69111" lon="3.79457">
        <ele>172</ele>
        <time>2020-12-30T11:28:02Z</time>
      </trkpt>
      <trkpt lat="43.69112" lon="3.79467">
        <ele>172</ele>
        <time>2020-12-30T11:28:03Z</time>
      </trkpt>
      <trkpt lat="43.69112" lon="3.79477">
        <ele>171</ele>
        <time>2020-12-30T11:28:04Z</time>
      </trkpt>
      <trkpt lat="43.69111" lon="3.79487">
        <ele>171</ele>
        <time>2020-12-30T11:28:05Z</time>
      </trkpt>
      <trkpt lat="43.69112" lon="3.79496">
        <ele>170</ele>
        <time>2020-12-30T11:28:06Z</time>
      </trkpt>
      <trkpt lat="43.69112" lon="3.79505">
        <ele>170</ele>
        <time>2020-12-30T11:28:07Z</time>
      </trkpt>
      <trkpt lat="43.69112" lon="3.79515">
        <ele>170</ele>
        <time>2020-12-30T11:28:08Z</time>
      </trkpt>
      <trkpt lat="43.69112" lon="3.79525">
        <ele>169</ele>
        <time>2020-12-30T11:28:09Z</time>
      </trkpt>
      <trkpt lat="43.69111" lon="3.79534">
        <ele>169</ele>
        <time>2020-12-30T11:28:10Z</time>
      </trkpt>
      <trkpt lat="43.69111" lon="3.79544">
        <ele>169</ele>
        <time>2020-12-30T11:28:11Z</time>
      </trkpt>
      <trkpt lat="43.69111" lon="3.79555">
        <ele>168</ele>
        <time>2020-12-30T11:28:12Z</time>
      </trkpt>
      <trkpt lat="43.6911" lon="3.79563">
        <ele>168</ele>
        <time>2020-12-30T11:28:13Z</time>
      </trkpt>
      <trkpt lat="43.6911" lon="3.79569">
        <ele>167</ele>
        <time>2020-12-30T11:28:14Z</time>
      </trkpt>
      <trkpt lat="43.6911" lon="3.79577">
        <ele>166</ele>
        <time>2020-12-30T11:28:15Z</time>
      </trkpt>
      <trkpt lat="43.69109" lon="3.79586">
        <ele>166</ele>
        <time>2020-12-30T11:28:16Z</time>
      </trkpt>
      <trkpt lat="43.6911" lon="3.79594">
        <ele>165</ele>
        <time>2020-12-30T11:28:17Z</time>
      </trkpt>
      <trkpt lat="43.69109" lon="3.79604">
        <ele>165</ele>
        <time>2020-12-30T11:28:18Z</time>
      </trkpt>
      <trkpt lat="43.69109" lon="3.79613">
        <ele>164</ele>
        <time>2020-12-30T11:28:19Z</time>
      </trkpt>
      <trkpt lat="43.69109" lon="3.79621">
        <ele>163</ele>
        <time>2020-12-30T11:28:20Z</time>
      </trkpt>
      <trkpt lat="43.69109" lon="3.79629">
        <ele>163</ele>
        <time>2020-12-30T11:28:21Z</time>
      </trkpt>
      <trkpt lat="43.69109" lon="3.79637">
        <ele>162</ele>
        <time>2020-12-30T11:28:22Z</time>
      </trkpt>
      <trkpt lat="43.69107" lon="3.79648">
        <ele>162</ele>
        <time>2020-12-30T11:28:24Z</time>
      </trkpt>
      <trkpt lat="43.69107" lon="3.79652">
        <ele>161</ele>
        <time>2020-12-30T11:28:42Z</time>
      </trkpt>
      <trkpt lat="43.69107" lon="3.79652">
        <ele>161</ele>
        <time>2020-12-30T11:28:44Z</time>
      </trkpt>
      <trkpt lat="43.69103" lon="3.7965">
        <ele>160</ele>
        <time>2020-12-30T11:28:54Z</time>
      </trkpt>
      <trkpt lat="43.69097" lon="3.79646">
        <ele>160</ele>
        <time>2020-12-30T11:28:57Z</time>
      </trkpt>
      <trkpt lat="43.69093" lon="3.79641">
        <ele>159</ele>
        <time>2020-12-30T11:29:00Z</time>
      </trkpt>
      <trkpt lat="43.69089" lon="3.79638">
        <ele>159</ele>
        <time>2020-12-30T11:29:03Z</time>
      </trkpt>
      <trkpt lat="43.69082" lon="3.79631">
        <ele>159</ele>
        <time>2020-12-30T11:29:05Z</time>
      </trkpt>
      <trkpt lat="43.69078" lon="3.79627">
        <ele>159</ele>
        <time>2020-12-30T11:29:06Z</time>
      </trkpt>
      <trkpt lat="43.69073" lon="3.79622">
        <ele>160</ele>
        <time>2020-12-30T11:29:08Z</time>
      </trkpt>
      <trkpt lat="43.6907" lon="3.79616">
        <ele>160</ele>
        <time>2020-12-30T11:29:10Z</time>
      </trkpt>
      <trkpt lat="43.69066" lon="3.79616">
        <ele>160</ele>
        <time>2020-12-30T11:29:14Z</time>
      </trkpt>
      <trkpt lat="43.69064" lon="3.79609">
        <ele>160</ele>
        <time>2020-12-30T11:29:19Z</time>
      </trkpt>
      <trkpt lat="43.69063" lon="3.79603">
        <ele>160</ele>
        <time>2020-12-30T11:29:23Z</time>
      </trkpt>
      <trkpt lat="43.69066" lon="3.79598">
        <ele>160</ele>
        <time>2020-12-30T11:29:37Z</time>
      </trkpt>
      <trkpt lat="43.69067" lon="3.79591">
        <ele>161</ele>
        <time>2020-12-30T11:29:48Z</time>
      </trkpt>
      <trkpt lat="43.69063" lon="3.79586">
        <ele>161</ele>
        <time>2020-12-30T11:29:52Z</time>
      </trkpt>
      <trkpt lat="43.6906" lon="3.7958">
        <ele>161</ele>
        <time>2020-12-30T11:29:55Z</time>
      </trkpt>
      <trkpt lat="43.69057" lon="3.79574">
        <ele>162</ele>
        <time>2020-12-30T11:29:58Z</time>
      </trkpt>
      <trkpt lat="43.69053" lon="3.79571">
        <ele>162</ele>
        <time>2020-12-30T11:30:00Z</time>
      </trkpt>
      <trkpt lat="43.69048" lon="3.79565">
        <ele>162</ele>
        <time>2020-12-30T11:30:03Z</time>
      </trkpt>
      <trkpt lat="43.69047" lon="3.79557">
        <ele>162</ele>
        <time>2020-12-30T11:30:06Z</time>
      </trkpt>
      <trkpt lat="43.69044" lon="3.79551">
        <ele>162</ele>
        <time>2020-12-30T11:30:09Z</time>
      </trkpt>
      <trkpt lat="43.69039" lon="3.79547">
        <ele>162</ele>
        <time>2020-12-30T11:30:12Z</time>
      </trkpt>
      <trkpt lat="43.69034" lon="3.79545">
        <ele>163</ele>
        <time>2020-12-30T11:30:15Z</time>
      </trkpt>
      <trkpt lat="43.69029" lon="3.79543">
        <ele>163</ele>
        <time>2020-12-30T11:30:19Z</time>
      </trkpt>
      <trkpt lat="43.69024" lon="3.7954">
        <ele>162</ele>
        <time>2020-12-30T11:30:22Z</time>
      </trkpt>
      <trkpt lat="43.69018" lon="3.7954">
        <ele>162</ele>
        <time>2020-12-30T11:30:26Z</time>
      </trkpt>
      <trkpt lat="43.69014" lon="3.79544">
        <ele>162</ele>
        <time>2020-12-30T11:30:29Z</time>
      </trkpt>
      <trkpt lat="43.69008" lon="3.79544">
        <ele>162</ele>
        <time>2020-12-30T11:30:34Z</time>
      </trkpt>
      <trkpt lat="43.69001" lon="3.79548">
        <ele>162</ele>
        <time>2020-12-30T11:30:36Z</time>
      </trkpt>
      <trkpt lat="43.68993" lon="3.79552">
        <ele>162</ele>
        <time>2020-12-30T11:30:38Z</time>
      </trkpt>
      <trkpt lat="43.68987" lon="3.79554">
        <ele>162</ele>
        <time>2020-12-30T11:30:40Z</time>
      </trkpt>
      <trkpt lat="43.68982" lon="3.79558">
        <ele>162</ele>
        <time>2020-12-30T11:30:42Z</time>
      </trkpt>
      <trkpt lat="43.68977" lon="3.7956">
        <ele>162</ele>
        <time>2020-12-30T11:30:44Z</time>
      </trkpt>
      <trkpt lat="43.68973" lon="3.79563">
        <ele>162</ele>
        <time>2020-12-30T11:30:46Z</time>
      </trkpt>
      <trkpt lat="43.68969" lon="3.7957">
        <ele>162</ele>
        <time>2020-12-30T11:30:49Z</time>
      </trkpt>
      <trkpt lat="43.68967" lon="3.79576">
        <ele>161</ele>
        <time>2020-12-30T11:30:51Z</time>
      </trkpt>
      <trkpt lat="43.68963" lon="3.79585">
        <ele>161</ele>
        <time>2020-12-30T11:30:53Z</time>
      </trkpt>
      <trkpt lat="43.6896" lon="3.79592">
        <ele>160</ele>
        <time>2020-12-30T11:30:54Z</time>
      </trkpt>
      <trkpt lat="43.68958" lon="3.79599">
        <ele>160</ele>
        <time>2020-12-30T11:30:55Z</time>
      </trkpt>
      <trkpt lat="43.68955" lon="3.79608">
        <ele>159</ele>
        <time>2020-12-30T11:30:56Z</time>
      </trkpt>
      <trkpt lat="43.68953" lon="3.79614">
        <ele>158</ele>
        <time>2020-12-30T11:30:57Z</time>
      </trkpt>
      <trkpt lat="43.68951" lon="3.79622">
        <ele>158</ele>
        <time>2020-12-30T11:30:59Z</time>
      </trkpt>
      <trkpt lat="43.68953" lon="3.79628">
        <ele>157</ele>
        <time>2020-12-30T11:31:03Z</time>
      </trkpt>
      <trkpt lat="43.68958" lon="3.79634">
        <ele>156</ele>
        <time>2020-12-30T11:31:06Z</time>
      </trkpt>
      <trkpt lat="43.68963" lon="3.79637">
        <ele>156</ele>
        <time>2020-12-30T11:31:07Z</time>
      </trkpt>
      <trkpt lat="43.68971" lon="3.79641">
        <ele>155</ele>
        <time>2020-12-30T11:31:09Z</time>
      </trkpt>
      <trkpt lat="43.68982" lon="3.79643">
        <ele>154</ele>
        <time>2020-12-30T11:31:11Z</time>
      </trkpt>
      <trkpt lat="43.68988" lon="3.79643">
        <ele>153</ele>
        <time>2020-12-30T11:31:12Z</time>
      </trkpt>
      <trkpt lat="43.68995" lon="3.79643">
        <ele>153</ele>
        <time>2020-12-30T11:31:13Z</time>
      </trkpt>
      <trkpt lat="43.69002" lon="3.79644">
        <ele>152</ele>
        <time>2020-12-30T11:31:14Z</time>
      </trkpt>
      <trkpt lat="43.69008" lon="3.79646">
        <ele>151</ele>
        <time>2020-12-30T11:31:15Z</time>
      </trkpt>
      <trkpt lat="43.69014" lon="3.79649">
        <ele>150</ele>
        <time>2020-12-30T11:31:16Z</time>
      </trkpt>
      <trkpt lat="43.69017" lon="3.79653">
        <ele>149</ele>
        <time>2020-12-30T11:31:17Z</time>
      </trkpt>
      <trkpt lat="43.6902" lon="3.79658">
        <ele>149</ele>
        <time>2020-12-30T11:31:18Z</time>
      </trkpt>
      <trkpt lat="43.69022" lon="3.79664">
        <ele>149</ele>
        <time>2020-12-30T11:31:19Z</time>
      </trkpt>
      <trkpt lat="43.69024" lon="3.79671">
        <ele>149</ele>
        <time>2020-12-30T11:31:20Z</time>
      </trkpt>
      <trkpt lat="43.69027" lon="3.79679">
        <ele>148</ele>
        <time>2020-12-30T11:31:21Z</time>
      </trkpt>
      <trkpt lat="43.69028" lon="3.79688">
        <ele>148</ele>
        <time>2020-12-30T11:31:22Z</time>
      </trkpt>
      <trkpt lat="43.69029" lon="3.79696">
        <ele>148</ele>
        <time>2020-12-30T11:31:23Z</time>
      </trkpt>
      <trkpt lat="43.69029" lon="3.79706">
        <ele>147</ele>
        <time>2020-12-30T11:31:24Z</time>
      </trkpt>
      <trkpt lat="43.69029" lon="3.79715">
        <ele>146</ele>
        <time>2020-12-30T11:31:25Z</time>
      </trkpt>
      <trkpt lat="43.69028" lon="3.79723">
        <ele>145</ele>
        <time>2020-12-30T11:31:26Z</time>
      </trkpt>
      <trkpt lat="43.69024" lon="3.79731">
        <ele>144</ele>
        <time>2020-12-30T11:31:28Z</time>
      </trkpt>
      <trkpt lat="43.69021" lon="3.79738">
        <ele>143</ele>
        <time>2020-12-30T11:31:31Z</time>
      </trkpt>
      <trkpt lat="43.69019" lon="3.79747">
        <ele>142</ele>
        <time>2020-12-30T11:31:33Z</time>
      </trkpt>
      <trkpt lat="43.69016" lon="3.79753">
        <ele>141</ele>
        <time>2020-12-30T11:31:34Z</time>
      </trkpt>
      <trkpt lat="43.69013" lon="3.79758">
        <ele>141</ele>
        <time>2020-12-30T11:31:35Z</time>
      </trkpt>
      <trkpt lat="43.69011" lon="3.79765">
        <ele>140</ele>
        <time>2020-12-30T11:31:36Z</time>
      </trkpt>
      <trkpt lat="43.69011" lon="3.79772">
        <ele>139</ele>
        <time>2020-12-30T11:31:37Z</time>
      </trkpt>
      <trkpt lat="43.69009" lon="3.79781">
        <ele>139</ele>
        <time>2020-12-30T11:31:38Z</time>
      </trkpt>
      <trkpt lat="43.69006" lon="3.79788">
        <ele>138</ele>
        <time>2020-12-30T11:31:39Z</time>
      </trkpt>
      <trkpt lat="43.69003" lon="3.79798">
        <ele>137</ele>
        <time>2020-12-30T11:31:40Z</time>
      </trkpt>
      <trkpt lat="43.68999" lon="3.79807">
        <ele>136</ele>
        <time>2020-12-30T11:31:41Z</time>
      </trkpt>
      <trkpt lat="43.68996" lon="3.79817">
        <ele>136</ele>
        <time>2020-12-30T11:31:42Z</time>
      </trkpt>
      <trkpt lat="43.68992" lon="3.79826">
        <ele>135</ele>
        <time>2020-12-30T11:31:43Z</time>
      </trkpt>
      <trkpt lat="43.68988" lon="3.79837">
        <ele>134</ele>
        <time>2020-12-30T11:31:44Z</time>
      </trkpt>
      <trkpt lat="43.68984" lon="3.79846">
        <ele>133</ele>
        <time>2020-12-30T11:31:45Z</time>
      </trkpt>
      <trkpt lat="43.6898" lon="3.79855">
        <ele>133</ele>
        <time>2020-12-30T11:31:46Z</time>
      </trkpt>
      <trkpt lat="43.68977" lon="3.79864">
        <ele>132</ele>
        <time>2020-12-30T11:31:47Z</time>
      </trkpt>
      <trkpt lat="43.68975" lon="3.79872">
        <ele>131</ele>
        <time>2020-12-30T11:31:48Z</time>
      </trkpt>
      <trkpt lat="43.68972" lon="3.79881">
        <ele>131</ele>
        <time>2020-12-30T11:31:49Z</time>
      </trkpt>
      <trkpt lat="43.68969" lon="3.79889">
        <ele>130</ele>
        <time>2020-12-30T11:31:50Z</time>
      </trkpt>
      <trkpt lat="43.68966" lon="3.79896">
        <ele>130</ele>
        <time>2020-12-30T11:31:51Z</time>
      </trkpt>
      <trkpt lat="43.68963" lon="3.79903">
        <ele>129</ele>
        <time>2020-12-30T11:31:52Z</time>
      </trkpt>
      <trkpt lat="43.6896" lon="3.79911">
        <ele>128</ele>
        <time>2020-12-30T11:31:53Z</time>
      </trkpt>
      <trkpt lat="43.68958" lon="3.7992">
        <ele>128</ele>
        <time>2020-12-30T11:31:54Z</time>
      </trkpt>
      <trkpt lat="43.68958" lon="3.79929">
        <ele>127</ele>
        <time>2020-12-30T11:31:55Z</time>
      </trkpt>
      <trkpt lat="43.6896" lon="3.79938">
        <ele>127</ele>
        <time>2020-12-30T11:31:56Z</time>
      </trkpt>
      <trkpt lat="43.68963" lon="3.79948">
        <ele>126</ele>
        <time>2020-12-30T11:31:57Z</time>
      </trkpt>
      <trkpt lat="43.68963" lon="3.79958">
        <ele>126</ele>
        <time>2020-12-30T11:31:58Z</time>
      </trkpt>
      <trkpt lat="43.68964" lon="3.79966">
        <ele>126</ele>
        <time>2020-12-30T11:31:59Z</time>
      </trkpt>
      <trkpt lat="43.68963" lon="3.79974">
        <ele>125</ele>
        <time>2020-12-30T11:32:00Z</time>
      </trkpt>
      <trkpt lat="43.6896" lon="3.7998">
        <ele>125</ele>
        <time>2020-12-30T11:32:01Z</time>
      </trkpt>
      <trkpt lat="43.68956" lon="3.79985">
        <ele>125</ele>
        <time>2020-12-30T11:32:02Z</time>
      </trkpt>
      <trkpt lat="43.68954" lon="3.79996">
        <ele>124</ele>
        <time>2020-12-30T11:32:04Z</time>
      </trkpt>
      <trkpt lat="43.68951" lon="3.80003">
        <ele>124</ele>
        <time>2020-12-30T11:32:05Z</time>
      </trkpt>
      <trkpt lat="43.68947" lon="3.80009">
        <ele>123</ele>
        <time>2020-12-30T11:32:06Z</time>
      </trkpt>
      <trkpt lat="43.68943" lon="3.80015">
        <ele>123</ele>
        <time>2020-12-30T11:32:07Z</time>
      </trkpt>
      <trkpt lat="43.68937" lon="3.80022">
        <ele>122</ele>
        <time>2020-12-30T11:32:08Z</time>
      </trkpt>
      <trkpt lat="43.68932" lon="3.80029">
        <ele>122</ele>
        <time>2020-12-30T11:32:09Z</time>
      </trkpt>
      <trkpt lat="43.68927" lon="3.80036">
        <ele>121</ele>
        <time>2020-12-30T11:32:10Z</time>
      </trkpt>
      <trkpt lat="43.68922" lon="3.80041">
        <ele>121</ele>
        <time>2020-12-30T11:32:11Z</time>
      </trkpt>
      <trkpt lat="43.68918" lon="3.80047">
        <ele>121</ele>
        <time>2020-12-30T11:32:12Z</time>
      </trkpt>
      <trkpt lat="43.68914" lon="3.80052">
        <ele>120</ele>
        <time>2020-12-30T11:32:13Z</time>
      </trkpt>
      <trkpt lat="43.6891" lon="3.80057">
        <ele>120</ele>
        <time>2020-12-30T11:32:14Z</time>
      </trkpt>
      <trkpt lat="43.68906" lon="3.80063">
        <ele>119</ele>
        <time>2020-12-30T11:32:15Z</time>
      </trkpt>
      <trkpt lat="43.68902" lon="3.80068">
        <ele>119</ele>
        <time>2020-12-30T11:32:16Z</time>
      </trkpt>
      <trkpt lat="43.68898" lon="3.80073">
        <ele>119</ele>
        <time>2020-12-30T11:32:17Z</time>
      </trkpt>
      <trkpt lat="43.68895" lon="3.80078">
        <ele>119</ele>
        <time>2020-12-30T11:32:18Z</time>
      </trkpt>
      <trkpt lat="43.68892" lon="3.80084">
        <ele>119</ele>
        <time>2020-12-30T11:32:19Z</time>
      </trkpt>
      <trkpt lat="43.6889" lon="3.8009">
        <ele>118</ele>
        <time>2020-12-30T11:32:20Z</time>
      </trkpt>
      <trkpt lat="43.68888" lon="3.80101">
        <ele>118</ele>
        <time>2020-12-30T11:32:22Z</time>
      </trkpt>
      <trkpt lat="43.68887" lon="3.80107">
        <ele>118</ele>
        <time>2020-12-30T11:32:23Z</time>
      </trkpt>
      <trkpt lat="43.68886" lon="3.80115">
        <ele>118</ele>
        <time>2020-12-30T11:32:24Z</time>
      </trkpt>
      <trkpt lat="43.68884" lon="3.80125">
        <ele>118</ele>
        <time>2020-12-30T11:32:26Z</time>
      </trkpt>
      <trkpt lat="43.68883" lon="3.80132">
        <ele>117</ele>
        <time>2020-12-30T11:32:27Z</time>
      </trkpt>
      <trkpt lat="43.68881" lon="3.80142">
        <ele>117</ele>
        <time>2020-12-30T11:32:29Z</time>
      </trkpt>
      <trkpt lat="43.68879" lon="3.80151">
        <ele>117</ele>
        <time>2020-12-30T11:32:31Z</time>
      </trkpt>
      <trkpt lat="43.68879" lon="3.80161">
        <ele>116</ele>
        <time>2020-12-30T11:32:33Z</time>
      </trkpt>
      <trkpt lat="43.68877" lon="3.8017">
        <ele>116</ele>
        <time>2020-12-30T11:32:35Z</time>
      </trkpt>
      <trkpt lat="43.68875" lon="3.80181">
        <ele>116</ele>
        <time>2020-12-30T11:32:37Z</time>
      </trkpt>
      <trkpt lat="43.68873" lon="3.80192">
        <ele>116</ele>
        <time>2020-12-30T11:32:39Z</time>
      </trkpt>
      <trkpt lat="43.68871" lon="3.80201">
        <ele>116</ele>
        <time>2020-12-30T11:32:41Z</time>
      </trkpt>
      <trkpt lat="43.68869" lon="3.80209">
        <ele>115</ele>
        <time>2020-12-30T11:32:47Z</time>
      </trkpt>
      <trkpt lat="43.6887" lon="3.80218">
        <ele>115</ele>
        <time>2020-12-30T11:32:50Z</time>
      </trkpt>
      <trkpt lat="43.68874" lon="3.80223">
        <ele>115</ele>
        <time>2020-12-30T11:32:52Z</time>
      </trkpt>
      <trkpt lat="43.68876" lon="3.80227">
        <ele>115</ele>
        <time>2020-12-30T11:33:12Z</time>
      </trkpt>
      <trkpt lat="43.68876" lon="3.80227">
        <ele>116</ele>
        <time>2020-12-30T11:33:14Z</time>
      </trkpt>
      <trkpt lat="43.68877" lon="3.80235">
        <ele>117</ele>
        <time>2020-12-30T11:33:55Z</time>
      </trkpt>
      <trkpt lat="43.68879" lon="3.80242">
        <ele>117</ele>
        <time>2020-12-30T11:33:57Z</time>
      </trkpt>
      <trkpt lat="43.68881" lon="3.80251">
        <ele>117</ele>
        <time>2020-12-30T11:33:59Z</time>
      </trkpt>
      <trkpt lat="43.68885" lon="3.80258">
        <ele>117</ele>
        <time>2020-12-30T11:34:01Z</time>
      </trkpt>
      <trkpt lat="43.6889" lon="3.80264">
        <ele>117</ele>
        <time>2020-12-30T11:34:03Z</time>
      </trkpt>
      <trkpt lat="43.68895" lon="3.80268">
        <ele>116</ele>
        <time>2020-12-30T11:34:05Z</time>
      </trkpt>
      <trkpt lat="43.68899" lon="3.80273">
        <ele>116</ele>
        <time>2020-12-30T11:34:07Z</time>
      </trkpt>
      <trkpt lat="43.68903" lon="3.8028">
        <ele>116</ele>
        <time>2020-12-30T11:34:09Z</time>
      </trkpt>
      <trkpt lat="43.68909" lon="3.80291">
        <ele>115</ele>
        <time>2020-12-30T11:34:11Z</time>
      </trkpt>
      <trkpt lat="43.68911" lon="3.80305">
        <ele>114</ele>
        <time>2020-12-30T11:34:13Z</time>
      </trkpt>
      <trkpt lat="43.6891" lon="3.80313">
        <ele>114</ele>
        <time>2020-12-30T11:34:14Z</time>
      </trkpt>
      <trkpt lat="43.68908" lon="3.80322">
        <ele>113</ele>
        <time>2020-12-30T11:34:15Z</time>
      </trkpt>
      <trkpt lat="43.68904" lon="3.8033">
        <ele>113</ele>
        <time>2020-12-30T11:34:16Z</time>
      </trkpt>
      <trkpt lat="43.68899" lon="3.80337">
        <ele>112</ele>
        <time>2020-12-30T11:34:17Z</time>
      </trkpt>
      <trkpt lat="43.68894" lon="3.80344">
        <ele>111</ele>
        <time>2020-12-30T11:34:18Z</time>
      </trkpt>
      <trkpt lat="43.68889" lon="3.80351">
        <ele>111</ele>
        <time>2020-12-30T11:34:19Z</time>
      </trkpt>
      <trkpt lat="43.68882" lon="3.8036">
        <ele>111</ele>
        <time>2020-12-30T11:34:20Z</time>
      </trkpt>
      <trkpt lat="43.68876" lon="3.80368">
        <ele>110</ele>
        <time>2020-12-30T11:34:21Z</time>
      </trkpt>
      <trkpt lat="43.6887" lon="3.80377">
        <ele>110</ele>
        <time>2020-12-30T11:34:22Z</time>
      </trkpt>
      <trkpt lat="43.68863" lon="3.80386">
        <ele>110</ele>
        <time>2020-12-30T11:34:23Z</time>
      </trkpt>
      <trkpt lat="43.68857" lon="3.80395">
        <ele>110</ele>
        <time>2020-12-30T11:34:24Z</time>
      </trkpt>
      <trkpt lat="43.6885" lon="3.80404">
        <ele>110</ele>
        <time>2020-12-30T11:34:25Z</time>
      </trkpt>
      <trkpt lat="43.68842" lon="3.80412">
        <ele>110</ele>
        <time>2020-12-30T11:34:26Z</time>
      </trkpt>
      <trkpt lat="43.68835" lon="3.80422">
        <ele>109</ele>
        <time>2020-12-30T11:34:27Z</time>
      </trkpt>
      <trkpt lat="43.68829" lon="3.80433">
        <ele>108</ele>
        <time>2020-12-30T11:34:28Z</time>
      </trkpt>
      <trkpt lat="43.68826" lon="3.80445">
        <ele>108</ele>
        <time>2020-12-30T11:34:29Z</time>
      </trkpt>
      <trkpt lat="43.68824" lon="3.80459">
        <ele>107</ele>
        <time>2020-12-30T11:34:30Z</time>
      </trkpt>
      <trkpt lat="43.68823" lon="3.8047">
        <ele>106</ele>
        <time>2020-12-30T11:34:31Z</time>
      </trkpt>
      <trkpt lat="43.68822" lon="3.80483">
        <ele>106</ele>
        <time>2020-12-30T11:34:32Z</time>
      </trkpt>
      <trkpt lat="43.68821" lon="3.80497">
        <ele>106</ele>
        <time>2020-12-30T11:34:33Z</time>
      </trkpt>
      <trkpt lat="43.68821" lon="3.80509">
        <ele>105</ele>
        <time>2020-12-30T11:34:34Z</time>
      </trkpt>
      <trkpt lat="43.6882" lon="3.8052">
        <ele>105</ele>
        <time>2020-12-30T11:34:35Z</time>
      </trkpt>
      <trkpt lat="43.6882" lon="3.80528">
        <ele>105</ele>
        <time>2020-12-30T11:34:36Z</time>
      </trkpt>
      <trkpt lat="43.6882" lon="3.8054">
        <ele>105</ele>
        <time>2020-12-30T11:34:38Z</time>
      </trkpt>
      <trkpt lat="43.6882" lon="3.80551">
        <ele>105</ele>
        <time>2020-12-30T11:34:40Z</time>
      </trkpt>
      <trkpt lat="43.68819" lon="3.80559">
        <ele>104</ele>
        <time>2020-12-30T11:34:42Z</time>
      </trkpt>
      <trkpt lat="43.68821" lon="3.80569">
        <ele>104</ele>
        <time>2020-12-30T11:34:44Z</time>
      </trkpt>
      <trkpt lat="43.68823" lon="3.8058">
        <ele>104</ele>
        <time>2020-12-30T11:34:46Z</time>
      </trkpt>
      <trkpt lat="43.68824" lon="3.80586">
        <ele>103</ele>
        <time>2020-12-30T11:34:47Z</time>
      </trkpt>
      <trkpt lat="43.68825" lon="3.80592">
        <ele>103</ele>
        <time>2020-12-30T11:34:48Z</time>
      </trkpt>
      <trkpt lat="43.68826" lon="3.80599">
        <ele>102</ele>
        <time>2020-12-30T11:34:49Z</time>
      </trkpt>
      <trkpt lat="43.68825" lon="3.80605">
        <ele>102</ele>
        <time>2020-12-30T11:34:50Z</time>
      </trkpt>
      <trkpt lat="43.68825" lon="3.80614">
        <ele>101</ele>
        <time>2020-12-30T11:34:52Z</time>
      </trkpt>
      <trkpt lat="43.68826" lon="3.80625">
        <ele>100</ele>
        <time>2020-12-30T11:34:54Z</time>
      </trkpt>
      <trkpt lat="43.68827" lon="3.80635">
        <ele>99</ele>
        <time>2020-12-30T11:34:56Z</time>
      </trkpt>
      <trkpt lat="43.68827" lon="3.80643">
        <ele>99</ele>
        <time>2020-12-30T11:34:59Z</time>
      </trkpt>
      <trkpt lat="43.68828" lon="3.8065">
        <ele>98</ele>
        <time>2020-12-30T11:35:01Z</time>
      </trkpt>
      <trkpt lat="43.68829" lon="3.80659">
        <ele>98</ele>
        <time>2020-12-30T11:35:03Z</time>
      </trkpt>
      <trkpt lat="43.68829" lon="3.80671">
        <ele>98</ele>
        <time>2020-12-30T11:35:04Z</time>
      </trkpt>
      <trkpt lat="43.68829" lon="3.80681">
        <ele>99</ele>
        <time>2020-12-30T11:35:05Z</time>
      </trkpt>
      <trkpt lat="43.68824" lon="3.8069">
        <ele>100</ele>
        <time>2020-12-30T11:35:07Z</time>
      </trkpt>
      <trkpt lat="43.68816" lon="3.80694">
        <ele>101</ele>
        <time>2020-12-30T11:35:09Z</time>
      </trkpt>
      <trkpt lat="43.68811" lon="3.80695">
        <ele>102</ele>
        <time>2020-12-30T11:35:10Z</time>
      </trkpt>
      <trkpt lat="43.68803" lon="3.807">
        <ele>102</ele>
        <time>2020-12-30T11:35:12Z</time>
      </trkpt>
      <trkpt lat="43.68798" lon="3.80702">
        <ele>103</ele>
        <time>2020-12-30T11:35:13Z</time>
      </trkpt>
      <trkpt lat="43.68794" lon="3.80705">
        <ele>103</ele>
        <time>2020-12-30T11:35:14Z</time>
      </trkpt>
      <trkpt lat="43.68789" lon="3.80708">
        <ele>102</ele>
        <time>2020-12-30T11:35:15Z</time>
      </trkpt>
      <trkpt lat="43.68785" lon="3.80711">
        <ele>102</ele>
        <time>2020-12-30T11:35:16Z</time>
      </trkpt>
      <trkpt lat="43.6878" lon="3.80713">
        <ele>102</ele>
        <time>2020-12-30T11:35:17Z</time>
      </trkpt>
      <trkpt lat="43.68775" lon="3.80717">
        <ele>102</ele>
        <time>2020-12-30T11:35:18Z</time>
      </trkpt>
      <trkpt lat="43.68771" lon="3.80721">
        <ele>102</ele>
        <time>2020-12-30T11:35:19Z</time>
      </trkpt>
      <trkpt lat="43.68766" lon="3.80725">
        <ele>102</ele>
        <time>2020-12-30T11:35:20Z</time>
      </trkpt>
      <trkpt lat="43.68762" lon="3.80728">
        <ele>102</ele>
        <time>2020-12-30T11:35:21Z</time>
      </trkpt>
      <trkpt lat="43.68757" lon="3.80731">
        <ele>102</ele>
        <time>2020-12-30T11:35:22Z</time>
      </trkpt>
      <trkpt lat="43.68752" lon="3.80734">
        <ele>101</ele>
        <time>2020-12-30T11:35:23Z</time>
      </trkpt>
      <trkpt lat="43.68747" lon="3.80738">
        <ele>101</ele>
        <time>2020-12-30T11:35:24Z</time>
      </trkpt>
      <trkpt lat="43.68744" lon="3.80742">
        <ele>101</ele>
        <time>2020-12-30T11:35:25Z</time>
      </trkpt>
      <trkpt lat="43.68744" lon="3.80753">
        <ele>100</ele>
        <time>2020-12-30T11:35:27Z</time>
      </trkpt>
      <trkpt lat="43.6875" lon="3.80762">
        <ele>100</ele>
        <time>2020-12-30T11:35:29Z</time>
      </trkpt>
      <trkpt lat="43.68755" lon="3.80769">
        <ele>100</ele>
        <time>2020-12-30T11:35:31Z</time>
      </trkpt>
      <trkpt lat="43.68758" lon="3.80777">
        <ele>100</ele>
        <time>2020-12-30T11:35:33Z</time>
      </trkpt>
      <trkpt lat="43.68761" lon="3.80785">
        <ele>100</ele>
        <time>2020-12-30T11:35:35Z</time>
      </trkpt>
      <trkpt lat="43.68762" lon="3.80793">
        <ele>101</ele>
        <time>2020-12-30T11:35:37Z</time>
      </trkpt>
      <trkpt lat="43.68762" lon="3.808">
        <ele>102</ele>
        <time>2020-12-30T11:35:39Z</time>
      </trkpt>
      <trkpt lat="43.68762" lon="3.80806">
        <ele>103</ele>
        <time>2020-12-30T11:35:41Z</time>
      </trkpt>
      <trkpt lat="43.68764" lon="3.80813">
        <ele>104</ele>
        <time>2020-12-30T11:35:44Z</time>
      </trkpt>
      <trkpt lat="43.68766" lon="3.80818">
        <ele>105</ele>
        <time>2020-12-30T11:35:56Z</time>
      </trkpt>
      <trkpt lat="43.68769" lon="3.80815">
        <ele>104</ele>
        <time>2020-12-30T11:36:12Z</time>
      </trkpt>
      <trkpt lat="43.68769" lon="3.80815">
        <ele>103</ele>
        <time>2020-12-30T11:36:14Z</time>
      </trkpt>
      <trkpt lat="43.68769" lon="3.80815">
        <ele>103</ele>
        <time>2020-12-30T11:36:42Z</time>
      </trkpt>
      <trkpt lat="43.68787" lon="3.80821">
        <ele>103</ele>
        <time>2020-12-30T11:38:18Z</time>
      </trkpt>
      <trkpt lat="43.68795" lon="3.80822">
        <ele>104</ele>
        <time>2020-12-30T11:38:20Z</time>
      </trkpt>
      <trkpt lat="43.68799" lon="3.80819">
        <ele>105</ele>
        <time>2020-12-30T11:38:21Z</time>
      </trkpt>
      <trkpt lat="43.68804" lon="3.80815">
        <ele>106</ele>
        <time>2020-12-30T11:38:22Z</time>
      </trkpt>
      <trkpt lat="43.68812" lon="3.80811">
        <ele>106</ele>
        <time>2020-12-30T11:38:24Z</time>
      </trkpt>
      <trkpt lat="43.6882" lon="3.80809">
        <ele>106</ele>
        <time>2020-12-30T11:38:26Z</time>
      </trkpt>
      <trkpt lat="43.68829" lon="3.80806">
        <ele>107</ele>
        <time>2020-12-30T11:38:28Z</time>
      </trkpt>
      <trkpt lat="43.68837" lon="3.80803">
        <ele>107</ele>
        <time>2020-12-30T11:38:30Z</time>
      </trkpt>
      <trkpt lat="43.68845" lon="3.80801">
        <ele>107</ele>
        <time>2020-12-30T11:38:32Z</time>
      </trkpt>
      <trkpt lat="43.68852" lon="3.80798">
        <ele>107</ele>
        <time>2020-12-30T11:38:34Z</time>
      </trkpt>
      <trkpt lat="43.6886" lon="3.80796">
        <ele>108</ele>
        <time>2020-12-30T11:38:36Z</time>
      </trkpt>
      <trkpt lat="43.68867" lon="3.80795">
        <ele>108</ele>
        <time>2020-12-30T11:38:38Z</time>
      </trkpt>
      <trkpt lat="43.68873" lon="3.80792">
        <ele>109</ele>
        <time>2020-12-30T11:38:40Z</time>
      </trkpt>
      <trkpt lat="43.68879" lon="3.80789">
        <ele>109</ele>
        <time>2020-12-30T11:38:42Z</time>
      </trkpt>
      <trkpt lat="43.68887" lon="3.80785">
        <ele>109</ele>
        <time>2020-12-30T11:38:46Z</time>
      </trkpt>
      <trkpt lat="43.68892" lon="3.80784">
        <ele>110</ele>
        <time>2020-12-30T11:38:47Z</time>
      </trkpt>
      <trkpt lat="43.68898" lon="3.80784">
        <ele>109</ele>
        <time>2020-12-30T11:38:49Z</time>
      </trkpt>
      <trkpt lat="43.68905" lon="3.80782">
        <ele>109</ele>
        <time>2020-12-30T11:38:51Z</time>
      </trkpt>
      <trkpt lat="43.68911" lon="3.80781">
        <ele>109</ele>
        <time>2020-12-30T11:38:53Z</time>
      </trkpt>
      <trkpt lat="43.68917" lon="3.80778">
        <ele>109</ele>
        <time>2020-12-30T11:38:55Z</time>
      </trkpt>
      <trkpt lat="43.68922" lon="3.80777">
        <ele>110</ele>
        <time>2020-12-30T11:38:57Z</time>
      </trkpt>
      <trkpt lat="43.68928" lon="3.80774">
        <ele>110</ele>
        <time>2020-12-30T11:38:59Z</time>
      </trkpt>
      <trkpt lat="43.68934" lon="3.80771">
        <ele>110</ele>
        <time>2020-12-30T11:39:01Z</time>
      </trkpt>
      <trkpt lat="43.68941" lon="3.80769">
        <ele>111</ele>
        <time>2020-12-30T11:39:03Z</time>
      </trkpt>
      <trkpt lat="43.68947" lon="3.80767">
        <ele>111</ele>
        <time>2020-12-30T11:39:05Z</time>
      </trkpt>
      <trkpt lat="43.68953" lon="3.80764">
        <ele>111</ele>
        <time>2020-12-30T11:39:07Z</time>
      </trkpt>
      <trkpt lat="43.68959" lon="3.80761">
        <ele>111</ele>
        <time>2020-12-30T11:39:09Z</time>
      </trkpt>
      <trkpt lat="43.68965" lon="3.80757">
        <ele>111</ele>
        <time>2020-12-30T11:39:12Z</time>
      </trkpt>
      <trkpt lat="43.68972" lon="3.80755">
        <ele>111</ele>
        <time>2020-12-30T11:39:14Z</time>
      </trkpt>
      <trkpt lat="43.68978" lon="3.80753">
        <ele>111</ele>
        <time>2020-12-30T11:39:16Z</time>
      </trkpt>
      <trkpt lat="43.68986" lon="3.80751">
        <ele>110</ele>
        <time>2020-12-30T11:39:18Z</time>
      </trkpt>
      <trkpt lat="43.68994" lon="3.80749">
        <ele>110</ele>
        <time>2020-12-30T11:39:20Z</time>
      </trkpt>
      <trkpt lat="43.69001" lon="3.80747">
        <ele>110</ele>
        <time>2020-12-30T11:39:22Z</time>
      </trkpt>
      <trkpt lat="43.69008" lon="3.80745">
        <ele>109</ele>
        <time>2020-12-30T11:39:24Z</time>
      </trkpt>
      <trkpt lat="43.69014" lon="3.80744">
        <ele>109</ele>
        <time>2020-12-30T11:39:26Z</time>
      </trkpt>
      <trkpt lat="43.69019" lon="3.80742">
        <ele>109</ele>
        <time>2020-12-30T11:39:28Z</time>
      </trkpt>
      <trkpt lat="43.69025" lon="3.8074">
        <ele>109</ele>
        <time>2020-12-30T11:39:30Z</time>
      </trkpt>
      <trkpt lat="43.69031" lon="3.80738">
        <ele>110</ele>
        <time>2020-12-30T11:39:33Z</time>
      </trkpt>
      <trkpt lat="43.69036" lon="3.80736">
        <ele>109</ele>
        <time>2020-12-30T11:39:36Z</time>
      </trkpt>
      <trkpt lat="43.6904" lon="3.80738">
        <ele>108</ele>
        <time>2020-12-30T11:39:38Z</time>
      </trkpt>
      <trkpt lat="43.69045" lon="3.80742">
        <ele>107</ele>
        <time>2020-12-30T11:39:40Z</time>
      </trkpt>
      <trkpt lat="43.6905" lon="3.80746">
        <ele>107</ele>
        <time>2020-12-30T11:39:42Z</time>
      </trkpt>
      <trkpt lat="43.69055" lon="3.80748">
        <ele>106</ele>
        <time>2020-12-30T11:39:44Z</time>
      </trkpt>
      <trkpt lat="43.69062" lon="3.80745">
        <ele>106</ele>
        <time>2020-12-30T11:39:46Z</time>
      </trkpt>
      <trkpt lat="43.69069" lon="3.80735">
        <ele>106</ele>
        <time>2020-12-30T11:39:48Z</time>
      </trkpt>
      <trkpt lat="43.69077" lon="3.8073">
        <ele>106</ele>
        <time>2020-12-30T11:39:50Z</time>
      </trkpt>
      <trkpt lat="43.69082" lon="3.8073">
        <ele>107</ele>
        <time>2020-12-30T11:39:51Z</time>
      </trkpt>
      <trkpt lat="43.6909" lon="3.80733">
        <ele>107</ele>
        <time>2020-12-30T11:39:53Z</time>
      </trkpt>
      <trkpt lat="43.69096" lon="3.80735">
        <ele>107</ele>
        <time>2020-12-30T11:39:55Z</time>
      </trkpt>
      <trkpt lat="43.69103" lon="3.80734">
        <ele>107</ele>
        <time>2020-12-30T11:39:57Z</time>
      </trkpt>
      <trkpt lat="43.69108" lon="3.80734">
        <ele>107</ele>
        <time>2020-12-30T11:39:58Z</time>
      </trkpt>
      <trkpt lat="43.69116" lon="3.80734">
        <ele>107</ele>
        <time>2020-12-30T11:40:00Z</time>
      </trkpt>
      <trkpt lat="43.69124" lon="3.80735">
        <ele>108</ele>
        <time>2020-12-30T11:40:02Z</time>
      </trkpt>
      <trkpt lat="43.69129" lon="3.80735">
        <ele>108</ele>
        <time>2020-12-30T11:40:03Z</time>
      </trkpt>
      <trkpt lat="43.69135" lon="3.80735">
        <ele>108</ele>
        <time>2020-12-30T11:40:05Z</time>
      </trkpt>
      <trkpt lat="43.69142" lon="3.80734">
        <ele>109</ele>
        <time>2020-12-30T11:40:07Z</time>
      </trkpt>
      <trkpt lat="43.69147" lon="3.80735">
        <ele>109</ele>
        <time>2020-12-30T11:40:09Z</time>
      </trkpt>
      <trkpt lat="43.69149" lon="3.80741">
        <ele>109</ele>
        <time>2020-12-30T11:40:10Z</time>
      </trkpt>
      <trkpt lat="43.69151" lon="3.80749">
        <ele>110</ele>
        <time>2020-12-30T11:40:12Z</time>
      </trkpt>
      <trkpt lat="43.69148" lon="3.80761">
        <ele>110</ele>
        <time>2020-12-30T11:40:15Z</time>
      </trkpt>
      <trkpt lat="43.69145" lon="3.80771">
        <ele>111</ele>
        <time>2020-12-30T11:40:16Z</time>
      </trkpt>
      <trkpt lat="43.69142" lon="3.80781">
        <ele>111</ele>
        <time>2020-12-30T11:40:18Z</time>
      </trkpt>
      <trkpt lat="43.69139" lon="3.80789">
        <ele>112</ele>
        <time>2020-12-30T11:40:20Z</time>
      </trkpt>
      <trkpt lat="43.69135" lon="3.80797">
        <ele>113</ele>
        <time>2020-12-30T11:40:22Z</time>
      </trkpt>
      <trkpt lat="43.69131" lon="3.80807">
        <ele>113</ele>
        <time>2020-12-30T11:40:24Z</time>
      </trkpt>
      <trkpt lat="43.69126" lon="3.80817">
        <ele>114</ele>
        <time>2020-12-30T11:40:26Z</time>
      </trkpt>
      <trkpt lat="43.69123" lon="3.80822">
        <ele>114</ele>
        <time>2020-12-30T11:40:27Z</time>
      </trkpt>
      <trkpt lat="43.69118" lon="3.80832">
        <ele>115</ele>
        <time>2020-12-30T11:40:29Z</time>
      </trkpt>
      <trkpt lat="43.69114" lon="3.80842">
        <ele>116</ele>
        <time>2020-12-30T11:40:31Z</time>
      </trkpt>
      <trkpt lat="43.6911" lon="3.80852">
        <ele>116</ele>
        <time>2020-12-30T11:40:33Z</time>
      </trkpt>
      <trkpt lat="43.69106" lon="3.80863">
        <ele>116</ele>
        <time>2020-12-30T11:40:35Z</time>
      </trkpt>
      <trkpt lat="43.69103" lon="3.80875">
        <ele>116</ele>
        <time>2020-12-30T11:40:37Z</time>
      </trkpt>
      <trkpt lat="43.69102" lon="3.80882">
        <ele>116</ele>
        <time>2020-12-30T11:40:38Z</time>
      </trkpt>
      <trkpt lat="43.69101" lon="3.80888">
        <ele>116</ele>
        <time>2020-12-30T11:40:39Z</time>
      </trkpt>
      <trkpt lat="43.691" lon="3.80895">
        <ele>116</ele>
        <time>2020-12-30T11:40:40Z</time>
      </trkpt>
      <trkpt lat="43.69101" lon="3.80901">
        <ele>115</ele>
        <time>2020-12-30T11:40:41Z</time>
      </trkpt>
      <trkpt lat="43.69104" lon="3.80906">
        <ele>115</ele>
        <time>2020-12-30T11:40:42Z</time>
      </trkpt>
      <trkpt lat="43.69109" lon="3.80911">
        <ele>115</ele>
        <time>2020-12-30T11:40:43Z</time>
      </trkpt>
      <trkpt lat="43.69114" lon="3.80914">
        <ele>115</ele>
        <time>2020-12-30T11:40:44Z</time>
      </trkpt>
      <trkpt lat="43.69119" lon="3.80916">
        <ele>115</ele>
        <time>2020-12-30T11:40:45Z</time>
      </trkpt>
      <trkpt lat="43.69124" lon="3.80918">
        <ele>114</ele>
        <time>2020-12-30T11:40:46Z</time>
      </trkpt>
      <trkpt lat="43.69129" lon="3.80919">
        <ele>114</ele>
        <time>2020-12-30T11:40:47Z</time>
      </trkpt>
      <trkpt lat="43.69134" lon="3.80921">
        <ele>114</ele>
        <time>2020-12-30T11:40:48Z</time>
      </trkpt>
      <trkpt lat="43.69139" lon="3.80923">
        <ele>113</ele>
        <time>2020-12-30T11:40:49Z</time>
      </trkpt>
      <trkpt lat="43.69142" lon="3.80928">
        <ele>113</ele>
        <time>2020-12-30T11:40:50Z</time>
      </trkpt>
      <trkpt lat="43.69143" lon="3.8094">
        <ele>113</ele>
        <time>2020-12-30T11:40:52Z</time>
      </trkpt>
      <trkpt lat="43.69142" lon="3.80947">
        <ele>113</ele>
        <time>2020-12-30T11:40:53Z</time>
      </trkpt>
      <trkpt lat="43.6914" lon="3.80954">
        <ele>113</ele>
        <time>2020-12-30T11:40:54Z</time>
      </trkpt>
      <trkpt lat="43.69139" lon="3.80962">
        <ele>113</ele>
        <time>2020-12-30T11:40:55Z</time>
      </trkpt>
      <trkpt lat="43.69138" lon="3.80971">
        <ele>113</ele>
        <time>2020-12-30T11:40:56Z</time>
      </trkpt>
      <trkpt lat="43.69138" lon="3.8098">
        <ele>112</ele>
        <time>2020-12-30T11:40:57Z</time>
      </trkpt>
      <trkpt lat="43.69137" lon="3.8099">
        <ele>112</ele>
        <time>2020-12-30T11:40:58Z</time>
      </trkpt>
      <trkpt lat="43.69136" lon="3.81">
        <ele>112</ele>
        <time>2020-12-30T11:40:59Z</time>
      </trkpt>
      <trkpt lat="43.69136" lon="3.81011">
        <ele>111</ele>
        <time>2020-12-30T11:41:00Z</time>
      </trkpt>
      <trkpt lat="43.69136" lon="3.81022">
        <ele>111</ele>
        <time>2020-12-30T11:41:01Z</time>
      </trkpt>
      <trkpt lat="43.69136" lon="3.81031">
        <ele>110</ele>
        <time>2020-12-30T11:41:02Z</time>
      </trkpt>
      <trkpt lat="43.69136" lon="3.81039">
        <ele>110</ele>
        <time>2020-12-30T11:41:03Z</time>
      </trkpt>
      <trkpt lat="43.69133" lon="3.81045">
        <ele>109</ele>
        <time>2020-12-30T11:41:04Z</time>
      </trkpt>
      <trkpt lat="43.69133" lon="3.81051">
        <ele>109</ele>
        <time>2020-12-30T11:41:05Z</time>
      </trkpt>
      <trkpt lat="43.69134" lon="3.81057">
        <ele>108</ele>
        <time>2020-12-30T11:41:06Z</time>
      </trkpt>
      <trkpt lat="43.69135" lon="3.81068">
        <ele>108</ele>
        <time>2020-12-30T11:41:08Z</time>
      </trkpt>
      <trkpt lat="43.69135" lon="3.81076">
        <ele>108</ele>
        <time>2020-12-30T11:41:09Z</time>
      </trkpt>
      <trkpt lat="43.69135" lon="3.81082">
        <ele>107</ele>
        <time>2020-12-30T11:41:10Z</time>
      </trkpt>
      <trkpt lat="43.69135" lon="3.81089">
        <ele>107</ele>
        <time>2020-12-30T11:41:11Z</time>
      </trkpt>
      <trkpt lat="43.69134" lon="3.81097">
        <ele>107</ele>
        <time>2020-12-30T11:41:12Z</time>
      </trkpt>
      <trkpt lat="43.69134" lon="3.81104">
        <ele>107</ele>
        <time>2020-12-30T11:41:13Z</time>
      </trkpt>
      <trkpt lat="43.69134" lon="3.81112">
        <ele>107</ele>
        <time>2020-12-30T11:41:14Z</time>
      </trkpt>
      <trkpt lat="43.69133" lon="3.8112">
        <ele>107</ele>
        <time>2020-12-30T11:41:15Z</time>
      </trkpt>
      <trkpt lat="43.69133" lon="3.81127">
        <ele>107</ele>
        <time>2020-12-30T11:41:16Z</time>
      </trkpt>
      <trkpt lat="43.69133" lon="3.81134">
        <ele>107</ele>
        <time>2020-12-30T11:41:17Z</time>
      </trkpt>
      <trkpt lat="43.69132" lon="3.81142">
        <ele>107</ele>
        <time>2020-12-30T11:41:18Z</time>
      </trkpt>
      <trkpt lat="43.69131" lon="3.8115">
        <ele>107</ele>
        <time>2020-12-30T11:41:19Z</time>
      </trkpt>
      <trkpt lat="43.6913" lon="3.81157">
        <ele>107</ele>
        <time>2020-12-30T11:41:20Z</time>
      </trkpt>
      <trkpt lat="43.69128" lon="3.81164">
        <ele>107</ele>
        <time>2020-12-30T11:41:21Z</time>
      </trkpt>
      <trkpt lat="43.69126" lon="3.8117">
        <ele>107</ele>
        <time>2020-12-30T11:41:22Z</time>
      </trkpt>
      <trkpt lat="43.69122" lon="3.81176">
        <ele>107</ele>
        <time>2020-12-30T11:41:23Z</time>
      </trkpt>
      <trkpt lat="43.69119" lon="3.81181">
        <ele>107</ele>
        <time>2020-12-30T11:41:24Z</time>
      </trkpt>
      <trkpt lat="43.69115" lon="3.81186">
        <ele>108</ele>
        <time>2020-12-30T11:41:25Z</time>
      </trkpt>
      <trkpt lat="43.69108" lon="3.81192">
        <ele>108</ele>
        <time>2020-12-30T11:41:27Z</time>
      </trkpt>
      <trkpt lat="43.69104" lon="3.81196">
        <ele>108</ele>
        <time>2020-12-30T11:41:28Z</time>
      </trkpt>
      <trkpt lat="43.691" lon="3.81199">
        <ele>109</ele>
        <time>2020-12-30T11:41:29Z</time>
      </trkpt>
      <trkpt lat="43.69093" lon="3.81205">
        <ele>105</ele>
        <time>2020-12-30T11:41:31Z</time>
      </trkpt>
      <trkpt lat="43.69087" lon="3.8121">
        <ele>104</ele>
        <time>2020-12-30T11:41:33Z</time>
      </trkpt>
      <trkpt lat="43.69082" lon="3.81211">
        <ele>103</ele>
        <time>2020-12-30T11:41:34Z</time>
      </trkpt>
      <trkpt lat="43.69074" lon="3.81215">
        <ele>103</ele>
        <time>2020-12-30T11:41:36Z</time>
      </trkpt>
      <trkpt lat="43.6907" lon="3.81215">
        <ele>103</ele>
        <time>2020-12-30T11:41:37Z</time>
      </trkpt>
      <trkpt lat="43.69062" lon="3.81213">
        <ele>108</ele>
        <time>2020-12-30T11:41:39Z</time>
      </trkpt>
      <trkpt lat="43.69057" lon="3.81207">
        <ele>110</ele>
        <time>2020-12-30T11:41:41Z</time>
      </trkpt>
      <trkpt lat="43.69053" lon="3.81199">
        <ele>111</ele>
        <time>2020-12-30T11:41:43Z</time>
      </trkpt>
      <trkpt lat="43.69048" lon="3.81192">
        <ele>111</ele>
        <time>2020-12-30T11:41:45Z</time>
      </trkpt>
      <trkpt lat="43.69044" lon="3.81186">
        <ele>112</ele>
        <time>2020-12-30T11:41:47Z</time>
      </trkpt>
      <trkpt lat="43.69038" lon="3.81182">
        <ele>112</ele>
        <time>2020-12-30T11:41:49Z</time>
      </trkpt>
      <trkpt lat="43.69032" lon="3.8118">
        <ele>112</ele>
        <time>2020-12-30T11:41:51Z</time>
      </trkpt>
      <trkpt lat="43.69026" lon="3.81181">
        <ele>113</ele>
        <time>2020-12-30T11:41:53Z</time>
      </trkpt>
      <trkpt lat="43.6902" lon="3.81186">
        <ele>114</ele>
        <time>2020-12-30T11:41:55Z</time>
      </trkpt>
      <trkpt lat="43.69015" lon="3.81192">
        <ele>114</ele>
        <time>2020-12-30T11:41:57Z</time>
      </trkpt>
      <trkpt lat="43.69012" lon="3.812">
        <ele>114</ele>
        <time>2020-12-30T11:41:59Z</time>
      </trkpt>
      <trkpt lat="43.69012" lon="3.81208">
        <ele>115</ele>
        <time>2020-12-30T11:42:01Z</time>
      </trkpt>
      <trkpt lat="43.69013" lon="3.81216">
        <ele>115</ele>
        <time>2020-12-30T11:42:03Z</time>
      </trkpt>
      <trkpt lat="43.69016" lon="3.81224">
        <ele>115</ele>
        <time>2020-12-30T11:42:05Z</time>
      </trkpt>
      <trkpt lat="43.69018" lon="3.8123">
        <ele>116</ele>
        <time>2020-12-30T11:42:07Z</time>
      </trkpt>
      <trkpt lat="43.69021" lon="3.81236">
        <ele>116</ele>
        <time>2020-12-30T11:42:09Z</time>
      </trkpt>
      <trkpt lat="43.69025" lon="3.81243">
        <ele>116</ele>
        <time>2020-12-30T11:42:11Z</time>
      </trkpt>
      <trkpt lat="43.69028" lon="3.81249">
        <ele>117</ele>
        <time>2020-12-30T11:42:13Z</time>
      </trkpt>
      <trkpt lat="43.69032" lon="3.81256">
        <ele>117</ele>
        <time>2020-12-30T11:42:15Z</time>
      </trkpt>
      <trkpt lat="43.69035" lon="3.81262">
        <ele>118</ele>
        <time>2020-12-30T11:42:17Z</time>
      </trkpt>
      <trkpt lat="43.69038" lon="3.81269">
        <ele>118</ele>
        <time>2020-12-30T11:42:19Z</time>
      </trkpt>
      <trkpt lat="43.69042" lon="3.81275">
        <ele>119</ele>
        <time>2020-12-30T11:42:21Z</time>
      </trkpt>
      <trkpt lat="43.69046" lon="3.8128">
        <ele>119</ele>
        <time>2020-12-30T11:42:23Z</time>
      </trkpt>
      <trkpt lat="43.6905" lon="3.81285">
        <ele>120</ele>
        <time>2020-12-30T11:42:25Z</time>
      </trkpt>
      <trkpt lat="43.69053" lon="3.8129">
        <ele>120</ele>
        <time>2020-12-30T11:42:27Z</time>
      </trkpt>
      <trkpt lat="43.69058" lon="3.81297">
        <ele>120</ele>
        <time>2020-12-30T11:42:30Z</time>
      </trkpt>
      <trkpt lat="43.69064" lon="3.813">
        <ele>120</ele>
        <time>2020-12-30T11:42:32Z</time>
      </trkpt>
      <trkpt lat="43.69069" lon="3.81304">
        <ele>119</ele>
        <time>2020-12-30T11:42:34Z</time>
      </trkpt>
      <trkpt lat="43.69074" lon="3.81306">
        <ele>119</ele>
        <time>2020-12-30T11:42:36Z</time>
      </trkpt>
      <trkpt lat="43.6908" lon="3.81309">
        <ele>119</ele>
        <time>2020-12-30T11:42:38Z</time>
      </trkpt>
      <trkpt lat="43.69085" lon="3.81312">
        <ele>119</ele>
        <time>2020-12-30T11:42:40Z</time>
      </trkpt>
      <trkpt lat="43.6909" lon="3.81315">
        <ele>117</ele>
        <time>2020-12-30T11:42:42Z</time>
      </trkpt>
      <trkpt lat="43.69094" lon="3.81319">
        <ele>117</ele>
        <time>2020-12-30T11:42:44Z</time>
      </trkpt>
      <trkpt lat="43.69099" lon="3.81325">
        <ele>117</ele>
        <time>2020-12-30T11:42:47Z</time>
      </trkpt>
      <trkpt lat="43.69108" lon="3.81335">
        <ele>114</ele>
        <time>2020-12-30T11:42:49Z</time>
      </trkpt>
      <trkpt lat="43.69112" lon="3.81343">
        <ele>113</ele>
        <time>2020-12-30T11:42:51Z</time>
      </trkpt>
      <trkpt lat="43.69113" lon="3.81351">
        <ele>115</ele>
        <time>2020-12-30T11:42:53Z</time>
      </trkpt>
      <trkpt lat="43.69115" lon="3.8136">
        <ele>116</ele>
        <time>2020-12-30T11:42:55Z</time>
      </trkpt>
      <trkpt lat="43.69116" lon="3.81369">
        <ele>117</ele>
        <time>2020-12-30T11:42:57Z</time>
      </trkpt>
      <trkpt lat="43.69117" lon="3.81378">
        <ele>122</ele>
        <time>2020-12-30T11:42:59Z</time>
      </trkpt>
      <trkpt lat="43.69118" lon="3.81386">
        <ele>124</ele>
        <time>2020-12-30T11:43:01Z</time>
      </trkpt>
      <trkpt lat="43.69118" lon="3.81394">
        <ele>126</ele>
        <time>2020-12-30T11:43:03Z</time>
      </trkpt>
      <trkpt lat="43.69118" lon="3.81402">
        <ele>127</ele>
        <time>2020-12-30T11:43:05Z</time>
      </trkpt>
      <trkpt lat="43.69119" lon="3.81409">
        <ele>128</ele>
        <time>2020-12-30T11:43:07Z</time>
      </trkpt>
      <trkpt lat="43.6912" lon="3.81417">
        <ele>128</ele>
        <time>2020-12-30T11:43:09Z</time>
      </trkpt>
      <trkpt lat="43.69121" lon="3.81425">
        <ele>128</ele>
        <time>2020-12-30T11:43:11Z</time>
      </trkpt>
      <trkpt lat="43.69123" lon="3.81431">
        <ele>128</ele>
        <time>2020-12-30T11:43:13Z</time>
      </trkpt>
      <trkpt lat="43.69127" lon="3.81438">
        <ele>128</ele>
        <time>2020-12-30T11:43:15Z</time>
      </trkpt>
      <trkpt lat="43.69131" lon="3.81444">
        <ele>128</ele>
        <time>2020-12-30T11:43:17Z</time>
      </trkpt>
      <trkpt lat="43.69136" lon="3.81449">
        <ele>128</ele>
        <time>2020-12-30T11:43:19Z</time>
      </trkpt>
      <trkpt lat="43.69141" lon="3.81454">
        <ele>128</ele>
        <time>2020-12-30T11:43:21Z</time>
      </trkpt>
      <trkpt lat="43.69144" lon="3.81461">
        <ele>128</ele>
        <time>2020-12-30T11:43:23Z</time>
      </trkpt>
      <trkpt lat="43.69148" lon="3.81466">
        <ele>129</ele>
        <time>2020-12-30T11:43:26Z</time>
      </trkpt>
      <trkpt lat="43.69149" lon="3.81473">
        <ele>130</ele>
        <time>2020-12-30T11:43:28Z</time>
      </trkpt>
      <trkpt lat="43.69151" lon="3.81481">
        <ele>130</ele>
        <time>2020-12-30T11:43:30Z</time>
      </trkpt>
      <trkpt lat="43.69151" lon="3.81488">
        <ele>131</ele>
        <time>2020-12-30T11:43:32Z</time>
      </trkpt>
      <trkpt lat="43.6915" lon="3.81496">
        <ele>131</ele>
        <time>2020-12-30T11:43:35Z</time>
      </trkpt>
      <trkpt lat="43.69147" lon="3.81502">
        <ele>131</ele>
        <time>2020-12-30T11:43:39Z</time>
      </trkpt>
      <trkpt lat="43.69149" lon="3.81507">
        <ele>132</ele>
        <time>2020-12-30T11:43:45Z</time>
      </trkpt>
      <trkpt lat="43.6915" lon="3.81514">
        <ele>132</ele>
        <time>2020-12-30T11:44:08Z</time>
      </trkpt>
      <trkpt lat="43.6915" lon="3.81523">
        <ele>133</ele>
        <time>2020-12-30T11:44:10Z</time>
      </trkpt>
      <trkpt lat="43.69149" lon="3.81533">
        <ele>133</ele>
        <time>2020-12-30T11:44:12Z</time>
      </trkpt>
      <trkpt lat="43.69151" lon="3.81549">
        <ele>134</ele>
        <time>2020-12-30T11:44:14Z</time>
      </trkpt>
      <trkpt lat="43.69149" lon="3.81558">
        <ele>135</ele>
        <time>2020-12-30T11:44:16Z</time>
      </trkpt>
      <trkpt lat="43.69149" lon="3.81569">
        <ele>136</ele>
        <time>2020-12-30T11:44:18Z</time>
      </trkpt>
      <trkpt lat="43.69148" lon="3.81578">
        <ele>136</ele>
        <time>2020-12-30T11:44:20Z</time>
      </trkpt>
      <trkpt lat="43.69147" lon="3.81588">
        <ele>136</ele>
        <time>2020-12-30T11:44:22Z</time>
      </trkpt>
      <trkpt lat="43.69146" lon="3.81598">
        <ele>136</ele>
        <time>2020-12-30T11:44:24Z</time>
      </trkpt>
      <trkpt lat="43.69144" lon="3.81609">
        <ele>136</ele>
        <time>2020-12-30T11:44:26Z</time>
      </trkpt>
      <trkpt lat="43.69142" lon="3.81618">
        <ele>135</ele>
        <time>2020-12-30T11:44:28Z</time>
      </trkpt>
      <trkpt lat="43.69139" lon="3.81629">
        <ele>135</ele>
        <time>2020-12-30T11:44:30Z</time>
      </trkpt>
      <trkpt lat="43.69137" lon="3.81637">
        <ele>134</ele>
        <time>2020-12-30T11:44:31Z</time>
      </trkpt>
      <trkpt lat="43.69136" lon="3.81644">
        <ele>134</ele>
        <time>2020-12-30T11:44:32Z</time>
      </trkpt>
      <trkpt lat="43.69135" lon="3.81652">
        <ele>133</ele>
        <time>2020-12-30T11:44:33Z</time>
      </trkpt>
      <trkpt lat="43.69131" lon="3.81659">
        <ele>132</ele>
        <time>2020-12-30T11:44:34Z</time>
      </trkpt>
      <trkpt lat="43.69128" lon="3.81668">
        <ele>132</ele>
        <time>2020-12-30T11:44:35Z</time>
      </trkpt>
      <trkpt lat="43.69124" lon="3.81677">
        <ele>131</ele>
        <time>2020-12-30T11:44:36Z</time>
      </trkpt>
      <trkpt lat="43.69119" lon="3.81683">
        <ele>130</ele>
        <time>2020-12-30T11:44:37Z</time>
      </trkpt>
      <trkpt lat="43.69115" lon="3.81691">
        <ele>130</ele>
        <time>2020-12-30T11:44:38Z</time>
      </trkpt>
      <trkpt lat="43.69111" lon="3.81699">
        <ele>129</ele>
        <time>2020-12-30T11:44:39Z</time>
      </trkpt>
      <trkpt lat="43.69107" lon="3.81708">
        <ele>129</ele>
        <time>2020-12-30T11:44:40Z</time>
      </trkpt>
      <trkpt lat="43.69106" lon="3.81717">
        <ele>128</ele>
        <time>2020-12-30T11:44:41Z</time>
      </trkpt>
      <trkpt lat="43.69103" lon="3.81726">
        <ele>127</ele>
        <time>2020-12-30T11:44:42Z</time>
      </trkpt>
      <trkpt lat="43.69099" lon="3.81736">
        <ele>126</ele>
        <time>2020-12-30T11:44:43Z</time>
      </trkpt>
      <trkpt lat="43.69096" lon="3.81744">
        <ele>125</ele>
        <time>2020-12-30T11:44:44Z</time>
      </trkpt>
      <trkpt lat="43.69093" lon="3.81753">
        <ele>125</ele>
        <time>2020-12-30T11:44:45Z</time>
      </trkpt>
      <trkpt lat="43.69088" lon="3.81764">
        <ele>124</ele>
        <time>2020-12-30T11:44:46Z</time>
      </trkpt>
      <trkpt lat="43.69084" lon="3.81776">
        <ele>124</ele>
        <time>2020-12-30T11:44:47Z</time>
      </trkpt>
      <trkpt lat="43.69081" lon="3.81787">
        <ele>125</ele>
        <time>2020-12-30T11:44:48Z</time>
      </trkpt>
      <trkpt lat="43.69074" lon="3.81797">
        <ele>125</ele>
        <time>2020-12-30T11:44:49Z</time>
      </trkpt>
      <trkpt lat="43.6907" lon="3.81808">
        <ele>125</ele>
        <time>2020-12-30T11:44:50Z</time>
      </trkpt>
      <trkpt lat="43.69066" lon="3.81818">
        <ele>125</ele>
        <time>2020-12-30T11:44:51Z</time>
      </trkpt>
      <trkpt lat="43.69059" lon="3.81828">
        <ele>124</ele>
        <time>2020-12-30T11:44:52Z</time>
      </trkpt>
      <trkpt lat="43.69053" lon="3.81842">
        <ele>123</ele>
        <time>2020-12-30T11:44:53Z</time>
      </trkpt>
      <trkpt lat="43.69048" lon="3.81853">
        <ele>123</ele>
        <time>2020-12-30T11:44:54Z</time>
      </trkpt>
      <trkpt lat="43.69043" lon="3.81866">
        <ele>123</ele>
        <time>2020-12-30T11:44:55Z</time>
      </trkpt>
      <trkpt lat="43.69038" lon="3.81879">
        <ele>122</ele>
        <time>2020-12-30T11:44:56Z</time>
      </trkpt>
      <trkpt lat="43.69032" lon="3.8189">
        <ele>123</ele>
        <time>2020-12-30T11:44:57Z</time>
      </trkpt>
      <trkpt lat="43.69027" lon="3.81903">
        <ele>124</ele>
        <time>2020-12-30T11:44:58Z</time>
      </trkpt>
      <trkpt lat="43.69022" lon="3.81916">
        <ele>124</ele>
        <time>2020-12-30T11:44:59Z</time>
      </trkpt>
      <trkpt lat="43.69017" lon="3.81926">
        <ele>124</ele>
        <time>2020-12-30T11:45:00Z</time>
      </trkpt>
      <trkpt lat="43.69009" lon="3.81939">
        <ele>125</ele>
        <time>2020-12-30T11:45:01Z</time>
      </trkpt>
      <trkpt lat="43.69002" lon="3.81952">
        <ele>124</ele>
        <time>2020-12-30T11:45:02Z</time>
      </trkpt>
      <trkpt lat="43.68994" lon="3.81967">
        <ele>123</ele>
        <time>2020-12-30T11:45:03Z</time>
      </trkpt>
      <trkpt lat="43.68988" lon="3.8198">
        <ele>122</ele>
        <time>2020-12-30T11:45:04Z</time>
      </trkpt>
      <trkpt lat="43.68981" lon="3.81993">
        <ele>121</ele>
        <time>2020-12-30T11:45:05Z</time>
      </trkpt>
      <trkpt lat="43.68975" lon="3.82007">
        <ele>119</ele>
        <time>2020-12-30T11:45:06Z</time>
      </trkpt>
      <trkpt lat="43.68968" lon="3.8202">
        <ele>117</ele>
        <time>2020-12-30T11:45:07Z</time>
      </trkpt>
      <trkpt lat="43.68961" lon="3.82035">
        <ele>116</ele>
        <time>2020-12-30T11:45:08Z</time>
      </trkpt>
      <trkpt lat="43.68954" lon="3.82049">
        <ele>115</ele>
        <time>2020-12-30T11:45:09Z</time>
      </trkpt>
      <trkpt lat="43.68947" lon="3.82064">
        <ele>114</ele>
        <time>2020-12-30T11:45:10Z</time>
      </trkpt>
      <trkpt lat="43.6894" lon="3.82077">
        <ele>114</ele>
        <time>2020-12-30T11:45:11Z</time>
      </trkpt>
      <trkpt lat="43.68932" lon="3.82091">
        <ele>113</ele>
        <time>2020-12-30T11:45:12Z</time>
      </trkpt>
      <trkpt lat="43.68925" lon="3.82105">
        <ele>112</ele>
        <time>2020-12-30T11:45:13Z</time>
      </trkpt>
      <trkpt lat="43.68918" lon="3.82119">
        <ele>111</ele>
        <time>2020-12-30T11:45:14Z</time>
      </trkpt>
      <trkpt lat="43.68913" lon="3.82133">
        <ele>110</ele>
        <time>2020-12-30T11:45:15Z</time>
      </trkpt>
      <trkpt lat="43.68906" lon="3.82147">
        <ele>109</ele>
        <time>2020-12-30T11:45:16Z</time>
      </trkpt>
      <trkpt lat="43.689" lon="3.82161">
        <ele>109</ele>
        <time>2020-12-30T11:45:17Z</time>
      </trkpt>
      <trkpt lat="43.68894" lon="3.82174">
        <ele>108</ele>
        <time>2020-12-30T11:45:18Z</time>
      </trkpt>
      <trkpt lat="43.68889" lon="3.82188">
        <ele>107</ele>
        <time>2020-12-30T11:45:19Z</time>
      </trkpt>
      <trkpt lat="43.68881" lon="3.82203">
        <ele>107</ele>
        <time>2020-12-30T11:45:20Z</time>
      </trkpt>
      <trkpt lat="43.68874" lon="3.82218">
        <ele>106</ele>
        <time>2020-12-30T11:45:21Z</time>
      </trkpt>
      <trkpt lat="43.68868" lon="3.82234">
        <ele>105</ele>
        <time>2020-12-30T11:45:22Z</time>
      </trkpt>
      <trkpt lat="43.68862" lon="3.8225">
        <ele>104</ele>
        <time>2020-12-30T11:45:23Z</time>
      </trkpt>
      <trkpt lat="43.68857" lon="3.82266">
        <ele>103</ele>
        <time>2020-12-30T11:45:24Z</time>
      </trkpt>
      <trkpt lat="43.68852" lon="3.82282">
        <ele>103</ele>
        <time>2020-12-30T11:45:25Z</time>
      </trkpt>
      <trkpt lat="43.68848" lon="3.82299">
        <ele>102</ele>
        <time>2020-12-30T11:45:26Z</time>
      </trkpt>
      <trkpt lat="43.68844" lon="3.82317">
        <ele>102</ele>
        <time>2020-12-30T11:45:27Z</time>
      </trkpt>
      <trkpt lat="43.68839" lon="3.82334">
        <ele>101</ele>
        <time>2020-12-30T11:45:28Z</time>
      </trkpt>
      <trkpt lat="43.6883" lon="3.82353">
        <ele>100</ele>
        <time>2020-12-30T11:45:29Z</time>
      </trkpt>
      <trkpt lat="43.68826" lon="3.82372">
        <ele>99</ele>
        <time>2020-12-30T11:45:30Z</time>
      </trkpt>
      <trkpt lat="43.68822" lon="3.82383">
        <ele>99</ele>
        <time>2020-12-30T11:45:31Z</time>
      </trkpt>
      <trkpt lat="43.68818" lon="3.82399">
        <ele>98</ele>
        <time>2020-12-30T11:45:32Z</time>
      </trkpt>
      <trkpt lat="43.68812" lon="3.82415">
        <ele>98</ele>
        <time>2020-12-30T11:45:33Z</time>
      </trkpt>
      <trkpt lat="43.68808" lon="3.8243">
        <ele>98</ele>
        <time>2020-12-30T11:45:34Z</time>
      </trkpt>
      <trkpt lat="43.68803" lon="3.82444">
        <ele>98</ele>
        <time>2020-12-30T11:45:35Z</time>
      </trkpt>
      <trkpt lat="43.68799" lon="3.82458">
        <ele>98</ele>
        <time>2020-12-30T11:45:36Z</time>
      </trkpt>
      <trkpt lat="43.68795" lon="3.82471">
        <ele>97</ele>
        <time>2020-12-30T11:45:37Z</time>
      </trkpt>
      <trkpt lat="43.6879" lon="3.82478">
        <ele>98</ele>
        <time>2020-12-30T11:45:38Z</time>
      </trkpt>
      <trkpt lat="43.68784" lon="3.8249">
        <ele>98</ele>
        <time>2020-12-30T11:45:39Z</time>
      </trkpt>
      <trkpt lat="43.68776" lon="3.82503">
        <ele>98</ele>
        <time>2020-12-30T11:45:40Z</time>
      </trkpt>
      <trkpt lat="43.6877" lon="3.82513">
        <ele>98</ele>
        <time>2020-12-30T11:45:41Z</time>
      </trkpt>
      <trkpt lat="43.68763" lon="3.82522">
        <ele>98</ele>
        <time>2020-12-30T11:45:42Z</time>
      </trkpt>
      <trkpt lat="43.68756" lon="3.82531">
        <ele>97</ele>
        <time>2020-12-30T11:45:43Z</time>
      </trkpt>
      <trkpt lat="43.68749" lon="3.8254">
        <ele>96</ele>
        <time>2020-12-30T11:45:44Z</time>
      </trkpt>
      <trkpt lat="43.68742" lon="3.82549">
        <ele>96</ele>
        <time>2020-12-30T11:45:45Z</time>
      </trkpt>
      <trkpt lat="43.68735" lon="3.82557">
        <ele>95</ele>
        <time>2020-12-30T11:45:46Z</time>
      </trkpt>
      <trkpt lat="43.68728" lon="3.82566">
        <ele>95</ele>
        <time>2020-12-30T11:45:47Z</time>
      </trkpt>
      <trkpt lat="43.68722" lon="3.82574">
        <ele>94</ele>
        <time>2020-12-30T11:45:48Z</time>
      </trkpt>
      <trkpt lat="43.68715" lon="3.82583">
        <ele>94</ele>
        <time>2020-12-30T11:45:49Z</time>
      </trkpt>
      <trkpt lat="43.68708" lon="3.82591">
        <ele>94</ele>
        <time>2020-12-30T11:45:50Z</time>
      </trkpt>
      <trkpt lat="43.687" lon="3.82599">
        <ele>94</ele>
        <time>2020-12-30T11:45:51Z</time>
      </trkpt>
      <trkpt lat="43.68692" lon="3.82607">
        <ele>94</ele>
        <time>2020-12-30T11:45:52Z</time>
      </trkpt>
      <trkpt lat="43.68685" lon="3.82615">
        <ele>93</ele>
        <time>2020-12-30T11:45:53Z</time>
      </trkpt>
      <trkpt lat="43.68678" lon="3.82621">
        <ele>93</ele>
        <time>2020-12-30T11:45:54Z</time>
      </trkpt>
      <trkpt lat="43.68671" lon="3.82629">
        <ele>93</ele>
        <time>2020-12-30T11:45:55Z</time>
      </trkpt>
      <trkpt lat="43.68663" lon="3.82636">
        <ele>93</ele>
        <time>2020-12-30T11:45:56Z</time>
      </trkpt>
      <trkpt lat="43.68656" lon="3.82644">
        <ele>93</ele>
        <time>2020-12-30T11:45:57Z</time>
      </trkpt>
      <trkpt lat="43.68646" lon="3.8265">
        <ele>93</ele>
        <time>2020-12-30T11:45:58Z</time>
      </trkpt>
      <trkpt lat="43.68639" lon="3.82657">
        <ele>92</ele>
        <time>2020-12-30T11:45:59Z</time>
      </trkpt>
      <trkpt lat="43.68633" lon="3.82664">
        <ele>92</ele>
        <time>2020-12-30T11:46:00Z</time>
      </trkpt>
      <trkpt lat="43.68626" lon="3.82671">
        <ele>91</ele>
        <time>2020-12-30T11:46:01Z</time>
      </trkpt>
      <trkpt lat="43.6862" lon="3.82679">
        <ele>91</ele>
        <time>2020-12-30T11:46:02Z</time>
      </trkpt>
      <trkpt lat="43.68614" lon="3.82686">
        <ele>91</ele>
        <time>2020-12-30T11:46:03Z</time>
      </trkpt>
      <trkpt lat="43.68607" lon="3.82693">
        <ele>91</ele>
        <time>2020-12-30T11:46:04Z</time>
      </trkpt>
      <trkpt lat="43.68602" lon="3.827">
        <ele>91</ele>
        <time>2020-12-30T11:46:05Z</time>
      </trkpt>
      <trkpt lat="43.68599" lon="3.82709">
        <ele>91</ele>
        <time>2020-12-30T11:46:06Z</time>
      </trkpt>
      <trkpt lat="43.68598" lon="3.82716">
        <ele>91</ele>
        <time>2020-12-30T11:46:07Z</time>
      </trkpt>
      <trkpt lat="43.68597" lon="3.82725">
        <ele>91</ele>
        <time>2020-12-30T11:46:08Z</time>
      </trkpt>
      <trkpt lat="43.68596" lon="3.82736">
        <ele>91</ele>
        <time>2020-12-30T11:46:09Z</time>
      </trkpt>
      <trkpt lat="43.68596" lon="3.82746">
        <ele>91</ele>
        <time>2020-12-30T11:46:10Z</time>
      </trkpt>
      <trkpt lat="43.68595" lon="3.82757">
        <ele>91</ele>
        <time>2020-12-30T11:46:11Z</time>
      </trkpt>
      <trkpt lat="43.68595" lon="3.82769">
        <ele>90</ele>
        <time>2020-12-30T11:46:12Z</time>
      </trkpt>
      <trkpt lat="43.68594" lon="3.8278">
        <ele>90</ele>
        <time>2020-12-30T11:46:13Z</time>
      </trkpt>
      <trkpt lat="43.68592" lon="3.82789">
        <ele>90</ele>
        <time>2020-12-30T11:46:14Z</time>
      </trkpt>
      <trkpt lat="43.6859" lon="3.82799">
        <ele>90</ele>
        <time>2020-12-30T11:46:15Z</time>
      </trkpt>
      <trkpt lat="43.68589" lon="3.82807">
        <ele>90</ele>
        <time>2020-12-30T11:46:16Z</time>
      </trkpt>
      <trkpt lat="43.68589" lon="3.82816">
        <ele>90</ele>
        <time>2020-12-30T11:46:17Z</time>
      </trkpt>
      <trkpt lat="43.68587" lon="3.82827">
        <ele>90</ele>
        <time>2020-12-30T11:46:18Z</time>
      </trkpt>
      <trkpt lat="43.68585" lon="3.82833">
        <ele>90</ele>
        <time>2020-12-30T11:46:19Z</time>
      </trkpt>
      <trkpt lat="43.68582" lon="3.82844">
        <ele>90</ele>
        <time>2020-12-30T11:46:21Z</time>
      </trkpt>
      <trkpt lat="43.68579" lon="3.82849">
        <ele>90</ele>
        <time>2020-12-30T11:46:23Z</time>
      </trkpt>
      <trkpt lat="43.68573" lon="3.8285">
        <ele>90</ele>
        <time>2020-12-30T11:46:25Z</time>
      </trkpt>
      <trkpt lat="43.68569" lon="3.82855">
        <ele>90</ele>
        <time>2020-12-30T11:46:27Z</time>
      </trkpt>
      <trkpt lat="43.68564" lon="3.82862">
        <ele>89</ele>
        <time>2020-12-30T11:46:29Z</time>
      </trkpt>
      <trkpt lat="43.68564" lon="3.82868">
        <ele>89</ele>
        <time>2020-12-30T11:46:32Z</time>
      </trkpt>
      <trkpt lat="43.68559" lon="3.82873">
        <ele>90</ele>
        <time>2020-12-30T11:46:33Z</time>
      </trkpt>
      <trkpt lat="43.68554" lon="3.82876">
        <ele>90</ele>
        <time>2020-12-30T11:46:34Z</time>
      </trkpt>
      <trkpt lat="43.68549" lon="3.82881">
        <ele>90</ele>
        <time>2020-12-30T11:46:35Z</time>
      </trkpt>
      <trkpt lat="43.68544" lon="3.82885">
        <ele>90</ele>
        <time>2020-12-30T11:46:36Z</time>
      </trkpt>
      <trkpt lat="43.68541" lon="3.8289">
        <ele>91</ele>
        <time>2020-12-30T11:46:37Z</time>
      </trkpt>
      <trkpt lat="43.68536" lon="3.82894">
        <ele>91</ele>
        <time>2020-12-30T11:46:38Z</time>
      </trkpt>
      <trkpt lat="43.68532" lon="3.82897">
        <ele>91</ele>
        <time>2020-12-30T11:46:39Z</time>
      </trkpt>
      <trkpt lat="43.68527" lon="3.829">
        <ele>91</ele>
        <time>2020-12-30T11:46:40Z</time>
      </trkpt>
      <trkpt lat="43.68518" lon="3.82905">
        <ele>91</ele>
        <time>2020-12-30T11:46:42Z</time>
      </trkpt>
      <trkpt lat="43.68515" lon="3.8291">
        <ele>91</ele>
        <time>2020-12-30T11:46:43Z</time>
      </trkpt>
      <trkpt lat="43.68506" lon="3.82912">
        <ele>92</ele>
        <time>2020-12-30T11:46:45Z</time>
      </trkpt>
      <trkpt lat="43.68498" lon="3.82917">
        <ele>92</ele>
        <time>2020-12-30T11:46:47Z</time>
      </trkpt>
      <trkpt lat="43.68493" lon="3.82921">
        <ele>93</ele>
        <time>2020-12-30T11:46:48Z</time>
      </trkpt>
      <trkpt lat="43.68486" lon="3.82925">
        <ele>93</ele>
        <time>2020-12-30T11:46:50Z</time>
      </trkpt>
      <trkpt lat="43.68481" lon="3.82928">
        <ele>92</ele>
        <time>2020-12-30T11:46:52Z</time>
      </trkpt>
      <trkpt lat="43.68476" lon="3.82934">
        <ele>92</ele>
        <time>2020-12-30T11:46:54Z</time>
      </trkpt>
      <trkpt lat="43.68474" lon="3.82932">
        <ele>92</ele>
        <time>2020-12-30T11:47:12Z</time>
      </trkpt>
      <trkpt lat="43.68474" lon="3.82933">
        <ele>91</ele>
        <time>2020-12-30T11:47:14Z</time>
      </trkpt>
      <trkpt lat="43.68471" lon="3.82927">
        <ele>91</ele>
        <time>2020-12-30T11:47:32Z</time>
      </trkpt>
      <trkpt lat="43.68467" lon="3.82929">
        <ele>91</ele>
        <time>2020-12-30T11:47:35Z</time>
      </trkpt>
      <trkpt lat="43.68461" lon="3.82934">
        <ele>92</ele>
        <time>2020-12-30T11:47:38Z</time>
      </trkpt>
      <trkpt lat="43.68456" lon="3.82936">
        <ele>91</ele>
        <time>2020-12-30T11:47:41Z</time>
      </trkpt>
      <trkpt lat="43.68451" lon="3.82938">
        <ele>92</ele>
        <time>2020-12-30T11:47:43Z</time>
      </trkpt>
      <trkpt lat="43.68445" lon="3.82943">
        <ele>92</ele>
        <time>2020-12-30T11:47:45Z</time>
      </trkpt>
      <trkpt lat="43.6844" lon="3.8295">
        <ele>92</ele>
        <time>2020-12-30T11:47:47Z</time>
      </trkpt>
      <trkpt lat="43.68438" lon="3.82955">
        <ele>92</ele>
        <time>2020-12-30T11:47:50Z</time>
      </trkpt>
      <trkpt lat="43.68431" lon="3.82964">
        <ele>92</ele>
        <time>2020-12-30T11:47:51Z</time>
      </trkpt>
      <trkpt lat="43.68428" lon="3.82972">
        <ele>91</ele>
        <time>2020-12-30T11:47:53Z</time>
      </trkpt>
      <trkpt lat="43.68424" lon="3.82979">
        <ele>91</ele>
        <time>2020-12-30T11:47:55Z</time>
      </trkpt>
      <trkpt lat="43.6842" lon="3.82986">
        <ele>91</ele>
        <time>2020-12-30T11:47:57Z</time>
      </trkpt>
      <trkpt lat="43.68416" lon="3.82992">
        <ele>91</ele>
        <time>2020-12-30T11:47:59Z</time>
      </trkpt>
      <trkpt lat="43.68413" lon="3.82997">
        <ele>92</ele>
        <time>2020-12-30T11:48:01Z</time>
      </trkpt>
      <trkpt lat="43.68408" lon="3.83001">
        <ele>93</ele>
        <time>2020-12-30T11:48:03Z</time>
      </trkpt>
      <trkpt lat="43.68404" lon="3.8301">
        <ele>94</ele>
        <time>2020-12-30T11:48:04Z</time>
      </trkpt>
      <trkpt lat="43.68406" lon="3.83016">
        <ele>95</ele>
        <time>2020-12-30T11:48:06Z</time>
      </trkpt>
      <trkpt lat="43.68409" lon="3.83022">
        <ele>95</ele>
        <time>2020-12-30T11:48:09Z</time>
      </trkpt>
      <trkpt lat="43.68409" lon="3.8303">
        <ele>95</ele>
        <time>2020-12-30T11:48:11Z</time>
      </trkpt>
      <trkpt lat="43.6841" lon="3.83038">
        <ele>96</ele>
        <time>2020-12-30T11:48:14Z</time>
      </trkpt>
      <trkpt lat="43.68412" lon="3.83044">
        <ele>96</ele>
        <time>2020-12-30T11:48:17Z</time>
      </trkpt>
      <trkpt lat="43.68407" lon="3.83051">
        <ele>96</ele>
        <time>2020-12-30T11:48:20Z</time>
      </trkpt>
      <trkpt lat="43.68405" lon="3.83059">
        <ele>96</ele>
        <time>2020-12-30T11:48:22Z</time>
      </trkpt>
      <trkpt lat="43.68401" lon="3.83065">
        <ele>95</ele>
        <time>2020-12-30T11:48:24Z</time>
      </trkpt>
      <trkpt lat="43.68398" lon="3.83073">
        <ele>95</ele>
        <time>2020-12-30T11:48:26Z</time>
      </trkpt>
      <trkpt lat="43.68392" lon="3.83082">
        <ele>95</ele>
        <time>2020-12-30T11:48:28Z</time>
      </trkpt>
      <trkpt lat="43.68387" lon="3.83091">
        <ele>94</ele>
        <time>2020-12-30T11:48:30Z</time>
      </trkpt>
      <trkpt lat="43.68384" lon="3.83097">
        <ele>93</ele>
        <time>2020-12-30T11:48:31Z</time>
      </trkpt>
      <trkpt lat="43.68382" lon="3.83103">
        <ele>93</ele>
        <time>2020-12-30T11:48:32Z</time>
      </trkpt>
      <trkpt lat="43.6838" lon="3.83108">
        <ele>92</ele>
        <time>2020-12-30T11:48:33Z</time>
      </trkpt>
      <trkpt lat="43.68378" lon="3.83114">
        <ele>92</ele>
        <time>2020-12-30T11:48:34Z</time>
      </trkpt>
      <trkpt lat="43.68377" lon="3.83124">
        <ele>93</ele>
        <time>2020-12-30T11:48:36Z</time>
      </trkpt>
      <trkpt lat="43.68378" lon="3.83132">
        <ele>93</ele>
        <time>2020-12-30T11:48:38Z</time>
      </trkpt>
      <trkpt lat="43.68378" lon="3.83139">
        <ele>94</ele>
        <time>2020-12-30T11:48:41Z</time>
      </trkpt>
      <trkpt lat="43.68373" lon="3.83137">
        <ele>94</ele>
        <time>2020-12-30T11:48:52Z</time>
      </trkpt>
      <trkpt lat="43.6837" lon="3.83142">
        <ele>95</ele>
        <time>2020-12-30T11:48:54Z</time>
      </trkpt>
      <trkpt lat="43.68369" lon="3.83149">
        <ele>95</ele>
        <time>2020-12-30T11:48:58Z</time>
      </trkpt>
      <trkpt lat="43.68366" lon="3.83156">
        <ele>95</ele>
        <time>2020-12-30T11:49:01Z</time>
      </trkpt>
      <trkpt lat="43.68364" lon="3.83162">
        <ele>94</ele>
        <time>2020-12-30T11:49:04Z</time>
      </trkpt>
      <trkpt lat="43.68363" lon="3.8317">
        <ele>94</ele>
        <time>2020-12-30T11:49:07Z</time>
      </trkpt>
      <trkpt lat="43.68361" lon="3.83175">
        <ele>94</ele>
        <time>2020-12-30T11:49:09Z</time>
      </trkpt>
      <trkpt lat="43.68358" lon="3.83182">
        <ele>95</ele>
        <time>2020-12-30T11:49:11Z</time>
      </trkpt>
      <trkpt lat="43.68358" lon="3.83191">
        <ele>95</ele>
        <time>2020-12-30T11:49:14Z</time>
      </trkpt>
      <trkpt lat="43.6836" lon="3.83198">
        <ele>95</ele>
        <time>2020-12-30T11:49:16Z</time>
      </trkpt>
      <trkpt lat="43.68359" lon="3.83205">
        <ele>95</ele>
        <time>2020-12-30T11:49:20Z</time>
      </trkpt>
      <trkpt lat="43.68358" lon="3.83211">
        <ele>94</ele>
        <time>2020-12-30T11:49:22Z</time>
      </trkpt>
      <trkpt lat="43.68357" lon="3.83219">
        <ele>94</ele>
        <time>2020-12-30T11:49:24Z</time>
      </trkpt>
      <trkpt lat="43.68354" lon="3.83227">
        <ele>93</ele>
        <time>2020-12-30T11:49:26Z</time>
      </trkpt>
      <trkpt lat="43.68353" lon="3.83235">
        <ele>93</ele>
        <time>2020-12-30T11:49:28Z</time>
      </trkpt>
      <trkpt lat="43.6835" lon="3.83244">
        <ele>92</ele>
        <time>2020-12-30T11:49:30Z</time>
      </trkpt>
      <trkpt lat="43.68348" lon="3.83252">
        <ele>91</ele>
        <time>2020-12-30T11:49:32Z</time>
      </trkpt>
      <trkpt lat="43.68345" lon="3.8326">
        <ele>90</ele>
        <time>2020-12-30T11:49:34Z</time>
      </trkpt>
      <trkpt lat="43.68341" lon="3.83266">
        <ele>89</ele>
        <time>2020-12-30T11:49:36Z</time>
      </trkpt>
      <trkpt lat="43.6834" lon="3.83273">
        <ele>89</ele>
        <time>2020-12-30T11:49:39Z</time>
      </trkpt>
      <trkpt lat="43.68338" lon="3.83284">
        <ele>89</ele>
        <time>2020-12-30T11:49:42Z</time>
      </trkpt>
      <trkpt lat="43.68337" lon="3.83291">
        <ele>89</ele>
        <time>2020-12-30T11:49:44Z</time>
      </trkpt>
      <trkpt lat="43.68334" lon="3.83298">
        <ele>89</ele>
        <time>2020-12-30T11:49:46Z</time>
      </trkpt>
      <trkpt lat="43.6833" lon="3.83304">
        <ele>89</ele>
        <time>2020-12-30T11:49:48Z</time>
      </trkpt>
      <trkpt lat="43.68329" lon="3.8331">
        <ele>89</ele>
        <time>2020-12-30T11:49:50Z</time>
      </trkpt>
      <trkpt lat="43.68326" lon="3.83316">
        <ele>89</ele>
        <time>2020-12-30T11:49:52Z</time>
      </trkpt>
      <trkpt lat="43.68323" lon="3.83321">
        <ele>89</ele>
        <time>2020-12-30T11:49:54Z</time>
      </trkpt>
      <trkpt lat="43.68319" lon="3.83327">
        <ele>88</ele>
        <time>2020-12-30T11:49:56Z</time>
      </trkpt>
      <trkpt lat="43.68317" lon="3.83334">
        <ele>88</ele>
        <time>2020-12-30T11:49:58Z</time>
      </trkpt>
      <trkpt lat="43.68318" lon="3.83342">
        <ele>88</ele>
        <time>2020-12-30T11:50:01Z</time>
      </trkpt>
      <trkpt lat="43.68313" lon="3.83346">
        <ele>87</ele>
        <time>2020-12-30T11:50:05Z</time>
      </trkpt>
      <trkpt lat="43.68307" lon="3.83348">
        <ele>87</ele>
        <time>2020-12-30T11:50:07Z</time>
      </trkpt>
      <trkpt lat="43.68302" lon="3.8335">
        <ele>86</ele>
        <time>2020-12-30T11:50:09Z</time>
      </trkpt>
      <trkpt lat="43.68297" lon="3.83349">
        <ele>86</ele>
        <time>2020-12-30T11:50:11Z</time>
      </trkpt>
      <trkpt lat="43.68295" lon="3.83343">
        <ele>85</ele>
        <time>2020-12-30T11:50:14Z</time>
      </trkpt>
      <trkpt lat="43.6829" lon="3.83339">
        <ele>85</ele>
        <time>2020-12-30T11:50:16Z</time>
      </trkpt>
      <trkpt lat="43.68285" lon="3.83338">
        <ele>84</ele>
        <time>2020-12-30T11:50:19Z</time>
      </trkpt>
      <trkpt lat="43.68281" lon="3.83333">
        <ele>84</ele>
        <time>2020-12-30T11:50:22Z</time>
      </trkpt>
      <trkpt lat="43.68277" lon="3.83329">
        <ele>84</ele>
        <time>2020-12-30T11:50:24Z</time>
      </trkpt>
      <trkpt lat="43.68273" lon="3.83322">
        <ele>84</ele>
        <time>2020-12-30T11:50:27Z</time>
      </trkpt>
      <trkpt lat="43.68271" lon="3.83315">
        <ele>84</ele>
        <time>2020-12-30T11:50:29Z</time>
      </trkpt>
      <trkpt lat="43.68267" lon="3.83311">
        <ele>85</ele>
        <time>2020-12-30T11:50:32Z</time>
      </trkpt>
      <trkpt lat="43.68262" lon="3.83308">
        <ele>86</ele>
        <time>2020-12-30T11:50:35Z</time>
      </trkpt>
      <trkpt lat="43.68268" lon="3.8331">
        <ele>86</ele>
        <time>2020-12-30T11:50:44Z</time>
      </trkpt>
      <trkpt lat="43.68272" lon="3.83318">
        <ele>87</ele>
        <time>2020-12-30T11:50:47Z</time>
      </trkpt>
      <trkpt lat="43.68274" lon="3.83323">
        <ele>87</ele>
        <time>2020-12-30T11:50:49Z</time>
      </trkpt>
      <trkpt lat="43.68278" lon="3.83328">
        <ele>87</ele>
        <time>2020-12-30T11:50:51Z</time>
      </trkpt>
      <trkpt lat="43.68282" lon="3.83335">
        <ele>87</ele>
        <time>2020-12-30T11:50:54Z</time>
      </trkpt>
      <trkpt lat="43.6829" lon="3.83339">
        <ele>87</ele>
        <time>2020-12-30T11:50:56Z</time>
      </trkpt>
      <trkpt lat="43.68295" lon="3.83344">
        <ele>87</ele>
        <time>2020-12-30T11:50:59Z</time>
      </trkpt>
      <trkpt lat="43.68302" lon="3.83347">
        <ele>87</ele>
        <time>2020-12-30T11:51:02Z</time>
      </trkpt>
      <trkpt lat="43.68307" lon="3.83345">
        <ele>87</ele>
        <time>2020-12-30T11:51:04Z</time>
      </trkpt>
      <trkpt lat="43.68311" lon="3.83342">
        <ele>86</ele>
        <time>2020-12-30T11:51:06Z</time>
      </trkpt>
      <trkpt lat="43.68316" lon="3.83345">
        <ele>86</ele>
        <time>2020-12-30T11:51:10Z</time>
      </trkpt>
      <trkpt lat="43.68316" lon="3.83353">
        <ele>86</ele>
        <time>2020-12-30T11:51:13Z</time>
      </trkpt>
      <trkpt lat="43.68316" lon="3.8336">
        <ele>86</ele>
        <time>2020-12-30T11:51:16Z</time>
      </trkpt>
      <trkpt lat="43.6832" lon="3.83366">
        <ele>87</ele>
        <time>2020-12-30T11:51:21Z</time>
      </trkpt>
      <trkpt lat="43.68325" lon="3.83363">
        <ele>88</ele>
        <time>2020-12-30T11:51:35Z</time>
      </trkpt>
      <trkpt lat="43.6833" lon="3.83359">
        <ele>89</ele>
        <time>2020-12-30T11:51:39Z</time>
      </trkpt>
      <trkpt lat="43.68331" lon="3.83351">
        <ele>90</ele>
        <time>2020-12-30T11:51:43Z</time>
      </trkpt>
      <trkpt lat="43.68334" lon="3.83343">
        <ele>91</ele>
        <time>2020-12-30T11:51:48Z</time>
      </trkpt>
      <trkpt lat="43.68338" lon="3.83338">
        <ele>91</ele>
        <time>2020-12-30T11:51:51Z</time>
      </trkpt>
      <trkpt lat="43.68341" lon="3.83332">
        <ele>91</ele>
        <time>2020-12-30T11:51:53Z</time>
      </trkpt>
      <trkpt lat="43.68343" lon="3.83326">
        <ele>90</ele>
        <time>2020-12-30T11:51:56Z</time>
      </trkpt>
      <trkpt lat="43.68346" lon="3.83321">
        <ele>90</ele>
        <time>2020-12-30T11:52:00Z</time>
      </trkpt>
      <trkpt lat="43.6835" lon="3.83317">
        <ele>90</ele>
        <time>2020-12-30T11:52:04Z</time>
      </trkpt>
      <trkpt lat="43.68351" lon="3.8331">
        <ele>90</ele>
        <time>2020-12-30T11:52:07Z</time>
      </trkpt>
      <trkpt lat="43.68354" lon="3.83305">
        <ele>90</ele>
        <time>2020-12-30T11:52:10Z</time>
      </trkpt>
      <trkpt lat="43.68357" lon="3.833">
        <ele>90</ele>
        <time>2020-12-30T11:52:13Z</time>
      </trkpt>
      <trkpt lat="43.68362" lon="3.83296">
        <ele>90</ele>
        <time>2020-12-30T11:52:16Z</time>
      </trkpt>
      <trkpt lat="43.68366" lon="3.83289">
        <ele>91</ele>
        <time>2020-12-30T11:52:19Z</time>
      </trkpt>
      <trkpt lat="43.68368" lon="3.83282">
        <ele>91</ele>
        <time>2020-12-30T11:52:21Z</time>
      </trkpt>
      <trkpt lat="43.6837" lon="3.83275">
        <ele>91</ele>
        <time>2020-12-30T11:52:23Z</time>
      </trkpt>
      <trkpt lat="43.68372" lon="3.83269">
        <ele>91</ele>
        <time>2020-12-30T11:52:25Z</time>
      </trkpt>
      <trkpt lat="43.68374" lon="3.83262">
        <ele>91</ele>
        <time>2020-12-30T11:52:27Z</time>
      </trkpt>
      <trkpt lat="43.68374" lon="3.83256">
        <ele>91</ele>
        <time>2020-12-30T11:52:30Z</time>
      </trkpt>
      <trkpt lat="43.68375" lon="3.83247">
        <ele>91</ele>
        <time>2020-12-30T11:52:32Z</time>
      </trkpt>
      <trkpt lat="43.68375" lon="3.8324">
        <ele>91</ele>
        <time>2020-12-30T11:52:34Z</time>
      </trkpt>
      <trkpt lat="43.68374" lon="3.83233">
        <ele>91</ele>
        <time>2020-12-30T11:52:36Z</time>
      </trkpt>
      <trkpt lat="43.68373" lon="3.83227">
        <ele>90</ele>
        <time>2020-12-30T11:52:38Z</time>
      </trkpt>
      <trkpt lat="43.68371" lon="3.83219">
        <ele>90</ele>
        <time>2020-12-30T11:52:40Z</time>
      </trkpt>
      <trkpt lat="43.68371" lon="3.83212">
        <ele>89</ele>
        <time>2020-12-30T11:52:43Z</time>
      </trkpt>
      <trkpt lat="43.68367" lon="3.83206">
        <ele>89</ele>
        <time>2020-12-30T11:52:46Z</time>
      </trkpt>
      <trkpt lat="43.68362" lon="3.83206">
        <ele>88</ele>
        <time>2020-12-30T11:52:49Z</time>
      </trkpt>
      <trkpt lat="43.6836" lon="3.83213">
        <ele>87</ele>
        <time>2020-12-30T11:52:51Z</time>
      </trkpt>
      <trkpt lat="43.68357" lon="3.83222">
        <ele>87</ele>
        <time>2020-12-30T11:52:53Z</time>
      </trkpt>
      <trkpt lat="43.68356" lon="3.83233">
        <ele>86</ele>
        <time>2020-12-30T11:52:55Z</time>
      </trkpt>
      <trkpt lat="43.68353" lon="3.83243">
        <ele>86</ele>
        <time>2020-12-30T11:52:57Z</time>
      </trkpt>
      <trkpt lat="43.68349" lon="3.83252">
        <ele>86</ele>
        <time>2020-12-30T11:52:59Z</time>
      </trkpt>
      <trkpt lat="43.68345" lon="3.83258">
        <ele>86</ele>
        <time>2020-12-30T11:53:02Z</time>
      </trkpt>
      <trkpt lat="43.68343" lon="3.83264">
        <ele>86</ele>
        <time>2020-12-30T11:53:05Z</time>
      </trkpt>
      <trkpt lat="43.68342" lon="3.83271">
        <ele>86</ele>
        <time>2020-12-30T11:53:07Z</time>
      </trkpt>
      <trkpt lat="43.6834" lon="3.83277">
        <ele>86</ele>
        <time>2020-12-30T11:53:09Z</time>
      </trkpt>
      <trkpt lat="43.68338" lon="3.83285">
        <ele>86</ele>
        <time>2020-12-30T11:53:11Z</time>
      </trkpt>
      <trkpt lat="43.68335" lon="3.83292">
        <ele>86</ele>
        <time>2020-12-30T11:53:13Z</time>
      </trkpt>
      <trkpt lat="43.68332" lon="3.83299">
        <ele>86</ele>
        <time>2020-12-30T11:53:14Z</time>
      </trkpt>
      <trkpt lat="43.68329" lon="3.83308">
        <ele>86</ele>
        <time>2020-12-30T11:53:15Z</time>
      </trkpt>
      <trkpt lat="43.68325" lon="3.83317">
        <ele>86</ele>
        <time>2020-12-30T11:53:17Z</time>
      </trkpt>
      <trkpt lat="43.6832" lon="3.83325">
        <ele>85</ele>
        <time>2020-12-30T11:53:19Z</time>
      </trkpt>
      <trkpt lat="43.6832" lon="3.83335">
        <ele>85</ele>
        <time>2020-12-30T11:53:21Z</time>
      </trkpt>
      <trkpt lat="43.68319" lon="3.83343">
        <ele>85</ele>
        <time>2020-12-30T11:53:23Z</time>
      </trkpt>
      <trkpt lat="43.68311" lon="3.83344">
        <ele>85</ele>
        <time>2020-12-30T11:53:26Z</time>
      </trkpt>
      <trkpt lat="43.68304" lon="3.83349">
        <ele>85</ele>
        <time>2020-12-30T11:53:27Z</time>
      </trkpt>
      <trkpt lat="43.68298" lon="3.83346">
        <ele>85</ele>
        <time>2020-12-30T11:53:29Z</time>
      </trkpt>
      <trkpt lat="43.68293" lon="3.8334">
        <ele>85</ele>
        <time>2020-12-30T11:53:31Z</time>
      </trkpt>
      <trkpt lat="43.68288" lon="3.83338">
        <ele>84</ele>
        <time>2020-12-30T11:53:33Z</time>
      </trkpt>
      <trkpt lat="43.68284" lon="3.83336">
        <ele>84</ele>
        <time>2020-12-30T11:53:36Z</time>
      </trkpt>
      <trkpt lat="43.68273" lon="3.83324">
        <ele>83</ele>
        <time>2020-12-30T11:53:40Z</time>
      </trkpt>
      <trkpt lat="43.68272" lon="3.83318">
        <ele>83</ele>
        <time>2020-12-30T11:53:42Z</time>
      </trkpt>
      <trkpt lat="43.68268" lon="3.83313">
        <ele>83</ele>
        <time>2020-12-30T11:53:44Z</time>
      </trkpt>
      <trkpt lat="43.68262" lon="3.83312">
        <ele>83</ele>
        <time>2020-12-30T11:53:47Z</time>
      </trkpt>
      <trkpt lat="43.68258" lon="3.83317">
        <ele>84</ele>
        <time>2020-12-30T11:53:50Z</time>
      </trkpt>
      <trkpt lat="43.68253" lon="3.83324">
        <ele>85</ele>
        <time>2020-12-30T11:53:52Z</time>
      </trkpt>
      <trkpt lat="43.68249" lon="3.83332">
        <ele>86</ele>
        <time>2020-12-30T11:53:53Z</time>
      </trkpt>
      <trkpt lat="43.68242" lon="3.83339">
        <ele>87</ele>
        <time>2020-12-30T11:53:55Z</time>
      </trkpt>
      <trkpt lat="43.68239" lon="3.83344">
        <ele>87</ele>
        <time>2020-12-30T11:53:56Z</time>
      </trkpt>
      <trkpt lat="43.68235" lon="3.83347">
        <ele>88</ele>
        <time>2020-12-30T11:53:57Z</time>
      </trkpt>
      <trkpt lat="43.68227" lon="3.83353">
        <ele>88</ele>
        <time>2020-12-30T11:53:59Z</time>
      </trkpt>
      <trkpt lat="43.68221" lon="3.83359">
        <ele>88</ele>
        <time>2020-12-30T11:54:01Z</time>
      </trkpt>
      <trkpt lat="43.68217" lon="3.83363">
        <ele>89</ele>
        <time>2020-12-30T11:54:02Z</time>
      </trkpt>
      <trkpt lat="43.68213" lon="3.83366">
        <ele>88</ele>
        <time>2020-12-30T11:54:03Z</time>
      </trkpt>
      <trkpt lat="43.68205" lon="3.83373">
        <ele>88</ele>
        <time>2020-12-30T11:54:05Z</time>
      </trkpt>
      <trkpt lat="43.68199" lon="3.8338">
        <ele>87</ele>
        <time>2020-12-30T11:54:07Z</time>
      </trkpt>
      <trkpt lat="43.68193" lon="3.83388">
        <ele>87</ele>
        <time>2020-12-30T11:54:09Z</time>
      </trkpt>
      <trkpt lat="43.68189" lon="3.83398">
        <ele>86</ele>
        <time>2020-12-30T11:54:12Z</time>
      </trkpt>
      <trkpt lat="43.68185" lon="3.83404">
        <ele>86</ele>
        <time>2020-12-30T11:54:13Z</time>
      </trkpt>
      <trkpt lat="43.68182" lon="3.83409">
        <ele>86</ele>
        <time>2020-12-30T11:54:14Z</time>
      </trkpt>
      <trkpt lat="43.68179" lon="3.83415">
        <ele>86</ele>
        <time>2020-12-30T11:54:15Z</time>
      </trkpt>
      <trkpt lat="43.68176" lon="3.83421">
        <ele>86</ele>
        <time>2020-12-30T11:54:16Z</time>
      </trkpt>
      <trkpt lat="43.68173" lon="3.83426">
        <ele>86</ele>
        <time>2020-12-30T11:54:17Z</time>
      </trkpt>
      <trkpt lat="43.68168" lon="3.83434">
        <ele>85</ele>
        <time>2020-12-30T11:54:18Z</time>
      </trkpt>
      <trkpt lat="43.68164" lon="3.83438">
        <ele>85</ele>
        <time>2020-12-30T11:54:19Z</time>
      </trkpt>
      <trkpt lat="43.68161" lon="3.83444">
        <ele>85</ele>
        <time>2020-12-30T11:54:20Z</time>
      </trkpt>
      <trkpt lat="43.68158" lon="3.83449">
        <ele>86</ele>
        <time>2020-12-30T11:54:21Z</time>
      </trkpt>
      <trkpt lat="43.68153" lon="3.83458">
        <ele>86</ele>
        <time>2020-12-30T11:54:23Z</time>
      </trkpt>
      <trkpt lat="43.68147" lon="3.83467">
        <ele>86</ele>
        <time>2020-12-30T11:54:25Z</time>
      </trkpt>
      <trkpt lat="43.68143" lon="3.83471">
        <ele>86</ele>
        <time>2020-12-30T11:54:26Z</time>
      </trkpt>
      <trkpt lat="43.68139" lon="3.83475">
        <ele>87</ele>
        <time>2020-12-30T11:54:27Z</time>
      </trkpt>
      <trkpt lat="43.68136" lon="3.83479">
        <ele>87</ele>
        <time>2020-12-30T11:54:28Z</time>
      </trkpt>
      <trkpt lat="43.68132" lon="3.83484">
        <ele>87</ele>
        <time>2020-12-30T11:54:29Z</time>
      </trkpt>
      <trkpt lat="43.68128" lon="3.83489">
        <ele>86</ele>
        <time>2020-12-30T11:54:30Z</time>
      </trkpt>
      <trkpt lat="43.68125" lon="3.83494">
        <ele>86</ele>
        <time>2020-12-30T11:54:31Z</time>
      </trkpt>
      <trkpt lat="43.68122" lon="3.835">
        <ele>86</ele>
        <time>2020-12-30T11:54:32Z</time>
      </trkpt>
      <trkpt lat="43.68119" lon="3.83508">
        <ele>86</ele>
        <time>2020-12-30T11:54:33Z</time>
      </trkpt>
      <trkpt lat="43.68118" lon="3.83514">
        <ele>85</ele>
        <time>2020-12-30T11:54:34Z</time>
      </trkpt>
      <trkpt lat="43.68114" lon="3.8352">
        <ele>85</ele>
        <time>2020-12-30T11:54:35Z</time>
      </trkpt>
      <trkpt lat="43.6811" lon="3.83526">
        <ele>84</ele>
        <time>2020-12-30T11:54:36Z</time>
      </trkpt>
      <trkpt lat="43.68107" lon="3.83531">
        <ele>83</ele>
        <time>2020-12-30T11:54:37Z</time>
      </trkpt>
      <trkpt lat="43.68103" lon="3.83537">
        <ele>83</ele>
        <time>2020-12-30T11:54:38Z</time>
      </trkpt>
      <trkpt lat="43.681" lon="3.83544">
        <ele>83</ele>
        <time>2020-12-30T11:54:39Z</time>
      </trkpt>
      <trkpt lat="43.68095" lon="3.83549">
        <ele>83</ele>
        <time>2020-12-30T11:54:40Z</time>
      </trkpt>
      <trkpt lat="43.6809" lon="3.83553">
        <ele>82</ele>
        <time>2020-12-30T11:54:41Z</time>
      </trkpt>
      <trkpt lat="43.68085" lon="3.83557">
        <ele>82</ele>
        <time>2020-12-30T11:54:42Z</time>
      </trkpt>
      <trkpt lat="43.6808" lon="3.83562">
        <ele>82</ele>
        <time>2020-12-30T11:54:43Z</time>
      </trkpt>
      <trkpt lat="43.68075" lon="3.83566">
        <ele>82</ele>
        <time>2020-12-30T11:54:44Z</time>
      </trkpt>
      <trkpt lat="43.6807" lon="3.8357">
        <ele>81</ele>
        <time>2020-12-30T11:54:45Z</time>
      </trkpt>
      <trkpt lat="43.68065" lon="3.83575">
        <ele>81</ele>
        <time>2020-12-30T11:54:46Z</time>
      </trkpt>
      <trkpt lat="43.6806" lon="3.8358">
        <ele>81</ele>
        <time>2020-12-30T11:54:47Z</time>
      </trkpt>
      <trkpt lat="43.68055" lon="3.83585">
        <ele>81</ele>
        <time>2020-12-30T11:54:48Z</time>
      </trkpt>
      <trkpt lat="43.6805" lon="3.8359">
        <ele>81</ele>
        <time>2020-12-30T11:54:49Z</time>
      </trkpt>
      <trkpt lat="43.68046" lon="3.83595">
        <ele>81</ele>
        <time>2020-12-30T11:54:50Z</time>
      </trkpt>
      <trkpt lat="43.68041" lon="3.83599">
        <ele>81</ele>
        <time>2020-12-30T11:54:51Z</time>
      </trkpt>
      <trkpt lat="43.68036" lon="3.83604">
        <ele>81</ele>
        <time>2020-12-30T11:54:52Z</time>
      </trkpt>
      <trkpt lat="43.68031" lon="3.83609">
        <ele>81</ele>
        <time>2020-12-30T11:54:53Z</time>
      </trkpt>
      <trkpt lat="43.68026" lon="3.83614">
        <ele>81</ele>
        <time>2020-12-30T11:54:54Z</time>
      </trkpt>
      <trkpt lat="43.68023" lon="3.8362">
        <ele>82</ele>
        <time>2020-12-30T11:54:55Z</time>
      </trkpt>
      <trkpt lat="43.68018" lon="3.83625">
        <ele>82</ele>
        <time>2020-12-30T11:54:56Z</time>
      </trkpt>
      <trkpt lat="43.68014" lon="3.83631">
        <ele>83</ele>
        <time>2020-12-30T11:54:57Z</time>
      </trkpt>
      <trkpt lat="43.6801" lon="3.83637">
        <ele>84</ele>
        <time>2020-12-30T11:54:58Z</time>
      </trkpt>
      <trkpt lat="43.68005" lon="3.83642">
        <ele>84</ele>
        <time>2020-12-30T11:54:59Z</time>
      </trkpt>
      <trkpt lat="43.68" lon="3.83646">
        <ele>84</ele>
        <time>2020-12-30T11:55:00Z</time>
      </trkpt>
      <trkpt lat="43.67995" lon="3.83652">
        <ele>84</ele>
        <time>2020-12-30T11:55:01Z</time>
      </trkpt>
      <trkpt lat="43.67991" lon="3.83657">
        <ele>84</ele>
        <time>2020-12-30T11:55:02Z</time>
      </trkpt>
      <trkpt lat="43.67985" lon="3.83662">
        <ele>83</ele>
        <time>2020-12-30T11:55:03Z</time>
      </trkpt>
      <trkpt lat="43.67982" lon="3.83668">
        <ele>83</ele>
        <time>2020-12-30T11:55:04Z</time>
      </trkpt>
      <trkpt lat="43.67978" lon="3.83674">
        <ele>83</ele>
        <time>2020-12-30T11:55:05Z</time>
      </trkpt>
      <trkpt lat="43.67975" lon="3.83681">
        <ele>83</ele>
        <time>2020-12-30T11:55:06Z</time>
      </trkpt>
      <trkpt lat="43.67972" lon="3.83687">
        <ele>84</ele>
        <time>2020-12-30T11:55:07Z</time>
      </trkpt>
      <trkpt lat="43.67968" lon="3.83692">
        <ele>84</ele>
        <time>2020-12-30T11:55:08Z</time>
      </trkpt>
      <trkpt lat="43.67964" lon="3.83695">
        <ele>84</ele>
        <time>2020-12-30T11:55:09Z</time>
      </trkpt>
      <trkpt lat="43.67959" lon="3.83699">
        <ele>84</ele>
        <time>2020-12-30T11:55:10Z</time>
      </trkpt>
      <trkpt lat="43.67954" lon="3.83703">
        <ele>84</ele>
        <time>2020-12-30T11:55:11Z</time>
      </trkpt>
      <trkpt lat="43.6795" lon="3.83708">
        <ele>85</ele>
        <time>2020-12-30T11:55:12Z</time>
      </trkpt>
      <trkpt lat="43.67946" lon="3.83713">
        <ele>85</ele>
        <time>2020-12-30T11:55:13Z</time>
      </trkpt>
      <trkpt lat="43.67942" lon="3.83718">
        <ele>86</ele>
        <time>2020-12-30T11:55:14Z</time>
      </trkpt>
      <trkpt lat="43.67938" lon="3.83722">
        <ele>87</ele>
        <time>2020-12-30T11:55:15Z</time>
      </trkpt>
      <trkpt lat="43.67933" lon="3.83727">
        <ele>87</ele>
        <time>2020-12-30T11:55:16Z</time>
      </trkpt>
      <trkpt lat="43.67929" lon="3.83732">
        <ele>87</ele>
        <time>2020-12-30T11:55:17Z</time>
      </trkpt>
      <trkpt lat="43.67923" lon="3.83736">
        <ele>87</ele>
        <time>2020-12-30T11:55:18Z</time>
      </trkpt>
      <trkpt lat="43.67918" lon="3.8374">
        <ele>87</ele>
        <time>2020-12-30T11:55:19Z</time>
      </trkpt>
      <trkpt lat="43.67913" lon="3.83744">
        <ele>87</ele>
        <time>2020-12-30T11:55:20Z</time>
      </trkpt>
      <trkpt lat="43.67908" lon="3.83747">
        <ele>87</ele>
        <time>2020-12-30T11:55:21Z</time>
      </trkpt>
      <trkpt lat="43.67902" lon="3.83751">
        <ele>87</ele>
        <time>2020-12-30T11:55:22Z</time>
      </trkpt>
      <trkpt lat="43.67897" lon="3.83755">
        <ele>88</ele>
        <time>2020-12-30T11:55:23Z</time>
      </trkpt>
      <trkpt lat="43.67893" lon="3.83759">
        <ele>88</ele>
        <time>2020-12-30T11:55:24Z</time>
      </trkpt>
      <trkpt lat="43.67887" lon="3.83762">
        <ele>88</ele>
        <time>2020-12-30T11:55:25Z</time>
      </trkpt>
      <trkpt lat="43.67883" lon="3.83764">
        <ele>88</ele>
        <time>2020-12-30T11:55:26Z</time>
      </trkpt>
      <trkpt lat="43.67878" lon="3.83767">
        <ele>88</ele>
        <time>2020-12-30T11:55:27Z</time>
      </trkpt>
      <trkpt lat="43.67873" lon="3.83771">
        <ele>82</ele>
        <time>2020-12-30T11:55:28Z</time>
      </trkpt>
      <trkpt lat="43.67868" lon="3.83774">
        <ele>78</ele>
        <time>2020-12-30T11:55:29Z</time>
      </trkpt>
      <trkpt lat="43.67864" lon="3.83778">
        <ele>76</ele>
        <time>2020-12-30T11:55:30Z</time>
      </trkpt>
      <trkpt lat="43.67859" lon="3.83781">
        <ele>75</ele>
        <time>2020-12-30T11:55:31Z</time>
      </trkpt>
      <trkpt lat="43.67853" lon="3.83784">
        <ele>74</ele>
        <time>2020-12-30T11:55:32Z</time>
      </trkpt>
      <trkpt lat="43.67848" lon="3.83787">
        <ele>80</ele>
        <time>2020-12-30T11:55:33Z</time>
      </trkpt>
      <trkpt lat="43.67843" lon="3.8379">
        <ele>83</ele>
        <time>2020-12-30T11:55:34Z</time>
      </trkpt>
      <trkpt lat="43.67838" lon="3.83794">
        <ele>84</ele>
        <time>2020-12-30T11:55:35Z</time>
      </trkpt>
      <trkpt lat="43.67833" lon="3.83798">
        <ele>85</ele>
        <time>2020-12-30T11:55:36Z</time>
      </trkpt>
      <trkpt lat="43.67828" lon="3.83801">
        <ele>85</ele>
        <time>2020-12-30T11:55:37Z</time>
      </trkpt>
      <trkpt lat="43.67824" lon="3.83805">
        <ele>85</ele>
        <time>2020-12-30T11:55:38Z</time>
      </trkpt>
      <trkpt lat="43.6782" lon="3.83809">
        <ele>85</ele>
        <time>2020-12-30T11:55:39Z</time>
      </trkpt>
      <trkpt lat="43.67816" lon="3.83814">
        <ele>85</ele>
        <time>2020-12-30T11:55:40Z</time>
      </trkpt>
      <trkpt lat="43.67814" lon="3.8382">
        <ele>85</ele>
        <time>2020-12-30T11:55:41Z</time>
      </trkpt>
      <trkpt lat="43.67812" lon="3.83826">
        <ele>85</ele>
        <time>2020-12-30T11:55:42Z</time>
      </trkpt>
      <trkpt lat="43.67811" lon="3.83833">
        <ele>85</ele>
        <time>2020-12-30T11:55:43Z</time>
      </trkpt>
      <trkpt lat="43.67809" lon="3.83839">
        <ele>86</ele>
        <time>2020-12-30T11:55:44Z</time>
      </trkpt>
      <trkpt lat="43.67807" lon="3.83845">
        <ele>86</ele>
        <time>2020-12-30T11:55:45Z</time>
      </trkpt>
      <trkpt lat="43.67805" lon="3.83852">
        <ele>87</ele>
        <time>2020-12-30T11:55:46Z</time>
      </trkpt>
      <trkpt lat="43.67803" lon="3.83857">
        <ele>87</ele>
        <time>2020-12-30T11:55:47Z</time>
      </trkpt>
      <trkpt lat="43.678" lon="3.83863">
        <ele>87</ele>
        <time>2020-12-30T11:55:48Z</time>
      </trkpt>
      <trkpt lat="43.67797" lon="3.83868">
        <ele>87</ele>
        <time>2020-12-30T11:55:49Z</time>
      </trkpt>
      <trkpt lat="43.67795" lon="3.83875">
        <ele>87</ele>
        <time>2020-12-30T11:55:50Z</time>
      </trkpt>
      <trkpt lat="43.67791" lon="3.83881">
        <ele>87</ele>
        <time>2020-12-30T11:55:52Z</time>
      </trkpt>
      <trkpt lat="43.67787" lon="3.83885">
        <ele>87</ele>
        <time>2020-12-30T11:55:54Z</time>
      </trkpt>
      <trkpt lat="43.67781" lon="3.83887">
        <ele>86</ele>
        <time>2020-12-30T11:55:56Z</time>
      </trkpt>
      <trkpt lat="43.67773" lon="3.8389">
        <ele>86</ele>
        <time>2020-12-30T11:55:58Z</time>
      </trkpt>
      <trkpt lat="43.67766" lon="3.83898">
        <ele>86</ele>
        <time>2020-12-30T11:56:00Z</time>
      </trkpt>
      <trkpt lat="43.67763" lon="3.83903">
        <ele>86</ele>
        <time>2020-12-30T11:56:01Z</time>
      </trkpt>
      <trkpt lat="43.67759" lon="3.83907">
        <ele>86</ele>
        <time>2020-12-30T11:56:02Z</time>
      </trkpt>
      <trkpt lat="43.67755" lon="3.83915">
        <ele>86</ele>
        <time>2020-12-30T11:56:03Z</time>
      </trkpt>
      <trkpt lat="43.67751" lon="3.8392">
        <ele>86</ele>
        <time>2020-12-30T11:56:04Z</time>
      </trkpt>
      <trkpt lat="43.67748" lon="3.83926">
        <ele>85</ele>
        <time>2020-12-30T11:56:05Z</time>
      </trkpt>
      <trkpt lat="43.67744" lon="3.83932">
        <ele>85</ele>
        <time>2020-12-30T11:56:06Z</time>
      </trkpt>
      <trkpt lat="43.67741" lon="3.83938">
        <ele>85</ele>
        <time>2020-12-30T11:56:07Z</time>
      </trkpt>
      <trkpt lat="43.67739" lon="3.83944">
        <ele>84</ele>
        <time>2020-12-30T11:56:08Z</time>
      </trkpt>
      <trkpt lat="43.67736" lon="3.8395">
        <ele>84</ele>
        <time>2020-12-30T11:56:09Z</time>
      </trkpt>
      <trkpt lat="43.67733" lon="3.83956">
        <ele>84</ele>
        <time>2020-12-30T11:56:10Z</time>
      </trkpt>
      <trkpt lat="43.67729" lon="3.8396">
        <ele>83</ele>
        <time>2020-12-30T11:56:11Z</time>
      </trkpt>
      <trkpt lat="43.67725" lon="3.83963">
        <ele>82</ele>
        <time>2020-12-30T11:56:12Z</time>
      </trkpt>
      <trkpt lat="43.67719" lon="3.83966">
        <ele>82</ele>
        <time>2020-12-30T11:56:13Z</time>
      </trkpt>
      <trkpt lat="43.67714" lon="3.83969">
        <ele>81</ele>
        <time>2020-12-30T11:56:14Z</time>
      </trkpt>
      <trkpt lat="43.67706" lon="3.83971">
        <ele>81</ele>
        <time>2020-12-30T11:56:15Z</time>
      </trkpt>
      <trkpt lat="43.677" lon="3.83974">
        <ele>80</ele>
        <time>2020-12-30T11:56:16Z</time>
      </trkpt>
      <trkpt lat="43.67695" lon="3.83976">
        <ele>80</ele>
        <time>2020-12-30T11:56:17Z</time>
      </trkpt>
      <trkpt lat="43.67691" lon="3.83979">
        <ele>80</ele>
        <time>2020-12-30T11:56:18Z</time>
      </trkpt>
      <trkpt lat="43.67685" lon="3.83979">
        <ele>80</ele>
        <time>2020-12-30T11:56:19Z</time>
      </trkpt>
      <trkpt lat="43.67681" lon="3.83978">
        <ele>80</ele>
        <time>2020-12-30T11:56:20Z</time>
      </trkpt>
      <trkpt lat="43.67676" lon="3.83975">
        <ele>80</ele>
        <time>2020-12-30T11:56:21Z</time>
      </trkpt>
      <trkpt lat="43.67672" lon="3.83973">
        <ele>80</ele>
        <time>2020-12-30T11:56:22Z</time>
      </trkpt>
      <trkpt lat="43.67664" lon="3.8397">
        <ele>79</ele>
        <time>2020-12-30T11:56:24Z</time>
      </trkpt>
      <trkpt lat="43.67659" lon="3.83968">
        <ele>79</ele>
        <time>2020-12-30T11:56:25Z</time>
      </trkpt>
      <trkpt lat="43.67654" lon="3.83966">
        <ele>79</ele>
        <time>2020-12-30T11:56:26Z</time>
      </trkpt>
      <trkpt lat="43.67649" lon="3.83965">
        <ele>79</ele>
        <time>2020-12-30T11:56:27Z</time>
      </trkpt>
      <trkpt lat="43.67643" lon="3.83965">
        <ele>79</ele>
        <time>2020-12-30T11:56:28Z</time>
      </trkpt>
      <trkpt lat="43.67638" lon="3.83965">
        <ele>79</ele>
        <time>2020-12-30T11:56:29Z</time>
      </trkpt>
      <trkpt lat="43.67632" lon="3.83965">
        <ele>79</ele>
        <time>2020-12-30T11:56:30Z</time>
      </trkpt>
      <trkpt lat="43.67627" lon="3.83964">
        <ele>80</ele>
        <time>2020-12-30T11:56:31Z</time>
      </trkpt>
      <trkpt lat="43.67621" lon="3.83966">
        <ele>80</ele>
        <time>2020-12-30T11:56:32Z</time>
      </trkpt>
      <trkpt lat="43.67615" lon="3.83968">
        <ele>79</ele>
        <time>2020-12-30T11:56:33Z</time>
      </trkpt>
      <trkpt lat="43.67609" lon="3.83969">
        <ele>79</ele>
        <time>2020-12-30T11:56:34Z</time>
      </trkpt>
      <trkpt lat="43.67604" lon="3.83971">
        <ele>79</ele>
        <time>2020-12-30T11:56:35Z</time>
      </trkpt>
      <trkpt lat="43.67598" lon="3.83973">
        <ele>79</ele>
        <time>2020-12-30T11:56:36Z</time>
      </trkpt>
      <trkpt lat="43.67594" lon="3.83975">
        <ele>79</ele>
        <time>2020-12-30T11:56:37Z</time>
      </trkpt>
      <trkpt lat="43.67588" lon="3.83977">
        <ele>80</ele>
        <time>2020-12-30T11:56:38Z</time>
      </trkpt>
      <trkpt lat="43.67583" lon="3.83977">
        <ele>80</ele>
        <time>2020-12-30T11:56:39Z</time>
      </trkpt>
      <trkpt lat="43.67578" lon="3.83976">
        <ele>81</ele>
        <time>2020-12-30T11:56:40Z</time>
      </trkpt>
      <trkpt lat="43.67573" lon="3.83975">
        <ele>81</ele>
        <time>2020-12-30T11:56:41Z</time>
      </trkpt>
      <trkpt lat="43.67567" lon="3.83974">
        <ele>81</ele>
        <time>2020-12-30T11:56:42Z</time>
      </trkpt>
      <trkpt lat="43.67562" lon="3.83973">
        <ele>81</ele>
        <time>2020-12-30T11:56:43Z</time>
      </trkpt>
      <trkpt lat="43.67556" lon="3.83973">
        <ele>81</ele>
        <time>2020-12-30T11:56:44Z</time>
      </trkpt>
      <trkpt lat="43.6755" lon="3.83971">
        <ele>82</ele>
        <time>2020-12-30T11:56:45Z</time>
      </trkpt>
      <trkpt lat="43.67545" lon="3.83969">
        <ele>82</ele>
        <time>2020-12-30T11:56:46Z</time>
      </trkpt>
      <trkpt lat="43.67539" lon="3.83966">
        <ele>82</ele>
        <time>2020-12-30T11:56:47Z</time>
      </trkpt>
      <trkpt lat="43.67532" lon="3.83961">
        <ele>82</ele>
        <time>2020-12-30T11:56:48Z</time>
      </trkpt>
      <trkpt lat="43.67527" lon="3.83957">
        <ele>82</ele>
        <time>2020-12-30T11:56:49Z</time>
      </trkpt>
      <trkpt lat="43.67518" lon="3.83952">
        <ele>82</ele>
        <time>2020-12-30T11:56:51Z</time>
      </trkpt>
      <trkpt lat="43.67512" lon="3.83949">
        <ele>81</ele>
        <time>2020-12-30T11:56:52Z</time>
      </trkpt>
      <trkpt lat="43.67506" lon="3.83947">
        <ele>81</ele>
        <time>2020-12-30T11:56:53Z</time>
      </trkpt>
      <trkpt lat="43.67501" lon="3.83946">
        <ele>80</ele>
        <time>2020-12-30T11:56:54Z</time>
      </trkpt>
      <trkpt lat="43.67495" lon="3.83946">
        <ele>80</ele>
        <time>2020-12-30T11:56:55Z</time>
      </trkpt>
      <trkpt lat="43.67488" lon="3.83944">
        <ele>79</ele>
        <time>2020-12-30T11:56:56Z</time>
      </trkpt>
      <trkpt lat="43.67482" lon="3.83943">
        <ele>78</ele>
        <time>2020-12-30T11:56:57Z</time>
      </trkpt>
      <trkpt lat="43.67476" lon="3.83944">
        <ele>78</ele>
        <time>2020-12-30T11:56:58Z</time>
      </trkpt>
      <trkpt lat="43.67471" lon="3.83944">
        <ele>78</ele>
        <time>2020-12-30T11:56:59Z</time>
      </trkpt>
      <trkpt lat="43.67465" lon="3.83946">
        <ele>78</ele>
        <time>2020-12-30T11:57:00Z</time>
      </trkpt>
      <trkpt lat="43.67459" lon="3.83947">
        <ele>78</ele>
        <time>2020-12-30T11:57:01Z</time>
      </trkpt>
      <trkpt lat="43.67452" lon="3.83947">
        <ele>78</ele>
        <time>2020-12-30T11:57:02Z</time>
      </trkpt>
      <trkpt lat="43.67447" lon="3.83949">
        <ele>78</ele>
        <time>2020-12-30T11:57:03Z</time>
      </trkpt>
      <trkpt lat="43.67441" lon="3.83952">
        <ele>78</ele>
        <time>2020-12-30T11:57:04Z</time>
      </trkpt>
      <trkpt lat="43.67435" lon="3.83954">
        <ele>77</ele>
        <time>2020-12-30T11:57:05Z</time>
      </trkpt>
      <trkpt lat="43.6743" lon="3.83957">
        <ele>78</ele>
        <time>2020-12-30T11:57:06Z</time>
      </trkpt>
      <trkpt lat="43.67426" lon="3.83959">
        <ele>78</ele>
        <time>2020-12-30T11:57:07Z</time>
      </trkpt>
      <trkpt lat="43.67421" lon="3.83964">
        <ele>78</ele>
        <time>2020-12-30T11:57:08Z</time>
      </trkpt>
      <trkpt lat="43.67413" lon="3.83971">
        <ele>79</ele>
        <time>2020-12-30T11:57:10Z</time>
      </trkpt>
      <trkpt lat="43.67408" lon="3.83977">
        <ele>79</ele>
        <time>2020-12-30T11:57:11Z</time>
      </trkpt>
      <trkpt lat="43.67403" lon="3.83981">
        <ele>79</ele>
        <time>2020-12-30T11:57:12Z</time>
      </trkpt>
      <trkpt lat="43.67399" lon="3.83987">
        <ele>79</ele>
        <time>2020-12-30T11:57:13Z</time>
      </trkpt>
      <trkpt lat="43.67394" lon="3.8399">
        <ele>79</ele>
        <time>2020-12-30T11:57:14Z</time>
      </trkpt>
      <trkpt lat="43.6739" lon="3.83994">
        <ele>80</ele>
        <time>2020-12-30T11:57:15Z</time>
      </trkpt>
      <trkpt lat="43.67384" lon="3.83998">
        <ele>80</ele>
        <time>2020-12-30T11:57:16Z</time>
      </trkpt>
      <trkpt lat="43.67379" lon="3.84003">
        <ele>80</ele>
        <time>2020-12-30T11:57:17Z</time>
      </trkpt>
      <trkpt lat="43.67373" lon="3.84004">
        <ele>80</ele>
        <time>2020-12-30T11:57:18Z</time>
      </trkpt>
      <trkpt lat="43.67369" lon="3.84007">
        <ele>79</ele>
        <time>2020-12-30T11:57:19Z</time>
      </trkpt>
      <trkpt lat="43.67364" lon="3.84011">
        <ele>79</ele>
        <time>2020-12-30T11:57:20Z</time>
      </trkpt>
      <trkpt lat="43.6736" lon="3.84013">
        <ele>79</ele>
        <time>2020-12-30T11:57:21Z</time>
      </trkpt>
      <trkpt lat="43.67354" lon="3.84015">
        <ele>78</ele>
        <time>2020-12-30T11:57:22Z</time>
      </trkpt>
      <trkpt lat="43.67349" lon="3.84019">
        <ele>78</ele>
        <time>2020-12-30T11:57:23Z</time>
      </trkpt>
      <trkpt lat="43.67344" lon="3.84021">
        <ele>78</ele>
        <time>2020-12-30T11:57:24Z</time>
      </trkpt>
      <trkpt lat="43.67338" lon="3.84021">
        <ele>77</ele>
        <time>2020-12-30T11:57:25Z</time>
      </trkpt>
      <trkpt lat="43.67332" lon="3.84024">
        <ele>78</ele>
        <time>2020-12-30T11:57:26Z</time>
      </trkpt>
      <trkpt lat="43.67327" lon="3.84027">
        <ele>78</ele>
        <time>2020-12-30T11:57:27Z</time>
      </trkpt>
      <trkpt lat="43.67322" lon="3.84029">
        <ele>78</ele>
        <time>2020-12-30T11:57:28Z</time>
      </trkpt>
      <trkpt lat="43.67316" lon="3.84032">
        <ele>77</ele>
        <time>2020-12-30T11:57:29Z</time>
      </trkpt>
      <trkpt lat="43.67311" lon="3.84035">
        <ele>76</ele>
        <time>2020-12-30T11:57:30Z</time>
      </trkpt>
      <trkpt lat="43.67305" lon="3.84038">
        <ele>75</ele>
        <time>2020-12-30T11:57:31Z</time>
      </trkpt>
      <trkpt lat="43.67301" lon="3.84041">
        <ele>74</ele>
        <time>2020-12-30T11:57:32Z</time>
      </trkpt>
      <trkpt lat="43.67296" lon="3.84044">
        <ele>74</ele>
        <time>2020-12-30T11:57:33Z</time>
      </trkpt>
      <trkpt lat="43.67291" lon="3.84047">
        <ele>74</ele>
        <time>2020-12-30T11:57:34Z</time>
      </trkpt>
      <trkpt lat="43.67286" lon="3.84051">
        <ele>75</ele>
        <time>2020-12-30T11:57:35Z</time>
      </trkpt>
      <trkpt lat="43.67281" lon="3.84054">
        <ele>76</ele>
        <time>2020-12-30T11:57:36Z</time>
      </trkpt>
      <trkpt lat="43.67276" lon="3.84057">
        <ele>76</ele>
        <time>2020-12-30T11:57:37Z</time>
      </trkpt>
      <trkpt lat="43.6727" lon="3.8406">
        <ele>76</ele>
        <time>2020-12-30T11:57:38Z</time>
      </trkpt>
      <trkpt lat="43.67264" lon="3.84063">
        <ele>76</ele>
        <time>2020-12-30T11:57:39Z</time>
      </trkpt>
      <trkpt lat="43.6726" lon="3.84065">
        <ele>76</ele>
        <time>2020-12-30T11:57:40Z</time>
      </trkpt>
      <trkpt lat="43.67254" lon="3.84065">
        <ele>76</ele>
        <time>2020-12-30T11:57:42Z</time>
      </trkpt>
      <trkpt lat="43.67248" lon="3.84066">
        <ele>77</ele>
        <time>2020-12-30T11:57:44Z</time>
      </trkpt>
      <trkpt lat="43.67243" lon="3.84067">
        <ele>77</ele>
        <time>2020-12-30T11:57:45Z</time>
      </trkpt>
      <trkpt lat="43.67239" lon="3.84069">
        <ele>77</ele>
        <time>2020-12-30T11:57:46Z</time>
      </trkpt>
      <trkpt lat="43.67234" lon="3.84071">
        <ele>77</ele>
        <time>2020-12-30T11:57:47Z</time>
      </trkpt>
      <trkpt lat="43.6723" lon="3.84073">
        <ele>77</ele>
        <time>2020-12-30T11:57:48Z</time>
      </trkpt>
      <trkpt lat="43.67222" lon="3.84078">
        <ele>77</ele>
        <time>2020-12-30T11:57:50Z</time>
      </trkpt>
      <trkpt lat="43.67217" lon="3.84078">
        <ele>77</ele>
        <time>2020-12-30T11:57:51Z</time>
      </trkpt>
      <trkpt lat="43.67212" lon="3.8408">
        <ele>77</ele>
        <time>2020-12-30T11:57:52Z</time>
      </trkpt>
      <trkpt lat="43.67206" lon="3.84082">
        <ele>77</ele>
        <time>2020-12-30T11:57:53Z</time>
      </trkpt>
      <trkpt lat="43.67201" lon="3.84084">
        <ele>76</ele>
        <time>2020-12-30T11:57:54Z</time>
      </trkpt>
      <trkpt lat="43.67195" lon="3.84085">
        <ele>76</ele>
        <time>2020-12-30T11:57:55Z</time>
      </trkpt>
      <trkpt lat="43.6719" lon="3.84087">
        <ele>76</ele>
        <time>2020-12-30T11:57:56Z</time>
      </trkpt>
      <trkpt lat="43.67184" lon="3.84087">
        <ele>75</ele>
        <time>2020-12-30T11:57:57Z</time>
      </trkpt>
      <trkpt lat="43.67178" lon="3.84088">
        <ele>75</ele>
        <time>2020-12-30T11:57:58Z</time>
      </trkpt>
      <trkpt lat="43.67172" lon="3.84088">
        <ele>73</ele>
        <time>2020-12-30T11:57:59Z</time>
      </trkpt>
      <trkpt lat="43.67166" lon="3.84087">
        <ele>72</ele>
        <time>2020-12-30T11:58:00Z</time>
      </trkpt>
      <trkpt lat="43.67161" lon="3.84089">
        <ele>70</ele>
        <time>2020-12-30T11:58:01Z</time>
      </trkpt>
      <trkpt lat="43.67156" lon="3.8409">
        <ele>69</ele>
        <time>2020-12-30T11:58:02Z</time>
      </trkpt>
      <trkpt lat="43.67149" lon="3.84089">
        <ele>68</ele>
        <time>2020-12-30T11:58:03Z</time>
      </trkpt>
      <trkpt lat="43.67143" lon="3.84089">
        <ele>67</ele>
        <time>2020-12-30T11:58:04Z</time>
      </trkpt>
      <trkpt lat="43.67138" lon="3.84089">
        <ele>67</ele>
        <time>2020-12-30T11:58:05Z</time>
      </trkpt>
      <trkpt lat="43.67132" lon="3.8409">
        <ele>67</ele>
        <time>2020-12-30T11:58:06Z</time>
      </trkpt>
      <trkpt lat="43.67126" lon="3.8409">
        <ele>67</ele>
        <time>2020-12-30T11:58:07Z</time>
      </trkpt>
      <trkpt lat="43.6712" lon="3.84089">
        <ele>68</ele>
        <time>2020-12-30T11:58:08Z</time>
      </trkpt>
      <trkpt lat="43.67114" lon="3.8409">
        <ele>68</ele>
        <time>2020-12-30T11:58:09Z</time>
      </trkpt>
      <trkpt lat="43.67108" lon="3.84089">
        <ele>68</ele>
        <time>2020-12-30T11:58:10Z</time>
      </trkpt>
      <trkpt lat="43.67102" lon="3.84089">
        <ele>68</ele>
        <time>2020-12-30T11:58:11Z</time>
      </trkpt>
      <trkpt lat="43.67097" lon="3.8409">
        <ele>68</ele>
        <time>2020-12-30T11:58:12Z</time>
      </trkpt>
      <trkpt lat="43.6709" lon="3.84091">
        <ele>68</ele>
        <time>2020-12-30T11:58:13Z</time>
      </trkpt>
      <trkpt lat="43.67084" lon="3.84091">
        <ele>68</ele>
        <time>2020-12-30T11:58:14Z</time>
      </trkpt>
      <trkpt lat="43.67078" lon="3.84091">
        <ele>69</ele>
        <time>2020-12-30T11:58:15Z</time>
      </trkpt>
      <trkpt lat="43.67071" lon="3.84092">
        <ele>69</ele>
        <time>2020-12-30T11:58:16Z</time>
      </trkpt>
      <trkpt lat="43.67066" lon="3.84093">
        <ele>69</ele>
        <time>2020-12-30T11:58:17Z</time>
      </trkpt>
      <trkpt lat="43.6706" lon="3.84093">
        <ele>69</ele>
        <time>2020-12-30T11:58:18Z</time>
      </trkpt>
      <trkpt lat="43.67055" lon="3.84093">
        <ele>69</ele>
        <time>2020-12-30T11:58:19Z</time>
      </trkpt>
      <trkpt lat="43.67049" lon="3.84093">
        <ele>69</ele>
        <time>2020-12-30T11:58:20Z</time>
      </trkpt>
      <trkpt lat="43.67042" lon="3.84092">
        <ele>70</ele>
        <time>2020-12-30T11:58:21Z</time>
      </trkpt>
      <trkpt lat="43.67037" lon="3.84093">
        <ele>70</ele>
        <time>2020-12-30T11:58:22Z</time>
      </trkpt>
      <trkpt lat="43.67032" lon="3.84094">
        <ele>70</ele>
        <time>2020-12-30T11:58:23Z</time>
      </trkpt>
      <trkpt lat="43.67022" lon="3.84094">
        <ele>70</ele>
        <time>2020-12-30T11:58:25Z</time>
      </trkpt>
      <trkpt lat="43.67018" lon="3.84095">
        <ele>70</ele>
        <time>2020-12-30T11:58:26Z</time>
      </trkpt>
      <trkpt lat="43.67013" lon="3.84097">
        <ele>69</ele>
        <time>2020-12-30T11:58:27Z</time>
      </trkpt>
      <trkpt lat="43.67007" lon="3.84098">
        <ele>69</ele>
        <time>2020-12-30T11:58:28Z</time>
      </trkpt>
      <trkpt lat="43.67001" lon="3.841">
        <ele>69</ele>
        <time>2020-12-30T11:58:29Z</time>
      </trkpt>
      <trkpt lat="43.66996" lon="3.84101">
        <ele>69</ele>
        <time>2020-12-30T11:58:30Z</time>
      </trkpt>
      <trkpt lat="43.6699" lon="3.84101">
        <ele>69</ele>
        <time>2020-12-30T11:58:31Z</time>
      </trkpt>
      <trkpt lat="43.66985" lon="3.841">
        <ele>69</ele>
        <time>2020-12-30T11:58:32Z</time>
      </trkpt>
      <trkpt lat="43.6698" lon="3.841">
        <ele>69</ele>
        <time>2020-12-30T11:58:33Z</time>
      </trkpt>
      <trkpt lat="43.66974" lon="3.841">
        <ele>69</ele>
        <time>2020-12-30T11:58:34Z</time>
      </trkpt>
      <trkpt lat="43.66968" lon="3.841">
        <ele>69</ele>
        <time>2020-12-30T11:58:35Z</time>
      </trkpt>
      <trkpt lat="43.66963" lon="3.841">
        <ele>69</ele>
        <time>2020-12-30T11:58:36Z</time>
      </trkpt>
      <trkpt lat="43.66958" lon="3.84099">
        <ele>69</ele>
        <time>2020-12-30T11:58:37Z</time>
      </trkpt>
      <trkpt lat="43.66948" lon="3.84101">
        <ele>69</ele>
        <time>2020-12-30T11:58:39Z</time>
      </trkpt>
      <trkpt lat="43.66943" lon="3.84102">
        <ele>68</ele>
        <time>2020-12-30T11:58:40Z</time>
      </trkpt>
      <trkpt lat="43.66939" lon="3.84102">
        <ele>68</ele>
        <time>2020-12-30T11:58:41Z</time>
      </trkpt>
      <trkpt lat="43.66933" lon="3.84102">
        <ele>68</ele>
        <time>2020-12-30T11:58:42Z</time>
      </trkpt>
      <trkpt lat="43.66928" lon="3.84102">
        <ele>68</ele>
        <time>2020-12-30T11:58:43Z</time>
      </trkpt>
      <trkpt lat="43.66923" lon="3.84103">
        <ele>68</ele>
        <time>2020-12-30T11:58:44Z</time>
      </trkpt>
      <trkpt lat="43.66917" lon="3.84105">
        <ele>68</ele>
        <time>2020-12-30T11:58:45Z</time>
      </trkpt>
      <trkpt lat="43.66911" lon="3.84106">
        <ele>68</ele>
        <time>2020-12-30T11:58:46Z</time>
      </trkpt>
      <trkpt lat="43.66906" lon="3.84105">
        <ele>68</ele>
        <time>2020-12-30T11:58:47Z</time>
      </trkpt>
      <trkpt lat="43.66899" lon="3.84103">
        <ele>69</ele>
        <time>2020-12-30T11:58:48Z</time>
      </trkpt>
      <trkpt lat="43.66892" lon="3.84099">
        <ele>69</ele>
        <time>2020-12-30T11:58:49Z</time>
      </trkpt>
      <trkpt lat="43.66887" lon="3.84095">
        <ele>68</ele>
        <time>2020-12-30T11:58:50Z</time>
      </trkpt>
      <trkpt lat="43.66882" lon="3.84092">
        <ele>68</ele>
        <time>2020-12-30T11:58:51Z</time>
      </trkpt>
      <trkpt lat="43.66876" lon="3.84088">
        <ele>68</ele>
        <time>2020-12-30T11:58:52Z</time>
      </trkpt>
      <trkpt lat="43.66871" lon="3.84084">
        <ele>68</ele>
        <time>2020-12-30T11:58:53Z</time>
      </trkpt>
      <trkpt lat="43.66864" lon="3.84082">
        <ele>68</ele>
        <time>2020-12-30T11:58:54Z</time>
      </trkpt>
      <trkpt lat="43.66858" lon="3.8408">
        <ele>68</ele>
        <time>2020-12-30T11:58:55Z</time>
      </trkpt>
      <trkpt lat="43.66852" lon="3.84078">
        <ele>65</ele>
        <time>2020-12-30T11:58:56Z</time>
      </trkpt>
      <trkpt lat="43.66845" lon="3.84076">
        <ele>62</ele>
        <time>2020-12-30T11:58:57Z</time>
      </trkpt>
      <trkpt lat="43.66838" lon="3.84076">
        <ele>61</ele>
        <time>2020-12-30T11:58:58Z</time>
      </trkpt>
      <trkpt lat="43.66831" lon="3.84075">
        <ele>60</ele>
        <time>2020-12-30T11:58:59Z</time>
      </trkpt>
      <trkpt lat="43.66825" lon="3.84076">
        <ele>60</ele>
        <time>2020-12-30T11:59:00Z</time>
      </trkpt>
      <trkpt lat="43.66818" lon="3.84078">
        <ele>62</ele>
        <time>2020-12-30T11:59:01Z</time>
      </trkpt>
      <trkpt lat="43.66811" lon="3.84079">
        <ele>65</ele>
        <time>2020-12-30T11:59:02Z</time>
      </trkpt>
      <trkpt lat="43.66803" lon="3.84082">
        <ele>66</ele>
        <time>2020-12-30T11:59:03Z</time>
      </trkpt>
      <trkpt lat="43.66796" lon="3.84084">
        <ele>67</ele>
        <time>2020-12-30T11:59:04Z</time>
      </trkpt>
      <trkpt lat="43.66789" lon="3.84086">
        <ele>67</ele>
        <time>2020-12-30T11:59:05Z</time>
      </trkpt>
      <trkpt lat="43.66782" lon="3.84087">
        <ele>68</ele>
        <time>2020-12-30T11:59:06Z</time>
      </trkpt>
      <trkpt lat="43.66776" lon="3.8409">
        <ele>68</ele>
        <time>2020-12-30T11:59:07Z</time>
      </trkpt>
      <trkpt lat="43.66769" lon="3.84093">
        <ele>68</ele>
        <time>2020-12-30T11:59:08Z</time>
      </trkpt>
      <trkpt lat="43.66763" lon="3.84096">
        <ele>69</ele>
        <time>2020-12-30T11:59:09Z</time>
      </trkpt>
      <trkpt lat="43.66756" lon="3.84099">
        <ele>69</ele>
        <time>2020-12-30T11:59:10Z</time>
      </trkpt>
      <trkpt lat="43.6675" lon="3.84102">
        <ele>69</ele>
        <time>2020-12-30T11:59:11Z</time>
      </trkpt>
      <trkpt lat="43.66744" lon="3.84105">
        <ele>69</ele>
        <time>2020-12-30T11:59:12Z</time>
      </trkpt>
      <trkpt lat="43.66737" lon="3.84107">
        <ele>69</ele>
        <time>2020-12-30T11:59:13Z</time>
      </trkpt>
      <trkpt lat="43.66731" lon="3.84109">
        <ele>69</ele>
        <time>2020-12-30T11:59:14Z</time>
      </trkpt>
      <trkpt lat="43.66723" lon="3.8411">
        <ele>69</ele>
        <time>2020-12-30T11:59:15Z</time>
      </trkpt>
      <trkpt lat="43.66716" lon="3.84113">
        <ele>69</ele>
        <time>2020-12-30T11:59:16Z</time>
      </trkpt>
      <trkpt lat="43.66709" lon="3.84114">
        <ele>69</ele>
        <time>2020-12-30T11:59:17Z</time>
      </trkpt>
      <trkpt lat="43.66702" lon="3.84115">
        <ele>69</ele>
        <time>2020-12-30T11:59:18Z</time>
      </trkpt>
      <trkpt lat="43.66695" lon="3.84116">
        <ele>69</ele>
        <time>2020-12-30T11:59:19Z</time>
      </trkpt>
      <trkpt lat="43.66689" lon="3.84117">
        <ele>68</ele>
        <time>2020-12-30T11:59:20Z</time>
      </trkpt>
      <trkpt lat="43.66682" lon="3.84117">
        <ele>68</ele>
        <time>2020-12-30T11:59:21Z</time>
      </trkpt>
      <trkpt lat="43.66675" lon="3.84117">
        <ele>68</ele>
        <time>2020-12-30T11:59:22Z</time>
      </trkpt>
      <trkpt lat="43.66668" lon="3.84116">
        <ele>68</ele>
        <time>2020-12-30T11:59:23Z</time>
      </trkpt>
      <trkpt lat="43.66661" lon="3.84115">
        <ele>68</ele>
        <time>2020-12-30T11:59:24Z</time>
      </trkpt>
      <trkpt lat="43.66655" lon="3.84115">
        <ele>68</ele>
        <time>2020-12-30T11:59:25Z</time>
      </trkpt>
      <trkpt lat="43.66648" lon="3.84114">
        <ele>67</ele>
        <time>2020-12-30T11:59:26Z</time>
      </trkpt>
      <trkpt lat="43.66641" lon="3.84113">
        <ele>67</ele>
        <time>2020-12-30T11:59:27Z</time>
      </trkpt>
      <trkpt lat="43.66634" lon="3.84112">
        <ele>67</ele>
        <time>2020-12-30T11:59:28Z</time>
      </trkpt>
      <trkpt lat="43.66628" lon="3.84111">
        <ele>68</ele>
        <time>2020-12-30T11:59:29Z</time>
      </trkpt>
      <trkpt lat="43.66622" lon="3.8411">
        <ele>68</ele>
        <time>2020-12-30T11:59:30Z</time>
      </trkpt>
      <trkpt lat="43.66616" lon="3.84108">
        <ele>68</ele>
        <time>2020-12-30T11:59:31Z</time>
      </trkpt>
      <trkpt lat="43.6661" lon="3.84106">
        <ele>68</ele>
        <time>2020-12-30T11:59:32Z</time>
      </trkpt>
      <trkpt lat="43.66605" lon="3.84104">
        <ele>68</ele>
        <time>2020-12-30T11:59:33Z</time>
      </trkpt>
      <trkpt lat="43.66599" lon="3.84102">
        <ele>68</ele>
        <time>2020-12-30T11:59:34Z</time>
      </trkpt>
      <trkpt lat="43.66595" lon="3.841">
        <ele>67</ele>
        <time>2020-12-30T11:59:35Z</time>
      </trkpt>
      <trkpt lat="43.6659" lon="3.841">
        <ele>67</ele>
        <time>2020-12-30T11:59:36Z</time>
      </trkpt>
      <trkpt lat="43.66581" lon="3.84096">
        <ele>67</ele>
        <time>2020-12-30T11:59:38Z</time>
      </trkpt>
      <trkpt lat="43.66576" lon="3.84095">
        <ele>68</ele>
        <time>2020-12-30T11:59:39Z</time>
      </trkpt>
      <trkpt lat="43.66571" lon="3.84093">
        <ele>68</ele>
        <time>2020-12-30T11:59:40Z</time>
      </trkpt>
      <trkpt lat="43.66566" lon="3.84091">
        <ele>68</ele>
        <time>2020-12-30T11:59:41Z</time>
      </trkpt>
      <trkpt lat="43.66557" lon="3.84088">
        <ele>68</ele>
        <time>2020-12-30T11:59:43Z</time>
      </trkpt>
      <trkpt lat="43.66553" lon="3.84085">
        <ele>68</ele>
        <time>2020-12-30T11:59:44Z</time>
      </trkpt>
      <trkpt lat="43.66547" lon="3.84083">
        <ele>69</ele>
        <time>2020-12-30T11:59:45Z</time>
      </trkpt>
      <trkpt lat="43.66542" lon="3.8408">
        <ele>69</ele>
        <time>2020-12-30T11:59:46Z</time>
      </trkpt>
      <trkpt lat="43.66538" lon="3.84079">
        <ele>70</ele>
        <time>2020-12-30T11:59:47Z</time>
      </trkpt>
      <trkpt lat="43.66532" lon="3.84076">
        <ele>70</ele>
        <time>2020-12-30T11:59:48Z</time>
      </trkpt>
      <trkpt lat="43.66527" lon="3.84074">
        <ele>70</ele>
        <time>2020-12-30T11:59:49Z</time>
      </trkpt>
      <trkpt lat="43.66523" lon="3.84072">
        <ele>70</ele>
        <time>2020-12-30T11:59:50Z</time>
      </trkpt>
      <trkpt lat="43.66514" lon="3.84068">
        <ele>70</ele>
        <time>2020-12-30T11:59:52Z</time>
      </trkpt>
      <trkpt lat="43.6651" lon="3.84066">
        <ele>70</ele>
        <time>2020-12-30T11:59:53Z</time>
      </trkpt>
      <trkpt lat="43.66502" lon="3.8406">
        <ele>70</ele>
        <time>2020-12-30T11:59:55Z</time>
      </trkpt>
      <trkpt lat="43.66493" lon="3.84055">
        <ele>70</ele>
        <time>2020-12-30T11:59:57Z</time>
      </trkpt>
      <trkpt lat="43.66488" lon="3.84053">
        <ele>69</ele>
        <time>2020-12-30T11:59:58Z</time>
      </trkpt>
      <trkpt lat="43.66483" lon="3.84051">
        <ele>69</ele>
        <time>2020-12-30T11:59:59Z</time>
      </trkpt>
      <trkpt lat="43.66479" lon="3.84047">
        <ele>68</ele>
        <time>2020-12-30T12:00:00Z</time>
      </trkpt>
      <trkpt lat="43.6647" lon="3.84042">
        <ele>67</ele>
        <time>2020-12-30T12:00:02Z</time>
      </trkpt>
      <trkpt lat="43.66465" lon="3.84041">
        <ele>67</ele>
        <time>2020-12-30T12:00:03Z</time>
      </trkpt>
      <trkpt lat="43.66461" lon="3.84039">
        <ele>66</ele>
        <time>2020-12-30T12:00:04Z</time>
      </trkpt>
      <trkpt lat="43.66456" lon="3.84037">
        <ele>65</ele>
        <time>2020-12-30T12:00:05Z</time>
      </trkpt>
      <trkpt lat="43.66449" lon="3.84034">
        <ele>64</ele>
        <time>2020-12-30T12:00:06Z</time>
      </trkpt>
      <trkpt lat="43.66445" lon="3.84031">
        <ele>63</ele>
        <time>2020-12-30T12:00:07Z</time>
      </trkpt>
      <trkpt lat="43.66436" lon="3.84028">
        <ele>62</ele>
        <time>2020-12-30T12:00:09Z</time>
      </trkpt>
      <trkpt lat="43.66431" lon="3.84025">
        <ele>62</ele>
        <time>2020-12-30T12:00:10Z</time>
      </trkpt>
      <trkpt lat="43.66427" lon="3.84022">
        <ele>62</ele>
        <time>2020-12-30T12:00:11Z</time>
      </trkpt>
      <trkpt lat="43.66422" lon="3.84018">
        <ele>63</ele>
        <time>2020-12-30T12:00:12Z</time>
      </trkpt>
      <trkpt lat="43.66417" lon="3.84016">
        <ele>63</ele>
        <time>2020-12-30T12:00:13Z</time>
      </trkpt>
      <trkpt lat="43.66413" lon="3.84013">
        <ele>63</ele>
        <time>2020-12-30T12:00:14Z</time>
      </trkpt>
      <trkpt lat="43.66408" lon="3.84009">
        <ele>64</ele>
        <time>2020-12-30T12:00:15Z</time>
      </trkpt>
      <trkpt lat="43.66404" lon="3.84006">
        <ele>64</ele>
        <time>2020-12-30T12:00:16Z</time>
      </trkpt>
      <trkpt lat="43.66399" lon="3.84004">
        <ele>64</ele>
        <time>2020-12-30T12:00:17Z</time>
      </trkpt>
      <trkpt lat="43.66393" lon="3.84002">
        <ele>64</ele>
        <time>2020-12-30T12:00:18Z</time>
      </trkpt>
      <trkpt lat="43.66388" lon="3.83999">
        <ele>64</ele>
        <time>2020-12-30T12:00:19Z</time>
      </trkpt>
      <trkpt lat="43.66382" lon="3.83995">
        <ele>63</ele>
        <time>2020-12-30T12:00:20Z</time>
      </trkpt>
      <trkpt lat="43.66378" lon="3.83992">
        <ele>63</ele>
        <time>2020-12-30T12:00:21Z</time>
      </trkpt>
      <trkpt lat="43.66372" lon="3.83988">
        <ele>63</ele>
        <time>2020-12-30T12:00:22Z</time>
      </trkpt>
      <trkpt lat="43.66367" lon="3.83986">
        <ele>63</ele>
        <time>2020-12-30T12:00:23Z</time>
      </trkpt>
      <trkpt lat="43.66361" lon="3.83982">
        <ele>62</ele>
        <time>2020-12-30T12:00:24Z</time>
      </trkpt>
      <trkpt lat="43.66356" lon="3.8398">
        <ele>62</ele>
        <time>2020-12-30T12:00:25Z</time>
      </trkpt>
      <trkpt lat="43.66351" lon="3.83978">
        <ele>62</ele>
        <time>2020-12-30T12:00:26Z</time>
      </trkpt>
      <trkpt lat="43.66346" lon="3.83975">
        <ele>62</ele>
        <time>2020-12-30T12:00:27Z</time>
      </trkpt>
      <trkpt lat="43.66341" lon="3.83973">
        <ele>62</ele>
        <time>2020-12-30T12:00:28Z</time>
      </trkpt>
      <trkpt lat="43.66336" lon="3.83972">
        <ele>62</ele>
        <time>2020-12-30T12:00:29Z</time>
      </trkpt>
      <trkpt lat="43.66329" lon="3.83971">
        <ele>62</ele>
        <time>2020-12-30T12:00:31Z</time>
      </trkpt>
      <trkpt lat="43.66321" lon="3.83973">
        <ele>62</ele>
        <time>2020-12-30T12:00:33Z</time>
      </trkpt>
      <trkpt lat="43.66316" lon="3.83975">
        <ele>62</ele>
        <time>2020-12-30T12:00:34Z</time>
      </trkpt>
      <trkpt lat="43.66313" lon="3.8398">
        <ele>62</ele>
        <time>2020-12-30T12:00:35Z</time>
      </trkpt>
      <trkpt lat="43.66311" lon="3.83986">
        <ele>63</ele>
        <time>2020-12-30T12:00:36Z</time>
      </trkpt>
      <trkpt lat="43.66309" lon="3.83993">
        <ele>63</ele>
        <time>2020-12-30T12:00:37Z</time>
      </trkpt>
      <trkpt lat="43.66308" lon="3.84001">
        <ele>63</ele>
        <time>2020-12-30T12:00:38Z</time>
      </trkpt>
      <trkpt lat="43.66307" lon="3.84009">
        <ele>63</ele>
        <time>2020-12-30T12:00:39Z</time>
      </trkpt>
      <trkpt lat="43.66306" lon="3.84018">
        <ele>63</ele>
        <time>2020-12-30T12:00:40Z</time>
      </trkpt>
      <trkpt lat="43.66305" lon="3.84028">
        <ele>62</ele>
        <time>2020-12-30T12:00:41Z</time>
      </trkpt>
      <trkpt lat="43.66304" lon="3.84037">
        <ele>62</ele>
        <time>2020-12-30T12:00:42Z</time>
      </trkpt>
      <trkpt lat="43.66303" lon="3.84046">
        <ele>62</ele>
        <time>2020-12-30T12:00:43Z</time>
      </trkpt>
      <trkpt lat="43.66302" lon="3.84055">
        <ele>62</ele>
        <time>2020-12-30T12:00:44Z</time>
      </trkpt>
      <trkpt lat="43.66301" lon="3.84066">
        <ele>62</ele>
        <time>2020-12-30T12:00:45Z</time>
      </trkpt>
      <trkpt lat="43.66301" lon="3.84076">
        <ele>63</ele>
        <time>2020-12-30T12:00:46Z</time>
      </trkpt>
      <trkpt lat="43.66299" lon="3.84088">
        <ele>63</ele>
        <time>2020-12-30T12:00:47Z</time>
      </trkpt>
      <trkpt lat="43.66299" lon="3.84099">
        <ele>63</ele>
        <time>2020-12-30T12:00:48Z</time>
      </trkpt>
      <trkpt lat="43.66299" lon="3.84109">
        <ele>63</ele>
        <time>2020-12-30T12:00:49Z</time>
      </trkpt>
      <trkpt lat="43.66298" lon="3.8412">
        <ele>63</ele>
        <time>2020-12-30T12:00:50Z</time>
      </trkpt>
      <trkpt lat="43.66296" lon="3.84131">
        <ele>63</ele>
        <time>2020-12-30T12:00:51Z</time>
      </trkpt>
      <trkpt lat="43.66296" lon="3.84142">
        <ele>63</ele>
        <time>2020-12-30T12:00:52Z</time>
      </trkpt>
      <trkpt lat="43.66296" lon="3.84153">
        <ele>63</ele>
        <time>2020-12-30T12:00:53Z</time>
      </trkpt>
      <trkpt lat="43.66295" lon="3.84165">
        <ele>63</ele>
        <time>2020-12-30T12:00:54Z</time>
      </trkpt>
      <trkpt lat="43.66294" lon="3.84176">
        <ele>63</ele>
        <time>2020-12-30T12:00:55Z</time>
      </trkpt>
      <trkpt lat="43.66294" lon="3.84187">
        <ele>63</ele>
        <time>2020-12-30T12:00:56Z</time>
      </trkpt>
      <trkpt lat="43.66296" lon="3.84197">
        <ele>64</ele>
        <time>2020-12-30T12:00:57Z</time>
      </trkpt>
      <trkpt lat="43.66299" lon="3.84208">
        <ele>64</ele>
        <time>2020-12-30T12:00:58Z</time>
      </trkpt>
      <trkpt lat="43.66303" lon="3.84218">
        <ele>65</ele>
        <time>2020-12-30T12:00:59Z</time>
      </trkpt>
      <trkpt lat="43.66307" lon="3.84228">
        <ele>65</ele>
        <time>2020-12-30T12:01:00Z</time>
      </trkpt>
      <trkpt lat="43.66311" lon="3.84237">
        <ele>65</ele>
        <time>2020-12-30T12:01:01Z</time>
      </trkpt>
      <trkpt lat="43.66316" lon="3.84246">
        <ele>65</ele>
        <time>2020-12-30T12:01:02Z</time>
      </trkpt>
      <trkpt lat="43.6632" lon="3.84255">
        <ele>65</ele>
        <time>2020-12-30T12:01:03Z</time>
      </trkpt>
      <trkpt lat="43.66325" lon="3.84263">
        <ele>65</ele>
        <time>2020-12-30T12:01:04Z</time>
      </trkpt>
      <trkpt lat="43.66329" lon="3.84271">
        <ele>65</ele>
        <time>2020-12-30T12:01:05Z</time>
      </trkpt>
      <trkpt lat="43.66334" lon="3.84279">
        <ele>65</ele>
        <time>2020-12-30T12:01:06Z</time>
      </trkpt>
      <trkpt lat="43.66338" lon="3.84288">
        <ele>65</ele>
        <time>2020-12-30T12:01:07Z</time>
      </trkpt>
      <trkpt lat="43.66343" lon="3.84296">
        <ele>65</ele>
        <time>2020-12-30T12:01:08Z</time>
      </trkpt>
      <trkpt lat="43.66346" lon="3.84305">
        <ele>65</ele>
        <time>2020-12-30T12:01:09Z</time>
      </trkpt>
      <trkpt lat="43.66351" lon="3.84312">
        <ele>65</ele>
        <time>2020-12-30T12:01:10Z</time>
      </trkpt>
      <trkpt lat="43.66355" lon="3.8432">
        <ele>66</ele>
        <time>2020-12-30T12:01:11Z</time>
      </trkpt>
      <trkpt lat="43.66359" lon="3.84327">
        <ele>67</ele>
        <time>2020-12-30T12:01:12Z</time>
      </trkpt>
      <trkpt lat="43.66363" lon="3.84334">
        <ele>67</ele>
        <time>2020-12-30T12:01:13Z</time>
      </trkpt>
      <trkpt lat="43.66367" lon="3.84342">
        <ele>68</ele>
        <time>2020-12-30T12:01:14Z</time>
      </trkpt>
      <trkpt lat="43.66372" lon="3.8435">
        <ele>68</ele>
        <time>2020-12-30T12:01:15Z</time>
      </trkpt>
      <trkpt lat="43.66375" lon="3.84357">
        <ele>69</ele>
        <time>2020-12-30T12:01:16Z</time>
      </trkpt>
      <trkpt lat="43.66379" lon="3.84366">
        <ele>69</ele>
        <time>2020-12-30T12:01:17Z</time>
      </trkpt>
      <trkpt lat="43.66383" lon="3.84373">
        <ele>70</ele>
        <time>2020-12-30T12:01:18Z</time>
      </trkpt>
      <trkpt lat="43.66386" lon="3.84379">
        <ele>70</ele>
        <time>2020-12-30T12:01:19Z</time>
      </trkpt>
      <trkpt lat="43.66389" lon="3.84385">
        <ele>71</ele>
        <time>2020-12-30T12:01:20Z</time>
      </trkpt>
      <trkpt lat="43.66393" lon="3.84392">
        <ele>71</ele>
        <time>2020-12-30T12:01:21Z</time>
      </trkpt>
      <trkpt lat="43.66396" lon="3.84398">
        <ele>71</ele>
        <time>2020-12-30T12:01:22Z</time>
      </trkpt>
      <trkpt lat="43.66399" lon="3.84405">
        <ele>71</ele>
        <time>2020-12-30T12:01:23Z</time>
      </trkpt>
      <trkpt lat="43.66402" lon="3.84411">
        <ele>71</ele>
        <time>2020-12-30T12:01:24Z</time>
      </trkpt>
      <trkpt lat="43.66405" lon="3.84417">
        <ele>71</ele>
        <time>2020-12-30T12:01:25Z</time>
      </trkpt>
      <trkpt lat="43.66409" lon="3.84423">
        <ele>71</ele>
        <time>2020-12-30T12:01:26Z</time>
      </trkpt>
      <trkpt lat="43.66411" lon="3.84428">
        <ele>72</ele>
        <time>2020-12-30T12:01:27Z</time>
      </trkpt>
      <trkpt lat="43.66414" lon="3.84433">
        <ele>72</ele>
        <time>2020-12-30T12:01:28Z</time>
      </trkpt>
      <trkpt lat="43.66417" lon="3.84438">
        <ele>72</ele>
        <time>2020-12-30T12:01:29Z</time>
      </trkpt>
      <trkpt lat="43.6642" lon="3.84444">
        <ele>72</ele>
        <time>2020-12-30T12:01:30Z</time>
      </trkpt>
      <trkpt lat="43.66422" lon="3.84449">
        <ele>72</ele>
        <time>2020-12-30T12:01:31Z</time>
      </trkpt>
      <trkpt lat="43.66424" lon="3.84455">
        <ele>72</ele>
        <time>2020-12-30T12:01:32Z</time>
      </trkpt>
      <trkpt lat="43.66427" lon="3.8446">
        <ele>73</ele>
        <time>2020-12-30T12:01:33Z</time>
      </trkpt>
      <trkpt lat="43.66429" lon="3.84465">
        <ele>73</ele>
        <time>2020-12-30T12:01:34Z</time>
      </trkpt>
      <trkpt lat="43.66432" lon="3.84471">
        <ele>73</ele>
        <time>2020-12-30T12:01:35Z</time>
      </trkpt>
      <trkpt lat="43.66435" lon="3.84476">
        <ele>73</ele>
        <time>2020-12-30T12:01:36Z</time>
      </trkpt>
      <trkpt lat="43.66433" lon="3.84487">
        <ele>73</ele>
        <time>2020-12-30T12:01:38Z</time>
      </trkpt>
      <trkpt lat="43.66428" lon="3.84497">
        <ele>72</ele>
        <time>2020-12-30T12:01:40Z</time>
      </trkpt>
      <trkpt lat="43.66426" lon="3.84503">
        <ele>71</ele>
        <time>2020-12-30T12:01:41Z</time>
      </trkpt>
      <trkpt lat="43.66423" lon="3.84509">
        <ele>69</ele>
        <time>2020-12-30T12:01:42Z</time>
      </trkpt>
      <trkpt lat="43.66421" lon="3.84515">
        <ele>67</ele>
        <time>2020-12-30T12:01:43Z</time>
      </trkpt>
      <trkpt lat="43.66417" lon="3.84521">
        <ele>66</ele>
        <time>2020-12-30T12:01:44Z</time>
      </trkpt>
      <trkpt lat="43.66413" lon="3.84526">
        <ele>66</ele>
        <time>2020-12-30T12:01:45Z</time>
      </trkpt>
      <trkpt lat="43.66409" lon="3.84531">
        <ele>65</ele>
        <time>2020-12-30T12:01:46Z</time>
      </trkpt>
      <trkpt lat="43.66405" lon="3.84536">
        <ele>65</ele>
        <time>2020-12-30T12:01:47Z</time>
      </trkpt>
      <trkpt lat="43.66401" lon="3.84541">
        <ele>65</ele>
        <time>2020-12-30T12:01:48Z</time>
      </trkpt>
      <trkpt lat="43.66396" lon="3.84545">
        <ele>65</ele>
        <time>2020-12-30T12:01:49Z</time>
      </trkpt>
      <trkpt lat="43.66391" lon="3.8455">
        <ele>65</ele>
        <time>2020-12-30T12:01:50Z</time>
      </trkpt>
      <trkpt lat="43.66385" lon="3.84555">
        <ele>65</ele>
        <time>2020-12-30T12:01:51Z</time>
      </trkpt>
      <trkpt lat="43.66379" lon="3.84561">
        <ele>64</ele>
        <time>2020-12-30T12:01:52Z</time>
      </trkpt>
      <trkpt lat="43.66373" lon="3.84566">
        <ele>64</ele>
        <time>2020-12-30T12:01:53Z</time>
      </trkpt>
      <trkpt lat="43.66367" lon="3.8457">
        <ele>64</ele>
        <time>2020-12-30T12:01:54Z</time>
      </trkpt>
      <trkpt lat="43.6636" lon="3.84574">
        <ele>64</ele>
        <time>2020-12-30T12:01:55Z</time>
      </trkpt>
      <trkpt lat="43.66354" lon="3.84579">
        <ele>63</ele>
        <time>2020-12-30T12:01:56Z</time>
      </trkpt>
      <trkpt lat="43.66348" lon="3.84584">
        <ele>63</ele>
        <time>2020-12-30T12:01:57Z</time>
      </trkpt>
      <trkpt lat="43.66341" lon="3.84589">
        <ele>63</ele>
        <time>2020-12-30T12:01:58Z</time>
      </trkpt>
      <trkpt lat="43.66335" lon="3.84593">
        <ele>63</ele>
        <time>2020-12-30T12:01:59Z</time>
      </trkpt>
      <trkpt lat="43.66327" lon="3.84598">
        <ele>62</ele>
        <time>2020-12-30T12:02:00Z</time>
      </trkpt>
      <trkpt lat="43.66321" lon="3.84603">
        <ele>62</ele>
        <time>2020-12-30T12:02:01Z</time>
      </trkpt>
      <trkpt lat="43.66313" lon="3.84608">
        <ele>62</ele>
        <time>2020-12-30T12:02:02Z</time>
      </trkpt>
      <trkpt lat="43.66306" lon="3.84613">
        <ele>61</ele>
        <time>2020-12-30T12:02:03Z</time>
      </trkpt>
      <trkpt lat="43.66299" lon="3.84618">
        <ele>60</ele>
        <time>2020-12-30T12:02:04Z</time>
      </trkpt>
      <trkpt lat="43.66293" lon="3.84625">
        <ele>60</ele>
        <time>2020-12-30T12:02:05Z</time>
      </trkpt>
      <trkpt lat="43.66286" lon="3.84631">
        <ele>60</ele>
        <time>2020-12-30T12:02:06Z</time>
      </trkpt>
      <trkpt lat="43.6628" lon="3.84638">
        <ele>60</ele>
        <time>2020-12-30T12:02:07Z</time>
      </trkpt>
      <trkpt lat="43.66274" lon="3.84645">
        <ele>60</ele>
        <time>2020-12-30T12:02:08Z</time>
      </trkpt>
      <trkpt lat="43.66267" lon="3.84653">
        <ele>60</ele>
        <time>2020-12-30T12:02:09Z</time>
      </trkpt>
      <trkpt lat="43.66261" lon="3.8466">
        <ele>60</ele>
        <time>2020-12-30T12:02:10Z</time>
      </trkpt>
      <trkpt lat="43.66255" lon="3.84667">
        <ele>60</ele>
        <time>2020-12-30T12:02:11Z</time>
      </trkpt>
      <trkpt lat="43.66248" lon="3.84675">
        <ele>60</ele>
        <time>2020-12-30T12:02:12Z</time>
      </trkpt>
      <trkpt lat="43.66242" lon="3.84681">
        <ele>60</ele>
        <time>2020-12-30T12:02:13Z</time>
      </trkpt>
      <trkpt lat="43.66235" lon="3.84688">
        <ele>60</ele>
        <time>2020-12-30T12:02:14Z</time>
      </trkpt>
      <trkpt lat="43.66227" lon="3.84695">
        <ele>60</ele>
        <time>2020-12-30T12:02:15Z</time>
      </trkpt>
      <trkpt lat="43.6622" lon="3.84701">
        <ele>60</ele>
        <time>2020-12-30T12:02:16Z</time>
      </trkpt>
      <trkpt lat="43.66213" lon="3.84705">
        <ele>60</ele>
        <time>2020-12-30T12:02:17Z</time>
      </trkpt>
      <trkpt lat="43.66203" lon="3.84709">
        <ele>60</ele>
        <time>2020-12-30T12:02:18Z</time>
      </trkpt>
      <trkpt lat="43.66195" lon="3.84712">
        <ele>60</ele>
        <time>2020-12-30T12:02:19Z</time>
      </trkpt>
      <trkpt lat="43.66187" lon="3.84715">
        <ele>60</ele>
        <time>2020-12-30T12:02:20Z</time>
      </trkpt>
      <trkpt lat="43.66179" lon="3.8472">
        <ele>60</ele>
        <time>2020-12-30T12:02:21Z</time>
      </trkpt>
      <trkpt lat="43.66169" lon="3.84723">
        <ele>61</ele>
        <time>2020-12-30T12:02:22Z</time>
      </trkpt>
      <trkpt lat="43.66161" lon="3.84727">
        <ele>60</ele>
        <time>2020-12-30T12:02:23Z</time>
      </trkpt>
      <trkpt lat="43.66151" lon="3.8473">
        <ele>60</ele>
        <time>2020-12-30T12:02:24Z</time>
      </trkpt>
      <trkpt lat="43.66142" lon="3.84735">
        <ele>60</ele>
        <time>2020-12-30T12:02:25Z</time>
      </trkpt>
      <trkpt lat="43.66132" lon="3.84739">
        <ele>60</ele>
        <time>2020-12-30T12:02:26Z</time>
      </trkpt>
      <trkpt lat="43.66125" lon="3.84745">
        <ele>59</ele>
        <time>2020-12-30T12:02:27Z</time>
      </trkpt>
      <trkpt lat="43.66116" lon="3.84751">
        <ele>59</ele>
        <time>2020-12-30T12:02:28Z</time>
      </trkpt>
      <trkpt lat="43.66108" lon="3.84759">
        <ele>59</ele>
        <time>2020-12-30T12:02:29Z</time>
      </trkpt>
      <trkpt lat="43.661" lon="3.84767">
        <ele>59</ele>
        <time>2020-12-30T12:02:30Z</time>
      </trkpt>
      <trkpt lat="43.66093" lon="3.84775">
        <ele>59</ele>
        <time>2020-12-30T12:02:31Z</time>
      </trkpt>
      <trkpt lat="43.66085" lon="3.84784">
        <ele>59</ele>
        <time>2020-12-30T12:02:32Z</time>
      </trkpt>
      <trkpt lat="43.66077" lon="3.84792">
        <ele>59</ele>
        <time>2020-12-30T12:02:33Z</time>
      </trkpt>
      <trkpt lat="43.6607" lon="3.848">
        <ele>58</ele>
        <time>2020-12-30T12:02:34Z</time>
      </trkpt>
      <trkpt lat="43.66062" lon="3.84809">
        <ele>58</ele>
        <time>2020-12-30T12:02:35Z</time>
      </trkpt>
      <trkpt lat="43.66054" lon="3.84817">
        <ele>58</ele>
        <time>2020-12-30T12:02:36Z</time>
      </trkpt>
      <trkpt lat="43.66047" lon="3.84825">
        <ele>57</ele>
        <time>2020-12-30T12:02:37Z</time>
      </trkpt>
      <trkpt lat="43.66039" lon="3.84834">
        <ele>57</ele>
        <time>2020-12-30T12:02:38Z</time>
      </trkpt>
      <trkpt lat="43.66032" lon="3.84842">
        <ele>57</ele>
        <time>2020-12-30T12:02:39Z</time>
      </trkpt>
      <trkpt lat="43.66024" lon="3.8485">
        <ele>57</ele>
        <time>2020-12-30T12:02:40Z</time>
      </trkpt>
      <trkpt lat="43.66017" lon="3.84858">
        <ele>57</ele>
        <time>2020-12-30T12:02:41Z</time>
      </trkpt>
      <trkpt lat="43.66008" lon="3.84865">
        <ele>57</ele>
        <time>2020-12-30T12:02:42Z</time>
      </trkpt>
      <trkpt lat="43.66" lon="3.84874">
        <ele>56</ele>
        <time>2020-12-30T12:02:43Z</time>
      </trkpt>
      <trkpt lat="43.65993" lon="3.84882">
        <ele>56</ele>
        <time>2020-12-30T12:02:44Z</time>
      </trkpt>
      <trkpt lat="43.65986" lon="3.84891">
        <ele>55</ele>
        <time>2020-12-30T12:02:45Z</time>
      </trkpt>
      <trkpt lat="43.65978" lon="3.84899">
        <ele>55</ele>
        <time>2020-12-30T12:02:46Z</time>
      </trkpt>
      <trkpt lat="43.65971" lon="3.84907">
        <ele>55</ele>
        <time>2020-12-30T12:02:47Z</time>
      </trkpt>
      <trkpt lat="43.65964" lon="3.84915">
        <ele>55</ele>
        <time>2020-12-30T12:02:48Z</time>
      </trkpt>
      <trkpt lat="43.65956" lon="3.84924">
        <ele>55</ele>
        <time>2020-12-30T12:02:49Z</time>
      </trkpt>
      <trkpt lat="43.65949" lon="3.84932">
        <ele>55</ele>
        <time>2020-12-30T12:02:50Z</time>
      </trkpt>
      <trkpt lat="43.65942" lon="3.8494">
        <ele>55</ele>
        <time>2020-12-30T12:02:51Z</time>
      </trkpt>
      <trkpt lat="43.65936" lon="3.84948">
        <ele>55</ele>
        <time>2020-12-30T12:02:52Z</time>
      </trkpt>
      <trkpt lat="43.65929" lon="3.84956">
        <ele>55</ele>
        <time>2020-12-30T12:02:53Z</time>
      </trkpt>
      <trkpt lat="43.65923" lon="3.84963">
        <ele>55</ele>
        <time>2020-12-30T12:02:54Z</time>
      </trkpt>
      <trkpt lat="43.65916" lon="3.84971">
        <ele>55</ele>
        <time>2020-12-30T12:02:55Z</time>
      </trkpt>
      <trkpt lat="43.65908" lon="3.84978">
        <ele>55</ele>
        <time>2020-12-30T12:02:56Z</time>
      </trkpt>
      <trkpt lat="43.65902" lon="3.84986">
        <ele>55</ele>
        <time>2020-12-30T12:02:57Z</time>
      </trkpt>
      <trkpt lat="43.65895" lon="3.84995">
        <ele>55</ele>
        <time>2020-12-30T12:02:58Z</time>
      </trkpt>
      <trkpt lat="43.65888" lon="3.85002">
        <ele>55</ele>
        <time>2020-12-30T12:02:59Z</time>
      </trkpt>
      <trkpt lat="43.65881" lon="3.8501">
        <ele>55</ele>
        <time>2020-12-30T12:03:00Z</time>
      </trkpt>
      <trkpt lat="43.65875" lon="3.85018">
        <ele>55</ele>
        <time>2020-12-30T12:03:01Z</time>
      </trkpt>
      <trkpt lat="43.65868" lon="3.85025">
        <ele>55</ele>
        <time>2020-12-30T12:03:02Z</time>
      </trkpt>
      <trkpt lat="43.6586" lon="3.85033">
        <ele>55</ele>
        <time>2020-12-30T12:03:03Z</time>
      </trkpt>
      <trkpt lat="43.65854" lon="3.85041">
        <ele>54</ele>
        <time>2020-12-30T12:03:04Z</time>
      </trkpt>
      <trkpt lat="43.65847" lon="3.85049">
        <ele>54</ele>
        <time>2020-12-30T12:03:05Z</time>
      </trkpt>
      <trkpt lat="43.6584" lon="3.85057">
        <ele>54</ele>
        <time>2020-12-30T12:03:06Z</time>
      </trkpt>
      <trkpt lat="43.65833" lon="3.85065">
        <ele>54</ele>
        <time>2020-12-30T12:03:07Z</time>
      </trkpt>
      <trkpt lat="43.65826" lon="3.85073">
        <ele>54</ele>
        <time>2020-12-30T12:03:08Z</time>
      </trkpt>
      <trkpt lat="43.6582" lon="3.85081">
        <ele>54</ele>
        <time>2020-12-30T12:03:09Z</time>
      </trkpt>
      <trkpt lat="43.65813" lon="3.85088">
        <ele>54</ele>
        <time>2020-12-30T12:03:10Z</time>
      </trkpt>
      <trkpt lat="43.65807" lon="3.85095">
        <ele>54</ele>
        <time>2020-12-30T12:03:11Z</time>
      </trkpt>
      <trkpt lat="43.65801" lon="3.85102">
        <ele>55</ele>
        <time>2020-12-30T12:03:12Z</time>
      </trkpt>
      <trkpt lat="43.65794" lon="3.85109">
        <ele>55</ele>
        <time>2020-12-30T12:03:13Z</time>
      </trkpt>
      <trkpt lat="43.65788" lon="3.85115">
        <ele>55</ele>
        <time>2020-12-30T12:03:14Z</time>
      </trkpt>
      <trkpt lat="43.65781" lon="3.8512">
        <ele>55</ele>
        <time>2020-12-30T12:03:15Z</time>
      </trkpt>
      <trkpt lat="43.65775" lon="3.85126">
        <ele>56</ele>
        <time>2020-12-30T12:03:16Z</time>
      </trkpt>
      <trkpt lat="43.65767" lon="3.85131">
        <ele>56</ele>
        <time>2020-12-30T12:03:17Z</time>
      </trkpt>
      <trkpt lat="43.6576" lon="3.85135">
        <ele>56</ele>
        <time>2020-12-30T12:03:18Z</time>
      </trkpt>
      <trkpt lat="43.65753" lon="3.85139">
        <ele>55</ele>
        <time>2020-12-30T12:03:19Z</time>
      </trkpt>
      <trkpt lat="43.65746" lon="3.85144">
        <ele>55</ele>
        <time>2020-12-30T12:03:20Z</time>
      </trkpt>
      <trkpt lat="43.65739" lon="3.85149">
        <ele>55</ele>
        <time>2020-12-30T12:03:21Z</time>
      </trkpt>
      <trkpt lat="43.65733" lon="3.85153">
        <ele>55</ele>
        <time>2020-12-30T12:03:22Z</time>
      </trkpt>
      <trkpt lat="43.65726" lon="3.85158">
        <ele>55</ele>
        <time>2020-12-30T12:03:23Z</time>
      </trkpt>
      <trkpt lat="43.6572" lon="3.85162">
        <ele>55</ele>
        <time>2020-12-30T12:03:24Z</time>
      </trkpt>
      <trkpt lat="43.65714" lon="3.85166">
        <ele>56</ele>
        <time>2020-12-30T12:03:25Z</time>
      </trkpt>
      <trkpt lat="43.65706" lon="3.8517">
        <ele>55</ele>
        <time>2020-12-30T12:03:26Z</time>
      </trkpt>
      <trkpt lat="43.65699" lon="3.85174">
        <ele>55</ele>
        <time>2020-12-30T12:03:27Z</time>
      </trkpt>
      <trkpt lat="43.65693" lon="3.85178">
        <ele>55</ele>
        <time>2020-12-30T12:03:28Z</time>
      </trkpt>
      <trkpt lat="43.65686" lon="3.85182">
        <ele>55</ele>
        <time>2020-12-30T12:03:29Z</time>
      </trkpt>
      <trkpt lat="43.65679" lon="3.85187">
        <ele>55</ele>
        <time>2020-12-30T12:03:30Z</time>
      </trkpt>
      <trkpt lat="43.65673" lon="3.85193">
        <ele>55</ele>
        <time>2020-12-30T12:03:31Z</time>
      </trkpt>
      <trkpt lat="43.65667" lon="3.85199">
        <ele>54</ele>
        <time>2020-12-30T12:03:32Z</time>
      </trkpt>
      <trkpt lat="43.6566" lon="3.85206">
        <ele>53</ele>
        <time>2020-12-30T12:03:33Z</time>
      </trkpt>
      <trkpt lat="43.65655" lon="3.85213">
        <ele>53</ele>
        <time>2020-12-30T12:03:34Z</time>
      </trkpt>
      <trkpt lat="43.65649" lon="3.8522">
        <ele>52</ele>
        <time>2020-12-30T12:03:35Z</time>
      </trkpt>
      <trkpt lat="43.65644" lon="3.85228">
        <ele>52</ele>
        <time>2020-12-30T12:03:36Z</time>
      </trkpt>
      <trkpt lat="43.65639" lon="3.85236">
        <ele>52</ele>
        <time>2020-12-30T12:03:37Z</time>
      </trkpt>
      <trkpt lat="43.65633" lon="3.85244">
        <ele>52</ele>
        <time>2020-12-30T12:03:38Z</time>
      </trkpt>
      <trkpt lat="43.65629" lon="3.85252">
        <ele>51</ele>
        <time>2020-12-30T12:03:39Z</time>
      </trkpt>
      <trkpt lat="43.65624" lon="3.85261">
        <ele>51</ele>
        <time>2020-12-30T12:03:40Z</time>
      </trkpt>
      <trkpt lat="43.6562" lon="3.85269">
        <ele>51</ele>
        <time>2020-12-30T12:03:41Z</time>
      </trkpt>
      <trkpt lat="43.65616" lon="3.85277">
        <ele>50</ele>
        <time>2020-12-30T12:03:42Z</time>
      </trkpt>
      <trkpt lat="43.65611" lon="3.85286">
        <ele>50</ele>
        <time>2020-12-30T12:03:43Z</time>
      </trkpt>
      <trkpt lat="43.65606" lon="3.85295">
        <ele>49</ele>
        <time>2020-12-30T12:03:44Z</time>
      </trkpt>
      <trkpt lat="43.65602" lon="3.85303">
        <ele>49</ele>
        <time>2020-12-30T12:03:45Z</time>
      </trkpt>
      <trkpt lat="43.65597" lon="3.85312">
        <ele>49</ele>
        <time>2020-12-30T12:03:46Z</time>
      </trkpt>
      <trkpt lat="43.65592" lon="3.85321">
        <ele>49</ele>
        <time>2020-12-30T12:03:47Z</time>
      </trkpt>
      <trkpt lat="43.65588" lon="3.85331">
        <ele>49</ele>
        <time>2020-12-30T12:03:48Z</time>
      </trkpt>
      <trkpt lat="43.65585" lon="3.8534">
        <ele>49</ele>
        <time>2020-12-30T12:03:49Z</time>
      </trkpt>
      <trkpt lat="43.65581" lon="3.8535">
        <ele>49</ele>
        <time>2020-12-30T12:03:50Z</time>
      </trkpt>
      <trkpt lat="43.65577" lon="3.85359">
        <ele>48</ele>
        <time>2020-12-30T12:03:51Z</time>
      </trkpt>
      <trkpt lat="43.65572" lon="3.85369">
        <ele>48</ele>
        <time>2020-12-30T12:03:52Z</time>
      </trkpt>
      <trkpt lat="43.65568" lon="3.85378">
        <ele>49</ele>
        <time>2020-12-30T12:03:53Z</time>
      </trkpt>
      <trkpt lat="43.65563" lon="3.85387">
        <ele>49</ele>
        <time>2020-12-30T12:03:54Z</time>
      </trkpt>
      <trkpt lat="43.65559" lon="3.85396">
        <ele>49</ele>
        <time>2020-12-30T12:03:55Z</time>
      </trkpt>
      <trkpt lat="43.65555" lon="3.85405">
        <ele>49</ele>
        <time>2020-12-30T12:03:56Z</time>
      </trkpt>
      <trkpt lat="43.65551" lon="3.85415">
        <ele>49</ele>
        <time>2020-12-30T12:03:57Z</time>
      </trkpt>
      <trkpt lat="43.65548" lon="3.85424">
        <ele>49</ele>
        <time>2020-12-30T12:03:58Z</time>
      </trkpt>
      <trkpt lat="43.65544" lon="3.85434">
        <ele>49</ele>
        <time>2020-12-30T12:03:59Z</time>
      </trkpt>
      <trkpt lat="43.6554" lon="3.85443">
        <ele>49</ele>
        <time>2020-12-30T12:04:00Z</time>
      </trkpt>
      <trkpt lat="43.65535" lon="3.85453">
        <ele>49</ele>
        <time>2020-12-30T12:04:01Z</time>
      </trkpt>
      <trkpt lat="43.65533" lon="3.85463">
        <ele>50</ele>
        <time>2020-12-30T12:04:02Z</time>
      </trkpt>
      <trkpt lat="43.65531" lon="3.85474">
        <ele>50</ele>
        <time>2020-12-30T12:04:03Z</time>
      </trkpt>
      <trkpt lat="43.65529" lon="3.85483">
        <ele>50</ele>
        <time>2020-12-30T12:04:04Z</time>
      </trkpt>
      <trkpt lat="43.65528" lon="3.85493">
        <ele>50</ele>
        <time>2020-12-30T12:04:05Z</time>
      </trkpt>
      <trkpt lat="43.65525" lon="3.85501">
        <ele>50</ele>
        <time>2020-12-30T12:04:06Z</time>
      </trkpt>
      <trkpt lat="43.65523" lon="3.85509">
        <ele>50</ele>
        <time>2020-12-30T12:04:07Z</time>
      </trkpt>
      <trkpt lat="43.6552" lon="3.85517">
        <ele>50</ele>
        <time>2020-12-30T12:04:08Z</time>
      </trkpt>
      <trkpt lat="43.65517" lon="3.85525">
        <ele>50</ele>
        <time>2020-12-30T12:04:09Z</time>
      </trkpt>
      <trkpt lat="43.65513" lon="3.85533">
        <ele>50</ele>
        <time>2020-12-30T12:04:10Z</time>
      </trkpt>
      <trkpt lat="43.65508" lon="3.8554">
        <ele>51</ele>
        <time>2020-12-30T12:04:11Z</time>
      </trkpt>
      <trkpt lat="43.65504" lon="3.85546">
        <ele>51</ele>
        <time>2020-12-30T12:04:12Z</time>
      </trkpt>
      <trkpt lat="43.65499" lon="3.85552">
        <ele>51</ele>
        <time>2020-12-30T12:04:13Z</time>
      </trkpt>
      <trkpt lat="43.65493" lon="3.85557">
        <ele>51</ele>
        <time>2020-12-30T12:04:14Z</time>
      </trkpt>
      <trkpt lat="43.65488" lon="3.85562">
        <ele>52</ele>
        <time>2020-12-30T12:04:15Z</time>
      </trkpt>
      <trkpt lat="43.65482" lon="3.85564">
        <ele>52</ele>
        <time>2020-12-30T12:04:16Z</time>
      </trkpt>
      <trkpt lat="43.65476" lon="3.85567">
        <ele>53</ele>
        <time>2020-12-30T12:04:17Z</time>
      </trkpt>
      <trkpt lat="43.65471" lon="3.85569">
        <ele>53</ele>
        <time>2020-12-30T12:04:18Z</time>
      </trkpt>
      <trkpt lat="43.65465" lon="3.8557">
        <ele>53</ele>
        <time>2020-12-30T12:04:19Z</time>
      </trkpt>
      <trkpt lat="43.6546" lon="3.85572">
        <ele>54</ele>
        <time>2020-12-30T12:04:20Z</time>
      </trkpt>
      <trkpt lat="43.65454" lon="3.85575">
        <ele>54</ele>
        <time>2020-12-30T12:04:21Z</time>
      </trkpt>
      <trkpt lat="43.65448" lon="3.85577">
        <ele>54</ele>
        <time>2020-12-30T12:04:22Z</time>
      </trkpt>
      <trkpt lat="43.65443" lon="3.8558">
        <ele>54</ele>
        <time>2020-12-30T12:04:23Z</time>
      </trkpt>
      <trkpt lat="43.65439" lon="3.85584">
        <ele>54</ele>
        <time>2020-12-30T12:04:24Z</time>
      </trkpt>
      <trkpt lat="43.65435" lon="3.85589">
        <ele>54</ele>
        <time>2020-12-30T12:04:25Z</time>
      </trkpt>
      <trkpt lat="43.65431" lon="3.85594">
        <ele>54</ele>
        <time>2020-12-30T12:04:26Z</time>
      </trkpt>
      <trkpt lat="43.65427" lon="3.856">
        <ele>54</ele>
        <time>2020-12-30T12:04:27Z</time>
      </trkpt>
      <trkpt lat="43.65422" lon="3.85604">
        <ele>54</ele>
        <time>2020-12-30T12:04:28Z</time>
      </trkpt>
      <trkpt lat="43.65418" lon="3.85608">
        <ele>53</ele>
        <time>2020-12-30T12:04:29Z</time>
      </trkpt>
      <trkpt lat="43.65413" lon="3.85612">
        <ele>53</ele>
        <time>2020-12-30T12:04:30Z</time>
      </trkpt>
      <trkpt lat="43.65408" lon="3.85615">
        <ele>53</ele>
        <time>2020-12-30T12:04:31Z</time>
      </trkpt>
      <trkpt lat="43.65403" lon="3.8562">
        <ele>53</ele>
        <time>2020-12-30T12:04:32Z</time>
      </trkpt>
      <trkpt lat="43.65398" lon="3.85624">
        <ele>53</ele>
        <time>2020-12-30T12:04:33Z</time>
      </trkpt>
      <trkpt lat="43.65392" lon="3.85628">
        <ele>53</ele>
        <time>2020-12-30T12:04:34Z</time>
      </trkpt>
      <trkpt lat="43.65387" lon="3.85631">
        <ele>53</ele>
        <time>2020-12-30T12:04:35Z</time>
      </trkpt>
      <trkpt lat="43.65382" lon="3.85635">
        <ele>53</ele>
        <time>2020-12-30T12:04:36Z</time>
      </trkpt>
      <trkpt lat="43.65377" lon="3.85638">
        <ele>52</ele>
        <time>2020-12-30T12:04:37Z</time>
      </trkpt>
      <trkpt lat="43.65372" lon="3.85644">
        <ele>52</ele>
        <time>2020-12-30T12:04:38Z</time>
      </trkpt>
      <trkpt lat="43.65366" lon="3.8565">
        <ele>52</ele>
        <time>2020-12-30T12:04:39Z</time>
      </trkpt>
      <trkpt lat="43.65361" lon="3.85656">
        <ele>52</ele>
        <time>2020-12-30T12:04:40Z</time>
      </trkpt>
      <trkpt lat="43.65357" lon="3.85664">
        <ele>51</ele>
        <time>2020-12-30T12:04:41Z</time>
      </trkpt>
      <trkpt lat="43.65354" lon="3.8567">
        <ele>51</ele>
        <time>2020-12-30T12:04:42Z</time>
      </trkpt>
      <trkpt lat="43.65351" lon="3.85676">
        <ele>51</ele>
        <time>2020-12-30T12:04:43Z</time>
      </trkpt>
      <trkpt lat="43.65348" lon="3.85683">
        <ele>51</ele>
        <time>2020-12-30T12:04:45Z</time>
      </trkpt>
      <trkpt lat="43.65347" lon="3.85691">
        <ele>50</ele>
        <time>2020-12-30T12:04:51Z</time>
      </trkpt>
      <trkpt lat="43.65344" lon="3.85687">
        <ele>50</ele>
        <time>2020-12-30T12:05:00Z</time>
      </trkpt>
      <trkpt lat="43.65338" lon="3.85684">
        <ele>49</ele>
        <time>2020-12-30T12:05:03Z</time>
      </trkpt>
      <trkpt lat="43.65334" lon="3.85683">
        <ele>48</ele>
        <time>2020-12-30T12:05:06Z</time>
      </trkpt>
      <trkpt lat="43.65328" lon="3.85681">
        <ele>47</ele>
        <time>2020-12-30T12:05:10Z</time>
      </trkpt>
      <trkpt lat="43.65326" lon="3.85674">
        <ele>46</ele>
        <time>2020-12-30T12:05:13Z</time>
      </trkpt>
      <trkpt lat="43.65325" lon="3.85667">
        <ele>46</ele>
        <time>2020-12-30T12:05:16Z</time>
      </trkpt>
      <trkpt lat="43.65322" lon="3.85659">
        <ele>46</ele>
        <time>2020-12-30T12:05:18Z</time>
      </trkpt>
      <trkpt lat="43.65317" lon="3.85655">
        <ele>46</ele>
        <time>2020-12-30T12:05:20Z</time>
      </trkpt>
      <trkpt lat="43.65312" lon="3.85652">
        <ele>46</ele>
        <time>2020-12-30T12:05:22Z</time>
      </trkpt>
      <trkpt lat="43.65307" lon="3.85649">
        <ele>47</ele>
        <time>2020-12-30T12:05:24Z</time>
      </trkpt>
      <trkpt lat="43.65302" lon="3.85646">
        <ele>47</ele>
        <time>2020-12-30T12:05:26Z</time>
      </trkpt>
      <trkpt lat="43.65297" lon="3.85644">
        <ele>47</ele>
        <time>2020-12-30T12:05:28Z</time>
      </trkpt>
      <trkpt lat="43.65293" lon="3.85641">
        <ele>47</ele>
        <time>2020-12-30T12:05:30Z</time>
      </trkpt>
      <trkpt lat="43.65287" lon="3.85639">
        <ele>47</ele>
        <time>2020-12-30T12:05:33Z</time>
      </trkpt>
      <trkpt lat="43.65282" lon="3.85639">
        <ele>47</ele>
        <time>2020-12-30T12:05:36Z</time>
      </trkpt>
      <trkpt lat="43.65278" lon="3.85644">
        <ele>47</ele>
        <time>2020-12-30T12:05:40Z</time>
      </trkpt>
      <trkpt lat="43.65275" lon="3.85651">
        <ele>47</ele>
        <time>2020-12-30T12:05:43Z</time>
      </trkpt>
      <trkpt lat="43.65273" lon="3.85657">
        <ele>47</ele>
        <time>2020-12-30T12:05:45Z</time>
      </trkpt>
      <trkpt lat="43.65269" lon="3.85663">
        <ele>48</ele>
        <time>2020-12-30T12:05:47Z</time>
      </trkpt>
      <trkpt lat="43.65264" lon="3.85663">
        <ele>49</ele>
        <time>2020-12-30T12:05:49Z</time>
      </trkpt>
      <trkpt lat="43.6526" lon="3.85657">
        <ele>50</ele>
        <time>2020-12-30T12:05:52Z</time>
      </trkpt>
      <trkpt lat="43.65255" lon="3.85657">
        <ele>52</ele>
        <time>2020-12-30T12:05:55Z</time>
      </trkpt>
      <trkpt lat="43.6525" lon="3.8566">
        <ele>53</ele>
        <time>2020-12-30T12:05:58Z</time>
      </trkpt>
      <trkpt lat="43.65246" lon="3.8566">
        <ele>54</ele>
        <time>2020-12-30T12:06:01Z</time>
      </trkpt>
      <trkpt lat="43.6524" lon="3.85661">
        <ele>55</ele>
        <time>2020-12-30T12:06:05Z</time>
      </trkpt>
      <trkpt lat="43.65235" lon="3.85659">
        <ele>56</ele>
        <time>2020-12-30T12:06:09Z</time>
      </trkpt>
      <trkpt lat="43.65231" lon="3.85655">
        <ele>57</ele>
        <time>2020-12-30T12:06:13Z</time>
      </trkpt>
      <trkpt lat="43.65227" lon="3.85652">
        <ele>58</ele>
        <time>2020-12-30T12:06:17Z</time>
      </trkpt>
      <trkpt lat="43.65223" lon="3.85646">
        <ele>60</ele>
        <time>2020-12-30T12:06:21Z</time>
      </trkpt>
      <trkpt lat="43.65221" lon="3.85641">
        <ele>61</ele>
        <time>2020-12-30T12:06:24Z</time>
      </trkpt>
      <trkpt lat="43.65219" lon="3.85635">
        <ele>63</ele>
        <time>2020-12-30T12:06:28Z</time>
      </trkpt>
      <trkpt lat="43.65216" lon="3.85629">
        <ele>64</ele>
        <time>2020-12-30T12:06:34Z</time>
      </trkpt>
      <trkpt lat="43.65212" lon="3.85625">
        <ele>65</ele>
        <time>2020-12-30T12:06:39Z</time>
      </trkpt>
      <trkpt lat="43.65208" lon="3.8562">
        <ele>66</ele>
        <time>2020-12-30T12:06:42Z</time>
      </trkpt>
      <trkpt lat="43.65205" lon="3.85614">
        <ele>66</ele>
        <time>2020-12-30T12:06:45Z</time>
      </trkpt>
      <trkpt lat="43.65201" lon="3.85611">
        <ele>66</ele>
        <time>2020-12-30T12:06:47Z</time>
      </trkpt>
      <trkpt lat="43.65195" lon="3.85608">
        <ele>65</ele>
        <time>2020-12-30T12:06:50Z</time>
      </trkpt>
      <trkpt lat="43.6519" lon="3.85608">
        <ele>65</ele>
        <time>2020-12-30T12:06:52Z</time>
      </trkpt>
      <trkpt lat="43.65185" lon="3.85605">
        <ele>64</ele>
        <time>2020-12-30T12:06:54Z</time>
      </trkpt>
      <trkpt lat="43.65183" lon="3.85599">
        <ele>63</ele>
        <time>2020-12-30T12:06:56Z</time>
      </trkpt>
      <trkpt lat="43.65182" lon="3.8559">
        <ele>62</ele>
        <time>2020-12-30T12:06:59Z</time>
      </trkpt>
      <trkpt lat="43.65179" lon="3.85581">
        <ele>61</ele>
        <time>2020-12-30T12:07:02Z</time>
      </trkpt>
      <trkpt lat="43.65177" lon="3.85573">
        <ele>59</ele>
        <time>2020-12-30T12:07:04Z</time>
      </trkpt>
      <trkpt lat="43.65176" lon="3.85566">
        <ele>58</ele>
        <time>2020-12-30T12:07:06Z</time>
      </trkpt>
      <trkpt lat="43.65174" lon="3.85553">
        <ele>57</ele>
        <time>2020-12-30T12:07:07Z</time>
      </trkpt>
      <trkpt lat="43.65172" lon="3.85544">
        <ele>57</ele>
        <time>2020-12-30T12:07:09Z</time>
      </trkpt>
      <trkpt lat="43.65168" lon="3.85536">
        <ele>57</ele>
        <time>2020-12-30T12:07:11Z</time>
      </trkpt>
      <trkpt lat="43.65165" lon="3.85528">
        <ele>57</ele>
        <time>2020-12-30T12:07:13Z</time>
      </trkpt>
      <trkpt lat="43.65163" lon="3.85522">
        <ele>57</ele>
        <time>2020-12-30T12:07:15Z</time>
      </trkpt>
      <trkpt lat="43.6516" lon="3.85516">
        <ele>57</ele>
        <time>2020-12-30T12:07:18Z</time>
      </trkpt>
      <trkpt lat="43.65156" lon="3.85507">
        <ele>57</ele>
        <time>2020-12-30T12:07:20Z</time>
      </trkpt>
      <trkpt lat="43.65149" lon="3.85499">
        <ele>58</ele>
        <time>2020-12-30T12:07:22Z</time>
      </trkpt>
      <trkpt lat="43.65144" lon="3.85495">
        <ele>58</ele>
        <time>2020-12-30T12:07:23Z</time>
      </trkpt>
      <trkpt lat="43.65137" lon="3.85492">
        <ele>59</ele>
        <time>2020-12-30T12:07:25Z</time>
      </trkpt>
      <trkpt lat="43.65131" lon="3.85488">
        <ele>60</ele>
        <time>2020-12-30T12:07:27Z</time>
      </trkpt>
      <trkpt lat="43.65125" lon="3.85487">
        <ele>60</ele>
        <time>2020-12-30T12:07:29Z</time>
      </trkpt>
      <trkpt lat="43.65119" lon="3.85484">
        <ele>60</ele>
        <time>2020-12-30T12:07:32Z</time>
      </trkpt>
      <trkpt lat="43.65114" lon="3.8548">
        <ele>60</ele>
        <time>2020-12-30T12:07:34Z</time>
      </trkpt>
      <trkpt lat="43.65111" lon="3.85472">
        <ele>60</ele>
        <time>2020-12-30T12:07:36Z</time>
      </trkpt>
      <trkpt lat="43.65107" lon="3.85461">
        <ele>59</ele>
        <time>2020-12-30T12:07:37Z</time>
      </trkpt>
      <trkpt lat="43.65106" lon="3.85453">
        <ele>59</ele>
        <time>2020-12-30T12:07:39Z</time>
      </trkpt>
      <trkpt lat="43.65105" lon="3.85444">
        <ele>58</ele>
        <time>2020-12-30T12:07:41Z</time>
      </trkpt>
      <trkpt lat="43.65104" lon="3.85435">
        <ele>58</ele>
        <time>2020-12-30T12:07:43Z</time>
      </trkpt>
      <trkpt lat="43.65104" lon="3.85425">
        <ele>58</ele>
        <time>2020-12-30T12:07:45Z</time>
      </trkpt>
      <trkpt lat="43.65105" lon="3.85416">
        <ele>59</ele>
        <time>2020-12-30T12:07:47Z</time>
      </trkpt>
      <trkpt lat="43.65105" lon="3.85405">
        <ele>59</ele>
        <time>2020-12-30T12:07:49Z</time>
      </trkpt>
      <trkpt lat="43.65105" lon="3.85395">
        <ele>59</ele>
        <time>2020-12-30T12:07:51Z</time>
      </trkpt>
      <trkpt lat="43.65104" lon="3.85385">
        <ele>59</ele>
        <time>2020-12-30T12:07:53Z</time>
      </trkpt>
      <trkpt lat="43.65102" lon="3.85377">
        <ele>59</ele>
        <time>2020-12-30T12:07:55Z</time>
      </trkpt>
      <trkpt lat="43.65101" lon="3.85369">
        <ele>59</ele>
        <time>2020-12-30T12:07:57Z</time>
      </trkpt>
      <trkpt lat="43.65101" lon="3.85363">
        <ele>60</ele>
        <time>2020-12-30T12:07:59Z</time>
      </trkpt>
      <trkpt lat="43.65101" lon="3.85355">
        <ele>60</ele>
        <time>2020-12-30T12:08:02Z</time>
      </trkpt>
      <trkpt lat="43.65102" lon="3.85346">
        <ele>60</ele>
        <time>2020-12-30T12:08:05Z</time>
      </trkpt>
      <trkpt lat="43.65101" lon="3.85327">
        <ele>61</ele>
        <time>2020-12-30T12:08:06Z</time>
      </trkpt>
      <trkpt lat="43.65102" lon="3.85315">
        <ele>62</ele>
        <time>2020-12-30T12:08:08Z</time>
      </trkpt>
      <trkpt lat="43.65104" lon="3.85308">
        <ele>63</ele>
        <time>2020-12-30T12:08:09Z</time>
      </trkpt>
      <trkpt lat="43.6511" lon="3.85299">
        <ele>64</ele>
        <time>2020-12-30T12:08:11Z</time>
      </trkpt>
      <trkpt lat="43.65115" lon="3.85295">
        <ele>65</ele>
        <time>2020-12-30T12:08:12Z</time>
      </trkpt>
      <trkpt lat="43.6512" lon="3.85291">
        <ele>65</ele>
        <time>2020-12-30T12:08:13Z</time>
      </trkpt>
      <trkpt lat="43.65124" lon="3.85287">
        <ele>65</ele>
        <time>2020-12-30T12:08:14Z</time>
      </trkpt>
      <trkpt lat="43.65128" lon="3.85282">
        <ele>66</ele>
        <time>2020-12-30T12:08:15Z</time>
      </trkpt>
      <trkpt lat="43.65134" lon="3.85274">
        <ele>66</ele>
        <time>2020-12-30T12:08:17Z</time>
      </trkpt>
      <trkpt lat="43.65141" lon="3.85266">
        <ele>66</ele>
        <time>2020-12-30T12:08:19Z</time>
      </trkpt>
      <trkpt lat="43.65148" lon="3.85259">
        <ele>66</ele>
        <time>2020-12-30T12:08:21Z</time>
      </trkpt>
      <trkpt lat="43.65155" lon="3.85252">
        <ele>66</ele>
        <time>2020-12-30T12:08:23Z</time>
      </trkpt>
      <trkpt lat="43.65162" lon="3.85245">
        <ele>66</ele>
        <time>2020-12-30T12:08:25Z</time>
      </trkpt>
      <trkpt lat="43.65166" lon="3.85241">
        <ele>66</ele>
        <time>2020-12-30T12:08:26Z</time>
      </trkpt>
      <trkpt lat="43.65171" lon="3.85232">
        <ele>66</ele>
        <time>2020-12-30T12:08:28Z</time>
      </trkpt>
      <trkpt lat="43.65174" lon="3.85227">
        <ele>66</ele>
        <time>2020-12-30T12:08:29Z</time>
      </trkpt>
      <trkpt lat="43.65176" lon="3.85221">
        <ele>66</ele>
        <time>2020-12-30T12:08:30Z</time>
      </trkpt>
      <trkpt lat="43.65178" lon="3.85215">
        <ele>66</ele>
        <time>2020-12-30T12:08:31Z</time>
      </trkpt>
      <trkpt lat="43.65177" lon="3.85208">
        <ele>65</ele>
        <time>2020-12-30T12:08:32Z</time>
      </trkpt>
      <trkpt lat="43.65176" lon="3.85196">
        <ele>65</ele>
        <time>2020-12-30T12:08:34Z</time>
      </trkpt>
      <trkpt lat="43.65173" lon="3.85184">
        <ele>64</ele>
        <time>2020-12-30T12:08:36Z</time>
      </trkpt>
      <trkpt lat="43.65168" lon="3.85174">
        <ele>62</ele>
        <time>2020-12-30T12:08:38Z</time>
      </trkpt>
      <trkpt lat="43.65165" lon="3.85169">
        <ele>61</ele>
        <time>2020-12-30T12:08:39Z</time>
      </trkpt>
      <trkpt lat="43.65163" lon="3.85163">
        <ele>60</ele>
        <time>2020-12-30T12:08:40Z</time>
      </trkpt>
      <trkpt lat="43.6516" lon="3.85158">
        <ele>59</ele>
        <time>2020-12-30T12:08:41Z</time>
      </trkpt>
      <trkpt lat="43.65157" lon="3.85152">
        <ele>58</ele>
        <time>2020-12-30T12:08:42Z</time>
      </trkpt>
      <trkpt lat="43.65151" lon="3.85142">
        <ele>59</ele>
        <time>2020-12-30T12:08:44Z</time>
      </trkpt>
      <trkpt lat="43.65147" lon="3.85138">
        <ele>59</ele>
        <time>2020-12-30T12:08:45Z</time>
      </trkpt>
      <trkpt lat="43.65143" lon="3.85133">
        <ele>59</ele>
        <time>2020-12-30T12:08:46Z</time>
      </trkpt>
      <trkpt lat="43.65138" lon="3.85124">
        <ele>59</ele>
        <time>2020-12-30T12:08:48Z</time>
      </trkpt>
      <trkpt lat="43.65132" lon="3.85115">
        <ele>59</ele>
        <time>2020-12-30T12:08:50Z</time>
      </trkpt>
      <trkpt lat="43.6513" lon="3.8511">
        <ele>59</ele>
        <time>2020-12-30T12:08:51Z</time>
      </trkpt>
      <trkpt lat="43.65126" lon="3.85105">
        <ele>59</ele>
        <time>2020-12-30T12:08:52Z</time>
      </trkpt>
      <trkpt lat="43.65123" lon="3.851">
        <ele>59</ele>
        <time>2020-12-30T12:08:53Z</time>
      </trkpt>
      <trkpt lat="43.6512" lon="3.85095">
        <ele>59</ele>
        <time>2020-12-30T12:08:54Z</time>
      </trkpt>
      <trkpt lat="43.65111" lon="3.85088">
        <ele>59</ele>
        <time>2020-12-30T12:08:56Z</time>
      </trkpt>
      <trkpt lat="43.65106" lon="3.85086">
        <ele>59</ele>
        <time>2020-12-30T12:08:57Z</time>
      </trkpt>
      <trkpt lat="43.65101" lon="3.85084">
        <ele>60</ele>
        <time>2020-12-30T12:08:58Z</time>
      </trkpt>
      <trkpt lat="43.65095" lon="3.85083">
        <ele>60</ele>
        <time>2020-12-30T12:08:59Z</time>
      </trkpt>
      <trkpt lat="43.65091" lon="3.85082">
        <ele>61</ele>
        <time>2020-12-30T12:09:00Z</time>
      </trkpt>
      <trkpt lat="43.65086" lon="3.8508">
        <ele>61</ele>
        <time>2020-12-30T12:09:01Z</time>
      </trkpt>
      <trkpt lat="43.65081" lon="3.8508">
        <ele>62</ele>
        <time>2020-12-30T12:09:02Z</time>
      </trkpt>
      <trkpt lat="43.65075" lon="3.85078">
        <ele>63</ele>
        <time>2020-12-30T12:09:03Z</time>
      </trkpt>
      <trkpt lat="43.6507" lon="3.85076">
        <ele>64</ele>
        <time>2020-12-30T12:09:04Z</time>
      </trkpt>
      <trkpt lat="43.65064" lon="3.85075">
        <ele>64</ele>
        <time>2020-12-30T12:09:05Z</time>
      </trkpt>
      <trkpt lat="43.65059" lon="3.85073">
        <ele>64</ele>
        <time>2020-12-30T12:09:06Z</time>
      </trkpt>
      <trkpt lat="43.65055" lon="3.85072">
        <ele>65</ele>
        <time>2020-12-30T12:09:07Z</time>
      </trkpt>
      <trkpt lat="43.65049" lon="3.8507">
        <ele>65</ele>
        <time>2020-12-30T12:09:08Z</time>
      </trkpt>
      <trkpt lat="43.65043" lon="3.8507">
        <ele>65</ele>
        <time>2020-12-30T12:09:09Z</time>
      </trkpt>
      <trkpt lat="43.65039" lon="3.85069">
        <ele>66</ele>
        <time>2020-12-30T12:09:10Z</time>
      </trkpt>
      <trkpt lat="43.65033" lon="3.85067">
        <ele>66</ele>
        <time>2020-12-30T12:09:11Z</time>
      </trkpt>
      <trkpt lat="43.65028" lon="3.85066">
        <ele>65</ele>
        <time>2020-12-30T12:09:12Z</time>
      </trkpt>
      <trkpt lat="43.65023" lon="3.85065">
        <ele>65</ele>
        <time>2020-12-30T12:09:13Z</time>
      </trkpt>
      <trkpt lat="43.65019" lon="3.85064">
        <ele>65</ele>
        <time>2020-12-30T12:09:14Z</time>
      </trkpt>
      <trkpt lat="43.65014" lon="3.85063">
        <ele>64</ele>
        <time>2020-12-30T12:09:15Z</time>
      </trkpt>
      <trkpt lat="43.65006" lon="3.85062">
        <ele>65</ele>
        <time>2020-12-30T12:09:17Z</time>
      </trkpt>
      <trkpt lat="43.65001" lon="3.8506">
        <ele>65</ele>
        <time>2020-12-30T12:09:18Z</time>
      </trkpt>
      <trkpt lat="43.64996" lon="3.85056">
        <ele>65</ele>
        <time>2020-12-30T12:09:19Z</time>
      </trkpt>
      <trkpt lat="43.64994" lon="3.85049">
        <ele>64</ele>
        <time>2020-12-30T12:09:20Z</time>
      </trkpt>
      <trkpt lat="43.64993" lon="3.85042">
        <ele>64</ele>
        <time>2020-12-30T12:09:21Z</time>
      </trkpt>
      <trkpt lat="43.64992" lon="3.85035">
        <ele>63</ele>
        <time>2020-12-30T12:09:22Z</time>
      </trkpt>
      <trkpt lat="43.64991" lon="3.85028">
        <ele>62</ele>
        <time>2020-12-30T12:09:23Z</time>
      </trkpt>
      <trkpt lat="43.6499" lon="3.85021">
        <ele>61</ele>
        <time>2020-12-30T12:09:24Z</time>
      </trkpt>
      <trkpt lat="43.64989" lon="3.85014">
        <ele>60</ele>
        <time>2020-12-30T12:09:25Z</time>
      </trkpt>
      <trkpt lat="43.64988" lon="3.85007">
        <ele>60</ele>
        <time>2020-12-30T12:09:26Z</time>
      </trkpt>
      <trkpt lat="43.64986" lon="3.85001">
        <ele>59</ele>
        <time>2020-12-30T12:09:27Z</time>
      </trkpt>
      <trkpt lat="43.64985" lon="3.84995">
        <ele>58</ele>
        <time>2020-12-30T12:09:28Z</time>
      </trkpt>
      <trkpt lat="43.64984" lon="3.84989">
        <ele>58</ele>
        <time>2020-12-30T12:09:29Z</time>
      </trkpt>
      <trkpt lat="43.64983" lon="3.84982">
        <ele>57</ele>
        <time>2020-12-30T12:09:30Z</time>
      </trkpt>
      <trkpt lat="43.6498" lon="3.84971">
        <ele>58</ele>
        <time>2020-12-30T12:09:32Z</time>
      </trkpt>
      <trkpt lat="43.64978" lon="3.8496">
        <ele>58</ele>
        <time>2020-12-30T12:09:34Z</time>
      </trkpt>
      <trkpt lat="43.64978" lon="3.84951">
        <ele>58</ele>
        <time>2020-12-30T12:09:36Z</time>
      </trkpt>
      <trkpt lat="43.64978" lon="3.84944">
        <ele>59</ele>
        <time>2020-12-30T12:09:39Z</time>
      </trkpt>
      <trkpt lat="43.64978" lon="3.84943">
        <ele>59</ele>
        <time>2020-12-30T12:09:58Z</time>
      </trkpt>
      <trkpt lat="43.64978" lon="3.84943">
        <ele>60</ele>
        <time>2020-12-30T12:09:59Z</time>
      </trkpt>
      <trkpt lat="43.64978" lon="3.84936">
        <ele>60</ele>
        <time>2020-12-30T12:10:05Z</time>
      </trkpt>
      <trkpt lat="43.64976" lon="3.84927">
        <ele>60</ele>
        <time>2020-12-30T12:10:08Z</time>
      </trkpt>
      <trkpt lat="43.64973" lon="3.84919">
        <ele>60</ele>
        <time>2020-12-30T12:10:12Z</time>
      </trkpt>
      <trkpt lat="43.64968" lon="3.84915">
        <ele>60</ele>
        <time>2020-12-30T12:10:15Z</time>
      </trkpt>
      <trkpt lat="43.64962" lon="3.84911">
        <ele>59</ele>
        <time>2020-12-30T12:10:17Z</time>
      </trkpt>
      <trkpt lat="43.64957" lon="3.84907">
        <ele>58</ele>
        <time>2020-12-30T12:10:19Z</time>
      </trkpt>
      <trkpt lat="43.64951" lon="3.84907">
        <ele>57</ele>
        <time>2020-12-30T12:10:21Z</time>
      </trkpt>
      <trkpt lat="43.64947" lon="3.84908">
        <ele>57</ele>
        <time>2020-12-30T12:10:23Z</time>
      </trkpt>
      <trkpt lat="43.64942" lon="3.8491">
        <ele>56</ele>
        <time>2020-12-30T12:10:25Z</time>
      </trkpt>
      <trkpt lat="43.64936" lon="3.84912">
        <ele>56</ele>
        <time>2020-12-30T12:10:27Z</time>
      </trkpt>
      <trkpt lat="43.6493" lon="3.84915">
        <ele>57</ele>
        <time>2020-12-30T12:10:29Z</time>
      </trkpt>
      <trkpt lat="43.64924" lon="3.84917">
        <ele>58</ele>
        <time>2020-12-30T12:10:31Z</time>
      </trkpt>
      <trkpt lat="43.64919" lon="3.84921">
        <ele>58</ele>
        <time>2020-12-30T12:10:33Z</time>
      </trkpt>
      <trkpt lat="43.64912" lon="3.84928">
        <ele>59</ele>
        <time>2020-12-30T12:10:35Z</time>
      </trkpt>
      <trkpt lat="43.64906" lon="3.84931">
        <ele>59</ele>
        <time>2020-12-30T12:10:36Z</time>
      </trkpt>
      <trkpt lat="43.64903" lon="3.84939">
        <ele>59</ele>
        <time>2020-12-30T12:10:39Z</time>
      </trkpt>
      <trkpt lat="43.64898" lon="3.84943">
        <ele>59</ele>
        <time>2020-12-30T12:10:41Z</time>
      </trkpt>
      <trkpt lat="43.64893" lon="3.84949">
        <ele>59</ele>
        <time>2020-12-30T12:10:43Z</time>
      </trkpt>
      <trkpt lat="43.64889" lon="3.84954">
        <ele>59</ele>
        <time>2020-12-30T12:10:45Z</time>
      </trkpt>
      <trkpt lat="43.64884" lon="3.8496">
        <ele>59</ele>
        <time>2020-12-30T12:10:47Z</time>
      </trkpt>
      <trkpt lat="43.64879" lon="3.84966">
        <ele>59</ele>
        <time>2020-12-30T12:10:48Z</time>
      </trkpt>
      <trkpt lat="43.64874" lon="3.8497">
        <ele>59</ele>
        <time>2020-12-30T12:10:49Z</time>
      </trkpt>
      <trkpt lat="43.64867" lon="3.84975">
        <ele>59</ele>
        <time>2020-12-30T12:10:51Z</time>
      </trkpt>
      <trkpt lat="43.64862" lon="3.84983">
        <ele>59</ele>
        <time>2020-12-30T12:10:52Z</time>
      </trkpt>
      <trkpt lat="43.64856" lon="3.84991">
        <ele>60</ele>
        <time>2020-12-30T12:10:54Z</time>
      </trkpt>
      <trkpt lat="43.64853" lon="3.85001">
        <ele>61</ele>
        <time>2020-12-30T12:10:56Z</time>
      </trkpt>
      <trkpt lat="43.6485" lon="3.8501">
        <ele>62</ele>
        <time>2020-12-30T12:10:58Z</time>
      </trkpt>
      <trkpt lat="43.64848" lon="3.85016">
        <ele>63</ele>
        <time>2020-12-30T12:11:00Z</time>
      </trkpt>
      <trkpt lat="43.64846" lon="3.85024">
        <ele>63</ele>
        <time>2020-12-30T12:11:02Z</time>
      </trkpt>
      <trkpt lat="43.64843" lon="3.85034">
        <ele>63</ele>
        <time>2020-12-30T12:11:04Z</time>
      </trkpt>
      <trkpt lat="43.64841" lon="3.85041">
        <ele>63</ele>
        <time>2020-12-30T12:11:05Z</time>
      </trkpt>
      <trkpt lat="43.64838" lon="3.85049">
        <ele>63</ele>
        <time>2020-12-30T12:11:06Z</time>
      </trkpt>
      <trkpt lat="43.64836" lon="3.85057">
        <ele>62</ele>
        <time>2020-12-30T12:11:07Z</time>
      </trkpt>
      <trkpt lat="43.64834" lon="3.85063">
        <ele>62</ele>
        <time>2020-12-30T12:11:08Z</time>
      </trkpt>
      <trkpt lat="43.64829" lon="3.85072">
        <ele>62</ele>
        <time>2020-12-30T12:11:10Z</time>
      </trkpt>
      <trkpt lat="43.64825" lon="3.85078">
        <ele>62</ele>
        <time>2020-12-30T12:11:11Z</time>
      </trkpt>
      <trkpt lat="43.64823" lon="3.85083">
        <ele>62</ele>
        <time>2020-12-30T12:11:12Z</time>
      </trkpt>
      <trkpt lat="43.6482" lon="3.85088">
        <ele>62</ele>
        <time>2020-12-30T12:11:13Z</time>
      </trkpt>
      <trkpt lat="43.64813" lon="3.85096">
        <ele>62</ele>
        <time>2020-12-30T12:11:15Z</time>
      </trkpt>
      <trkpt lat="43.6481" lon="3.85101">
        <ele>62</ele>
        <time>2020-12-30T12:11:16Z</time>
      </trkpt>
      <trkpt lat="43.64807" lon="3.85106">
        <ele>62</ele>
        <time>2020-12-30T12:11:17Z</time>
      </trkpt>
      <trkpt lat="43.64804" lon="3.85111">
        <ele>62</ele>
        <time>2020-12-30T12:11:18Z</time>
      </trkpt>
      <trkpt lat="43.648" lon="3.85116">
        <ele>62</ele>
        <time>2020-12-30T12:11:19Z</time>
      </trkpt>
      <trkpt lat="43.64798" lon="3.85122">
        <ele>63</ele>
        <time>2020-12-30T12:11:20Z</time>
      </trkpt>
      <trkpt lat="43.64794" lon="3.85127">
        <ele>62</ele>
        <time>2020-12-30T12:11:21Z</time>
      </trkpt>
      <trkpt lat="43.6479" lon="3.85131">
        <ele>62</ele>
        <time>2020-12-30T12:11:22Z</time>
      </trkpt>
      <trkpt lat="43.64787" lon="3.85136">
        <ele>62</ele>
        <time>2020-12-30T12:11:23Z</time>
      </trkpt>
      <trkpt lat="43.64784" lon="3.85141">
        <ele>62</ele>
        <time>2020-12-30T12:11:24Z</time>
      </trkpt>
      <trkpt lat="43.64778" lon="3.8515">
        <ele>62</ele>
        <time>2020-12-30T12:11:26Z</time>
      </trkpt>
      <trkpt lat="43.64775" lon="3.85154">
        <ele>62</ele>
        <time>2020-12-30T12:11:27Z</time>
      </trkpt>
      <trkpt lat="43.6477" lon="3.85162">
        <ele>62</ele>
        <time>2020-12-30T12:11:29Z</time>
      </trkpt>
      <trkpt lat="43.64764" lon="3.85169">
        <ele>63</ele>
        <time>2020-12-30T12:11:31Z</time>
      </trkpt>
      <trkpt lat="43.64761" lon="3.85172">
        <ele>63</ele>
        <time>2020-12-30T12:11:32Z</time>
      </trkpt>
      <trkpt lat="43.64756" lon="3.85172">
        <ele>63</ele>
        <time>2020-12-30T12:11:33Z</time>
      </trkpt>
      <trkpt lat="43.64748" lon="3.85172">
        <ele>64</ele>
        <time>2020-12-30T12:11:35Z</time>
      </trkpt>
      <trkpt lat="43.64741" lon="3.85175">
        <ele>63</ele>
        <time>2020-12-30T12:11:37Z</time>
      </trkpt>
      <trkpt lat="43.64734" lon="3.85179">
        <ele>63</ele>
        <time>2020-12-30T12:11:39Z</time>
      </trkpt>
      <trkpt lat="43.64726" lon="3.85181">
        <ele>63</ele>
        <time>2020-12-30T12:11:41Z</time>
      </trkpt>
      <trkpt lat="43.64718" lon="3.85183">
        <ele>63</ele>
        <time>2020-12-30T12:11:43Z</time>
      </trkpt>
      <trkpt lat="43.6471" lon="3.85184">
        <ele>64</ele>
        <time>2020-12-30T12:11:45Z</time>
      </trkpt>
      <trkpt lat="43.64703" lon="3.85182">
        <ele>64</ele>
        <time>2020-12-30T12:11:48Z</time>
      </trkpt>
      <trkpt lat="43.64692" lon="3.85177">
        <ele>64</ele>
        <time>2020-12-30T12:11:50Z</time>
      </trkpt>
      <trkpt lat="43.64685" lon="3.85176">
        <ele>65</ele>
        <time>2020-12-30T12:11:52Z</time>
      </trkpt>
      <trkpt lat="43.64677" lon="3.85173">
        <ele>65</ele>
        <time>2020-12-30T12:11:54Z</time>
      </trkpt>
      <trkpt lat="43.6467" lon="3.85169">
        <ele>65</ele>
        <time>2020-12-30T12:11:56Z</time>
      </trkpt>
      <trkpt lat="43.64664" lon="3.85168">
        <ele>65</ele>
        <time>2020-12-30T12:11:58Z</time>
      </trkpt>
      <trkpt lat="43.64658" lon="3.85165">
        <ele>65</ele>
        <time>2020-12-30T12:12:00Z</time>
      </trkpt>
      <trkpt lat="43.6465" lon="3.85163">
        <ele>65</ele>
        <time>2020-12-30T12:12:02Z</time>
      </trkpt>
      <trkpt lat="43.64645" lon="3.85162">
        <ele>65</ele>
        <time>2020-12-30T12:12:03Z</time>
      </trkpt>
      <trkpt lat="43.64637" lon="3.8516">
        <ele>65</ele>
        <time>2020-12-30T12:12:05Z</time>
      </trkpt>
      <trkpt lat="43.64631" lon="3.85159">
        <ele>65</ele>
        <time>2020-12-30T12:12:06Z</time>
      </trkpt>
      <trkpt lat="43.64623" lon="3.85157">
        <ele>65</ele>
        <time>2020-12-30T12:12:08Z</time>
      </trkpt>
      <trkpt lat="43.64614" lon="3.85155">
        <ele>65</ele>
        <time>2020-12-30T12:12:10Z</time>
      </trkpt>
      <trkpt lat="43.64606" lon="3.85155">
        <ele>65</ele>
        <time>2020-12-30T12:12:12Z</time>
      </trkpt>
      <trkpt lat="43.64599" lon="3.85154">
        <ele>65</ele>
        <time>2020-12-30T12:12:14Z</time>
      </trkpt>
      <trkpt lat="43.64593" lon="3.8516">
        <ele>65</ele>
        <time>2020-12-30T12:12:16Z</time>
      </trkpt>
      <trkpt lat="43.64588" lon="3.85165">
        <ele>65</ele>
        <time>2020-12-30T12:12:18Z</time>
      </trkpt>
      <trkpt lat="43.64583" lon="3.85172">
        <ele>65</ele>
        <time>2020-12-30T12:12:20Z</time>
      </trkpt>
      <trkpt lat="43.64578" lon="3.85177">
        <ele>65</ele>
        <time>2020-12-30T12:12:22Z</time>
      </trkpt>
      <trkpt lat="43.64573" lon="3.8518">
        <ele>65</ele>
        <time>2020-12-30T12:12:24Z</time>
      </trkpt>
      <trkpt lat="43.64571" lon="3.85187">
        <ele>64</ele>
        <time>2020-12-30T12:12:27Z</time>
      </trkpt>
      <trkpt lat="43.64565" lon="3.85188">
        <ele>64</ele>
        <time>2020-12-30T12:12:31Z</time>
      </trkpt>
      <trkpt lat="43.64561" lon="3.85192">
        <ele>64</ele>
        <time>2020-12-30T12:12:34Z</time>
      </trkpt>
      <trkpt lat="43.64556" lon="3.85192">
        <ele>64</ele>
        <time>2020-12-30T12:12:38Z</time>
      </trkpt>
      <trkpt lat="43.64551" lon="3.85192">
        <ele>64</ele>
        <time>2020-12-30T12:12:41Z</time>
      </trkpt>
      <trkpt lat="43.64546" lon="3.85192">
        <ele>64</ele>
        <time>2020-12-30T12:12:43Z</time>
      </trkpt>
      <trkpt lat="43.64542" lon="3.85194">
        <ele>64</ele>
        <time>2020-12-30T12:12:45Z</time>
      </trkpt>
      <trkpt lat="43.64538" lon="3.85199">
        <ele>65</ele>
        <time>2020-12-30T12:12:47Z</time>
      </trkpt>
      <trkpt lat="43.64535" lon="3.85203">
        <ele>65</ele>
        <time>2020-12-30T12:12:49Z</time>
      </trkpt>
      <trkpt lat="43.64529" lon="3.85208">
        <ele>65</ele>
        <time>2020-12-30T12:12:52Z</time>
      </trkpt>
      <trkpt lat="43.64525" lon="3.8521">
        <ele>65</ele>
        <time>2020-12-30T12:12:54Z</time>
      </trkpt>
      <trkpt lat="43.6452" lon="3.85212">
        <ele>66</ele>
        <time>2020-12-30T12:12:56Z</time>
      </trkpt>
      <trkpt lat="43.64515" lon="3.85212">
        <ele>66</ele>
        <time>2020-12-30T12:12:58Z</time>
      </trkpt>
      <trkpt lat="43.64509" lon="3.85211">
        <ele>66</ele>
        <time>2020-12-30T12:13:00Z</time>
      </trkpt>
      <trkpt lat="43.64504" lon="3.8521">
        <ele>67</ele>
        <time>2020-12-30T12:13:02Z</time>
      </trkpt>
      <trkpt lat="43.645" lon="3.85208">
        <ele>67</ele>
        <time>2020-12-30T12:13:04Z</time>
      </trkpt>
      <trkpt lat="43.64494" lon="3.85204">
        <ele>67</ele>
        <time>2020-12-30T12:13:07Z</time>
      </trkpt>
      <trkpt lat="43.6449" lon="3.85206">
        <ele>67</ele>
        <time>2020-12-30T12:13:09Z</time>
      </trkpt>
      <trkpt lat="43.64485" lon="3.85212">
        <ele>68</ele>
        <time>2020-12-30T12:13:16Z</time>
      </trkpt>
      <trkpt lat="43.6448" lon="3.85216">
        <ele>68</ele>
        <time>2020-12-30T12:13:18Z</time>
      </trkpt>
      <trkpt lat="43.64473" lon="3.85212">
        <ele>68</ele>
        <time>2020-12-30T12:13:20Z</time>
      </trkpt>
      <trkpt lat="43.6447" lon="3.85207">
        <ele>68</ele>
        <time>2020-12-30T12:13:21Z</time>
      </trkpt>
      <trkpt lat="43.64467" lon="3.85202">
        <ele>68</ele>
        <time>2020-12-30T12:13:22Z</time>
      </trkpt>
      <trkpt lat="43.64465" lon="3.85196">
        <ele>68</ele>
        <time>2020-12-30T12:13:23Z</time>
      </trkpt>
      <trkpt lat="43.64462" lon="3.8519">
        <ele>68</ele>
        <time>2020-12-30T12:13:24Z</time>
      </trkpt>
      <trkpt lat="43.64459" lon="3.85184">
        <ele>67</ele>
        <time>2020-12-30T12:13:25Z</time>
      </trkpt>
      <trkpt lat="43.64456" lon="3.85179">
        <ele>67</ele>
        <time>2020-12-30T12:13:26Z</time>
      </trkpt>
      <trkpt lat="43.64453" lon="3.85174">
        <ele>67</ele>
        <time>2020-12-30T12:13:27Z</time>
      </trkpt>
      <trkpt lat="43.6445" lon="3.8517">
        <ele>67</ele>
        <time>2020-12-30T12:13:28Z</time>
      </trkpt>
      <trkpt lat="43.64444" lon="3.85159">
        <ele>67</ele>
        <time>2020-12-30T12:13:30Z</time>
      </trkpt>
      <trkpt lat="43.64441" lon="3.85151">
        <ele>67</ele>
        <time>2020-12-30T12:13:32Z</time>
      </trkpt>
      <trkpt lat="43.64435" lon="3.85142">
        <ele>67</ele>
        <time>2020-12-30T12:13:34Z</time>
      </trkpt>
      <trkpt lat="43.64432" lon="3.85137">
        <ele>67</ele>
        <time>2020-12-30T12:13:35Z</time>
      </trkpt>
      <trkpt lat="43.64426" lon="3.85127">
        <ele>67</ele>
        <time>2020-12-30T12:13:37Z</time>
      </trkpt>
      <trkpt lat="43.64423" lon="3.85121">
        <ele>67</ele>
        <time>2020-12-30T12:13:38Z</time>
      </trkpt>
      <trkpt lat="43.64417" lon="3.85112">
        <ele>67</ele>
        <time>2020-12-30T12:13:40Z</time>
      </trkpt>
      <trkpt lat="43.64412" lon="3.85104">
        <ele>67</ele>
        <time>2020-12-30T12:13:42Z</time>
      </trkpt>
      <trkpt lat="43.64407" lon="3.85096">
        <ele>68</ele>
        <time>2020-12-30T12:13:44Z</time>
      </trkpt>
      <trkpt lat="43.64402" lon="3.85087">
        <ele>68</ele>
        <time>2020-12-30T12:13:46Z</time>
      </trkpt>
      <trkpt lat="43.64399" lon="3.85082">
        <ele>68</ele>
        <time>2020-12-30T12:13:47Z</time>
      </trkpt>
      <trkpt lat="43.64395" lon="3.85074">
        <ele>68</ele>
        <time>2020-12-30T12:13:49Z</time>
      </trkpt>
      <trkpt lat="43.64391" lon="3.85067">
        <ele>69</ele>
        <time>2020-12-30T12:13:51Z</time>
      </trkpt>
      <trkpt lat="43.64388" lon="3.8506">
        <ele>69</ele>
        <time>2020-12-30T12:13:53Z</time>
      </trkpt>
      <trkpt lat="43.64385" lon="3.85052">
        <ele>70</ele>
        <time>2020-12-30T12:13:55Z</time>
      </trkpt>
      <trkpt lat="43.6438" lon="3.85045">
        <ele>71</ele>
        <time>2020-12-30T12:13:57Z</time>
      </trkpt>
      <trkpt lat="43.64376" lon="3.85037">
        <ele>72</ele>
        <time>2020-12-30T12:13:59Z</time>
      </trkpt>
      <trkpt lat="43.64372" lon="3.8503">
        <ele>72</ele>
        <time>2020-12-30T12:14:01Z</time>
      </trkpt>
      <trkpt lat="43.64368" lon="3.85024">
        <ele>73</ele>
        <time>2020-12-30T12:14:03Z</time>
      </trkpt>
      <trkpt lat="43.64365" lon="3.85018">
        <ele>73</ele>
        <time>2020-12-30T12:14:05Z</time>
      </trkpt>
      <trkpt lat="43.64363" lon="3.85013">
        <ele>73</ele>
        <time>2020-12-30T12:14:07Z</time>
      </trkpt>
      <trkpt lat="43.6436" lon="3.85006">
        <ele>73</ele>
        <time>2020-12-30T12:14:10Z</time>
      </trkpt>
      <trkpt lat="43.64357" lon="3.84999">
        <ele>73</ele>
        <time>2020-12-30T12:14:13Z</time>
      </trkpt>
      <trkpt lat="43.64354" lon="3.84993">
        <ele>72</ele>
        <time>2020-12-30T12:14:15Z</time>
      </trkpt>
      <trkpt lat="43.64351" lon="3.84986">
        <ele>72</ele>
        <time>2020-12-30T12:14:18Z</time>
      </trkpt>
      <trkpt lat="43.64346" lon="3.84978">
        <ele>72</ele>
        <time>2020-12-30T12:14:21Z</time>
      </trkpt>
      <trkpt lat="43.64344" lon="3.84973">
        <ele>72</ele>
        <time>2020-12-30T12:14:23Z</time>
      </trkpt>
      <trkpt lat="43.64342" lon="3.84966">
        <ele>73</ele>
        <time>2020-12-30T12:14:25Z</time>
      </trkpt>
      <trkpt lat="43.64339" lon="3.84958">
        <ele>73</ele>
        <time>2020-12-30T12:14:27Z</time>
      </trkpt>
      <trkpt lat="43.64336" lon="3.8495">
        <ele>73</ele>
        <time>2020-12-30T12:14:29Z</time>
      </trkpt>
      <trkpt lat="43.64333" lon="3.84941">
        <ele>74</ele>
        <time>2020-12-30T12:14:31Z</time>
      </trkpt>
      <trkpt lat="43.6433" lon="3.84931">
        <ele>73</ele>
        <time>2020-12-30T12:14:33Z</time>
      </trkpt>
      <trkpt lat="43.64326" lon="3.84921">
        <ele>72</ele>
        <time>2020-12-30T12:14:35Z</time>
      </trkpt>
      <trkpt lat="43.64321" lon="3.84912">
        <ele>72</ele>
        <time>2020-12-30T12:14:37Z</time>
      </trkpt>
      <trkpt lat="43.64319" lon="3.84907">
        <ele>72</ele>
        <time>2020-12-30T12:14:38Z</time>
      </trkpt>
      <trkpt lat="43.64315" lon="3.84901">
        <ele>71</ele>
        <time>2020-12-30T12:14:39Z</time>
      </trkpt>
      <trkpt lat="43.64311" lon="3.84894">
        <ele>71</ele>
        <time>2020-12-30T12:14:40Z</time>
      </trkpt>
      <trkpt lat="43.64308" lon="3.84889">
        <ele>71</ele>
        <time>2020-12-30T12:14:41Z</time>
      </trkpt>
      <trkpt lat="43.64303" lon="3.84878">
        <ele>70</ele>
        <time>2020-12-30T12:14:43Z</time>
      </trkpt>
      <trkpt lat="43.64299" lon="3.84874">
        <ele>69</ele>
        <time>2020-12-30T12:14:44Z</time>
      </trkpt>
      <trkpt lat="43.64296" lon="3.84868">
        <ele>69</ele>
        <time>2020-12-30T12:14:45Z</time>
      </trkpt>
      <trkpt lat="43.64294" lon="3.84863">
        <ele>68</ele>
        <time>2020-12-30T12:14:46Z</time>
      </trkpt>
      <trkpt lat="43.64287" lon="3.84854">
        <ele>68</ele>
        <time>2020-12-30T12:14:48Z</time>
      </trkpt>
      <trkpt lat="43.64282" lon="3.84847">
        <ele>67</ele>
        <time>2020-12-30T12:14:50Z</time>
      </trkpt>
      <trkpt lat="43.64277" lon="3.84841">
        <ele>67</ele>
        <time>2020-12-30T12:14:52Z</time>
      </trkpt>
      <trkpt lat="43.64273" lon="3.84834">
        <ele>66</ele>
        <time>2020-12-30T12:14:54Z</time>
      </trkpt>
      <trkpt lat="43.64269" lon="3.84828">
        <ele>66</ele>
        <time>2020-12-30T12:14:56Z</time>
      </trkpt>
      <trkpt lat="43.64264" lon="3.84822">
        <ele>65</ele>
        <time>2020-12-30T12:14:58Z</time>
      </trkpt>
      <trkpt lat="43.64257" lon="3.84817">
        <ele>65</ele>
        <time>2020-12-30T12:15:00Z</time>
      </trkpt>
      <trkpt lat="43.64253" lon="3.84814">
        <ele>65</ele>
        <time>2020-12-30T12:15:01Z</time>
      </trkpt>
      <trkpt lat="43.64247" lon="3.8481">
        <ele>65</ele>
        <time>2020-12-30T12:15:03Z</time>
      </trkpt>
      <trkpt lat="43.64242" lon="3.8481">
        <ele>65</ele>
        <time>2020-12-30T12:15:05Z</time>
      </trkpt>
      <trkpt lat="43.6424" lon="3.84816">
        <ele>64</ele>
        <time>2020-12-30T12:15:07Z</time>
      </trkpt>
      <trkpt lat="43.64237" lon="3.84822">
        <ele>64</ele>
        <time>2020-12-30T12:15:09Z</time>
      </trkpt>
      <trkpt lat="43.64235" lon="3.84828">
        <ele>64</ele>
        <time>2020-12-30T12:15:13Z</time>
      </trkpt>
      <trkpt lat="43.64235" lon="3.84837">
        <ele>64</ele>
        <time>2020-12-30T12:15:16Z</time>
      </trkpt>
      <trkpt lat="43.64234" lon="3.84844">
        <ele>64</ele>
        <time>2020-12-30T12:15:32Z</time>
      </trkpt>
      <trkpt lat="43.64233" lon="3.84851">
        <ele>65</ele>
        <time>2020-12-30T12:15:35Z</time>
      </trkpt>
      <trkpt lat="43.64231" lon="3.84856">
        <ele>66</ele>
        <time>2020-12-30T12:15:38Z</time>
      </trkpt>
      <trkpt lat="43.6423" lon="3.84864">
        <ele>67</ele>
        <time>2020-12-30T12:15:41Z</time>
      </trkpt>
      <trkpt lat="43.64228" lon="3.84871">
        <ele>68</ele>
        <time>2020-12-30T12:15:44Z</time>
      </trkpt>
      <trkpt lat="43.64225" lon="3.84878">
        <ele>68</ele>
        <time>2020-12-30T12:15:47Z</time>
      </trkpt>
      <trkpt lat="43.64223" lon="3.84887">
        <ele>68</ele>
        <time>2020-12-30T12:15:51Z</time>
      </trkpt>
      <trkpt lat="43.64222" lon="3.84893">
        <ele>68</ele>
        <time>2020-12-30T12:15:53Z</time>
      </trkpt>
      <trkpt lat="43.64224" lon="3.84899">
        <ele>69</ele>
        <time>2020-12-30T12:15:56Z</time>
      </trkpt>
      <trkpt lat="43.64224" lon="3.84909">
        <ele>70</ele>
        <time>2020-12-30T12:16:00Z</time>
      </trkpt>
      <trkpt lat="43.64222" lon="3.84917">
        <ele>72</ele>
        <time>2020-12-30T12:16:03Z</time>
      </trkpt>
      <trkpt lat="43.64221" lon="3.84924">
        <ele>73</ele>
        <time>2020-12-30T12:16:06Z</time>
      </trkpt>
      <trkpt lat="43.6422" lon="3.84932">
        <ele>76</ele>
        <time>2020-12-30T12:16:10Z</time>
      </trkpt>
      <trkpt lat="43.64216" lon="3.84937">
        <ele>77</ele>
        <time>2020-12-30T12:16:13Z</time>
      </trkpt>
      <trkpt lat="43.64211" lon="3.84939">
        <ele>78</ele>
        <time>2020-12-30T12:16:17Z</time>
      </trkpt>
      <trkpt lat="43.64211" lon="3.84942">
        <ele>79</ele>
        <time>2020-12-30T12:16:43Z</time>
      </trkpt>
      <trkpt lat="43.6421" lon="3.84944">
        <ele>81</ele>
        <time>2020-12-30T12:16:44Z</time>
      </trkpt>
      <trkpt lat="43.64204" lon="3.84945">
        <ele>81</ele>
        <time>2020-12-30T12:16:46Z</time>
      </trkpt>
      <trkpt lat="43.64199" lon="3.84946">
        <ele>82</ele>
        <time>2020-12-30T12:16:49Z</time>
      </trkpt>
      <trkpt lat="43.64195" lon="3.8495">
        <ele>83</ele>
        <time>2020-12-30T12:16:52Z</time>
      </trkpt>
      <trkpt lat="43.64192" lon="3.84956">
        <ele>83</ele>
        <time>2020-12-30T12:16:55Z</time>
      </trkpt>
      <trkpt lat="43.64188" lon="3.84962">
        <ele>83</ele>
        <time>2020-12-30T12:16:58Z</time>
      </trkpt>
      <trkpt lat="43.64185" lon="3.84967">
        <ele>83</ele>
        <time>2020-12-30T12:17:02Z</time>
      </trkpt>
      <trkpt lat="43.64182" lon="3.84973">
        <ele>82</ele>
        <time>2020-12-30T12:17:06Z</time>
      </trkpt>
      <trkpt lat="43.64179" lon="3.84979">
        <ele>82</ele>
        <time>2020-12-30T12:17:10Z</time>
      </trkpt>
      <trkpt lat="43.64174" lon="3.84976">
        <ele>81</ele>
        <time>2020-12-30T12:17:14Z</time>
      </trkpt>
      <trkpt lat="43.64172" lon="3.8497">
        <ele>80</ele>
        <time>2020-12-30T12:17:16Z</time>
      </trkpt>
      <trkpt lat="43.6417" lon="3.84964">
        <ele>79</ele>
        <time>2020-12-30T12:17:20Z</time>
      </trkpt>
      <trkpt lat="43.64166" lon="3.84959">
        <ele>78</ele>
        <time>2020-12-30T12:17:22Z</time>
      </trkpt>
      <trkpt lat="43.64163" lon="3.84954">
        <ele>77</ele>
        <time>2020-12-30T12:17:25Z</time>
      </trkpt>
      <trkpt lat="43.64164" lon="3.84947">
        <ele>77</ele>
        <time>2020-12-30T12:17:29Z</time>
      </trkpt>
      <trkpt lat="43.64169" lon="3.8495">
        <ele>77</ele>
        <time>2020-12-30T12:17:33Z</time>
      </trkpt>
      <trkpt lat="43.64167" lon="3.84956">
        <ele>77</ele>
        <time>2020-12-30T12:17:38Z</time>
      </trkpt>
      <trkpt lat="43.64163" lon="3.84952">
        <ele>77</ele>
        <time>2020-12-30T12:17:41Z</time>
      </trkpt>
      <trkpt lat="43.64162" lon="3.84945">
        <ele>77</ele>
        <time>2020-12-30T12:17:52Z</time>
      </trkpt>
      <trkpt lat="43.64159" lon="3.84938">
        <ele>76</ele>
        <time>2020-12-30T12:18:01Z</time>
      </trkpt>
      <trkpt lat="43.64157" lon="3.84932">
        <ele>76</ele>
        <time>2020-12-30T12:18:04Z</time>
      </trkpt>
      <trkpt lat="43.64161" lon="3.84928">
        <ele>75</ele>
        <time>2020-12-30T12:18:07Z</time>
      </trkpt>
      <trkpt lat="43.64167" lon="3.84925">
        <ele>75</ele>
        <time>2020-12-30T12:18:11Z</time>
      </trkpt>
      <trkpt lat="43.64172" lon="3.84924">
        <ele>75</ele>
        <time>2020-12-30T12:18:14Z</time>
      </trkpt>
      <trkpt lat="43.64177" lon="3.84922">
        <ele>76</ele>
        <time>2020-12-30T12:18:18Z</time>
      </trkpt>
      <trkpt lat="43.64181" lon="3.84917">
        <ele>77</ele>
        <time>2020-12-30T12:18:23Z</time>
      </trkpt>
      <trkpt lat="43.6418" lon="3.8491">
        <ele>78</ele>
        <time>2020-12-30T12:18:28Z</time>
      </trkpt>
      <trkpt lat="43.64179" lon="3.84903">
        <ele>79</ele>
        <time>2020-12-30T12:18:32Z</time>
      </trkpt>
      <trkpt lat="43.6418" lon="3.84896">
        <ele>80</ele>
        <time>2020-12-30T12:18:35Z</time>
      </trkpt>
      <trkpt lat="43.64179" lon="3.84886">
        <ele>80</ele>
        <time>2020-12-30T12:18:38Z</time>
      </trkpt>
      <trkpt lat="43.64179" lon="3.8488">
        <ele>80</ele>
        <time>2020-12-30T12:18:40Z</time>
      </trkpt>
      <trkpt lat="43.64177" lon="3.84873">
        <ele>80</ele>
        <time>2020-12-30T12:18:43Z</time>
      </trkpt>
      <trkpt lat="43.64177" lon="3.84866">
        <ele>79</ele>
        <time>2020-12-30T12:18:46Z</time>
      </trkpt>
      <trkpt lat="43.64177" lon="3.8486">
        <ele>78</ele>
        <time>2020-12-30T12:18:48Z</time>
      </trkpt>
      <trkpt lat="43.64175" lon="3.84853">
        <ele>77</ele>
        <time>2020-12-30T12:18:50Z</time>
      </trkpt>
      <trkpt lat="43.64175" lon="3.84846">
        <ele>76</ele>
        <time>2020-12-30T12:18:52Z</time>
      </trkpt>
      <trkpt lat="43.64176" lon="3.84838">
        <ele>75</ele>
        <time>2020-12-30T12:18:55Z</time>
      </trkpt>
      <trkpt lat="43.64179" lon="3.84833">
        <ele>75</ele>
        <time>2020-12-30T12:18:58Z</time>
      </trkpt>
      <trkpt lat="43.64174" lon="3.84833">
        <ele>76</ele>
        <time>2020-12-30T12:19:07Z</time>
      </trkpt>
      <trkpt lat="43.64169" lon="3.84836">
        <ele>76</ele>
        <time>2020-12-30T12:19:10Z</time>
      </trkpt>
      <trkpt lat="43.64167" lon="3.84842">
        <ele>76</ele>
        <time>2020-12-30T12:19:13Z</time>
      </trkpt>
      <trkpt lat="43.64162" lon="3.84849">
        <ele>77</ele>
        <time>2020-12-30T12:19:16Z</time>
      </trkpt>
      <trkpt lat="43.64157" lon="3.84855">
        <ele>77</ele>
        <time>2020-12-30T12:19:18Z</time>
      </trkpt>
      <trkpt lat="43.64151" lon="3.84855">
        <ele>77</ele>
        <time>2020-12-30T12:19:20Z</time>
      </trkpt>
      <trkpt lat="43.64146" lon="3.84856">
        <ele>77</ele>
        <time>2020-12-30T12:19:22Z</time>
      </trkpt>
      <trkpt lat="43.64141" lon="3.8486">
        <ele>77</ele>
        <time>2020-12-30T12:19:24Z</time>
      </trkpt>
      <trkpt lat="43.64137" lon="3.84865">
        <ele>76</ele>
        <time>2020-12-30T12:19:26Z</time>
      </trkpt>
      <trkpt lat="43.64134" lon="3.8487">
        <ele>76</ele>
        <time>2020-12-30T12:19:28Z</time>
      </trkpt>
      <trkpt lat="43.64131" lon="3.84877">
        <ele>76</ele>
        <time>2020-12-30T12:19:30Z</time>
      </trkpt>
      <trkpt lat="43.64128" lon="3.84882">
        <ele>75</ele>
        <time>2020-12-30T12:19:32Z</time>
      </trkpt>
      <trkpt lat="43.64121" lon="3.84897">
        <ele>75</ele>
        <time>2020-12-30T12:19:34Z</time>
      </trkpt>
      <trkpt lat="43.64118" lon="3.84905">
        <ele>74</ele>
        <time>2020-12-30T12:19:36Z</time>
      </trkpt>
      <trkpt lat="43.64113" lon="3.84908">
        <ele>74</ele>
        <time>2020-12-30T12:19:38Z</time>
      </trkpt>
      <trkpt lat="43.64106" lon="3.8491">
        <ele>73</ele>
        <time>2020-12-30T12:19:40Z</time>
      </trkpt>
      <trkpt lat="43.64101" lon="3.84917">
        <ele>73</ele>
        <time>2020-12-30T12:19:42Z</time>
      </trkpt>
      <trkpt lat="43.64098" lon="3.84924">
        <ele>72</ele>
        <time>2020-12-30T12:19:45Z</time>
      </trkpt>
      <trkpt lat="43.64095" lon="3.84929">
        <ele>71</ele>
        <time>2020-12-30T12:19:46Z</time>
      </trkpt>
      <trkpt lat="43.6409" lon="3.84936">
        <ele>71</ele>
        <time>2020-12-30T12:19:47Z</time>
      </trkpt>
      <trkpt lat="43.64086" lon="3.84944">
        <ele>71</ele>
        <time>2020-12-30T12:19:49Z</time>
      </trkpt>
      <trkpt lat="43.64082" lon="3.8495">
        <ele>71</ele>
        <time>2020-12-30T12:19:51Z</time>
      </trkpt>
      <trkpt lat="43.64078" lon="3.84955">
        <ele>71</ele>
        <time>2020-12-30T12:19:53Z</time>
      </trkpt>
      <trkpt lat="43.64072" lon="3.84959">
        <ele>70</ele>
        <time>2020-12-30T12:19:55Z</time>
      </trkpt>
      <trkpt lat="43.64065" lon="3.8496">
        <ele>70</ele>
        <time>2020-12-30T12:19:58Z</time>
      </trkpt>
      <trkpt lat="43.64059" lon="3.84963">
        <ele>70</ele>
        <time>2020-12-30T12:19:59Z</time>
      </trkpt>
      <trkpt lat="43.64053" lon="3.84964">
        <ele>71</ele>
        <time>2020-12-30T12:20:02Z</time>
      </trkpt>
      <trkpt lat="43.64049" lon="3.84969">
        <ele>71</ele>
        <time>2020-12-30T12:20:05Z</time>
      </trkpt>
      <trkpt lat="43.64046" lon="3.84975">
        <ele>71</ele>
        <time>2020-12-30T12:20:07Z</time>
      </trkpt>
      <trkpt lat="43.64041" lon="3.8498">
        <ele>71</ele>
        <time>2020-12-30T12:20:09Z</time>
      </trkpt>
      <trkpt lat="43.64037" lon="3.84983">
        <ele>71</ele>
        <time>2020-12-30T12:20:13Z</time>
      </trkpt>
      <trkpt lat="43.64041" lon="3.84989">
        <ele>71</ele>
        <time>2020-12-30T12:20:17Z</time>
      </trkpt>
      <trkpt lat="43.64043" lon="3.84995">
        <ele>70</ele>
        <time>2020-12-30T12:20:20Z</time>
      </trkpt>
      <trkpt lat="43.64047" lon="3.85001">
        <ele>70</ele>
        <time>2020-12-30T12:20:22Z</time>
      </trkpt>
      <trkpt lat="43.64051" lon="3.85008">
        <ele>70</ele>
        <time>2020-12-30T12:20:25Z</time>
      </trkpt>
      <trkpt lat="43.64054" lon="3.85013">
        <ele>71</ele>
        <time>2020-12-30T12:20:27Z</time>
      </trkpt>
      <trkpt lat="43.64057" lon="3.85019">
        <ele>71</ele>
        <time>2020-12-30T12:20:29Z</time>
      </trkpt>
      <trkpt lat="43.6406" lon="3.85026">
        <ele>72</ele>
        <time>2020-12-30T12:20:31Z</time>
      </trkpt>
      <trkpt lat="43.64064" lon="3.85035">
        <ele>72</ele>
        <time>2020-12-30T12:20:33Z</time>
      </trkpt>
      <trkpt lat="43.64067" lon="3.8504">
        <ele>72</ele>
        <time>2020-12-30T12:20:35Z</time>
      </trkpt>
      <trkpt lat="43.64062" lon="3.85042">
        <ele>72</ele>
        <time>2020-12-30T12:20:47Z</time>
      </trkpt>
      <trkpt lat="43.64057" lon="3.85044">
        <ele>72</ele>
        <time>2020-12-30T12:20:53Z</time>
      </trkpt>
      <trkpt lat="43.64052" lon="3.85043">
        <ele>71</ele>
        <time>2020-12-30T12:20:56Z</time>
      </trkpt>
      <trkpt lat="43.64047" lon="3.85039">
        <ele>71</ele>
        <time>2020-12-30T12:21:00Z</time>
      </trkpt>
      <trkpt lat="43.64041" lon="3.85034">
        <ele>70</ele>
        <time>2020-12-30T12:21:03Z</time>
      </trkpt>
      <trkpt lat="43.64036" lon="3.8503">
        <ele>70</ele>
        <time>2020-12-30T12:21:05Z</time>
      </trkpt>
      <trkpt lat="43.6403" lon="3.85027">
        <ele>70</ele>
        <time>2020-12-30T12:21:07Z</time>
      </trkpt>
      <trkpt lat="43.64025" lon="3.85026">
        <ele>70</ele>
        <time>2020-12-30T12:21:09Z</time>
      </trkpt>
      <trkpt lat="43.64019" lon="3.85023">
        <ele>70</ele>
        <time>2020-12-30T12:21:12Z</time>
      </trkpt>
      <trkpt lat="43.64012" lon="3.85025">
        <ele>70</ele>
        <time>2020-12-30T12:21:15Z</time>
      </trkpt>
      <trkpt lat="43.64006" lon="3.85028">
        <ele>70</ele>
        <time>2020-12-30T12:21:17Z</time>
      </trkpt>
      <trkpt lat="43.64001" lon="3.8503">
        <ele>71</ele>
        <time>2020-12-30T12:21:19Z</time>
      </trkpt>
      <trkpt lat="43.63995" lon="3.85035">
        <ele>70</ele>
        <time>2020-12-30T12:21:22Z</time>
      </trkpt>
      <trkpt lat="43.6399" lon="3.85037">
        <ele>71</ele>
        <time>2020-12-30T12:21:26Z</time>
      </trkpt>
      <trkpt lat="43.63985" lon="3.85036">
        <ele>71</ele>
        <time>2020-12-30T12:21:30Z</time>
      </trkpt>
      <trkpt lat="43.6398" lon="3.85034">
        <ele>71</ele>
        <time>2020-12-30T12:21:34Z</time>
      </trkpt>
      <trkpt lat="43.63974" lon="3.85033">
        <ele>71</ele>
        <time>2020-12-30T12:21:38Z</time>
      </trkpt>
      <trkpt lat="43.63968" lon="3.8503">
        <ele>72</ele>
        <time>2020-12-30T12:21:41Z</time>
      </trkpt>
      <trkpt lat="43.63964" lon="3.85029">
        <ele>71</ele>
        <time>2020-12-30T12:21:43Z</time>
      </trkpt>
      <trkpt lat="43.63959" lon="3.85031">
        <ele>71</ele>
        <time>2020-12-30T12:21:45Z</time>
      </trkpt>
      <trkpt lat="43.63955" lon="3.85035">
        <ele>71</ele>
        <time>2020-12-30T12:21:47Z</time>
      </trkpt>
      <trkpt lat="43.63952" lon="3.85043">
        <ele>71</ele>
        <time>2020-12-30T12:21:50Z</time>
      </trkpt>
      <trkpt lat="43.63949" lon="3.85048">
        <ele>71</ele>
        <time>2020-12-30T12:21:52Z</time>
      </trkpt>
      <trkpt lat="43.63945" lon="3.85055">
        <ele>71</ele>
        <time>2020-12-30T12:21:55Z</time>
      </trkpt>
      <trkpt lat="43.63941" lon="3.85058">
        <ele>72</ele>
        <time>2020-12-30T12:21:57Z</time>
      </trkpt>
      <trkpt lat="43.63935" lon="3.8506">
        <ele>72</ele>
        <time>2020-12-30T12:22:00Z</time>
      </trkpt>
      <trkpt lat="43.63929" lon="3.85061">
        <ele>72</ele>
        <time>2020-12-30T12:22:03Z</time>
      </trkpt>
      <trkpt lat="43.63924" lon="3.85061">
        <ele>72</ele>
        <time>2020-12-30T12:22:05Z</time>
      </trkpt>
      <trkpt lat="43.63919" lon="3.85062">
        <ele>72</ele>
        <time>2020-12-30T12:22:07Z</time>
      </trkpt>
      <trkpt lat="43.63913" lon="3.85063">
        <ele>72</ele>
        <time>2020-12-30T12:22:10Z</time>
      </trkpt>
      <trkpt lat="43.63909" lon="3.85063">
        <ele>71</ele>
        <time>2020-12-30T12:22:12Z</time>
      </trkpt>
      <trkpt lat="43.63903" lon="3.85062">
        <ele>71</ele>
        <time>2020-12-30T12:22:15Z</time>
      </trkpt>
      <trkpt lat="43.63898" lon="3.85064">
        <ele>71</ele>
        <time>2020-12-30T12:22:18Z</time>
      </trkpt>
      <trkpt lat="43.63895" lon="3.8507">
        <ele>71</ele>
        <time>2020-12-30T12:22:22Z</time>
      </trkpt>
      <trkpt lat="43.63893" lon="3.85065">
        <ele>71</ele>
        <time>2020-12-30T12:22:30Z</time>
      </trkpt>
      <trkpt lat="43.63895" lon="3.85056">
        <ele>72</ele>
        <time>2020-12-30T12:22:32Z</time>
      </trkpt>
      <trkpt lat="43.63895" lon="3.85047">
        <ele>72</ele>
        <time>2020-12-30T12:22:34Z</time>
      </trkpt>
      <trkpt lat="43.63891" lon="3.85038">
        <ele>73</ele>
        <time>2020-12-30T12:22:36Z</time>
      </trkpt>
      <trkpt lat="43.63892" lon="3.85029">
        <ele>73</ele>
        <time>2020-12-30T12:22:38Z</time>
      </trkpt>
      <trkpt lat="43.63893" lon="3.85019">
        <ele>73</ele>
        <time>2020-12-30T12:22:40Z</time>
      </trkpt>
      <trkpt lat="43.63894" lon="3.85013">
        <ele>72</ele>
        <time>2020-12-30T12:22:41Z</time>
      </trkpt>
      <trkpt lat="43.63894" lon="3.85006">
        <ele>72</ele>
        <time>2020-12-30T12:22:42Z</time>
      </trkpt>
      <trkpt lat="43.63895" lon="3.85">
        <ele>71</ele>
        <time>2020-12-30T12:22:43Z</time>
      </trkpt>
      <trkpt lat="43.63895" lon="3.84992">
        <ele>71</ele>
        <time>2020-12-30T12:22:44Z</time>
      </trkpt>
      <trkpt lat="43.63895" lon="3.84984">
        <ele>71</ele>
        <time>2020-12-30T12:22:45Z</time>
      </trkpt>
      <trkpt lat="43.63895" lon="3.84975">
        <ele>70</ele>
        <time>2020-12-30T12:22:46Z</time>
      </trkpt>
      <trkpt lat="43.63894" lon="3.84967">
        <ele>70</ele>
        <time>2020-12-30T12:22:47Z</time>
      </trkpt>
      <trkpt lat="43.63893" lon="3.84958">
        <ele>69</ele>
        <time>2020-12-30T12:22:48Z</time>
      </trkpt>
      <trkpt lat="43.63892" lon="3.84949">
        <ele>69</ele>
        <time>2020-12-30T12:22:49Z</time>
      </trkpt>
      <trkpt lat="43.63891" lon="3.8494">
        <ele>68</ele>
        <time>2020-12-30T12:22:50Z</time>
      </trkpt>
      <trkpt lat="43.6389" lon="3.84929">
        <ele>68</ele>
        <time>2020-12-30T12:22:51Z</time>
      </trkpt>
      <trkpt lat="43.63889" lon="3.84919">
        <ele>68</ele>
        <time>2020-12-30T12:22:52Z</time>
      </trkpt>
      <trkpt lat="43.63888" lon="3.84909">
        <ele>67</ele>
        <time>2020-12-30T12:22:53Z</time>
      </trkpt>
      <trkpt lat="43.63886" lon="3.84899">
        <ele>67</ele>
        <time>2020-12-30T12:22:54Z</time>
      </trkpt>
      <trkpt lat="43.63884" lon="3.84889">
        <ele>67</ele>
        <time>2020-12-30T12:22:55Z</time>
      </trkpt>
      <trkpt lat="43.63882" lon="3.84879">
        <ele>66</ele>
        <time>2020-12-30T12:22:56Z</time>
      </trkpt>
      <trkpt lat="43.6388" lon="3.84869">
        <ele>66</ele>
        <time>2020-12-30T12:22:57Z</time>
      </trkpt>
      <trkpt lat="43.63878" lon="3.84858">
        <ele>65</ele>
        <time>2020-12-30T12:22:58Z</time>
      </trkpt>
      <trkpt lat="43.63876" lon="3.84847">
        <ele>65</ele>
        <time>2020-12-30T12:22:59Z</time>
      </trkpt>
      <trkpt lat="43.63873" lon="3.84835">
        <ele>65</ele>
        <time>2020-12-30T12:23:00Z</time>
      </trkpt>
      <trkpt lat="43.6387" lon="3.84825">
        <ele>65</ele>
        <time>2020-12-30T12:23:01Z</time>
      </trkpt>
      <trkpt lat="43.63868" lon="3.84814">
        <ele>65</ele>
        <time>2020-12-30T12:23:02Z</time>
      </trkpt>
      <trkpt lat="43.63866" lon="3.84803">
        <ele>64</ele>
        <time>2020-12-30T12:23:03Z</time>
      </trkpt>
      <trkpt lat="43.63865" lon="3.84793">
        <ele>64</ele>
        <time>2020-12-30T12:23:04Z</time>
      </trkpt>
      <trkpt lat="43.63862" lon="3.84785">
        <ele>63</ele>
        <time>2020-12-30T12:23:05Z</time>
      </trkpt>
      <trkpt lat="43.6386" lon="3.84779">
        <ele>63</ele>
        <time>2020-12-30T12:23:06Z</time>
      </trkpt>
      <trkpt lat="43.63856" lon="3.84775">
        <ele>62</ele>
        <time>2020-12-30T12:23:07Z</time>
      </trkpt>
      <trkpt lat="43.63851" lon="3.84773">
        <ele>62</ele>
        <time>2020-12-30T12:23:08Z</time>
      </trkpt>
      <trkpt lat="43.63847" lon="3.84774">
        <ele>61</ele>
        <time>2020-12-30T12:23:09Z</time>
      </trkpt>
      <trkpt lat="43.63842" lon="3.84776">
        <ele>61</ele>
        <time>2020-12-30T12:23:10Z</time>
      </trkpt>
      <trkpt lat="43.63837" lon="3.84778">
        <ele>61</ele>
        <time>2020-12-30T12:23:11Z</time>
      </trkpt>
      <trkpt lat="43.63833" lon="3.84781">
        <ele>61</ele>
        <time>2020-12-30T12:23:12Z</time>
      </trkpt>
      <trkpt lat="43.63828" lon="3.84782">
        <ele>61</ele>
        <time>2020-12-30T12:23:13Z</time>
      </trkpt>
      <trkpt lat="43.63822" lon="3.8478">
        <ele>61</ele>
        <time>2020-12-30T12:23:14Z</time>
      </trkpt>
      <trkpt lat="43.63816" lon="3.8478">
        <ele>61</ele>
        <time>2020-12-30T12:23:15Z</time>
      </trkpt>
      <trkpt lat="43.63811" lon="3.84781">
        <ele>60</ele>
        <time>2020-12-30T12:23:16Z</time>
      </trkpt>
      <trkpt lat="43.63804" lon="3.84785">
        <ele>60</ele>
        <time>2020-12-30T12:23:17Z</time>
      </trkpt>
      <trkpt lat="43.63799" lon="3.84788">
        <ele>60</ele>
        <time>2020-12-30T12:23:18Z</time>
      </trkpt>
      <trkpt lat="43.63792" lon="3.84792">
        <ele>59</ele>
        <time>2020-12-30T12:23:19Z</time>
      </trkpt>
      <trkpt lat="43.63787" lon="3.84796">
        <ele>59</ele>
        <time>2020-12-30T12:23:20Z</time>
      </trkpt>
      <trkpt lat="43.6378" lon="3.848">
        <ele>59</ele>
        <time>2020-12-30T12:23:21Z</time>
      </trkpt>
      <trkpt lat="43.63774" lon="3.84804">
        <ele>58</ele>
        <time>2020-12-30T12:23:22Z</time>
      </trkpt>
      <trkpt lat="43.63767" lon="3.84805">
        <ele>58</ele>
        <time>2020-12-30T12:23:23Z</time>
      </trkpt>
      <trkpt lat="43.6376" lon="3.84808">
        <ele>58</ele>
        <time>2020-12-30T12:23:24Z</time>
      </trkpt>
      <trkpt lat="43.63752" lon="3.8481">
        <ele>58</ele>
        <time>2020-12-30T12:23:25Z</time>
      </trkpt>
      <trkpt lat="43.63744" lon="3.84811">
        <ele>57</ele>
        <time>2020-12-30T12:23:26Z</time>
      </trkpt>
      <trkpt lat="43.63738" lon="3.84813">
        <ele>57</ele>
        <time>2020-12-30T12:23:27Z</time>
      </trkpt>
      <trkpt lat="43.63731" lon="3.84815">
        <ele>57</ele>
        <time>2020-12-30T12:23:28Z</time>
      </trkpt>
      <trkpt lat="43.63724" lon="3.84818">
        <ele>56</ele>
        <time>2020-12-30T12:23:29Z</time>
      </trkpt>
      <trkpt lat="43.63717" lon="3.84822">
        <ele>56</ele>
        <time>2020-12-30T12:23:30Z</time>
      </trkpt>
      <trkpt lat="43.63709" lon="3.84826">
        <ele>56</ele>
        <time>2020-12-30T12:23:31Z</time>
      </trkpt>
      <trkpt lat="43.63702" lon="3.8483">
        <ele>56</ele>
        <time>2020-12-30T12:23:32Z</time>
      </trkpt>
      <trkpt lat="43.63695" lon="3.84833">
        <ele>56</ele>
        <time>2020-12-30T12:23:33Z</time>
      </trkpt>
      <trkpt lat="43.63687" lon="3.84837">
        <ele>56</ele>
        <time>2020-12-30T12:23:34Z</time>
      </trkpt>
      <trkpt lat="43.63681" lon="3.84841">
        <ele>55</ele>
        <time>2020-12-30T12:23:35Z</time>
      </trkpt>
      <trkpt lat="43.63674" lon="3.84845">
        <ele>55</ele>
        <time>2020-12-30T12:23:36Z</time>
      </trkpt>
      <trkpt lat="43.63667" lon="3.84847">
        <ele>55</ele>
        <time>2020-12-30T12:23:37Z</time>
      </trkpt>
      <trkpt lat="43.63662" lon="3.84849">
        <ele>54</ele>
        <time>2020-12-30T12:23:38Z</time>
      </trkpt>
      <trkpt lat="43.63656" lon="3.84849">
        <ele>54</ele>
        <time>2020-12-30T12:23:39Z</time>
      </trkpt>
      <trkpt lat="43.63651" lon="3.84849">
        <ele>54</ele>
        <time>2020-12-30T12:23:40Z</time>
      </trkpt>
      <trkpt lat="43.63645" lon="3.8485">
        <ele>54</ele>
        <time>2020-12-30T12:23:41Z</time>
      </trkpt>
      <trkpt lat="43.6364" lon="3.84851">
        <ele>54</ele>
        <time>2020-12-30T12:23:42Z</time>
      </trkpt>
      <trkpt lat="43.63635" lon="3.84853">
        <ele>54</ele>
        <time>2020-12-30T12:23:43Z</time>
      </trkpt>
      <trkpt lat="43.6363" lon="3.84855">
        <ele>54</ele>
        <time>2020-12-30T12:23:44Z</time>
      </trkpt>
      <trkpt lat="43.63625" lon="3.84855">
        <ele>54</ele>
        <time>2020-12-30T12:23:45Z</time>
      </trkpt>
      <trkpt lat="43.63619" lon="3.84858">
        <ele>53</ele>
        <time>2020-12-30T12:23:46Z</time>
      </trkpt>
      <trkpt lat="43.63613" lon="3.84861">
        <ele>53</ele>
        <time>2020-12-30T12:23:47Z</time>
      </trkpt>
      <trkpt lat="43.63607" lon="3.84864">
        <ele>53</ele>
        <time>2020-12-30T12:23:48Z</time>
      </trkpt>
      <trkpt lat="43.63602" lon="3.84866">
        <ele>54</ele>
        <time>2020-12-30T12:23:49Z</time>
      </trkpt>
      <trkpt lat="43.63598" lon="3.84868">
        <ele>53</ele>
        <time>2020-12-30T12:23:50Z</time>
      </trkpt>
      <trkpt lat="43.6359" lon="3.8487">
        <ele>54</ele>
        <time>2020-12-30T12:23:52Z</time>
      </trkpt>
      <trkpt lat="43.63586" lon="3.84873">
        <ele>54</ele>
        <time>2020-12-30T12:23:54Z</time>
      </trkpt>
      <trkpt lat="43.6358" lon="3.84876">
        <ele>54</ele>
        <time>2020-12-30T12:23:56Z</time>
      </trkpt>
      <trkpt lat="43.63572" lon="3.8488">
        <ele>54</ele>
        <time>2020-12-30T12:23:58Z</time>
      </trkpt>
      <trkpt lat="43.63563" lon="3.84883">
        <ele>54</ele>
        <time>2020-12-30T12:24:00Z</time>
      </trkpt>
      <trkpt lat="43.63554" lon="3.84889">
        <ele>54</ele>
        <time>2020-12-30T12:24:02Z</time>
      </trkpt>
      <trkpt lat="43.63549" lon="3.84892">
        <ele>54</ele>
        <time>2020-12-30T12:24:03Z</time>
      </trkpt>
      <trkpt lat="43.63544" lon="3.84895">
        <ele>54</ele>
        <time>2020-12-30T12:24:04Z</time>
      </trkpt>
      <trkpt lat="43.63539" lon="3.84899">
        <ele>53</ele>
        <time>2020-12-30T12:24:05Z</time>
      </trkpt>
      <trkpt lat="43.63534" lon="3.84902">
        <ele>53</ele>
        <time>2020-12-30T12:24:06Z</time>
      </trkpt>
      <trkpt lat="43.63529" lon="3.84905">
        <ele>52</ele>
        <time>2020-12-30T12:24:07Z</time>
      </trkpt>
      <trkpt lat="43.63524" lon="3.84908">
        <ele>52</ele>
        <time>2020-12-30T12:24:08Z</time>
      </trkpt>
      <trkpt lat="43.63519" lon="3.84912">
        <ele>52</ele>
        <time>2020-12-30T12:24:09Z</time>
      </trkpt>
      <trkpt lat="43.63516" lon="3.84916">
        <ele>52</ele>
        <time>2020-12-30T12:24:10Z</time>
      </trkpt>
      <trkpt lat="43.6351" lon="3.84918">
        <ele>52</ele>
        <time>2020-12-30T12:24:11Z</time>
      </trkpt>
      <trkpt lat="43.63506" lon="3.84921">
        <ele>52</ele>
        <time>2020-12-30T12:24:12Z</time>
      </trkpt>
      <trkpt lat="43.63501" lon="3.84925">
        <ele>52</ele>
        <time>2020-12-30T12:24:13Z</time>
      </trkpt>
      <trkpt lat="43.63497" lon="3.84928">
        <ele>53</ele>
        <time>2020-12-30T12:24:14Z</time>
      </trkpt>
      <trkpt lat="43.63493" lon="3.84932">
        <ele>53</ele>
        <time>2020-12-30T12:24:15Z</time>
      </trkpt>
      <trkpt lat="43.63489" lon="3.84937">
        <ele>53</ele>
        <time>2020-12-30T12:24:16Z</time>
      </trkpt>
      <trkpt lat="43.63485" lon="3.8494">
        <ele>53</ele>
        <time>2020-12-30T12:24:17Z</time>
      </trkpt>
      <trkpt lat="43.63477" lon="3.84946">
        <ele>53</ele>
        <time>2020-12-30T12:24:19Z</time>
      </trkpt>
      <trkpt lat="43.63471" lon="3.84952">
        <ele>53</ele>
        <time>2020-12-30T12:24:21Z</time>
      </trkpt>
      <trkpt lat="43.63466" lon="3.84956">
        <ele>52</ele>
        <time>2020-12-30T12:24:23Z</time>
      </trkpt>
      <trkpt lat="43.63461" lon="3.8496">
        <ele>52</ele>
        <time>2020-12-30T12:24:25Z</time>
      </trkpt>
      <trkpt lat="43.63458" lon="3.84968">
        <ele>52</ele>
        <time>2020-12-30T12:24:27Z</time>
      </trkpt>
      <trkpt lat="43.63455" lon="3.84973">
        <ele>52</ele>
        <time>2020-12-30T12:24:28Z</time>
      </trkpt>
      <trkpt lat="43.63452" lon="3.84983">
        <ele>52</ele>
        <time>2020-12-30T12:24:30Z</time>
      </trkpt>
      <trkpt lat="43.63448" lon="3.84992">
        <ele>53</ele>
        <time>2020-12-30T12:24:32Z</time>
      </trkpt>
      <trkpt lat="43.63438" lon="3.84989">
        <ele>53</ele>
        <time>2020-12-30T12:24:34Z</time>
      </trkpt>
      <trkpt lat="43.63433" lon="3.8499">
        <ele>53</ele>
        <time>2020-12-30T12:24:35Z</time>
      </trkpt>
      <trkpt lat="43.63427" lon="3.84992">
        <ele>53</ele>
        <time>2020-12-30T12:24:36Z</time>
      </trkpt>
      <trkpt lat="43.63422" lon="3.84996">
        <ele>53</ele>
        <time>2020-12-30T12:24:37Z</time>
      </trkpt>
      <trkpt lat="43.63417" lon="3.84999">
        <ele>53</ele>
        <time>2020-12-30T12:24:38Z</time>
      </trkpt>
      <trkpt lat="43.63411" lon="3.85003">
        <ele>53</ele>
        <time>2020-12-30T12:24:39Z</time>
      </trkpt>
      <trkpt lat="43.63407" lon="3.85008">
        <ele>53</ele>
        <time>2020-12-30T12:24:40Z</time>
      </trkpt>
      <trkpt lat="43.63402" lon="3.85014">
        <ele>53</ele>
        <time>2020-12-30T12:24:41Z</time>
      </trkpt>
      <trkpt lat="43.63397" lon="3.85019">
        <ele>54</ele>
        <time>2020-12-30T12:24:42Z</time>
      </trkpt>
      <trkpt lat="43.63392" lon="3.85024">
        <ele>54</ele>
        <time>2020-12-30T12:24:43Z</time>
      </trkpt>
      <trkpt lat="43.63387" lon="3.85028">
        <ele>54</ele>
        <time>2020-12-30T12:24:44Z</time>
      </trkpt>
      <trkpt lat="43.63382" lon="3.85033">
        <ele>54</ele>
        <time>2020-12-30T12:24:45Z</time>
      </trkpt>
      <trkpt lat="43.63377" lon="3.85039">
        <ele>55</ele>
        <time>2020-12-30T12:24:46Z</time>
      </trkpt>
      <trkpt lat="43.63373" lon="3.85043">
        <ele>55</ele>
        <time>2020-12-30T12:24:47Z</time>
      </trkpt>
      <trkpt lat="43.6337" lon="3.85048">
        <ele>54</ele>
        <time>2020-12-30T12:24:48Z</time>
      </trkpt>
      <trkpt lat="43.63366" lon="3.85052">
        <ele>53</ele>
        <time>2020-12-30T12:24:49Z</time>
      </trkpt>
      <trkpt lat="43.63361" lon="3.85058">
        <ele>52</ele>
        <time>2020-12-30T12:24:50Z</time>
      </trkpt>
      <trkpt lat="43.63356" lon="3.85063">
        <ele>51</ele>
        <time>2020-12-30T12:24:51Z</time>
      </trkpt>
      <trkpt lat="43.63351" lon="3.85067">
        <ele>51</ele>
        <time>2020-12-30T12:24:52Z</time>
      </trkpt>
      <trkpt lat="43.63347" lon="3.85073">
        <ele>51</ele>
        <time>2020-12-30T12:24:53Z</time>
      </trkpt>
      <trkpt lat="43.63343" lon="3.85078">
        <ele>51</ele>
        <time>2020-12-30T12:24:54Z</time>
      </trkpt>
      <trkpt lat="43.63339" lon="3.85082">
        <ele>51</ele>
        <time>2020-12-30T12:24:55Z</time>
      </trkpt>
      <trkpt lat="43.63335" lon="3.85088">
        <ele>51</ele>
        <time>2020-12-30T12:24:56Z</time>
      </trkpt>
      <trkpt lat="43.63332" lon="3.85094">
        <ele>51</ele>
        <time>2020-12-30T12:24:57Z</time>
      </trkpt>
      <trkpt lat="43.63328" lon="3.851">
        <ele>51</ele>
        <time>2020-12-30T12:24:58Z</time>
      </trkpt>
      <trkpt lat="43.63324" lon="3.85106">
        <ele>51</ele>
        <time>2020-12-30T12:24:59Z</time>
      </trkpt>
      <trkpt lat="43.63321" lon="3.85111">
        <ele>51</ele>
        <time>2020-12-30T12:25:00Z</time>
      </trkpt>
      <trkpt lat="43.63317" lon="3.85117">
        <ele>51</ele>
        <time>2020-12-30T12:25:01Z</time>
      </trkpt>
      <trkpt lat="43.63313" lon="3.85123">
        <ele>50</ele>
        <time>2020-12-30T12:25:02Z</time>
      </trkpt>
      <trkpt lat="43.63309" lon="3.8513">
        <ele>50</ele>
        <time>2020-12-30T12:25:03Z</time>
      </trkpt>
      <trkpt lat="43.63305" lon="3.85138">
        <ele>50</ele>
        <time>2020-12-30T12:25:04Z</time>
      </trkpt>
      <trkpt lat="43.633" lon="3.85144">
        <ele>50</ele>
        <time>2020-12-30T12:25:05Z</time>
      </trkpt>
      <trkpt lat="43.63297" lon="3.85148">
        <ele>50</ele>
        <time>2020-12-30T12:25:06Z</time>
      </trkpt>
      <trkpt lat="43.63294" lon="3.85155">
        <ele>50</ele>
        <time>2020-12-30T12:25:08Z</time>
      </trkpt>
      <trkpt lat="43.63291" lon="3.85163">
        <ele>49</ele>
        <time>2020-12-30T12:25:10Z</time>
      </trkpt>
      <trkpt lat="43.63289" lon="3.85172">
        <ele>49</ele>
        <time>2020-12-30T12:25:12Z</time>
      </trkpt>
      <trkpt lat="43.63285" lon="3.85178">
        <ele>50</ele>
        <time>2020-12-30T12:25:13Z</time>
      </trkpt>
      <trkpt lat="43.63282" lon="3.85183">
        <ele>50</ele>
        <time>2020-12-30T12:25:14Z</time>
      </trkpt>
      <trkpt lat="43.6328" lon="3.85189">
        <ele>50</ele>
        <time>2020-12-30T12:25:15Z</time>
      </trkpt>
      <trkpt lat="43.63277" lon="3.85194">
        <ele>50</ele>
        <time>2020-12-30T12:25:16Z</time>
      </trkpt>
      <trkpt lat="43.63273" lon="3.852">
        <ele>50</ele>
        <time>2020-12-30T12:25:17Z</time>
      </trkpt>
      <trkpt lat="43.63268" lon="3.8521">
        <ele>50</ele>
        <time>2020-12-30T12:25:19Z</time>
      </trkpt>
      <trkpt lat="43.63265" lon="3.85216">
        <ele>49</ele>
        <time>2020-12-30T12:25:20Z</time>
      </trkpt>
      <trkpt lat="43.63263" lon="3.85223">
        <ele>48</ele>
        <time>2020-12-30T12:25:21Z</time>
      </trkpt>
      <trkpt lat="43.63261" lon="3.85229">
        <ele>48</ele>
        <time>2020-12-30T12:25:22Z</time>
      </trkpt>
      <trkpt lat="43.63258" lon="3.85236">
        <ele>47</ele>
        <time>2020-12-30T12:25:23Z</time>
      </trkpt>
      <trkpt lat="43.63255" lon="3.85241">
        <ele>47</ele>
        <time>2020-12-30T12:25:24Z</time>
      </trkpt>
      <trkpt lat="43.63252" lon="3.85248">
        <ele>47</ele>
        <time>2020-12-30T12:25:25Z</time>
      </trkpt>
      <trkpt lat="43.63248" lon="3.85255">
        <ele>47</ele>
        <time>2020-12-30T12:25:26Z</time>
      </trkpt>
      <trkpt lat="43.63246" lon="3.85261">
        <ele>48</ele>
        <time>2020-12-30T12:25:27Z</time>
      </trkpt>
      <trkpt lat="43.63242" lon="3.85273">
        <ele>48</ele>
        <time>2020-12-30T12:25:29Z</time>
      </trkpt>
      <trkpt lat="43.63239" lon="3.85279">
        <ele>48</ele>
        <time>2020-12-30T12:25:30Z</time>
      </trkpt>
      <trkpt lat="43.63233" lon="3.8529">
        <ele>48</ele>
        <time>2020-12-30T12:25:32Z</time>
      </trkpt>
      <trkpt lat="43.6323" lon="3.85297">
        <ele>48</ele>
        <time>2020-12-30T12:25:33Z</time>
      </trkpt>
      <trkpt lat="43.63226" lon="3.85304">
        <ele>48</ele>
        <time>2020-12-30T12:25:34Z</time>
      </trkpt>
      <trkpt lat="43.63222" lon="3.8531">
        <ele>48</ele>
        <time>2020-12-30T12:25:35Z</time>
      </trkpt>
      <trkpt lat="43.63217" lon="3.85315">
        <ele>48</ele>
        <time>2020-12-30T12:25:36Z</time>
      </trkpt>
      <trkpt lat="43.63211" lon="3.85323">
        <ele>49</ele>
        <time>2020-12-30T12:25:38Z</time>
      </trkpt>
      <trkpt lat="43.63207" lon="3.85327">
        <ele>49</ele>
        <time>2020-12-30T12:25:39Z</time>
      </trkpt>
      <trkpt lat="43.63202" lon="3.85333">
        <ele>50</ele>
        <time>2020-12-30T12:25:40Z</time>
      </trkpt>
      <trkpt lat="43.63199" lon="3.85338">
        <ele>50</ele>
        <time>2020-12-30T12:25:41Z</time>
      </trkpt>
      <trkpt lat="43.63195" lon="3.85344">
        <ele>50</ele>
        <time>2020-12-30T12:25:42Z</time>
      </trkpt>
      <trkpt lat="43.63191" lon="3.85349">
        <ele>50</ele>
        <time>2020-12-30T12:25:43Z</time>
      </trkpt>
      <trkpt lat="43.63187" lon="3.85354">
        <ele>51</ele>
        <time>2020-12-30T12:25:44Z</time>
      </trkpt>
      <trkpt lat="43.63184" lon="3.85359">
        <ele>51</ele>
        <time>2020-12-30T12:25:45Z</time>
      </trkpt>
      <trkpt lat="43.63182" lon="3.85364">
        <ele>51</ele>
        <time>2020-12-30T12:25:46Z</time>
      </trkpt>
      <trkpt lat="43.63178" lon="3.85369">
        <ele>51</ele>
        <time>2020-12-30T12:25:47Z</time>
      </trkpt>
      <trkpt lat="43.63175" lon="3.85376">
        <ele>51</ele>
        <time>2020-12-30T12:25:48Z</time>
      </trkpt>
      <trkpt lat="43.63175" lon="3.85382">
        <ele>51</ele>
        <time>2020-12-30T12:25:49Z</time>
      </trkpt>
      <trkpt lat="43.63176" lon="3.8539">
        <ele>51</ele>
        <time>2020-12-30T12:25:50Z</time>
      </trkpt>
      <trkpt lat="43.63178" lon="3.85397">
        <ele>50</ele>
        <time>2020-12-30T12:25:51Z</time>
      </trkpt>
      <trkpt lat="43.63181" lon="3.85404">
        <ele>50</ele>
        <time>2020-12-30T12:25:52Z</time>
      </trkpt>
      <trkpt lat="43.63184" lon="3.85411">
        <ele>50</ele>
        <time>2020-12-30T12:25:53Z</time>
      </trkpt>
      <trkpt lat="43.63188" lon="3.85416">
        <ele>49</ele>
        <time>2020-12-30T12:25:54Z</time>
      </trkpt>
      <trkpt lat="43.63192" lon="3.8542">
        <ele>49</ele>
        <time>2020-12-30T12:25:55Z</time>
      </trkpt>
      <trkpt lat="43.63198" lon="3.85422">
        <ele>49</ele>
        <time>2020-12-30T12:25:56Z</time>
      </trkpt>
      <trkpt lat="43.63203" lon="3.85426">
        <ele>49</ele>
        <time>2020-12-30T12:25:57Z</time>
      </trkpt>
      <trkpt lat="43.63208" lon="3.85429">
        <ele>49</ele>
        <time>2020-12-30T12:25:58Z</time>
      </trkpt>
      <trkpt lat="43.63213" lon="3.85432">
        <ele>49</ele>
        <time>2020-12-30T12:25:59Z</time>
      </trkpt>
      <trkpt lat="43.63217" lon="3.85437">
        <ele>49</ele>
        <time>2020-12-30T12:26:00Z</time>
      </trkpt>
      <trkpt lat="43.6322" lon="3.85444">
        <ele>49</ele>
        <time>2020-12-30T12:26:01Z</time>
      </trkpt>
      <trkpt lat="43.63223" lon="3.85453">
        <ele>49</ele>
        <time>2020-12-30T12:26:02Z</time>
      </trkpt>
      <trkpt lat="43.63223" lon="3.8546">
        <ele>49</ele>
        <time>2020-12-30T12:26:03Z</time>
      </trkpt>
      <trkpt lat="43.63222" lon="3.85468">
        <ele>49</ele>
        <time>2020-12-30T12:26:04Z</time>
      </trkpt>
      <trkpt lat="43.63221" lon="3.85476">
        <ele>50</ele>
        <time>2020-12-30T12:26:05Z</time>
      </trkpt>
      <trkpt lat="43.63221" lon="3.85485">
        <ele>50</ele>
        <time>2020-12-30T12:26:06Z</time>
      </trkpt>
      <trkpt lat="43.63221" lon="3.85492">
        <ele>50</ele>
        <time>2020-12-30T12:26:07Z</time>
      </trkpt>
      <trkpt lat="43.63221" lon="3.855">
        <ele>51</ele>
        <time>2020-12-30T12:26:08Z</time>
      </trkpt>
      <trkpt lat="43.6322" lon="3.85508">
        <ele>51</ele>
        <time>2020-12-30T12:26:09Z</time>
      </trkpt>
      <trkpt lat="43.6322" lon="3.85517">
        <ele>51</ele>
        <time>2020-12-30T12:26:10Z</time>
      </trkpt>
      <trkpt lat="43.63219" lon="3.85524">
        <ele>51</ele>
        <time>2020-12-30T12:26:11Z</time>
      </trkpt>
      <trkpt lat="43.63218" lon="3.85532">
        <ele>52</ele>
        <time>2020-12-30T12:26:12Z</time>
      </trkpt>
      <trkpt lat="43.63218" lon="3.85541">
        <ele>52</ele>
        <time>2020-12-30T12:26:13Z</time>
      </trkpt>
      <trkpt lat="43.63218" lon="3.85549">
        <ele>52</ele>
        <time>2020-12-30T12:26:14Z</time>
      </trkpt>
      <trkpt lat="43.63218" lon="3.85557">
        <ele>53</ele>
        <time>2020-12-30T12:26:15Z</time>
      </trkpt>
      <trkpt lat="43.63218" lon="3.85565">
        <ele>53</ele>
        <time>2020-12-30T12:26:16Z</time>
      </trkpt>
      <trkpt lat="43.63218" lon="3.85572">
        <ele>54</ele>
        <time>2020-12-30T12:26:17Z</time>
      </trkpt>
      <trkpt lat="43.63217" lon="3.85581">
        <ele>54</ele>
        <time>2020-12-30T12:26:18Z</time>
      </trkpt>
      <trkpt lat="43.63216" lon="3.85587">
        <ele>54</ele>
        <time>2020-12-30T12:26:19Z</time>
      </trkpt>
      <trkpt lat="43.63217" lon="3.85596">
        <ele>54</ele>
        <time>2020-12-30T12:26:20Z</time>
      </trkpt>
      <trkpt lat="43.63217" lon="3.85604">
        <ele>54</ele>
        <time>2020-12-30T12:26:21Z</time>
      </trkpt>
      <trkpt lat="43.63216" lon="3.85613">
        <ele>54</ele>
        <time>2020-12-30T12:26:22Z</time>
      </trkpt>
      <trkpt lat="43.63215" lon="3.85622">
        <ele>54</ele>
        <time>2020-12-30T12:26:23Z</time>
      </trkpt>
      <trkpt lat="43.63215" lon="3.8563">
        <ele>54</ele>
        <time>2020-12-30T12:26:24Z</time>
      </trkpt>
      <trkpt lat="43.63214" lon="3.85639">
        <ele>54</ele>
        <time>2020-12-30T12:26:25Z</time>
      </trkpt>
      <trkpt lat="43.63213" lon="3.85646">
        <ele>54</ele>
        <time>2020-12-30T12:26:26Z</time>
      </trkpt>
      <trkpt lat="43.63213" lon="3.85655">
        <ele>54</ele>
        <time>2020-12-30T12:26:27Z</time>
      </trkpt>
      <trkpt lat="43.63212" lon="3.85663">
        <ele>55</ele>
        <time>2020-12-30T12:26:28Z</time>
      </trkpt>
      <trkpt lat="43.6321" lon="3.85672">
        <ele>55</ele>
        <time>2020-12-30T12:26:29Z</time>
      </trkpt>
      <trkpt lat="43.63209" lon="3.85681">
        <ele>55</ele>
        <time>2020-12-30T12:26:30Z</time>
      </trkpt>
      <trkpt lat="43.63208" lon="3.85689">
        <ele>56</ele>
        <time>2020-12-30T12:26:31Z</time>
      </trkpt>
      <trkpt lat="43.63207" lon="3.85698">
        <ele>56</ele>
        <time>2020-12-30T12:26:32Z</time>
      </trkpt>
      <trkpt lat="43.63205" lon="3.85706">
        <ele>56</ele>
        <time>2020-12-30T12:26:33Z</time>
      </trkpt>
      <trkpt lat="43.63203" lon="3.85715">
        <ele>56</ele>
        <time>2020-12-30T12:26:34Z</time>
      </trkpt>
      <trkpt lat="43.632" lon="3.85724">
        <ele>56</ele>
        <time>2020-12-30T12:26:35Z</time>
      </trkpt>
      <trkpt lat="43.63198" lon="3.85733">
        <ele>57</ele>
        <time>2020-12-30T12:26:36Z</time>
      </trkpt>
      <trkpt lat="43.63196" lon="3.85742">
        <ele>57</ele>
        <time>2020-12-30T12:26:37Z</time>
      </trkpt>
      <trkpt lat="43.63194" lon="3.8575">
        <ele>57</ele>
        <time>2020-12-30T12:26:38Z</time>
      </trkpt>
      <trkpt lat="43.63192" lon="3.8576">
        <ele>57</ele>
        <time>2020-12-30T12:26:39Z</time>
      </trkpt>
      <trkpt lat="43.63189" lon="3.85769">
        <ele>57</ele>
        <time>2020-12-30T12:26:40Z</time>
      </trkpt>
      <trkpt lat="43.63187" lon="3.85778">
        <ele>57</ele>
        <time>2020-12-30T12:26:41Z</time>
      </trkpt>
      <trkpt lat="43.63186" lon="3.85786">
        <ele>56</ele>
        <time>2020-12-30T12:26:42Z</time>
      </trkpt>
      <trkpt lat="43.63184" lon="3.85795">
        <ele>56</ele>
        <time>2020-12-30T12:26:43Z</time>
      </trkpt>
      <trkpt lat="43.63183" lon="3.85804">
        <ele>56</ele>
        <time>2020-12-30T12:26:44Z</time>
      </trkpt>
      <trkpt lat="43.63182" lon="3.85814">
        <ele>56</ele>
        <time>2020-12-30T12:26:45Z</time>
      </trkpt>
      <trkpt lat="43.63182" lon="3.85824">
        <ele>56</ele>
        <time>2020-12-30T12:26:46Z</time>
      </trkpt>
      <trkpt lat="43.63182" lon="3.85833">
        <ele>56</ele>
        <time>2020-12-30T12:26:47Z</time>
      </trkpt>
      <trkpt lat="43.63182" lon="3.85843">
        <ele>56</ele>
        <time>2020-12-30T12:26:48Z</time>
      </trkpt>
      <trkpt lat="43.63181" lon="3.85852">
        <ele>56</ele>
        <time>2020-12-30T12:26:49Z</time>
      </trkpt>
      <trkpt lat="43.6318" lon="3.85861">
        <ele>56</ele>
        <time>2020-12-30T12:26:50Z</time>
      </trkpt>
      <trkpt lat="43.6318" lon="3.8587">
        <ele>56</ele>
        <time>2020-12-30T12:26:51Z</time>
      </trkpt>
      <trkpt lat="43.63181" lon="3.85879">
        <ele>56</ele>
        <time>2020-12-30T12:26:52Z</time>
      </trkpt>
      <trkpt lat="43.63181" lon="3.85886">
        <ele>56</ele>
        <time>2020-12-30T12:26:53Z</time>
      </trkpt>
      <trkpt lat="43.6318" lon="3.85893">
        <ele>56</ele>
        <time>2020-12-30T12:26:54Z</time>
      </trkpt>
      <trkpt lat="43.6318" lon="3.85901">
        <ele>56</ele>
        <time>2020-12-30T12:26:55Z</time>
      </trkpt>
      <trkpt lat="43.63181" lon="3.85909">
        <ele>57</ele>
        <time>2020-12-30T12:26:56Z</time>
      </trkpt>
      <trkpt lat="43.63178" lon="3.85921">
        <ele>58</ele>
        <time>2020-12-30T12:26:58Z</time>
      </trkpt>
      <trkpt lat="43.63178" lon="3.85928">
        <ele>58</ele>
        <time>2020-12-30T12:26:59Z</time>
      </trkpt>
      <trkpt lat="43.63177" lon="3.85936">
        <ele>59</ele>
        <time>2020-12-30T12:27:00Z</time>
      </trkpt>
      <trkpt lat="43.63176" lon="3.85944">
        <ele>59</ele>
        <time>2020-12-30T12:27:01Z</time>
      </trkpt>
      <trkpt lat="43.63174" lon="3.8595">
        <ele>59</ele>
        <time>2020-12-30T12:27:02Z</time>
      </trkpt>
      <trkpt lat="43.63174" lon="3.85958">
        <ele>58</ele>
        <time>2020-12-30T12:27:03Z</time>
      </trkpt>
      <trkpt lat="43.63173" lon="3.85965">
        <ele>58</ele>
        <time>2020-12-30T12:27:04Z</time>
      </trkpt>
      <trkpt lat="43.63171" lon="3.85971">
        <ele>57</ele>
        <time>2020-12-30T12:27:05Z</time>
      </trkpt>
      <trkpt lat="43.63172" lon="3.85977">
        <ele>56</ele>
        <time>2020-12-30T12:27:06Z</time>
      </trkpt>
      <trkpt lat="43.63173" lon="3.85984">
        <ele>56</ele>
        <time>2020-12-30T12:27:07Z</time>
      </trkpt>
      <trkpt lat="43.63171" lon="3.85995">
        <ele>55</ele>
        <time>2020-12-30T12:27:09Z</time>
      </trkpt>
      <trkpt lat="43.63169" lon="3.86008">
        <ele>54</ele>
        <time>2020-12-30T12:27:11Z</time>
      </trkpt>
      <trkpt lat="43.63168" lon="3.86014">
        <ele>53</ele>
        <time>2020-12-30T12:27:12Z</time>
      </trkpt>
      <trkpt lat="43.63165" lon="3.86024">
        <ele>52</ele>
        <time>2020-12-30T12:27:14Z</time>
      </trkpt>
      <trkpt lat="43.63169" lon="3.86032">
        <ele>52</ele>
        <time>2020-12-30T12:27:16Z</time>
      </trkpt>
      <trkpt lat="43.63174" lon="3.86035">
        <ele>51</ele>
        <time>2020-12-30T12:27:18Z</time>
      </trkpt>
      <trkpt lat="43.6318" lon="3.86035">
        <ele>51</ele>
        <time>2020-12-30T12:27:20Z</time>
      </trkpt>
      <trkpt lat="43.63189" lon="3.86035">
        <ele>51</ele>
        <time>2020-12-30T12:27:22Z</time>
      </trkpt>
      <trkpt lat="43.63193" lon="3.86033">
        <ele>51</ele>
        <time>2020-12-30T12:27:23Z</time>
      </trkpt>
      <trkpt lat="43.63198" lon="3.86032">
        <ele>51</ele>
        <time>2020-12-30T12:27:24Z</time>
      </trkpt>
      <trkpt lat="43.63207" lon="3.86032">
        <ele>50</ele>
        <time>2020-12-30T12:27:26Z</time>
      </trkpt>
      <trkpt lat="43.63211" lon="3.86032">
        <ele>50</ele>
        <time>2020-12-30T12:27:27Z</time>
      </trkpt>
      <trkpt lat="43.63216" lon="3.86031">
        <ele>49</ele>
        <time>2020-12-30T12:27:28Z</time>
      </trkpt>
      <trkpt lat="43.63221" lon="3.86032">
        <ele>48</ele>
        <time>2020-12-30T12:27:29Z</time>
      </trkpt>
      <trkpt lat="43.63226" lon="3.86031">
        <ele>48</ele>
        <time>2020-12-30T12:27:30Z</time>
      </trkpt>
      <trkpt lat="43.63236" lon="3.8603">
        <ele>48</ele>
        <time>2020-12-30T12:27:32Z</time>
      </trkpt>
      <trkpt lat="43.63241" lon="3.86031">
        <ele>48</ele>
        <time>2020-12-30T12:27:33Z</time>
      </trkpt>
      <trkpt lat="43.63245" lon="3.86032">
        <ele>48</ele>
        <time>2020-12-30T12:27:34Z</time>
      </trkpt>
      <trkpt lat="43.63251" lon="3.86033">
        <ele>48</ele>
        <time>2020-12-30T12:27:35Z</time>
      </trkpt>
      <trkpt lat="43.63257" lon="3.86033">
        <ele>48</ele>
        <time>2020-12-30T12:27:36Z</time>
      </trkpt>
      <trkpt lat="43.63262" lon="3.86033">
        <ele>48</ele>
        <time>2020-12-30T12:27:37Z</time>
      </trkpt>
      <trkpt lat="43.63266" lon="3.86031">
        <ele>48</ele>
        <time>2020-12-30T12:27:38Z</time>
      </trkpt>
      <trkpt lat="43.63274" lon="3.86031">
        <ele>49</ele>
        <time>2020-12-30T12:27:40Z</time>
      </trkpt>
      <trkpt lat="43.6328" lon="3.8603">
        <ele>49</ele>
        <time>2020-12-30T12:27:42Z</time>
      </trkpt>
      <trkpt lat="43.63288" lon="3.8603">
        <ele>50</ele>
        <time>2020-12-30T12:27:44Z</time>
      </trkpt>
      <trkpt lat="43.63295" lon="3.86029">
        <ele>50</ele>
        <time>2020-12-30T12:27:46Z</time>
      </trkpt>
      <trkpt lat="43.63303" lon="3.86028">
        <ele>51</ele>
        <time>2020-12-30T12:27:48Z</time>
      </trkpt>
      <trkpt lat="43.63311" lon="3.86028">
        <ele>51</ele>
        <time>2020-12-30T12:27:50Z</time>
      </trkpt>
      <trkpt lat="43.63318" lon="3.86027">
        <ele>51</ele>
        <time>2020-12-30T12:27:52Z</time>
      </trkpt>
      <trkpt lat="43.63326" lon="3.86025">
        <ele>51</ele>
        <time>2020-12-30T12:27:54Z</time>
      </trkpt>
      <trkpt lat="43.63334" lon="3.86024">
        <ele>50</ele>
        <time>2020-12-30T12:27:56Z</time>
      </trkpt>
      <trkpt lat="43.63341" lon="3.86023">
        <ele>50</ele>
        <time>2020-12-30T12:27:58Z</time>
      </trkpt>
      <trkpt lat="43.63348" lon="3.86022">
        <ele>49</ele>
        <time>2020-12-30T12:28:00Z</time>
      </trkpt>
      <trkpt lat="43.63356" lon="3.8602">
        <ele>49</ele>
        <time>2020-12-30T12:28:02Z</time>
      </trkpt>
      <trkpt lat="43.63363" lon="3.86018">
        <ele>49</ele>
        <time>2020-12-30T12:28:04Z</time>
      </trkpt>
      <trkpt lat="43.6337" lon="3.86015">
        <ele>49</ele>
        <time>2020-12-30T12:28:06Z</time>
      </trkpt>
      <trkpt lat="43.63378" lon="3.86013">
        <ele>49</ele>
        <time>2020-12-30T12:28:08Z</time>
      </trkpt>
      <trkpt lat="43.63385" lon="3.86011">
        <ele>50</ele>
        <time>2020-12-30T12:28:10Z</time>
      </trkpt>
      <trkpt lat="43.63393" lon="3.86009">
        <ele>50</ele>
        <time>2020-12-30T12:28:12Z</time>
      </trkpt>
      <trkpt lat="43.63399" lon="3.86006">
        <ele>51</ele>
        <time>2020-12-30T12:28:14Z</time>
      </trkpt>
      <trkpt lat="43.63405" lon="3.86002">
        <ele>51</ele>
        <time>2020-12-30T12:28:16Z</time>
      </trkpt>
      <trkpt lat="43.63409" lon="3.86001">
        <ele>52</ele>
        <time>2020-12-30T12:28:18Z</time>
      </trkpt>
      <trkpt lat="43.63414" lon="3.86001">
        <ele>53</ele>
        <time>2020-12-30T12:28:20Z</time>
      </trkpt>
      <trkpt lat="43.63419" lon="3.86001">
        <ele>53</ele>
        <time>2020-12-30T12:28:22Z</time>
      </trkpt>
      <trkpt lat="43.63423" lon="3.85999">
        <ele>54</ele>
        <time>2020-12-30T12:28:25Z</time>
      </trkpt>
      <trkpt lat="43.6342" lon="3.85999">
        <ele>54</ele>
        <time>2020-12-30T12:28:43Z</time>
      </trkpt>
      <trkpt lat="43.6342" lon="3.85999">
        <ele>54</ele>
        <time>2020-12-30T12:28:44Z</time>
      </trkpt>
      <trkpt lat="43.63419" lon="3.85993">
        <ele>54</ele>
        <time>2020-12-30T12:29:13Z</time>
      </trkpt>
      <trkpt lat="43.63419" lon="3.85993">
        <ele>54</ele>
        <time>2020-12-30T12:29:14Z</time>
      </trkpt>
      <trkpt lat="43.63419" lon="3.85994">
        <ele>54</ele>
        <time>2020-12-30T12:29:43Z</time>
      </trkpt>
    </trkseg>
  </trk>
</gpx>